<?xml version="1.0" encoding="UTF-8" standalone="no" ?>
<gpx xmlns="http://www.topografix.com/GPX/1/1" xmlns:xsi="http://www.w3.org/2001/XMLSchema-instance" xsi:schemaLocation="http://www.topografix.com/GPX/1/1 http://www.topografix.com/GPX/1/1/gpx.xsd" version="1.1" creator="VisuGPX - https://www.visugpx.com">
  <metadata>
    <name>jarjjjjjjjjjjjjjjjjjjjjjjjjj</name>
    <desc><![CDATA[parcours  pour le test
mmmmmmmmmmmmmmmmmmmmmmmmmmmmmmmmmmmmmmmmmmmmmmmmmmmmmmmmmmmmmmmmmmmmmmmmmmmmmmmmmmmmmm]]></desc>
  </metadata>
  <trk>
    <name><![CDATA[Sortie à vélo dans l'après-midi]]></name>
    <trkseg>
      <trkpt lat="44.06943" lon="5.9962">
        <ele>464.7</ele>
        <time>2017-01-07T12:24:40Z</time>
      </trkpt>
      <trkpt lat="44.06931" lon="5.99607">
        <ele>465.3</ele>
        <time>2017-01-07T12:24:43Z</time>
      </trkpt>
      <trkpt lat="44.06927" lon="5.99609">
        <ele>465.3</ele>
        <time>2017-01-07T12:24:44Z</time>
      </trkpt>
      <trkpt lat="44.06923" lon="5.9961">
        <ele>465.3</ele>
        <time>2017-01-07T12:24:46Z</time>
      </trkpt>
      <trkpt lat="44.06918" lon="5.99611">
        <ele>465.3</ele>
        <time>2017-01-07T12:24:49Z</time>
      </trkpt>
      <trkpt lat="44.0692" lon="5.99614">
        <ele>465.4</ele>
        <time>2017-01-07T12:24:51Z</time>
      </trkpt>
      <trkpt lat="44.06918" lon="5.99617">
        <ele>465.4</ele>
        <time>2017-01-07T12:24:57Z</time>
      </trkpt>
      <trkpt lat="44.06917" lon="5.9962">
        <ele>465.4</ele>
        <time>2017-01-07T12:25:03Z</time>
      </trkpt>
      <trkpt lat="44.06914" lon="5.99622">
        <ele>465.4</ele>
        <time>2017-01-07T12:25:05Z</time>
      </trkpt>
      <trkpt lat="44.06911" lon="5.99627">
        <ele>465.5</ele>
        <time>2017-01-07T12:25:17Z</time>
      </trkpt>
      <trkpt lat="44.0691" lon="5.99628">
        <ele>465.5</ele>
        <time>2017-01-07T12:25:20Z</time>
      </trkpt>
      <trkpt lat="44.0691" lon="5.9963">
        <ele>465.5</ele>
        <time>2017-01-07T12:25:23Z</time>
      </trkpt>
      <trkpt lat="44.06909" lon="5.99631">
        <ele>465.5</ele>
        <time>2017-01-07T12:25:26Z</time>
      </trkpt>
      <trkpt lat="44.06909" lon="5.99632">
        <ele>465.5</ele>
        <time>2017-01-07T12:25:31Z</time>
      </trkpt>
      <trkpt lat="44.06908" lon="5.99633">
        <ele>465.5</ele>
        <time>2017-01-07T12:25:34Z</time>
      </trkpt>
      <trkpt lat="44.06908" lon="5.99635">
        <ele>465.5</ele>
        <time>2017-01-07T12:25:42Z</time>
      </trkpt>
      <trkpt lat="44.06907" lon="5.99636">
        <ele>465.6</ele>
        <time>2017-01-07T12:25:46Z</time>
      </trkpt>
      <trkpt lat="44.06907" lon="5.99637">
        <ele>465.6</ele>
        <time>2017-01-07T12:25:50Z</time>
      </trkpt>
      <trkpt lat="44.06906" lon="5.99638">
        <ele>465.6</ele>
        <time>2017-01-07T12:25:52Z</time>
      </trkpt>
      <trkpt lat="44.06906" lon="5.99639">
        <ele>465.6</ele>
        <time>2017-01-07T12:25:55Z</time>
      </trkpt>
      <trkpt lat="44.06905" lon="5.99641">
        <ele>465.6</ele>
        <time>2017-01-07T12:28:11Z</time>
      </trkpt>
      <trkpt lat="44.06905" lon="5.99642">
        <ele>465.6</ele>
        <time>2017-01-07T12:28:12Z</time>
      </trkpt>
      <trkpt lat="44.06909" lon="5.99645">
        <ele>466</ele>
        <time>2017-01-07T12:28:14Z</time>
      </trkpt>
      <trkpt lat="44.06912" lon="5.99643">
        <ele>466</ele>
        <time>2017-01-07T12:28:16Z</time>
      </trkpt>
      <trkpt lat="44.06905" lon="5.99635">
        <ele>466</ele>
        <time>2017-01-07T12:28:21Z</time>
      </trkpt>
      <trkpt lat="44.069" lon="5.99634">
        <ele>466</ele>
        <time>2017-01-07T12:28:23Z</time>
      </trkpt>
      <trkpt lat="44.06907" lon="5.99621">
        <ele>466</ele>
        <time>2017-01-07T12:30:03Z</time>
      </trkpt>
      <trkpt lat="44.06905" lon="5.99617">
        <ele>466</ele>
        <time>2017-01-07T12:30:06Z</time>
      </trkpt>
      <trkpt lat="44.06901" lon="5.99614">
        <ele>466</ele>
        <time>2017-01-07T12:30:08Z</time>
      </trkpt>
      <trkpt lat="44.06898" lon="5.9961">
        <ele>466.3</ele>
        <time>2017-01-07T12:30:10Z</time>
      </trkpt>
      <trkpt lat="44.06895" lon="5.99608">
        <ele>466.4</ele>
        <time>2017-01-07T12:30:11Z</time>
      </trkpt>
      <trkpt lat="44.06893" lon="5.99606">
        <ele>466.6</ele>
        <time>2017-01-07T12:30:12Z</time>
      </trkpt>
      <trkpt lat="44.06891" lon="5.99604">
        <ele>466.7</ele>
        <time>2017-01-07T12:30:13Z</time>
      </trkpt>
      <trkpt lat="44.06888" lon="5.99602">
        <ele>466.7</ele>
        <time>2017-01-07T12:30:14Z</time>
      </trkpt>
      <trkpt lat="44.06886" lon="5.996">
        <ele>466.8</ele>
        <time>2017-01-07T12:30:15Z</time>
      </trkpt>
      <trkpt lat="44.06883" lon="5.99598">
        <ele>466.9</ele>
        <time>2017-01-07T12:30:16Z</time>
      </trkpt>
      <trkpt lat="44.06879" lon="5.99595">
        <ele>467</ele>
        <time>2017-01-07T12:30:18Z</time>
      </trkpt>
      <trkpt lat="44.06874" lon="5.99593">
        <ele>467.1</ele>
        <time>2017-01-07T12:30:20Z</time>
      </trkpt>
      <trkpt lat="44.06872" lon="5.99596">
        <ele>467.2</ele>
        <time>2017-01-07T12:30:31Z</time>
      </trkpt>
      <trkpt lat="44.06869" lon="5.99594">
        <ele>467.2</ele>
        <time>2017-01-07T12:30:38Z</time>
      </trkpt>
      <trkpt lat="44.06865" lon="5.99594">
        <ele>467.1</ele>
        <time>2017-01-07T12:30:42Z</time>
      </trkpt>
      <trkpt lat="44.06861" lon="5.99592">
        <ele>467</ele>
        <time>2017-01-07T12:30:44Z</time>
      </trkpt>
      <trkpt lat="44.06856" lon="5.99591">
        <ele>467</ele>
        <time>2017-01-07T12:30:46Z</time>
      </trkpt>
      <trkpt lat="44.06851" lon="5.9959">
        <ele>466.9</ele>
        <time>2017-01-07T12:30:48Z</time>
      </trkpt>
      <trkpt lat="44.06847" lon="5.99589">
        <ele>466.7</ele>
        <time>2017-01-07T12:30:50Z</time>
      </trkpt>
      <trkpt lat="44.06843" lon="5.99588">
        <ele>466.5</ele>
        <time>2017-01-07T12:30:52Z</time>
      </trkpt>
      <trkpt lat="44.06839" lon="5.99586">
        <ele>466.3</ele>
        <time>2017-01-07T12:30:54Z</time>
      </trkpt>
      <trkpt lat="44.06835" lon="5.99585">
        <ele>466.1</ele>
        <time>2017-01-07T12:30:56Z</time>
      </trkpt>
      <trkpt lat="44.06831" lon="5.99584">
        <ele>466</ele>
        <time>2017-01-07T12:30:58Z</time>
      </trkpt>
      <trkpt lat="44.06827" lon="5.99582">
        <ele>466</ele>
        <time>2017-01-07T12:31:00Z</time>
      </trkpt>
      <trkpt lat="44.06822" lon="5.99581">
        <ele>466</ele>
        <time>2017-01-07T12:31:02Z</time>
      </trkpt>
      <trkpt lat="44.06817" lon="5.9958">
        <ele>466</ele>
        <time>2017-01-07T12:31:04Z</time>
      </trkpt>
      <trkpt lat="44.06815" lon="5.99579">
        <ele>465.9</ele>
        <time>2017-01-07T12:31:05Z</time>
      </trkpt>
      <trkpt lat="44.06812" lon="5.99577">
        <ele>465.9</ele>
        <time>2017-01-07T12:31:06Z</time>
      </trkpt>
      <trkpt lat="44.06808" lon="5.99575">
        <ele>465.9</ele>
        <time>2017-01-07T12:31:07Z</time>
      </trkpt>
      <trkpt lat="44.06804" lon="5.99572">
        <ele>465.9</ele>
        <time>2017-01-07T12:31:08Z</time>
      </trkpt>
      <trkpt lat="44.06801" lon="5.99569">
        <ele>465.9</ele>
        <time>2017-01-07T12:31:09Z</time>
      </trkpt>
      <trkpt lat="44.06799" lon="5.99565">
        <ele>466</ele>
        <time>2017-01-07T12:31:10Z</time>
      </trkpt>
      <trkpt lat="44.06797" lon="5.99562">
        <ele>466</ele>
        <time>2017-01-07T12:31:11Z</time>
      </trkpt>
      <trkpt lat="44.06794" lon="5.99557">
        <ele>466.3</ele>
        <time>2017-01-07T12:31:13Z</time>
      </trkpt>
      <trkpt lat="44.06793" lon="5.99551">
        <ele>466.6</ele>
        <time>2017-01-07T12:31:15Z</time>
      </trkpt>
      <trkpt lat="44.06791" lon="5.99545">
        <ele>466.9</ele>
        <time>2017-01-07T12:31:17Z</time>
      </trkpt>
      <trkpt lat="44.06791" lon="5.99541">
        <ele>467.3</ele>
        <time>2017-01-07T12:31:18Z</time>
      </trkpt>
      <trkpt lat="44.0679" lon="5.99534">
        <ele>468.3</ele>
        <time>2017-01-07T12:31:20Z</time>
      </trkpt>
      <trkpt lat="44.06789" lon="5.99528">
        <ele>468.8</ele>
        <time>2017-01-07T12:31:22Z</time>
      </trkpt>
      <trkpt lat="44.06788" lon="5.99524">
        <ele>469.3</ele>
        <time>2017-01-07T12:31:23Z</time>
      </trkpt>
      <trkpt lat="44.06787" lon="5.9952">
        <ele>469.8</ele>
        <time>2017-01-07T12:31:24Z</time>
      </trkpt>
      <trkpt lat="44.06786" lon="5.99516">
        <ele>470.3</ele>
        <time>2017-01-07T12:31:25Z</time>
      </trkpt>
      <trkpt lat="44.06785" lon="5.99512">
        <ele>470.7</ele>
        <time>2017-01-07T12:31:26Z</time>
      </trkpt>
      <trkpt lat="44.06784" lon="5.99508">
        <ele>470.6</ele>
        <time>2017-01-07T12:31:27Z</time>
      </trkpt>
      <trkpt lat="44.06783" lon="5.99501">
        <ele>470.5</ele>
        <time>2017-01-07T12:31:29Z</time>
      </trkpt>
      <trkpt lat="44.06781" lon="5.99498">
        <ele>470.4</ele>
        <time>2017-01-07T12:31:30Z</time>
      </trkpt>
      <trkpt lat="44.06779" lon="5.99495">
        <ele>470.3</ele>
        <time>2017-01-07T12:31:31Z</time>
      </trkpt>
      <trkpt lat="44.06777" lon="5.99491">
        <ele>470.2</ele>
        <time>2017-01-07T12:31:32Z</time>
      </trkpt>
      <trkpt lat="44.06774" lon="5.99486">
        <ele>470.1</ele>
        <time>2017-01-07T12:31:33Z</time>
      </trkpt>
      <trkpt lat="44.06772" lon="5.99481">
        <ele>469.9</ele>
        <time>2017-01-07T12:31:34Z</time>
      </trkpt>
      <trkpt lat="44.0677" lon="5.99477">
        <ele>469.8</ele>
        <time>2017-01-07T12:31:35Z</time>
      </trkpt>
      <trkpt lat="44.06767" lon="5.99472">
        <ele>469.6</ele>
        <time>2017-01-07T12:31:36Z</time>
      </trkpt>
      <trkpt lat="44.06765" lon="5.99468">
        <ele>469.5</ele>
        <time>2017-01-07T12:31:37Z</time>
      </trkpt>
      <trkpt lat="44.06763" lon="5.99464">
        <ele>469.4</ele>
        <time>2017-01-07T12:31:38Z</time>
      </trkpt>
      <trkpt lat="44.06762" lon="5.99459">
        <ele>469.3</ele>
        <time>2017-01-07T12:31:39Z</time>
      </trkpt>
      <trkpt lat="44.0676" lon="5.99455">
        <ele>469</ele>
        <time>2017-01-07T12:31:40Z</time>
      </trkpt>
      <trkpt lat="44.06758" lon="5.99451">
        <ele>468.8</ele>
        <time>2017-01-07T12:31:41Z</time>
      </trkpt>
      <trkpt lat="44.06756" lon="5.99448">
        <ele>468.5</ele>
        <time>2017-01-07T12:31:42Z</time>
      </trkpt>
      <trkpt lat="44.06754" lon="5.99444">
        <ele>468.3</ele>
        <time>2017-01-07T12:31:43Z</time>
      </trkpt>
      <trkpt lat="44.06751" lon="5.9944">
        <ele>468.1</ele>
        <time>2017-01-07T12:31:44Z</time>
      </trkpt>
      <trkpt lat="44.06748" lon="5.99435">
        <ele>467.9</ele>
        <time>2017-01-07T12:31:45Z</time>
      </trkpt>
      <trkpt lat="44.06745" lon="5.99429">
        <ele>467.7</ele>
        <time>2017-01-07T12:31:46Z</time>
      </trkpt>
      <trkpt lat="44.06743" lon="5.99424">
        <ele>467.4</ele>
        <time>2017-01-07T12:31:47Z</time>
      </trkpt>
      <trkpt lat="44.06741" lon="5.99418">
        <ele>467.3</ele>
        <time>2017-01-07T12:31:48Z</time>
      </trkpt>
      <trkpt lat="44.06739" lon="5.99413">
        <ele>467.3</ele>
        <time>2017-01-07T12:31:49Z</time>
      </trkpt>
      <trkpt lat="44.06738" lon="5.99407">
        <ele>467.2</ele>
        <time>2017-01-07T12:31:50Z</time>
      </trkpt>
      <trkpt lat="44.06737" lon="5.99401">
        <ele>467.3</ele>
        <time>2017-01-07T12:31:51Z</time>
      </trkpt>
      <trkpt lat="44.06737" lon="5.99395">
        <ele>467.3</ele>
        <time>2017-01-07T12:31:52Z</time>
      </trkpt>
      <trkpt lat="44.06737" lon="5.99388">
        <ele>467.3</ele>
        <time>2017-01-07T12:31:53Z</time>
      </trkpt>
      <trkpt lat="44.06739" lon="5.99382">
        <ele>467.3</ele>
        <time>2017-01-07T12:31:54Z</time>
      </trkpt>
      <trkpt lat="44.06742" lon="5.99377">
        <ele>466.8</ele>
        <time>2017-01-07T12:31:55Z</time>
      </trkpt>
      <trkpt lat="44.06744" lon="5.99372">
        <ele>466.4</ele>
        <time>2017-01-07T12:31:56Z</time>
      </trkpt>
      <trkpt lat="44.06746" lon="5.99367">
        <ele>466</ele>
        <time>2017-01-07T12:31:57Z</time>
      </trkpt>
      <trkpt lat="44.06749" lon="5.99362">
        <ele>465.6</ele>
        <time>2017-01-07T12:31:58Z</time>
      </trkpt>
      <trkpt lat="44.06751" lon="5.99357">
        <ele>465.3</ele>
        <time>2017-01-07T12:31:59Z</time>
      </trkpt>
      <trkpt lat="44.06753" lon="5.99352">
        <ele>464.9</ele>
        <time>2017-01-07T12:32:00Z</time>
      </trkpt>
      <trkpt lat="44.06755" lon="5.99348">
        <ele>464.6</ele>
        <time>2017-01-07T12:32:01Z</time>
      </trkpt>
      <trkpt lat="44.06756" lon="5.99344">
        <ele>464.4</ele>
        <time>2017-01-07T12:32:02Z</time>
      </trkpt>
      <trkpt lat="44.06758" lon="5.9934">
        <ele>464.1</ele>
        <time>2017-01-07T12:32:03Z</time>
      </trkpt>
      <trkpt lat="44.0676" lon="5.99336">
        <ele>463.9</ele>
        <time>2017-01-07T12:32:04Z</time>
      </trkpt>
      <trkpt lat="44.06762" lon="5.99332">
        <ele>463.7</ele>
        <time>2017-01-07T12:32:05Z</time>
      </trkpt>
      <trkpt lat="44.06763" lon="5.99327">
        <ele>463.5</ele>
        <time>2017-01-07T12:32:06Z</time>
      </trkpt>
      <trkpt lat="44.06765" lon="5.99324">
        <ele>463.4</ele>
        <time>2017-01-07T12:32:07Z</time>
      </trkpt>
      <trkpt lat="44.06767" lon="5.9932">
        <ele>463.3</ele>
        <time>2017-01-07T12:32:08Z</time>
      </trkpt>
      <trkpt lat="44.06768" lon="5.99316">
        <ele>463.2</ele>
        <time>2017-01-07T12:32:09Z</time>
      </trkpt>
      <trkpt lat="44.0677" lon="5.99312">
        <ele>463.1</ele>
        <time>2017-01-07T12:32:10Z</time>
      </trkpt>
      <trkpt lat="44.06772" lon="5.99309">
        <ele>463.1</ele>
        <time>2017-01-07T12:32:11Z</time>
      </trkpt>
      <trkpt lat="44.06774" lon="5.99305">
        <ele>463</ele>
        <time>2017-01-07T12:32:12Z</time>
      </trkpt>
      <trkpt lat="44.06777" lon="5.99301">
        <ele>463</ele>
        <time>2017-01-07T12:32:13Z</time>
      </trkpt>
      <trkpt lat="44.06779" lon="5.99298">
        <ele>463</ele>
        <time>2017-01-07T12:32:14Z</time>
      </trkpt>
      <trkpt lat="44.06781" lon="5.99294">
        <ele>463</ele>
        <time>2017-01-07T12:32:15Z</time>
      </trkpt>
      <trkpt lat="44.06783" lon="5.9929">
        <ele>463</ele>
        <time>2017-01-07T12:32:16Z</time>
      </trkpt>
      <trkpt lat="44.06785" lon="5.99286">
        <ele>463</ele>
        <time>2017-01-07T12:32:17Z</time>
      </trkpt>
      <trkpt lat="44.06787" lon="5.99282">
        <ele>462.9</ele>
        <time>2017-01-07T12:32:18Z</time>
      </trkpt>
      <trkpt lat="44.06789" lon="5.99278">
        <ele>462.8</ele>
        <time>2017-01-07T12:32:19Z</time>
      </trkpt>
      <trkpt lat="44.06791" lon="5.99275">
        <ele>462.8</ele>
        <time>2017-01-07T12:32:20Z</time>
      </trkpt>
      <trkpt lat="44.06794" lon="5.99272">
        <ele>462.7</ele>
        <time>2017-01-07T12:32:21Z</time>
      </trkpt>
      <trkpt lat="44.06796" lon="5.99269">
        <ele>462.6</ele>
        <time>2017-01-07T12:32:22Z</time>
      </trkpt>
      <trkpt lat="44.06799" lon="5.99266">
        <ele>462.5</ele>
        <time>2017-01-07T12:32:23Z</time>
      </trkpt>
      <trkpt lat="44.06801" lon="5.99262">
        <ele>462.4</ele>
        <time>2017-01-07T12:32:24Z</time>
      </trkpt>
      <trkpt lat="44.06803" lon="5.99259">
        <ele>462.3</ele>
        <time>2017-01-07T12:32:25Z</time>
      </trkpt>
      <trkpt lat="44.06806" lon="5.99255">
        <ele>462.2</ele>
        <time>2017-01-07T12:32:26Z</time>
      </trkpt>
      <trkpt lat="44.06808" lon="5.99251">
        <ele>462.1</ele>
        <time>2017-01-07T12:32:27Z</time>
      </trkpt>
      <trkpt lat="44.0681" lon="5.99248">
        <ele>462.1</ele>
        <time>2017-01-07T12:32:28Z</time>
      </trkpt>
      <trkpt lat="44.06813" lon="5.99245">
        <ele>462</ele>
        <time>2017-01-07T12:32:29Z</time>
      </trkpt>
      <trkpt lat="44.06815" lon="5.99243">
        <ele>462</ele>
        <time>2017-01-07T12:32:30Z</time>
      </trkpt>
      <trkpt lat="44.06818" lon="5.9924">
        <ele>461.9</ele>
        <time>2017-01-07T12:32:31Z</time>
      </trkpt>
      <trkpt lat="44.0682" lon="5.99236">
        <ele>461.9</ele>
        <time>2017-01-07T12:32:32Z</time>
      </trkpt>
      <trkpt lat="44.06822" lon="5.99233">
        <ele>461.8</ele>
        <time>2017-01-07T12:32:33Z</time>
      </trkpt>
      <trkpt lat="44.06824" lon="5.99229">
        <ele>461.8</ele>
        <time>2017-01-07T12:32:34Z</time>
      </trkpt>
      <trkpt lat="44.06825" lon="5.99225">
        <ele>461.8</ele>
        <time>2017-01-07T12:32:35Z</time>
      </trkpt>
      <trkpt lat="44.06826" lon="5.99221">
        <ele>461.7</ele>
        <time>2017-01-07T12:32:36Z</time>
      </trkpt>
      <trkpt lat="44.06828" lon="5.99217">
        <ele>461.7</ele>
        <time>2017-01-07T12:32:37Z</time>
      </trkpt>
      <trkpt lat="44.0683" lon="5.99214">
        <ele>461.7</ele>
        <time>2017-01-07T12:32:38Z</time>
      </trkpt>
      <trkpt lat="44.06833" lon="5.99211">
        <ele>461.6</ele>
        <time>2017-01-07T12:32:39Z</time>
      </trkpt>
      <trkpt lat="44.06835" lon="5.99208">
        <ele>461.5</ele>
        <time>2017-01-07T12:32:40Z</time>
      </trkpt>
      <trkpt lat="44.06837" lon="5.99204">
        <ele>461.4</ele>
        <time>2017-01-07T12:32:41Z</time>
      </trkpt>
      <trkpt lat="44.06839" lon="5.99201">
        <ele>461.3</ele>
        <time>2017-01-07T12:32:42Z</time>
      </trkpt>
      <trkpt lat="44.06841" lon="5.99197">
        <ele>461.2</ele>
        <time>2017-01-07T12:32:43Z</time>
      </trkpt>
      <trkpt lat="44.06843" lon="5.99193">
        <ele>461.1</ele>
        <time>2017-01-07T12:32:44Z</time>
      </trkpt>
      <trkpt lat="44.06845" lon="5.99189">
        <ele>461</ele>
        <time>2017-01-07T12:32:45Z</time>
      </trkpt>
      <trkpt lat="44.06847" lon="5.99186">
        <ele>461</ele>
        <time>2017-01-07T12:32:46Z</time>
      </trkpt>
      <trkpt lat="44.0685" lon="5.99183">
        <ele>461.1</ele>
        <time>2017-01-07T12:32:47Z</time>
      </trkpt>
      <trkpt lat="44.06852" lon="5.99179">
        <ele>461.1</ele>
        <time>2017-01-07T12:32:48Z</time>
      </trkpt>
      <trkpt lat="44.06854" lon="5.99175">
        <ele>461.1</ele>
        <time>2017-01-07T12:32:49Z</time>
      </trkpt>
      <trkpt lat="44.06856" lon="5.99172">
        <ele>461.1</ele>
        <time>2017-01-07T12:32:50Z</time>
      </trkpt>
      <trkpt lat="44.06858" lon="5.99167">
        <ele>461.2</ele>
        <time>2017-01-07T12:32:51Z</time>
      </trkpt>
      <trkpt lat="44.0686" lon="5.99162">
        <ele>461.2</ele>
        <time>2017-01-07T12:32:52Z</time>
      </trkpt>
      <trkpt lat="44.06862" lon="5.99158">
        <ele>461.3</ele>
        <time>2017-01-07T12:32:53Z</time>
      </trkpt>
      <trkpt lat="44.06865" lon="5.99155">
        <ele>461.3</ele>
        <time>2017-01-07T12:32:54Z</time>
      </trkpt>
      <trkpt lat="44.06867" lon="5.99151">
        <ele>461.3</ele>
        <time>2017-01-07T12:32:55Z</time>
      </trkpt>
      <trkpt lat="44.0687" lon="5.99148">
        <ele>461.4</ele>
        <time>2017-01-07T12:32:56Z</time>
      </trkpt>
      <trkpt lat="44.06872" lon="5.99145">
        <ele>461.4</ele>
        <time>2017-01-07T12:32:57Z</time>
      </trkpt>
      <trkpt lat="44.06874" lon="5.99142">
        <ele>461.5</ele>
        <time>2017-01-07T12:32:58Z</time>
      </trkpt>
      <trkpt lat="44.06876" lon="5.99139">
        <ele>461.5</ele>
        <time>2017-01-07T12:32:59Z</time>
      </trkpt>
      <trkpt lat="44.06878" lon="5.99136">
        <ele>461.5</ele>
        <time>2017-01-07T12:33:00Z</time>
      </trkpt>
      <trkpt lat="44.0688" lon="5.99133">
        <ele>461.6</ele>
        <time>2017-01-07T12:33:01Z</time>
      </trkpt>
      <trkpt lat="44.06882" lon="5.9913">
        <ele>461.6</ele>
        <time>2017-01-07T12:33:02Z</time>
      </trkpt>
      <trkpt lat="44.06885" lon="5.99127">
        <ele>461.6</ele>
        <time>2017-01-07T12:33:03Z</time>
      </trkpt>
      <trkpt lat="44.06887" lon="5.99123">
        <ele>461.6</ele>
        <time>2017-01-07T12:33:04Z</time>
      </trkpt>
      <trkpt lat="44.06889" lon="5.9912">
        <ele>461.7</ele>
        <time>2017-01-07T12:33:05Z</time>
      </trkpt>
      <trkpt lat="44.06891" lon="5.99116">
        <ele>461.7</ele>
        <time>2017-01-07T12:33:06Z</time>
      </trkpt>
      <trkpt lat="44.06894" lon="5.99113">
        <ele>461.7</ele>
        <time>2017-01-07T12:33:07Z</time>
      </trkpt>
      <trkpt lat="44.06896" lon="5.9911">
        <ele>461.8</ele>
        <time>2017-01-07T12:33:08Z</time>
      </trkpt>
      <trkpt lat="44.06898" lon="5.99106">
        <ele>461.8</ele>
        <time>2017-01-07T12:33:09Z</time>
      </trkpt>
      <trkpt lat="44.069" lon="5.99102">
        <ele>461.8</ele>
        <time>2017-01-07T12:33:10Z</time>
      </trkpt>
      <trkpt lat="44.06902" lon="5.99099">
        <ele>461.9</ele>
        <time>2017-01-07T12:33:11Z</time>
      </trkpt>
      <trkpt lat="44.06904" lon="5.99096">
        <ele>461.9</ele>
        <time>2017-01-07T12:33:12Z</time>
      </trkpt>
      <trkpt lat="44.06907" lon="5.99092">
        <ele>461.9</ele>
        <time>2017-01-07T12:33:13Z</time>
      </trkpt>
      <trkpt lat="44.06909" lon="5.99089">
        <ele>462</ele>
        <time>2017-01-07T12:33:14Z</time>
      </trkpt>
      <trkpt lat="44.06911" lon="5.99086">
        <ele>462</ele>
        <time>2017-01-07T12:33:15Z</time>
      </trkpt>
      <trkpt lat="44.06913" lon="5.99082">
        <ele>462.1</ele>
        <time>2017-01-07T12:33:16Z</time>
      </trkpt>
      <trkpt lat="44.06915" lon="5.99079">
        <ele>462.1</ele>
        <time>2017-01-07T12:33:17Z</time>
      </trkpt>
      <trkpt lat="44.06917" lon="5.99076">
        <ele>462.1</ele>
        <time>2017-01-07T12:33:18Z</time>
      </trkpt>
      <trkpt lat="44.06919" lon="5.99073">
        <ele>462.2</ele>
        <time>2017-01-07T12:33:19Z</time>
      </trkpt>
      <trkpt lat="44.06922" lon="5.9907">
        <ele>462.2</ele>
        <time>2017-01-07T12:33:20Z</time>
      </trkpt>
      <trkpt lat="44.06924" lon="5.99066">
        <ele>462.3</ele>
        <time>2017-01-07T12:33:21Z</time>
      </trkpt>
      <trkpt lat="44.06927" lon="5.99063">
        <ele>462.3</ele>
        <time>2017-01-07T12:33:22Z</time>
      </trkpt>
      <trkpt lat="44.06929" lon="5.99059">
        <ele>462.3</ele>
        <time>2017-01-07T12:33:23Z</time>
      </trkpt>
      <trkpt lat="44.06931" lon="5.99055">
        <ele>462.3</ele>
        <time>2017-01-07T12:33:24Z</time>
      </trkpt>
      <trkpt lat="44.06934" lon="5.99052">
        <ele>462.3</ele>
        <time>2017-01-07T12:33:25Z</time>
      </trkpt>
      <trkpt lat="44.06936" lon="5.99049">
        <ele>462.2</ele>
        <time>2017-01-07T12:33:26Z</time>
      </trkpt>
      <trkpt lat="44.06938" lon="5.99045">
        <ele>462.2</ele>
        <time>2017-01-07T12:33:27Z</time>
      </trkpt>
      <trkpt lat="44.0694" lon="5.99041">
        <ele>462.2</ele>
        <time>2017-01-07T12:33:28Z</time>
      </trkpt>
      <trkpt lat="44.06943" lon="5.99037">
        <ele>462.2</ele>
        <time>2017-01-07T12:33:29Z</time>
      </trkpt>
      <trkpt lat="44.06945" lon="5.99034">
        <ele>462.2</ele>
        <time>2017-01-07T12:33:30Z</time>
      </trkpt>
      <trkpt lat="44.06948" lon="5.99031">
        <ele>462.2</ele>
        <time>2017-01-07T12:33:31Z</time>
      </trkpt>
      <trkpt lat="44.0695" lon="5.99028">
        <ele>462.2</ele>
        <time>2017-01-07T12:33:32Z</time>
      </trkpt>
      <trkpt lat="44.06952" lon="5.99024">
        <ele>462.1</ele>
        <time>2017-01-07T12:33:33Z</time>
      </trkpt>
      <trkpt lat="44.06954" lon="5.99022">
        <ele>462.1</ele>
        <time>2017-01-07T12:33:34Z</time>
      </trkpt>
      <trkpt lat="44.06956" lon="5.99019">
        <ele>462.1</ele>
        <time>2017-01-07T12:33:35Z</time>
      </trkpt>
      <trkpt lat="44.06958" lon="5.99016">
        <ele>462.1</ele>
        <time>2017-01-07T12:33:36Z</time>
      </trkpt>
      <trkpt lat="44.0696" lon="5.99013">
        <ele>462.1</ele>
        <time>2017-01-07T12:33:37Z</time>
      </trkpt>
      <trkpt lat="44.06962" lon="5.99009">
        <ele>462.1</ele>
        <time>2017-01-07T12:33:38Z</time>
      </trkpt>
      <trkpt lat="44.06963" lon="5.99005">
        <ele>462.1</ele>
        <time>2017-01-07T12:33:39Z</time>
      </trkpt>
      <trkpt lat="44.06964" lon="5.99001">
        <ele>462</ele>
        <time>2017-01-07T12:33:40Z</time>
      </trkpt>
      <trkpt lat="44.06965" lon="5.98997">
        <ele>462</ele>
        <time>2017-01-07T12:33:41Z</time>
      </trkpt>
      <trkpt lat="44.06964" lon="5.98992">
        <ele>462</ele>
        <time>2017-01-07T12:33:42Z</time>
      </trkpt>
      <trkpt lat="44.06962" lon="5.98987">
        <ele>462</ele>
        <time>2017-01-07T12:33:43Z</time>
      </trkpt>
      <trkpt lat="44.0696" lon="5.98982">
        <ele>462</ele>
        <time>2017-01-07T12:33:44Z</time>
      </trkpt>
      <trkpt lat="44.06957" lon="5.98978">
        <ele>462.1</ele>
        <time>2017-01-07T12:33:45Z</time>
      </trkpt>
      <trkpt lat="44.06954" lon="5.98974">
        <ele>462.1</ele>
        <time>2017-01-07T12:33:46Z</time>
      </trkpt>
      <trkpt lat="44.06952" lon="5.9897">
        <ele>462</ele>
        <time>2017-01-07T12:33:47Z</time>
      </trkpt>
      <trkpt lat="44.06949" lon="5.98967">
        <ele>462</ele>
        <time>2017-01-07T12:33:48Z</time>
      </trkpt>
      <trkpt lat="44.06945" lon="5.98965">
        <ele>462.1</ele>
        <time>2017-01-07T12:33:49Z</time>
      </trkpt>
      <trkpt lat="44.06941" lon="5.98964">
        <ele>462.1</ele>
        <time>2017-01-07T12:33:50Z</time>
      </trkpt>
      <trkpt lat="44.06937" lon="5.98964">
        <ele>462</ele>
        <time>2017-01-07T12:33:51Z</time>
      </trkpt>
      <trkpt lat="44.06933" lon="5.98964">
        <ele>462</ele>
        <time>2017-01-07T12:33:52Z</time>
      </trkpt>
      <trkpt lat="44.06929" lon="5.98964">
        <ele>462</ele>
        <time>2017-01-07T12:33:53Z</time>
      </trkpt>
      <trkpt lat="44.06926" lon="5.98963">
        <ele>462</ele>
        <time>2017-01-07T12:33:54Z</time>
      </trkpt>
      <trkpt lat="44.06922" lon="5.9896">
        <ele>462</ele>
        <time>2017-01-07T12:33:55Z</time>
      </trkpt>
      <trkpt lat="44.0692" lon="5.98956">
        <ele>462</ele>
        <time>2017-01-07T12:33:56Z</time>
      </trkpt>
      <trkpt lat="44.06918" lon="5.98951">
        <ele>462.1</ele>
        <time>2017-01-07T12:33:57Z</time>
      </trkpt>
      <trkpt lat="44.06917" lon="5.98946">
        <ele>462.3</ele>
        <time>2017-01-07T12:33:58Z</time>
      </trkpt>
      <trkpt lat="44.06916" lon="5.98941">
        <ele>462.5</ele>
        <time>2017-01-07T12:33:59Z</time>
      </trkpt>
      <trkpt lat="44.06916" lon="5.98936">
        <ele>462.7</ele>
        <time>2017-01-07T12:34:00Z</time>
      </trkpt>
      <trkpt lat="44.06916" lon="5.98931">
        <ele>462.9</ele>
        <time>2017-01-07T12:34:01Z</time>
      </trkpt>
      <trkpt lat="44.06916" lon="5.98926">
        <ele>463.1</ele>
        <time>2017-01-07T12:34:02Z</time>
      </trkpt>
      <trkpt lat="44.06916" lon="5.98921">
        <ele>463.2</ele>
        <time>2017-01-07T12:34:03Z</time>
      </trkpt>
      <trkpt lat="44.06915" lon="5.98917">
        <ele>463.3</ele>
        <time>2017-01-07T12:34:04Z</time>
      </trkpt>
      <trkpt lat="44.06916" lon="5.98909">
        <ele>463.4</ele>
        <time>2017-01-07T12:39:18Z</time>
      </trkpt>
      <trkpt lat="44.06918" lon="5.98907">
        <ele>463.4</ele>
        <time>2017-01-07T12:39:22Z</time>
      </trkpt>
      <trkpt lat="44.06919" lon="5.98902">
        <ele>463.4</ele>
        <time>2017-01-07T12:39:25Z</time>
      </trkpt>
      <trkpt lat="44.06919" lon="5.98896">
        <ele>463.4</ele>
        <time>2017-01-07T12:39:28Z</time>
      </trkpt>
      <trkpt lat="44.06919" lon="5.98891">
        <ele>463.3</ele>
        <time>2017-01-07T12:39:30Z</time>
      </trkpt>
      <trkpt lat="44.06919" lon="5.98885">
        <ele>463.3</ele>
        <time>2017-01-07T12:39:32Z</time>
      </trkpt>
      <trkpt lat="44.06918" lon="5.98878">
        <ele>463.3</ele>
        <time>2017-01-07T12:39:34Z</time>
      </trkpt>
      <trkpt lat="44.06918" lon="5.98871">
        <ele>463.2</ele>
        <time>2017-01-07T12:39:36Z</time>
      </trkpt>
      <trkpt lat="44.06918" lon="5.98864">
        <ele>463.2</ele>
        <time>2017-01-07T12:39:38Z</time>
      </trkpt>
      <trkpt lat="44.06918" lon="5.98858">
        <ele>463.1</ele>
        <time>2017-01-07T12:39:40Z</time>
      </trkpt>
      <trkpt lat="44.06918" lon="5.98852">
        <ele>463.1</ele>
        <time>2017-01-07T12:39:42Z</time>
      </trkpt>
      <trkpt lat="44.06918" lon="5.98847">
        <ele>463.1</ele>
        <time>2017-01-07T12:39:44Z</time>
      </trkpt>
      <trkpt lat="44.06919" lon="5.98842">
        <ele>463.1</ele>
        <time>2017-01-07T12:39:46Z</time>
      </trkpt>
      <trkpt lat="44.06918" lon="5.98836">
        <ele>463.1</ele>
        <time>2017-01-07T12:39:48Z</time>
      </trkpt>
      <trkpt lat="44.06917" lon="5.98831">
        <ele>463.1</ele>
        <time>2017-01-07T12:39:50Z</time>
      </trkpt>
      <trkpt lat="44.06917" lon="5.98825">
        <ele>463.2</ele>
        <time>2017-01-07T12:39:52Z</time>
      </trkpt>
      <trkpt lat="44.06917" lon="5.98819">
        <ele>463.2</ele>
        <time>2017-01-07T12:39:54Z</time>
      </trkpt>
      <trkpt lat="44.06916" lon="5.98813">
        <ele>463.2</ele>
        <time>2017-01-07T12:39:56Z</time>
      </trkpt>
      <trkpt lat="44.06915" lon="5.98807">
        <ele>463.1</ele>
        <time>2017-01-07T12:39:58Z</time>
      </trkpt>
      <trkpt lat="44.06915" lon="5.98799">
        <ele>462.9</ele>
        <time>2017-01-07T12:40:00Z</time>
      </trkpt>
      <trkpt lat="44.06915" lon="5.98795">
        <ele>462.8</ele>
        <time>2017-01-07T12:40:01Z</time>
      </trkpt>
      <trkpt lat="44.06916" lon="5.98791">
        <ele>462.6</ele>
        <time>2017-01-07T12:40:02Z</time>
      </trkpt>
      <trkpt lat="44.06916" lon="5.98784">
        <ele>462.3</ele>
        <time>2017-01-07T12:40:04Z</time>
      </trkpt>
      <trkpt lat="44.06916" lon="5.98777">
        <ele>462.2</ele>
        <time>2017-01-07T12:40:06Z</time>
      </trkpt>
      <trkpt lat="44.06916" lon="5.98773">
        <ele>462.1</ele>
        <time>2017-01-07T12:40:07Z</time>
      </trkpt>
      <trkpt lat="44.06916" lon="5.98766">
        <ele>462</ele>
        <time>2017-01-07T12:40:09Z</time>
      </trkpt>
      <trkpt lat="44.06916" lon="5.98762">
        <ele>462</ele>
        <time>2017-01-07T12:40:10Z</time>
      </trkpt>
      <trkpt lat="44.06916" lon="5.98758">
        <ele>462</ele>
        <time>2017-01-07T12:40:11Z</time>
      </trkpt>
      <trkpt lat="44.06916" lon="5.98754">
        <ele>462</ele>
        <time>2017-01-07T12:40:12Z</time>
      </trkpt>
      <trkpt lat="44.06916" lon="5.9875">
        <ele>462</ele>
        <time>2017-01-07T12:40:13Z</time>
      </trkpt>
      <trkpt lat="44.06916" lon="5.98746">
        <ele>462</ele>
        <time>2017-01-07T12:40:14Z</time>
      </trkpt>
      <trkpt lat="44.06916" lon="5.98742">
        <ele>462.1</ele>
        <time>2017-01-07T12:40:15Z</time>
      </trkpt>
      <trkpt lat="44.06916" lon="5.98738">
        <ele>462.1</ele>
        <time>2017-01-07T12:40:16Z</time>
      </trkpt>
      <trkpt lat="44.06916" lon="5.98734">
        <ele>462.2</ele>
        <time>2017-01-07T12:40:17Z</time>
      </trkpt>
      <trkpt lat="44.06916" lon="5.9873">
        <ele>462.3</ele>
        <time>2017-01-07T12:40:18Z</time>
      </trkpt>
      <trkpt lat="44.06916" lon="5.98723">
        <ele>462.5</ele>
        <time>2017-01-07T12:40:20Z</time>
      </trkpt>
      <trkpt lat="44.06916" lon="5.98719">
        <ele>462.7</ele>
        <time>2017-01-07T12:40:21Z</time>
      </trkpt>
      <trkpt lat="44.06916" lon="5.98715">
        <ele>462.8</ele>
        <time>2017-01-07T12:40:22Z</time>
      </trkpt>
      <trkpt lat="44.06916" lon="5.98711">
        <ele>463.1</ele>
        <time>2017-01-07T12:40:23Z</time>
      </trkpt>
      <trkpt lat="44.06915" lon="5.98707">
        <ele>463.3</ele>
        <time>2017-01-07T12:40:24Z</time>
      </trkpt>
      <trkpt lat="44.06915" lon="5.98703">
        <ele>463.6</ele>
        <time>2017-01-07T12:40:25Z</time>
      </trkpt>
      <trkpt lat="44.06914" lon="5.98698">
        <ele>463.9</ele>
        <time>2017-01-07T12:40:26Z</time>
      </trkpt>
      <trkpt lat="44.06914" lon="5.98693">
        <ele>464.2</ele>
        <time>2017-01-07T12:40:27Z</time>
      </trkpt>
      <trkpt lat="44.06913" lon="5.98689">
        <ele>464.5</ele>
        <time>2017-01-07T12:40:28Z</time>
      </trkpt>
      <trkpt lat="44.06912" lon="5.98684">
        <ele>464.7</ele>
        <time>2017-01-07T12:40:29Z</time>
      </trkpt>
      <trkpt lat="44.06911" lon="5.9868">
        <ele>464.9</ele>
        <time>2017-01-07T12:40:30Z</time>
      </trkpt>
      <trkpt lat="44.06909" lon="5.98676">
        <ele>465</ele>
        <time>2017-01-07T12:40:31Z</time>
      </trkpt>
      <trkpt lat="44.06906" lon="5.98674">
        <ele>464.9</ele>
        <time>2017-01-07T12:40:32Z</time>
      </trkpt>
      <trkpt lat="44.06903" lon="5.98672">
        <ele>464.8</ele>
        <time>2017-01-07T12:40:33Z</time>
      </trkpt>
      <trkpt lat="44.06899" lon="5.9867">
        <ele>464.7</ele>
        <time>2017-01-07T12:40:34Z</time>
      </trkpt>
      <trkpt lat="44.06895" lon="5.9867">
        <ele>464.6</ele>
        <time>2017-01-07T12:40:35Z</time>
      </trkpt>
      <trkpt lat="44.06891" lon="5.9867">
        <ele>464.5</ele>
        <time>2017-01-07T12:40:36Z</time>
      </trkpt>
      <trkpt lat="44.06888" lon="5.9867">
        <ele>464.5</ele>
        <time>2017-01-07T12:40:37Z</time>
      </trkpt>
      <trkpt lat="44.06884" lon="5.9867">
        <ele>464.4</ele>
        <time>2017-01-07T12:40:38Z</time>
      </trkpt>
      <trkpt lat="44.0688" lon="5.9867">
        <ele>464.3</ele>
        <time>2017-01-07T12:40:39Z</time>
      </trkpt>
      <trkpt lat="44.06877" lon="5.9867">
        <ele>464.2</ele>
        <time>2017-01-07T12:40:40Z</time>
      </trkpt>
      <trkpt lat="44.06874" lon="5.9867">
        <ele>464.1</ele>
        <time>2017-01-07T12:40:41Z</time>
      </trkpt>
      <trkpt lat="44.0687" lon="5.98668">
        <ele>463.9</ele>
        <time>2017-01-07T12:40:42Z</time>
      </trkpt>
      <trkpt lat="44.06867" lon="5.98666">
        <ele>463.7</ele>
        <time>2017-01-07T12:40:43Z</time>
      </trkpt>
      <trkpt lat="44.06864" lon="5.98664">
        <ele>463.5</ele>
        <time>2017-01-07T12:40:44Z</time>
      </trkpt>
      <trkpt lat="44.06862" lon="5.98661">
        <ele>463.4</ele>
        <time>2017-01-07T12:40:45Z</time>
      </trkpt>
      <trkpt lat="44.0686" lon="5.98658">
        <ele>463.2</ele>
        <time>2017-01-07T12:40:46Z</time>
      </trkpt>
      <trkpt lat="44.06856" lon="5.98654">
        <ele>462.9</ele>
        <time>2017-01-07T12:40:48Z</time>
      </trkpt>
      <trkpt lat="44.06854" lon="5.98651">
        <ele>462.8</ele>
        <time>2017-01-07T12:40:49Z</time>
      </trkpt>
      <trkpt lat="44.06851" lon="5.98649">
        <ele>462.7</ele>
        <time>2017-01-07T12:40:50Z</time>
      </trkpt>
      <trkpt lat="44.06849" lon="5.98646">
        <ele>462.6</ele>
        <time>2017-01-07T12:40:51Z</time>
      </trkpt>
      <trkpt lat="44.06846" lon="5.98644">
        <ele>462.5</ele>
        <time>2017-01-07T12:40:52Z</time>
      </trkpt>
      <trkpt lat="44.06844" lon="5.98642">
        <ele>462.4</ele>
        <time>2017-01-07T12:40:53Z</time>
      </trkpt>
      <trkpt lat="44.0684" lon="5.98637">
        <ele>462.3</ele>
        <time>2017-01-07T12:40:55Z</time>
      </trkpt>
      <trkpt lat="44.06836" lon="5.98633">
        <ele>462.2</ele>
        <time>2017-01-07T12:40:57Z</time>
      </trkpt>
      <trkpt lat="44.06834" lon="5.9863">
        <ele>462.1</ele>
        <time>2017-01-07T12:40:58Z</time>
      </trkpt>
      <trkpt lat="44.06832" lon="5.98627">
        <ele>462</ele>
        <time>2017-01-07T12:40:59Z</time>
      </trkpt>
      <trkpt lat="44.0683" lon="5.98624">
        <ele>462</ele>
        <time>2017-01-07T12:41:00Z</time>
      </trkpt>
      <trkpt lat="44.06828" lon="5.98621">
        <ele>462</ele>
        <time>2017-01-07T12:41:01Z</time>
      </trkpt>
      <trkpt lat="44.06826" lon="5.98618">
        <ele>462</ele>
        <time>2017-01-07T12:41:02Z</time>
      </trkpt>
      <trkpt lat="44.06824" lon="5.98615">
        <ele>462</ele>
        <time>2017-01-07T12:41:03Z</time>
      </trkpt>
      <trkpt lat="44.06821" lon="5.98612">
        <ele>462</ele>
        <time>2017-01-07T12:41:04Z</time>
      </trkpt>
      <trkpt lat="44.06819" lon="5.98608">
        <ele>462</ele>
        <time>2017-01-07T12:41:05Z</time>
      </trkpt>
      <trkpt lat="44.06819" lon="5.98603">
        <ele>462.9</ele>
        <time>2017-01-07T12:41:06Z</time>
      </trkpt>
      <trkpt lat="44.0682" lon="5.98599">
        <ele>463.2</ele>
        <time>2017-01-07T12:41:07Z</time>
      </trkpt>
      <trkpt lat="44.06821" lon="5.98596">
        <ele>463.5</ele>
        <time>2017-01-07T12:41:08Z</time>
      </trkpt>
      <trkpt lat="44.06823" lon="5.98593">
        <ele>463.7</ele>
        <time>2017-01-07T12:41:09Z</time>
      </trkpt>
      <trkpt lat="44.06826" lon="5.98588">
        <ele>464.2</ele>
        <time>2017-01-07T12:41:11Z</time>
      </trkpt>
      <trkpt lat="44.06829" lon="5.98583">
        <ele>464.6</ele>
        <time>2017-01-07T12:41:13Z</time>
      </trkpt>
      <trkpt lat="44.06832" lon="5.98578">
        <ele>465</ele>
        <time>2017-01-07T12:41:15Z</time>
      </trkpt>
      <trkpt lat="44.06835" lon="5.98574">
        <ele>465.4</ele>
        <time>2017-01-07T12:41:17Z</time>
      </trkpt>
      <trkpt lat="44.06839" lon="5.98569">
        <ele>465.8</ele>
        <time>2017-01-07T12:41:19Z</time>
      </trkpt>
      <trkpt lat="44.06842" lon="5.98565">
        <ele>466.2</ele>
        <time>2017-01-07T12:41:21Z</time>
      </trkpt>
      <trkpt lat="44.06845" lon="5.98559">
        <ele>466.6</ele>
        <time>2017-01-07T12:41:23Z</time>
      </trkpt>
      <trkpt lat="44.06848" lon="5.98553">
        <ele>467</ele>
        <time>2017-01-07T12:41:25Z</time>
      </trkpt>
      <trkpt lat="44.0685" lon="5.9855">
        <ele>467</ele>
        <time>2017-01-07T12:41:26Z</time>
      </trkpt>
      <trkpt lat="44.06852" lon="5.98547">
        <ele>467</ele>
        <time>2017-01-07T12:41:27Z</time>
      </trkpt>
      <trkpt lat="44.06853" lon="5.98543">
        <ele>467</ele>
        <time>2017-01-07T12:41:28Z</time>
      </trkpt>
      <trkpt lat="44.06856" lon="5.9854">
        <ele>467</ele>
        <time>2017-01-07T12:41:29Z</time>
      </trkpt>
      <trkpt lat="44.06858" lon="5.98536">
        <ele>467</ele>
        <time>2017-01-07T12:41:30Z</time>
      </trkpt>
      <trkpt lat="44.0686" lon="5.98533">
        <ele>467</ele>
        <time>2017-01-07T12:41:31Z</time>
      </trkpt>
      <trkpt lat="44.06862" lon="5.98529">
        <ele>467</ele>
        <time>2017-01-07T12:41:32Z</time>
      </trkpt>
      <trkpt lat="44.06864" lon="5.98525">
        <ele>467</ele>
        <time>2017-01-07T12:41:33Z</time>
      </trkpt>
      <trkpt lat="44.06867" lon="5.98521">
        <ele>467</ele>
        <time>2017-01-07T12:41:34Z</time>
      </trkpt>
      <trkpt lat="44.06869" lon="5.98518">
        <ele>467</ele>
        <time>2017-01-07T12:41:35Z</time>
      </trkpt>
      <trkpt lat="44.06871" lon="5.98514">
        <ele>467</ele>
        <time>2017-01-07T12:41:36Z</time>
      </trkpt>
      <trkpt lat="44.06873" lon="5.98511">
        <ele>467</ele>
        <time>2017-01-07T12:41:37Z</time>
      </trkpt>
      <trkpt lat="44.06875" lon="5.98508">
        <ele>467</ele>
        <time>2017-01-07T12:41:38Z</time>
      </trkpt>
      <trkpt lat="44.06877" lon="5.98505">
        <ele>467</ele>
        <time>2017-01-07T12:41:39Z</time>
      </trkpt>
      <trkpt lat="44.0688" lon="5.98502">
        <ele>467</ele>
        <time>2017-01-07T12:41:40Z</time>
      </trkpt>
      <trkpt lat="44.06882" lon="5.985">
        <ele>467</ele>
        <time>2017-01-07T12:41:41Z</time>
      </trkpt>
      <trkpt lat="44.06886" lon="5.98498">
        <ele>467</ele>
        <time>2017-01-07T12:41:43Z</time>
      </trkpt>
      <trkpt lat="44.06891" lon="5.98496">
        <ele>467</ele>
        <time>2017-01-07T12:41:45Z</time>
      </trkpt>
      <trkpt lat="44.06895" lon="5.98494">
        <ele>467</ele>
        <time>2017-01-07T12:41:47Z</time>
      </trkpt>
      <trkpt lat="44.06897" lon="5.98491">
        <ele>467</ele>
        <time>2017-01-07T12:41:55Z</time>
      </trkpt>
      <trkpt lat="44.06898" lon="5.98486">
        <ele>467</ele>
        <time>2017-01-07T12:41:57Z</time>
      </trkpt>
      <trkpt lat="44.06898" lon="5.9848">
        <ele>467</ele>
        <time>2017-01-07T12:41:59Z</time>
      </trkpt>
      <trkpt lat="44.06895" lon="5.98474">
        <ele>467</ele>
        <time>2017-01-07T12:42:01Z</time>
      </trkpt>
      <trkpt lat="44.06893" lon="5.98471">
        <ele>467</ele>
        <time>2017-01-07T12:42:02Z</time>
      </trkpt>
      <trkpt lat="44.06889" lon="5.98466">
        <ele>467</ele>
        <time>2017-01-07T12:42:04Z</time>
      </trkpt>
      <trkpt lat="44.06887" lon="5.98464">
        <ele>467</ele>
        <time>2017-01-07T12:42:05Z</time>
      </trkpt>
      <trkpt lat="44.06884" lon="5.9846">
        <ele>467</ele>
        <time>2017-01-07T12:42:06Z</time>
      </trkpt>
      <trkpt lat="44.06882" lon="5.98457">
        <ele>467</ele>
        <time>2017-01-07T12:42:07Z</time>
      </trkpt>
      <trkpt lat="44.0688" lon="5.98454">
        <ele>467</ele>
        <time>2017-01-07T12:42:08Z</time>
      </trkpt>
      <trkpt lat="44.06877" lon="5.98451">
        <ele>467</ele>
        <time>2017-01-07T12:42:09Z</time>
      </trkpt>
      <trkpt lat="44.06875" lon="5.98447">
        <ele>467</ele>
        <time>2017-01-07T12:42:10Z</time>
      </trkpt>
      <trkpt lat="44.06873" lon="5.98444">
        <ele>466.9</ele>
        <time>2017-01-07T12:42:11Z</time>
      </trkpt>
      <trkpt lat="44.06871" lon="5.98441">
        <ele>466.8</ele>
        <time>2017-01-07T12:42:12Z</time>
      </trkpt>
      <trkpt lat="44.06869" lon="5.98438">
        <ele>466.8</ele>
        <time>2017-01-07T12:42:13Z</time>
      </trkpt>
      <trkpt lat="44.06866" lon="5.98433">
        <ele>466.7</ele>
        <time>2017-01-07T12:42:15Z</time>
      </trkpt>
      <trkpt lat="44.06863" lon="5.98428">
        <ele>466.6</ele>
        <time>2017-01-07T12:42:17Z</time>
      </trkpt>
      <trkpt lat="44.06861" lon="5.98424">
        <ele>466.6</ele>
        <time>2017-01-07T12:42:18Z</time>
      </trkpt>
      <trkpt lat="44.06859" lon="5.9842">
        <ele>466.6</ele>
        <time>2017-01-07T12:42:19Z</time>
      </trkpt>
      <trkpt lat="44.06856" lon="5.98416">
        <ele>466.6</ele>
        <time>2017-01-07T12:42:20Z</time>
      </trkpt>
      <trkpt lat="44.06854" lon="5.98412">
        <ele>466.5</ele>
        <time>2017-01-07T12:42:21Z</time>
      </trkpt>
      <trkpt lat="44.06852" lon="5.98408">
        <ele>466.5</ele>
        <time>2017-01-07T12:42:22Z</time>
      </trkpt>
      <trkpt lat="44.0685" lon="5.98405">
        <ele>466.5</ele>
        <time>2017-01-07T12:42:23Z</time>
      </trkpt>
      <trkpt lat="44.06848" lon="5.98401">
        <ele>466.5</ele>
        <time>2017-01-07T12:42:24Z</time>
      </trkpt>
      <trkpt lat="44.06845" lon="5.98396">
        <ele>466.5</ele>
        <time>2017-01-07T12:42:25Z</time>
      </trkpt>
      <trkpt lat="44.06843" lon="5.98392">
        <ele>466.5</ele>
        <time>2017-01-07T12:42:26Z</time>
      </trkpt>
      <trkpt lat="44.06841" lon="5.98388">
        <ele>466.5</ele>
        <time>2017-01-07T12:42:27Z</time>
      </trkpt>
      <trkpt lat="44.06839" lon="5.98383">
        <ele>466.5</ele>
        <time>2017-01-07T12:42:28Z</time>
      </trkpt>
      <trkpt lat="44.06837" lon="5.98379">
        <ele>466.5</ele>
        <time>2017-01-07T12:42:29Z</time>
      </trkpt>
      <trkpt lat="44.06836" lon="5.98375">
        <ele>466.5</ele>
        <time>2017-01-07T12:42:30Z</time>
      </trkpt>
      <trkpt lat="44.06834" lon="5.98371">
        <ele>466.5</ele>
        <time>2017-01-07T12:42:31Z</time>
      </trkpt>
      <trkpt lat="44.06833" lon="5.98368">
        <ele>466.4</ele>
        <time>2017-01-07T12:42:32Z</time>
      </trkpt>
      <trkpt lat="44.06831" lon="5.98364">
        <ele>466.4</ele>
        <time>2017-01-07T12:42:33Z</time>
      </trkpt>
      <trkpt lat="44.06828" lon="5.9836">
        <ele>466.4</ele>
        <time>2017-01-07T12:42:34Z</time>
      </trkpt>
      <trkpt lat="44.06826" lon="5.98357">
        <ele>466.4</ele>
        <time>2017-01-07T12:42:35Z</time>
      </trkpt>
      <trkpt lat="44.06823" lon="5.98352">
        <ele>466.4</ele>
        <time>2017-01-07T12:42:36Z</time>
      </trkpt>
      <trkpt lat="44.06821" lon="5.98349">
        <ele>466.4</ele>
        <time>2017-01-07T12:42:37Z</time>
      </trkpt>
      <trkpt lat="44.06819" lon="5.98345">
        <ele>466.4</ele>
        <time>2017-01-07T12:42:38Z</time>
      </trkpt>
      <trkpt lat="44.06816" lon="5.9834">
        <ele>466.4</ele>
        <time>2017-01-07T12:42:39Z</time>
      </trkpt>
      <trkpt lat="44.06813" lon="5.98336">
        <ele>466.4</ele>
        <time>2017-01-07T12:42:40Z</time>
      </trkpt>
      <trkpt lat="44.0681" lon="5.98332">
        <ele>466.4</ele>
        <time>2017-01-07T12:42:41Z</time>
      </trkpt>
      <trkpt lat="44.06807" lon="5.98328">
        <ele>466.4</ele>
        <time>2017-01-07T12:42:42Z</time>
      </trkpt>
      <trkpt lat="44.06804" lon="5.98324">
        <ele>466.3</ele>
        <time>2017-01-07T12:42:43Z</time>
      </trkpt>
      <trkpt lat="44.06801" lon="5.9832">
        <ele>466.3</ele>
        <time>2017-01-07T12:42:44Z</time>
      </trkpt>
      <trkpt lat="44.06798" lon="5.98316">
        <ele>466.3</ele>
        <time>2017-01-07T12:42:45Z</time>
      </trkpt>
      <trkpt lat="44.06795" lon="5.98311">
        <ele>466.3</ele>
        <time>2017-01-07T12:42:46Z</time>
      </trkpt>
      <trkpt lat="44.06792" lon="5.98307">
        <ele>466.3</ele>
        <time>2017-01-07T12:42:47Z</time>
      </trkpt>
      <trkpt lat="44.06789" lon="5.98303">
        <ele>466.3</ele>
        <time>2017-01-07T12:42:48Z</time>
      </trkpt>
      <trkpt lat="44.06786" lon="5.98299">
        <ele>466.3</ele>
        <time>2017-01-07T12:42:49Z</time>
      </trkpt>
      <trkpt lat="44.06784" lon="5.98295">
        <ele>466.3</ele>
        <time>2017-01-07T12:42:50Z</time>
      </trkpt>
      <trkpt lat="44.06781" lon="5.98291">
        <ele>466.3</ele>
        <time>2017-01-07T12:42:51Z</time>
      </trkpt>
      <trkpt lat="44.06778" lon="5.98288">
        <ele>466.3</ele>
        <time>2017-01-07T12:42:52Z</time>
      </trkpt>
      <trkpt lat="44.06776" lon="5.98285">
        <ele>466.3</ele>
        <time>2017-01-07T12:42:53Z</time>
      </trkpt>
      <trkpt lat="44.06774" lon="5.98281">
        <ele>466.2</ele>
        <time>2017-01-07T12:42:54Z</time>
      </trkpt>
      <trkpt lat="44.06771" lon="5.98278">
        <ele>466.2</ele>
        <time>2017-01-07T12:42:55Z</time>
      </trkpt>
      <trkpt lat="44.06769" lon="5.98274">
        <ele>466.2</ele>
        <time>2017-01-07T12:42:56Z</time>
      </trkpt>
      <trkpt lat="44.06766" lon="5.98271">
        <ele>466.2</ele>
        <time>2017-01-07T12:42:57Z</time>
      </trkpt>
      <trkpt lat="44.06764" lon="5.98267">
        <ele>466.2</ele>
        <time>2017-01-07T12:42:58Z</time>
      </trkpt>
      <trkpt lat="44.06761" lon="5.98263">
        <ele>466.2</ele>
        <time>2017-01-07T12:42:59Z</time>
      </trkpt>
      <trkpt lat="44.06759" lon="5.98259">
        <ele>466.2</ele>
        <time>2017-01-07T12:43:00Z</time>
      </trkpt>
      <trkpt lat="44.06757" lon="5.98255">
        <ele>466.2</ele>
        <time>2017-01-07T12:43:01Z</time>
      </trkpt>
      <trkpt lat="44.06755" lon="5.98251">
        <ele>466.2</ele>
        <time>2017-01-07T12:43:02Z</time>
      </trkpt>
      <trkpt lat="44.06753" lon="5.98247">
        <ele>466.2</ele>
        <time>2017-01-07T12:43:03Z</time>
      </trkpt>
      <trkpt lat="44.0675" lon="5.98243">
        <ele>466.1</ele>
        <time>2017-01-07T12:43:04Z</time>
      </trkpt>
      <trkpt lat="44.06748" lon="5.98239">
        <ele>466.1</ele>
        <time>2017-01-07T12:43:05Z</time>
      </trkpt>
      <trkpt lat="44.06746" lon="5.98235">
        <ele>466.1</ele>
        <time>2017-01-07T12:43:06Z</time>
      </trkpt>
      <trkpt lat="44.06744" lon="5.9823">
        <ele>466</ele>
        <time>2017-01-07T12:43:07Z</time>
      </trkpt>
      <trkpt lat="44.06743" lon="5.98226">
        <ele>466</ele>
        <time>2017-01-07T12:43:08Z</time>
      </trkpt>
      <trkpt lat="44.06741" lon="5.9822">
        <ele>465.9</ele>
        <time>2017-01-07T12:43:09Z</time>
      </trkpt>
      <trkpt lat="44.0674" lon="5.98214">
        <ele>465.7</ele>
        <time>2017-01-07T12:43:10Z</time>
      </trkpt>
      <trkpt lat="44.06738" lon="5.98209">
        <ele>465.4</ele>
        <time>2017-01-07T12:43:11Z</time>
      </trkpt>
      <trkpt lat="44.06737" lon="5.98203">
        <ele>465.2</ele>
        <time>2017-01-07T12:43:12Z</time>
      </trkpt>
      <trkpt lat="44.06736" lon="5.98197">
        <ele>464.9</ele>
        <time>2017-01-07T12:43:13Z</time>
      </trkpt>
      <trkpt lat="44.06735" lon="5.98191">
        <ele>464.5</ele>
        <time>2017-01-07T12:43:14Z</time>
      </trkpt>
      <trkpt lat="44.06735" lon="5.98185">
        <ele>464.2</ele>
        <time>2017-01-07T12:43:15Z</time>
      </trkpt>
      <trkpt lat="44.06735" lon="5.98178">
        <ele>463.9</ele>
        <time>2017-01-07T12:43:16Z</time>
      </trkpt>
      <trkpt lat="44.06736" lon="5.9817">
        <ele>463.4</ele>
        <time>2017-01-07T12:43:17Z</time>
      </trkpt>
      <trkpt lat="44.06736" lon="5.98162">
        <ele>462.8</ele>
        <time>2017-01-07T12:43:18Z</time>
      </trkpt>
      <trkpt lat="44.06736" lon="5.98153">
        <ele>462.3</ele>
        <time>2017-01-07T12:43:19Z</time>
      </trkpt>
      <trkpt lat="44.06736" lon="5.98145">
        <ele>461.9</ele>
        <time>2017-01-07T12:43:20Z</time>
      </trkpt>
      <trkpt lat="44.06737" lon="5.98136">
        <ele>461.6</ele>
        <time>2017-01-07T12:43:21Z</time>
      </trkpt>
      <trkpt lat="44.06737" lon="5.98128">
        <ele>461.3</ele>
        <time>2017-01-07T12:43:22Z</time>
      </trkpt>
      <trkpt lat="44.0674" lon="5.9812">
        <ele>461</ele>
        <time>2017-01-07T12:43:23Z</time>
      </trkpt>
      <trkpt lat="44.06741" lon="5.98112">
        <ele>460.6</ele>
        <time>2017-01-07T12:43:24Z</time>
      </trkpt>
      <trkpt lat="44.06742" lon="5.98103">
        <ele>460.2</ele>
        <time>2017-01-07T12:43:25Z</time>
      </trkpt>
      <trkpt lat="44.06743" lon="5.98091">
        <ele>459.6</ele>
        <time>2017-01-07T12:43:26Z</time>
      </trkpt>
      <trkpt lat="44.06746" lon="5.98084">
        <ele>459.3</ele>
        <time>2017-01-07T12:43:27Z</time>
      </trkpt>
      <trkpt lat="44.06747" lon="5.98069">
        <ele>458.7</ele>
        <time>2017-01-07T12:43:28Z</time>
      </trkpt>
      <trkpt lat="44.06749" lon="5.98059">
        <ele>458.5</ele>
        <time>2017-01-07T12:43:29Z</time>
      </trkpt>
      <trkpt lat="44.06752" lon="5.98051">
        <ele>458.3</ele>
        <time>2017-01-07T12:43:30Z</time>
      </trkpt>
      <trkpt lat="44.06754" lon="5.98041">
        <ele>458.1</ele>
        <time>2017-01-07T12:43:31Z</time>
      </trkpt>
      <trkpt lat="44.06757" lon="5.98029">
        <ele>458.1</ele>
        <time>2017-01-07T12:43:32Z</time>
      </trkpt>
      <trkpt lat="44.0676" lon="5.98023">
        <ele>458.6</ele>
        <time>2017-01-07T12:43:33Z</time>
      </trkpt>
      <trkpt lat="44.06764" lon="5.98017">
        <ele>459.2</ele>
        <time>2017-01-07T12:43:34Z</time>
      </trkpt>
      <trkpt lat="44.06765" lon="5.98007">
        <ele>459.8</ele>
        <time>2017-01-07T12:43:35Z</time>
      </trkpt>
      <trkpt lat="44.06765" lon="5.97998">
        <ele>460.5</ele>
        <time>2017-01-07T12:43:36Z</time>
      </trkpt>
      <trkpt lat="44.06764" lon="5.97985">
        <ele>461.3</ele>
        <time>2017-01-07T12:43:37Z</time>
      </trkpt>
      <trkpt lat="44.06763" lon="5.97975">
        <ele>462.1</ele>
        <time>2017-01-07T12:43:38Z</time>
      </trkpt>
      <trkpt lat="44.06761" lon="5.97969">
        <ele>462.6</ele>
        <time>2017-01-07T12:43:39Z</time>
      </trkpt>
      <trkpt lat="44.06761" lon="5.97964">
        <ele>463</ele>
        <time>2017-01-07T12:43:40Z</time>
      </trkpt>
      <trkpt lat="44.06758" lon="5.97958">
        <ele>463.2</ele>
        <time>2017-01-07T12:43:41Z</time>
      </trkpt>
      <trkpt lat="44.06757" lon="5.9795">
        <ele>463.4</ele>
        <time>2017-01-07T12:43:42Z</time>
      </trkpt>
      <trkpt lat="44.06755" lon="5.97941">
        <ele>463.6</ele>
        <time>2017-01-07T12:43:43Z</time>
      </trkpt>
      <trkpt lat="44.06753" lon="5.97935">
        <ele>463.8</ele>
        <time>2017-01-07T12:43:44Z</time>
      </trkpt>
      <trkpt lat="44.06747" lon="5.97926">
        <ele>464</ele>
        <time>2017-01-07T12:43:45Z</time>
      </trkpt>
      <trkpt lat="44.06744" lon="5.97922">
        <ele>464.4</ele>
        <time>2017-01-07T12:43:46Z</time>
      </trkpt>
      <trkpt lat="44.0674" lon="5.97919">
        <ele>464.7</ele>
        <time>2017-01-07T12:43:47Z</time>
      </trkpt>
      <trkpt lat="44.06735" lon="5.97914">
        <ele>465.2</ele>
        <time>2017-01-07T12:43:48Z</time>
      </trkpt>
      <trkpt lat="44.06731" lon="5.9791">
        <ele>465.6</ele>
        <time>2017-01-07T12:43:49Z</time>
      </trkpt>
      <trkpt lat="44.06727" lon="5.97907">
        <ele>465.9</ele>
        <time>2017-01-07T12:43:50Z</time>
      </trkpt>
      <trkpt lat="44.06723" lon="5.97905">
        <ele>466.3</ele>
        <time>2017-01-07T12:43:51Z</time>
      </trkpt>
      <trkpt lat="44.06719" lon="5.97903">
        <ele>466.6</ele>
        <time>2017-01-07T12:43:52Z</time>
      </trkpt>
      <trkpt lat="44.06714" lon="5.97901">
        <ele>467</ele>
        <time>2017-01-07T12:43:53Z</time>
      </trkpt>
      <trkpt lat="44.0671" lon="5.97899">
        <ele>467.3</ele>
        <time>2017-01-07T12:43:54Z</time>
      </trkpt>
      <trkpt lat="44.06705" lon="5.97899">
        <ele>467.7</ele>
        <time>2017-01-07T12:43:55Z</time>
      </trkpt>
      <trkpt lat="44.06699" lon="5.97899">
        <ele>468.2</ele>
        <time>2017-01-07T12:43:56Z</time>
      </trkpt>
      <trkpt lat="44.06693" lon="5.97901">
        <ele>468.7</ele>
        <time>2017-01-07T12:43:57Z</time>
      </trkpt>
      <trkpt lat="44.0669" lon="5.97897">
        <ele>469.1</ele>
        <time>2017-01-07T12:43:58Z</time>
      </trkpt>
      <trkpt lat="44.06684" lon="5.97896">
        <ele>469.5</ele>
        <time>2017-01-07T12:44:00Z</time>
      </trkpt>
      <trkpt lat="44.06681" lon="5.97896">
        <ele>469.8</ele>
        <time>2017-01-07T12:44:01Z</time>
      </trkpt>
      <trkpt lat="44.06678" lon="5.97897">
        <ele>470.1</ele>
        <time>2017-01-07T12:44:02Z</time>
      </trkpt>
      <trkpt lat="44.06674" lon="5.97896">
        <ele>470.4</ele>
        <time>2017-01-07T12:44:03Z</time>
      </trkpt>
      <trkpt lat="44.0667" lon="5.97897">
        <ele>470.7</ele>
        <time>2017-01-07T12:44:04Z</time>
      </trkpt>
      <trkpt lat="44.06663" lon="5.97896">
        <ele>471.3</ele>
        <time>2017-01-07T12:44:06Z</time>
      </trkpt>
      <trkpt lat="44.06659" lon="5.97896">
        <ele>471.6</ele>
        <time>2017-01-07T12:44:07Z</time>
      </trkpt>
      <trkpt lat="44.06655" lon="5.97897">
        <ele>471.9</ele>
        <time>2017-01-07T12:44:08Z</time>
      </trkpt>
      <trkpt lat="44.06651" lon="5.97897">
        <ele>472.3</ele>
        <time>2017-01-07T12:44:09Z</time>
      </trkpt>
      <trkpt lat="44.06648" lon="5.97898">
        <ele>472.6</ele>
        <time>2017-01-07T12:44:10Z</time>
      </trkpt>
      <trkpt lat="44.06644" lon="5.97898">
        <ele>472.9</ele>
        <time>2017-01-07T12:44:11Z</time>
      </trkpt>
      <trkpt lat="44.06641" lon="5.97899">
        <ele>473.2</ele>
        <time>2017-01-07T12:44:12Z</time>
      </trkpt>
      <trkpt lat="44.06638" lon="5.97899">
        <ele>473.5</ele>
        <time>2017-01-07T12:44:13Z</time>
      </trkpt>
      <trkpt lat="44.06635" lon="5.979">
        <ele>473.8</ele>
        <time>2017-01-07T12:44:14Z</time>
      </trkpt>
      <trkpt lat="44.06632" lon="5.979">
        <ele>474.1</ele>
        <time>2017-01-07T12:44:15Z</time>
      </trkpt>
      <trkpt lat="44.06628" lon="5.979">
        <ele>474.4</ele>
        <time>2017-01-07T12:44:16Z</time>
      </trkpt>
      <trkpt lat="44.06625" lon="5.979">
        <ele>474.6</ele>
        <time>2017-01-07T12:44:17Z</time>
      </trkpt>
      <trkpt lat="44.06623" lon="5.97899">
        <ele>474.9</ele>
        <time>2017-01-07T12:44:18Z</time>
      </trkpt>
      <trkpt lat="44.0662" lon="5.97899">
        <ele>475.2</ele>
        <time>2017-01-07T12:44:19Z</time>
      </trkpt>
      <trkpt lat="44.06617" lon="5.97899">
        <ele>475.5</ele>
        <time>2017-01-07T12:44:20Z</time>
      </trkpt>
      <trkpt lat="44.06614" lon="5.97899">
        <ele>475.8</ele>
        <time>2017-01-07T12:44:21Z</time>
      </trkpt>
      <trkpt lat="44.06611" lon="5.97899">
        <ele>476.1</ele>
        <time>2017-01-07T12:44:22Z</time>
      </trkpt>
      <trkpt lat="44.06607" lon="5.97899">
        <ele>476.5</ele>
        <time>2017-01-07T12:44:23Z</time>
      </trkpt>
      <trkpt lat="44.06604" lon="5.979">
        <ele>476.8</ele>
        <time>2017-01-07T12:44:24Z</time>
      </trkpt>
      <trkpt lat="44.06601" lon="5.979">
        <ele>476.9</ele>
        <time>2017-01-07T12:44:25Z</time>
      </trkpt>
      <trkpt lat="44.06598" lon="5.97899">
        <ele>476.7</ele>
        <time>2017-01-07T12:44:26Z</time>
      </trkpt>
      <trkpt lat="44.06595" lon="5.97899">
        <ele>476.5</ele>
        <time>2017-01-07T12:44:27Z</time>
      </trkpt>
      <trkpt lat="44.06592" lon="5.97899">
        <ele>476.3</ele>
        <time>2017-01-07T12:44:28Z</time>
      </trkpt>
      <trkpt lat="44.06589" lon="5.97899">
        <ele>476</ele>
        <time>2017-01-07T12:44:29Z</time>
      </trkpt>
      <trkpt lat="44.06585" lon="5.97898">
        <ele>475.8</ele>
        <time>2017-01-07T12:44:30Z</time>
      </trkpt>
      <trkpt lat="44.06582" lon="5.97898">
        <ele>475.6</ele>
        <time>2017-01-07T12:44:31Z</time>
      </trkpt>
      <trkpt lat="44.06579" lon="5.97898">
        <ele>475.4</ele>
        <time>2017-01-07T12:44:32Z</time>
      </trkpt>
      <trkpt lat="44.06576" lon="5.97897">
        <ele>475.2</ele>
        <time>2017-01-07T12:44:33Z</time>
      </trkpt>
      <trkpt lat="44.06574" lon="5.97896">
        <ele>475</ele>
        <time>2017-01-07T12:44:34Z</time>
      </trkpt>
      <trkpt lat="44.06571" lon="5.97895">
        <ele>474.8</ele>
        <time>2017-01-07T12:44:35Z</time>
      </trkpt>
      <trkpt lat="44.06568" lon="5.97894">
        <ele>474.6</ele>
        <time>2017-01-07T12:44:36Z</time>
      </trkpt>
      <trkpt lat="44.06565" lon="5.97893">
        <ele>474.4</ele>
        <time>2017-01-07T12:44:37Z</time>
      </trkpt>
      <trkpt lat="44.06562" lon="5.97893">
        <ele>474.2</ele>
        <time>2017-01-07T12:44:38Z</time>
      </trkpt>
      <trkpt lat="44.06559" lon="5.97892">
        <ele>474</ele>
        <time>2017-01-07T12:44:39Z</time>
      </trkpt>
      <trkpt lat="44.06556" lon="5.97891">
        <ele>473.8</ele>
        <time>2017-01-07T12:44:40Z</time>
      </trkpt>
      <trkpt lat="44.06553" lon="5.9789">
        <ele>473.6</ele>
        <time>2017-01-07T12:44:41Z</time>
      </trkpt>
      <trkpt lat="44.0655" lon="5.9789">
        <ele>473.3</ele>
        <time>2017-01-07T12:44:42Z</time>
      </trkpt>
      <trkpt lat="44.06547" lon="5.97889">
        <ele>473.1</ele>
        <time>2017-01-07T12:44:43Z</time>
      </trkpt>
      <trkpt lat="44.06543" lon="5.97889">
        <ele>472.8</ele>
        <time>2017-01-07T12:44:44Z</time>
      </trkpt>
      <trkpt lat="44.0654" lon="5.97889">
        <ele>472.6</ele>
        <time>2017-01-07T12:44:45Z</time>
      </trkpt>
      <trkpt lat="44.06536" lon="5.97888">
        <ele>472.3</ele>
        <time>2017-01-07T12:44:46Z</time>
      </trkpt>
      <trkpt lat="44.06533" lon="5.97887">
        <ele>472</ele>
        <time>2017-01-07T12:44:47Z</time>
      </trkpt>
      <trkpt lat="44.06529" lon="5.97886">
        <ele>471.8</ele>
        <time>2017-01-07T12:44:48Z</time>
      </trkpt>
      <trkpt lat="44.06526" lon="5.97884">
        <ele>471.5</ele>
        <time>2017-01-07T12:44:49Z</time>
      </trkpt>
      <trkpt lat="44.06523" lon="5.97883">
        <ele>471.3</ele>
        <time>2017-01-07T12:44:50Z</time>
      </trkpt>
      <trkpt lat="44.0652" lon="5.97881">
        <ele>471</ele>
        <time>2017-01-07T12:44:51Z</time>
      </trkpt>
      <trkpt lat="44.06517" lon="5.9788">
        <ele>470.8</ele>
        <time>2017-01-07T12:44:52Z</time>
      </trkpt>
      <trkpt lat="44.06514" lon="5.97878">
        <ele>470.5</ele>
        <time>2017-01-07T12:44:53Z</time>
      </trkpt>
      <trkpt lat="44.06512" lon="5.97876">
        <ele>470.2</ele>
        <time>2017-01-07T12:44:54Z</time>
      </trkpt>
      <trkpt lat="44.06509" lon="5.97874">
        <ele>470</ele>
        <time>2017-01-07T12:44:55Z</time>
      </trkpt>
      <trkpt lat="44.06506" lon="5.97872">
        <ele>469.7</ele>
        <time>2017-01-07T12:44:56Z</time>
      </trkpt>
      <trkpt lat="44.06503" lon="5.9787">
        <ele>469.4</ele>
        <time>2017-01-07T12:44:57Z</time>
      </trkpt>
      <trkpt lat="44.06501" lon="5.97868">
        <ele>469.1</ele>
        <time>2017-01-07T12:44:58Z</time>
      </trkpt>
      <trkpt lat="44.06497" lon="5.97867">
        <ele>468.7</ele>
        <time>2017-01-07T12:44:59Z</time>
      </trkpt>
      <trkpt lat="44.06494" lon="5.97864">
        <ele>468.3</ele>
        <time>2017-01-07T12:45:00Z</time>
      </trkpt>
      <trkpt lat="44.06491" lon="5.97862">
        <ele>467.9</ele>
        <time>2017-01-07T12:45:01Z</time>
      </trkpt>
      <trkpt lat="44.06488" lon="5.97859">
        <ele>467.4</ele>
        <time>2017-01-07T12:45:02Z</time>
      </trkpt>
      <trkpt lat="44.06485" lon="5.97856">
        <ele>467.2</ele>
        <time>2017-01-07T12:45:03Z</time>
      </trkpt>
      <trkpt lat="44.06482" lon="5.97851">
        <ele>467.5</ele>
        <time>2017-01-07T12:45:04Z</time>
      </trkpt>
      <trkpt lat="44.06481" lon="5.97847">
        <ele>467.8</ele>
        <time>2017-01-07T12:45:05Z</time>
      </trkpt>
      <trkpt lat="44.06479" lon="5.97842">
        <ele>468.1</ele>
        <time>2017-01-07T12:45:06Z</time>
      </trkpt>
      <trkpt lat="44.06478" lon="5.97837">
        <ele>468.4</ele>
        <time>2017-01-07T12:45:07Z</time>
      </trkpt>
      <trkpt lat="44.06477" lon="5.97831">
        <ele>468.8</ele>
        <time>2017-01-07T12:45:09Z</time>
      </trkpt>
      <trkpt lat="44.06476" lon="5.97824">
        <ele>469.2</ele>
        <time>2017-01-07T12:45:11Z</time>
      </trkpt>
      <trkpt lat="44.06475" lon="5.97816">
        <ele>469.8</ele>
        <time>2017-01-07T12:45:13Z</time>
      </trkpt>
      <trkpt lat="44.06475" lon="5.9781">
        <ele>470.3</ele>
        <time>2017-01-07T12:45:15Z</time>
      </trkpt>
      <trkpt lat="44.06473" lon="5.97802">
        <ele>470.6</ele>
        <time>2017-01-07T12:45:17Z</time>
      </trkpt>
      <trkpt lat="44.06473" lon="5.97796">
        <ele>470.8</ele>
        <time>2017-01-07T12:45:19Z</time>
      </trkpt>
      <trkpt lat="44.06472" lon="5.97789">
        <ele>471.1</ele>
        <time>2017-01-07T12:45:21Z</time>
      </trkpt>
      <trkpt lat="44.06471" lon="5.97783">
        <ele>471.3</ele>
        <time>2017-01-07T12:45:23Z</time>
      </trkpt>
      <trkpt lat="44.0647" lon="5.97776">
        <ele>471.6</ele>
        <time>2017-01-07T12:45:25Z</time>
      </trkpt>
      <trkpt lat="44.0647" lon="5.9777">
        <ele>471.8</ele>
        <time>2017-01-07T12:45:27Z</time>
      </trkpt>
      <trkpt lat="44.06469" lon="5.97764">
        <ele>472.2</ele>
        <time>2017-01-07T12:45:29Z</time>
      </trkpt>
      <trkpt lat="44.06469" lon="5.97757">
        <ele>472.8</ele>
        <time>2017-01-07T12:45:31Z</time>
      </trkpt>
      <trkpt lat="44.06468" lon="5.9775">
        <ele>473.1</ele>
        <time>2017-01-07T12:45:33Z</time>
      </trkpt>
      <trkpt lat="44.06467" lon="5.97744">
        <ele>473.3</ele>
        <time>2017-01-07T12:45:35Z</time>
      </trkpt>
      <trkpt lat="44.06466" lon="5.97739">
        <ele>473.6</ele>
        <time>2017-01-07T12:45:37Z</time>
      </trkpt>
      <trkpt lat="44.06464" lon="5.97733">
        <ele>473.9</ele>
        <time>2017-01-07T12:45:39Z</time>
      </trkpt>
      <trkpt lat="44.06463" lon="5.97728">
        <ele>474.1</ele>
        <time>2017-01-07T12:45:41Z</time>
      </trkpt>
      <trkpt lat="44.06462" lon="5.97722">
        <ele>474.4</ele>
        <time>2017-01-07T12:45:43Z</time>
      </trkpt>
      <trkpt lat="44.06462" lon="5.97718">
        <ele>474.7</ele>
        <time>2017-01-07T12:45:44Z</time>
      </trkpt>
      <trkpt lat="44.06462" lon="5.97714">
        <ele>474.9</ele>
        <time>2017-01-07T12:45:45Z</time>
      </trkpt>
      <trkpt lat="44.06461" lon="5.97708">
        <ele>475.3</ele>
        <time>2017-01-07T12:45:47Z</time>
      </trkpt>
      <trkpt lat="44.06461" lon="5.97701">
        <ele>475.8</ele>
        <time>2017-01-07T12:45:49Z</time>
      </trkpt>
      <trkpt lat="44.0646" lon="5.97694">
        <ele>476.3</ele>
        <time>2017-01-07T12:45:51Z</time>
      </trkpt>
      <trkpt lat="44.06459" lon="5.97687">
        <ele>476.8</ele>
        <time>2017-01-07T12:45:53Z</time>
      </trkpt>
      <trkpt lat="44.06458" lon="5.9768">
        <ele>477.5</ele>
        <time>2017-01-07T12:45:55Z</time>
      </trkpt>
      <trkpt lat="44.06457" lon="5.97673">
        <ele>478</ele>
        <time>2017-01-07T12:45:57Z</time>
      </trkpt>
      <trkpt lat="44.06456" lon="5.97666">
        <ele>478.7</ele>
        <time>2017-01-07T12:45:59Z</time>
      </trkpt>
      <trkpt lat="44.06455" lon="5.97662">
        <ele>479</ele>
        <time>2017-01-07T12:46:00Z</time>
      </trkpt>
      <trkpt lat="44.06454" lon="5.97655">
        <ele>479.5</ele>
        <time>2017-01-07T12:46:02Z</time>
      </trkpt>
      <trkpt lat="44.06452" lon="5.97649">
        <ele>479.9</ele>
        <time>2017-01-07T12:46:04Z</time>
      </trkpt>
      <trkpt lat="44.06449" lon="5.97643">
        <ele>480.3</ele>
        <time>2017-01-07T12:46:06Z</time>
      </trkpt>
      <trkpt lat="44.06448" lon="5.97637">
        <ele>480.8</ele>
        <time>2017-01-07T12:46:08Z</time>
      </trkpt>
      <trkpt lat="44.06446" lon="5.97631">
        <ele>481.3</ele>
        <time>2017-01-07T12:46:10Z</time>
      </trkpt>
      <trkpt lat="44.06445" lon="5.97627">
        <ele>481.6</ele>
        <time>2017-01-07T12:46:11Z</time>
      </trkpt>
      <trkpt lat="44.06444" lon="5.97621">
        <ele>482.1</ele>
        <time>2017-01-07T12:46:13Z</time>
      </trkpt>
      <trkpt lat="44.06442" lon="5.97614">
        <ele>482.7</ele>
        <time>2017-01-07T12:46:15Z</time>
      </trkpt>
      <trkpt lat="44.0644" lon="5.97608">
        <ele>483.2</ele>
        <time>2017-01-07T12:46:17Z</time>
      </trkpt>
      <trkpt lat="44.06437" lon="5.97602">
        <ele>483.6</ele>
        <time>2017-01-07T12:46:19Z</time>
      </trkpt>
      <trkpt lat="44.06434" lon="5.97597">
        <ele>484.1</ele>
        <time>2017-01-07T12:46:21Z</time>
      </trkpt>
      <trkpt lat="44.0643" lon="5.97592">
        <ele>484.5</ele>
        <time>2017-01-07T12:46:23Z</time>
      </trkpt>
      <trkpt lat="44.06427" lon="5.97587">
        <ele>484.9</ele>
        <time>2017-01-07T12:46:25Z</time>
      </trkpt>
      <trkpt lat="44.06426" lon="5.97581">
        <ele>485.2</ele>
        <time>2017-01-07T12:46:27Z</time>
      </trkpt>
      <trkpt lat="44.06425" lon="5.97575">
        <ele>485.4</ele>
        <time>2017-01-07T12:46:29Z</time>
      </trkpt>
      <trkpt lat="44.06423" lon="5.97572">
        <ele>485.5</ele>
        <time>2017-01-07T12:46:30Z</time>
      </trkpt>
      <trkpt lat="44.0642" lon="5.97566">
        <ele>485.8</ele>
        <time>2017-01-07T12:46:32Z</time>
      </trkpt>
      <trkpt lat="44.06417" lon="5.9756">
        <ele>486.1</ele>
        <time>2017-01-07T12:46:34Z</time>
      </trkpt>
      <trkpt lat="44.06414" lon="5.97555">
        <ele>486.3</ele>
        <time>2017-01-07T12:46:36Z</time>
      </trkpt>
      <trkpt lat="44.06411" lon="5.9755">
        <ele>486.5</ele>
        <time>2017-01-07T12:46:38Z</time>
      </trkpt>
      <trkpt lat="44.06408" lon="5.97545">
        <ele>486.7</ele>
        <time>2017-01-07T12:46:40Z</time>
      </trkpt>
      <trkpt lat="44.06405" lon="5.97539">
        <ele>487</ele>
        <time>2017-01-07T12:46:42Z</time>
      </trkpt>
      <trkpt lat="44.06402" lon="5.97534">
        <ele>487.2</ele>
        <time>2017-01-07T12:46:44Z</time>
      </trkpt>
      <trkpt lat="44.06399" lon="5.97529">
        <ele>487.4</ele>
        <time>2017-01-07T12:46:46Z</time>
      </trkpt>
      <trkpt lat="44.06397" lon="5.97525">
        <ele>487.7</ele>
        <time>2017-01-07T12:46:48Z</time>
      </trkpt>
      <trkpt lat="44.06394" lon="5.9752">
        <ele>487.8</ele>
        <time>2017-01-07T12:46:50Z</time>
      </trkpt>
      <trkpt lat="44.06392" lon="5.97515">
        <ele>488.1</ele>
        <time>2017-01-07T12:46:52Z</time>
      </trkpt>
      <trkpt lat="44.0639" lon="5.97512">
        <ele>488.2</ele>
        <time>2017-01-07T12:46:53Z</time>
      </trkpt>
      <trkpt lat="44.06388" lon="5.97508">
        <ele>488.4</ele>
        <time>2017-01-07T12:46:54Z</time>
      </trkpt>
      <trkpt lat="44.06386" lon="5.97505">
        <ele>488.5</ele>
        <time>2017-01-07T12:46:55Z</time>
      </trkpt>
      <trkpt lat="44.06384" lon="5.97502">
        <ele>488.7</ele>
        <time>2017-01-07T12:46:56Z</time>
      </trkpt>
      <trkpt lat="44.06383" lon="5.97499">
        <ele>488.9</ele>
        <time>2017-01-07T12:46:57Z</time>
      </trkpt>
      <trkpt lat="44.06379" lon="5.97493">
        <ele>489.4</ele>
        <time>2017-01-07T12:46:59Z</time>
      </trkpt>
      <trkpt lat="44.06376" lon="5.97489">
        <ele>489.7</ele>
        <time>2017-01-07T12:47:01Z</time>
      </trkpt>
      <trkpt lat="44.06372" lon="5.97484">
        <ele>489.9</ele>
        <time>2017-01-07T12:47:03Z</time>
      </trkpt>
      <trkpt lat="44.06369" lon="5.9748">
        <ele>490.2</ele>
        <time>2017-01-07T12:47:05Z</time>
      </trkpt>
      <trkpt lat="44.06365" lon="5.97474">
        <ele>490.4</ele>
        <time>2017-01-07T12:47:07Z</time>
      </trkpt>
      <trkpt lat="44.06362" lon="5.97469">
        <ele>490.7</ele>
        <time>2017-01-07T12:47:09Z</time>
      </trkpt>
      <trkpt lat="44.06359" lon="5.97463">
        <ele>491.2</ele>
        <time>2017-01-07T12:47:11Z</time>
      </trkpt>
      <trkpt lat="44.06357" lon="5.9746">
        <ele>491.4</ele>
        <time>2017-01-07T12:47:12Z</time>
      </trkpt>
      <trkpt lat="44.06356" lon="5.97457">
        <ele>491.6</ele>
        <time>2017-01-07T12:47:13Z</time>
      </trkpt>
      <trkpt lat="44.06353" lon="5.97451">
        <ele>491.9</ele>
        <time>2017-01-07T12:47:15Z</time>
      </trkpt>
      <trkpt lat="44.0635" lon="5.97446">
        <ele>492.1</ele>
        <time>2017-01-07T12:47:17Z</time>
      </trkpt>
      <trkpt lat="44.06348" lon="5.97441">
        <ele>492.3</ele>
        <time>2017-01-07T12:47:19Z</time>
      </trkpt>
      <trkpt lat="44.06346" lon="5.97436">
        <ele>492.5</ele>
        <time>2017-01-07T12:47:21Z</time>
      </trkpt>
      <trkpt lat="44.06343" lon="5.97431">
        <ele>492.8</ele>
        <time>2017-01-07T12:47:23Z</time>
      </trkpt>
      <trkpt lat="44.0634" lon="5.97425">
        <ele>493.1</ele>
        <time>2017-01-07T12:47:25Z</time>
      </trkpt>
      <trkpt lat="44.06338" lon="5.97421">
        <ele>493.3</ele>
        <time>2017-01-07T12:47:27Z</time>
      </trkpt>
      <trkpt lat="44.06335" lon="5.97416">
        <ele>493.5</ele>
        <time>2017-01-07T12:47:29Z</time>
      </trkpt>
      <trkpt lat="44.06333" lon="5.97411">
        <ele>493.8</ele>
        <time>2017-01-07T12:47:31Z</time>
      </trkpt>
      <trkpt lat="44.0633" lon="5.97407">
        <ele>494.1</ele>
        <time>2017-01-07T12:47:33Z</time>
      </trkpt>
      <trkpt lat="44.06329" lon="5.97402">
        <ele>494.3</ele>
        <time>2017-01-07T12:47:35Z</time>
      </trkpt>
      <trkpt lat="44.06326" lon="5.97396">
        <ele>494.6</ele>
        <time>2017-01-07T12:47:37Z</time>
      </trkpt>
      <trkpt lat="44.06325" lon="5.97392">
        <ele>494.7</ele>
        <time>2017-01-07T12:47:38Z</time>
      </trkpt>
      <trkpt lat="44.06324" lon="5.97389">
        <ele>494.9</ele>
        <time>2017-01-07T12:47:39Z</time>
      </trkpt>
      <trkpt lat="44.06322" lon="5.97385">
        <ele>495</ele>
        <time>2017-01-07T12:47:40Z</time>
      </trkpt>
      <trkpt lat="44.0632" lon="5.97382">
        <ele>495.2</ele>
        <time>2017-01-07T12:47:41Z</time>
      </trkpt>
      <trkpt lat="44.06318" lon="5.97376">
        <ele>495.5</ele>
        <time>2017-01-07T12:47:43Z</time>
      </trkpt>
      <trkpt lat="44.06316" lon="5.97371">
        <ele>495.8</ele>
        <time>2017-01-07T12:47:45Z</time>
      </trkpt>
      <trkpt lat="44.06314" lon="5.97366">
        <ele>496</ele>
        <time>2017-01-07T12:47:47Z</time>
      </trkpt>
      <trkpt lat="44.06312" lon="5.9736">
        <ele>496.3</ele>
        <time>2017-01-07T12:47:49Z</time>
      </trkpt>
      <trkpt lat="44.0631" lon="5.97355">
        <ele>496.4</ele>
        <time>2017-01-07T12:47:51Z</time>
      </trkpt>
      <trkpt lat="44.06308" lon="5.9735">
        <ele>496.6</ele>
        <time>2017-01-07T12:47:53Z</time>
      </trkpt>
      <trkpt lat="44.06306" lon="5.97344">
        <ele>496.9</ele>
        <time>2017-01-07T12:47:55Z</time>
      </trkpt>
      <trkpt lat="44.06304" lon="5.97338">
        <ele>497.1</ele>
        <time>2017-01-07T12:47:57Z</time>
      </trkpt>
      <trkpt lat="44.06303" lon="5.97333">
        <ele>497.5</ele>
        <time>2017-01-07T12:47:59Z</time>
      </trkpt>
      <trkpt lat="44.06301" lon="5.97327">
        <ele>497.7</ele>
        <time>2017-01-07T12:48:01Z</time>
      </trkpt>
      <trkpt lat="44.063" lon="5.97322">
        <ele>497.9</ele>
        <time>2017-01-07T12:48:03Z</time>
      </trkpt>
      <trkpt lat="44.06298" lon="5.97316">
        <ele>498.2</ele>
        <time>2017-01-07T12:48:05Z</time>
      </trkpt>
      <trkpt lat="44.06296" lon="5.9731">
        <ele>498.4</ele>
        <time>2017-01-07T12:48:07Z</time>
      </trkpt>
      <trkpt lat="44.06295" lon="5.97304">
        <ele>498.7</ele>
        <time>2017-01-07T12:48:09Z</time>
      </trkpt>
      <trkpt lat="44.06293" lon="5.97298">
        <ele>499</ele>
        <time>2017-01-07T12:48:11Z</time>
      </trkpt>
      <trkpt lat="44.0629" lon="5.97292">
        <ele>499.3</ele>
        <time>2017-01-07T12:48:13Z</time>
      </trkpt>
      <trkpt lat="44.06288" lon="5.97287">
        <ele>499.5</ele>
        <time>2017-01-07T12:48:15Z</time>
      </trkpt>
      <trkpt lat="44.06287" lon="5.97281">
        <ele>499.7</ele>
        <time>2017-01-07T12:48:17Z</time>
      </trkpt>
      <trkpt lat="44.06285" lon="5.97276">
        <ele>499.9</ele>
        <time>2017-01-07T12:48:19Z</time>
      </trkpt>
      <trkpt lat="44.06283" lon="5.9727">
        <ele>500.1</ele>
        <time>2017-01-07T12:48:21Z</time>
      </trkpt>
      <trkpt lat="44.06282" lon="5.97265">
        <ele>500.2</ele>
        <time>2017-01-07T12:48:23Z</time>
      </trkpt>
      <trkpt lat="44.0628" lon="5.97259">
        <ele>500.6</ele>
        <time>2017-01-07T12:48:25Z</time>
      </trkpt>
      <trkpt lat="44.06278" lon="5.97253">
        <ele>500.8</ele>
        <time>2017-01-07T12:48:27Z</time>
      </trkpt>
      <trkpt lat="44.06277" lon="5.97247">
        <ele>501</ele>
        <time>2017-01-07T12:48:29Z</time>
      </trkpt>
      <trkpt lat="44.06275" lon="5.97242">
        <ele>501.2</ele>
        <time>2017-01-07T12:48:31Z</time>
      </trkpt>
      <trkpt lat="44.06274" lon="5.97237">
        <ele>501.4</ele>
        <time>2017-01-07T12:48:33Z</time>
      </trkpt>
      <trkpt lat="44.06272" lon="5.97232">
        <ele>501.6</ele>
        <time>2017-01-07T12:48:35Z</time>
      </trkpt>
      <trkpt lat="44.0627" lon="5.97226">
        <ele>502</ele>
        <time>2017-01-07T12:48:37Z</time>
      </trkpt>
      <trkpt lat="44.06269" lon="5.9722">
        <ele>502.2</ele>
        <time>2017-01-07T12:48:39Z</time>
      </trkpt>
      <trkpt lat="44.06268" lon="5.97214">
        <ele>502.4</ele>
        <time>2017-01-07T12:48:41Z</time>
      </trkpt>
      <trkpt lat="44.06266" lon="5.97209">
        <ele>502.6</ele>
        <time>2017-01-07T12:48:43Z</time>
      </trkpt>
      <trkpt lat="44.06266" lon="5.97203">
        <ele>502.9</ele>
        <time>2017-01-07T12:48:45Z</time>
      </trkpt>
      <trkpt lat="44.06265" lon="5.97197">
        <ele>503.2</ele>
        <time>2017-01-07T12:48:47Z</time>
      </trkpt>
      <trkpt lat="44.06264" lon="5.97192">
        <ele>503.4</ele>
        <time>2017-01-07T12:48:49Z</time>
      </trkpt>
      <trkpt lat="44.06263" lon="5.97186">
        <ele>503.6</ele>
        <time>2017-01-07T12:48:51Z</time>
      </trkpt>
      <trkpt lat="44.06262" lon="5.97181">
        <ele>503.8</ele>
        <time>2017-01-07T12:48:53Z</time>
      </trkpt>
      <trkpt lat="44.06262" lon="5.97175">
        <ele>504.2</ele>
        <time>2017-01-07T12:48:55Z</time>
      </trkpt>
      <trkpt lat="44.06261" lon="5.97169">
        <ele>504.8</ele>
        <time>2017-01-07T12:48:57Z</time>
      </trkpt>
      <trkpt lat="44.06261" lon="5.97163">
        <ele>505.3</ele>
        <time>2017-01-07T12:48:59Z</time>
      </trkpt>
      <trkpt lat="44.06262" lon="5.97157">
        <ele>505.9</ele>
        <time>2017-01-07T12:49:01Z</time>
      </trkpt>
      <trkpt lat="44.06264" lon="5.97151">
        <ele>506.5</ele>
        <time>2017-01-07T12:49:03Z</time>
      </trkpt>
      <trkpt lat="44.06264" lon="5.97147">
        <ele>506.9</ele>
        <time>2017-01-07T12:49:04Z</time>
      </trkpt>
      <trkpt lat="44.06264" lon="5.97142">
        <ele>507</ele>
        <time>2017-01-07T12:49:05Z</time>
      </trkpt>
      <trkpt lat="44.06265" lon="5.97138">
        <ele>507</ele>
        <time>2017-01-07T12:49:06Z</time>
      </trkpt>
      <trkpt lat="44.06265" lon="5.97133">
        <ele>507</ele>
        <time>2017-01-07T12:49:07Z</time>
      </trkpt>
      <trkpt lat="44.06266" lon="5.97127">
        <ele>507</ele>
        <time>2017-01-07T12:49:08Z</time>
      </trkpt>
      <trkpt lat="44.06266" lon="5.97121">
        <ele>507</ele>
        <time>2017-01-07T12:49:09Z</time>
      </trkpt>
      <trkpt lat="44.06266" lon="5.97115">
        <ele>507</ele>
        <time>2017-01-07T12:49:10Z</time>
      </trkpt>
      <trkpt lat="44.06266" lon="5.9711">
        <ele>507.5</ele>
        <time>2017-01-07T12:49:11Z</time>
      </trkpt>
      <trkpt lat="44.06267" lon="5.97105">
        <ele>507.9</ele>
        <time>2017-01-07T12:49:12Z</time>
      </trkpt>
      <trkpt lat="44.06267" lon="5.971">
        <ele>508.2</ele>
        <time>2017-01-07T12:49:13Z</time>
      </trkpt>
      <trkpt lat="44.06267" lon="5.97096">
        <ele>508.4</ele>
        <time>2017-01-07T12:49:14Z</time>
      </trkpt>
      <trkpt lat="44.06267" lon="5.97091">
        <ele>508.7</ele>
        <time>2017-01-07T12:49:15Z</time>
      </trkpt>
      <trkpt lat="44.06267" lon="5.97087">
        <ele>509</ele>
        <time>2017-01-07T12:49:16Z</time>
      </trkpt>
      <trkpt lat="44.06267" lon="5.97083">
        <ele>509.2</ele>
        <time>2017-01-07T12:49:17Z</time>
      </trkpt>
      <trkpt lat="44.06266" lon="5.97079">
        <ele>509.4</ele>
        <time>2017-01-07T12:49:18Z</time>
      </trkpt>
      <trkpt lat="44.06265" lon="5.97075">
        <ele>509.6</ele>
        <time>2017-01-07T12:49:19Z</time>
      </trkpt>
      <trkpt lat="44.06264" lon="5.97071">
        <ele>509.8</ele>
        <time>2017-01-07T12:49:20Z</time>
      </trkpt>
      <trkpt lat="44.06262" lon="5.97067">
        <ele>510.1</ele>
        <time>2017-01-07T12:49:21Z</time>
      </trkpt>
      <trkpt lat="44.0626" lon="5.97064">
        <ele>510.3</ele>
        <time>2017-01-07T12:49:22Z</time>
      </trkpt>
      <trkpt lat="44.06258" lon="5.97062">
        <ele>510.5</ele>
        <time>2017-01-07T12:49:23Z</time>
      </trkpt>
      <trkpt lat="44.06253" lon="5.97059">
        <ele>510.8</ele>
        <time>2017-01-07T12:49:25Z</time>
      </trkpt>
      <trkpt lat="44.06249" lon="5.97057">
        <ele>511</ele>
        <time>2017-01-07T12:49:27Z</time>
      </trkpt>
      <trkpt lat="44.06245" lon="5.97057">
        <ele>511.2</ele>
        <time>2017-01-07T12:49:29Z</time>
      </trkpt>
      <trkpt lat="44.0624" lon="5.97057">
        <ele>511.4</ele>
        <time>2017-01-07T12:49:31Z</time>
      </trkpt>
      <trkpt lat="44.06236" lon="5.97057">
        <ele>511.5</ele>
        <time>2017-01-07T12:49:33Z</time>
      </trkpt>
      <trkpt lat="44.06231" lon="5.97057">
        <ele>511.7</ele>
        <time>2017-01-07T12:49:35Z</time>
      </trkpt>
      <trkpt lat="44.06226" lon="5.97057">
        <ele>511.9</ele>
        <time>2017-01-07T12:49:37Z</time>
      </trkpt>
      <trkpt lat="44.06222" lon="5.97055">
        <ele>512.1</ele>
        <time>2017-01-07T12:49:39Z</time>
      </trkpt>
      <trkpt lat="44.06217" lon="5.97051">
        <ele>512.4</ele>
        <time>2017-01-07T12:49:41Z</time>
      </trkpt>
      <trkpt lat="44.06216" lon="5.97048">
        <ele>512.5</ele>
        <time>2017-01-07T12:49:42Z</time>
      </trkpt>
      <trkpt lat="44.06214" lon="5.97044">
        <ele>512.6</ele>
        <time>2017-01-07T12:49:43Z</time>
      </trkpt>
      <trkpt lat="44.06214" lon="5.9704">
        <ele>512.8</ele>
        <time>2017-01-07T12:49:44Z</time>
      </trkpt>
      <trkpt lat="44.06214" lon="5.97036">
        <ele>512.9</ele>
        <time>2017-01-07T12:49:45Z</time>
      </trkpt>
      <trkpt lat="44.06214" lon="5.97033">
        <ele>513.1</ele>
        <time>2017-01-07T12:49:46Z</time>
      </trkpt>
      <trkpt lat="44.06217" lon="5.97026">
        <ele>513.4</ele>
        <time>2017-01-07T12:49:48Z</time>
      </trkpt>
      <trkpt lat="44.06218" lon="5.97023">
        <ele>513.6</ele>
        <time>2017-01-07T12:49:49Z</time>
      </trkpt>
      <trkpt lat="44.0622" lon="5.9702">
        <ele>513.8</ele>
        <time>2017-01-07T12:49:50Z</time>
      </trkpt>
      <trkpt lat="44.06223" lon="5.97018">
        <ele>514</ele>
        <time>2017-01-07T12:49:51Z</time>
      </trkpt>
      <trkpt lat="44.06225" lon="5.97017">
        <ele>514.3</ele>
        <time>2017-01-07T12:49:52Z</time>
      </trkpt>
      <trkpt lat="44.06228" lon="5.97016">
        <ele>514.6</ele>
        <time>2017-01-07T12:49:53Z</time>
      </trkpt>
      <trkpt lat="44.06231" lon="5.97016">
        <ele>514.8</ele>
        <time>2017-01-07T12:49:54Z</time>
      </trkpt>
      <trkpt lat="44.06234" lon="5.97016">
        <ele>515.1</ele>
        <time>2017-01-07T12:49:55Z</time>
      </trkpt>
      <trkpt lat="44.06239" lon="5.97015">
        <ele>515.6</ele>
        <time>2017-01-07T12:49:57Z</time>
      </trkpt>
      <trkpt lat="44.06242" lon="5.97014">
        <ele>515.9</ele>
        <time>2017-01-07T12:49:58Z</time>
      </trkpt>
      <trkpt lat="44.06247" lon="5.97013">
        <ele>516.5</ele>
        <time>2017-01-07T12:50:00Z</time>
      </trkpt>
      <trkpt lat="44.06252" lon="5.97012">
        <ele>516.9</ele>
        <time>2017-01-07T12:50:02Z</time>
      </trkpt>
      <trkpt lat="44.06257" lon="5.97011">
        <ele>517.3</ele>
        <time>2017-01-07T12:50:04Z</time>
      </trkpt>
      <trkpt lat="44.06262" lon="5.9701">
        <ele>517.7</ele>
        <time>2017-01-07T12:50:06Z</time>
      </trkpt>
      <trkpt lat="44.06266" lon="5.97008">
        <ele>518</ele>
        <time>2017-01-07T12:50:08Z</time>
      </trkpt>
      <trkpt lat="44.0627" lon="5.97007">
        <ele>519.5</ele>
        <time>2017-01-07T12:50:10Z</time>
      </trkpt>
      <trkpt lat="44.06273" lon="5.97003">
        <ele>521</ele>
        <time>2017-01-07T12:50:12Z</time>
      </trkpt>
      <trkpt lat="44.06277" lon="5.97001">
        <ele>522.5</ele>
        <time>2017-01-07T12:50:14Z</time>
      </trkpt>
      <trkpt lat="44.06281" lon="5.96999">
        <ele>523.9</ele>
        <time>2017-01-07T12:50:16Z</time>
      </trkpt>
      <trkpt lat="44.06285" lon="5.96999">
        <ele>525.3</ele>
        <time>2017-01-07T12:50:18Z</time>
      </trkpt>
      <trkpt lat="44.06289" lon="5.96997">
        <ele>526.9</ele>
        <time>2017-01-07T12:50:20Z</time>
      </trkpt>
      <trkpt lat="44.06293" lon="5.96996">
        <ele>528.5</ele>
        <time>2017-01-07T12:50:22Z</time>
      </trkpt>
      <trkpt lat="44.06298" lon="5.96995">
        <ele>530.1</ele>
        <time>2017-01-07T12:50:24Z</time>
      </trkpt>
      <trkpt lat="44.06302" lon="5.96994">
        <ele>531.7</ele>
        <time>2017-01-07T12:50:26Z</time>
      </trkpt>
      <trkpt lat="44.06307" lon="5.96993">
        <ele>531.4</ele>
        <time>2017-01-07T12:50:28Z</time>
      </trkpt>
      <trkpt lat="44.0631" lon="5.96992">
        <ele>530.9</ele>
        <time>2017-01-07T12:50:30Z</time>
      </trkpt>
      <trkpt lat="44.06314" lon="5.96991">
        <ele>530.3</ele>
        <time>2017-01-07T12:50:32Z</time>
      </trkpt>
      <trkpt lat="44.06317" lon="5.96989">
        <ele>529.7</ele>
        <time>2017-01-07T12:50:34Z</time>
      </trkpt>
      <trkpt lat="44.06322" lon="5.96987">
        <ele>529</ele>
        <time>2017-01-07T12:50:36Z</time>
      </trkpt>
      <trkpt lat="44.06326" lon="5.96985">
        <ele>528.3</ele>
        <time>2017-01-07T12:50:38Z</time>
      </trkpt>
      <trkpt lat="44.06329" lon="5.96983">
        <ele>527.8</ele>
        <time>2017-01-07T12:50:40Z</time>
      </trkpt>
      <trkpt lat="44.06332" lon="5.96981">
        <ele>527.3</ele>
        <time>2017-01-07T12:50:42Z</time>
      </trkpt>
      <trkpt lat="44.06334" lon="5.9698">
        <ele>526.9</ele>
        <time>2017-01-07T12:50:44Z</time>
      </trkpt>
      <trkpt lat="44.06337" lon="5.96979">
        <ele>526.5</ele>
        <time>2017-01-07T12:50:46Z</time>
      </trkpt>
      <trkpt lat="44.0634" lon="5.96977">
        <ele>526</ele>
        <time>2017-01-07T12:50:48Z</time>
      </trkpt>
      <trkpt lat="44.06343" lon="5.96974">
        <ele>525.5</ele>
        <time>2017-01-07T12:50:51Z</time>
      </trkpt>
      <trkpt lat="44.06345" lon="5.96971">
        <ele>525</ele>
        <time>2017-01-07T12:50:54Z</time>
      </trkpt>
      <trkpt lat="44.06346" lon="5.96967">
        <ele>525.5</ele>
        <time>2017-01-07T12:50:57Z</time>
      </trkpt>
      <trkpt lat="44.06345" lon="5.96963">
        <ele>525.9</ele>
        <time>2017-01-07T12:51:01Z</time>
      </trkpt>
      <trkpt lat="44.06341" lon="5.96958">
        <ele>526.5</ele>
        <time>2017-01-07T12:51:47Z</time>
      </trkpt>
      <trkpt lat="44.06342" lon="5.96954">
        <ele>526.9</ele>
        <time>2017-01-07T12:51:49Z</time>
      </trkpt>
      <trkpt lat="44.06342" lon="5.96949">
        <ele>527.3</ele>
        <time>2017-01-07T12:51:51Z</time>
      </trkpt>
      <trkpt lat="44.06343" lon="5.96944">
        <ele>527.7</ele>
        <time>2017-01-07T12:51:53Z</time>
      </trkpt>
      <trkpt lat="44.06344" lon="5.96937">
        <ele>528.2</ele>
        <time>2017-01-07T12:51:55Z</time>
      </trkpt>
      <trkpt lat="44.06344" lon="5.96934">
        <ele>528.5</ele>
        <time>2017-01-07T12:51:56Z</time>
      </trkpt>
      <trkpt lat="44.06345" lon="5.96927">
        <ele>529</ele>
        <time>2017-01-07T12:51:58Z</time>
      </trkpt>
      <trkpt lat="44.06346" lon="5.96923">
        <ele>529.3</ele>
        <time>2017-01-07T12:51:59Z</time>
      </trkpt>
      <trkpt lat="44.06346" lon="5.96918">
        <ele>529.6</ele>
        <time>2017-01-07T12:52:00Z</time>
      </trkpt>
      <trkpt lat="44.06347" lon="5.96914">
        <ele>529.9</ele>
        <time>2017-01-07T12:52:01Z</time>
      </trkpt>
      <trkpt lat="44.06348" lon="5.96909">
        <ele>530.1</ele>
        <time>2017-01-07T12:52:02Z</time>
      </trkpt>
      <trkpt lat="44.06348" lon="5.96905">
        <ele>530.3</ele>
        <time>2017-01-07T12:52:03Z</time>
      </trkpt>
      <trkpt lat="44.06349" lon="5.969">
        <ele>530.5</ele>
        <time>2017-01-07T12:52:04Z</time>
      </trkpt>
      <trkpt lat="44.0635" lon="5.96896">
        <ele>530.7</ele>
        <time>2017-01-07T12:52:05Z</time>
      </trkpt>
      <trkpt lat="44.0635" lon="5.96892">
        <ele>530.9</ele>
        <time>2017-01-07T12:52:06Z</time>
      </trkpt>
      <trkpt lat="44.0635" lon="5.96888">
        <ele>531.1</ele>
        <time>2017-01-07T12:52:07Z</time>
      </trkpt>
      <trkpt lat="44.06351" lon="5.96884">
        <ele>531.3</ele>
        <time>2017-01-07T12:52:08Z</time>
      </trkpt>
      <trkpt lat="44.06351" lon="5.96881">
        <ele>531.5</ele>
        <time>2017-01-07T12:52:09Z</time>
      </trkpt>
      <trkpt lat="44.06353" lon="5.96874">
        <ele>531.9</ele>
        <time>2017-01-07T12:52:11Z</time>
      </trkpt>
      <trkpt lat="44.06353" lon="5.96867">
        <ele>532.3</ele>
        <time>2017-01-07T12:52:13Z</time>
      </trkpt>
      <trkpt lat="44.06354" lon="5.9686">
        <ele>532.7</ele>
        <time>2017-01-07T12:52:15Z</time>
      </trkpt>
      <trkpt lat="44.06355" lon="5.96853">
        <ele>533.1</ele>
        <time>2017-01-07T12:52:17Z</time>
      </trkpt>
      <trkpt lat="44.06356" lon="5.96846">
        <ele>533.6</ele>
        <time>2017-01-07T12:52:19Z</time>
      </trkpt>
      <trkpt lat="44.06359" lon="5.9684">
        <ele>534.1</ele>
        <time>2017-01-07T12:52:21Z</time>
      </trkpt>
      <trkpt lat="44.06362" lon="5.96834">
        <ele>534.6</ele>
        <time>2017-01-07T12:52:23Z</time>
      </trkpt>
      <trkpt lat="44.06364" lon="5.96831">
        <ele>535.1</ele>
        <time>2017-01-07T12:52:24Z</time>
      </trkpt>
      <trkpt lat="44.06366" lon="5.96828">
        <ele>535.7</ele>
        <time>2017-01-07T12:52:25Z</time>
      </trkpt>
      <trkpt lat="44.06368" lon="5.96825">
        <ele>536.1</ele>
        <time>2017-01-07T12:52:26Z</time>
      </trkpt>
      <trkpt lat="44.0637" lon="5.96823">
        <ele>536.6</ele>
        <time>2017-01-07T12:52:27Z</time>
      </trkpt>
      <trkpt lat="44.06372" lon="5.9682">
        <ele>537</ele>
        <time>2017-01-07T12:52:28Z</time>
      </trkpt>
      <trkpt lat="44.06376" lon="5.96816">
        <ele>536.9</ele>
        <time>2017-01-07T12:52:30Z</time>
      </trkpt>
      <trkpt lat="44.06381" lon="5.96814">
        <ele>536.8</ele>
        <time>2017-01-07T12:52:32Z</time>
      </trkpt>
      <trkpt lat="44.06386" lon="5.96812">
        <ele>536.7</ele>
        <time>2017-01-07T12:52:34Z</time>
      </trkpt>
      <trkpt lat="44.06391" lon="5.96811">
        <ele>536.6</ele>
        <time>2017-01-07T12:52:36Z</time>
      </trkpt>
      <trkpt lat="44.06396" lon="5.9681">
        <ele>536.4</ele>
        <time>2017-01-07T12:52:38Z</time>
      </trkpt>
      <trkpt lat="44.064" lon="5.96808">
        <ele>536.3</ele>
        <time>2017-01-07T12:52:40Z</time>
      </trkpt>
      <trkpt lat="44.06405" lon="5.96807">
        <ele>536.1</ele>
        <time>2017-01-07T12:52:42Z</time>
      </trkpt>
      <trkpt lat="44.06409" lon="5.96805">
        <ele>535.8</ele>
        <time>2017-01-07T12:52:44Z</time>
      </trkpt>
      <trkpt lat="44.06413" lon="5.96804">
        <ele>535.7</ele>
        <time>2017-01-07T12:52:46Z</time>
      </trkpt>
      <trkpt lat="44.06418" lon="5.96803">
        <ele>535.5</ele>
        <time>2017-01-07T12:52:48Z</time>
      </trkpt>
      <trkpt lat="44.06423" lon="5.96803">
        <ele>535.4</ele>
        <time>2017-01-07T12:52:50Z</time>
      </trkpt>
      <trkpt lat="44.06428" lon="5.96802">
        <ele>535.2</ele>
        <time>2017-01-07T12:52:52Z</time>
      </trkpt>
      <trkpt lat="44.06433" lon="5.96801">
        <ele>535</ele>
        <time>2017-01-07T12:52:54Z</time>
      </trkpt>
      <trkpt lat="44.06438" lon="5.96799">
        <ele>534.9</ele>
        <time>2017-01-07T12:52:56Z</time>
      </trkpt>
      <trkpt lat="44.06443" lon="5.96796">
        <ele>534.7</ele>
        <time>2017-01-07T12:52:58Z</time>
      </trkpt>
      <trkpt lat="44.06449" lon="5.96794">
        <ele>534.5</ele>
        <time>2017-01-07T12:53:00Z</time>
      </trkpt>
      <trkpt lat="44.06451" lon="5.96793">
        <ele>534.4</ele>
        <time>2017-01-07T12:53:01Z</time>
      </trkpt>
      <trkpt lat="44.06454" lon="5.96791">
        <ele>534.3</ele>
        <time>2017-01-07T12:53:02Z</time>
      </trkpt>
      <trkpt lat="44.06457" lon="5.9679">
        <ele>534.2</ele>
        <time>2017-01-07T12:53:03Z</time>
      </trkpt>
      <trkpt lat="44.0646" lon="5.96788">
        <ele>534</ele>
        <time>2017-01-07T12:53:04Z</time>
      </trkpt>
      <trkpt lat="44.06463" lon="5.96786">
        <ele>533.9</ele>
        <time>2017-01-07T12:53:05Z</time>
      </trkpt>
      <trkpt lat="44.06466" lon="5.96784">
        <ele>533.8</ele>
        <time>2017-01-07T12:53:06Z</time>
      </trkpt>
      <trkpt lat="44.06468" lon="5.96781">
        <ele>533.7</ele>
        <time>2017-01-07T12:53:07Z</time>
      </trkpt>
      <trkpt lat="44.06471" lon="5.96777">
        <ele>533.5</ele>
        <time>2017-01-07T12:53:08Z</time>
      </trkpt>
      <trkpt lat="44.06473" lon="5.96775">
        <ele>533.4</ele>
        <time>2017-01-07T12:53:09Z</time>
      </trkpt>
      <trkpt lat="44.06476" lon="5.96772">
        <ele>533.3</ele>
        <time>2017-01-07T12:53:10Z</time>
      </trkpt>
      <trkpt lat="44.06479" lon="5.96769">
        <ele>533.2</ele>
        <time>2017-01-07T12:53:11Z</time>
      </trkpt>
      <trkpt lat="44.06482" lon="5.96767">
        <ele>533</ele>
        <time>2017-01-07T12:53:12Z</time>
      </trkpt>
      <trkpt lat="44.06485" lon="5.96764">
        <ele>532.9</ele>
        <time>2017-01-07T12:53:13Z</time>
      </trkpt>
      <trkpt lat="44.06487" lon="5.96761">
        <ele>532.7</ele>
        <time>2017-01-07T12:53:14Z</time>
      </trkpt>
      <trkpt lat="44.0649" lon="5.96759">
        <ele>532.5</ele>
        <time>2017-01-07T12:53:15Z</time>
      </trkpt>
      <trkpt lat="44.06493" lon="5.96756">
        <ele>532.3</ele>
        <time>2017-01-07T12:53:16Z</time>
      </trkpt>
      <trkpt lat="44.06495" lon="5.96752">
        <ele>532.2</ele>
        <time>2017-01-07T12:53:17Z</time>
      </trkpt>
      <trkpt lat="44.06497" lon="5.96748">
        <ele>532</ele>
        <time>2017-01-07T12:53:18Z</time>
      </trkpt>
      <trkpt lat="44.06498" lon="5.96744">
        <ele>531.7</ele>
        <time>2017-01-07T12:53:19Z</time>
      </trkpt>
      <trkpt lat="44.065" lon="5.96741">
        <ele>531.4</ele>
        <time>2017-01-07T12:53:20Z</time>
      </trkpt>
      <trkpt lat="44.06502" lon="5.96738">
        <ele>531.2</ele>
        <time>2017-01-07T12:53:21Z</time>
      </trkpt>
      <trkpt lat="44.06504" lon="5.96734">
        <ele>531</ele>
        <time>2017-01-07T12:53:22Z</time>
      </trkpt>
      <trkpt lat="44.06506" lon="5.96732">
        <ele>530.9</ele>
        <time>2017-01-07T12:53:23Z</time>
      </trkpt>
      <trkpt lat="44.06508" lon="5.96728">
        <ele>530.7</ele>
        <time>2017-01-07T12:53:24Z</time>
      </trkpt>
      <trkpt lat="44.0651" lon="5.96724">
        <ele>530.5</ele>
        <time>2017-01-07T12:53:25Z</time>
      </trkpt>
      <trkpt lat="44.06512" lon="5.9672">
        <ele>530.3</ele>
        <time>2017-01-07T12:53:26Z</time>
      </trkpt>
      <trkpt lat="44.06514" lon="5.96716">
        <ele>530.1</ele>
        <time>2017-01-07T12:53:27Z</time>
      </trkpt>
      <trkpt lat="44.06517" lon="5.96713">
        <ele>529.9</ele>
        <time>2017-01-07T12:53:28Z</time>
      </trkpt>
      <trkpt lat="44.06519" lon="5.9671">
        <ele>529.7</ele>
        <time>2017-01-07T12:53:29Z</time>
      </trkpt>
      <trkpt lat="44.06521" lon="5.96706">
        <ele>529.6</ele>
        <time>2017-01-07T12:53:30Z</time>
      </trkpt>
      <trkpt lat="44.06523" lon="5.96703">
        <ele>529.4</ele>
        <time>2017-01-07T12:53:31Z</time>
      </trkpt>
      <trkpt lat="44.06525" lon="5.96699">
        <ele>529.2</ele>
        <time>2017-01-07T12:53:32Z</time>
      </trkpt>
      <trkpt lat="44.06527" lon="5.96695">
        <ele>529</ele>
        <time>2017-01-07T12:53:33Z</time>
      </trkpt>
      <trkpt lat="44.06529" lon="5.96692">
        <ele>529.4</ele>
        <time>2017-01-07T12:53:34Z</time>
      </trkpt>
      <trkpt lat="44.06531" lon="5.96688">
        <ele>529.7</ele>
        <time>2017-01-07T12:53:35Z</time>
      </trkpt>
      <trkpt lat="44.06532" lon="5.96685">
        <ele>530</ele>
        <time>2017-01-07T12:53:36Z</time>
      </trkpt>
      <trkpt lat="44.06533" lon="5.96682">
        <ele>530.3</ele>
        <time>2017-01-07T12:53:37Z</time>
      </trkpt>
      <trkpt lat="44.06535" lon="5.96678">
        <ele>530.5</ele>
        <time>2017-01-07T12:53:38Z</time>
      </trkpt>
      <trkpt lat="44.06536" lon="5.96674">
        <ele>530.6</ele>
        <time>2017-01-07T12:53:39Z</time>
      </trkpt>
      <trkpt lat="44.06538" lon="5.9667">
        <ele>530.7</ele>
        <time>2017-01-07T12:53:40Z</time>
      </trkpt>
      <trkpt lat="44.0654" lon="5.96666">
        <ele>530.8</ele>
        <time>2017-01-07T12:53:41Z</time>
      </trkpt>
      <trkpt lat="44.06542" lon="5.96663">
        <ele>530.9</ele>
        <time>2017-01-07T12:53:42Z</time>
      </trkpt>
      <trkpt lat="44.06543" lon="5.96659">
        <ele>531</ele>
        <time>2017-01-07T12:53:43Z</time>
      </trkpt>
      <trkpt lat="44.06545" lon="5.96656">
        <ele>531.1</ele>
        <time>2017-01-07T12:53:44Z</time>
      </trkpt>
      <trkpt lat="44.06547" lon="5.96653">
        <ele>531.2</ele>
        <time>2017-01-07T12:53:45Z</time>
      </trkpt>
      <trkpt lat="44.06549" lon="5.96649">
        <ele>531.3</ele>
        <time>2017-01-07T12:53:46Z</time>
      </trkpt>
      <trkpt lat="44.06551" lon="5.96646">
        <ele>531.4</ele>
        <time>2017-01-07T12:53:47Z</time>
      </trkpt>
      <trkpt lat="44.06552" lon="5.96642">
        <ele>531.5</ele>
        <time>2017-01-07T12:53:48Z</time>
      </trkpt>
      <trkpt lat="44.06554" lon="5.96639">
        <ele>531.6</ele>
        <time>2017-01-07T12:53:49Z</time>
      </trkpt>
      <trkpt lat="44.06556" lon="5.96636">
        <ele>531.7</ele>
        <time>2017-01-07T12:53:50Z</time>
      </trkpt>
      <trkpt lat="44.06558" lon="5.96632">
        <ele>531.8</ele>
        <time>2017-01-07T12:53:51Z</time>
      </trkpt>
      <trkpt lat="44.0656" lon="5.96629">
        <ele>531.9</ele>
        <time>2017-01-07T12:53:52Z</time>
      </trkpt>
      <trkpt lat="44.06562" lon="5.96626">
        <ele>532</ele>
        <time>2017-01-07T12:53:53Z</time>
      </trkpt>
      <trkpt lat="44.06563" lon="5.96623">
        <ele>532</ele>
        <time>2017-01-07T12:53:54Z</time>
      </trkpt>
      <trkpt lat="44.06565" lon="5.9662">
        <ele>532</ele>
        <time>2017-01-07T12:53:55Z</time>
      </trkpt>
      <trkpt lat="44.06568" lon="5.96613">
        <ele>532</ele>
        <time>2017-01-07T12:53:57Z</time>
      </trkpt>
      <trkpt lat="44.06568" lon="5.9661">
        <ele>532</ele>
        <time>2017-01-07T12:53:58Z</time>
      </trkpt>
      <trkpt lat="44.06568" lon="5.96606">
        <ele>532</ele>
        <time>2017-01-07T12:53:59Z</time>
      </trkpt>
      <trkpt lat="44.06567" lon="5.96602">
        <ele>531.9</ele>
        <time>2017-01-07T12:54:00Z</time>
      </trkpt>
      <trkpt lat="44.06565" lon="5.96599">
        <ele>531.9</ele>
        <time>2017-01-07T12:54:01Z</time>
      </trkpt>
      <trkpt lat="44.06562" lon="5.96596">
        <ele>531.9</ele>
        <time>2017-01-07T12:54:02Z</time>
      </trkpt>
      <trkpt lat="44.06559" lon="5.96594">
        <ele>531.9</ele>
        <time>2017-01-07T12:54:03Z</time>
      </trkpt>
      <trkpt lat="44.06555" lon="5.96592">
        <ele>531.8</ele>
        <time>2017-01-07T12:54:04Z</time>
      </trkpt>
      <trkpt lat="44.06552" lon="5.96589">
        <ele>531.8</ele>
        <time>2017-01-07T12:54:05Z</time>
      </trkpt>
      <trkpt lat="44.06549" lon="5.96586">
        <ele>531.8</ele>
        <time>2017-01-07T12:54:06Z</time>
      </trkpt>
      <trkpt lat="44.06545" lon="5.96583">
        <ele>531.8</ele>
        <time>2017-01-07T12:54:07Z</time>
      </trkpt>
      <trkpt lat="44.06542" lon="5.96581">
        <ele>531.8</ele>
        <time>2017-01-07T12:54:08Z</time>
      </trkpt>
      <trkpt lat="44.06539" lon="5.96578">
        <ele>531.8</ele>
        <time>2017-01-07T12:54:09Z</time>
      </trkpt>
      <trkpt lat="44.06536" lon="5.96575">
        <ele>531.8</ele>
        <time>2017-01-07T12:54:10Z</time>
      </trkpt>
      <trkpt lat="44.06533" lon="5.96572">
        <ele>531.7</ele>
        <time>2017-01-07T12:54:11Z</time>
      </trkpt>
      <trkpt lat="44.0653" lon="5.96569">
        <ele>531.7</ele>
        <time>2017-01-07T12:54:12Z</time>
      </trkpt>
      <trkpt lat="44.06527" lon="5.96566">
        <ele>531.7</ele>
        <time>2017-01-07T12:54:13Z</time>
      </trkpt>
      <trkpt lat="44.06524" lon="5.96563">
        <ele>531.7</ele>
        <time>2017-01-07T12:54:14Z</time>
      </trkpt>
      <trkpt lat="44.06521" lon="5.96561">
        <ele>531.7</ele>
        <time>2017-01-07T12:54:15Z</time>
      </trkpt>
      <trkpt lat="44.06519" lon="5.96558">
        <ele>531.7</ele>
        <time>2017-01-07T12:54:16Z</time>
      </trkpt>
      <trkpt lat="44.06516" lon="5.96556">
        <ele>531.8</ele>
        <time>2017-01-07T12:54:17Z</time>
      </trkpt>
      <trkpt lat="44.06513" lon="5.96553">
        <ele>531.8</ele>
        <time>2017-01-07T12:54:18Z</time>
      </trkpt>
      <trkpt lat="44.06511" lon="5.9655">
        <ele>531.8</ele>
        <time>2017-01-07T12:54:19Z</time>
      </trkpt>
      <trkpt lat="44.06508" lon="5.96548">
        <ele>531.8</ele>
        <time>2017-01-07T12:54:20Z</time>
      </trkpt>
      <trkpt lat="44.06505" lon="5.96546">
        <ele>531.7</ele>
        <time>2017-01-07T12:54:21Z</time>
      </trkpt>
      <trkpt lat="44.06502" lon="5.96544">
        <ele>531.7</ele>
        <time>2017-01-07T12:54:22Z</time>
      </trkpt>
      <trkpt lat="44.065" lon="5.96542">
        <ele>531.6</ele>
        <time>2017-01-07T12:54:23Z</time>
      </trkpt>
      <trkpt lat="44.06497" lon="5.9654">
        <ele>531.5</ele>
        <time>2017-01-07T12:54:24Z</time>
      </trkpt>
      <trkpt lat="44.06495" lon="5.96538">
        <ele>531.4</ele>
        <time>2017-01-07T12:54:25Z</time>
      </trkpt>
      <trkpt lat="44.06492" lon="5.96536">
        <ele>531.3</ele>
        <time>2017-01-07T12:54:26Z</time>
      </trkpt>
      <trkpt lat="44.06489" lon="5.96535">
        <ele>531.3</ele>
        <time>2017-01-07T12:54:27Z</time>
      </trkpt>
      <trkpt lat="44.06487" lon="5.96533">
        <ele>531.2</ele>
        <time>2017-01-07T12:54:28Z</time>
      </trkpt>
      <trkpt lat="44.06484" lon="5.96531">
        <ele>531.2</ele>
        <time>2017-01-07T12:54:29Z</time>
      </trkpt>
      <trkpt lat="44.06479" lon="5.96528">
        <ele>530.8</ele>
        <time>2017-01-07T12:54:31Z</time>
      </trkpt>
      <trkpt lat="44.06477" lon="5.96526">
        <ele>530.8</ele>
        <time>2017-01-07T12:54:32Z</time>
      </trkpt>
      <trkpt lat="44.06473" lon="5.96522">
        <ele>530.7</ele>
        <time>2017-01-07T12:54:34Z</time>
      </trkpt>
      <trkpt lat="44.06469" lon="5.96519">
        <ele>530.5</ele>
        <time>2017-01-07T12:54:36Z</time>
      </trkpt>
      <trkpt lat="44.06465" lon="5.96515">
        <ele>530.4</ele>
        <time>2017-01-07T12:54:38Z</time>
      </trkpt>
      <trkpt lat="44.0646" lon="5.96512">
        <ele>530.1</ele>
        <time>2017-01-07T12:54:40Z</time>
      </trkpt>
      <trkpt lat="44.06457" lon="5.9651">
        <ele>529.9</ele>
        <time>2017-01-07T12:54:41Z</time>
      </trkpt>
      <trkpt lat="44.06454" lon="5.96507">
        <ele>529.7</ele>
        <time>2017-01-07T12:54:42Z</time>
      </trkpt>
      <trkpt lat="44.0645" lon="5.96504">
        <ele>529.5</ele>
        <time>2017-01-07T12:54:43Z</time>
      </trkpt>
      <trkpt lat="44.06447" lon="5.96502">
        <ele>529.3</ele>
        <time>2017-01-07T12:54:44Z</time>
      </trkpt>
      <trkpt lat="44.06443" lon="5.96499">
        <ele>529.1</ele>
        <time>2017-01-07T12:54:45Z</time>
      </trkpt>
      <trkpt lat="44.0644" lon="5.96497">
        <ele>529</ele>
        <time>2017-01-07T12:54:46Z</time>
      </trkpt>
      <trkpt lat="44.06436" lon="5.96494">
        <ele>528.8</ele>
        <time>2017-01-07T12:54:47Z</time>
      </trkpt>
      <trkpt lat="44.06432" lon="5.96488">
        <ele>528.5</ele>
        <time>2017-01-07T12:54:48Z</time>
      </trkpt>
      <trkpt lat="44.06426" lon="5.96482">
        <ele>528.2</ele>
        <time>2017-01-07T12:54:49Z</time>
      </trkpt>
      <trkpt lat="44.06422" lon="5.96479">
        <ele>527.9</ele>
        <time>2017-01-07T12:54:50Z</time>
      </trkpt>
      <trkpt lat="44.06417" lon="5.96474">
        <ele>527.6</ele>
        <time>2017-01-07T12:54:51Z</time>
      </trkpt>
      <trkpt lat="44.06412" lon="5.9647">
        <ele>527.3</ele>
        <time>2017-01-07T12:54:52Z</time>
      </trkpt>
      <trkpt lat="44.06406" lon="5.96465">
        <ele>526.9</ele>
        <time>2017-01-07T12:54:53Z</time>
      </trkpt>
      <trkpt lat="44.064" lon="5.9646">
        <ele>526.6</ele>
        <time>2017-01-07T12:54:54Z</time>
      </trkpt>
      <trkpt lat="44.06394" lon="5.96453">
        <ele>526.2</ele>
        <time>2017-01-07T12:54:55Z</time>
      </trkpt>
      <trkpt lat="44.06387" lon="5.96447">
        <ele>525.9</ele>
        <time>2017-01-07T12:54:56Z</time>
      </trkpt>
      <trkpt lat="44.06381" lon="5.9644">
        <ele>525.7</ele>
        <time>2017-01-07T12:54:57Z</time>
      </trkpt>
      <trkpt lat="44.06373" lon="5.96432">
        <ele>525.4</ele>
        <time>2017-01-07T12:54:58Z</time>
      </trkpt>
      <trkpt lat="44.06367" lon="5.96426">
        <ele>525.1</ele>
        <time>2017-01-07T12:54:59Z</time>
      </trkpt>
      <trkpt lat="44.06362" lon="5.96417">
        <ele>524.9</ele>
        <time>2017-01-07T12:55:00Z</time>
      </trkpt>
      <trkpt lat="44.06356" lon="5.96405">
        <ele>524.8</ele>
        <time>2017-01-07T12:55:01Z</time>
      </trkpt>
      <trkpt lat="44.06353" lon="5.96391">
        <ele>524.8</ele>
        <time>2017-01-07T12:55:02Z</time>
      </trkpt>
      <trkpt lat="44.06351" lon="5.96381">
        <ele>524.8</ele>
        <time>2017-01-07T12:55:03Z</time>
      </trkpt>
      <trkpt lat="44.06344" lon="5.96369">
        <ele>524.8</ele>
        <time>2017-01-07T12:55:04Z</time>
      </trkpt>
      <trkpt lat="44.06339" lon="5.96359">
        <ele>524.8</ele>
        <time>2017-01-07T12:55:05Z</time>
      </trkpt>
      <trkpt lat="44.06336" lon="5.96352">
        <ele>524.8</ele>
        <time>2017-01-07T12:55:06Z</time>
      </trkpt>
      <trkpt lat="44.0633" lon="5.9634">
        <ele>524.8</ele>
        <time>2017-01-07T12:55:07Z</time>
      </trkpt>
      <trkpt lat="44.06328" lon="5.9633">
        <ele>524.8</ele>
        <time>2017-01-07T12:55:08Z</time>
      </trkpt>
      <trkpt lat="44.06324" lon="5.96318">
        <ele>524.8</ele>
        <time>2017-01-07T12:55:09Z</time>
      </trkpt>
      <trkpt lat="44.06321" lon="5.96307">
        <ele>524.8</ele>
        <time>2017-01-07T12:55:10Z</time>
      </trkpt>
      <trkpt lat="44.06317" lon="5.96297">
        <ele>524.9</ele>
        <time>2017-01-07T12:55:11Z</time>
      </trkpt>
      <trkpt lat="44.06315" lon="5.96288">
        <ele>524.9</ele>
        <time>2017-01-07T12:55:12Z</time>
      </trkpt>
      <trkpt lat="44.06309" lon="5.96279">
        <ele>524.9</ele>
        <time>2017-01-07T12:55:13Z</time>
      </trkpt>
      <trkpt lat="44.06305" lon="5.96276">
        <ele>524.9</ele>
        <time>2017-01-07T12:55:15Z</time>
      </trkpt>
      <trkpt lat="44.063" lon="5.96269">
        <ele>524.9</ele>
        <time>2017-01-07T12:55:16Z</time>
      </trkpt>
      <trkpt lat="44.06296" lon="5.96263">
        <ele>524.9</ele>
        <time>2017-01-07T12:55:17Z</time>
      </trkpt>
      <trkpt lat="44.06293" lon="5.96257">
        <ele>525</ele>
        <time>2017-01-07T12:55:18Z</time>
      </trkpt>
      <trkpt lat="44.06288" lon="5.96251">
        <ele>525</ele>
        <time>2017-01-07T12:55:19Z</time>
      </trkpt>
      <trkpt lat="44.06284" lon="5.96245">
        <ele>525</ele>
        <time>2017-01-07T12:55:20Z</time>
      </trkpt>
      <trkpt lat="44.06281" lon="5.96239">
        <ele>525</ele>
        <time>2017-01-07T12:55:21Z</time>
      </trkpt>
      <trkpt lat="44.06279" lon="5.96231">
        <ele>525</ele>
        <time>2017-01-07T12:55:22Z</time>
      </trkpt>
      <trkpt lat="44.06277" lon="5.96227">
        <ele>525.1</ele>
        <time>2017-01-07T12:55:23Z</time>
      </trkpt>
      <trkpt lat="44.06275" lon="5.96224">
        <ele>525.1</ele>
        <time>2017-01-07T12:55:24Z</time>
      </trkpt>
      <trkpt lat="44.06273" lon="5.96216">
        <ele>525.1</ele>
        <time>2017-01-07T12:55:25Z</time>
      </trkpt>
      <trkpt lat="44.0627" lon="5.9621">
        <ele>525.1</ele>
        <time>2017-01-07T12:55:26Z</time>
      </trkpt>
      <trkpt lat="44.06265" lon="5.96207">
        <ele>525.2</ele>
        <time>2017-01-07T12:55:27Z</time>
      </trkpt>
      <trkpt lat="44.06259" lon="5.96204">
        <ele>525.2</ele>
        <time>2017-01-07T12:55:29Z</time>
      </trkpt>
      <trkpt lat="44.06256" lon="5.96197">
        <ele>525.2</ele>
        <time>2017-01-07T12:55:30Z</time>
      </trkpt>
      <trkpt lat="44.06251" lon="5.96191">
        <ele>525.2</ele>
        <time>2017-01-07T12:55:31Z</time>
      </trkpt>
      <trkpt lat="44.06247" lon="5.96188">
        <ele>525.2</ele>
        <time>2017-01-07T12:55:32Z</time>
      </trkpt>
      <trkpt lat="44.06242" lon="5.96183">
        <ele>525.2</ele>
        <time>2017-01-07T12:55:33Z</time>
      </trkpt>
      <trkpt lat="44.06237" lon="5.96179">
        <ele>525.2</ele>
        <time>2017-01-07T12:55:34Z</time>
      </trkpt>
      <trkpt lat="44.06233" lon="5.96174">
        <ele>525.3</ele>
        <time>2017-01-07T12:55:35Z</time>
      </trkpt>
      <trkpt lat="44.0623" lon="5.96173">
        <ele>525.3</ele>
        <time>2017-01-07T12:55:36Z</time>
      </trkpt>
      <trkpt lat="44.06223" lon="5.96169">
        <ele>525.3</ele>
        <time>2017-01-07T12:55:37Z</time>
      </trkpt>
      <trkpt lat="44.0622" lon="5.96168">
        <ele>525.3</ele>
        <time>2017-01-07T12:55:38Z</time>
      </trkpt>
      <trkpt lat="44.06215" lon="5.96164">
        <ele>525.3</ele>
        <time>2017-01-07T12:55:39Z</time>
      </trkpt>
      <trkpt lat="44.06211" lon="5.96158">
        <ele>525.3</ele>
        <time>2017-01-07T12:55:40Z</time>
      </trkpt>
      <trkpt lat="44.06205" lon="5.96157">
        <ele>525.3</ele>
        <time>2017-01-07T12:55:41Z</time>
      </trkpt>
      <trkpt lat="44.06202" lon="5.96154">
        <ele>525.3</ele>
        <time>2017-01-07T12:55:42Z</time>
      </trkpt>
      <trkpt lat="44.06198" lon="5.96148">
        <ele>525.3</ele>
        <time>2017-01-07T12:55:43Z</time>
      </trkpt>
      <trkpt lat="44.06194" lon="5.96148">
        <ele>525.3</ele>
        <time>2017-01-07T12:55:44Z</time>
      </trkpt>
      <trkpt lat="44.06191" lon="5.96145">
        <ele>525.3</ele>
        <time>2017-01-07T12:55:45Z</time>
      </trkpt>
      <trkpt lat="44.06188" lon="5.96142">
        <ele>525.3</ele>
        <time>2017-01-07T12:55:46Z</time>
      </trkpt>
      <trkpt lat="44.06185" lon="5.96142">
        <ele>525.3</ele>
        <time>2017-01-07T12:55:47Z</time>
      </trkpt>
      <trkpt lat="44.0618" lon="5.96139">
        <ele>525.3</ele>
        <time>2017-01-07T12:55:49Z</time>
      </trkpt>
      <trkpt lat="44.06177" lon="5.96138">
        <ele>525.3</ele>
        <time>2017-01-07T12:55:50Z</time>
      </trkpt>
      <trkpt lat="44.06173" lon="5.96137">
        <ele>525.2</ele>
        <time>2017-01-07T12:55:51Z</time>
      </trkpt>
      <trkpt lat="44.06169" lon="5.96135">
        <ele>525.2</ele>
        <time>2017-01-07T12:55:52Z</time>
      </trkpt>
      <trkpt lat="44.06166" lon="5.96133">
        <ele>525.1</ele>
        <time>2017-01-07T12:55:53Z</time>
      </trkpt>
      <trkpt lat="44.06162" lon="5.96131">
        <ele>525.1</ele>
        <time>2017-01-07T12:55:54Z</time>
      </trkpt>
      <trkpt lat="44.06157" lon="5.9613">
        <ele>525</ele>
        <time>2017-01-07T12:55:55Z</time>
      </trkpt>
      <trkpt lat="44.06153" lon="5.96129">
        <ele>524.8</ele>
        <time>2017-01-07T12:55:56Z</time>
      </trkpt>
      <trkpt lat="44.06149" lon="5.96128">
        <ele>524.6</ele>
        <time>2017-01-07T12:55:57Z</time>
      </trkpt>
      <trkpt lat="44.06146" lon="5.96127">
        <ele>524.5</ele>
        <time>2017-01-07T12:55:58Z</time>
      </trkpt>
      <trkpt lat="44.06142" lon="5.96126">
        <ele>524.3</ele>
        <time>2017-01-07T12:55:59Z</time>
      </trkpt>
      <trkpt lat="44.06139" lon="5.96124">
        <ele>524.1</ele>
        <time>2017-01-07T12:56:00Z</time>
      </trkpt>
      <trkpt lat="44.06135" lon="5.96122">
        <ele>524</ele>
        <time>2017-01-07T12:56:01Z</time>
      </trkpt>
      <trkpt lat="44.06131" lon="5.96121">
        <ele>523.9</ele>
        <time>2017-01-07T12:56:02Z</time>
      </trkpt>
      <trkpt lat="44.06128" lon="5.96119">
        <ele>523.9</ele>
        <time>2017-01-07T12:56:03Z</time>
      </trkpt>
      <trkpt lat="44.06124" lon="5.96117">
        <ele>523.8</ele>
        <time>2017-01-07T12:56:04Z</time>
      </trkpt>
      <trkpt lat="44.0612" lon="5.96116">
        <ele>523.8</ele>
        <time>2017-01-07T12:56:05Z</time>
      </trkpt>
      <trkpt lat="44.06116" lon="5.96115">
        <ele>523.7</ele>
        <time>2017-01-07T12:56:06Z</time>
      </trkpt>
      <trkpt lat="44.06112" lon="5.96114">
        <ele>523.7</ele>
        <time>2017-01-07T12:56:07Z</time>
      </trkpt>
      <trkpt lat="44.06108" lon="5.96113">
        <ele>523.6</ele>
        <time>2017-01-07T12:56:08Z</time>
      </trkpt>
      <trkpt lat="44.06104" lon="5.96112">
        <ele>523.6</ele>
        <time>2017-01-07T12:56:09Z</time>
      </trkpt>
      <trkpt lat="44.061" lon="5.96111">
        <ele>523.5</ele>
        <time>2017-01-07T12:56:10Z</time>
      </trkpt>
      <trkpt lat="44.06096" lon="5.9611">
        <ele>523.4</ele>
        <time>2017-01-07T12:56:11Z</time>
      </trkpt>
      <trkpt lat="44.06092" lon="5.9611">
        <ele>523.3</ele>
        <time>2017-01-07T12:56:12Z</time>
      </trkpt>
      <trkpt lat="44.06088" lon="5.9611">
        <ele>523.2</ele>
        <time>2017-01-07T12:56:13Z</time>
      </trkpt>
      <trkpt lat="44.06083" lon="5.9611">
        <ele>523</ele>
        <time>2017-01-07T12:56:14Z</time>
      </trkpt>
      <trkpt lat="44.06075" lon="5.96109">
        <ele>522.5</ele>
        <time>2017-01-07T12:56:15Z</time>
      </trkpt>
      <trkpt lat="44.06071" lon="5.96112">
        <ele>522.3</ele>
        <time>2017-01-07T12:56:16Z</time>
      </trkpt>
      <trkpt lat="44.06066" lon="5.9611">
        <ele>522.2</ele>
        <time>2017-01-07T12:56:17Z</time>
      </trkpt>
      <trkpt lat="44.06062" lon="5.96111">
        <ele>522.2</ele>
        <time>2017-01-07T12:56:18Z</time>
      </trkpt>
      <trkpt lat="44.06057" lon="5.96109">
        <ele>522.1</ele>
        <time>2017-01-07T12:56:19Z</time>
      </trkpt>
      <trkpt lat="44.06053" lon="5.96107">
        <ele>522</ele>
        <time>2017-01-07T12:56:20Z</time>
      </trkpt>
      <trkpt lat="44.06048" lon="5.96107">
        <ele>521.9</ele>
        <time>2017-01-07T12:56:21Z</time>
      </trkpt>
      <trkpt lat="44.06044" lon="5.96105">
        <ele>521.8</ele>
        <time>2017-01-07T12:56:22Z</time>
      </trkpt>
      <trkpt lat="44.06038" lon="5.96101">
        <ele>521.7</ele>
        <time>2017-01-07T12:56:24Z</time>
      </trkpt>
      <trkpt lat="44.06035" lon="5.96102">
        <ele>521.6</ele>
        <time>2017-01-07T12:56:25Z</time>
      </trkpt>
      <trkpt lat="44.06031" lon="5.96102">
        <ele>521.5</ele>
        <time>2017-01-07T12:56:26Z</time>
      </trkpt>
      <trkpt lat="44.06025" lon="5.96105">
        <ele>520.3</ele>
        <time>2017-01-07T12:56:27Z</time>
      </trkpt>
      <trkpt lat="44.06018" lon="5.96112">
        <ele>519.9</ele>
        <time>2017-01-07T12:56:28Z</time>
      </trkpt>
      <trkpt lat="44.06011" lon="5.96115">
        <ele>519.7</ele>
        <time>2017-01-07T12:56:29Z</time>
      </trkpt>
      <trkpt lat="44.06007" lon="5.96119">
        <ele>519.7</ele>
        <time>2017-01-07T12:56:30Z</time>
      </trkpt>
      <trkpt lat="44.06001" lon="5.96121">
        <ele>519.7</ele>
        <time>2017-01-07T12:56:31Z</time>
      </trkpt>
      <trkpt lat="44.05998" lon="5.96125">
        <ele>519.7</ele>
        <time>2017-01-07T12:56:32Z</time>
      </trkpt>
      <trkpt lat="44.05993" lon="5.96125">
        <ele>519.6</ele>
        <time>2017-01-07T12:56:34Z</time>
      </trkpt>
      <trkpt lat="44.0599" lon="5.96123">
        <ele>519.6</ele>
        <time>2017-01-07T12:56:37Z</time>
      </trkpt>
      <trkpt lat="44.05986" lon="5.96122">
        <ele>519.6</ele>
        <time>2017-01-07T12:56:40Z</time>
      </trkpt>
      <trkpt lat="44.05982" lon="5.96129">
        <ele>519.6</ele>
        <time>2017-01-07T12:57:40Z</time>
      </trkpt>
      <trkpt lat="44.05979" lon="5.96129">
        <ele>519.6</ele>
        <time>2017-01-07T12:57:42Z</time>
      </trkpt>
      <trkpt lat="44.05973" lon="5.96128">
        <ele>519.5</ele>
        <time>2017-01-07T12:57:44Z</time>
      </trkpt>
      <trkpt lat="44.0597" lon="5.96127">
        <ele>519.5</ele>
        <time>2017-01-07T12:57:45Z</time>
      </trkpt>
      <trkpt lat="44.05966" lon="5.96125">
        <ele>519.6</ele>
        <time>2017-01-07T12:57:46Z</time>
      </trkpt>
      <trkpt lat="44.05961" lon="5.96122">
        <ele>519.7</ele>
        <time>2017-01-07T12:57:47Z</time>
      </trkpt>
      <trkpt lat="44.05954" lon="5.96117">
        <ele>519.6</ele>
        <time>2017-01-07T12:57:48Z</time>
      </trkpt>
      <trkpt lat="44.05945" lon="5.96109">
        <ele>519.2</ele>
        <time>2017-01-07T12:57:49Z</time>
      </trkpt>
      <trkpt lat="44.05941" lon="5.96104">
        <ele>518.9</ele>
        <time>2017-01-07T12:57:50Z</time>
      </trkpt>
      <trkpt lat="44.05938" lon="5.96097">
        <ele>518.4</ele>
        <time>2017-01-07T12:57:51Z</time>
      </trkpt>
      <trkpt lat="44.05937" lon="5.96088">
        <ele>517.8</ele>
        <time>2017-01-07T12:57:52Z</time>
      </trkpt>
      <trkpt lat="44.05938" lon="5.96077">
        <ele>516.5</ele>
        <time>2017-01-07T12:57:53Z</time>
      </trkpt>
      <trkpt lat="44.05939" lon="5.96067">
        <ele>515.8</ele>
        <time>2017-01-07T12:57:54Z</time>
      </trkpt>
      <trkpt lat="44.05942" lon="5.96058">
        <ele>515.1</ele>
        <time>2017-01-07T12:57:55Z</time>
      </trkpt>
      <trkpt lat="44.05943" lon="5.9605">
        <ele>514.7</ele>
        <time>2017-01-07T12:57:56Z</time>
      </trkpt>
      <trkpt lat="44.05944" lon="5.96044">
        <ele>514.3</ele>
        <time>2017-01-07T12:57:57Z</time>
      </trkpt>
      <trkpt lat="44.05942" lon="5.9604">
        <ele>514.2</ele>
        <time>2017-01-07T12:57:59Z</time>
      </trkpt>
      <trkpt lat="44.0594" lon="5.96039">
        <ele>514.2</ele>
        <time>2017-01-07T12:58:01Z</time>
      </trkpt>
      <trkpt lat="44.05936" lon="5.96041">
        <ele>514.2</ele>
        <time>2017-01-07T12:58:03Z</time>
      </trkpt>
      <trkpt lat="44.05933" lon="5.96043">
        <ele>514.2</ele>
        <time>2017-01-07T12:58:06Z</time>
      </trkpt>
      <trkpt lat="44.0593" lon="5.96041">
        <ele>514.2</ele>
        <time>2017-01-07T12:58:09Z</time>
      </trkpt>
      <trkpt lat="44.05924" lon="5.96036">
        <ele>513.9</ele>
        <time>2017-01-07T12:58:11Z</time>
      </trkpt>
      <trkpt lat="44.0592" lon="5.96033">
        <ele>513.5</ele>
        <time>2017-01-07T12:58:12Z</time>
      </trkpt>
      <trkpt lat="44.05917" lon="5.96029">
        <ele>513.2</ele>
        <time>2017-01-07T12:58:13Z</time>
      </trkpt>
      <trkpt lat="44.05914" lon="5.96023">
        <ele>513</ele>
        <time>2017-01-07T12:58:14Z</time>
      </trkpt>
      <trkpt lat="44.05911" lon="5.96018">
        <ele>512.9</ele>
        <time>2017-01-07T12:58:15Z</time>
      </trkpt>
      <trkpt lat="44.05907" lon="5.96011">
        <ele>512.6</ele>
        <time>2017-01-07T12:58:16Z</time>
      </trkpt>
      <trkpt lat="44.05904" lon="5.96">
        <ele>511.9</ele>
        <time>2017-01-07T12:58:17Z</time>
      </trkpt>
      <trkpt lat="44.05901" lon="5.95987">
        <ele>510.4</ele>
        <time>2017-01-07T12:58:18Z</time>
      </trkpt>
      <trkpt lat="44.05898" lon="5.95976">
        <ele>509.6</ele>
        <time>2017-01-07T12:58:19Z</time>
      </trkpt>
      <trkpt lat="44.05893" lon="5.95967">
        <ele>508.8</ele>
        <time>2017-01-07T12:58:20Z</time>
      </trkpt>
      <trkpt lat="44.05889" lon="5.95958">
        <ele>508.1</ele>
        <time>2017-01-07T12:58:21Z</time>
      </trkpt>
      <trkpt lat="44.05886" lon="5.95953">
        <ele>507.9</ele>
        <time>2017-01-07T12:58:22Z</time>
      </trkpt>
      <trkpt lat="44.05881" lon="5.9595">
        <ele>507.7</ele>
        <time>2017-01-07T12:58:23Z</time>
      </trkpt>
      <trkpt lat="44.05876" lon="5.95948">
        <ele>507.3</ele>
        <time>2017-01-07T12:58:24Z</time>
      </trkpt>
      <trkpt lat="44.0587" lon="5.95945">
        <ele>506.7</ele>
        <time>2017-01-07T12:58:25Z</time>
      </trkpt>
      <trkpt lat="44.05865" lon="5.9594">
        <ele>505.8</ele>
        <time>2017-01-07T12:58:26Z</time>
      </trkpt>
      <trkpt lat="44.05861" lon="5.95935">
        <ele>504.8</ele>
        <time>2017-01-07T12:58:27Z</time>
      </trkpt>
      <trkpt lat="44.05858" lon="5.95928">
        <ele>504.1</ele>
        <time>2017-01-07T12:58:28Z</time>
      </trkpt>
      <trkpt lat="44.05857" lon="5.95922">
        <ele>503.6</ele>
        <time>2017-01-07T12:58:29Z</time>
      </trkpt>
      <trkpt lat="44.05855" lon="5.95914">
        <ele>503.2</ele>
        <time>2017-01-07T12:58:30Z</time>
      </trkpt>
      <trkpt lat="44.05854" lon="5.95907">
        <ele>503.1</ele>
        <time>2017-01-07T12:58:31Z</time>
      </trkpt>
      <trkpt lat="44.05852" lon="5.95901">
        <ele>503.2</ele>
        <time>2017-01-07T12:58:32Z</time>
      </trkpt>
      <trkpt lat="44.0585" lon="5.95895">
        <ele>503.3</ele>
        <time>2017-01-07T12:58:33Z</time>
      </trkpt>
      <trkpt lat="44.05847" lon="5.9589">
        <ele>503.4</ele>
        <time>2017-01-07T12:58:34Z</time>
      </trkpt>
      <trkpt lat="44.05842" lon="5.95886">
        <ele>503.7</ele>
        <time>2017-01-07T12:58:35Z</time>
      </trkpt>
      <trkpt lat="44.05837" lon="5.95884">
        <ele>503.8</ele>
        <time>2017-01-07T12:58:36Z</time>
      </trkpt>
      <trkpt lat="44.05832" lon="5.95883">
        <ele>503.6</ele>
        <time>2017-01-07T12:58:37Z</time>
      </trkpt>
      <trkpt lat="44.05828" lon="5.95882">
        <ele>503.8</ele>
        <time>2017-01-07T12:58:38Z</time>
      </trkpt>
      <trkpt lat="44.05824" lon="5.9588">
        <ele>504.1</ele>
        <time>2017-01-07T12:58:39Z</time>
      </trkpt>
      <trkpt lat="44.05821" lon="5.95878">
        <ele>504.1</ele>
        <time>2017-01-07T12:58:40Z</time>
      </trkpt>
      <trkpt lat="44.05817" lon="5.95874">
        <ele>504</ele>
        <time>2017-01-07T12:58:41Z</time>
      </trkpt>
      <trkpt lat="44.05813" lon="5.9587">
        <ele>504.3</ele>
        <time>2017-01-07T12:58:42Z</time>
      </trkpt>
      <trkpt lat="44.05808" lon="5.95866">
        <ele>504.7</ele>
        <time>2017-01-07T12:58:43Z</time>
      </trkpt>
      <trkpt lat="44.05802" lon="5.95861">
        <ele>505.6</ele>
        <time>2017-01-07T12:58:44Z</time>
      </trkpt>
      <trkpt lat="44.05796" lon="5.95855">
        <ele>505.7</ele>
        <time>2017-01-07T12:58:45Z</time>
      </trkpt>
      <trkpt lat="44.0579" lon="5.95849">
        <ele>505.9</ele>
        <time>2017-01-07T12:58:46Z</time>
      </trkpt>
      <trkpt lat="44.05787" lon="5.95842">
        <ele>505.8</ele>
        <time>2017-01-07T12:58:47Z</time>
      </trkpt>
      <trkpt lat="44.05783" lon="5.95834">
        <ele>504.9</ele>
        <time>2017-01-07T12:58:48Z</time>
      </trkpt>
      <trkpt lat="44.05779" lon="5.95825">
        <ele>505.4</ele>
        <time>2017-01-07T12:58:49Z</time>
      </trkpt>
      <trkpt lat="44.05772" lon="5.95817">
        <ele>504.4</ele>
        <time>2017-01-07T12:58:50Z</time>
      </trkpt>
      <trkpt lat="44.05765" lon="5.9581">
        <ele>504</ele>
        <time>2017-01-07T12:58:51Z</time>
      </trkpt>
      <trkpt lat="44.05757" lon="5.95805">
        <ele>502.6</ele>
        <time>2017-01-07T12:58:52Z</time>
      </trkpt>
      <trkpt lat="44.05751" lon="5.958">
        <ele>501.6</ele>
        <time>2017-01-07T12:58:53Z</time>
      </trkpt>
      <trkpt lat="44.05745" lon="5.95795">
        <ele>500.8</ele>
        <time>2017-01-07T12:58:54Z</time>
      </trkpt>
      <trkpt lat="44.05741" lon="5.95792">
        <ele>500.3</ele>
        <time>2017-01-07T12:58:55Z</time>
      </trkpt>
      <trkpt lat="44.05737" lon="5.9579">
        <ele>499.8</ele>
        <time>2017-01-07T12:58:56Z</time>
      </trkpt>
      <trkpt lat="44.05734" lon="5.95787">
        <ele>499.5</ele>
        <time>2017-01-07T12:58:57Z</time>
      </trkpt>
      <trkpt lat="44.0573" lon="5.95785">
        <ele>499.3</ele>
        <time>2017-01-07T12:58:58Z</time>
      </trkpt>
      <trkpt lat="44.05726" lon="5.95782">
        <ele>499.1</ele>
        <time>2017-01-07T12:58:59Z</time>
      </trkpt>
      <trkpt lat="44.05723" lon="5.95778">
        <ele>499.1</ele>
        <time>2017-01-07T12:59:00Z</time>
      </trkpt>
      <trkpt lat="44.0572" lon="5.95775">
        <ele>499</ele>
        <time>2017-01-07T12:59:01Z</time>
      </trkpt>
      <trkpt lat="44.05717" lon="5.95773">
        <ele>498.9</ele>
        <time>2017-01-07T12:59:02Z</time>
      </trkpt>
      <trkpt lat="44.05712" lon="5.9577">
        <ele>498.6</ele>
        <time>2017-01-07T12:59:04Z</time>
      </trkpt>
      <trkpt lat="44.05709" lon="5.95768">
        <ele>498.2</ele>
        <time>2017-01-07T12:59:05Z</time>
      </trkpt>
      <trkpt lat="44.05706" lon="5.95765">
        <ele>497.8</ele>
        <time>2017-01-07T12:59:06Z</time>
      </trkpt>
      <trkpt lat="44.05701" lon="5.95762">
        <ele>497.9</ele>
        <time>2017-01-07T12:59:07Z</time>
      </trkpt>
      <trkpt lat="44.05696" lon="5.95758">
        <ele>497.9</ele>
        <time>2017-01-07T12:59:08Z</time>
      </trkpt>
      <trkpt lat="44.05691" lon="5.95754">
        <ele>497.9</ele>
        <time>2017-01-07T12:59:09Z</time>
      </trkpt>
      <trkpt lat="44.05686" lon="5.95748">
        <ele>498.3</ele>
        <time>2017-01-07T12:59:10Z</time>
      </trkpt>
      <trkpt lat="44.05682" lon="5.95742">
        <ele>497.5</ele>
        <time>2017-01-07T12:59:11Z</time>
      </trkpt>
      <trkpt lat="44.05677" lon="5.95734">
        <ele>497.3</ele>
        <time>2017-01-07T12:59:12Z</time>
      </trkpt>
      <trkpt lat="44.05673" lon="5.95723">
        <ele>493.5</ele>
        <time>2017-01-07T12:59:13Z</time>
      </trkpt>
      <trkpt lat="44.05668" lon="5.95711">
        <ele>491</ele>
        <time>2017-01-07T12:59:14Z</time>
      </trkpt>
      <trkpt lat="44.05663" lon="5.95698">
        <ele>488.1</ele>
        <time>2017-01-07T12:59:15Z</time>
      </trkpt>
      <trkpt lat="44.05657" lon="5.95688">
        <ele>487.4</ele>
        <time>2017-01-07T12:59:16Z</time>
      </trkpt>
      <trkpt lat="44.05651" lon="5.9568">
        <ele>486.7</ele>
        <time>2017-01-07T12:59:17Z</time>
      </trkpt>
      <trkpt lat="44.05644" lon="5.95671">
        <ele>487.5</ele>
        <time>2017-01-07T12:59:18Z</time>
      </trkpt>
      <trkpt lat="44.05638" lon="5.95663">
        <ele>486.8</ele>
        <time>2017-01-07T12:59:19Z</time>
      </trkpt>
      <trkpt lat="44.05634" lon="5.95654">
        <ele>486.5</ele>
        <time>2017-01-07T12:59:20Z</time>
      </trkpt>
      <trkpt lat="44.0563" lon="5.95647">
        <ele>485.1</ele>
        <time>2017-01-07T12:59:21Z</time>
      </trkpt>
      <trkpt lat="44.05625" lon="5.95642">
        <ele>486.1</ele>
        <time>2017-01-07T12:59:22Z</time>
      </trkpt>
      <trkpt lat="44.05619" lon="5.95634">
        <ele>486.2</ele>
        <time>2017-01-07T12:59:23Z</time>
      </trkpt>
      <trkpt lat="44.0561" lon="5.95629">
        <ele>488.1</ele>
        <time>2017-01-07T12:59:24Z</time>
      </trkpt>
      <trkpt lat="44.05606" lon="5.95621">
        <ele>486.6</ele>
        <time>2017-01-07T12:59:25Z</time>
      </trkpt>
      <trkpt lat="44.05604" lon="5.95612">
        <ele>485.2</ele>
        <time>2017-01-07T12:59:26Z</time>
      </trkpt>
      <trkpt lat="44.05599" lon="5.95603">
        <ele>483.6</ele>
        <time>2017-01-07T12:59:27Z</time>
      </trkpt>
      <trkpt lat="44.05592" lon="5.95599">
        <ele>483.9</ele>
        <time>2017-01-07T12:59:28Z</time>
      </trkpt>
      <trkpt lat="44.05589" lon="5.95593">
        <ele>483.4</ele>
        <time>2017-01-07T12:59:29Z</time>
      </trkpt>
      <trkpt lat="44.05584" lon="5.95587">
        <ele>482.7</ele>
        <time>2017-01-07T12:59:30Z</time>
      </trkpt>
      <trkpt lat="44.05579" lon="5.95579">
        <ele>483.1</ele>
        <time>2017-01-07T12:59:31Z</time>
      </trkpt>
      <trkpt lat="44.05575" lon="5.95571">
        <ele>481.3</ele>
        <time>2017-01-07T12:59:32Z</time>
      </trkpt>
      <trkpt lat="44.05571" lon="5.95564">
        <ele>479.2</ele>
        <time>2017-01-07T12:59:33Z</time>
      </trkpt>
      <trkpt lat="44.05564" lon="5.9556">
        <ele>479.4</ele>
        <time>2017-01-07T12:59:34Z</time>
      </trkpt>
      <trkpt lat="44.05559" lon="5.95559">
        <ele>480.6</ele>
        <time>2017-01-07T12:59:35Z</time>
      </trkpt>
      <trkpt lat="44.05554" lon="5.95555">
        <ele>480.5</ele>
        <time>2017-01-07T12:59:36Z</time>
      </trkpt>
      <trkpt lat="44.05548" lon="5.95549">
        <ele>479</ele>
        <time>2017-01-07T12:59:37Z</time>
      </trkpt>
      <trkpt lat="44.05545" lon="5.95541">
        <ele>477.8</ele>
        <time>2017-01-07T12:59:38Z</time>
      </trkpt>
      <trkpt lat="44.05541" lon="5.95536">
        <ele>475.1</ele>
        <time>2017-01-07T12:59:39Z</time>
      </trkpt>
      <trkpt lat="44.05537" lon="5.95532">
        <ele>473.9</ele>
        <time>2017-01-07T12:59:40Z</time>
      </trkpt>
      <trkpt lat="44.05536" lon="5.95523">
        <ele>471.5</ele>
        <time>2017-01-07T12:59:41Z</time>
      </trkpt>
      <trkpt lat="44.05532" lon="5.95515">
        <ele>470.4</ele>
        <time>2017-01-07T12:59:42Z</time>
      </trkpt>
      <trkpt lat="44.05528" lon="5.95511">
        <ele>469.2</ele>
        <time>2017-01-07T12:59:43Z</time>
      </trkpt>
      <trkpt lat="44.05523" lon="5.95506">
        <ele>467.3</ele>
        <time>2017-01-07T12:59:44Z</time>
      </trkpt>
      <trkpt lat="44.05519" lon="5.955">
        <ele>466.6</ele>
        <time>2017-01-07T12:59:45Z</time>
      </trkpt>
      <trkpt lat="44.05513" lon="5.95496">
        <ele>466.3</ele>
        <time>2017-01-07T12:59:46Z</time>
      </trkpt>
      <trkpt lat="44.05506" lon="5.95491">
        <ele>466.4</ele>
        <time>2017-01-07T12:59:47Z</time>
      </trkpt>
      <trkpt lat="44.05499" lon="5.95487">
        <ele>466.4</ele>
        <time>2017-01-07T12:59:48Z</time>
      </trkpt>
      <trkpt lat="44.05491" lon="5.95476">
        <ele>466.1</ele>
        <time>2017-01-07T12:59:49Z</time>
      </trkpt>
      <trkpt lat="44.05482" lon="5.95474">
        <ele>467.4</ele>
        <time>2017-01-07T12:59:50Z</time>
      </trkpt>
      <trkpt lat="44.05477" lon="5.95469">
        <ele>467.8</ele>
        <time>2017-01-07T12:59:51Z</time>
      </trkpt>
      <trkpt lat="44.05469" lon="5.95458">
        <ele>465.7</ele>
        <time>2017-01-07T12:59:53Z</time>
      </trkpt>
      <trkpt lat="44.05463" lon="5.95447">
        <ele>464.3</ele>
        <time>2017-01-07T12:59:54Z</time>
      </trkpt>
      <trkpt lat="44.05457" lon="5.95443">
        <ele>464.2</ele>
        <time>2017-01-07T12:59:55Z</time>
      </trkpt>
      <trkpt lat="44.05447" lon="5.95431">
        <ele>462.6</ele>
        <time>2017-01-07T12:59:56Z</time>
      </trkpt>
      <trkpt lat="44.05443" lon="5.95436">
        <ele>464.1</ele>
        <time>2017-01-07T12:59:57Z</time>
      </trkpt>
      <trkpt lat="44.05439" lon="5.95435">
        <ele>464.3</ele>
        <time>2017-01-07T12:59:58Z</time>
      </trkpt>
      <trkpt lat="44.05435" lon="5.95433">
        <ele>464.5</ele>
        <time>2017-01-07T13:00:00Z</time>
      </trkpt>
      <trkpt lat="44.05432" lon="5.95423">
        <ele>461.3</ele>
        <time>2017-01-07T13:00:01Z</time>
      </trkpt>
      <trkpt lat="44.05426" lon="5.95409">
        <ele>458.6</ele>
        <time>2017-01-07T13:00:02Z</time>
      </trkpt>
      <trkpt lat="44.05422" lon="5.95407">
        <ele>457.8</ele>
        <time>2017-01-07T13:00:03Z</time>
      </trkpt>
      <trkpt lat="44.05415" lon="5.95404">
        <ele>458.1</ele>
        <time>2017-01-07T13:00:04Z</time>
      </trkpt>
      <trkpt lat="44.0541" lon="5.954">
        <ele>457.6</ele>
        <time>2017-01-07T13:00:05Z</time>
      </trkpt>
      <trkpt lat="44.05403" lon="5.95392">
        <ele>456.5</ele>
        <time>2017-01-07T13:00:06Z</time>
      </trkpt>
      <trkpt lat="44.05397" lon="5.95383">
        <ele>455.9</ele>
        <time>2017-01-07T13:00:07Z</time>
      </trkpt>
      <trkpt lat="44.05391" lon="5.95379">
        <ele>455.9</ele>
        <time>2017-01-07T13:00:08Z</time>
      </trkpt>
      <trkpt lat="44.05386" lon="5.9537">
        <ele>454.9</ele>
        <time>2017-01-07T13:00:09Z</time>
      </trkpt>
      <trkpt lat="44.05382" lon="5.95369">
        <ele>455.6</ele>
        <time>2017-01-07T13:00:10Z</time>
      </trkpt>
      <trkpt lat="44.05377" lon="5.95368">
        <ele>455.2</ele>
        <time>2017-01-07T13:00:11Z</time>
      </trkpt>
      <trkpt lat="44.05374" lon="5.9537">
        <ele>456.1</ele>
        <time>2017-01-07T13:00:12Z</time>
      </trkpt>
      <trkpt lat="44.05369" lon="5.95371">
        <ele>456.4</ele>
        <time>2017-01-07T13:00:13Z</time>
      </trkpt>
      <trkpt lat="44.05366" lon="5.95373">
        <ele>456.4</ele>
        <time>2017-01-07T13:00:14Z</time>
      </trkpt>
      <trkpt lat="44.05363" lon="5.95373">
        <ele>456.4</ele>
        <time>2017-01-07T13:00:15Z</time>
      </trkpt>
      <trkpt lat="44.05358" lon="5.95373">
        <ele>456.4</ele>
        <time>2017-01-07T13:00:16Z</time>
      </trkpt>
      <trkpt lat="44.05352" lon="5.95372">
        <ele>456.4</ele>
        <time>2017-01-07T13:00:17Z</time>
      </trkpt>
      <trkpt lat="44.05346" lon="5.95371">
        <ele>456.4</ele>
        <time>2017-01-07T13:00:18Z</time>
      </trkpt>
      <trkpt lat="44.0534" lon="5.9537">
        <ele>456.4</ele>
        <time>2017-01-07T13:00:19Z</time>
      </trkpt>
      <trkpt lat="44.0534" lon="5.95377">
        <ele>457</ele>
        <time>2017-01-07T13:00:20Z</time>
      </trkpt>
      <trkpt lat="44.05338" lon="5.95384">
        <ele>458.3</ele>
        <time>2017-01-07T13:00:22Z</time>
      </trkpt>
      <trkpt lat="44.05337" lon="5.95388">
        <ele>458.8</ele>
        <time>2017-01-07T13:00:24Z</time>
      </trkpt>
      <trkpt lat="44.05334" lon="5.9539">
        <ele>459.5</ele>
        <time>2017-01-07T13:00:26Z</time>
      </trkpt>
      <trkpt lat="44.05329" lon="5.95392">
        <ele>459.6</ele>
        <time>2017-01-07T13:00:28Z</time>
      </trkpt>
      <trkpt lat="44.05325" lon="5.95394">
        <ele>459.8</ele>
        <time>2017-01-07T13:00:29Z</time>
      </trkpt>
      <trkpt lat="44.05322" lon="5.95395">
        <ele>460.7</ele>
        <time>2017-01-07T13:00:30Z</time>
      </trkpt>
      <trkpt lat="44.05319" lon="5.95396">
        <ele>461</ele>
        <time>2017-01-07T13:00:31Z</time>
      </trkpt>
      <trkpt lat="44.05316" lon="5.95397">
        <ele>461.2</ele>
        <time>2017-01-07T13:00:32Z</time>
      </trkpt>
      <trkpt lat="44.05313" lon="5.95398">
        <ele>461.5</ele>
        <time>2017-01-07T13:00:33Z</time>
      </trkpt>
      <trkpt lat="44.05308" lon="5.954">
        <ele>462.4</ele>
        <time>2017-01-07T13:00:35Z</time>
      </trkpt>
      <trkpt lat="44.05304" lon="5.95402">
        <ele>462.6</ele>
        <time>2017-01-07T13:00:37Z</time>
      </trkpt>
      <trkpt lat="44.05299" lon="5.95401">
        <ele>462.9</ele>
        <time>2017-01-07T13:00:39Z</time>
      </trkpt>
      <trkpt lat="44.05294" lon="5.95399">
        <ele>463.1</ele>
        <time>2017-01-07T13:00:41Z</time>
      </trkpt>
      <trkpt lat="44.05291" lon="5.95398">
        <ele>463.3</ele>
        <time>2017-01-07T13:00:42Z</time>
      </trkpt>
      <trkpt lat="44.05287" lon="5.95398">
        <ele>463.5</ele>
        <time>2017-01-07T13:00:43Z</time>
      </trkpt>
      <trkpt lat="44.05283" lon="5.95397">
        <ele>463.8</ele>
        <time>2017-01-07T13:00:44Z</time>
      </trkpt>
      <trkpt lat="44.05278" lon="5.95396">
        <ele>464</ele>
        <time>2017-01-07T13:00:45Z</time>
      </trkpt>
      <trkpt lat="44.05274" lon="5.95394">
        <ele>464.2</ele>
        <time>2017-01-07T13:00:46Z</time>
      </trkpt>
      <trkpt lat="44.0527" lon="5.95393">
        <ele>464.5</ele>
        <time>2017-01-07T13:00:47Z</time>
      </trkpt>
      <trkpt lat="44.05266" lon="5.95392">
        <ele>464.7</ele>
        <time>2017-01-07T13:00:48Z</time>
      </trkpt>
      <trkpt lat="44.05262" lon="5.9539">
        <ele>464.9</ele>
        <time>2017-01-07T13:00:49Z</time>
      </trkpt>
      <trkpt lat="44.05258" lon="5.95389">
        <ele>464.6</ele>
        <time>2017-01-07T13:00:50Z</time>
      </trkpt>
      <trkpt lat="44.05252" lon="5.95388">
        <ele>464</ele>
        <time>2017-01-07T13:00:51Z</time>
      </trkpt>
      <trkpt lat="44.05247" lon="5.95387">
        <ele>463.4</ele>
        <time>2017-01-07T13:00:52Z</time>
      </trkpt>
      <trkpt lat="44.05242" lon="5.95385">
        <ele>462.4</ele>
        <time>2017-01-07T13:00:53Z</time>
      </trkpt>
      <trkpt lat="44.05238" lon="5.95381">
        <ele>461.5</ele>
        <time>2017-01-07T13:00:54Z</time>
      </trkpt>
      <trkpt lat="44.05233" lon="5.95377">
        <ele>461.1</ele>
        <time>2017-01-07T13:00:55Z</time>
      </trkpt>
      <trkpt lat="44.05229" lon="5.95373">
        <ele>460.3</ele>
        <time>2017-01-07T13:00:56Z</time>
      </trkpt>
      <trkpt lat="44.05225" lon="5.95368">
        <ele>459.4</ele>
        <time>2017-01-07T13:00:57Z</time>
      </trkpt>
      <trkpt lat="44.0522" lon="5.95364">
        <ele>458.9</ele>
        <time>2017-01-07T13:00:58Z</time>
      </trkpt>
      <trkpt lat="44.05216" lon="5.9536">
        <ele>458.7</ele>
        <time>2017-01-07T13:00:59Z</time>
      </trkpt>
      <trkpt lat="44.05212" lon="5.95357">
        <ele>458.5</ele>
        <time>2017-01-07T13:01:00Z</time>
      </trkpt>
      <trkpt lat="44.05207" lon="5.95355">
        <ele>458.2</ele>
        <time>2017-01-07T13:01:01Z</time>
      </trkpt>
      <trkpt lat="44.05202" lon="5.95354">
        <ele>457.9</ele>
        <time>2017-01-07T13:01:02Z</time>
      </trkpt>
      <trkpt lat="44.05196" lon="5.95352">
        <ele>457.6</ele>
        <time>2017-01-07T13:01:03Z</time>
      </trkpt>
      <trkpt lat="44.0519" lon="5.95349">
        <ele>457.5</ele>
        <time>2017-01-07T13:01:04Z</time>
      </trkpt>
      <trkpt lat="44.05184" lon="5.95347">
        <ele>457</ele>
        <time>2017-01-07T13:01:05Z</time>
      </trkpt>
      <trkpt lat="44.05178" lon="5.95345">
        <ele>456.1</ele>
        <time>2017-01-07T13:01:06Z</time>
      </trkpt>
      <trkpt lat="44.05171" lon="5.95344">
        <ele>455.2</ele>
        <time>2017-01-07T13:01:07Z</time>
      </trkpt>
      <trkpt lat="44.05165" lon="5.95343">
        <ele>454.3</ele>
        <time>2017-01-07T13:01:08Z</time>
      </trkpt>
      <trkpt lat="44.0516" lon="5.95342">
        <ele>453.2</ele>
        <time>2017-01-07T13:01:09Z</time>
      </trkpt>
      <trkpt lat="44.05156" lon="5.95341">
        <ele>452.1</ele>
        <time>2017-01-07T13:01:11Z</time>
      </trkpt>
      <trkpt lat="44.05152" lon="5.95336">
        <ele>450.8</ele>
        <time>2017-01-07T13:01:13Z</time>
      </trkpt>
      <trkpt lat="44.0515" lon="5.95331">
        <ele>449.9</ele>
        <time>2017-01-07T13:01:14Z</time>
      </trkpt>
      <trkpt lat="44.05146" lon="5.95321">
        <ele>448.1</ele>
        <time>2017-01-07T13:01:15Z</time>
      </trkpt>
      <trkpt lat="44.05143" lon="5.9531">
        <ele>446.8</ele>
        <time>2017-01-07T13:01:16Z</time>
      </trkpt>
      <trkpt lat="44.05139" lon="5.95299">
        <ele>444.9</ele>
        <time>2017-01-07T13:01:17Z</time>
      </trkpt>
      <trkpt lat="44.05133" lon="5.95285">
        <ele>443.1</ele>
        <time>2017-01-07T13:01:18Z</time>
      </trkpt>
      <trkpt lat="44.0512" lon="5.95269">
        <ele>441</ele>
        <time>2017-01-07T13:01:19Z</time>
      </trkpt>
      <trkpt lat="44.05114" lon="5.95257">
        <ele>439.9</ele>
        <time>2017-01-07T13:01:20Z</time>
      </trkpt>
      <trkpt lat="44.05108" lon="5.95243">
        <ele>439</ele>
        <time>2017-01-07T13:01:21Z</time>
      </trkpt>
      <trkpt lat="44.051" lon="5.95229">
        <ele>438.1</ele>
        <time>2017-01-07T13:01:22Z</time>
      </trkpt>
      <trkpt lat="44.05094" lon="5.95216">
        <ele>437</ele>
        <time>2017-01-07T13:01:23Z</time>
      </trkpt>
      <trkpt lat="44.05087" lon="5.95202">
        <ele>435.8</ele>
        <time>2017-01-07T13:01:24Z</time>
      </trkpt>
      <trkpt lat="44.05081" lon="5.95192">
        <ele>435</ele>
        <time>2017-01-07T13:01:25Z</time>
      </trkpt>
      <trkpt lat="44.05073" lon="5.95188">
        <ele>434.7</ele>
        <time>2017-01-07T13:01:26Z</time>
      </trkpt>
      <trkpt lat="44.05067" lon="5.95179">
        <ele>434.4</ele>
        <time>2017-01-07T13:01:27Z</time>
      </trkpt>
      <trkpt lat="44.05062" lon="5.95169">
        <ele>433.9</ele>
        <time>2017-01-07T13:01:28Z</time>
      </trkpt>
      <trkpt lat="44.05057" lon="5.95162">
        <ele>433.7</ele>
        <time>2017-01-07T13:01:29Z</time>
      </trkpt>
      <trkpt lat="44.05057" lon="5.95158">
        <ele>433.6</ele>
        <time>2017-01-07T13:01:35Z</time>
      </trkpt>
      <trkpt lat="44.05054" lon="5.95159">
        <ele>433.6</ele>
        <time>2017-01-07T13:01:46Z</time>
      </trkpt>
      <trkpt lat="44.05056" lon="5.95155">
        <ele>433.5</ele>
        <time>2017-01-07T13:01:50Z</time>
      </trkpt>
      <trkpt lat="44.0505" lon="5.95164">
        <ele>433.8</ele>
        <time>2017-01-07T13:08:52Z</time>
      </trkpt>
      <trkpt lat="44.05048" lon="5.95165">
        <ele>434</ele>
        <time>2017-01-07T13:08:53Z</time>
      </trkpt>
      <trkpt lat="44.05044" lon="5.95162">
        <ele>434.2</ele>
        <time>2017-01-07T13:08:55Z</time>
      </trkpt>
      <trkpt lat="44.05042" lon="5.95158">
        <ele>434.3</ele>
        <time>2017-01-07T13:08:56Z</time>
      </trkpt>
      <trkpt lat="44.05039" lon="5.95155">
        <ele>434.5</ele>
        <time>2017-01-07T13:08:57Z</time>
      </trkpt>
      <trkpt lat="44.05037" lon="5.95151">
        <ele>434.6</ele>
        <time>2017-01-07T13:08:58Z</time>
      </trkpt>
      <trkpt lat="44.05034" lon="5.95148">
        <ele>434.9</ele>
        <time>2017-01-07T13:08:59Z</time>
      </trkpt>
      <trkpt lat="44.05031" lon="5.95145">
        <ele>435</ele>
        <time>2017-01-07T13:09:00Z</time>
      </trkpt>
      <trkpt lat="44.05028" lon="5.95143">
        <ele>435.1</ele>
        <time>2017-01-07T13:09:01Z</time>
      </trkpt>
      <trkpt lat="44.05025" lon="5.95142">
        <ele>435.2</ele>
        <time>2017-01-07T13:09:02Z</time>
      </trkpt>
      <trkpt lat="44.0502" lon="5.95142">
        <ele>435.1</ele>
        <time>2017-01-07T13:09:04Z</time>
      </trkpt>
      <trkpt lat="44.05017" lon="5.95142">
        <ele>435.2</ele>
        <time>2017-01-07T13:09:06Z</time>
      </trkpt>
      <trkpt lat="44.05014" lon="5.95143">
        <ele>435.3</ele>
        <time>2017-01-07T13:09:08Z</time>
      </trkpt>
      <trkpt lat="44.05012" lon="5.95143">
        <ele>435.4</ele>
        <time>2017-01-07T13:09:10Z</time>
      </trkpt>
      <trkpt lat="44.05009" lon="5.95145">
        <ele>435.5</ele>
        <time>2017-01-07T13:09:12Z</time>
      </trkpt>
      <trkpt lat="44.05005" lon="5.95146">
        <ele>435.6</ele>
        <time>2017-01-07T13:09:14Z</time>
      </trkpt>
      <trkpt lat="44.05001" lon="5.95147">
        <ele>435.7</ele>
        <time>2017-01-07T13:09:16Z</time>
      </trkpt>
      <trkpt lat="44.04998" lon="5.95148">
        <ele>435.7</ele>
        <time>2017-01-07T13:09:18Z</time>
      </trkpt>
      <trkpt lat="44.04994" lon="5.9515">
        <ele>435.8</ele>
        <time>2017-01-07T13:09:20Z</time>
      </trkpt>
      <trkpt lat="44.04991" lon="5.95148">
        <ele>435.9</ele>
        <time>2017-01-07T13:09:22Z</time>
      </trkpt>
      <trkpt lat="44.04998" lon="5.95153">
        <ele>435.7</ele>
        <time>2017-01-07T13:10:49Z</time>
      </trkpt>
      <trkpt lat="44.05002" lon="5.95149">
        <ele>435.6</ele>
        <time>2017-01-07T13:10:51Z</time>
      </trkpt>
      <trkpt lat="44.05004" lon="5.95147">
        <ele>435.5</ele>
        <time>2017-01-07T13:10:52Z</time>
      </trkpt>
      <trkpt lat="44.05007" lon="5.95144">
        <ele>435.5</ele>
        <time>2017-01-07T13:10:53Z</time>
      </trkpt>
      <trkpt lat="44.05009" lon="5.95141">
        <ele>435.4</ele>
        <time>2017-01-07T13:10:54Z</time>
      </trkpt>
      <trkpt lat="44.05011" lon="5.95139">
        <ele>435.3</ele>
        <time>2017-01-07T13:10:55Z</time>
      </trkpt>
      <trkpt lat="44.05013" lon="5.95136">
        <ele>435.2</ele>
        <time>2017-01-07T13:10:56Z</time>
      </trkpt>
      <trkpt lat="44.05017" lon="5.9513">
        <ele>435.1</ele>
        <time>2017-01-07T13:10:58Z</time>
      </trkpt>
      <trkpt lat="44.05019" lon="5.95127">
        <ele>435</ele>
        <time>2017-01-07T13:10:59Z</time>
      </trkpt>
      <trkpt lat="44.05021" lon="5.95125">
        <ele>434.9</ele>
        <time>2017-01-07T13:11:00Z</time>
      </trkpt>
      <trkpt lat="44.05024" lon="5.95122">
        <ele>434.8</ele>
        <time>2017-01-07T13:11:01Z</time>
      </trkpt>
      <trkpt lat="44.05026" lon="5.9512">
        <ele>434.7</ele>
        <time>2017-01-07T13:11:02Z</time>
      </trkpt>
      <trkpt lat="44.0503" lon="5.95116">
        <ele>434.6</ele>
        <time>2017-01-07T13:11:03Z</time>
      </trkpt>
      <trkpt lat="44.05036" lon="5.95112">
        <ele>434.4</ele>
        <time>2017-01-07T13:11:04Z</time>
      </trkpt>
      <trkpt lat="44.05044" lon="5.95101">
        <ele>434.1</ele>
        <time>2017-01-07T13:11:05Z</time>
      </trkpt>
      <trkpt lat="44.05049" lon="5.95098">
        <ele>434</ele>
        <time>2017-01-07T13:11:06Z</time>
      </trkpt>
      <trkpt lat="44.05051" lon="5.95095">
        <ele>434</ele>
        <time>2017-01-07T13:11:07Z</time>
      </trkpt>
      <trkpt lat="44.05057" lon="5.95093">
        <ele>434</ele>
        <time>2017-01-07T13:11:09Z</time>
      </trkpt>
      <trkpt lat="44.05059" lon="5.95091">
        <ele>434</ele>
        <time>2017-01-07T13:11:10Z</time>
      </trkpt>
      <trkpt lat="44.05063" lon="5.95089">
        <ele>434</ele>
        <time>2017-01-07T13:11:12Z</time>
      </trkpt>
      <trkpt lat="44.05067" lon="5.95088">
        <ele>434</ele>
        <time>2017-01-07T13:11:14Z</time>
      </trkpt>
      <trkpt lat="44.05071" lon="5.95085">
        <ele>434</ele>
        <time>2017-01-07T13:11:16Z</time>
      </trkpt>
      <trkpt lat="44.05076" lon="5.95082">
        <ele>434</ele>
        <time>2017-01-07T13:11:18Z</time>
      </trkpt>
      <trkpt lat="44.05078" lon="5.95081">
        <ele>434</ele>
        <time>2017-01-07T13:11:19Z</time>
      </trkpt>
      <trkpt lat="44.05081" lon="5.9508">
        <ele>434</ele>
        <time>2017-01-07T13:11:20Z</time>
      </trkpt>
      <trkpt lat="44.05084" lon="5.95078">
        <ele>434.1</ele>
        <time>2017-01-07T13:11:21Z</time>
      </trkpt>
      <trkpt lat="44.05086" lon="5.95077">
        <ele>434.1</ele>
        <time>2017-01-07T13:11:22Z</time>
      </trkpt>
      <trkpt lat="44.05091" lon="5.95075">
        <ele>434.1</ele>
        <time>2017-01-07T13:11:24Z</time>
      </trkpt>
      <trkpt lat="44.05094" lon="5.95074">
        <ele>434.1</ele>
        <time>2017-01-07T13:11:25Z</time>
      </trkpt>
      <trkpt lat="44.05097" lon="5.95073">
        <ele>434.1</ele>
        <time>2017-01-07T13:11:26Z</time>
      </trkpt>
      <trkpt lat="44.05099" lon="5.95072">
        <ele>434.1</ele>
        <time>2017-01-07T13:11:27Z</time>
      </trkpt>
      <trkpt lat="44.05102" lon="5.9507">
        <ele>434.1</ele>
        <time>2017-01-07T13:11:28Z</time>
      </trkpt>
      <trkpt lat="44.05105" lon="5.95069">
        <ele>434.1</ele>
        <time>2017-01-07T13:11:29Z</time>
      </trkpt>
      <trkpt lat="44.05107" lon="5.95068">
        <ele>434.1</ele>
        <time>2017-01-07T13:11:30Z</time>
      </trkpt>
      <trkpt lat="44.0511" lon="5.95067">
        <ele>434.1</ele>
        <time>2017-01-07T13:11:31Z</time>
      </trkpt>
      <trkpt lat="44.05113" lon="5.95066">
        <ele>434.1</ele>
        <time>2017-01-07T13:11:32Z</time>
      </trkpt>
      <trkpt lat="44.05118" lon="5.95063">
        <ele>434.1</ele>
        <time>2017-01-07T13:11:34Z</time>
      </trkpt>
      <trkpt lat="44.0512" lon="5.95062">
        <ele>434.2</ele>
        <time>2017-01-07T13:11:35Z</time>
      </trkpt>
      <trkpt lat="44.05125" lon="5.95059">
        <ele>434.2</ele>
        <time>2017-01-07T13:11:37Z</time>
      </trkpt>
      <trkpt lat="44.05128" lon="5.95058">
        <ele>434.2</ele>
        <time>2017-01-07T13:11:38Z</time>
      </trkpt>
      <trkpt lat="44.05131" lon="5.95056">
        <ele>434.3</ele>
        <time>2017-01-07T13:11:39Z</time>
      </trkpt>
      <trkpt lat="44.05133" lon="5.95054">
        <ele>434.3</ele>
        <time>2017-01-07T13:11:40Z</time>
      </trkpt>
      <trkpt lat="44.05136" lon="5.95052">
        <ele>434.3</ele>
        <time>2017-01-07T13:11:41Z</time>
      </trkpt>
      <trkpt lat="44.05139" lon="5.95051">
        <ele>434.3</ele>
        <time>2017-01-07T13:11:42Z</time>
      </trkpt>
      <trkpt lat="44.05142" lon="5.95049">
        <ele>434.4</ele>
        <time>2017-01-07T13:11:43Z</time>
      </trkpt>
      <trkpt lat="44.05145" lon="5.95048">
        <ele>434.4</ele>
        <time>2017-01-07T13:11:44Z</time>
      </trkpt>
      <trkpt lat="44.05148" lon="5.95046">
        <ele>434.4</ele>
        <time>2017-01-07T13:11:45Z</time>
      </trkpt>
      <trkpt lat="44.05151" lon="5.95045">
        <ele>434.5</ele>
        <time>2017-01-07T13:11:46Z</time>
      </trkpt>
      <trkpt lat="44.05154" lon="5.95043">
        <ele>434.5</ele>
        <time>2017-01-07T13:11:47Z</time>
      </trkpt>
      <trkpt lat="44.05156" lon="5.95041">
        <ele>434.5</ele>
        <time>2017-01-07T13:11:48Z</time>
      </trkpt>
      <trkpt lat="44.05159" lon="5.9504">
        <ele>434.6</ele>
        <time>2017-01-07T13:11:49Z</time>
      </trkpt>
      <trkpt lat="44.05162" lon="5.95038">
        <ele>434.7</ele>
        <time>2017-01-07T13:11:50Z</time>
      </trkpt>
      <trkpt lat="44.05165" lon="5.95036">
        <ele>434.8</ele>
        <time>2017-01-07T13:11:51Z</time>
      </trkpt>
      <trkpt lat="44.05168" lon="5.95034">
        <ele>435</ele>
        <time>2017-01-07T13:11:52Z</time>
      </trkpt>
      <trkpt lat="44.05172" lon="5.95033">
        <ele>435.1</ele>
        <time>2017-01-07T13:11:53Z</time>
      </trkpt>
      <trkpt lat="44.05175" lon="5.95032">
        <ele>435.2</ele>
        <time>2017-01-07T13:11:54Z</time>
      </trkpt>
      <trkpt lat="44.05178" lon="5.9503">
        <ele>435.4</ele>
        <time>2017-01-07T13:11:55Z</time>
      </trkpt>
      <trkpt lat="44.05181" lon="5.95028">
        <ele>435.5</ele>
        <time>2017-01-07T13:11:56Z</time>
      </trkpt>
      <trkpt lat="44.05184" lon="5.95027">
        <ele>435.6</ele>
        <time>2017-01-07T13:11:57Z</time>
      </trkpt>
      <trkpt lat="44.05186" lon="5.95025">
        <ele>435.7</ele>
        <time>2017-01-07T13:11:58Z</time>
      </trkpt>
      <trkpt lat="44.05189" lon="5.95023">
        <ele>435.8</ele>
        <time>2017-01-07T13:11:59Z</time>
      </trkpt>
      <trkpt lat="44.05192" lon="5.95021">
        <ele>435.9</ele>
        <time>2017-01-07T13:12:00Z</time>
      </trkpt>
      <trkpt lat="44.05194" lon="5.9502">
        <ele>436</ele>
        <time>2017-01-07T13:12:01Z</time>
      </trkpt>
      <trkpt lat="44.05197" lon="5.95019">
        <ele>436.1</ele>
        <time>2017-01-07T13:12:02Z</time>
      </trkpt>
      <trkpt lat="44.05199" lon="5.95017">
        <ele>436.2</ele>
        <time>2017-01-07T13:12:03Z</time>
      </trkpt>
      <trkpt lat="44.05202" lon="5.95016">
        <ele>436.2</ele>
        <time>2017-01-07T13:12:04Z</time>
      </trkpt>
      <trkpt lat="44.05205" lon="5.95014">
        <ele>436.3</ele>
        <time>2017-01-07T13:12:05Z</time>
      </trkpt>
      <trkpt lat="44.05207" lon="5.95013">
        <ele>436.4</ele>
        <time>2017-01-07T13:12:06Z</time>
      </trkpt>
      <trkpt lat="44.0521" lon="5.95012">
        <ele>436.5</ele>
        <time>2017-01-07T13:12:07Z</time>
      </trkpt>
      <trkpt lat="44.05213" lon="5.95011">
        <ele>436.6</ele>
        <time>2017-01-07T13:12:08Z</time>
      </trkpt>
      <trkpt lat="44.05216" lon="5.9501">
        <ele>436.7</ele>
        <time>2017-01-07T13:12:09Z</time>
      </trkpt>
      <trkpt lat="44.05219" lon="5.95009">
        <ele>436.8</ele>
        <time>2017-01-07T13:12:10Z</time>
      </trkpt>
      <trkpt lat="44.05222" lon="5.95008">
        <ele>436.9</ele>
        <time>2017-01-07T13:12:11Z</time>
      </trkpt>
      <trkpt lat="44.05225" lon="5.95006">
        <ele>437</ele>
        <time>2017-01-07T13:12:12Z</time>
      </trkpt>
      <trkpt lat="44.05227" lon="5.95005">
        <ele>437.1</ele>
        <time>2017-01-07T13:12:13Z</time>
      </trkpt>
      <trkpt lat="44.0523" lon="5.95004">
        <ele>437.2</ele>
        <time>2017-01-07T13:12:14Z</time>
      </trkpt>
      <trkpt lat="44.05233" lon="5.95003">
        <ele>437.3</ele>
        <time>2017-01-07T13:12:15Z</time>
      </trkpt>
      <trkpt lat="44.05236" lon="5.95002">
        <ele>437.4</ele>
        <time>2017-01-07T13:12:16Z</time>
      </trkpt>
      <trkpt lat="44.05239" lon="5.95">
        <ele>437.5</ele>
        <time>2017-01-07T13:12:17Z</time>
      </trkpt>
      <trkpt lat="44.05242" lon="5.94999">
        <ele>437.6</ele>
        <time>2017-01-07T13:12:18Z</time>
      </trkpt>
      <trkpt lat="44.05244" lon="5.94997">
        <ele>437.7</ele>
        <time>2017-01-07T13:12:19Z</time>
      </trkpt>
      <trkpt lat="44.05249" lon="5.94995">
        <ele>437.8</ele>
        <time>2017-01-07T13:12:21Z</time>
      </trkpt>
      <trkpt lat="44.05254" lon="5.94994">
        <ele>437.9</ele>
        <time>2017-01-07T13:12:23Z</time>
      </trkpt>
      <trkpt lat="44.05257" lon="5.94993">
        <ele>437.9</ele>
        <time>2017-01-07T13:12:24Z</time>
      </trkpt>
      <trkpt lat="44.0526" lon="5.94992">
        <ele>438</ele>
        <time>2017-01-07T13:12:25Z</time>
      </trkpt>
      <trkpt lat="44.05265" lon="5.94991">
        <ele>438.1</ele>
        <time>2017-01-07T13:12:27Z</time>
      </trkpt>
      <trkpt lat="44.0527" lon="5.9499">
        <ele>438.2</ele>
        <time>2017-01-07T13:12:29Z</time>
      </trkpt>
      <trkpt lat="44.05275" lon="5.94989">
        <ele>438.3</ele>
        <time>2017-01-07T13:12:31Z</time>
      </trkpt>
      <trkpt lat="44.05278" lon="5.94988">
        <ele>438.4</ele>
        <time>2017-01-07T13:12:32Z</time>
      </trkpt>
      <trkpt lat="44.05281" lon="5.94987">
        <ele>438.5</ele>
        <time>2017-01-07T13:12:33Z</time>
      </trkpt>
      <trkpt lat="44.05283" lon="5.94986">
        <ele>438.6</ele>
        <time>2017-01-07T13:12:34Z</time>
      </trkpt>
      <trkpt lat="44.05286" lon="5.94985">
        <ele>438.6</ele>
        <time>2017-01-07T13:12:35Z</time>
      </trkpt>
      <trkpt lat="44.05291" lon="5.94984">
        <ele>438.8</ele>
        <time>2017-01-07T13:12:37Z</time>
      </trkpt>
      <trkpt lat="44.05296" lon="5.94982">
        <ele>439</ele>
        <time>2017-01-07T13:12:39Z</time>
      </trkpt>
      <trkpt lat="44.05301" lon="5.9498">
        <ele>439.1</ele>
        <time>2017-01-07T13:12:41Z</time>
      </trkpt>
      <trkpt lat="44.05305" lon="5.94979">
        <ele>439.2</ele>
        <time>2017-01-07T13:12:43Z</time>
      </trkpt>
      <trkpt lat="44.0531" lon="5.94978">
        <ele>439.3</ele>
        <time>2017-01-07T13:12:45Z</time>
      </trkpt>
      <trkpt lat="44.05314" lon="5.94977">
        <ele>439.4</ele>
        <time>2017-01-07T13:12:47Z</time>
      </trkpt>
      <trkpt lat="44.05319" lon="5.94976">
        <ele>439.5</ele>
        <time>2017-01-07T13:12:49Z</time>
      </trkpt>
      <trkpt lat="44.05324" lon="5.94974">
        <ele>439.5</ele>
        <time>2017-01-07T13:12:51Z</time>
      </trkpt>
      <trkpt lat="44.05328" lon="5.94973">
        <ele>439.6</ele>
        <time>2017-01-07T13:12:53Z</time>
      </trkpt>
      <trkpt lat="44.05333" lon="5.94972">
        <ele>439.6</ele>
        <time>2017-01-07T13:12:55Z</time>
      </trkpt>
      <trkpt lat="44.05338" lon="5.9497">
        <ele>439.7</ele>
        <time>2017-01-07T13:12:57Z</time>
      </trkpt>
      <trkpt lat="44.05343" lon="5.94968">
        <ele>439.7</ele>
        <time>2017-01-07T13:12:59Z</time>
      </trkpt>
      <trkpt lat="44.05348" lon="5.94966">
        <ele>439.8</ele>
        <time>2017-01-07T13:13:01Z</time>
      </trkpt>
      <trkpt lat="44.05353" lon="5.94964">
        <ele>439.9</ele>
        <time>2017-01-07T13:13:03Z</time>
      </trkpt>
      <trkpt lat="44.05358" lon="5.94961">
        <ele>440</ele>
        <time>2017-01-07T13:13:05Z</time>
      </trkpt>
      <trkpt lat="44.05362" lon="5.94958">
        <ele>441</ele>
        <time>2017-01-07T13:13:07Z</time>
      </trkpt>
      <trkpt lat="44.05367" lon="5.94955">
        <ele>442.5</ele>
        <time>2017-01-07T13:13:09Z</time>
      </trkpt>
      <trkpt lat="44.0537" lon="5.94953">
        <ele>443.3</ele>
        <time>2017-01-07T13:13:10Z</time>
      </trkpt>
      <trkpt lat="44.05375" lon="5.9495">
        <ele>444.7</ele>
        <time>2017-01-07T13:13:12Z</time>
      </trkpt>
      <trkpt lat="44.05377" lon="5.94948">
        <ele>445.5</ele>
        <time>2017-01-07T13:13:13Z</time>
      </trkpt>
      <trkpt lat="44.0538" lon="5.94946">
        <ele>446.4</ele>
        <time>2017-01-07T13:13:14Z</time>
      </trkpt>
      <trkpt lat="44.05382" lon="5.94943">
        <ele>447.3</ele>
        <time>2017-01-07T13:13:15Z</time>
      </trkpt>
      <trkpt lat="44.05385" lon="5.94941">
        <ele>448</ele>
        <time>2017-01-07T13:13:16Z</time>
      </trkpt>
      <trkpt lat="44.05388" lon="5.94939">
        <ele>448.9</ele>
        <time>2017-01-07T13:13:17Z</time>
      </trkpt>
      <trkpt lat="44.0539" lon="5.94938">
        <ele>449.7</ele>
        <time>2017-01-07T13:13:18Z</time>
      </trkpt>
      <trkpt lat="44.05393" lon="5.94936">
        <ele>450.5</ele>
        <time>2017-01-07T13:13:19Z</time>
      </trkpt>
      <trkpt lat="44.05396" lon="5.94934">
        <ele>451.4</ele>
        <time>2017-01-07T13:13:20Z</time>
      </trkpt>
      <trkpt lat="44.05398" lon="5.94932">
        <ele>452.3</ele>
        <time>2017-01-07T13:13:21Z</time>
      </trkpt>
      <trkpt lat="44.05403" lon="5.94929">
        <ele>453.7</ele>
        <time>2017-01-07T13:13:23Z</time>
      </trkpt>
      <trkpt lat="44.05406" lon="5.94928">
        <ele>454.5</ele>
        <time>2017-01-07T13:13:24Z</time>
      </trkpt>
      <trkpt lat="44.05408" lon="5.94927">
        <ele>455.3</ele>
        <time>2017-01-07T13:13:25Z</time>
      </trkpt>
      <trkpt lat="44.05411" lon="5.94926">
        <ele>456.2</ele>
        <time>2017-01-07T13:13:26Z</time>
      </trkpt>
      <trkpt lat="44.05414" lon="5.94926">
        <ele>457.1</ele>
        <time>2017-01-07T13:13:27Z</time>
      </trkpt>
      <trkpt lat="44.05418" lon="5.94929">
        <ele>458.2</ele>
        <time>2017-01-07T13:13:28Z</time>
      </trkpt>
      <trkpt lat="44.05421" lon="5.9493">
        <ele>458.3</ele>
        <time>2017-01-07T13:13:29Z</time>
      </trkpt>
      <trkpt lat="44.05425" lon="5.94928">
        <ele>458.4</ele>
        <time>2017-01-07T13:13:30Z</time>
      </trkpt>
      <trkpt lat="44.05428" lon="5.94925">
        <ele>458.6</ele>
        <time>2017-01-07T13:13:31Z</time>
      </trkpt>
      <trkpt lat="44.05432" lon="5.94924">
        <ele>458.7</ele>
        <time>2017-01-07T13:13:32Z</time>
      </trkpt>
      <trkpt lat="44.05435" lon="5.94924">
        <ele>458.9</ele>
        <time>2017-01-07T13:13:33Z</time>
      </trkpt>
      <trkpt lat="44.05439" lon="5.94924">
        <ele>459</ele>
        <time>2017-01-07T13:13:34Z</time>
      </trkpt>
      <trkpt lat="44.05442" lon="5.94923">
        <ele>459.1</ele>
        <time>2017-01-07T13:13:35Z</time>
      </trkpt>
      <trkpt lat="44.05444" lon="5.94922">
        <ele>459.2</ele>
        <time>2017-01-07T13:13:36Z</time>
      </trkpt>
      <trkpt lat="44.05447" lon="5.9492">
        <ele>459.3</ele>
        <time>2017-01-07T13:13:37Z</time>
      </trkpt>
      <trkpt lat="44.0545" lon="5.94917">
        <ele>459.4</ele>
        <time>2017-01-07T13:13:38Z</time>
      </trkpt>
      <trkpt lat="44.05454" lon="5.94915">
        <ele>459.5</ele>
        <time>2017-01-07T13:13:39Z</time>
      </trkpt>
      <trkpt lat="44.05458" lon="5.94911">
        <ele>459.7</ele>
        <time>2017-01-07T13:13:40Z</time>
      </trkpt>
      <trkpt lat="44.05462" lon="5.94907">
        <ele>459.8</ele>
        <time>2017-01-07T13:13:41Z</time>
      </trkpt>
      <trkpt lat="44.05466" lon="5.94899">
        <ele>460</ele>
        <time>2017-01-07T13:13:42Z</time>
      </trkpt>
      <trkpt lat="44.05471" lon="5.94895">
        <ele>460.2</ele>
        <time>2017-01-07T13:13:43Z</time>
      </trkpt>
      <trkpt lat="44.05476" lon="5.94893">
        <ele>460.3</ele>
        <time>2017-01-07T13:13:44Z</time>
      </trkpt>
      <trkpt lat="44.05481" lon="5.94888">
        <ele>460.6</ele>
        <time>2017-01-07T13:13:45Z</time>
      </trkpt>
      <trkpt lat="44.05485" lon="5.94883">
        <ele>461</ele>
        <time>2017-01-07T13:13:46Z</time>
      </trkpt>
      <trkpt lat="44.05492" lon="5.94885">
        <ele>461</ele>
        <time>2017-01-07T13:13:47Z</time>
      </trkpt>
      <trkpt lat="44.05496" lon="5.94887">
        <ele>461</ele>
        <time>2017-01-07T13:13:48Z</time>
      </trkpt>
      <trkpt lat="44.05501" lon="5.94889">
        <ele>461</ele>
        <time>2017-01-07T13:13:49Z</time>
      </trkpt>
      <trkpt lat="44.05497" lon="5.94896">
        <ele>461</ele>
        <time>2017-01-07T13:13:50Z</time>
      </trkpt>
      <trkpt lat="44.05493" lon="5.94902">
        <ele>461</ele>
        <time>2017-01-07T13:13:51Z</time>
      </trkpt>
      <trkpt lat="44.05488" lon="5.94908">
        <ele>458.1</ele>
        <time>2017-01-07T13:13:52Z</time>
      </trkpt>
      <trkpt lat="44.05485" lon="5.94912">
        <ele>456.1</ele>
        <time>2017-01-07T13:13:53Z</time>
      </trkpt>
      <trkpt lat="44.05481" lon="5.94916">
        <ele>453.5</ele>
        <time>2017-01-07T13:13:54Z</time>
      </trkpt>
      <trkpt lat="44.05479" lon="5.9492">
        <ele>452</ele>
        <time>2017-01-07T13:13:55Z</time>
      </trkpt>
      <trkpt lat="44.05476" lon="5.94924">
        <ele>450.2</ele>
        <time>2017-01-07T13:13:56Z</time>
      </trkpt>
      <trkpt lat="44.05474" lon="5.94929">
        <ele>448.2</ele>
        <time>2017-01-07T13:13:57Z</time>
      </trkpt>
      <trkpt lat="44.05472" lon="5.94936">
        <ele>445.4</ele>
        <time>2017-01-07T13:13:59Z</time>
      </trkpt>
      <trkpt lat="44.05472" lon="5.94941">
        <ele>444</ele>
        <time>2017-01-07T13:14:00Z</time>
      </trkpt>
      <trkpt lat="44.05471" lon="5.94944">
        <ele>442.7</ele>
        <time>2017-01-07T13:14:01Z</time>
      </trkpt>
      <trkpt lat="44.05471" lon="5.94948">
        <ele>441.4</ele>
        <time>2017-01-07T13:14:02Z</time>
      </trkpt>
      <trkpt lat="44.0547" lon="5.94952">
        <ele>440</ele>
        <time>2017-01-07T13:14:03Z</time>
      </trkpt>
      <trkpt lat="44.0547" lon="5.94959">
        <ele>440</ele>
        <time>2017-01-07T13:14:05Z</time>
      </trkpt>
      <trkpt lat="44.05472" lon="5.94964">
        <ele>440</ele>
        <time>2017-01-07T13:14:07Z</time>
      </trkpt>
      <trkpt lat="44.05474" lon="5.94969">
        <ele>439.5</ele>
        <time>2017-01-07T13:14:09Z</time>
      </trkpt>
      <trkpt lat="44.05475" lon="5.94975">
        <ele>438.9</ele>
        <time>2017-01-07T13:14:11Z</time>
      </trkpt>
      <trkpt lat="44.05477" lon="5.94981">
        <ele>438.1</ele>
        <time>2017-01-07T13:14:13Z</time>
      </trkpt>
      <trkpt lat="44.05479" lon="5.94987">
        <ele>437.1</ele>
        <time>2017-01-07T13:14:15Z</time>
      </trkpt>
      <trkpt lat="44.0548" lon="5.94993">
        <ele>436.2</ele>
        <time>2017-01-07T13:14:17Z</time>
      </trkpt>
      <trkpt lat="44.05482" lon="5.94997">
        <ele>435.5</ele>
        <time>2017-01-07T13:14:20Z</time>
      </trkpt>
      <trkpt lat="44.05485" lon="5.94999">
        <ele>434.8</ele>
        <time>2017-01-07T13:14:24Z</time>
      </trkpt>
      <trkpt lat="44.05488" lon="5.95">
        <ele>434.1</ele>
        <time>2017-01-07T13:14:27Z</time>
      </trkpt>
      <trkpt lat="44.05491" lon="5.95003">
        <ele>433.4</ele>
        <time>2017-01-07T13:14:30Z</time>
      </trkpt>
      <trkpt lat="44.05494" lon="5.95006">
        <ele>433</ele>
        <time>2017-01-07T13:14:32Z</time>
      </trkpt>
      <trkpt lat="44.05497" lon="5.9501">
        <ele>432.9</ele>
        <time>2017-01-07T13:14:34Z</time>
      </trkpt>
      <trkpt lat="44.05499" lon="5.95013">
        <ele>432.8</ele>
        <time>2017-01-07T13:14:36Z</time>
      </trkpt>
      <trkpt lat="44.05502" lon="5.95015">
        <ele>432.7</ele>
        <time>2017-01-07T13:14:38Z</time>
      </trkpt>
      <trkpt lat="44.05504" lon="5.95019">
        <ele>432.8</ele>
        <time>2017-01-07T13:14:40Z</time>
      </trkpt>
      <trkpt lat="44.05506" lon="5.95024">
        <ele>433</ele>
        <time>2017-01-07T13:14:42Z</time>
      </trkpt>
      <trkpt lat="44.05511" lon="5.95028">
        <ele>433</ele>
        <time>2017-01-07T13:14:44Z</time>
      </trkpt>
      <trkpt lat="44.05513" lon="5.95031">
        <ele>433.5</ele>
        <time>2017-01-07T13:14:45Z</time>
      </trkpt>
      <trkpt lat="44.05517" lon="5.95035">
        <ele>434.7</ele>
        <time>2017-01-07T13:14:47Z</time>
      </trkpt>
      <trkpt lat="44.0552" lon="5.95039">
        <ele>435.8</ele>
        <time>2017-01-07T13:14:49Z</time>
      </trkpt>
      <trkpt lat="44.05522" lon="5.95042">
        <ele>436.8</ele>
        <time>2017-01-07T13:14:51Z</time>
      </trkpt>
      <trkpt lat="44.0552" lon="5.95044">
        <ele>437.6</ele>
        <time>2017-01-07T13:14:57Z</time>
      </trkpt>
      <trkpt lat="44.05524" lon="5.95046">
        <ele>438.5</ele>
        <time>2017-01-07T13:15:03Z</time>
      </trkpt>
      <trkpt lat="44.05528" lon="5.95045">
        <ele>438.6</ele>
        <time>2017-01-07T13:15:05Z</time>
      </trkpt>
      <trkpt lat="44.05529" lon="5.95041">
        <ele>438.7</ele>
        <time>2017-01-07T13:15:08Z</time>
      </trkpt>
      <trkpt lat="44.05527" lon="5.95035">
        <ele>439.2</ele>
        <time>2017-01-07T13:15:11Z</time>
      </trkpt>
      <trkpt lat="44.05526" lon="5.95031">
        <ele>439.6</ele>
        <time>2017-01-07T13:15:13Z</time>
      </trkpt>
      <trkpt lat="44.05524" lon="5.95027">
        <ele>440</ele>
        <time>2017-01-07T13:15:15Z</time>
      </trkpt>
      <trkpt lat="44.05522" lon="5.95022">
        <ele>440.3</ele>
        <time>2017-01-07T13:15:17Z</time>
      </trkpt>
      <trkpt lat="44.05522" lon="5.95017">
        <ele>440.6</ele>
        <time>2017-01-07T13:15:19Z</time>
      </trkpt>
      <trkpt lat="44.05521" lon="5.95012">
        <ele>440.6</ele>
        <time>2017-01-07T13:15:21Z</time>
      </trkpt>
      <trkpt lat="44.05521" lon="5.95007">
        <ele>440.5</ele>
        <time>2017-01-07T13:15:23Z</time>
      </trkpt>
      <trkpt lat="44.0552" lon="5.95001">
        <ele>440.3</ele>
        <time>2017-01-07T13:15:25Z</time>
      </trkpt>
      <trkpt lat="44.05519" lon="5.94995">
        <ele>440</ele>
        <time>2017-01-07T13:15:27Z</time>
      </trkpt>
      <trkpt lat="44.05516" lon="5.9499">
        <ele>440.1</ele>
        <time>2017-01-07T13:15:29Z</time>
      </trkpt>
      <trkpt lat="44.05515" lon="5.94985">
        <ele>440.1</ele>
        <time>2017-01-07T13:15:31Z</time>
      </trkpt>
      <trkpt lat="44.05514" lon="5.94979">
        <ele>440.2</ele>
        <time>2017-01-07T13:15:33Z</time>
      </trkpt>
      <trkpt lat="44.05516" lon="5.94973">
        <ele>441.8</ele>
        <time>2017-01-07T13:15:35Z</time>
      </trkpt>
      <trkpt lat="44.05519" lon="5.9497">
        <ele>442.6</ele>
        <time>2017-01-07T13:15:37Z</time>
      </trkpt>
      <trkpt lat="44.05522" lon="5.9497">
        <ele>443.1</ele>
        <time>2017-01-07T13:15:39Z</time>
      </trkpt>
      <trkpt lat="44.05525" lon="5.94974">
        <ele>443.1</ele>
        <time>2017-01-07T13:15:42Z</time>
      </trkpt>
      <trkpt lat="44.05526" lon="5.94979">
        <ele>443</ele>
        <time>2017-01-07T13:15:44Z</time>
      </trkpt>
      <trkpt lat="44.05526" lon="5.94985">
        <ele>442.9</ele>
        <time>2017-01-07T13:15:46Z</time>
      </trkpt>
      <trkpt lat="44.05527" lon="5.9499">
        <ele>443</ele>
        <time>2017-01-07T13:15:48Z</time>
      </trkpt>
      <trkpt lat="44.05528" lon="5.94995">
        <ele>443.2</ele>
        <time>2017-01-07T13:15:50Z</time>
      </trkpt>
      <trkpt lat="44.0553" lon="5.95">
        <ele>443.5</ele>
        <time>2017-01-07T13:15:52Z</time>
      </trkpt>
      <trkpt lat="44.05531" lon="5.95004">
        <ele>443.7</ele>
        <time>2017-01-07T13:15:54Z</time>
      </trkpt>
      <trkpt lat="44.05533" lon="5.95008">
        <ele>443.8</ele>
        <time>2017-01-07T13:15:56Z</time>
      </trkpt>
      <trkpt lat="44.05535" lon="5.95012">
        <ele>443.9</ele>
        <time>2017-01-07T13:15:58Z</time>
      </trkpt>
      <trkpt lat="44.05536" lon="5.95016">
        <ele>444.1</ele>
        <time>2017-01-07T13:16:00Z</time>
      </trkpt>
      <trkpt lat="44.05538" lon="5.9502">
        <ele>444.6</ele>
        <time>2017-01-07T13:16:02Z</time>
      </trkpt>
      <trkpt lat="44.05541" lon="5.95024">
        <ele>445.2</ele>
        <time>2017-01-07T13:16:04Z</time>
      </trkpt>
      <trkpt lat="44.05544" lon="5.95028">
        <ele>445.8</ele>
        <time>2017-01-07T13:16:06Z</time>
      </trkpt>
      <trkpt lat="44.05546" lon="5.95032">
        <ele>446.4</ele>
        <time>2017-01-07T13:16:08Z</time>
      </trkpt>
      <trkpt lat="44.05549" lon="5.95035">
        <ele>446.9</ele>
        <time>2017-01-07T13:16:10Z</time>
      </trkpt>
      <trkpt lat="44.05551" lon="5.95037">
        <ele>447.1</ele>
        <time>2017-01-07T13:16:12Z</time>
      </trkpt>
      <trkpt lat="44.05554" lon="5.9504">
        <ele>447.4</ele>
        <time>2017-01-07T13:16:14Z</time>
      </trkpt>
      <trkpt lat="44.05557" lon="5.95042">
        <ele>447.7</ele>
        <time>2017-01-07T13:16:16Z</time>
      </trkpt>
      <trkpt lat="44.0556" lon="5.95044">
        <ele>448.1</ele>
        <time>2017-01-07T13:16:18Z</time>
      </trkpt>
      <trkpt lat="44.05563" lon="5.95047">
        <ele>448.5</ele>
        <time>2017-01-07T13:16:20Z</time>
      </trkpt>
      <trkpt lat="44.05567" lon="5.95049">
        <ele>448.6</ele>
        <time>2017-01-07T13:16:22Z</time>
      </trkpt>
      <trkpt lat="44.0557" lon="5.95052">
        <ele>448.8</ele>
        <time>2017-01-07T13:16:24Z</time>
      </trkpt>
      <trkpt lat="44.05575" lon="5.95054">
        <ele>449.5</ele>
        <time>2017-01-07T13:16:26Z</time>
      </trkpt>
      <trkpt lat="44.05579" lon="5.95057">
        <ele>450.5</ele>
        <time>2017-01-07T13:16:28Z</time>
      </trkpt>
      <trkpt lat="44.05584" lon="5.95059">
        <ele>451.7</ele>
        <time>2017-01-07T13:16:30Z</time>
      </trkpt>
      <trkpt lat="44.05588" lon="5.9506">
        <ele>452.4</ele>
        <time>2017-01-07T13:16:32Z</time>
      </trkpt>
      <trkpt lat="44.05592" lon="5.95062">
        <ele>452.2</ele>
        <time>2017-01-07T13:16:34Z</time>
      </trkpt>
      <trkpt lat="44.05596" lon="5.95064">
        <ele>452.4</ele>
        <time>2017-01-07T13:16:36Z</time>
      </trkpt>
      <trkpt lat="44.056" lon="5.95067">
        <ele>452.7</ele>
        <time>2017-01-07T13:16:38Z</time>
      </trkpt>
      <trkpt lat="44.05604" lon="5.95069">
        <ele>453</ele>
        <time>2017-01-07T13:16:40Z</time>
      </trkpt>
      <trkpt lat="44.05607" lon="5.95072">
        <ele>452.9</ele>
        <time>2017-01-07T13:16:42Z</time>
      </trkpt>
      <trkpt lat="44.05611" lon="5.95075">
        <ele>453.3</ele>
        <time>2017-01-07T13:16:44Z</time>
      </trkpt>
      <trkpt lat="44.05615" lon="5.95078">
        <ele>453.9</ele>
        <time>2017-01-07T13:16:46Z</time>
      </trkpt>
      <trkpt lat="44.05619" lon="5.95081">
        <ele>454.1</ele>
        <time>2017-01-07T13:16:48Z</time>
      </trkpt>
      <trkpt lat="44.05622" lon="5.95084">
        <ele>453.9</ele>
        <time>2017-01-07T13:16:50Z</time>
      </trkpt>
      <trkpt lat="44.05626" lon="5.95087">
        <ele>453.6</ele>
        <time>2017-01-07T13:16:52Z</time>
      </trkpt>
      <trkpt lat="44.05629" lon="5.9509">
        <ele>453.3</ele>
        <time>2017-01-07T13:16:54Z</time>
      </trkpt>
      <trkpt lat="44.05632" lon="5.95093">
        <ele>453.1</ele>
        <time>2017-01-07T13:16:56Z</time>
      </trkpt>
      <trkpt lat="44.05635" lon="5.95096">
        <ele>452.7</ele>
        <time>2017-01-07T13:16:59Z</time>
      </trkpt>
      <trkpt lat="44.05637" lon="5.95099">
        <ele>452.3</ele>
        <time>2017-01-07T13:17:02Z</time>
      </trkpt>
      <trkpt lat="44.05639" lon="5.95103">
        <ele>452</ele>
        <time>2017-01-07T13:17:05Z</time>
      </trkpt>
      <trkpt lat="44.0564" lon="5.95107">
        <ele>452.1</ele>
        <time>2017-01-07T13:17:08Z</time>
      </trkpt>
      <trkpt lat="44.05643" lon="5.95107">
        <ele>452.1</ele>
        <time>2017-01-07T13:17:12Z</time>
      </trkpt>
      <trkpt lat="44.05646" lon="5.95106">
        <ele>452.1</ele>
        <time>2017-01-07T13:17:19Z</time>
      </trkpt>
      <trkpt lat="44.05651" lon="5.95111">
        <ele>451.7</ele>
        <time>2017-01-07T13:18:20Z</time>
      </trkpt>
      <trkpt lat="44.05652" lon="5.95116">
        <ele>451.7</ele>
        <time>2017-01-07T13:18:22Z</time>
      </trkpt>
      <trkpt lat="44.05654" lon="5.95118">
        <ele>451.9</ele>
        <time>2017-01-07T13:18:24Z</time>
      </trkpt>
      <trkpt lat="44.05656" lon="5.95121">
        <ele>452.1</ele>
        <time>2017-01-07T13:18:26Z</time>
      </trkpt>
      <trkpt lat="44.05659" lon="5.95127">
        <ele>452.7</ele>
        <time>2017-01-07T13:18:28Z</time>
      </trkpt>
      <trkpt lat="44.05662" lon="5.95132">
        <ele>453.3</ele>
        <time>2017-01-07T13:18:30Z</time>
      </trkpt>
      <trkpt lat="44.05665" lon="5.95136">
        <ele>453.9</ele>
        <time>2017-01-07T13:18:32Z</time>
      </trkpt>
      <trkpt lat="44.05669" lon="5.95139">
        <ele>454.5</ele>
        <time>2017-01-07T13:18:34Z</time>
      </trkpt>
      <trkpt lat="44.05673" lon="5.95141">
        <ele>455.1</ele>
        <time>2017-01-07T13:18:36Z</time>
      </trkpt>
      <trkpt lat="44.05676" lon="5.95143">
        <ele>455.5</ele>
        <time>2017-01-07T13:18:37Z</time>
      </trkpt>
      <trkpt lat="44.05679" lon="5.95144">
        <ele>456</ele>
        <time>2017-01-07T13:18:38Z</time>
      </trkpt>
      <trkpt lat="44.05682" lon="5.95146">
        <ele>456.7</ele>
        <time>2017-01-07T13:18:39Z</time>
      </trkpt>
      <trkpt lat="44.05685" lon="5.95149">
        <ele>457.3</ele>
        <time>2017-01-07T13:18:40Z</time>
      </trkpt>
      <trkpt lat="44.05687" lon="5.95152">
        <ele>458.3</ele>
        <time>2017-01-07T13:18:41Z</time>
      </trkpt>
      <trkpt lat="44.0569" lon="5.95155">
        <ele>459.9</ele>
        <time>2017-01-07T13:18:42Z</time>
      </trkpt>
      <trkpt lat="44.05693" lon="5.95158">
        <ele>461.8</ele>
        <time>2017-01-07T13:18:44Z</time>
      </trkpt>
      <trkpt lat="44.05694" lon="5.95162">
        <ele>462.6</ele>
        <time>2017-01-07T13:18:46Z</time>
      </trkpt>
      <trkpt lat="44.05696" lon="5.95165">
        <ele>463.5</ele>
        <time>2017-01-07T13:18:48Z</time>
      </trkpt>
      <trkpt lat="44.05698" lon="5.95168">
        <ele>464.1</ele>
        <time>2017-01-07T13:18:50Z</time>
      </trkpt>
      <trkpt lat="44.057" lon="5.95172">
        <ele>464.7</ele>
        <time>2017-01-07T13:18:53Z</time>
      </trkpt>
      <trkpt lat="44.05703" lon="5.95175">
        <ele>465.2</ele>
        <time>2017-01-07T13:18:55Z</time>
      </trkpt>
      <trkpt lat="44.05708" lon="5.95177">
        <ele>465.8</ele>
        <time>2017-01-07T13:18:57Z</time>
      </trkpt>
      <trkpt lat="44.05712" lon="5.95179">
        <ele>466.4</ele>
        <time>2017-01-07T13:18:59Z</time>
      </trkpt>
      <trkpt lat="44.05714" lon="5.95184">
        <ele>466.8</ele>
        <time>2017-01-07T13:19:01Z</time>
      </trkpt>
      <trkpt lat="44.05715" lon="5.95189">
        <ele>467.2</ele>
        <time>2017-01-07T13:19:03Z</time>
      </trkpt>
      <trkpt lat="44.05717" lon="5.95192">
        <ele>467.3</ele>
        <time>2017-01-07T13:19:05Z</time>
      </trkpt>
      <trkpt lat="44.0572" lon="5.95196">
        <ele>467.4</ele>
        <time>2017-01-07T13:19:07Z</time>
      </trkpt>
      <trkpt lat="44.05722" lon="5.95199">
        <ele>467.4</ele>
        <time>2017-01-07T13:19:09Z</time>
      </trkpt>
      <trkpt lat="44.05725" lon="5.95202">
        <ele>467.8</ele>
        <time>2017-01-07T13:19:11Z</time>
      </trkpt>
      <trkpt lat="44.05728" lon="5.95205">
        <ele>468.1</ele>
        <time>2017-01-07T13:19:13Z</time>
      </trkpt>
      <trkpt lat="44.05731" lon="5.95206">
        <ele>467.7</ele>
        <time>2017-01-07T13:19:14Z</time>
      </trkpt>
      <trkpt lat="44.05734" lon="5.95208">
        <ele>467.2</ele>
        <time>2017-01-07T13:19:15Z</time>
      </trkpt>
      <trkpt lat="44.05737" lon="5.95208">
        <ele>467.2</ele>
        <time>2017-01-07T13:19:16Z</time>
      </trkpt>
      <trkpt lat="44.05741" lon="5.95211">
        <ele>467.5</ele>
        <time>2017-01-07T13:19:18Z</time>
      </trkpt>
      <trkpt lat="44.05746" lon="5.95213">
        <ele>467.1</ele>
        <time>2017-01-07T13:19:20Z</time>
      </trkpt>
      <trkpt lat="44.05749" lon="5.95214">
        <ele>466.8</ele>
        <time>2017-01-07T13:19:21Z</time>
      </trkpt>
      <trkpt lat="44.05752" lon="5.95216">
        <ele>467</ele>
        <time>2017-01-07T13:19:22Z</time>
      </trkpt>
      <trkpt lat="44.05756" lon="5.95218">
        <ele>467.1</ele>
        <time>2017-01-07T13:19:24Z</time>
      </trkpt>
      <trkpt lat="44.05761" lon="5.9522">
        <ele>466.5</ele>
        <time>2017-01-07T13:19:26Z</time>
      </trkpt>
      <trkpt lat="44.05766" lon="5.95223">
        <ele>466</ele>
        <time>2017-01-07T13:19:28Z</time>
      </trkpt>
      <trkpt lat="44.0577" lon="5.95226">
        <ele>466.1</ele>
        <time>2017-01-07T13:19:30Z</time>
      </trkpt>
      <trkpt lat="44.05773" lon="5.95228">
        <ele>465.9</ele>
        <time>2017-01-07T13:19:32Z</time>
      </trkpt>
      <trkpt lat="44.05776" lon="5.95232">
        <ele>465.4</ele>
        <time>2017-01-07T13:19:34Z</time>
      </trkpt>
      <trkpt lat="44.0578" lon="5.95235">
        <ele>465.2</ele>
        <time>2017-01-07T13:19:36Z</time>
      </trkpt>
      <trkpt lat="44.05783" lon="5.95237">
        <ele>465.6</ele>
        <time>2017-01-07T13:19:38Z</time>
      </trkpt>
      <trkpt lat="44.05785" lon="5.95238">
        <ele>465.9</ele>
        <time>2017-01-07T13:19:40Z</time>
      </trkpt>
      <trkpt lat="44.05788" lon="5.9524">
        <ele>465.7</ele>
        <time>2017-01-07T13:19:42Z</time>
      </trkpt>
      <trkpt lat="44.05791" lon="5.95242">
        <ele>465.3</ele>
        <time>2017-01-07T13:19:44Z</time>
      </trkpt>
      <trkpt lat="44.05794" lon="5.95243">
        <ele>465.1</ele>
        <time>2017-01-07T13:19:46Z</time>
      </trkpt>
      <trkpt lat="44.05797" lon="5.95244">
        <ele>465.5</ele>
        <time>2017-01-07T13:19:48Z</time>
      </trkpt>
      <trkpt lat="44.058" lon="5.95246">
        <ele>465.8</ele>
        <time>2017-01-07T13:19:50Z</time>
      </trkpt>
      <trkpt lat="44.05804" lon="5.95249">
        <ele>465.8</ele>
        <time>2017-01-07T13:19:52Z</time>
      </trkpt>
      <trkpt lat="44.05807" lon="5.95251">
        <ele>466.2</ele>
        <time>2017-01-07T13:19:53Z</time>
      </trkpt>
      <trkpt lat="44.05811" lon="5.95255">
        <ele>467.5</ele>
        <time>2017-01-07T13:19:55Z</time>
      </trkpt>
      <trkpt lat="44.05815" lon="5.95258">
        <ele>468.1</ele>
        <time>2017-01-07T13:19:57Z</time>
      </trkpt>
      <trkpt lat="44.05819" lon="5.95261">
        <ele>468.4</ele>
        <time>2017-01-07T13:19:59Z</time>
      </trkpt>
      <trkpt lat="44.05822" lon="5.95264">
        <ele>468.8</ele>
        <time>2017-01-07T13:20:01Z</time>
      </trkpt>
      <trkpt lat="44.05825" lon="5.95267">
        <ele>469.2</ele>
        <time>2017-01-07T13:20:03Z</time>
      </trkpt>
      <trkpt lat="44.05829" lon="5.9527">
        <ele>469.5</ele>
        <time>2017-01-07T13:20:05Z</time>
      </trkpt>
      <trkpt lat="44.05832" lon="5.95272">
        <ele>469.5</ele>
        <time>2017-01-07T13:20:07Z</time>
      </trkpt>
      <trkpt lat="44.05836" lon="5.95275">
        <ele>469.5</ele>
        <time>2017-01-07T13:20:09Z</time>
      </trkpt>
      <trkpt lat="44.0584" lon="5.95278">
        <ele>469.2</ele>
        <time>2017-01-07T13:20:11Z</time>
      </trkpt>
      <trkpt lat="44.05843" lon="5.95281">
        <ele>469</ele>
        <time>2017-01-07T13:20:13Z</time>
      </trkpt>
      <trkpt lat="44.05847" lon="5.95284">
        <ele>469.2</ele>
        <time>2017-01-07T13:20:15Z</time>
      </trkpt>
      <trkpt lat="44.0585" lon="5.95286">
        <ele>469.3</ele>
        <time>2017-01-07T13:20:17Z</time>
      </trkpt>
      <trkpt lat="44.05853" lon="5.95288">
        <ele>469.7</ele>
        <time>2017-01-07T13:20:19Z</time>
      </trkpt>
      <trkpt lat="44.05856" lon="5.95291">
        <ele>470.1</ele>
        <time>2017-01-07T13:20:21Z</time>
      </trkpt>
      <trkpt lat="44.0586" lon="5.95294">
        <ele>470.8</ele>
        <time>2017-01-07T13:20:23Z</time>
      </trkpt>
      <trkpt lat="44.05863" lon="5.95298">
        <ele>471.6</ele>
        <time>2017-01-07T13:20:25Z</time>
      </trkpt>
      <trkpt lat="44.05866" lon="5.95303">
        <ele>472.4</ele>
        <time>2017-01-07T13:20:27Z</time>
      </trkpt>
      <trkpt lat="44.05869" lon="5.95305">
        <ele>472.8</ele>
        <time>2017-01-07T13:20:28Z</time>
      </trkpt>
      <trkpt lat="44.05872" lon="5.95307">
        <ele>473.2</ele>
        <time>2017-01-07T13:20:29Z</time>
      </trkpt>
      <trkpt lat="44.05874" lon="5.9531">
        <ele>473.3</ele>
        <time>2017-01-07T13:20:30Z</time>
      </trkpt>
      <trkpt lat="44.05877" lon="5.95313">
        <ele>473.3</ele>
        <time>2017-01-07T13:20:31Z</time>
      </trkpt>
      <trkpt lat="44.0588" lon="5.95316">
        <ele>473.6</ele>
        <time>2017-01-07T13:20:32Z</time>
      </trkpt>
      <trkpt lat="44.05882" lon="5.95318">
        <ele>474</ele>
        <time>2017-01-07T13:20:33Z</time>
      </trkpt>
      <trkpt lat="44.05885" lon="5.95323">
        <ele>475</ele>
        <time>2017-01-07T13:20:35Z</time>
      </trkpt>
      <trkpt lat="44.05888" lon="5.95325">
        <ele>476.3</ele>
        <time>2017-01-07T13:20:36Z</time>
      </trkpt>
      <trkpt lat="44.05893" lon="5.95329">
        <ele>478.7</ele>
        <time>2017-01-07T13:20:38Z</time>
      </trkpt>
      <trkpt lat="44.05896" lon="5.95334">
        <ele>479.8</ele>
        <time>2017-01-07T13:20:40Z</time>
      </trkpt>
      <trkpt lat="44.059" lon="5.95337">
        <ele>480.4</ele>
        <time>2017-01-07T13:20:42Z</time>
      </trkpt>
      <trkpt lat="44.05902" lon="5.9534">
        <ele>480.8</ele>
        <time>2017-01-07T13:20:44Z</time>
      </trkpt>
      <trkpt lat="44.05905" lon="5.95344">
        <ele>481.2</ele>
        <time>2017-01-07T13:20:46Z</time>
      </trkpt>
      <trkpt lat="44.05909" lon="5.95347">
        <ele>481.7</ele>
        <time>2017-01-07T13:20:48Z</time>
      </trkpt>
      <trkpt lat="44.05914" lon="5.95348">
        <ele>481.6</ele>
        <time>2017-01-07T13:20:50Z</time>
      </trkpt>
      <trkpt lat="44.05918" lon="5.95349">
        <ele>481.9</ele>
        <time>2017-01-07T13:20:51Z</time>
      </trkpt>
      <trkpt lat="44.05921" lon="5.95351">
        <ele>482.5</ele>
        <time>2017-01-07T13:20:52Z</time>
      </trkpt>
      <trkpt lat="44.05926" lon="5.95354">
        <ele>483.4</ele>
        <time>2017-01-07T13:20:54Z</time>
      </trkpt>
      <trkpt lat="44.05929" lon="5.95358">
        <ele>484</ele>
        <time>2017-01-07T13:20:56Z</time>
      </trkpt>
      <trkpt lat="44.05928" lon="5.95361">
        <ele>484.4</ele>
        <time>2017-01-07T13:20:58Z</time>
      </trkpt>
      <trkpt lat="44.05928" lon="5.95365">
        <ele>484.8</ele>
        <time>2017-01-07T13:21:00Z</time>
      </trkpt>
      <trkpt lat="44.0593" lon="5.95369">
        <ele>484.6</ele>
        <time>2017-01-07T13:21:02Z</time>
      </trkpt>
      <trkpt lat="44.05932" lon="5.95372">
        <ele>484</ele>
        <time>2017-01-07T13:21:04Z</time>
      </trkpt>
      <trkpt lat="44.05935" lon="5.95375">
        <ele>483.6</ele>
        <time>2017-01-07T13:21:06Z</time>
      </trkpt>
      <trkpt lat="44.05936" lon="5.95379">
        <ele>484.3</ele>
        <time>2017-01-07T13:21:08Z</time>
      </trkpt>
      <trkpt lat="44.05939" lon="5.95383">
        <ele>484.7</ele>
        <time>2017-01-07T13:21:10Z</time>
      </trkpt>
      <trkpt lat="44.05942" lon="5.95385">
        <ele>484.7</ele>
        <time>2017-01-07T13:21:11Z</time>
      </trkpt>
      <trkpt lat="44.05946" lon="5.95388">
        <ele>484.9</ele>
        <time>2017-01-07T13:21:13Z</time>
      </trkpt>
      <trkpt lat="44.05949" lon="5.95391">
        <ele>485.5</ele>
        <time>2017-01-07T13:21:15Z</time>
      </trkpt>
      <trkpt lat="44.05952" lon="5.95396">
        <ele>485.2</ele>
        <time>2017-01-07T13:21:17Z</time>
      </trkpt>
      <trkpt lat="44.05954" lon="5.95401">
        <ele>484.4</ele>
        <time>2017-01-07T13:21:19Z</time>
      </trkpt>
      <trkpt lat="44.05957" lon="5.95406">
        <ele>484.3</ele>
        <time>2017-01-07T13:21:21Z</time>
      </trkpt>
      <trkpt lat="44.05959" lon="5.95408">
        <ele>484.4</ele>
        <time>2017-01-07T13:21:22Z</time>
      </trkpt>
      <trkpt lat="44.05962" lon="5.95413">
        <ele>484.7</ele>
        <time>2017-01-07T13:21:24Z</time>
      </trkpt>
      <trkpt lat="44.05964" lon="5.95417">
        <ele>485.1</ele>
        <time>2017-01-07T13:21:26Z</time>
      </trkpt>
      <trkpt lat="44.05968" lon="5.9542">
        <ele>485.5</ele>
        <time>2017-01-07T13:21:28Z</time>
      </trkpt>
      <trkpt lat="44.05971" lon="5.95423">
        <ele>485.9</ele>
        <time>2017-01-07T13:21:30Z</time>
      </trkpt>
      <trkpt lat="44.05974" lon="5.95428">
        <ele>486.1</ele>
        <time>2017-01-07T13:21:32Z</time>
      </trkpt>
      <trkpt lat="44.05977" lon="5.95431">
        <ele>485.9</ele>
        <time>2017-01-07T13:21:34Z</time>
      </trkpt>
      <trkpt lat="44.05981" lon="5.95435">
        <ele>486.1</ele>
        <time>2017-01-07T13:21:36Z</time>
      </trkpt>
      <trkpt lat="44.05983" lon="5.95437">
        <ele>486.5</ele>
        <time>2017-01-07T13:21:37Z</time>
      </trkpt>
      <trkpt lat="44.05986" lon="5.95439">
        <ele>487</ele>
        <time>2017-01-07T13:21:38Z</time>
      </trkpt>
      <trkpt lat="44.05989" lon="5.95442">
        <ele>487.1</ele>
        <time>2017-01-07T13:21:39Z</time>
      </trkpt>
      <trkpt lat="44.05991" lon="5.95445">
        <ele>493.7</ele>
        <time>2017-01-07T13:21:40Z</time>
      </trkpt>
      <trkpt lat="44.05993" lon="5.95448">
        <ele>498.5</ele>
        <time>2017-01-07T13:21:41Z</time>
      </trkpt>
      <trkpt lat="44.05995" lon="5.95451">
        <ele>497.9</ele>
        <time>2017-01-07T13:21:42Z</time>
      </trkpt>
      <trkpt lat="44.05998" lon="5.95456">
        <ele>496.9</ele>
        <time>2017-01-07T13:21:44Z</time>
      </trkpt>
      <trkpt lat="44.06001" lon="5.95461">
        <ele>496.4</ele>
        <time>2017-01-07T13:21:46Z</time>
      </trkpt>
      <trkpt lat="44.06001" lon="5.95466">
        <ele>496.2</ele>
        <time>2017-01-07T13:21:48Z</time>
      </trkpt>
      <trkpt lat="44.06002" lon="5.9547">
        <ele>496</ele>
        <time>2017-01-07T13:21:50Z</time>
      </trkpt>
      <trkpt lat="44.06003" lon="5.95475">
        <ele>495.8</ele>
        <time>2017-01-07T13:21:52Z</time>
      </trkpt>
      <trkpt lat="44.06" lon="5.95479">
        <ele>495.9</ele>
        <time>2017-01-07T13:21:54Z</time>
      </trkpt>
      <trkpt lat="44.05998" lon="5.95482">
        <ele>494.6</ele>
        <time>2017-01-07T13:21:56Z</time>
      </trkpt>
      <trkpt lat="44.06" lon="5.95486">
        <ele>495.3</ele>
        <time>2017-01-07T13:21:58Z</time>
      </trkpt>
      <trkpt lat="44.06002" lon="5.95488">
        <ele>496.8</ele>
        <time>2017-01-07T13:21:59Z</time>
      </trkpt>
      <trkpt lat="44.06005" lon="5.9549">
        <ele>496.7</ele>
        <time>2017-01-07T13:22:00Z</time>
      </trkpt>
      <trkpt lat="44.06006" lon="5.95493">
        <ele>496.5</ele>
        <time>2017-01-07T13:22:01Z</time>
      </trkpt>
      <trkpt lat="44.06008" lon="5.95498">
        <ele>496.3</ele>
        <time>2017-01-07T13:22:03Z</time>
      </trkpt>
      <trkpt lat="44.06008" lon="5.95504">
        <ele>495.6</ele>
        <time>2017-01-07T13:22:05Z</time>
      </trkpt>
      <trkpt lat="44.06008" lon="5.95508">
        <ele>495.4</ele>
        <time>2017-01-07T13:22:07Z</time>
      </trkpt>
      <trkpt lat="44.06009" lon="5.95511">
        <ele>495.8</ele>
        <time>2017-01-07T13:22:09Z</time>
      </trkpt>
      <trkpt lat="44.0601" lon="5.95516">
        <ele>496.4</ele>
        <time>2017-01-07T13:22:12Z</time>
      </trkpt>
      <trkpt lat="44.06012" lon="5.95521">
        <ele>496.7</ele>
        <time>2017-01-07T13:22:14Z</time>
      </trkpt>
      <trkpt lat="44.06014" lon="5.95525">
        <ele>496.2</ele>
        <time>2017-01-07T13:22:16Z</time>
      </trkpt>
      <trkpt lat="44.06017" lon="5.95528">
        <ele>496.1</ele>
        <time>2017-01-07T13:22:18Z</time>
      </trkpt>
      <trkpt lat="44.06021" lon="5.95531">
        <ele>496.7</ele>
        <time>2017-01-07T13:22:20Z</time>
      </trkpt>
      <trkpt lat="44.06022" lon="5.95536">
        <ele>496.5</ele>
        <time>2017-01-07T13:22:22Z</time>
      </trkpt>
      <trkpt lat="44.06024" lon="5.95541">
        <ele>495.9</ele>
        <time>2017-01-07T13:22:24Z</time>
      </trkpt>
      <trkpt lat="44.06026" lon="5.95544">
        <ele>495.4</ele>
        <time>2017-01-07T13:22:26Z</time>
      </trkpt>
      <trkpt lat="44.06029" lon="5.95545">
        <ele>495.4</ele>
        <time>2017-01-07T13:22:29Z</time>
      </trkpt>
      <trkpt lat="44.06031" lon="5.95542">
        <ele>495.9</ele>
        <time>2017-01-07T13:22:31Z</time>
      </trkpt>
      <trkpt lat="44.06029" lon="5.95538">
        <ele>496.4</ele>
        <time>2017-01-07T13:22:33Z</time>
      </trkpt>
      <trkpt lat="44.06028" lon="5.95533">
        <ele>496.6</ele>
        <time>2017-01-07T13:22:35Z</time>
      </trkpt>
      <trkpt lat="44.06027" lon="5.95527">
        <ele>496.4</ele>
        <time>2017-01-07T13:22:37Z</time>
      </trkpt>
      <trkpt lat="44.06026" lon="5.95521">
        <ele>496</ele>
        <time>2017-01-07T13:22:39Z</time>
      </trkpt>
      <trkpt lat="44.06024" lon="5.95515">
        <ele>496.6</ele>
        <time>2017-01-07T13:22:41Z</time>
      </trkpt>
      <trkpt lat="44.06023" lon="5.9551">
        <ele>498.9</ele>
        <time>2017-01-07T13:22:43Z</time>
      </trkpt>
      <trkpt lat="44.06022" lon="5.95505">
        <ele>501.9</ele>
        <time>2017-01-07T13:22:45Z</time>
      </trkpt>
      <trkpt lat="44.06022" lon="5.95501">
        <ele>501.6</ele>
        <time>2017-01-07T13:22:47Z</time>
      </trkpt>
      <trkpt lat="44.06021" lon="5.95497">
        <ele>501.4</ele>
        <time>2017-01-07T13:22:49Z</time>
      </trkpt>
      <trkpt lat="44.06019" lon="5.95493">
        <ele>501.5</ele>
        <time>2017-01-07T13:22:51Z</time>
      </trkpt>
      <trkpt lat="44.06018" lon="5.95488">
        <ele>502.1</ele>
        <time>2017-01-07T13:22:53Z</time>
      </trkpt>
      <trkpt lat="44.06016" lon="5.95484">
        <ele>502.2</ele>
        <time>2017-01-07T13:22:55Z</time>
      </trkpt>
      <trkpt lat="44.06015" lon="5.9548">
        <ele>502.1</ele>
        <time>2017-01-07T13:22:57Z</time>
      </trkpt>
      <trkpt lat="44.06013" lon="5.95475">
        <ele>501.7</ele>
        <time>2017-01-07T13:22:59Z</time>
      </trkpt>
      <trkpt lat="44.06011" lon="5.9547">
        <ele>501.3</ele>
        <time>2017-01-07T13:23:01Z</time>
      </trkpt>
      <trkpt lat="44.06009" lon="5.95465">
        <ele>501.2</ele>
        <time>2017-01-07T13:23:03Z</time>
      </trkpt>
      <trkpt lat="44.06007" lon="5.9546">
        <ele>500.8</ele>
        <time>2017-01-07T13:23:05Z</time>
      </trkpt>
      <trkpt lat="44.06006" lon="5.95454">
        <ele>500.3</ele>
        <time>2017-01-07T13:23:07Z</time>
      </trkpt>
      <trkpt lat="44.06005" lon="5.95449">
        <ele>499.4</ele>
        <time>2017-01-07T13:23:09Z</time>
      </trkpt>
      <trkpt lat="44.06008" lon="5.95445">
        <ele>500.1</ele>
        <time>2017-01-07T13:23:11Z</time>
      </trkpt>
      <trkpt lat="44.06012" lon="5.95445">
        <ele>500.6</ele>
        <time>2017-01-07T13:23:13Z</time>
      </trkpt>
      <trkpt lat="44.06015" lon="5.95448">
        <ele>501.2</ele>
        <time>2017-01-07T13:23:15Z</time>
      </trkpt>
      <trkpt lat="44.06017" lon="5.95453">
        <ele>501.3</ele>
        <time>2017-01-07T13:23:17Z</time>
      </trkpt>
      <trkpt lat="44.0602" lon="5.95459">
        <ele>501.6</ele>
        <time>2017-01-07T13:23:19Z</time>
      </trkpt>
      <trkpt lat="44.0602" lon="5.95463">
        <ele>502.1</ele>
        <time>2017-01-07T13:23:21Z</time>
      </trkpt>
      <trkpt lat="44.06021" lon="5.95468">
        <ele>502.2</ele>
        <time>2017-01-07T13:23:23Z</time>
      </trkpt>
      <trkpt lat="44.06023" lon="5.95472">
        <ele>502.2</ele>
        <time>2017-01-07T13:23:25Z</time>
      </trkpt>
      <trkpt lat="44.06025" lon="5.95477">
        <ele>501.5</ele>
        <time>2017-01-07T13:23:27Z</time>
      </trkpt>
      <trkpt lat="44.06026" lon="5.95481">
        <ele>501.4</ele>
        <time>2017-01-07T13:23:29Z</time>
      </trkpt>
      <trkpt lat="44.06028" lon="5.95486">
        <ele>501.6</ele>
        <time>2017-01-07T13:23:31Z</time>
      </trkpt>
      <trkpt lat="44.0603" lon="5.95489">
        <ele>502</ele>
        <time>2017-01-07T13:23:33Z</time>
      </trkpt>
      <trkpt lat="44.06032" lon="5.95493">
        <ele>502.4</ele>
        <time>2017-01-07T13:23:36Z</time>
      </trkpt>
      <trkpt lat="44.06035" lon="5.95496">
        <ele>502.7</ele>
        <time>2017-01-07T13:23:38Z</time>
      </trkpt>
      <trkpt lat="44.06038" lon="5.95499">
        <ele>503.3</ele>
        <time>2017-01-07T13:23:40Z</time>
      </trkpt>
      <trkpt lat="44.0604" lon="5.95502">
        <ele>504.2</ele>
        <time>2017-01-07T13:23:42Z</time>
      </trkpt>
      <trkpt lat="44.06042" lon="5.95505">
        <ele>505</ele>
        <time>2017-01-07T13:23:44Z</time>
      </trkpt>
      <trkpt lat="44.06045" lon="5.95508">
        <ele>506.1</ele>
        <time>2017-01-07T13:23:46Z</time>
      </trkpt>
      <trkpt lat="44.06048" lon="5.95511">
        <ele>507.2</ele>
        <time>2017-01-07T13:23:48Z</time>
      </trkpt>
      <trkpt lat="44.06052" lon="5.95514">
        <ele>508.6</ele>
        <time>2017-01-07T13:23:50Z</time>
      </trkpt>
      <trkpt lat="44.06055" lon="5.95517">
        <ele>509.7</ele>
        <time>2017-01-07T13:23:52Z</time>
      </trkpt>
      <trkpt lat="44.06056" lon="5.95521">
        <ele>510.3</ele>
        <time>2017-01-07T13:23:54Z</time>
      </trkpt>
      <trkpt lat="44.06057" lon="5.95526">
        <ele>510.9</ele>
        <time>2017-01-07T13:23:56Z</time>
      </trkpt>
      <trkpt lat="44.06058" lon="5.95531">
        <ele>511.6</ele>
        <time>2017-01-07T13:23:58Z</time>
      </trkpt>
      <trkpt lat="44.0606" lon="5.95536">
        <ele>512.5</ele>
        <time>2017-01-07T13:24:00Z</time>
      </trkpt>
      <trkpt lat="44.06061" lon="5.9554">
        <ele>512.9</ele>
        <time>2017-01-07T13:24:02Z</time>
      </trkpt>
      <trkpt lat="44.06064" lon="5.95544">
        <ele>513.2</ele>
        <time>2017-01-07T13:24:04Z</time>
      </trkpt>
      <trkpt lat="44.06068" lon="5.9555">
        <ele>513.9</ele>
        <time>2017-01-07T13:24:06Z</time>
      </trkpt>
      <trkpt lat="44.06071" lon="5.95555">
        <ele>514</ele>
        <time>2017-01-07T13:24:08Z</time>
      </trkpt>
      <trkpt lat="44.06074" lon="5.9556">
        <ele>513.6</ele>
        <time>2017-01-07T13:24:10Z</time>
      </trkpt>
      <trkpt lat="44.06077" lon="5.95565">
        <ele>513.2</ele>
        <time>2017-01-07T13:24:12Z</time>
      </trkpt>
      <trkpt lat="44.0608" lon="5.95569">
        <ele>512.8</ele>
        <time>2017-01-07T13:24:14Z</time>
      </trkpt>
      <trkpt lat="44.06083" lon="5.95573">
        <ele>512.5</ele>
        <time>2017-01-07T13:24:16Z</time>
      </trkpt>
      <trkpt lat="44.06084" lon="5.95576">
        <ele>512.3</ele>
        <time>2017-01-07T13:24:18Z</time>
      </trkpt>
      <trkpt lat="44.06085" lon="5.95581">
        <ele>512</ele>
        <time>2017-01-07T13:24:21Z</time>
      </trkpt>
      <trkpt lat="44.06085" lon="5.95587">
        <ele>511.4</ele>
        <time>2017-01-07T13:24:24Z</time>
      </trkpt>
      <trkpt lat="44.06088" lon="5.9559">
        <ele>510.9</ele>
        <time>2017-01-07T13:24:27Z</time>
      </trkpt>
      <trkpt lat="44.06093" lon="5.95602">
        <ele>508.5</ele>
        <time>2017-01-07T13:24:46Z</time>
      </trkpt>
      <trkpt lat="44.06095" lon="5.95605">
        <ele>508.5</ele>
        <time>2017-01-07T13:24:48Z</time>
      </trkpt>
      <trkpt lat="44.06097" lon="5.95612">
        <ele>508.5</ele>
        <time>2017-01-07T13:24:50Z</time>
      </trkpt>
      <trkpt lat="44.06099" lon="5.95618">
        <ele>507.5</ele>
        <time>2017-01-07T13:24:52Z</time>
      </trkpt>
      <trkpt lat="44.06101" lon="5.95623">
        <ele>506.4</ele>
        <time>2017-01-07T13:24:54Z</time>
      </trkpt>
      <trkpt lat="44.06105" lon="5.95626">
        <ele>506.5</ele>
        <time>2017-01-07T13:24:57Z</time>
      </trkpt>
      <trkpt lat="44.06108" lon="5.95628">
        <ele>507.1</ele>
        <time>2017-01-07T13:24:59Z</time>
      </trkpt>
      <trkpt lat="44.0611" lon="5.95631">
        <ele>508.3</ele>
        <time>2017-01-07T13:25:01Z</time>
      </trkpt>
      <trkpt lat="44.06112" lon="5.95636">
        <ele>508.5</ele>
        <time>2017-01-07T13:25:03Z</time>
      </trkpt>
      <trkpt lat="44.06114" lon="5.95639">
        <ele>508.6</ele>
        <time>2017-01-07T13:25:05Z</time>
      </trkpt>
      <trkpt lat="44.06117" lon="5.95641">
        <ele>508.6</ele>
        <time>2017-01-07T13:25:07Z</time>
      </trkpt>
      <trkpt lat="44.0612" lon="5.95644">
        <ele>508.8</ele>
        <time>2017-01-07T13:25:09Z</time>
      </trkpt>
      <trkpt lat="44.06123" lon="5.95647">
        <ele>509</ele>
        <time>2017-01-07T13:25:11Z</time>
      </trkpt>
      <trkpt lat="44.06127" lon="5.95651">
        <ele>510.3</ele>
        <time>2017-01-07T13:25:13Z</time>
      </trkpt>
      <trkpt lat="44.0613" lon="5.95654">
        <ele>511.2</ele>
        <time>2017-01-07T13:25:14Z</time>
      </trkpt>
      <trkpt lat="44.06133" lon="5.95656">
        <ele>512.1</ele>
        <time>2017-01-07T13:25:15Z</time>
      </trkpt>
      <trkpt lat="44.06136" lon="5.9566">
        <ele>513.8</ele>
        <time>2017-01-07T13:25:17Z</time>
      </trkpt>
      <trkpt lat="44.0614" lon="5.95663">
        <ele>515.7</ele>
        <time>2017-01-07T13:25:19Z</time>
      </trkpt>
      <trkpt lat="44.06144" lon="5.95666">
        <ele>516.5</ele>
        <time>2017-01-07T13:25:21Z</time>
      </trkpt>
      <trkpt lat="44.06147" lon="5.95669">
        <ele>517.1</ele>
        <time>2017-01-07T13:25:23Z</time>
      </trkpt>
      <trkpt lat="44.06149" lon="5.95671">
        <ele>518.1</ele>
        <time>2017-01-07T13:25:26Z</time>
      </trkpt>
      <trkpt lat="44.06153" lon="5.95671">
        <ele>519</ele>
        <time>2017-01-07T13:25:29Z</time>
      </trkpt>
      <trkpt lat="44.06155" lon="5.95672">
        <ele>519.2</ele>
        <time>2017-01-07T13:25:31Z</time>
      </trkpt>
      <trkpt lat="44.06159" lon="5.95674">
        <ele>519.4</ele>
        <time>2017-01-07T13:25:33Z</time>
      </trkpt>
      <trkpt lat="44.06163" lon="5.95675">
        <ele>519.6</ele>
        <time>2017-01-07T13:25:35Z</time>
      </trkpt>
      <trkpt lat="44.06167" lon="5.95675">
        <ele>519.8</ele>
        <time>2017-01-07T13:25:36Z</time>
      </trkpt>
      <trkpt lat="44.06172" lon="5.95676">
        <ele>520.1</ele>
        <time>2017-01-07T13:25:38Z</time>
      </trkpt>
      <trkpt lat="44.06176" lon="5.95678">
        <ele>520.4</ele>
        <time>2017-01-07T13:25:40Z</time>
      </trkpt>
      <trkpt lat="44.06179" lon="5.95681">
        <ele>520.6</ele>
        <time>2017-01-07T13:25:42Z</time>
      </trkpt>
      <trkpt lat="44.06181" lon="5.95684">
        <ele>520.8</ele>
        <time>2017-01-07T13:25:45Z</time>
      </trkpt>
      <trkpt lat="44.06184" lon="5.95687">
        <ele>521.1</ele>
        <time>2017-01-07T13:25:47Z</time>
      </trkpt>
      <trkpt lat="44.06187" lon="5.95691">
        <ele>521.4</ele>
        <time>2017-01-07T13:25:49Z</time>
      </trkpt>
      <trkpt lat="44.0619" lon="5.95695">
        <ele>521.6</ele>
        <time>2017-01-07T13:25:51Z</time>
      </trkpt>
      <trkpt lat="44.06193" lon="5.95698">
        <ele>521.7</ele>
        <time>2017-01-07T13:25:53Z</time>
      </trkpt>
      <trkpt lat="44.06196" lon="5.95702">
        <ele>521.1</ele>
        <time>2017-01-07T13:25:55Z</time>
      </trkpt>
      <trkpt lat="44.06197" lon="5.95707">
        <ele>520.4</ele>
        <time>2017-01-07T13:25:57Z</time>
      </trkpt>
      <trkpt lat="44.06199" lon="5.9571">
        <ele>519.8</ele>
        <time>2017-01-07T13:25:59Z</time>
      </trkpt>
      <trkpt lat="44.06203" lon="5.95713">
        <ele>519.4</ele>
        <time>2017-01-07T13:26:01Z</time>
      </trkpt>
      <trkpt lat="44.06206" lon="5.95715">
        <ele>519.5</ele>
        <time>2017-01-07T13:26:03Z</time>
      </trkpt>
      <trkpt lat="44.06209" lon="5.95718">
        <ele>519.9</ele>
        <time>2017-01-07T13:26:05Z</time>
      </trkpt>
      <trkpt lat="44.06212" lon="5.95721">
        <ele>520.6</ele>
        <time>2017-01-07T13:26:07Z</time>
      </trkpt>
      <trkpt lat="44.06217" lon="5.95724">
        <ele>521.3</ele>
        <time>2017-01-07T13:26:09Z</time>
      </trkpt>
      <trkpt lat="44.06221" lon="5.95726">
        <ele>521.9</ele>
        <time>2017-01-07T13:26:11Z</time>
      </trkpt>
      <trkpt lat="44.06224" lon="5.9573">
        <ele>521.8</ele>
        <time>2017-01-07T13:26:13Z</time>
      </trkpt>
      <trkpt lat="44.06226" lon="5.95733">
        <ele>521.7</ele>
        <time>2017-01-07T13:26:15Z</time>
      </trkpt>
      <trkpt lat="44.06228" lon="5.95737">
        <ele>521.7</ele>
        <time>2017-01-07T13:26:17Z</time>
      </trkpt>
      <trkpt lat="44.06231" lon="5.9574">
        <ele>522.2</ele>
        <time>2017-01-07T13:26:19Z</time>
      </trkpt>
      <trkpt lat="44.06234" lon="5.9575">
        <ele>523.3</ele>
        <time>2017-01-07T13:27:16Z</time>
      </trkpt>
      <trkpt lat="44.06238" lon="5.95752">
        <ele>523.8</ele>
        <time>2017-01-07T13:27:19Z</time>
      </trkpt>
      <trkpt lat="44.06243" lon="5.95753">
        <ele>524.5</ele>
        <time>2017-01-07T13:27:21Z</time>
      </trkpt>
      <trkpt lat="44.06246" lon="5.95756">
        <ele>525.2</ele>
        <time>2017-01-07T13:27:23Z</time>
      </trkpt>
      <trkpt lat="44.06249" lon="5.9576">
        <ele>525.4</ele>
        <time>2017-01-07T13:27:25Z</time>
      </trkpt>
      <trkpt lat="44.06252" lon="5.95761">
        <ele>525.5</ele>
        <time>2017-01-07T13:27:27Z</time>
      </trkpt>
      <trkpt lat="44.06254" lon="5.95763">
        <ele>525.8</ele>
        <time>2017-01-07T13:27:29Z</time>
      </trkpt>
      <trkpt lat="44.06258" lon="5.95765">
        <ele>526.4</ele>
        <time>2017-01-07T13:27:31Z</time>
      </trkpt>
      <trkpt lat="44.06262" lon="5.95767">
        <ele>527</ele>
        <time>2017-01-07T13:27:33Z</time>
      </trkpt>
      <trkpt lat="44.06265" lon="5.95767">
        <ele>527.6</ele>
        <time>2017-01-07T13:27:35Z</time>
      </trkpt>
      <trkpt lat="44.06268" lon="5.95768">
        <ele>528.1</ele>
        <time>2017-01-07T13:27:37Z</time>
      </trkpt>
      <trkpt lat="44.06272" lon="5.9577">
        <ele>528.5</ele>
        <time>2017-01-07T13:27:39Z</time>
      </trkpt>
      <trkpt lat="44.06276" lon="5.95771">
        <ele>528.6</ele>
        <time>2017-01-07T13:27:41Z</time>
      </trkpt>
      <trkpt lat="44.06279" lon="5.95773">
        <ele>528.7</ele>
        <time>2017-01-07T13:27:43Z</time>
      </trkpt>
      <trkpt lat="44.06282" lon="5.95774">
        <ele>529.1</ele>
        <time>2017-01-07T13:27:46Z</time>
      </trkpt>
      <trkpt lat="44.06286" lon="5.95776">
        <ele>529.6</ele>
        <time>2017-01-07T13:27:49Z</time>
      </trkpt>
      <trkpt lat="44.06288" lon="5.95777">
        <ele>530.1</ele>
        <time>2017-01-07T13:27:51Z</time>
      </trkpt>
      <trkpt lat="44.06292" lon="5.95778">
        <ele>531</ele>
        <time>2017-01-07T13:27:53Z</time>
      </trkpt>
      <trkpt lat="44.06298" lon="5.95779">
        <ele>532</ele>
        <time>2017-01-07T13:27:55Z</time>
      </trkpt>
      <trkpt lat="44.06301" lon="5.9578">
        <ele>532.6</ele>
        <time>2017-01-07T13:27:56Z</time>
      </trkpt>
      <trkpt lat="44.06304" lon="5.95781">
        <ele>533.1</ele>
        <time>2017-01-07T13:27:57Z</time>
      </trkpt>
      <trkpt lat="44.06306" lon="5.95783">
        <ele>533</ele>
        <time>2017-01-07T13:27:58Z</time>
      </trkpt>
      <trkpt lat="44.06309" lon="5.95785">
        <ele>532.9</ele>
        <time>2017-01-07T13:28:00Z</time>
      </trkpt>
      <trkpt lat="44.06313" lon="5.95788">
        <ele>532.6</ele>
        <time>2017-01-07T13:28:02Z</time>
      </trkpt>
      <trkpt lat="44.06315" lon="5.95792">
        <ele>532.1</ele>
        <time>2017-01-07T13:28:04Z</time>
      </trkpt>
      <trkpt lat="44.06318" lon="5.95796">
        <ele>532.2</ele>
        <time>2017-01-07T13:28:06Z</time>
      </trkpt>
      <trkpt lat="44.0632" lon="5.958">
        <ele>532.4</ele>
        <time>2017-01-07T13:28:08Z</time>
      </trkpt>
      <trkpt lat="44.0632" lon="5.95804">
        <ele>532.5</ele>
        <time>2017-01-07T13:28:10Z</time>
      </trkpt>
      <trkpt lat="44.06322" lon="5.95807">
        <ele>532.6</ele>
        <time>2017-01-07T13:28:12Z</time>
      </trkpt>
      <trkpt lat="44.06323" lon="5.95811">
        <ele>532.3</ele>
        <time>2017-01-07T13:28:14Z</time>
      </trkpt>
      <trkpt lat="44.06324" lon="5.95815">
        <ele>531.9</ele>
        <time>2017-01-07T13:28:16Z</time>
      </trkpt>
      <trkpt lat="44.06327" lon="5.95818">
        <ele>531.5</ele>
        <time>2017-01-07T13:28:18Z</time>
      </trkpt>
      <trkpt lat="44.06328" lon="5.95823">
        <ele>531.2</ele>
        <time>2017-01-07T13:28:20Z</time>
      </trkpt>
      <trkpt lat="44.06329" lon="5.95828">
        <ele>531.1</ele>
        <time>2017-01-07T13:28:22Z</time>
      </trkpt>
      <trkpt lat="44.0633" lon="5.95832">
        <ele>531.5</ele>
        <time>2017-01-07T13:28:24Z</time>
      </trkpt>
      <trkpt lat="44.06331" lon="5.95836">
        <ele>531.9</ele>
        <time>2017-01-07T13:28:26Z</time>
      </trkpt>
      <trkpt lat="44.06332" lon="5.9584">
        <ele>532.3</ele>
        <time>2017-01-07T13:28:28Z</time>
      </trkpt>
      <trkpt lat="44.06335" lon="5.95844">
        <ele>532.9</ele>
        <time>2017-01-07T13:28:30Z</time>
      </trkpt>
      <trkpt lat="44.0634" lon="5.95847">
        <ele>534.1</ele>
        <time>2017-01-07T13:28:32Z</time>
      </trkpt>
      <trkpt lat="44.06342" lon="5.95848">
        <ele>534.8</ele>
        <time>2017-01-07T13:28:33Z</time>
      </trkpt>
      <trkpt lat="44.06345" lon="5.95849">
        <ele>535.6</ele>
        <time>2017-01-07T13:28:34Z</time>
      </trkpt>
      <trkpt lat="44.06348" lon="5.95851">
        <ele>536.4</ele>
        <time>2017-01-07T13:28:35Z</time>
      </trkpt>
      <trkpt lat="44.06351" lon="5.95853">
        <ele>536.8</ele>
        <time>2017-01-07T13:28:36Z</time>
      </trkpt>
      <trkpt lat="44.06354" lon="5.95855">
        <ele>536.7</ele>
        <time>2017-01-07T13:28:37Z</time>
      </trkpt>
      <trkpt lat="44.06357" lon="5.95856">
        <ele>536.6</ele>
        <time>2017-01-07T13:28:38Z</time>
      </trkpt>
      <trkpt lat="44.0636" lon="5.9586">
        <ele>536.5</ele>
        <time>2017-01-07T13:28:40Z</time>
      </trkpt>
      <trkpt lat="44.06363" lon="5.95862">
        <ele>536.4</ele>
        <time>2017-01-07T13:28:41Z</time>
      </trkpt>
      <trkpt lat="44.06367" lon="5.95866">
        <ele>536.1</ele>
        <time>2017-01-07T13:28:43Z</time>
      </trkpt>
      <trkpt lat="44.06369" lon="5.9587">
        <ele>535.9</ele>
        <time>2017-01-07T13:28:45Z</time>
      </trkpt>
      <trkpt lat="44.06372" lon="5.95875">
        <ele>535.3</ele>
        <time>2017-01-07T13:28:47Z</time>
      </trkpt>
      <trkpt lat="44.06375" lon="5.95879">
        <ele>534.9</ele>
        <time>2017-01-07T13:28:49Z</time>
      </trkpt>
      <trkpt lat="44.06378" lon="5.95882">
        <ele>535</ele>
        <time>2017-01-07T13:28:51Z</time>
      </trkpt>
      <trkpt lat="44.0638" lon="5.95885">
        <ele>535.1</ele>
        <time>2017-01-07T13:28:53Z</time>
      </trkpt>
      <trkpt lat="44.06381" lon="5.95889">
        <ele>535.5</ele>
        <time>2017-01-07T13:28:56Z</time>
      </trkpt>
      <trkpt lat="44.06383" lon="5.95893">
        <ele>536.2</ele>
        <time>2017-01-07T13:28:59Z</time>
      </trkpt>
      <trkpt lat="44.06385" lon="5.95897">
        <ele>537</ele>
        <time>2017-01-07T13:29:02Z</time>
      </trkpt>
      <trkpt lat="44.06386" lon="5.959">
        <ele>536.6</ele>
        <time>2017-01-07T13:29:04Z</time>
      </trkpt>
      <trkpt lat="44.0639" lon="5.95901">
        <ele>536.1</ele>
        <time>2017-01-07T13:29:06Z</time>
      </trkpt>
      <trkpt lat="44.06394" lon="5.95903">
        <ele>535.9</ele>
        <time>2017-01-07T13:29:08Z</time>
      </trkpt>
      <trkpt lat="44.06397" lon="5.95906">
        <ele>536.2</ele>
        <time>2017-01-07T13:29:10Z</time>
      </trkpt>
      <trkpt lat="44.06402" lon="5.95908">
        <ele>536.5</ele>
        <time>2017-01-07T13:29:12Z</time>
      </trkpt>
      <trkpt lat="44.06406" lon="5.95911">
        <ele>536.6</ele>
        <time>2017-01-07T13:29:14Z</time>
      </trkpt>
      <trkpt lat="44.0641" lon="5.95914">
        <ele>537.2</ele>
        <time>2017-01-07T13:29:16Z</time>
      </trkpt>
      <trkpt lat="44.06413" lon="5.95917">
        <ele>538.1</ele>
        <time>2017-01-07T13:29:17Z</time>
      </trkpt>
      <trkpt lat="44.06418" lon="5.9592">
        <ele>538.6</ele>
        <time>2017-01-07T13:29:19Z</time>
      </trkpt>
      <trkpt lat="44.0642" lon="5.95924">
        <ele>538.3</ele>
        <time>2017-01-07T13:29:21Z</time>
      </trkpt>
      <trkpt lat="44.06423" lon="5.95927">
        <ele>538.2</ele>
        <time>2017-01-07T13:29:23Z</time>
      </trkpt>
      <trkpt lat="44.06427" lon="5.95929">
        <ele>538.9</ele>
        <time>2017-01-07T13:29:25Z</time>
      </trkpt>
      <trkpt lat="44.0643" lon="5.95931">
        <ele>539.4</ele>
        <time>2017-01-07T13:29:27Z</time>
      </trkpt>
      <trkpt lat="44.06433" lon="5.95933">
        <ele>539.8</ele>
        <time>2017-01-07T13:29:29Z</time>
      </trkpt>
      <trkpt lat="44.06435" lon="5.95936">
        <ele>540.1</ele>
        <time>2017-01-07T13:29:31Z</time>
      </trkpt>
      <trkpt lat="44.06437" lon="5.95939">
        <ele>540.3</ele>
        <time>2017-01-07T13:29:33Z</time>
      </trkpt>
      <trkpt lat="44.0644" lon="5.95941">
        <ele>540.8</ele>
        <time>2017-01-07T13:29:35Z</time>
      </trkpt>
      <trkpt lat="44.06442" lon="5.95944">
        <ele>541.3</ele>
        <time>2017-01-07T13:29:37Z</time>
      </trkpt>
      <trkpt lat="44.06445" lon="5.95946">
        <ele>541.7</ele>
        <time>2017-01-07T13:29:39Z</time>
      </trkpt>
      <trkpt lat="44.06449" lon="5.95949">
        <ele>541.5</ele>
        <time>2017-01-07T13:29:41Z</time>
      </trkpt>
      <trkpt lat="44.06452" lon="5.95952">
        <ele>541.3</ele>
        <time>2017-01-07T13:29:43Z</time>
      </trkpt>
      <trkpt lat="44.06455" lon="5.95954">
        <ele>541.6</ele>
        <time>2017-01-07T13:29:45Z</time>
      </trkpt>
      <trkpt lat="44.06458" lon="5.95956">
        <ele>542</ele>
        <time>2017-01-07T13:29:47Z</time>
      </trkpt>
      <trkpt lat="44.06461" lon="5.95958">
        <ele>542.5</ele>
        <time>2017-01-07T13:29:49Z</time>
      </trkpt>
      <trkpt lat="44.06464" lon="5.95959">
        <ele>543</ele>
        <time>2017-01-07T13:29:51Z</time>
      </trkpt>
      <trkpt lat="44.06467" lon="5.95961">
        <ele>543.5</ele>
        <time>2017-01-07T13:29:53Z</time>
      </trkpt>
      <trkpt lat="44.0647" lon="5.95963">
        <ele>543.7</ele>
        <time>2017-01-07T13:29:54Z</time>
      </trkpt>
      <trkpt lat="44.06475" lon="5.95966">
        <ele>543.8</ele>
        <time>2017-01-07T13:29:56Z</time>
      </trkpt>
      <trkpt lat="44.0648" lon="5.95967">
        <ele>543.8</ele>
        <time>2017-01-07T13:29:58Z</time>
      </trkpt>
      <trkpt lat="44.06484" lon="5.95968">
        <ele>543.8</ele>
        <time>2017-01-07T13:30:00Z</time>
      </trkpt>
      <trkpt lat="44.06489" lon="5.9597">
        <ele>544.2</ele>
        <time>2017-01-07T13:30:02Z</time>
      </trkpt>
      <trkpt lat="44.06493" lon="5.95972">
        <ele>544.5</ele>
        <time>2017-01-07T13:30:04Z</time>
      </trkpt>
      <trkpt lat="44.06497" lon="5.95975">
        <ele>544.5</ele>
        <time>2017-01-07T13:30:06Z</time>
      </trkpt>
      <trkpt lat="44.06501" lon="5.95977">
        <ele>544.6</ele>
        <time>2017-01-07T13:30:08Z</time>
      </trkpt>
      <trkpt lat="44.06505" lon="5.95979">
        <ele>544.8</ele>
        <time>2017-01-07T13:30:10Z</time>
      </trkpt>
      <trkpt lat="44.06509" lon="5.95982">
        <ele>545.1</ele>
        <time>2017-01-07T13:30:12Z</time>
      </trkpt>
      <trkpt lat="44.06512" lon="5.95984">
        <ele>545.4</ele>
        <time>2017-01-07T13:30:14Z</time>
      </trkpt>
      <trkpt lat="44.06515" lon="5.95986">
        <ele>545.9</ele>
        <time>2017-01-07T13:30:16Z</time>
      </trkpt>
      <trkpt lat="44.06519" lon="5.95987">
        <ele>546.6</ele>
        <time>2017-01-07T13:30:18Z</time>
      </trkpt>
      <trkpt lat="44.06522" lon="5.95988">
        <ele>547.9</ele>
        <time>2017-01-07T13:30:20Z</time>
      </trkpt>
      <trkpt lat="44.06527" lon="5.95989">
        <ele>549.2</ele>
        <time>2017-01-07T13:30:22Z</time>
      </trkpt>
      <trkpt lat="44.06531" lon="5.95988">
        <ele>550.6</ele>
        <time>2017-01-07T13:30:24Z</time>
      </trkpt>
      <trkpt lat="44.06535" lon="5.95987">
        <ele>552.1</ele>
        <time>2017-01-07T13:30:26Z</time>
      </trkpt>
      <trkpt lat="44.0654" lon="5.95984">
        <ele>553.6</ele>
        <time>2017-01-07T13:30:28Z</time>
      </trkpt>
      <trkpt lat="44.06544" lon="5.95982">
        <ele>554.3</ele>
        <time>2017-01-07T13:30:30Z</time>
      </trkpt>
      <trkpt lat="44.06547" lon="5.95984">
        <ele>554.7</ele>
        <time>2017-01-07T13:30:32Z</time>
      </trkpt>
      <trkpt lat="44.06549" lon="5.95987">
        <ele>554.9</ele>
        <time>2017-01-07T13:30:34Z</time>
      </trkpt>
      <trkpt lat="44.0655" lon="5.95992">
        <ele>555</ele>
        <time>2017-01-07T13:30:36Z</time>
      </trkpt>
      <trkpt lat="44.06553" lon="5.95996">
        <ele>555.2</ele>
        <time>2017-01-07T13:30:38Z</time>
      </trkpt>
      <trkpt lat="44.06555" lon="5.96">
        <ele>555.6</ele>
        <time>2017-01-07T13:30:40Z</time>
      </trkpt>
      <trkpt lat="44.06559" lon="5.96004">
        <ele>555.6</ele>
        <time>2017-01-07T13:30:42Z</time>
      </trkpt>
      <trkpt lat="44.06563" lon="5.96007">
        <ele>555.2</ele>
        <time>2017-01-07T13:30:44Z</time>
      </trkpt>
      <trkpt lat="44.06566" lon="5.96011">
        <ele>555</ele>
        <time>2017-01-07T13:30:46Z</time>
      </trkpt>
      <trkpt lat="44.06569" lon="5.96015">
        <ele>554.8</ele>
        <time>2017-01-07T13:30:48Z</time>
      </trkpt>
      <trkpt lat="44.06572" lon="5.9602">
        <ele>555.3</ele>
        <time>2017-01-07T13:30:50Z</time>
      </trkpt>
      <trkpt lat="44.06575" lon="5.96023">
        <ele>555.8</ele>
        <time>2017-01-07T13:30:52Z</time>
      </trkpt>
      <trkpt lat="44.06578" lon="5.96026">
        <ele>556.3</ele>
        <time>2017-01-07T13:30:54Z</time>
      </trkpt>
      <trkpt lat="44.06582" lon="5.96027">
        <ele>556.7</ele>
        <time>2017-01-07T13:30:56Z</time>
      </trkpt>
      <trkpt lat="44.06585" lon="5.96028">
        <ele>556.9</ele>
        <time>2017-01-07T13:30:58Z</time>
      </trkpt>
      <trkpt lat="44.06589" lon="5.96031">
        <ele>557</ele>
        <time>2017-01-07T13:31:00Z</time>
      </trkpt>
      <trkpt lat="44.06594" lon="5.96032">
        <ele>557</ele>
        <time>2017-01-07T13:31:02Z</time>
      </trkpt>
      <trkpt lat="44.06599" lon="5.96033">
        <ele>556.8</ele>
        <time>2017-01-07T13:31:04Z</time>
      </trkpt>
      <trkpt lat="44.06603" lon="5.96035">
        <ele>556.6</ele>
        <time>2017-01-07T13:31:06Z</time>
      </trkpt>
      <trkpt lat="44.06606" lon="5.96037">
        <ele>556.3</ele>
        <time>2017-01-07T13:31:08Z</time>
      </trkpt>
      <trkpt lat="44.06609" lon="5.96039">
        <ele>556.5</ele>
        <time>2017-01-07T13:31:10Z</time>
      </trkpt>
      <trkpt lat="44.06613" lon="5.96041">
        <ele>556.8</ele>
        <time>2017-01-07T13:31:12Z</time>
      </trkpt>
      <trkpt lat="44.06616" lon="5.96043">
        <ele>556.9</ele>
        <time>2017-01-07T13:31:14Z</time>
      </trkpt>
      <trkpt lat="44.0662" lon="5.96045">
        <ele>556.9</ele>
        <time>2017-01-07T13:31:16Z</time>
      </trkpt>
      <trkpt lat="44.06624" lon="5.96046">
        <ele>556.9</ele>
        <time>2017-01-07T13:31:18Z</time>
      </trkpt>
      <trkpt lat="44.06628" lon="5.96047">
        <ele>557</ele>
        <time>2017-01-07T13:31:20Z</time>
      </trkpt>
      <trkpt lat="44.06631" lon="5.96049">
        <ele>557.5</ele>
        <time>2017-01-07T13:31:22Z</time>
      </trkpt>
      <trkpt lat="44.06633" lon="5.9605">
        <ele>558</ele>
        <time>2017-01-07T13:31:24Z</time>
      </trkpt>
      <trkpt lat="44.06636" lon="5.96052">
        <ele>558.5</ele>
        <time>2017-01-07T13:31:26Z</time>
      </trkpt>
      <trkpt lat="44.0664" lon="5.96053">
        <ele>559.2</ele>
        <time>2017-01-07T13:31:28Z</time>
      </trkpt>
      <trkpt lat="44.06643" lon="5.96054">
        <ele>559.6</ele>
        <time>2017-01-07T13:31:30Z</time>
      </trkpt>
      <trkpt lat="44.06647" lon="5.96056">
        <ele>559.2</ele>
        <time>2017-01-07T13:31:32Z</time>
      </trkpt>
      <trkpt lat="44.06651" lon="5.96057">
        <ele>558.8</ele>
        <time>2017-01-07T13:31:34Z</time>
      </trkpt>
      <trkpt lat="44.06654" lon="5.96058">
        <ele>559.1</ele>
        <time>2017-01-07T13:31:36Z</time>
      </trkpt>
      <trkpt lat="44.06657" lon="5.96059">
        <ele>559.6</ele>
        <time>2017-01-07T13:31:38Z</time>
      </trkpt>
      <trkpt lat="44.06661" lon="5.96061">
        <ele>560.1</ele>
        <time>2017-01-07T13:31:40Z</time>
      </trkpt>
      <trkpt lat="44.06664" lon="5.96064">
        <ele>560.2</ele>
        <time>2017-01-07T13:31:42Z</time>
      </trkpt>
      <trkpt lat="44.06668" lon="5.96066">
        <ele>560</ele>
        <time>2017-01-07T13:31:44Z</time>
      </trkpt>
      <trkpt lat="44.06671" lon="5.96067">
        <ele>560</ele>
        <time>2017-01-07T13:31:46Z</time>
      </trkpt>
      <trkpt lat="44.06675" lon="5.96068">
        <ele>560.3</ele>
        <time>2017-01-07T13:31:48Z</time>
      </trkpt>
      <trkpt lat="44.06679" lon="5.96069">
        <ele>560.4</ele>
        <time>2017-01-07T13:31:50Z</time>
      </trkpt>
      <trkpt lat="44.06683" lon="5.96069">
        <ele>560.2</ele>
        <time>2017-01-07T13:31:52Z</time>
      </trkpt>
      <trkpt lat="44.06687" lon="5.9607">
        <ele>560.5</ele>
        <time>2017-01-07T13:31:54Z</time>
      </trkpt>
      <trkpt lat="44.06691" lon="5.9607">
        <ele>561.1</ele>
        <time>2017-01-07T13:31:56Z</time>
      </trkpt>
      <trkpt lat="44.06695" lon="5.9607">
        <ele>561.4</ele>
        <time>2017-01-07T13:31:58Z</time>
      </trkpt>
      <trkpt lat="44.06699" lon="5.96069">
        <ele>561.7</ele>
        <time>2017-01-07T13:32:00Z</time>
      </trkpt>
      <trkpt lat="44.06702" lon="5.96068">
        <ele>562.1</ele>
        <time>2017-01-07T13:32:02Z</time>
      </trkpt>
      <trkpt lat="44.06709" lon="5.96064">
        <ele>563.2</ele>
        <time>2017-01-07T13:32:04Z</time>
      </trkpt>
      <trkpt lat="44.06712" lon="5.96062">
        <ele>563.9</ele>
        <time>2017-01-07T13:32:06Z</time>
      </trkpt>
      <trkpt lat="44.06715" lon="5.96059">
        <ele>564.5</ele>
        <time>2017-01-07T13:32:09Z</time>
      </trkpt>
      <trkpt lat="44.06718" lon="5.96057">
        <ele>565.1</ele>
        <time>2017-01-07T13:32:12Z</time>
      </trkpt>
      <trkpt lat="44.06721" lon="5.96055">
        <ele>565.6</ele>
        <time>2017-01-07T13:32:16Z</time>
      </trkpt>
      <trkpt lat="44.06725" lon="5.96053">
        <ele>565.9</ele>
        <time>2017-01-07T13:34:23Z</time>
      </trkpt>
      <trkpt lat="44.06728" lon="5.9605">
        <ele>566</ele>
        <time>2017-01-07T13:34:24Z</time>
      </trkpt>
      <trkpt lat="44.06732" lon="5.96047">
        <ele>566</ele>
        <time>2017-01-07T13:34:25Z</time>
      </trkpt>
      <trkpt lat="44.06736" lon="5.96043">
        <ele>566</ele>
        <time>2017-01-07T13:34:27Z</time>
      </trkpt>
      <trkpt lat="44.06735" lon="5.96036">
        <ele>566.1</ele>
        <time>2017-01-07T13:34:29Z</time>
      </trkpt>
      <trkpt lat="44.06735" lon="5.9603">
        <ele>566.3</ele>
        <time>2017-01-07T13:34:30Z</time>
      </trkpt>
      <trkpt lat="44.06734" lon="5.96025">
        <ele>566.6</ele>
        <time>2017-01-07T13:34:31Z</time>
      </trkpt>
      <trkpt lat="44.06732" lon="5.9602">
        <ele>567.4</ele>
        <time>2017-01-07T13:34:32Z</time>
      </trkpt>
      <trkpt lat="44.06728" lon="5.96026">
        <ele>568.5</ele>
        <time>2017-01-07T13:34:34Z</time>
      </trkpt>
      <trkpt lat="44.06724" lon="5.96031">
        <ele>569.8</ele>
        <time>2017-01-07T13:34:39Z</time>
      </trkpt>
      <trkpt lat="44.06715" lon="5.96049">
        <ele>572.4</ele>
        <time>2017-01-07T13:35:25Z</time>
      </trkpt>
      <trkpt lat="44.06712" lon="5.96047">
        <ele>573</ele>
        <time>2017-01-07T13:35:28Z</time>
      </trkpt>
      <trkpt lat="44.06709" lon="5.96044">
        <ele>573.7</ele>
        <time>2017-01-07T13:35:31Z</time>
      </trkpt>
      <trkpt lat="44.06706" lon="5.9604">
        <ele>574.4</ele>
        <time>2017-01-07T13:35:34Z</time>
      </trkpt>
      <trkpt lat="44.06703" lon="5.96037">
        <ele>575.1</ele>
        <time>2017-01-07T13:35:37Z</time>
      </trkpt>
      <trkpt lat="44.067" lon="5.96034">
        <ele>575.9</ele>
        <time>2017-01-07T13:35:39Z</time>
      </trkpt>
      <trkpt lat="44.06698" lon="5.96031">
        <ele>576.5</ele>
        <time>2017-01-07T13:35:41Z</time>
      </trkpt>
      <trkpt lat="44.06696" lon="5.96029">
        <ele>577.1</ele>
        <time>2017-01-07T13:35:43Z</time>
      </trkpt>
      <trkpt lat="44.06693" lon="5.96027">
        <ele>577.5</ele>
        <time>2017-01-07T13:35:45Z</time>
      </trkpt>
      <trkpt lat="44.06691" lon="5.96024">
        <ele>578</ele>
        <time>2017-01-07T13:35:47Z</time>
      </trkpt>
      <trkpt lat="44.06689" lon="5.96022">
        <ele>578.4</ele>
        <time>2017-01-07T13:35:49Z</time>
      </trkpt>
      <trkpt lat="44.06686" lon="5.9602">
        <ele>578.9</ele>
        <time>2017-01-07T13:35:52Z</time>
      </trkpt>
      <trkpt lat="44.06683" lon="5.96016">
        <ele>579.4</ele>
        <time>2017-01-07T13:35:55Z</time>
      </trkpt>
      <trkpt lat="44.0668" lon="5.96014">
        <ele>579.8</ele>
        <time>2017-01-07T13:35:58Z</time>
      </trkpt>
      <trkpt lat="44.06677" lon="5.96011">
        <ele>580.1</ele>
        <time>2017-01-07T13:36:01Z</time>
      </trkpt>
      <trkpt lat="44.06675" lon="5.96004">
        <ele>580.3</ele>
        <time>2017-01-07T13:36:04Z</time>
      </trkpt>
      <trkpt lat="44.06673" lon="5.96001">
        <ele>580.3</ele>
        <time>2017-01-07T13:36:06Z</time>
      </trkpt>
      <trkpt lat="44.06672" lon="5.95997">
        <ele>580.2</ele>
        <time>2017-01-07T13:36:08Z</time>
      </trkpt>
      <trkpt lat="44.06669" lon="5.95993">
        <ele>580.5</ele>
        <time>2017-01-07T13:36:11Z</time>
      </trkpt>
      <trkpt lat="44.06667" lon="5.9599">
        <ele>580.8</ele>
        <time>2017-01-07T13:36:13Z</time>
      </trkpt>
      <trkpt lat="44.06665" lon="5.95988">
        <ele>581</ele>
        <time>2017-01-07T13:36:15Z</time>
      </trkpt>
      <trkpt lat="44.06663" lon="5.95985">
        <ele>580.9</ele>
        <time>2017-01-07T13:36:18Z</time>
      </trkpt>
      <trkpt lat="44.06661" lon="5.95981">
        <ele>580.7</ele>
        <time>2017-01-07T13:36:21Z</time>
      </trkpt>
      <trkpt lat="44.06658" lon="5.95977">
        <ele>580.6</ele>
        <time>2017-01-07T13:36:24Z</time>
      </trkpt>
      <trkpt lat="44.06657" lon="5.95973">
        <ele>580.8</ele>
        <time>2017-01-07T13:36:26Z</time>
      </trkpt>
      <trkpt lat="44.06656" lon="5.95968">
        <ele>581</ele>
        <time>2017-01-07T13:36:28Z</time>
      </trkpt>
      <trkpt lat="44.06656" lon="5.95964">
        <ele>581.2</ele>
        <time>2017-01-07T13:36:30Z</time>
      </trkpt>
      <trkpt lat="44.06654" lon="5.95961">
        <ele>581.3</ele>
        <time>2017-01-07T13:36:32Z</time>
      </trkpt>
      <trkpt lat="44.06652" lon="5.95956">
        <ele>581.3</ele>
        <time>2017-01-07T13:36:35Z</time>
      </trkpt>
      <trkpt lat="44.0665" lon="5.95952">
        <ele>581.6</ele>
        <time>2017-01-07T13:36:38Z</time>
      </trkpt>
      <trkpt lat="44.06649" lon="5.95948">
        <ele>582.3</ele>
        <time>2017-01-07T13:36:41Z</time>
      </trkpt>
      <trkpt lat="44.06648" lon="5.95944">
        <ele>582.8</ele>
        <time>2017-01-07T13:36:43Z</time>
      </trkpt>
      <trkpt lat="44.06647" lon="5.9594">
        <ele>583.4</ele>
        <time>2017-01-07T13:36:46Z</time>
      </trkpt>
      <trkpt lat="44.06646" lon="5.95935">
        <ele>583.8</ele>
        <time>2017-01-07T13:36:48Z</time>
      </trkpt>
      <trkpt lat="44.06645" lon="5.95932">
        <ele>584.1</ele>
        <time>2017-01-07T13:36:50Z</time>
      </trkpt>
      <trkpt lat="44.06642" lon="5.95928">
        <ele>584.6</ele>
        <time>2017-01-07T13:36:52Z</time>
      </trkpt>
      <trkpt lat="44.0664" lon="5.95923">
        <ele>585.2</ele>
        <time>2017-01-07T13:36:54Z</time>
      </trkpt>
      <trkpt lat="44.06638" lon="5.95918">
        <ele>585.7</ele>
        <time>2017-01-07T13:36:56Z</time>
      </trkpt>
      <trkpt lat="44.06635" lon="5.95913">
        <ele>585.9</ele>
        <time>2017-01-07T13:36:58Z</time>
      </trkpt>
      <trkpt lat="44.06633" lon="5.95908">
        <ele>586.1</ele>
        <time>2017-01-07T13:37:00Z</time>
      </trkpt>
      <trkpt lat="44.0663" lon="5.95904">
        <ele>586.2</ele>
        <time>2017-01-07T13:37:02Z</time>
      </trkpt>
      <trkpt lat="44.06629" lon="5.959">
        <ele>586.3</ele>
        <time>2017-01-07T13:37:04Z</time>
      </trkpt>
      <trkpt lat="44.06629" lon="5.95894">
        <ele>586.2</ele>
        <time>2017-01-07T13:37:06Z</time>
      </trkpt>
      <trkpt lat="44.06628" lon="5.95888">
        <ele>585.9</ele>
        <time>2017-01-07T13:37:08Z</time>
      </trkpt>
      <trkpt lat="44.06628" lon="5.95882">
        <ele>585.9</ele>
        <time>2017-01-07T13:37:10Z</time>
      </trkpt>
      <trkpt lat="44.06628" lon="5.95877">
        <ele>585.9</ele>
        <time>2017-01-07T13:37:12Z</time>
      </trkpt>
      <trkpt lat="44.06627" lon="5.95873">
        <ele>586</ele>
        <time>2017-01-07T13:37:14Z</time>
      </trkpt>
      <trkpt lat="44.06628" lon="5.95869">
        <ele>586.3</ele>
        <time>2017-01-07T13:37:16Z</time>
      </trkpt>
      <trkpt lat="44.06629" lon="5.95864">
        <ele>586.6</ele>
        <time>2017-01-07T13:37:19Z</time>
      </trkpt>
      <trkpt lat="44.0663" lon="5.95859">
        <ele>586.6</ele>
        <time>2017-01-07T13:37:22Z</time>
      </trkpt>
      <trkpt lat="44.06629" lon="5.95855">
        <ele>586.6</ele>
        <time>2017-01-07T13:37:24Z</time>
      </trkpt>
      <trkpt lat="44.06629" lon="5.9585">
        <ele>586.6</ele>
        <time>2017-01-07T13:37:26Z</time>
      </trkpt>
      <trkpt lat="44.06628" lon="5.95846">
        <ele>586.9</ele>
        <time>2017-01-07T13:37:28Z</time>
      </trkpt>
      <trkpt lat="44.06627" lon="5.95842">
        <ele>587.2</ele>
        <time>2017-01-07T13:37:30Z</time>
      </trkpt>
      <trkpt lat="44.06626" lon="5.95838">
        <ele>587.5</ele>
        <time>2017-01-07T13:37:32Z</time>
      </trkpt>
      <trkpt lat="44.06624" lon="5.95835">
        <ele>588.1</ele>
        <time>2017-01-07T13:37:34Z</time>
      </trkpt>
      <trkpt lat="44.06623" lon="5.95832">
        <ele>588.7</ele>
        <time>2017-01-07T13:37:36Z</time>
      </trkpt>
      <trkpt lat="44.06621" lon="5.95828">
        <ele>589.4</ele>
        <time>2017-01-07T13:37:38Z</time>
      </trkpt>
      <trkpt lat="44.06619" lon="5.95825">
        <ele>590</ele>
        <time>2017-01-07T13:37:40Z</time>
      </trkpt>
      <trkpt lat="44.06617" lon="5.95821">
        <ele>590.6</ele>
        <time>2017-01-07T13:37:42Z</time>
      </trkpt>
      <trkpt lat="44.06614" lon="5.95822">
        <ele>591.2</ele>
        <time>2017-01-07T13:37:47Z</time>
      </trkpt>
      <trkpt lat="44.06613" lon="5.95818">
        <ele>591.7</ele>
        <time>2017-01-07T13:37:50Z</time>
      </trkpt>
      <trkpt lat="44.06611" lon="5.95812">
        <ele>592.5</ele>
        <time>2017-01-07T13:37:52Z</time>
      </trkpt>
      <trkpt lat="44.06609" lon="5.95808">
        <ele>593.2</ele>
        <time>2017-01-07T13:37:54Z</time>
      </trkpt>
      <trkpt lat="44.06606" lon="5.95805">
        <ele>593.8</ele>
        <time>2017-01-07T13:37:56Z</time>
      </trkpt>
      <trkpt lat="44.06603" lon="5.95801">
        <ele>594.5</ele>
        <time>2017-01-07T13:37:58Z</time>
      </trkpt>
      <trkpt lat="44.06601" lon="5.95797">
        <ele>595.1</ele>
        <time>2017-01-07T13:38:01Z</time>
      </trkpt>
      <trkpt lat="44.06599" lon="5.95794">
        <ele>595.6</ele>
        <time>2017-01-07T13:38:04Z</time>
      </trkpt>
      <trkpt lat="44.06598" lon="5.95789">
        <ele>596.6</ele>
        <time>2017-01-07T13:38:07Z</time>
      </trkpt>
      <trkpt lat="44.06597" lon="5.95785">
        <ele>597.4</ele>
        <time>2017-01-07T13:38:09Z</time>
      </trkpt>
      <trkpt lat="44.06595" lon="5.95782">
        <ele>598.1</ele>
        <time>2017-01-07T13:38:11Z</time>
      </trkpt>
      <trkpt lat="44.06593" lon="5.95778">
        <ele>598.5</ele>
        <time>2017-01-07T13:38:14Z</time>
      </trkpt>
      <trkpt lat="44.0659" lon="5.95774">
        <ele>599</ele>
        <time>2017-01-07T13:38:17Z</time>
      </trkpt>
      <trkpt lat="44.06588" lon="5.95773">
        <ele>599.5</ele>
        <time>2017-01-07T13:38:19Z</time>
      </trkpt>
      <trkpt lat="44.06585" lon="5.95771">
        <ele>600.2</ele>
        <time>2017-01-07T13:38:21Z</time>
      </trkpt>
      <trkpt lat="44.06584" lon="5.95766">
        <ele>601</ele>
        <time>2017-01-07T13:38:23Z</time>
      </trkpt>
      <trkpt lat="44.06582" lon="5.95762">
        <ele>601.4</ele>
        <time>2017-01-07T13:38:26Z</time>
      </trkpt>
      <trkpt lat="44.06578" lon="5.95759">
        <ele>601.8</ele>
        <time>2017-01-07T13:38:30Z</time>
      </trkpt>
      <trkpt lat="44.06578" lon="5.95753">
        <ele>602.5</ele>
        <time>2017-01-07T13:38:33Z</time>
      </trkpt>
      <trkpt lat="44.06579" lon="5.95748">
        <ele>603.2</ele>
        <time>2017-01-07T13:38:35Z</time>
      </trkpt>
      <trkpt lat="44.06579" lon="5.95744">
        <ele>603.8</ele>
        <time>2017-01-07T13:38:37Z</time>
      </trkpt>
      <trkpt lat="44.0658" lon="5.95739">
        <ele>603.7</ele>
        <time>2017-01-07T13:38:40Z</time>
      </trkpt>
      <trkpt lat="44.06582" lon="5.95735">
        <ele>603.7</ele>
        <time>2017-01-07T13:38:42Z</time>
      </trkpt>
      <trkpt lat="44.06581" lon="5.95731">
        <ele>604</ele>
        <time>2017-01-07T13:38:45Z</time>
      </trkpt>
      <trkpt lat="44.06579" lon="5.95728">
        <ele>604.4</ele>
        <time>2017-01-07T13:38:48Z</time>
      </trkpt>
      <trkpt lat="44.06577" lon="5.95724">
        <ele>604.8</ele>
        <time>2017-01-07T13:38:51Z</time>
      </trkpt>
      <trkpt lat="44.06574" lon="5.9572">
        <ele>605.4</ele>
        <time>2017-01-07T13:38:54Z</time>
      </trkpt>
      <trkpt lat="44.06572" lon="5.95717">
        <ele>605.9</ele>
        <time>2017-01-07T13:38:56Z</time>
      </trkpt>
      <trkpt lat="44.06571" lon="5.95713">
        <ele>606</ele>
        <time>2017-01-07T13:38:58Z</time>
      </trkpt>
      <trkpt lat="44.06571" lon="5.95709">
        <ele>606.2</ele>
        <time>2017-01-07T13:39:00Z</time>
      </trkpt>
      <trkpt lat="44.06568" lon="5.95706">
        <ele>606.5</ele>
        <time>2017-01-07T13:39:03Z</time>
      </trkpt>
      <trkpt lat="44.06564" lon="5.95708">
        <ele>607.3</ele>
        <time>2017-01-07T13:39:05Z</time>
      </trkpt>
      <trkpt lat="44.06561" lon="5.95709">
        <ele>607.9</ele>
        <time>2017-01-07T13:39:07Z</time>
      </trkpt>
      <trkpt lat="44.06559" lon="5.95705">
        <ele>608.7</ele>
        <time>2017-01-07T13:39:10Z</time>
      </trkpt>
      <trkpt lat="44.06558" lon="5.957">
        <ele>609.4</ele>
        <time>2017-01-07T13:39:13Z</time>
      </trkpt>
      <trkpt lat="44.06558" lon="5.95697">
        <ele>609.9</ele>
        <time>2017-01-07T13:39:16Z</time>
      </trkpt>
      <trkpt lat="44.06555" lon="5.95694">
        <ele>610.1</ele>
        <time>2017-01-07T13:39:20Z</time>
      </trkpt>
      <trkpt lat="44.06553" lon="5.9569">
        <ele>610.4</ele>
        <time>2017-01-07T13:39:24Z</time>
      </trkpt>
      <trkpt lat="44.06552" lon="5.95685">
        <ele>610.7</ele>
        <time>2017-01-07T13:39:27Z</time>
      </trkpt>
      <trkpt lat="44.0655" lon="5.95682">
        <ele>611</ele>
        <time>2017-01-07T13:39:30Z</time>
      </trkpt>
      <trkpt lat="44.06546" lon="5.95683">
        <ele>611.3</ele>
        <time>2017-01-07T13:39:33Z</time>
      </trkpt>
      <trkpt lat="44.06544" lon="5.9568">
        <ele>611.8</ele>
        <time>2017-01-07T13:39:36Z</time>
      </trkpt>
      <trkpt lat="44.06542" lon="5.95675">
        <ele>612.3</ele>
        <time>2017-01-07T13:39:39Z</time>
      </trkpt>
      <trkpt lat="44.0654" lon="5.95671">
        <ele>612.9</ele>
        <time>2017-01-07T13:39:42Z</time>
      </trkpt>
      <trkpt lat="44.06537" lon="5.95667">
        <ele>613.6</ele>
        <time>2017-01-07T13:39:45Z</time>
      </trkpt>
      <trkpt lat="44.06534" lon="5.95664">
        <ele>614.2</ele>
        <time>2017-01-07T13:39:47Z</time>
      </trkpt>
      <trkpt lat="44.06532" lon="5.95662">
        <ele>614.6</ele>
        <time>2017-01-07T13:39:49Z</time>
      </trkpt>
      <trkpt lat="44.0653" lon="5.9566">
        <ele>614.8</ele>
        <time>2017-01-07T13:39:52Z</time>
      </trkpt>
      <trkpt lat="44.06529" lon="5.95654">
        <ele>615.2</ele>
        <time>2017-01-07T13:39:55Z</time>
      </trkpt>
      <trkpt lat="44.06529" lon="5.9565">
        <ele>615.7</ele>
        <time>2017-01-07T13:39:58Z</time>
      </trkpt>
      <trkpt lat="44.06528" lon="5.95646">
        <ele>616.3</ele>
        <time>2017-01-07T13:40:01Z</time>
      </trkpt>
      <trkpt lat="44.06526" lon="5.95642">
        <ele>616.9</ele>
        <time>2017-01-07T13:40:04Z</time>
      </trkpt>
      <trkpt lat="44.06525" lon="5.95637">
        <ele>617.5</ele>
        <time>2017-01-07T13:40:07Z</time>
      </trkpt>
      <trkpt lat="44.06525" lon="5.95632">
        <ele>618</ele>
        <time>2017-01-07T13:40:10Z</time>
      </trkpt>
      <trkpt lat="44.06525" lon="5.95627">
        <ele>618.4</ele>
        <time>2017-01-07T13:40:13Z</time>
      </trkpt>
      <trkpt lat="44.06523" lon="5.95623">
        <ele>619</ele>
        <time>2017-01-07T13:40:17Z</time>
      </trkpt>
      <trkpt lat="44.06521" lon="5.9562">
        <ele>619.6</ele>
        <time>2017-01-07T13:40:20Z</time>
      </trkpt>
      <trkpt lat="44.06519" lon="5.95616">
        <ele>620.1</ele>
        <time>2017-01-07T13:40:23Z</time>
      </trkpt>
      <trkpt lat="44.06517" lon="5.95614">
        <ele>620.9</ele>
        <time>2017-01-07T13:40:26Z</time>
      </trkpt>
      <trkpt lat="44.06514" lon="5.95612">
        <ele>621.8</ele>
        <time>2017-01-07T13:40:29Z</time>
      </trkpt>
      <trkpt lat="44.06511" lon="5.95609">
        <ele>622.7</ele>
        <time>2017-01-07T13:40:31Z</time>
      </trkpt>
      <trkpt lat="44.06509" lon="5.95605">
        <ele>623.1</ele>
        <time>2017-01-07T13:40:33Z</time>
      </trkpt>
      <trkpt lat="44.06506" lon="5.95602">
        <ele>623.6</ele>
        <time>2017-01-07T13:40:35Z</time>
      </trkpt>
      <trkpt lat="44.06502" lon="5.95599">
        <ele>623.9</ele>
        <time>2017-01-07T13:40:37Z</time>
      </trkpt>
      <trkpt lat="44.065" lon="5.95595">
        <ele>624</ele>
        <time>2017-01-07T13:40:39Z</time>
      </trkpt>
      <trkpt lat="44.065" lon="5.95591">
        <ele>624.1</ele>
        <time>2017-01-07T13:40:41Z</time>
      </trkpt>
      <trkpt lat="44.06499" lon="5.95587">
        <ele>624.1</ele>
        <time>2017-01-07T13:40:43Z</time>
      </trkpt>
      <trkpt lat="44.06498" lon="5.95583">
        <ele>624.1</ele>
        <time>2017-01-07T13:40:46Z</time>
      </trkpt>
      <trkpt lat="44.06497" lon="5.95578">
        <ele>624</ele>
        <time>2017-01-07T13:40:49Z</time>
      </trkpt>
      <trkpt lat="44.06495" lon="5.95574">
        <ele>624.3</ele>
        <time>2017-01-07T13:40:52Z</time>
      </trkpt>
      <trkpt lat="44.06493" lon="5.9557">
        <ele>624.8</ele>
        <time>2017-01-07T13:40:55Z</time>
      </trkpt>
      <trkpt lat="44.06491" lon="5.95566">
        <ele>625.1</ele>
        <time>2017-01-07T13:40:58Z</time>
      </trkpt>
      <trkpt lat="44.06488" lon="5.95563">
        <ele>624.8</ele>
        <time>2017-01-07T13:41:01Z</time>
      </trkpt>
      <trkpt lat="44.06487" lon="5.95559">
        <ele>624.7</ele>
        <time>2017-01-07T13:41:03Z</time>
      </trkpt>
      <trkpt lat="44.06485" lon="5.95556">
        <ele>624.5</ele>
        <time>2017-01-07T13:41:05Z</time>
      </trkpt>
      <trkpt lat="44.06483" lon="5.95552">
        <ele>624.4</ele>
        <time>2017-01-07T13:41:08Z</time>
      </trkpt>
      <trkpt lat="44.0648" lon="5.95548">
        <ele>624.3</ele>
        <time>2017-01-07T13:41:11Z</time>
      </trkpt>
      <trkpt lat="44.06477" lon="5.95545">
        <ele>624.2</ele>
        <time>2017-01-07T13:41:13Z</time>
      </trkpt>
      <trkpt lat="44.06475" lon="5.95541">
        <ele>624.3</ele>
        <time>2017-01-07T13:41:15Z</time>
      </trkpt>
      <trkpt lat="44.06473" lon="5.95537">
        <ele>624.4</ele>
        <time>2017-01-07T13:41:17Z</time>
      </trkpt>
      <trkpt lat="44.06471" lon="5.95534">
        <ele>624.5</ele>
        <time>2017-01-07T13:41:19Z</time>
      </trkpt>
      <trkpt lat="44.06469" lon="5.95529">
        <ele>624.7</ele>
        <time>2017-01-07T13:41:22Z</time>
      </trkpt>
      <trkpt lat="44.06466" lon="5.95525">
        <ele>625</ele>
        <time>2017-01-07T13:41:25Z</time>
      </trkpt>
      <trkpt lat="44.06464" lon="5.95521">
        <ele>625.3</ele>
        <time>2017-01-07T13:41:28Z</time>
      </trkpt>
      <trkpt lat="44.06462" lon="5.95516">
        <ele>625.7</ele>
        <time>2017-01-07T13:41:31Z</time>
      </trkpt>
      <trkpt lat="44.0646" lon="5.95512">
        <ele>626</ele>
        <time>2017-01-07T13:41:33Z</time>
      </trkpt>
      <trkpt lat="44.06459" lon="5.95508">
        <ele>626.4</ele>
        <time>2017-01-07T13:41:35Z</time>
      </trkpt>
      <trkpt lat="44.06457" lon="5.95504">
        <ele>626.7</ele>
        <time>2017-01-07T13:41:37Z</time>
      </trkpt>
      <trkpt lat="44.06456" lon="5.95499">
        <ele>626.9</ele>
        <time>2017-01-07T13:41:39Z</time>
      </trkpt>
      <trkpt lat="44.06454" lon="5.95496">
        <ele>627.2</ele>
        <time>2017-01-07T13:41:41Z</time>
      </trkpt>
      <trkpt lat="44.06452" lon="5.95492">
        <ele>627.8</ele>
        <time>2017-01-07T13:41:43Z</time>
      </trkpt>
      <trkpt lat="44.0645" lon="5.95488">
        <ele>628.3</ele>
        <time>2017-01-07T13:41:45Z</time>
      </trkpt>
      <trkpt lat="44.06447" lon="5.95484">
        <ele>628.9</ele>
        <time>2017-01-07T13:41:47Z</time>
      </trkpt>
      <trkpt lat="44.06445" lon="5.9548">
        <ele>629.6</ele>
        <time>2017-01-07T13:41:49Z</time>
      </trkpt>
      <trkpt lat="44.06443" lon="5.95477">
        <ele>630.2</ele>
        <time>2017-01-07T13:41:51Z</time>
      </trkpt>
      <trkpt lat="44.06441" lon="5.95473">
        <ele>630.7</ele>
        <time>2017-01-07T13:41:53Z</time>
      </trkpt>
      <trkpt lat="44.06441" lon="5.95469">
        <ele>631.2</ele>
        <time>2017-01-07T13:41:55Z</time>
      </trkpt>
      <trkpt lat="44.06439" lon="5.95465">
        <ele>631.6</ele>
        <time>2017-01-07T13:41:57Z</time>
      </trkpt>
      <trkpt lat="44.06437" lon="5.9546">
        <ele>631.8</ele>
        <time>2017-01-07T13:41:59Z</time>
      </trkpt>
      <trkpt lat="44.06435" lon="5.95455">
        <ele>631.7</ele>
        <time>2017-01-07T13:42:01Z</time>
      </trkpt>
      <trkpt lat="44.06435" lon="5.95451">
        <ele>631.6</ele>
        <time>2017-01-07T13:42:03Z</time>
      </trkpt>
      <trkpt lat="44.06435" lon="5.95446">
        <ele>631.8</ele>
        <time>2017-01-07T13:42:05Z</time>
      </trkpt>
      <trkpt lat="44.06434" lon="5.95442">
        <ele>632</ele>
        <time>2017-01-07T13:42:07Z</time>
      </trkpt>
      <trkpt lat="44.06433" lon="5.95437">
        <ele>632.2</ele>
        <time>2017-01-07T13:42:10Z</time>
      </trkpt>
      <trkpt lat="44.06431" lon="5.95433">
        <ele>632.4</ele>
        <time>2017-01-07T13:42:12Z</time>
      </trkpt>
      <trkpt lat="44.06431" lon="5.95429">
        <ele>632.5</ele>
        <time>2017-01-07T13:42:14Z</time>
      </trkpt>
      <trkpt lat="44.06429" lon="5.95424">
        <ele>632.7</ele>
        <time>2017-01-07T13:42:17Z</time>
      </trkpt>
      <trkpt lat="44.06427" lon="5.9542">
        <ele>632.9</ele>
        <time>2017-01-07T13:42:20Z</time>
      </trkpt>
      <trkpt lat="44.06425" lon="5.95418">
        <ele>633.2</ele>
        <time>2017-01-07T13:42:23Z</time>
      </trkpt>
      <trkpt lat="44.06422" lon="5.95415">
        <ele>633.9</ele>
        <time>2017-01-07T13:42:27Z</time>
      </trkpt>
      <trkpt lat="44.0642" lon="5.95411">
        <ele>634.5</ele>
        <time>2017-01-07T13:42:30Z</time>
      </trkpt>
      <trkpt lat="44.06416" lon="5.95411">
        <ele>635.2</ele>
        <time>2017-01-07T13:42:32Z</time>
      </trkpt>
      <trkpt lat="44.06412" lon="5.95411">
        <ele>635.6</ele>
        <time>2017-01-07T13:42:33Z</time>
      </trkpt>
      <trkpt lat="44.06407" lon="5.9541">
        <ele>636</ele>
        <time>2017-01-07T13:42:35Z</time>
      </trkpt>
      <trkpt lat="44.06403" lon="5.95408">
        <ele>636.1</ele>
        <time>2017-01-07T13:42:37Z</time>
      </trkpt>
      <trkpt lat="44.06399" lon="5.95407">
        <ele>636.2</ele>
        <time>2017-01-07T13:42:39Z</time>
      </trkpt>
      <trkpt lat="44.06396" lon="5.95406">
        <ele>636.1</ele>
        <time>2017-01-07T13:42:41Z</time>
      </trkpt>
      <trkpt lat="44.06392" lon="5.95403">
        <ele>636.1</ele>
        <time>2017-01-07T13:42:43Z</time>
      </trkpt>
      <trkpt lat="44.06389" lon="5.95402">
        <ele>636</ele>
        <time>2017-01-07T13:42:44Z</time>
      </trkpt>
      <trkpt lat="44.06385" lon="5.954">
        <ele>635.9</ele>
        <time>2017-01-07T13:42:46Z</time>
      </trkpt>
      <trkpt lat="44.06383" lon="5.95396">
        <ele>635.8</ele>
        <time>2017-01-07T13:42:48Z</time>
      </trkpt>
      <trkpt lat="44.06381" lon="5.95392">
        <ele>635.7</ele>
        <time>2017-01-07T13:42:50Z</time>
      </trkpt>
      <trkpt lat="44.0638" lon="5.95387">
        <ele>635.6</ele>
        <time>2017-01-07T13:42:52Z</time>
      </trkpt>
      <trkpt lat="44.06379" lon="5.95382">
        <ele>635.4</ele>
        <time>2017-01-07T13:42:54Z</time>
      </trkpt>
      <trkpt lat="44.06376" lon="5.95379">
        <ele>635.1</ele>
        <time>2017-01-07T13:42:56Z</time>
      </trkpt>
      <trkpt lat="44.06373" lon="5.95375">
        <ele>634.7</ele>
        <time>2017-01-07T13:42:58Z</time>
      </trkpt>
      <trkpt lat="44.06369" lon="5.95373">
        <ele>634</ele>
        <time>2017-01-07T13:43:00Z</time>
      </trkpt>
      <trkpt lat="44.06367" lon="5.95371">
        <ele>633.5</ele>
        <time>2017-01-07T13:43:02Z</time>
      </trkpt>
      <trkpt lat="44.06364" lon="5.95369">
        <ele>633.2</ele>
        <time>2017-01-07T13:43:05Z</time>
      </trkpt>
      <trkpt lat="44.06361" lon="5.95367">
        <ele>633</ele>
        <time>2017-01-07T13:43:08Z</time>
      </trkpt>
      <trkpt lat="44.06357" lon="5.95364">
        <ele>632.9</ele>
        <time>2017-01-07T13:43:11Z</time>
      </trkpt>
      <trkpt lat="44.06354" lon="5.95361">
        <ele>632.7</ele>
        <time>2017-01-07T13:43:14Z</time>
      </trkpt>
      <trkpt lat="44.06352" lon="5.95359">
        <ele>632.6</ele>
        <time>2017-01-07T13:43:16Z</time>
      </trkpt>
      <trkpt lat="44.06348" lon="5.95356">
        <ele>632.6</ele>
        <time>2017-01-07T13:43:18Z</time>
      </trkpt>
      <trkpt lat="44.06344" lon="5.9535">
        <ele>632.7</ele>
        <time>2017-01-07T13:43:20Z</time>
      </trkpt>
      <trkpt lat="44.06343" lon="5.95347">
        <ele>632.8</ele>
        <time>2017-01-07T13:43:21Z</time>
      </trkpt>
      <trkpt lat="44.06341" lon="5.95343">
        <ele>632.9</ele>
        <time>2017-01-07T13:43:22Z</time>
      </trkpt>
      <trkpt lat="44.06339" lon="5.95341">
        <ele>633</ele>
        <time>2017-01-07T13:43:23Z</time>
      </trkpt>
      <trkpt lat="44.06335" lon="5.95336">
        <ele>633.2</ele>
        <time>2017-01-07T13:43:25Z</time>
      </trkpt>
      <trkpt lat="44.06334" lon="5.95333">
        <ele>633.3</ele>
        <time>2017-01-07T13:43:26Z</time>
      </trkpt>
      <trkpt lat="44.06331" lon="5.95329">
        <ele>633.6</ele>
        <time>2017-01-07T13:43:27Z</time>
      </trkpt>
      <trkpt lat="44.06329" lon="5.95326">
        <ele>633.9</ele>
        <time>2017-01-07T13:43:28Z</time>
      </trkpt>
      <trkpt lat="44.06326" lon="5.95323">
        <ele>634.2</ele>
        <time>2017-01-07T13:43:29Z</time>
      </trkpt>
      <trkpt lat="44.06324" lon="5.95321">
        <ele>634.4</ele>
        <time>2017-01-07T13:43:30Z</time>
      </trkpt>
      <trkpt lat="44.06321" lon="5.95319">
        <ele>634.7</ele>
        <time>2017-01-07T13:43:31Z</time>
      </trkpt>
      <trkpt lat="44.06318" lon="5.95318">
        <ele>634.9</ele>
        <time>2017-01-07T13:43:32Z</time>
      </trkpt>
      <trkpt lat="44.06315" lon="5.95317">
        <ele>635</ele>
        <time>2017-01-07T13:43:33Z</time>
      </trkpt>
      <trkpt lat="44.06311" lon="5.95315">
        <ele>635.2</ele>
        <time>2017-01-07T13:43:35Z</time>
      </trkpt>
      <trkpt lat="44.06309" lon="5.9531">
        <ele>635.8</ele>
        <time>2017-01-07T13:43:37Z</time>
      </trkpt>
      <trkpt lat="44.06308" lon="5.95304">
        <ele>636.3</ele>
        <time>2017-01-07T13:43:39Z</time>
      </trkpt>
      <trkpt lat="44.06307" lon="5.95298">
        <ele>636.8</ele>
        <time>2017-01-07T13:43:41Z</time>
      </trkpt>
      <trkpt lat="44.06305" lon="5.95292">
        <ele>637.3</ele>
        <time>2017-01-07T13:43:43Z</time>
      </trkpt>
      <trkpt lat="44.06303" lon="5.95286">
        <ele>637.8</ele>
        <time>2017-01-07T13:43:45Z</time>
      </trkpt>
      <trkpt lat="44.06301" lon="5.95282">
        <ele>638</ele>
        <time>2017-01-07T13:43:47Z</time>
      </trkpt>
      <trkpt lat="44.06299" lon="5.95278">
        <ele>638.2</ele>
        <time>2017-01-07T13:43:49Z</time>
      </trkpt>
      <trkpt lat="44.06296" lon="5.95274">
        <ele>638.2</ele>
        <time>2017-01-07T13:43:51Z</time>
      </trkpt>
      <trkpt lat="44.06294" lon="5.95269">
        <ele>638.2</ele>
        <time>2017-01-07T13:43:53Z</time>
      </trkpt>
      <trkpt lat="44.06292" lon="5.95265">
        <ele>638</ele>
        <time>2017-01-07T13:43:55Z</time>
      </trkpt>
      <trkpt lat="44.06288" lon="5.95261">
        <ele>637.6</ele>
        <time>2017-01-07T13:43:57Z</time>
      </trkpt>
      <trkpt lat="44.06285" lon="5.95258">
        <ele>637.3</ele>
        <time>2017-01-07T13:43:59Z</time>
      </trkpt>
      <trkpt lat="44.06283" lon="5.95254">
        <ele>637.2</ele>
        <time>2017-01-07T13:44:01Z</time>
      </trkpt>
      <trkpt lat="44.06282" lon="5.9525">
        <ele>637.2</ele>
        <time>2017-01-07T13:44:03Z</time>
      </trkpt>
      <trkpt lat="44.06279" lon="5.95246">
        <ele>637.2</ele>
        <time>2017-01-07T13:44:05Z</time>
      </trkpt>
      <trkpt lat="44.06276" lon="5.95242">
        <ele>637.3</ele>
        <time>2017-01-07T13:44:07Z</time>
      </trkpt>
      <trkpt lat="44.06274" lon="5.95238">
        <ele>637.4</ele>
        <time>2017-01-07T13:44:09Z</time>
      </trkpt>
      <trkpt lat="44.06271" lon="5.95234">
        <ele>637.4</ele>
        <time>2017-01-07T13:44:11Z</time>
      </trkpt>
      <trkpt lat="44.06268" lon="5.9523">
        <ele>637.4</ele>
        <time>2017-01-07T13:44:13Z</time>
      </trkpt>
      <trkpt lat="44.06265" lon="5.95226">
        <ele>637.5</ele>
        <time>2017-01-07T13:44:15Z</time>
      </trkpt>
      <trkpt lat="44.06262" lon="5.95222">
        <ele>637.8</ele>
        <time>2017-01-07T13:44:17Z</time>
      </trkpt>
      <trkpt lat="44.0626" lon="5.95219">
        <ele>637.9</ele>
        <time>2017-01-07T13:44:19Z</time>
      </trkpt>
      <trkpt lat="44.06258" lon="5.95215">
        <ele>638.1</ele>
        <time>2017-01-07T13:44:21Z</time>
      </trkpt>
      <trkpt lat="44.06255" lon="5.95212">
        <ele>638.3</ele>
        <time>2017-01-07T13:44:23Z</time>
      </trkpt>
      <trkpt lat="44.06253" lon="5.95209">
        <ele>638.5</ele>
        <time>2017-01-07T13:44:25Z</time>
      </trkpt>
      <trkpt lat="44.06251" lon="5.95206">
        <ele>638.8</ele>
        <time>2017-01-07T13:44:27Z</time>
      </trkpt>
      <trkpt lat="44.06249" lon="5.95203">
        <ele>639.2</ele>
        <time>2017-01-07T13:44:29Z</time>
      </trkpt>
      <trkpt lat="44.06246" lon="5.952">
        <ele>639.7</ele>
        <time>2017-01-07T13:44:31Z</time>
      </trkpt>
      <trkpt lat="44.06243" lon="5.95198">
        <ele>640.2</ele>
        <time>2017-01-07T13:44:33Z</time>
      </trkpt>
      <trkpt lat="44.06241" lon="5.95195">
        <ele>640.7</ele>
        <time>2017-01-07T13:44:35Z</time>
      </trkpt>
      <trkpt lat="44.06239" lon="5.95192">
        <ele>641.1</ele>
        <time>2017-01-07T13:44:37Z</time>
      </trkpt>
      <trkpt lat="44.06236" lon="5.95189">
        <ele>641.5</ele>
        <time>2017-01-07T13:44:39Z</time>
      </trkpt>
      <trkpt lat="44.06234" lon="5.95185">
        <ele>641.6</ele>
        <time>2017-01-07T13:44:41Z</time>
      </trkpt>
      <trkpt lat="44.06231" lon="5.95182">
        <ele>641.7</ele>
        <time>2017-01-07T13:44:43Z</time>
      </trkpt>
      <trkpt lat="44.06228" lon="5.95178">
        <ele>642.2</ele>
        <time>2017-01-07T13:44:45Z</time>
      </trkpt>
      <trkpt lat="44.06226" lon="5.95175">
        <ele>642.6</ele>
        <time>2017-01-07T13:44:47Z</time>
      </trkpt>
      <trkpt lat="44.06224" lon="5.95171">
        <ele>643.1</ele>
        <time>2017-01-07T13:44:49Z</time>
      </trkpt>
      <trkpt lat="44.06223" lon="5.95167">
        <ele>643.6</ele>
        <time>2017-01-07T13:44:51Z</time>
      </trkpt>
      <trkpt lat="44.06222" lon="5.95162">
        <ele>644.1</ele>
        <time>2017-01-07T13:44:53Z</time>
      </trkpt>
      <trkpt lat="44.06219" lon="5.95159">
        <ele>644.5</ele>
        <time>2017-01-07T13:44:55Z</time>
      </trkpt>
      <trkpt lat="44.06218" lon="5.95155">
        <ele>644.8</ele>
        <time>2017-01-07T13:44:57Z</time>
      </trkpt>
      <trkpt lat="44.06217" lon="5.95151">
        <ele>645.1</ele>
        <time>2017-01-07T13:45:00Z</time>
      </trkpt>
      <trkpt lat="44.06216" lon="5.95146">
        <ele>645.4</ele>
        <time>2017-01-07T13:45:03Z</time>
      </trkpt>
      <trkpt lat="44.06215" lon="5.95141">
        <ele>645.9</ele>
        <time>2017-01-07T13:45:06Z</time>
      </trkpt>
      <trkpt lat="44.06214" lon="5.95136">
        <ele>646.3</ele>
        <time>2017-01-07T13:45:09Z</time>
      </trkpt>
      <trkpt lat="44.06213" lon="5.95131">
        <ele>646.7</ele>
        <time>2017-01-07T13:45:12Z</time>
      </trkpt>
      <trkpt lat="44.06211" lon="5.95127">
        <ele>647.1</ele>
        <time>2017-01-07T13:45:15Z</time>
      </trkpt>
      <trkpt lat="44.06211" lon="5.95122">
        <ele>647.3</ele>
        <time>2017-01-07T13:45:18Z</time>
      </trkpt>
      <trkpt lat="44.06212" lon="5.95117">
        <ele>647.3</ele>
        <time>2017-01-07T13:45:21Z</time>
      </trkpt>
      <trkpt lat="44.06211" lon="5.95111">
        <ele>647.4</ele>
        <time>2017-01-07T13:45:24Z</time>
      </trkpt>
      <trkpt lat="44.0621" lon="5.95106">
        <ele>647.6</ele>
        <time>2017-01-07T13:45:27Z</time>
      </trkpt>
      <trkpt lat="44.06208" lon="5.95101">
        <ele>647.9</ele>
        <time>2017-01-07T13:45:30Z</time>
      </trkpt>
      <trkpt lat="44.06207" lon="5.95098">
        <ele>648.1</ele>
        <time>2017-01-07T13:45:32Z</time>
      </trkpt>
      <trkpt lat="44.06204" lon="5.95094">
        <ele>648.6</ele>
        <time>2017-01-07T13:45:35Z</time>
      </trkpt>
      <trkpt lat="44.06203" lon="5.95091">
        <ele>648.9</ele>
        <time>2017-01-07T13:45:37Z</time>
      </trkpt>
      <trkpt lat="44.06201" lon="5.95086">
        <ele>649.3</ele>
        <time>2017-01-07T13:45:40Z</time>
      </trkpt>
      <trkpt lat="44.06199" lon="5.95083">
        <ele>649.4</ele>
        <time>2017-01-07T13:45:42Z</time>
      </trkpt>
      <trkpt lat="44.06197" lon="5.95079">
        <ele>649.6</ele>
        <time>2017-01-07T13:45:44Z</time>
      </trkpt>
      <trkpt lat="44.06196" lon="5.95075">
        <ele>649.9</ele>
        <time>2017-01-07T13:45:46Z</time>
      </trkpt>
      <trkpt lat="44.06195" lon="5.95072">
        <ele>650.3</ele>
        <time>2017-01-07T13:45:48Z</time>
      </trkpt>
      <trkpt lat="44.06192" lon="5.95068">
        <ele>650.9</ele>
        <time>2017-01-07T13:45:51Z</time>
      </trkpt>
      <trkpt lat="44.0619" lon="5.95064">
        <ele>651.1</ele>
        <time>2017-01-07T13:45:54Z</time>
      </trkpt>
      <trkpt lat="44.06187" lon="5.95061">
        <ele>651.4</ele>
        <time>2017-01-07T13:45:57Z</time>
      </trkpt>
      <trkpt lat="44.06184" lon="5.95058">
        <ele>651.7</ele>
        <time>2017-01-07T13:45:59Z</time>
      </trkpt>
      <trkpt lat="44.06182" lon="5.95055">
        <ele>652</ele>
        <time>2017-01-07T13:46:01Z</time>
      </trkpt>
      <trkpt lat="44.0618" lon="5.95052">
        <ele>652.3</ele>
        <time>2017-01-07T13:46:03Z</time>
      </trkpt>
      <trkpt lat="44.06177" lon="5.9505">
        <ele>652.5</ele>
        <time>2017-01-07T13:46:05Z</time>
      </trkpt>
      <trkpt lat="44.06174" lon="5.95047">
        <ele>652.6</ele>
        <time>2017-01-07T13:46:07Z</time>
      </trkpt>
      <trkpt lat="44.06171" lon="5.95044">
        <ele>652.7</ele>
        <time>2017-01-07T13:46:09Z</time>
      </trkpt>
      <trkpt lat="44.06168" lon="5.95042">
        <ele>652.7</ele>
        <time>2017-01-07T13:46:11Z</time>
      </trkpt>
      <trkpt lat="44.06165" lon="5.9504">
        <ele>652.7</ele>
        <time>2017-01-07T13:46:13Z</time>
      </trkpt>
      <trkpt lat="44.06161" lon="5.95036">
        <ele>652.6</ele>
        <time>2017-01-07T13:46:15Z</time>
      </trkpt>
      <trkpt lat="44.06158" lon="5.95032">
        <ele>652.4</ele>
        <time>2017-01-07T13:46:17Z</time>
      </trkpt>
      <trkpt lat="44.06157" lon="5.95028">
        <ele>652.1</ele>
        <time>2017-01-07T13:46:19Z</time>
      </trkpt>
      <trkpt lat="44.06158" lon="5.95022">
        <ele>651.4</ele>
        <time>2017-01-07T13:46:21Z</time>
      </trkpt>
      <trkpt lat="44.06157" lon="5.95018">
        <ele>651</ele>
        <time>2017-01-07T13:46:23Z</time>
      </trkpt>
      <trkpt lat="44.06154" lon="5.95015">
        <ele>651</ele>
        <time>2017-01-07T13:46:25Z</time>
      </trkpt>
      <trkpt lat="44.06151" lon="5.95015">
        <ele>651</ele>
        <time>2017-01-07T13:46:27Z</time>
      </trkpt>
      <trkpt lat="44.06147" lon="5.95013">
        <ele>651</ele>
        <time>2017-01-07T13:46:29Z</time>
      </trkpt>
      <trkpt lat="44.06143" lon="5.95011">
        <ele>651</ele>
        <time>2017-01-07T13:46:31Z</time>
      </trkpt>
      <trkpt lat="44.06138" lon="5.9501">
        <ele>651</ele>
        <time>2017-01-07T13:46:33Z</time>
      </trkpt>
      <trkpt lat="44.06134" lon="5.95008">
        <ele>650.9</ele>
        <time>2017-01-07T13:46:35Z</time>
      </trkpt>
      <trkpt lat="44.0613" lon="5.95007">
        <ele>650.9</ele>
        <time>2017-01-07T13:46:37Z</time>
      </trkpt>
      <trkpt lat="44.06126" lon="5.95005">
        <ele>650.8</ele>
        <time>2017-01-07T13:46:39Z</time>
      </trkpt>
      <trkpt lat="44.06124" lon="5.95002">
        <ele>650.7</ele>
        <time>2017-01-07T13:46:40Z</time>
      </trkpt>
      <trkpt lat="44.06122" lon="5.95">
        <ele>650.6</ele>
        <time>2017-01-07T13:46:41Z</time>
      </trkpt>
      <trkpt lat="44.06119" lon="5.94998">
        <ele>650.6</ele>
        <time>2017-01-07T13:46:42Z</time>
      </trkpt>
      <trkpt lat="44.06117" lon="5.94995">
        <ele>650.6</ele>
        <time>2017-01-07T13:46:43Z</time>
      </trkpt>
      <trkpt lat="44.06115" lon="5.94989">
        <ele>650.7</ele>
        <time>2017-01-07T13:46:45Z</time>
      </trkpt>
      <trkpt lat="44.06115" lon="5.94985">
        <ele>650.3</ele>
        <time>2017-01-07T13:46:47Z</time>
      </trkpt>
      <trkpt lat="44.0611" lon="5.94981">
        <ele>649.6</ele>
        <time>2017-01-07T13:46:49Z</time>
      </trkpt>
      <trkpt lat="44.06106" lon="5.94978">
        <ele>649.2</ele>
        <time>2017-01-07T13:46:51Z</time>
      </trkpt>
      <trkpt lat="44.06102" lon="5.94975">
        <ele>648.8</ele>
        <time>2017-01-07T13:46:53Z</time>
      </trkpt>
      <trkpt lat="44.06098" lon="5.94972">
        <ele>648.3</ele>
        <time>2017-01-07T13:46:55Z</time>
      </trkpt>
      <trkpt lat="44.06095" lon="5.94967">
        <ele>647.7</ele>
        <time>2017-01-07T13:46:57Z</time>
      </trkpt>
      <trkpt lat="44.06093" lon="5.94964">
        <ele>647.6</ele>
        <time>2017-01-07T13:46:59Z</time>
      </trkpt>
      <trkpt lat="44.0609" lon="5.94961">
        <ele>647.5</ele>
        <time>2017-01-07T13:47:01Z</time>
      </trkpt>
      <trkpt lat="44.06086" lon="5.94953">
        <ele>646.9</ele>
        <time>2017-01-07T13:48:08Z</time>
      </trkpt>
      <trkpt lat="44.06084" lon="5.94951">
        <ele>646.6</ele>
        <time>2017-01-07T13:48:10Z</time>
      </trkpt>
      <trkpt lat="44.06081" lon="5.94948">
        <ele>646.4</ele>
        <time>2017-01-07T13:48:12Z</time>
      </trkpt>
      <trkpt lat="44.06078" lon="5.94947">
        <ele>646.2</ele>
        <time>2017-01-07T13:48:14Z</time>
      </trkpt>
      <trkpt lat="44.06074" lon="5.94946">
        <ele>646</ele>
        <time>2017-01-07T13:48:16Z</time>
      </trkpt>
      <trkpt lat="44.06068" lon="5.94947">
        <ele>645.7</ele>
        <time>2017-01-07T13:48:18Z</time>
      </trkpt>
      <trkpt lat="44.06064" lon="5.94945">
        <ele>645.5</ele>
        <time>2017-01-07T13:48:19Z</time>
      </trkpt>
      <trkpt lat="44.0606" lon="5.94945">
        <ele>645.4</ele>
        <time>2017-01-07T13:48:20Z</time>
      </trkpt>
      <trkpt lat="44.06057" lon="5.94945">
        <ele>645.2</ele>
        <time>2017-01-07T13:48:21Z</time>
      </trkpt>
      <trkpt lat="44.06053" lon="5.94945">
        <ele>645.1</ele>
        <time>2017-01-07T13:48:22Z</time>
      </trkpt>
      <trkpt lat="44.06048" lon="5.94945">
        <ele>644.7</ele>
        <time>2017-01-07T13:48:23Z</time>
      </trkpt>
      <trkpt lat="44.06043" lon="5.94943">
        <ele>644.2</ele>
        <time>2017-01-07T13:48:24Z</time>
      </trkpt>
      <trkpt lat="44.0603" lon="5.94932">
        <ele>641.5</ele>
        <time>2017-01-07T13:48:25Z</time>
      </trkpt>
      <trkpt lat="44.06027" lon="5.94928">
        <ele>640.5</ele>
        <time>2017-01-07T13:48:26Z</time>
      </trkpt>
      <trkpt lat="44.0602" lon="5.94926">
        <ele>639</ele>
        <time>2017-01-07T13:48:27Z</time>
      </trkpt>
      <trkpt lat="44.06015" lon="5.94925">
        <ele>637.5</ele>
        <time>2017-01-07T13:48:28Z</time>
      </trkpt>
      <trkpt lat="44.06011" lon="5.94926">
        <ele>636.2</ele>
        <time>2017-01-07T13:48:29Z</time>
      </trkpt>
      <trkpt lat="44.06008" lon="5.94926">
        <ele>634.9</ele>
        <time>2017-01-07T13:48:30Z</time>
      </trkpt>
      <trkpt lat="44.06003" lon="5.94926">
        <ele>633.6</ele>
        <time>2017-01-07T13:48:32Z</time>
      </trkpt>
      <trkpt lat="44.06001" lon="5.94925">
        <ele>633</ele>
        <time>2017-01-07T13:48:33Z</time>
      </trkpt>
      <trkpt lat="44.05998" lon="5.94922">
        <ele>632.4</ele>
        <time>2017-01-07T13:48:34Z</time>
      </trkpt>
      <trkpt lat="44.05994" lon="5.94925">
        <ele>631.5</ele>
        <time>2017-01-07T13:48:35Z</time>
      </trkpt>
      <trkpt lat="44.05988" lon="5.94926">
        <ele>630</ele>
        <time>2017-01-07T13:48:36Z</time>
      </trkpt>
      <trkpt lat="44.05981" lon="5.94927">
        <ele>627.7</ele>
        <time>2017-01-07T13:48:37Z</time>
      </trkpt>
      <trkpt lat="44.05975" lon="5.94928">
        <ele>625.2</ele>
        <time>2017-01-07T13:48:39Z</time>
      </trkpt>
      <trkpt lat="44.05973" lon="5.94925">
        <ele>624.1</ele>
        <time>2017-01-07T13:48:40Z</time>
      </trkpt>
      <trkpt lat="44.0597" lon="5.94921">
        <ele>623.6</ele>
        <time>2017-01-07T13:48:42Z</time>
      </trkpt>
      <trkpt lat="44.05969" lon="5.94916">
        <ele>623.5</ele>
        <time>2017-01-07T13:48:44Z</time>
      </trkpt>
      <trkpt lat="44.05966" lon="5.94914">
        <ele>622.9</ele>
        <time>2017-01-07T13:48:46Z</time>
      </trkpt>
      <trkpt lat="44.05962" lon="5.94918">
        <ele>622.2</ele>
        <time>2017-01-07T13:48:48Z</time>
      </trkpt>
      <trkpt lat="44.0596" lon="5.94922">
        <ele>621.5</ele>
        <time>2017-01-07T13:48:50Z</time>
      </trkpt>
      <trkpt lat="44.05955" lon="5.94923">
        <ele>619.8</ele>
        <time>2017-01-07T13:48:52Z</time>
      </trkpt>
      <trkpt lat="44.0595" lon="5.94923">
        <ele>619.1</ele>
        <time>2017-01-07T13:48:54Z</time>
      </trkpt>
      <trkpt lat="44.05948" lon="5.94918">
        <ele>618.6</ele>
        <time>2017-01-07T13:48:56Z</time>
      </trkpt>
      <trkpt lat="44.05951" lon="5.94914">
        <ele>619.2</ele>
        <time>2017-01-07T13:48:58Z</time>
      </trkpt>
      <trkpt lat="44.05954" lon="5.94913">
        <ele>619.7</ele>
        <time>2017-01-07T13:49:00Z</time>
      </trkpt>
      <trkpt lat="44.05959" lon="5.94912">
        <ele>620.4</ele>
        <time>2017-01-07T13:49:02Z</time>
      </trkpt>
      <trkpt lat="44.05963" lon="5.94911">
        <ele>622</ele>
        <time>2017-01-07T13:49:03Z</time>
      </trkpt>
      <trkpt lat="44.05967" lon="5.94908">
        <ele>621.9</ele>
        <time>2017-01-07T13:49:04Z</time>
      </trkpt>
      <trkpt lat="44.05971" lon="5.94905">
        <ele>621.8</ele>
        <time>2017-01-07T13:49:05Z</time>
      </trkpt>
      <trkpt lat="44.05976" lon="5.94902">
        <ele>622.3</ele>
        <time>2017-01-07T13:49:06Z</time>
      </trkpt>
      <trkpt lat="44.05981" lon="5.949">
        <ele>621.6</ele>
        <time>2017-01-07T13:49:07Z</time>
      </trkpt>
      <trkpt lat="44.05984" lon="5.94898">
        <ele>623</ele>
        <time>2017-01-07T13:49:08Z</time>
      </trkpt>
      <trkpt lat="44.05987" lon="5.94896">
        <ele>622.7</ele>
        <time>2017-01-07T13:49:09Z</time>
      </trkpt>
      <trkpt lat="44.05989" lon="5.94893">
        <ele>622.7</ele>
        <time>2017-01-07T13:49:10Z</time>
      </trkpt>
      <trkpt lat="44.05991" lon="5.9489">
        <ele>622.6</ele>
        <time>2017-01-07T13:49:11Z</time>
      </trkpt>
      <trkpt lat="44.05993" lon="5.94887">
        <ele>621.6</ele>
        <time>2017-01-07T13:49:12Z</time>
      </trkpt>
      <trkpt lat="44.05996" lon="5.94882">
        <ele>621.6</ele>
        <time>2017-01-07T13:49:14Z</time>
      </trkpt>
      <trkpt lat="44.05999" lon="5.94874">
        <ele>620</ele>
        <time>2017-01-07T13:49:16Z</time>
      </trkpt>
      <trkpt lat="44.06001" lon="5.94869">
        <ele>619.4</ele>
        <time>2017-01-07T13:49:17Z</time>
      </trkpt>
      <trkpt lat="44.06005" lon="5.94864">
        <ele>618.8</ele>
        <time>2017-01-07T13:49:18Z</time>
      </trkpt>
      <trkpt lat="44.06009" lon="5.94859">
        <ele>619.2</ele>
        <time>2017-01-07T13:49:19Z</time>
      </trkpt>
      <trkpt lat="44.06013" lon="5.94854">
        <ele>618.5</ele>
        <time>2017-01-07T13:49:20Z</time>
      </trkpt>
      <trkpt lat="44.06016" lon="5.94849">
        <ele>615.7</ele>
        <time>2017-01-07T13:49:21Z</time>
      </trkpt>
      <trkpt lat="44.06019" lon="5.94845">
        <ele>614.7</ele>
        <time>2017-01-07T13:49:22Z</time>
      </trkpt>
      <trkpt lat="44.06021" lon="5.94841">
        <ele>615.5</ele>
        <time>2017-01-07T13:49:23Z</time>
      </trkpt>
      <trkpt lat="44.06025" lon="5.94837">
        <ele>614.3</ele>
        <time>2017-01-07T13:49:24Z</time>
      </trkpt>
      <trkpt lat="44.06029" lon="5.94834">
        <ele>613.2</ele>
        <time>2017-01-07T13:49:25Z</time>
      </trkpt>
      <trkpt lat="44.06033" lon="5.94831">
        <ele>612.2</ele>
        <time>2017-01-07T13:49:26Z</time>
      </trkpt>
      <trkpt lat="44.06036" lon="5.94829">
        <ele>613.4</ele>
        <time>2017-01-07T13:49:27Z</time>
      </trkpt>
      <trkpt lat="44.0604" lon="5.94826">
        <ele>612.1</ele>
        <time>2017-01-07T13:49:28Z</time>
      </trkpt>
      <trkpt lat="44.06043" lon="5.94824">
        <ele>612.7</ele>
        <time>2017-01-07T13:49:29Z</time>
      </trkpt>
      <trkpt lat="44.06046" lon="5.94822">
        <ele>611.1</ele>
        <time>2017-01-07T13:49:30Z</time>
      </trkpt>
      <trkpt lat="44.06049" lon="5.9482">
        <ele>611.6</ele>
        <time>2017-01-07T13:49:31Z</time>
      </trkpt>
      <trkpt lat="44.06052" lon="5.94818">
        <ele>609.9</ele>
        <time>2017-01-07T13:49:32Z</time>
      </trkpt>
      <trkpt lat="44.06055" lon="5.94816">
        <ele>610.3</ele>
        <time>2017-01-07T13:49:33Z</time>
      </trkpt>
      <trkpt lat="44.06058" lon="5.94814">
        <ele>608.8</ele>
        <time>2017-01-07T13:49:34Z</time>
      </trkpt>
      <trkpt lat="44.06061" lon="5.94812">
        <ele>609.5</ele>
        <time>2017-01-07T13:49:35Z</time>
      </trkpt>
      <trkpt lat="44.06065" lon="5.94811">
        <ele>608.4</ele>
        <time>2017-01-07T13:49:36Z</time>
      </trkpt>
      <trkpt lat="44.06068" lon="5.9481">
        <ele>609.3</ele>
        <time>2017-01-07T13:49:37Z</time>
      </trkpt>
      <trkpt lat="44.06072" lon="5.94809">
        <ele>610.2</ele>
        <time>2017-01-07T13:49:38Z</time>
      </trkpt>
      <trkpt lat="44.06075" lon="5.94809">
        <ele>611</ele>
        <time>2017-01-07T13:49:39Z</time>
      </trkpt>
      <trkpt lat="44.06078" lon="5.94808">
        <ele>611.8</ele>
        <time>2017-01-07T13:49:40Z</time>
      </trkpt>
      <trkpt lat="44.06081" lon="5.94806">
        <ele>611.2</ele>
        <time>2017-01-07T13:49:41Z</time>
      </trkpt>
      <trkpt lat="44.06084" lon="5.94804">
        <ele>611.8</ele>
        <time>2017-01-07T13:49:42Z</time>
      </trkpt>
      <trkpt lat="44.06088" lon="5.94802">
        <ele>611</ele>
        <time>2017-01-07T13:49:43Z</time>
      </trkpt>
      <trkpt lat="44.06091" lon="5.94799">
        <ele>611.6</ele>
        <time>2017-01-07T13:49:44Z</time>
      </trkpt>
      <trkpt lat="44.06094" lon="5.94795">
        <ele>610.5</ele>
        <time>2017-01-07T13:49:45Z</time>
      </trkpt>
      <trkpt lat="44.06097" lon="5.94791">
        <ele>609.2</ele>
        <time>2017-01-07T13:49:46Z</time>
      </trkpt>
      <trkpt lat="44.06101" lon="5.94788">
        <ele>607.9</ele>
        <time>2017-01-07T13:49:47Z</time>
      </trkpt>
      <trkpt lat="44.06104" lon="5.94784">
        <ele>606.8</ele>
        <time>2017-01-07T13:49:48Z</time>
      </trkpt>
      <trkpt lat="44.06108" lon="5.9478">
        <ele>605.4</ele>
        <time>2017-01-07T13:49:49Z</time>
      </trkpt>
      <trkpt lat="44.06112" lon="5.94776">
        <ele>604</ele>
        <time>2017-01-07T13:49:50Z</time>
      </trkpt>
      <trkpt lat="44.06115" lon="5.94773">
        <ele>604.2</ele>
        <time>2017-01-07T13:49:51Z</time>
      </trkpt>
      <trkpt lat="44.06119" lon="5.9477">
        <ele>602.6</ele>
        <time>2017-01-07T13:49:52Z</time>
      </trkpt>
      <trkpt lat="44.06122" lon="5.94767">
        <ele>600.9</ele>
        <time>2017-01-07T13:49:53Z</time>
      </trkpt>
      <trkpt lat="44.06123" lon="5.94764">
        <ele>599.3</ele>
        <time>2017-01-07T13:49:54Z</time>
      </trkpt>
      <trkpt lat="44.06125" lon="5.9476">
        <ele>599.3</ele>
        <time>2017-01-07T13:49:55Z</time>
      </trkpt>
      <trkpt lat="44.06127" lon="5.94756">
        <ele>597.8</ele>
        <time>2017-01-07T13:49:56Z</time>
      </trkpt>
      <trkpt lat="44.06128" lon="5.94752">
        <ele>596.2</ele>
        <time>2017-01-07T13:49:57Z</time>
      </trkpt>
      <trkpt lat="44.0613" lon="5.94749">
        <ele>595.1</ele>
        <time>2017-01-07T13:49:58Z</time>
      </trkpt>
      <trkpt lat="44.06132" lon="5.94743">
        <ele>594</ele>
        <time>2017-01-07T13:50:00Z</time>
      </trkpt>
      <trkpt lat="44.06134" lon="5.9474">
        <ele>592.5</ele>
        <time>2017-01-07T13:50:02Z</time>
      </trkpt>
      <trkpt lat="44.06136" lon="5.94735">
        <ele>591.3</ele>
        <time>2017-01-07T13:50:05Z</time>
      </trkpt>
      <trkpt lat="44.06137" lon="5.9473">
        <ele>591.4</ele>
        <time>2017-01-07T13:50:08Z</time>
      </trkpt>
      <trkpt lat="44.06138" lon="5.94726">
        <ele>591.5</ele>
        <time>2017-01-07T13:50:11Z</time>
      </trkpt>
      <trkpt lat="44.06144" lon="5.94712">
        <ele>591.7</ele>
        <time>2017-01-07T13:50:40Z</time>
      </trkpt>
      <trkpt lat="44.06147" lon="5.9471">
        <ele>591.9</ele>
        <time>2017-01-07T13:50:42Z</time>
      </trkpt>
      <trkpt lat="44.06152" lon="5.94707">
        <ele>592.1</ele>
        <time>2017-01-07T13:50:44Z</time>
      </trkpt>
      <trkpt lat="44.06155" lon="5.94706">
        <ele>592.2</ele>
        <time>2017-01-07T13:50:45Z</time>
      </trkpt>
      <trkpt lat="44.06158" lon="5.94706">
        <ele>592.8</ele>
        <time>2017-01-07T13:50:46Z</time>
      </trkpt>
      <trkpt lat="44.06162" lon="5.94706">
        <ele>593.3</ele>
        <time>2017-01-07T13:50:47Z</time>
      </trkpt>
      <trkpt lat="44.06166" lon="5.94705">
        <ele>594</ele>
        <time>2017-01-07T13:50:48Z</time>
      </trkpt>
      <trkpt lat="44.0617" lon="5.94704">
        <ele>593.1</ele>
        <time>2017-01-07T13:50:49Z</time>
      </trkpt>
      <trkpt lat="44.06174" lon="5.94703">
        <ele>592</ele>
        <time>2017-01-07T13:50:50Z</time>
      </trkpt>
      <trkpt lat="44.06178" lon="5.94702">
        <ele>591.7</ele>
        <time>2017-01-07T13:50:51Z</time>
      </trkpt>
      <trkpt lat="44.06182" lon="5.94701">
        <ele>591.5</ele>
        <time>2017-01-07T13:50:52Z</time>
      </trkpt>
      <trkpt lat="44.06187" lon="5.94701">
        <ele>591.3</ele>
        <time>2017-01-07T13:50:53Z</time>
      </trkpt>
      <trkpt lat="44.06196" lon="5.947">
        <ele>590.9</ele>
        <time>2017-01-07T13:50:54Z</time>
      </trkpt>
      <trkpt lat="44.06202" lon="5.94701">
        <ele>590.3</ele>
        <time>2017-01-07T13:50:55Z</time>
      </trkpt>
      <trkpt lat="44.06208" lon="5.94701">
        <ele>589.3</ele>
        <time>2017-01-07T13:50:56Z</time>
      </trkpt>
      <trkpt lat="44.06214" lon="5.947">
        <ele>588.9</ele>
        <time>2017-01-07T13:50:57Z</time>
      </trkpt>
      <trkpt lat="44.0622" lon="5.947">
        <ele>588.6</ele>
        <time>2017-01-07T13:50:58Z</time>
      </trkpt>
      <trkpt lat="44.06226" lon="5.94702">
        <ele>588.4</ele>
        <time>2017-01-07T13:50:59Z</time>
      </trkpt>
      <trkpt lat="44.06232" lon="5.94702">
        <ele>588.2</ele>
        <time>2017-01-07T13:51:00Z</time>
      </trkpt>
      <trkpt lat="44.06236" lon="5.94702">
        <ele>588</ele>
        <time>2017-01-07T13:51:01Z</time>
      </trkpt>
      <trkpt lat="44.0624" lon="5.947">
        <ele>587.9</ele>
        <time>2017-01-07T13:51:02Z</time>
      </trkpt>
      <trkpt lat="44.06245" lon="5.94699">
        <ele>587.7</ele>
        <time>2017-01-07T13:51:03Z</time>
      </trkpt>
      <trkpt lat="44.06251" lon="5.94698">
        <ele>587.1</ele>
        <time>2017-01-07T13:51:04Z</time>
      </trkpt>
      <trkpt lat="44.06257" lon="5.94694">
        <ele>586.5</ele>
        <time>2017-01-07T13:51:05Z</time>
      </trkpt>
      <trkpt lat="44.06266" lon="5.94694">
        <ele>586.1</ele>
        <time>2017-01-07T13:51:06Z</time>
      </trkpt>
      <trkpt lat="44.06277" lon="5.94695">
        <ele>585.7</ele>
        <time>2017-01-07T13:51:07Z</time>
      </trkpt>
      <trkpt lat="44.0628" lon="5.94697">
        <ele>585.6</ele>
        <time>2017-01-07T13:51:08Z</time>
      </trkpt>
      <trkpt lat="44.06291" lon="5.94699">
        <ele>585.3</ele>
        <time>2017-01-07T13:51:09Z</time>
      </trkpt>
      <trkpt lat="44.06296" lon="5.94695">
        <ele>585.1</ele>
        <time>2017-01-07T13:51:10Z</time>
      </trkpt>
      <trkpt lat="44.06302" lon="5.94695">
        <ele>584.2</ele>
        <time>2017-01-07T13:51:11Z</time>
      </trkpt>
      <trkpt lat="44.06305" lon="5.94693">
        <ele>583.6</ele>
        <time>2017-01-07T13:51:12Z</time>
      </trkpt>
      <trkpt lat="44.06309" lon="5.94692">
        <ele>583.3</ele>
        <time>2017-01-07T13:51:13Z</time>
      </trkpt>
      <trkpt lat="44.06313" lon="5.94692">
        <ele>583</ele>
        <time>2017-01-07T13:51:14Z</time>
      </trkpt>
      <trkpt lat="44.06317" lon="5.94694">
        <ele>582.6</ele>
        <time>2017-01-07T13:51:15Z</time>
      </trkpt>
      <trkpt lat="44.06321" lon="5.94692">
        <ele>581.9</ele>
        <time>2017-01-07T13:51:16Z</time>
      </trkpt>
      <trkpt lat="44.0633" lon="5.94692">
        <ele>580.4</ele>
        <time>2017-01-07T13:51:17Z</time>
      </trkpt>
      <trkpt lat="44.06335" lon="5.94692">
        <ele>579.9</ele>
        <time>2017-01-07T13:51:18Z</time>
      </trkpt>
      <trkpt lat="44.0634" lon="5.94691">
        <ele>578.5</ele>
        <time>2017-01-07T13:51:19Z</time>
      </trkpt>
      <trkpt lat="44.06343" lon="5.9469">
        <ele>577.9</ele>
        <time>2017-01-07T13:51:20Z</time>
      </trkpt>
      <trkpt lat="44.06346" lon="5.94687">
        <ele>577.5</ele>
        <time>2017-01-07T13:51:22Z</time>
      </trkpt>
      <trkpt lat="44.06345" lon="5.94681">
        <ele>576.5</ele>
        <time>2017-01-07T13:51:27Z</time>
      </trkpt>
      <trkpt lat="44.06339" lon="5.94676">
        <ele>575.7</ele>
        <time>2017-01-07T13:51:29Z</time>
      </trkpt>
      <trkpt lat="44.06332" lon="5.94675">
        <ele>575.3</ele>
        <time>2017-01-07T13:51:31Z</time>
      </trkpt>
      <trkpt lat="44.06327" lon="5.94673">
        <ele>575.1</ele>
        <time>2017-01-07T13:51:32Z</time>
      </trkpt>
      <trkpt lat="44.06321" lon="5.94673">
        <ele>574.9</ele>
        <time>2017-01-07T13:51:33Z</time>
      </trkpt>
      <trkpt lat="44.06316" lon="5.94672">
        <ele>574.7</ele>
        <time>2017-01-07T13:51:34Z</time>
      </trkpt>
      <trkpt lat="44.06309" lon="5.9467">
        <ele>574.3</ele>
        <time>2017-01-07T13:51:35Z</time>
      </trkpt>
      <trkpt lat="44.06303" lon="5.94668">
        <ele>573.3</ele>
        <time>2017-01-07T13:51:36Z</time>
      </trkpt>
      <trkpt lat="44.06296" lon="5.94666">
        <ele>572.7</ele>
        <time>2017-01-07T13:51:37Z</time>
      </trkpt>
      <trkpt lat="44.0629" lon="5.94664">
        <ele>572.4</ele>
        <time>2017-01-07T13:51:38Z</time>
      </trkpt>
      <trkpt lat="44.06283" lon="5.94662">
        <ele>572.1</ele>
        <time>2017-01-07T13:51:39Z</time>
      </trkpt>
      <trkpt lat="44.06277" lon="5.94659">
        <ele>571.8</ele>
        <time>2017-01-07T13:51:40Z</time>
      </trkpt>
      <trkpt lat="44.0627" lon="5.94657">
        <ele>570.8</ele>
        <time>2017-01-07T13:51:41Z</time>
      </trkpt>
      <trkpt lat="44.06264" lon="5.94656">
        <ele>569.9</ele>
        <time>2017-01-07T13:51:42Z</time>
      </trkpt>
      <trkpt lat="44.06258" lon="5.94655">
        <ele>569.6</ele>
        <time>2017-01-07T13:51:43Z</time>
      </trkpt>
      <trkpt lat="44.06252" lon="5.94654">
        <ele>569.4</ele>
        <time>2017-01-07T13:51:44Z</time>
      </trkpt>
      <trkpt lat="44.06247" lon="5.94653">
        <ele>569.2</ele>
        <time>2017-01-07T13:51:45Z</time>
      </trkpt>
      <trkpt lat="44.06241" lon="5.94653">
        <ele>569.1</ele>
        <time>2017-01-07T13:51:46Z</time>
      </trkpt>
      <trkpt lat="44.06235" lon="5.94653">
        <ele>568.7</ele>
        <time>2017-01-07T13:51:47Z</time>
      </trkpt>
      <trkpt lat="44.06229" lon="5.94653">
        <ele>568.5</ele>
        <time>2017-01-07T13:51:48Z</time>
      </trkpt>
      <trkpt lat="44.06223" lon="5.94653">
        <ele>567.8</ele>
        <time>2017-01-07T13:51:49Z</time>
      </trkpt>
      <trkpt lat="44.06217" lon="5.94652">
        <ele>567</ele>
        <time>2017-01-07T13:51:50Z</time>
      </trkpt>
      <trkpt lat="44.06211" lon="5.9465">
        <ele>566.7</ele>
        <time>2017-01-07T13:51:51Z</time>
      </trkpt>
      <trkpt lat="44.06205" lon="5.94647">
        <ele>566.3</ele>
        <time>2017-01-07T13:51:52Z</time>
      </trkpt>
      <trkpt lat="44.062" lon="5.94644">
        <ele>566</ele>
        <time>2017-01-07T13:51:53Z</time>
      </trkpt>
      <trkpt lat="44.06195" lon="5.9464">
        <ele>565.4</ele>
        <time>2017-01-07T13:51:54Z</time>
      </trkpt>
      <trkpt lat="44.06191" lon="5.94638">
        <ele>564.5</ele>
        <time>2017-01-07T13:51:55Z</time>
      </trkpt>
      <trkpt lat="44.06186" lon="5.94636">
        <ele>564.1</ele>
        <time>2017-01-07T13:51:56Z</time>
      </trkpt>
      <trkpt lat="44.06181" lon="5.94633">
        <ele>563.9</ele>
        <time>2017-01-07T13:51:57Z</time>
      </trkpt>
      <trkpt lat="44.06175" lon="5.9463">
        <ele>563.6</ele>
        <time>2017-01-07T13:51:58Z</time>
      </trkpt>
      <trkpt lat="44.0617" lon="5.94627">
        <ele>563.4</ele>
        <time>2017-01-07T13:51:59Z</time>
      </trkpt>
      <trkpt lat="44.06165" lon="5.94624">
        <ele>563.2</ele>
        <time>2017-01-07T13:52:00Z</time>
      </trkpt>
      <trkpt lat="44.06159" lon="5.94622">
        <ele>563</ele>
        <time>2017-01-07T13:52:01Z</time>
      </trkpt>
      <trkpt lat="44.06153" lon="5.9462">
        <ele>562.8</ele>
        <time>2017-01-07T13:52:02Z</time>
      </trkpt>
      <trkpt lat="44.06148" lon="5.94619">
        <ele>562.5</ele>
        <time>2017-01-07T13:52:03Z</time>
      </trkpt>
      <trkpt lat="44.06142" lon="5.9462">
        <ele>561.7</ele>
        <time>2017-01-07T13:52:04Z</time>
      </trkpt>
      <trkpt lat="44.06136" lon="5.94622">
        <ele>561.1</ele>
        <time>2017-01-07T13:52:05Z</time>
      </trkpt>
      <trkpt lat="44.0613" lon="5.94624">
        <ele>560.7</ele>
        <time>2017-01-07T13:52:06Z</time>
      </trkpt>
      <trkpt lat="44.06125" lon="5.94627">
        <ele>560.3</ele>
        <time>2017-01-07T13:52:07Z</time>
      </trkpt>
      <trkpt lat="44.06119" lon="5.94631">
        <ele>559.6</ele>
        <time>2017-01-07T13:52:08Z</time>
      </trkpt>
      <trkpt lat="44.06114" lon="5.94635">
        <ele>558.5</ele>
        <time>2017-01-07T13:52:09Z</time>
      </trkpt>
      <trkpt lat="44.06109" lon="5.94638">
        <ele>557.3</ele>
        <time>2017-01-07T13:52:10Z</time>
      </trkpt>
      <trkpt lat="44.06104" lon="5.94643">
        <ele>555.8</ele>
        <time>2017-01-07T13:52:11Z</time>
      </trkpt>
      <trkpt lat="44.061" lon="5.94648">
        <ele>554.1</ele>
        <time>2017-01-07T13:52:12Z</time>
      </trkpt>
      <trkpt lat="44.06096" lon="5.94653">
        <ele>553.4</ele>
        <time>2017-01-07T13:52:13Z</time>
      </trkpt>
      <trkpt lat="44.06091" lon="5.94657">
        <ele>552.1</ele>
        <time>2017-01-07T13:52:14Z</time>
      </trkpt>
      <trkpt lat="44.06086" lon="5.94661">
        <ele>550.9</ele>
        <time>2017-01-07T13:52:15Z</time>
      </trkpt>
      <trkpt lat="44.06081" lon="5.94666">
        <ele>550</ele>
        <time>2017-01-07T13:52:16Z</time>
      </trkpt>
      <trkpt lat="44.06076" lon="5.9467">
        <ele>548.4</ele>
        <time>2017-01-07T13:52:17Z</time>
      </trkpt>
      <trkpt lat="44.06071" lon="5.94675">
        <ele>548.8</ele>
        <time>2017-01-07T13:52:18Z</time>
      </trkpt>
      <trkpt lat="44.06066" lon="5.94679">
        <ele>548.4</ele>
        <time>2017-01-07T13:52:19Z</time>
      </trkpt>
      <trkpt lat="44.06061" lon="5.9468">
        <ele>547.7</ele>
        <time>2017-01-07T13:52:20Z</time>
      </trkpt>
      <trkpt lat="44.06058" lon="5.94678">
        <ele>545.5</ele>
        <time>2017-01-07T13:52:21Z</time>
      </trkpt>
      <trkpt lat="44.06062" lon="5.94676">
        <ele>546.7</ele>
        <time>2017-01-07T13:52:23Z</time>
      </trkpt>
      <trkpt lat="44.06067" lon="5.94673">
        <ele>547.7</ele>
        <time>2017-01-07T13:52:26Z</time>
      </trkpt>
      <trkpt lat="44.06069" lon="5.9467">
        <ele>548</ele>
        <time>2017-01-07T13:52:29Z</time>
      </trkpt>
      <trkpt lat="44.06071" lon="5.94667">
        <ele>548.4</ele>
        <time>2017-01-07T13:52:32Z</time>
      </trkpt>
      <trkpt lat="44.06073" lon="5.94664">
        <ele>548.5</ele>
        <time>2017-01-07T13:52:35Z</time>
      </trkpt>
      <trkpt lat="44.06075" lon="5.94661">
        <ele>548.7</ele>
        <time>2017-01-07T13:52:36Z</time>
      </trkpt>
      <trkpt lat="44.06079" lon="5.94655">
        <ele>549.3</ele>
        <time>2017-01-07T13:52:37Z</time>
      </trkpt>
      <trkpt lat="44.06082" lon="5.94647">
        <ele>550</ele>
        <time>2017-01-07T13:52:38Z</time>
      </trkpt>
      <trkpt lat="44.06086" lon="5.9464">
        <ele>550.4</ele>
        <time>2017-01-07T13:52:39Z</time>
      </trkpt>
      <trkpt lat="44.06089" lon="5.94632">
        <ele>550.8</ele>
        <time>2017-01-07T13:52:40Z</time>
      </trkpt>
      <trkpt lat="44.06091" lon="5.94623">
        <ele>551.3</ele>
        <time>2017-01-07T13:52:41Z</time>
      </trkpt>
      <trkpt lat="44.06092" lon="5.94612">
        <ele>550.1</ele>
        <time>2017-01-07T13:52:42Z</time>
      </trkpt>
      <trkpt lat="44.06094" lon="5.94603">
        <ele>548.3</ele>
        <time>2017-01-07T13:52:43Z</time>
      </trkpt>
      <trkpt lat="44.06097" lon="5.94595">
        <ele>546.9</ele>
        <time>2017-01-07T13:52:44Z</time>
      </trkpt>
      <trkpt lat="44.061" lon="5.94588">
        <ele>545.6</ele>
        <time>2017-01-07T13:52:45Z</time>
      </trkpt>
      <trkpt lat="44.06102" lon="5.94585">
        <ele>545</ele>
        <time>2017-01-07T13:52:46Z</time>
      </trkpt>
      <trkpt lat="44.06105" lon="5.94581">
        <ele>544.7</ele>
        <time>2017-01-07T13:52:47Z</time>
      </trkpt>
      <trkpt lat="44.06107" lon="5.94577">
        <ele>543.8</ele>
        <time>2017-01-07T13:52:48Z</time>
      </trkpt>
      <trkpt lat="44.0611" lon="5.94573">
        <ele>542.8</ele>
        <time>2017-01-07T13:52:49Z</time>
      </trkpt>
      <trkpt lat="44.06113" lon="5.94569">
        <ele>541.9</ele>
        <time>2017-01-07T13:52:50Z</time>
      </trkpt>
      <trkpt lat="44.06116" lon="5.94566">
        <ele>541.3</ele>
        <time>2017-01-07T13:52:51Z</time>
      </trkpt>
      <trkpt lat="44.0612" lon="5.94563">
        <ele>540.8</ele>
        <time>2017-01-07T13:52:52Z</time>
      </trkpt>
      <trkpt lat="44.06122" lon="5.94561">
        <ele>540.5</ele>
        <time>2017-01-07T13:52:53Z</time>
      </trkpt>
      <trkpt lat="44.06126" lon="5.94562">
        <ele>540.1</ele>
        <time>2017-01-07T13:52:55Z</time>
      </trkpt>
      <trkpt lat="44.06129" lon="5.94564">
        <ele>539.8</ele>
        <time>2017-01-07T13:52:58Z</time>
      </trkpt>
      <trkpt lat="44.06132" lon="5.94565">
        <ele>539.3</ele>
        <time>2017-01-07T13:53:00Z</time>
      </trkpt>
      <trkpt lat="44.06137" lon="5.94566">
        <ele>538.9</ele>
        <time>2017-01-07T13:53:02Z</time>
      </trkpt>
      <trkpt lat="44.06141" lon="5.94568">
        <ele>538.7</ele>
        <time>2017-01-07T13:53:04Z</time>
      </trkpt>
      <trkpt lat="44.06144" lon="5.94571">
        <ele>539</ele>
        <time>2017-01-07T13:53:06Z</time>
      </trkpt>
      <trkpt lat="44.06148" lon="5.94574">
        <ele>539.4</ele>
        <time>2017-01-07T13:53:08Z</time>
      </trkpt>
      <trkpt lat="44.06151" lon="5.94574">
        <ele>539.7</ele>
        <time>2017-01-07T13:53:09Z</time>
      </trkpt>
      <trkpt lat="44.06154" lon="5.94575">
        <ele>540.1</ele>
        <time>2017-01-07T13:53:10Z</time>
      </trkpt>
      <trkpt lat="44.06157" lon="5.94577">
        <ele>540.7</ele>
        <time>2017-01-07T13:53:11Z</time>
      </trkpt>
      <trkpt lat="44.0616" lon="5.94578">
        <ele>541</ele>
        <time>2017-01-07T13:53:12Z</time>
      </trkpt>
      <trkpt lat="44.06163" lon="5.94579">
        <ele>541.2</ele>
        <time>2017-01-07T13:53:13Z</time>
      </trkpt>
      <trkpt lat="44.06167" lon="5.94581">
        <ele>541.6</ele>
        <time>2017-01-07T13:53:15Z</time>
      </trkpt>
      <trkpt lat="44.0617" lon="5.94584">
        <ele>542.1</ele>
        <time>2017-01-07T13:53:17Z</time>
      </trkpt>
      <trkpt lat="44.06175" lon="5.94586">
        <ele>542.5</ele>
        <time>2017-01-07T13:53:19Z</time>
      </trkpt>
      <trkpt lat="44.06178" lon="5.94587">
        <ele>542.6</ele>
        <time>2017-01-07T13:53:20Z</time>
      </trkpt>
      <trkpt lat="44.06181" lon="5.94588">
        <ele>542.8</ele>
        <time>2017-01-07T13:53:21Z</time>
      </trkpt>
      <trkpt lat="44.06185" lon="5.94589">
        <ele>542.9</ele>
        <time>2017-01-07T13:53:22Z</time>
      </trkpt>
      <trkpt lat="44.06188" lon="5.9459">
        <ele>543.1</ele>
        <time>2017-01-07T13:53:23Z</time>
      </trkpt>
      <trkpt lat="44.06192" lon="5.94591">
        <ele>543.4</ele>
        <time>2017-01-07T13:53:24Z</time>
      </trkpt>
      <trkpt lat="44.06196" lon="5.94591">
        <ele>543.6</ele>
        <time>2017-01-07T13:53:25Z</time>
      </trkpt>
      <trkpt lat="44.062" lon="5.94591">
        <ele>543.9</ele>
        <time>2017-01-07T13:53:26Z</time>
      </trkpt>
      <trkpt lat="44.06203" lon="5.94591">
        <ele>544.1</ele>
        <time>2017-01-07T13:53:27Z</time>
      </trkpt>
      <trkpt lat="44.06207" lon="5.94592">
        <ele>544.2</ele>
        <time>2017-01-07T13:53:28Z</time>
      </trkpt>
      <trkpt lat="44.0621" lon="5.94593">
        <ele>544.3</ele>
        <time>2017-01-07T13:53:29Z</time>
      </trkpt>
      <trkpt lat="44.06213" lon="5.94594">
        <ele>544.3</ele>
        <time>2017-01-07T13:53:30Z</time>
      </trkpt>
      <trkpt lat="44.06218" lon="5.94597">
        <ele>544.5</ele>
        <time>2017-01-07T13:53:32Z</time>
      </trkpt>
      <trkpt lat="44.06222" lon="5.94602">
        <ele>544.7</ele>
        <time>2017-01-07T13:53:34Z</time>
      </trkpt>
      <trkpt lat="44.06225" lon="5.94602">
        <ele>544.8</ele>
        <time>2017-01-07T13:53:35Z</time>
      </trkpt>
      <trkpt lat="44.06228" lon="5.94602">
        <ele>544.9</ele>
        <time>2017-01-07T13:53:36Z</time>
      </trkpt>
      <trkpt lat="44.0623" lon="5.94601">
        <ele>545</ele>
        <time>2017-01-07T13:53:37Z</time>
      </trkpt>
      <trkpt lat="44.06233" lon="5.94601">
        <ele>545.2</ele>
        <time>2017-01-07T13:53:38Z</time>
      </trkpt>
      <trkpt lat="44.06238" lon="5.946">
        <ele>545.5</ele>
        <time>2017-01-07T13:53:40Z</time>
      </trkpt>
      <trkpt lat="44.06243" lon="5.94601">
        <ele>545.7</ele>
        <time>2017-01-07T13:53:42Z</time>
      </trkpt>
      <trkpt lat="44.06248" lon="5.94601">
        <ele>545.9</ele>
        <time>2017-01-07T13:53:44Z</time>
      </trkpt>
      <trkpt lat="44.06253" lon="5.94603">
        <ele>546</ele>
        <time>2017-01-07T13:53:46Z</time>
      </trkpt>
      <trkpt lat="44.06255" lon="5.94604">
        <ele>546.1</ele>
        <time>2017-01-07T13:53:48Z</time>
      </trkpt>
      <trkpt lat="44.06258" lon="5.94605">
        <ele>546.1</ele>
        <time>2017-01-07T13:53:51Z</time>
      </trkpt>
      <trkpt lat="44.06261" lon="5.94606">
        <ele>546.2</ele>
        <time>2017-01-07T13:53:53Z</time>
      </trkpt>
      <trkpt lat="44.06265" lon="5.94606">
        <ele>546.3</ele>
        <time>2017-01-07T13:53:55Z</time>
      </trkpt>
      <trkpt lat="44.0627" lon="5.94607">
        <ele>546.6</ele>
        <time>2017-01-07T13:53:57Z</time>
      </trkpt>
      <trkpt lat="44.06274" lon="5.94608">
        <ele>546.9</ele>
        <time>2017-01-07T13:53:59Z</time>
      </trkpt>
      <trkpt lat="44.06279" lon="5.94608">
        <ele>547.2</ele>
        <time>2017-01-07T13:54:01Z</time>
      </trkpt>
      <trkpt lat="44.06283" lon="5.94608">
        <ele>547.4</ele>
        <time>2017-01-07T13:54:03Z</time>
      </trkpt>
      <trkpt lat="44.06288" lon="5.94607">
        <ele>547.6</ele>
        <time>2017-01-07T13:54:05Z</time>
      </trkpt>
      <trkpt lat="44.06291" lon="5.94607">
        <ele>547.7</ele>
        <time>2017-01-07T13:54:06Z</time>
      </trkpt>
      <trkpt lat="44.06296" lon="5.94608">
        <ele>547.8</ele>
        <time>2017-01-07T13:54:08Z</time>
      </trkpt>
      <trkpt lat="44.06301" lon="5.94609">
        <ele>548</ele>
        <time>2017-01-07T13:54:10Z</time>
      </trkpt>
      <trkpt lat="44.06306" lon="5.94609">
        <ele>548.3</ele>
        <time>2017-01-07T13:54:12Z</time>
      </trkpt>
      <trkpt lat="44.06311" lon="5.94608">
        <ele>548.7</ele>
        <time>2017-01-07T13:54:14Z</time>
      </trkpt>
      <trkpt lat="44.06315" lon="5.94608">
        <ele>548.9</ele>
        <time>2017-01-07T13:54:16Z</time>
      </trkpt>
      <trkpt lat="44.06319" lon="5.94608">
        <ele>549</ele>
        <time>2017-01-07T13:54:18Z</time>
      </trkpt>
      <trkpt lat="44.06324" lon="5.94608">
        <ele>549.2</ele>
        <time>2017-01-07T13:54:20Z</time>
      </trkpt>
      <trkpt lat="44.06328" lon="5.94609">
        <ele>549.6</ele>
        <time>2017-01-07T13:54:22Z</time>
      </trkpt>
      <trkpt lat="44.06332" lon="5.9461">
        <ele>549.9</ele>
        <time>2017-01-07T13:54:24Z</time>
      </trkpt>
      <trkpt lat="44.06337" lon="5.94611">
        <ele>550.2</ele>
        <time>2017-01-07T13:54:26Z</time>
      </trkpt>
      <trkpt lat="44.06341" lon="5.94611">
        <ele>550.4</ele>
        <time>2017-01-07T13:54:28Z</time>
      </trkpt>
      <trkpt lat="44.06345" lon="5.94613">
        <ele>550.6</ele>
        <time>2017-01-07T13:54:30Z</time>
      </trkpt>
      <trkpt lat="44.06349" lon="5.94616">
        <ele>550.6</ele>
        <time>2017-01-07T13:54:32Z</time>
      </trkpt>
      <trkpt lat="44.06353" lon="5.94616">
        <ele>550.7</ele>
        <time>2017-01-07T13:54:33Z</time>
      </trkpt>
      <trkpt lat="44.06358" lon="5.94618">
        <ele>550.8</ele>
        <time>2017-01-07T13:54:35Z</time>
      </trkpt>
      <trkpt lat="44.06361" lon="5.94619">
        <ele>551</ele>
        <time>2017-01-07T13:54:36Z</time>
      </trkpt>
      <trkpt lat="44.06365" lon="5.9462">
        <ele>551.3</ele>
        <time>2017-01-07T13:54:38Z</time>
      </trkpt>
      <trkpt lat="44.0637" lon="5.94622">
        <ele>551.6</ele>
        <time>2017-01-07T13:54:40Z</time>
      </trkpt>
      <trkpt lat="44.06374" lon="5.94623">
        <ele>551.6</ele>
        <time>2017-01-07T13:54:42Z</time>
      </trkpt>
      <trkpt lat="44.06377" lon="5.94623">
        <ele>551.7</ele>
        <time>2017-01-07T13:54:44Z</time>
      </trkpt>
      <trkpt lat="44.06381" lon="5.94624">
        <ele>551.8</ele>
        <time>2017-01-07T13:54:46Z</time>
      </trkpt>
      <trkpt lat="44.06385" lon="5.94625">
        <ele>551.8</ele>
        <time>2017-01-07T13:54:48Z</time>
      </trkpt>
      <trkpt lat="44.06389" lon="5.94625">
        <ele>551.9</ele>
        <time>2017-01-07T13:54:50Z</time>
      </trkpt>
      <trkpt lat="44.06393" lon="5.94626">
        <ele>551.9</ele>
        <time>2017-01-07T13:54:52Z</time>
      </trkpt>
      <trkpt lat="44.06398" lon="5.94628">
        <ele>552</ele>
        <time>2017-01-07T13:54:54Z</time>
      </trkpt>
      <trkpt lat="44.06403" lon="5.94628">
        <ele>551.9</ele>
        <time>2017-01-07T13:54:56Z</time>
      </trkpt>
      <trkpt lat="44.06407" lon="5.94629">
        <ele>551.7</ele>
        <time>2017-01-07T13:54:58Z</time>
      </trkpt>
      <trkpt lat="44.06411" lon="5.94628">
        <ele>551.9</ele>
        <time>2017-01-07T13:55:00Z</time>
      </trkpt>
      <trkpt lat="44.06413" lon="5.94628">
        <ele>552.2</ele>
        <time>2017-01-07T13:55:03Z</time>
      </trkpt>
      <trkpt lat="44.06408" lon="5.94625">
        <ele>551.7</ele>
        <time>2017-01-07T13:57:00Z</time>
      </trkpt>
      <trkpt lat="44.06405" lon="5.94625">
        <ele>551.9</ele>
        <time>2017-01-07T13:57:01Z</time>
      </trkpt>
      <trkpt lat="44.06402" lon="5.94624">
        <ele>552</ele>
        <time>2017-01-07T13:57:02Z</time>
      </trkpt>
      <trkpt lat="44.06399" lon="5.94624">
        <ele>552</ele>
        <time>2017-01-07T13:57:03Z</time>
      </trkpt>
      <trkpt lat="44.06396" lon="5.94624">
        <ele>551.9</ele>
        <time>2017-01-07T13:57:04Z</time>
      </trkpt>
      <trkpt lat="44.06392" lon="5.94623">
        <ele>551.9</ele>
        <time>2017-01-07T13:57:05Z</time>
      </trkpt>
      <trkpt lat="44.06388" lon="5.94622">
        <ele>551.9</ele>
        <time>2017-01-07T13:57:06Z</time>
      </trkpt>
      <trkpt lat="44.06386" lon="5.94622">
        <ele>551.8</ele>
        <time>2017-01-07T13:57:07Z</time>
      </trkpt>
      <trkpt lat="44.06381" lon="5.94621">
        <ele>551.8</ele>
        <time>2017-01-07T13:57:09Z</time>
      </trkpt>
      <trkpt lat="44.06378" lon="5.9462">
        <ele>551.8</ele>
        <time>2017-01-07T13:57:11Z</time>
      </trkpt>
      <trkpt lat="44.06383" lon="5.94621">
        <ele>551.8</ele>
        <time>2017-01-07T13:57:43Z</time>
      </trkpt>
      <trkpt lat="44.06386" lon="5.94622">
        <ele>551.8</ele>
        <time>2017-01-07T13:57:45Z</time>
      </trkpt>
      <trkpt lat="44.06389" lon="5.94623">
        <ele>551.9</ele>
        <time>2017-01-07T13:57:47Z</time>
      </trkpt>
      <trkpt lat="44.06392" lon="5.94623">
        <ele>551.9</ele>
        <time>2017-01-07T13:57:49Z</time>
      </trkpt>
      <trkpt lat="44.06396" lon="5.94625">
        <ele>551.9</ele>
        <time>2017-01-07T13:57:51Z</time>
      </trkpt>
      <trkpt lat="44.06399" lon="5.94627">
        <ele>552</ele>
        <time>2017-01-07T13:57:53Z</time>
      </trkpt>
      <trkpt lat="44.06402" lon="5.94628">
        <ele>552</ele>
        <time>2017-01-07T13:57:55Z</time>
      </trkpt>
      <trkpt lat="44.06405" lon="5.94629">
        <ele>551.8</ele>
        <time>2017-01-07T13:57:57Z</time>
      </trkpt>
      <trkpt lat="44.06408" lon="5.9463">
        <ele>551.5</ele>
        <time>2017-01-07T13:57:59Z</time>
      </trkpt>
      <trkpt lat="44.06411" lon="5.9463">
        <ele>551.3</ele>
        <time>2017-01-07T13:58:02Z</time>
      </trkpt>
      <trkpt lat="44.06412" lon="5.94623">
        <ele>550.8</ele>
        <time>2017-01-07T13:58:23Z</time>
      </trkpt>
      <trkpt lat="44.06411" lon="5.94618">
        <ele>550.3</ele>
        <time>2017-01-07T13:58:25Z</time>
      </trkpt>
      <trkpt lat="44.06407" lon="5.94613">
        <ele>549.7</ele>
        <time>2017-01-07T13:58:27Z</time>
      </trkpt>
      <trkpt lat="44.06403" lon="5.9461">
        <ele>549</ele>
        <time>2017-01-07T13:58:28Z</time>
      </trkpt>
      <trkpt lat="44.06397" lon="5.94607">
        <ele>547.7</ele>
        <time>2017-01-07T13:58:29Z</time>
      </trkpt>
      <trkpt lat="44.06381" lon="5.94603">
        <ele>545.2</ele>
        <time>2017-01-07T13:58:30Z</time>
      </trkpt>
      <trkpt lat="44.06377" lon="5.94599">
        <ele>544.3</ele>
        <time>2017-01-07T13:58:31Z</time>
      </trkpt>
      <trkpt lat="44.06373" lon="5.94596">
        <ele>543.5</ele>
        <time>2017-01-07T13:58:32Z</time>
      </trkpt>
      <trkpt lat="44.06371" lon="5.94591">
        <ele>542.7</ele>
        <time>2017-01-07T13:58:33Z</time>
      </trkpt>
      <trkpt lat="44.06368" lon="5.94586">
        <ele>541.8</ele>
        <time>2017-01-07T13:58:34Z</time>
      </trkpt>
      <trkpt lat="44.06366" lon="5.94582">
        <ele>540.7</ele>
        <time>2017-01-07T13:58:35Z</time>
      </trkpt>
      <trkpt lat="44.06364" lon="5.94577">
        <ele>539.9</ele>
        <time>2017-01-07T13:58:36Z</time>
      </trkpt>
      <trkpt lat="44.06362" lon="5.94572">
        <ele>539</ele>
        <time>2017-01-07T13:58:37Z</time>
      </trkpt>
      <trkpt lat="44.0636" lon="5.94566">
        <ele>538.2</ele>
        <time>2017-01-07T13:58:38Z</time>
      </trkpt>
      <trkpt lat="44.06359" lon="5.94562">
        <ele>537.5</ele>
        <time>2017-01-07T13:58:39Z</time>
      </trkpt>
      <trkpt lat="44.06361" lon="5.94558">
        <ele>537</ele>
        <time>2017-01-07T13:58:40Z</time>
      </trkpt>
      <trkpt lat="44.06364" lon="5.94557">
        <ele>536.3</ele>
        <time>2017-01-07T13:58:41Z</time>
      </trkpt>
      <trkpt lat="44.06368" lon="5.94556">
        <ele>535.6</ele>
        <time>2017-01-07T13:58:43Z</time>
      </trkpt>
      <trkpt lat="44.06368" lon="5.94551">
        <ele>534.9</ele>
        <time>2017-01-07T13:58:45Z</time>
      </trkpt>
      <trkpt lat="44.06364" lon="5.94549">
        <ele>534.2</ele>
        <time>2017-01-07T13:58:46Z</time>
      </trkpt>
      <trkpt lat="44.06359" lon="5.94547">
        <ele>533.2</ele>
        <time>2017-01-07T13:58:47Z</time>
      </trkpt>
      <trkpt lat="44.06353" lon="5.94546">
        <ele>532.1</ele>
        <time>2017-01-07T13:58:48Z</time>
      </trkpt>
      <trkpt lat="44.06348" lon="5.94545">
        <ele>531.1</ele>
        <time>2017-01-07T13:58:49Z</time>
      </trkpt>
      <trkpt lat="44.06343" lon="5.94544">
        <ele>529.9</ele>
        <time>2017-01-07T13:58:50Z</time>
      </trkpt>
      <trkpt lat="44.06337" lon="5.94544">
        <ele>528.7</ele>
        <time>2017-01-07T13:58:51Z</time>
      </trkpt>
      <trkpt lat="44.06331" lon="5.94543">
        <ele>527.7</ele>
        <time>2017-01-07T13:58:52Z</time>
      </trkpt>
      <trkpt lat="44.06324" lon="5.9454">
        <ele>526.5</ele>
        <time>2017-01-07T13:58:53Z</time>
      </trkpt>
      <trkpt lat="44.06319" lon="5.94539">
        <ele>525.4</ele>
        <time>2017-01-07T13:58:54Z</time>
      </trkpt>
      <trkpt lat="44.06314" lon="5.94539">
        <ele>524.5</ele>
        <time>2017-01-07T13:58:55Z</time>
      </trkpt>
      <trkpt lat="44.06309" lon="5.94538">
        <ele>523.6</ele>
        <time>2017-01-07T13:58:56Z</time>
      </trkpt>
      <trkpt lat="44.06305" lon="5.94536">
        <ele>522.7</ele>
        <time>2017-01-07T13:58:57Z</time>
      </trkpt>
      <trkpt lat="44.06301" lon="5.94532">
        <ele>521.8</ele>
        <time>2017-01-07T13:58:58Z</time>
      </trkpt>
      <trkpt lat="44.06298" lon="5.94527">
        <ele>520.6</ele>
        <time>2017-01-07T13:58:59Z</time>
      </trkpt>
      <trkpt lat="44.06294" lon="5.94524">
        <ele>519.6</ele>
        <time>2017-01-07T13:59:00Z</time>
      </trkpt>
      <trkpt lat="44.06291" lon="5.94522">
        <ele>518.5</ele>
        <time>2017-01-07T13:59:01Z</time>
      </trkpt>
      <trkpt lat="44.06286" lon="5.9452">
        <ele>517.6</ele>
        <time>2017-01-07T13:59:02Z</time>
      </trkpt>
      <trkpt lat="44.06282" lon="5.94518">
        <ele>516.6</ele>
        <time>2017-01-07T13:59:03Z</time>
      </trkpt>
      <trkpt lat="44.06279" lon="5.94513">
        <ele>515.5</ele>
        <time>2017-01-07T13:59:04Z</time>
      </trkpt>
      <trkpt lat="44.06278" lon="5.94507">
        <ele>514.5</ele>
        <time>2017-01-07T13:59:05Z</time>
      </trkpt>
      <trkpt lat="44.06277" lon="5.945">
        <ele>513.5</ele>
        <time>2017-01-07T13:59:06Z</time>
      </trkpt>
      <trkpt lat="44.06276" lon="5.94492">
        <ele>512.1</ele>
        <time>2017-01-07T13:59:07Z</time>
      </trkpt>
      <trkpt lat="44.06275" lon="5.94485">
        <ele>510.8</ele>
        <time>2017-01-07T13:59:08Z</time>
      </trkpt>
      <trkpt lat="44.06272" lon="5.9448">
        <ele>509.9</ele>
        <time>2017-01-07T13:59:09Z</time>
      </trkpt>
      <trkpt lat="44.06269" lon="5.94479">
        <ele>509</ele>
        <time>2017-01-07T13:59:10Z</time>
      </trkpt>
      <trkpt lat="44.06266" lon="5.94477">
        <ele>508.5</ele>
        <time>2017-01-07T13:59:12Z</time>
      </trkpt>
      <trkpt lat="44.0627" lon="5.94473">
        <ele>507.7</ele>
        <time>2017-01-07T13:59:14Z</time>
      </trkpt>
      <trkpt lat="44.06273" lon="5.94472">
        <ele>506.8</ele>
        <time>2017-01-07T13:59:15Z</time>
      </trkpt>
      <trkpt lat="44.06277" lon="5.94469">
        <ele>505.4</ele>
        <time>2017-01-07T13:59:16Z</time>
      </trkpt>
      <trkpt lat="44.06281" lon="5.94465">
        <ele>504.4</ele>
        <time>2017-01-07T13:59:17Z</time>
      </trkpt>
      <trkpt lat="44.06285" lon="5.94463">
        <ele>503.4</ele>
        <time>2017-01-07T13:59:18Z</time>
      </trkpt>
      <trkpt lat="44.06289" lon="5.9446">
        <ele>502.3</ele>
        <time>2017-01-07T13:59:19Z</time>
      </trkpt>
      <trkpt lat="44.06293" lon="5.94457">
        <ele>501.5</ele>
        <time>2017-01-07T13:59:20Z</time>
      </trkpt>
      <trkpt lat="44.06296" lon="5.94452">
        <ele>500.5</ele>
        <time>2017-01-07T13:59:21Z</time>
      </trkpt>
      <trkpt lat="44.06296" lon="5.94446">
        <ele>499.6</ele>
        <time>2017-01-07T13:59:22Z</time>
      </trkpt>
      <trkpt lat="44.06295" lon="5.94442">
        <ele>499.1</ele>
        <time>2017-01-07T13:59:23Z</time>
      </trkpt>
      <trkpt lat="44.06294" lon="5.94437">
        <ele>498.4</ele>
        <time>2017-01-07T13:59:24Z</time>
      </trkpt>
      <trkpt lat="44.0629" lon="5.94433">
        <ele>497.5</ele>
        <time>2017-01-07T13:59:25Z</time>
      </trkpt>
      <trkpt lat="44.06286" lon="5.94429">
        <ele>496.4</ele>
        <time>2017-01-07T13:59:26Z</time>
      </trkpt>
      <trkpt lat="44.06281" lon="5.94426">
        <ele>495.6</ele>
        <time>2017-01-07T13:59:27Z</time>
      </trkpt>
      <trkpt lat="44.06275" lon="5.94423">
        <ele>495.2</ele>
        <time>2017-01-07T13:59:28Z</time>
      </trkpt>
      <trkpt lat="44.0627" lon="5.9442">
        <ele>494.9</ele>
        <time>2017-01-07T13:59:29Z</time>
      </trkpt>
      <trkpt lat="44.06266" lon="5.94417">
        <ele>494.7</ele>
        <time>2017-01-07T13:59:30Z</time>
      </trkpt>
      <trkpt lat="44.06261" lon="5.94412">
        <ele>494.5</ele>
        <time>2017-01-07T13:59:31Z</time>
      </trkpt>
      <trkpt lat="44.06258" lon="5.94407">
        <ele>494.4</ele>
        <time>2017-01-07T13:59:32Z</time>
      </trkpt>
      <trkpt lat="44.06255" lon="5.944">
        <ele>494.2</ele>
        <time>2017-01-07T13:59:33Z</time>
      </trkpt>
      <trkpt lat="44.06251" lon="5.94393">
        <ele>493.9</ele>
        <time>2017-01-07T13:59:34Z</time>
      </trkpt>
      <trkpt lat="44.06246" lon="5.94387">
        <ele>493.7</ele>
        <time>2017-01-07T13:59:35Z</time>
      </trkpt>
      <trkpt lat="44.06239" lon="5.94383">
        <ele>493.5</ele>
        <time>2017-01-07T13:59:36Z</time>
      </trkpt>
      <trkpt lat="44.06232" lon="5.94381">
        <ele>493.1</ele>
        <time>2017-01-07T13:59:37Z</time>
      </trkpt>
      <trkpt lat="44.06223" lon="5.94377">
        <ele>492.1</ele>
        <time>2017-01-07T13:59:38Z</time>
      </trkpt>
      <trkpt lat="44.06215" lon="5.94373">
        <ele>491.1</ele>
        <time>2017-01-07T13:59:39Z</time>
      </trkpt>
      <trkpt lat="44.06207" lon="5.9437">
        <ele>489.8</ele>
        <time>2017-01-07T13:59:40Z</time>
      </trkpt>
      <trkpt lat="44.06198" lon="5.94367">
        <ele>488.4</ele>
        <time>2017-01-07T13:59:41Z</time>
      </trkpt>
      <trkpt lat="44.0619" lon="5.94362">
        <ele>486.8</ele>
        <time>2017-01-07T13:59:42Z</time>
      </trkpt>
      <trkpt lat="44.06183" lon="5.94356">
        <ele>485.1</ele>
        <time>2017-01-07T13:59:43Z</time>
      </trkpt>
      <trkpt lat="44.06176" lon="5.9435">
        <ele>483.7</ele>
        <time>2017-01-07T13:59:44Z</time>
      </trkpt>
      <trkpt lat="44.06171" lon="5.94345">
        <ele>482.5</ele>
        <time>2017-01-07T13:59:45Z</time>
      </trkpt>
      <trkpt lat="44.06167" lon="5.94341">
        <ele>481.4</ele>
        <time>2017-01-07T13:59:46Z</time>
      </trkpt>
      <trkpt lat="44.06163" lon="5.94336">
        <ele>480.1</ele>
        <time>2017-01-07T13:59:47Z</time>
      </trkpt>
      <trkpt lat="44.06158" lon="5.94332">
        <ele>478.7</ele>
        <time>2017-01-07T13:59:48Z</time>
      </trkpt>
      <trkpt lat="44.06153" lon="5.94327">
        <ele>477.7</ele>
        <time>2017-01-07T13:59:49Z</time>
      </trkpt>
      <trkpt lat="44.06148" lon="5.94324">
        <ele>477.1</ele>
        <time>2017-01-07T13:59:50Z</time>
      </trkpt>
      <trkpt lat="44.06142" lon="5.94322">
        <ele>476.8</ele>
        <time>2017-01-07T13:59:51Z</time>
      </trkpt>
      <trkpt lat="44.06136" lon="5.94321">
        <ele>476.2</ele>
        <time>2017-01-07T13:59:52Z</time>
      </trkpt>
      <trkpt lat="44.0613" lon="5.9432">
        <ele>475.5</ele>
        <time>2017-01-07T13:59:53Z</time>
      </trkpt>
      <trkpt lat="44.06124" lon="5.94321">
        <ele>475.2</ele>
        <time>2017-01-07T13:59:54Z</time>
      </trkpt>
      <trkpt lat="44.06119" lon="5.94323">
        <ele>475.1</ele>
        <time>2017-01-07T13:59:55Z</time>
      </trkpt>
      <trkpt lat="44.06115" lon="5.94323">
        <ele>474.7</ele>
        <time>2017-01-07T13:59:56Z</time>
      </trkpt>
      <trkpt lat="44.06112" lon="5.94318">
        <ele>473.9</ele>
        <time>2017-01-07T13:59:58Z</time>
      </trkpt>
      <trkpt lat="44.06113" lon="5.94312">
        <ele>473.2</ele>
        <time>2017-01-07T13:59:59Z</time>
      </trkpt>
      <trkpt lat="44.06115" lon="5.94306">
        <ele>472.5</ele>
        <time>2017-01-07T14:00:00Z</time>
      </trkpt>
      <trkpt lat="44.06118" lon="5.943">
        <ele>471.6</ele>
        <time>2017-01-07T14:00:01Z</time>
      </trkpt>
      <trkpt lat="44.06122" lon="5.94295">
        <ele>470.8</ele>
        <time>2017-01-07T14:00:02Z</time>
      </trkpt>
      <trkpt lat="44.06126" lon="5.94292">
        <ele>470.2</ele>
        <time>2017-01-07T14:00:03Z</time>
      </trkpt>
      <trkpt lat="44.06131" lon="5.9429">
        <ele>469.2</ele>
        <time>2017-01-07T14:00:04Z</time>
      </trkpt>
      <trkpt lat="44.06135" lon="5.94286">
        <ele>467.9</ele>
        <time>2017-01-07T14:00:05Z</time>
      </trkpt>
      <trkpt lat="44.06138" lon="5.94282">
        <ele>467.8</ele>
        <time>2017-01-07T14:00:06Z</time>
      </trkpt>
      <trkpt lat="44.0614" lon="5.94276">
        <ele>467.4</ele>
        <time>2017-01-07T14:00:07Z</time>
      </trkpt>
      <trkpt lat="44.06141" lon="5.94269">
        <ele>466.8</ele>
        <time>2017-01-07T14:00:08Z</time>
      </trkpt>
      <trkpt lat="44.0614" lon="5.94262">
        <ele>466.2</ele>
        <time>2017-01-07T14:00:09Z</time>
      </trkpt>
      <trkpt lat="44.06137" lon="5.94257">
        <ele>465.6</ele>
        <time>2017-01-07T14:00:10Z</time>
      </trkpt>
      <trkpt lat="44.06133" lon="5.94252">
        <ele>464.9</ele>
        <time>2017-01-07T14:00:11Z</time>
      </trkpt>
      <trkpt lat="44.06129" lon="5.94247">
        <ele>464.7</ele>
        <time>2017-01-07T14:00:12Z</time>
      </trkpt>
      <trkpt lat="44.06124" lon="5.94242">
        <ele>464.6</ele>
        <time>2017-01-07T14:00:13Z</time>
      </trkpt>
      <trkpt lat="44.0612" lon="5.94236">
        <ele>463.1</ele>
        <time>2017-01-07T14:00:14Z</time>
      </trkpt>
      <trkpt lat="44.06117" lon="5.9423">
        <ele>461.7</ele>
        <time>2017-01-07T14:00:15Z</time>
      </trkpt>
      <trkpt lat="44.06114" lon="5.94225">
        <ele>461.1</ele>
        <time>2017-01-07T14:00:16Z</time>
      </trkpt>
      <trkpt lat="44.06112" lon="5.9422">
        <ele>460.7</ele>
        <time>2017-01-07T14:00:17Z</time>
      </trkpt>
      <trkpt lat="44.06111" lon="5.94217">
        <ele>460.4</ele>
        <time>2017-01-07T14:00:18Z</time>
      </trkpt>
      <trkpt lat="44.06109" lon="5.94221">
        <ele>460</ele>
        <time>2017-01-07T14:00:22Z</time>
      </trkpt>
      <trkpt lat="44.06109" lon="5.94227">
        <ele>459.6</ele>
        <time>2017-01-07T14:00:29Z</time>
      </trkpt>
      <trkpt lat="44.06104" lon="5.94226">
        <ele>459</ele>
        <time>2017-01-07T14:02:32Z</time>
      </trkpt>
      <trkpt lat="44.06101" lon="5.94229">
        <ele>458.9</ele>
        <time>2017-01-07T14:02:34Z</time>
      </trkpt>
      <trkpt lat="44.06099" lon="5.94232">
        <ele>458.8</ele>
        <time>2017-01-07T14:02:36Z</time>
      </trkpt>
      <trkpt lat="44.06099" lon="5.94236">
        <ele>458.7</ele>
        <time>2017-01-07T14:02:38Z</time>
      </trkpt>
      <trkpt lat="44.06099" lon="5.94241">
        <ele>458.6</ele>
        <time>2017-01-07T14:02:41Z</time>
      </trkpt>
      <trkpt lat="44.06096" lon="5.94239">
        <ele>458.6</ele>
        <time>2017-01-07T14:02:44Z</time>
      </trkpt>
      <trkpt lat="44.06091" lon="5.94237">
        <ele>458.6</ele>
        <time>2017-01-07T14:02:50Z</time>
      </trkpt>
      <trkpt lat="44.06091" lon="5.94242">
        <ele>458.5</ele>
        <time>2017-01-07T14:03:11Z</time>
      </trkpt>
      <trkpt lat="44.0609" lon="5.94247">
        <ele>458.3</ele>
        <time>2017-01-07T14:03:13Z</time>
      </trkpt>
      <trkpt lat="44.06088" lon="5.94252">
        <ele>458.2</ele>
        <time>2017-01-07T14:03:15Z</time>
      </trkpt>
      <trkpt lat="44.06086" lon="5.94258">
        <ele>457.9</ele>
        <time>2017-01-07T14:03:17Z</time>
      </trkpt>
      <trkpt lat="44.06084" lon="5.94262">
        <ele>457.6</ele>
        <time>2017-01-07T14:03:19Z</time>
      </trkpt>
      <trkpt lat="44.06081" lon="5.94266">
        <ele>457.3</ele>
        <time>2017-01-07T14:03:21Z</time>
      </trkpt>
      <trkpt lat="44.06078" lon="5.94271">
        <ele>456.9</ele>
        <time>2017-01-07T14:03:23Z</time>
      </trkpt>
      <trkpt lat="44.06075" lon="5.94276">
        <ele>456.4</ele>
        <time>2017-01-07T14:03:25Z</time>
      </trkpt>
      <trkpt lat="44.06071" lon="5.9428">
        <ele>455.8</ele>
        <time>2017-01-07T14:03:27Z</time>
      </trkpt>
      <trkpt lat="44.06066" lon="5.94281">
        <ele>454.1</ele>
        <time>2017-01-07T14:03:29Z</time>
      </trkpt>
      <trkpt lat="44.06063" lon="5.94281">
        <ele>453.3</ele>
        <time>2017-01-07T14:03:30Z</time>
      </trkpt>
      <trkpt lat="44.0606" lon="5.94282">
        <ele>452.5</ele>
        <time>2017-01-07T14:03:31Z</time>
      </trkpt>
      <trkpt lat="44.06057" lon="5.94283">
        <ele>451.8</ele>
        <time>2017-01-07T14:03:32Z</time>
      </trkpt>
      <trkpt lat="44.06053" lon="5.94284">
        <ele>451.5</ele>
        <time>2017-01-07T14:03:33Z</time>
      </trkpt>
      <trkpt lat="44.06051" lon="5.94285">
        <ele>450.8</ele>
        <time>2017-01-07T14:03:34Z</time>
      </trkpt>
      <trkpt lat="44.06047" lon="5.94284">
        <ele>450.2</ele>
        <time>2017-01-07T14:03:36Z</time>
      </trkpt>
      <trkpt lat="44.06051" lon="5.94282">
        <ele>450.4</ele>
        <time>2017-01-07T14:03:39Z</time>
      </trkpt>
      <trkpt lat="44.06053" lon="5.94279">
        <ele>451</ele>
        <time>2017-01-07T14:03:41Z</time>
      </trkpt>
      <trkpt lat="44.06051" lon="5.94276">
        <ele>450.9</ele>
        <time>2017-01-07T14:03:44Z</time>
      </trkpt>
      <trkpt lat="44.06048" lon="5.94275">
        <ele>450.9</ele>
        <time>2017-01-07T14:03:46Z</time>
      </trkpt>
      <trkpt lat="44.06045" lon="5.94272">
        <ele>450.9</ele>
        <time>2017-01-07T14:03:49Z</time>
      </trkpt>
      <trkpt lat="44.06041" lon="5.94263">
        <ele>450.9</ele>
        <time>2017-01-07T14:05:00Z</time>
      </trkpt>
      <trkpt lat="44.06038" lon="5.9426">
        <ele>450.8</ele>
        <time>2017-01-07T14:05:02Z</time>
      </trkpt>
      <trkpt lat="44.06034" lon="5.94263">
        <ele>450.6</ele>
        <time>2017-01-07T14:05:04Z</time>
      </trkpt>
      <trkpt lat="44.06031" lon="5.94267">
        <ele>450.4</ele>
        <time>2017-01-07T14:05:05Z</time>
      </trkpt>
      <trkpt lat="44.06029" lon="5.9427">
        <ele>450.2</ele>
        <time>2017-01-07T14:05:06Z</time>
      </trkpt>
      <trkpt lat="44.06026" lon="5.94274">
        <ele>450.2</ele>
        <time>2017-01-07T14:05:07Z</time>
      </trkpt>
      <trkpt lat="44.06023" lon="5.94278">
        <ele>450.4</ele>
        <time>2017-01-07T14:05:08Z</time>
      </trkpt>
      <trkpt lat="44.0602" lon="5.9428">
        <ele>450.7</ele>
        <time>2017-01-07T14:05:09Z</time>
      </trkpt>
      <trkpt lat="44.06017" lon="5.94282">
        <ele>451.1</ele>
        <time>2017-01-07T14:05:10Z</time>
      </trkpt>
      <trkpt lat="44.06015" lon="5.94284">
        <ele>451.5</ele>
        <time>2017-01-07T14:05:11Z</time>
      </trkpt>
      <trkpt lat="44.06012" lon="5.94286">
        <ele>451.7</ele>
        <time>2017-01-07T14:05:12Z</time>
      </trkpt>
      <trkpt lat="44.0601" lon="5.94289">
        <ele>452</ele>
        <time>2017-01-07T14:05:13Z</time>
      </trkpt>
      <trkpt lat="44.06007" lon="5.94291">
        <ele>452.1</ele>
        <time>2017-01-07T14:05:14Z</time>
      </trkpt>
      <trkpt lat="44.06004" lon="5.94294">
        <ele>452.2</ele>
        <time>2017-01-07T14:05:15Z</time>
      </trkpt>
      <trkpt lat="44.06002" lon="5.94296">
        <ele>452.5</ele>
        <time>2017-01-07T14:05:16Z</time>
      </trkpt>
      <trkpt lat="44.05999" lon="5.94299">
        <ele>453</ele>
        <time>2017-01-07T14:05:17Z</time>
      </trkpt>
      <trkpt lat="44.05996" lon="5.94301">
        <ele>453.2</ele>
        <time>2017-01-07T14:05:18Z</time>
      </trkpt>
      <trkpt lat="44.05992" lon="5.94304">
        <ele>453.1</ele>
        <time>2017-01-07T14:05:19Z</time>
      </trkpt>
      <trkpt lat="44.05988" lon="5.94306">
        <ele>453.5</ele>
        <time>2017-01-07T14:05:20Z</time>
      </trkpt>
      <trkpt lat="44.05983" lon="5.94308">
        <ele>454.1</ele>
        <time>2017-01-07T14:05:21Z</time>
      </trkpt>
      <trkpt lat="44.05978" lon="5.94309">
        <ele>454.5</ele>
        <time>2017-01-07T14:05:22Z</time>
      </trkpt>
      <trkpt lat="44.05974" lon="5.9431">
        <ele>455.1</ele>
        <time>2017-01-07T14:05:23Z</time>
      </trkpt>
      <trkpt lat="44.05969" lon="5.94309">
        <ele>455.9</ele>
        <time>2017-01-07T14:05:24Z</time>
      </trkpt>
      <trkpt lat="44.05964" lon="5.9431">
        <ele>456.8</ele>
        <time>2017-01-07T14:05:25Z</time>
      </trkpt>
      <trkpt lat="44.05958" lon="5.9431">
        <ele>458.5</ele>
        <time>2017-01-07T14:05:26Z</time>
      </trkpt>
      <trkpt lat="44.05944" lon="5.94312">
        <ele>459.8</ele>
        <time>2017-01-07T14:05:27Z</time>
      </trkpt>
      <trkpt lat="44.05941" lon="5.94316">
        <ele>459.7</ele>
        <time>2017-01-07T14:05:29Z</time>
      </trkpt>
      <trkpt lat="44.0594" lon="5.9432">
        <ele>459.5</ele>
        <time>2017-01-07T14:05:31Z</time>
      </trkpt>
      <trkpt lat="44.05938" lon="5.94322">
        <ele>458.7</ele>
        <time>2017-01-07T14:05:34Z</time>
      </trkpt>
      <trkpt lat="44.05935" lon="5.94326">
        <ele>457.8</ele>
        <time>2017-01-07T14:05:37Z</time>
      </trkpt>
      <trkpt lat="44.05933" lon="5.94328">
        <ele>457.2</ele>
        <time>2017-01-07T14:05:39Z</time>
      </trkpt>
      <trkpt lat="44.0593" lon="5.94331">
        <ele>456.4</ele>
        <time>2017-01-07T14:05:43Z</time>
      </trkpt>
      <trkpt lat="44.05927" lon="5.94333">
        <ele>455.6</ele>
        <time>2017-01-07T14:05:48Z</time>
      </trkpt>
      <trkpt lat="44.05923" lon="5.94336">
        <ele>454.8</ele>
        <time>2017-01-07T14:05:50Z</time>
      </trkpt>
      <trkpt lat="44.05919" lon="5.94338">
        <ele>454.1</ele>
        <time>2017-01-07T14:05:51Z</time>
      </trkpt>
      <trkpt lat="44.05916" lon="5.94339">
        <ele>453.6</ele>
        <time>2017-01-07T14:05:52Z</time>
      </trkpt>
      <trkpt lat="44.05914" lon="5.94339">
        <ele>453.2</ele>
        <time>2017-01-07T14:05:53Z</time>
      </trkpt>
      <trkpt lat="44.05911" lon="5.9434">
        <ele>452.8</ele>
        <time>2017-01-07T14:05:54Z</time>
      </trkpt>
      <trkpt lat="44.05908" lon="5.9434">
        <ele>452.4</ele>
        <time>2017-01-07T14:05:55Z</time>
      </trkpt>
      <trkpt lat="44.05905" lon="5.9434">
        <ele>452</ele>
        <time>2017-01-07T14:05:56Z</time>
      </trkpt>
      <trkpt lat="44.05902" lon="5.9434">
        <ele>451.6</ele>
        <time>2017-01-07T14:05:57Z</time>
      </trkpt>
      <trkpt lat="44.05899" lon="5.94341">
        <ele>451.3</ele>
        <time>2017-01-07T14:05:58Z</time>
      </trkpt>
      <trkpt lat="44.05896" lon="5.94342">
        <ele>451</ele>
        <time>2017-01-07T14:05:59Z</time>
      </trkpt>
      <trkpt lat="44.05893" lon="5.94343">
        <ele>450.9</ele>
        <time>2017-01-07T14:06:00Z</time>
      </trkpt>
      <trkpt lat="44.05891" lon="5.94344">
        <ele>451.2</ele>
        <time>2017-01-07T14:06:01Z</time>
      </trkpt>
      <trkpt lat="44.05888" lon="5.94348">
        <ele>451.7</ele>
        <time>2017-01-07T14:06:03Z</time>
      </trkpt>
      <trkpt lat="44.05886" lon="5.94352">
        <ele>452.8</ele>
        <time>2017-01-07T14:06:07Z</time>
      </trkpt>
      <trkpt lat="44.05883" lon="5.94355">
        <ele>454.2</ele>
        <time>2017-01-07T14:06:10Z</time>
      </trkpt>
      <trkpt lat="44.05879" lon="5.94355">
        <ele>455.7</ele>
        <time>2017-01-07T14:06:12Z</time>
      </trkpt>
      <trkpt lat="44.05874" lon="5.94354">
        <ele>455.9</ele>
        <time>2017-01-07T14:06:14Z</time>
      </trkpt>
      <trkpt lat="44.05871" lon="5.9435">
        <ele>455.6</ele>
        <time>2017-01-07T14:06:16Z</time>
      </trkpt>
      <trkpt lat="44.05867" lon="5.94347">
        <ele>455.5</ele>
        <time>2017-01-07T14:06:18Z</time>
      </trkpt>
      <trkpt lat="44.05864" lon="5.94346">
        <ele>455.4</ele>
        <time>2017-01-07T14:06:20Z</time>
      </trkpt>
      <trkpt lat="44.0586" lon="5.94344">
        <ele>455.8</ele>
        <time>2017-01-07T14:06:22Z</time>
      </trkpt>
      <trkpt lat="44.05857" lon="5.94343">
        <ele>456.2</ele>
        <time>2017-01-07T14:06:24Z</time>
      </trkpt>
      <trkpt lat="44.05854" lon="5.94345">
        <ele>455.9</ele>
        <time>2017-01-07T14:06:29Z</time>
      </trkpt>
      <trkpt lat="44.05849" lon="5.94347">
        <ele>454.9</ele>
        <time>2017-01-07T14:06:31Z</time>
      </trkpt>
      <trkpt lat="44.05843" lon="5.94345">
        <ele>454.6</ele>
        <time>2017-01-07T14:06:33Z</time>
      </trkpt>
      <trkpt lat="44.05839" lon="5.94344">
        <ele>454.4</ele>
        <time>2017-01-07T14:06:34Z</time>
      </trkpt>
      <trkpt lat="44.05836" lon="5.94343">
        <ele>454.2</ele>
        <time>2017-01-07T14:06:35Z</time>
      </trkpt>
      <trkpt lat="44.05833" lon="5.94343">
        <ele>454</ele>
        <time>2017-01-07T14:06:36Z</time>
      </trkpt>
      <trkpt lat="44.05831" lon="5.94343">
        <ele>453.9</ele>
        <time>2017-01-07T14:06:37Z</time>
      </trkpt>
      <trkpt lat="44.05827" lon="5.94343">
        <ele>453.6</ele>
        <time>2017-01-07T14:06:39Z</time>
      </trkpt>
      <trkpt lat="44.05823" lon="5.94343">
        <ele>453.2</ele>
        <time>2017-01-07T14:06:41Z</time>
      </trkpt>
      <trkpt lat="44.0582" lon="5.94343">
        <ele>452.8</ele>
        <time>2017-01-07T14:06:43Z</time>
      </trkpt>
      <trkpt lat="44.05816" lon="5.94342">
        <ele>452.2</ele>
        <time>2017-01-07T14:06:46Z</time>
      </trkpt>
      <trkpt lat="44.05813" lon="5.94341">
        <ele>451.6</ele>
        <time>2017-01-07T14:06:49Z</time>
      </trkpt>
      <trkpt lat="44.0581" lon="5.94342">
        <ele>451.2</ele>
        <time>2017-01-07T14:06:52Z</time>
      </trkpt>
      <trkpt lat="44.05807" lon="5.94343">
        <ele>451.2</ele>
        <time>2017-01-07T14:06:54Z</time>
      </trkpt>
      <trkpt lat="44.05803" lon="5.94343">
        <ele>451.2</ele>
        <time>2017-01-07T14:06:56Z</time>
      </trkpt>
      <trkpt lat="44.05799" lon="5.94342">
        <ele>450.8</ele>
        <time>2017-01-07T14:06:58Z</time>
      </trkpt>
      <trkpt lat="44.05799" lon="5.94337">
        <ele>450.4</ele>
        <time>2017-01-07T14:07:07Z</time>
      </trkpt>
      <trkpt lat="44.05796" lon="5.94333">
        <ele>449.7</ele>
        <time>2017-01-07T14:07:09Z</time>
      </trkpt>
      <trkpt lat="44.05794" lon="5.94329">
        <ele>449.1</ele>
        <time>2017-01-07T14:07:10Z</time>
      </trkpt>
      <trkpt lat="44.05792" lon="5.94325">
        <ele>448.5</ele>
        <time>2017-01-07T14:07:11Z</time>
      </trkpt>
      <trkpt lat="44.0579" lon="5.94321">
        <ele>448.3</ele>
        <time>2017-01-07T14:07:12Z</time>
      </trkpt>
      <trkpt lat="44.05788" lon="5.94319">
        <ele>448</ele>
        <time>2017-01-07T14:07:14Z</time>
      </trkpt>
      <trkpt lat="44.05784" lon="5.9432">
        <ele>448</ele>
        <time>2017-01-07T14:07:18Z</time>
      </trkpt>
      <trkpt lat="44.05781" lon="5.9432">
        <ele>448</ele>
        <time>2017-01-07T14:07:24Z</time>
      </trkpt>
      <trkpt lat="44.05778" lon="5.9432">
        <ele>452</ele>
        <time>2017-01-07T14:07:26Z</time>
      </trkpt>
      <trkpt lat="44.05774" lon="5.94319">
        <ele>457</ele>
        <time>2017-01-07T14:07:28Z</time>
      </trkpt>
      <trkpt lat="44.05771" lon="5.94316">
        <ele>457.1</ele>
        <time>2017-01-07T14:07:30Z</time>
      </trkpt>
      <trkpt lat="44.0577" lon="5.94312">
        <ele>457.2</ele>
        <time>2017-01-07T14:07:33Z</time>
      </trkpt>
      <trkpt lat="44.05771" lon="5.94309">
        <ele>457.2</ele>
        <time>2017-01-07T14:07:36Z</time>
      </trkpt>
      <trkpt lat="44.05772" lon="5.94305">
        <ele>457.3</ele>
        <time>2017-01-07T14:07:40Z</time>
      </trkpt>
      <trkpt lat="44.05774" lon="5.94303">
        <ele>457.4</ele>
        <time>2017-01-07T14:07:43Z</time>
      </trkpt>
      <trkpt lat="44.05776" lon="5.94299">
        <ele>457.5</ele>
        <time>2017-01-07T14:07:46Z</time>
      </trkpt>
      <trkpt lat="44.05777" lon="5.94295">
        <ele>457.6</ele>
        <time>2017-01-07T14:07:49Z</time>
      </trkpt>
      <trkpt lat="44.05777" lon="5.94291">
        <ele>457.7</ele>
        <time>2017-01-07T14:07:52Z</time>
      </trkpt>
      <trkpt lat="44.05776" lon="5.94286">
        <ele>457.8</ele>
        <time>2017-01-07T14:07:55Z</time>
      </trkpt>
      <trkpt lat="44.05778" lon="5.94281">
        <ele>458</ele>
        <time>2017-01-07T14:07:58Z</time>
      </trkpt>
      <trkpt lat="44.05778" lon="5.94276">
        <ele>458.2</ele>
        <time>2017-01-07T14:08:01Z</time>
      </trkpt>
      <trkpt lat="44.05779" lon="5.9427">
        <ele>458.4</ele>
        <time>2017-01-07T14:08:04Z</time>
      </trkpt>
      <trkpt lat="44.05781" lon="5.94267">
        <ele>458.8</ele>
        <time>2017-01-07T14:08:06Z</time>
      </trkpt>
      <trkpt lat="44.05782" lon="5.94263">
        <ele>459.2</ele>
        <time>2017-01-07T14:08:08Z</time>
      </trkpt>
      <trkpt lat="44.05782" lon="5.94258">
        <ele>459.6</ele>
        <time>2017-01-07T14:08:10Z</time>
      </trkpt>
      <trkpt lat="44.0578" lon="5.94255">
        <ele>460</ele>
        <time>2017-01-07T14:08:11Z</time>
      </trkpt>
      <trkpt lat="44.05778" lon="5.94252">
        <ele>460.2</ele>
        <time>2017-01-07T14:08:12Z</time>
      </trkpt>
      <trkpt lat="44.05773" lon="5.94251">
        <ele>460.5</ele>
        <time>2017-01-07T14:08:14Z</time>
      </trkpt>
      <trkpt lat="44.05768" lon="5.94251">
        <ele>460.7</ele>
        <time>2017-01-07T14:08:16Z</time>
      </trkpt>
      <trkpt lat="44.05763" lon="5.94252">
        <ele>460.9</ele>
        <time>2017-01-07T14:08:18Z</time>
      </trkpt>
      <trkpt lat="44.05759" lon="5.94253">
        <ele>461</ele>
        <time>2017-01-07T14:08:20Z</time>
      </trkpt>
      <trkpt lat="44.05755" lon="5.94255">
        <ele>461</ele>
        <time>2017-01-07T14:08:22Z</time>
      </trkpt>
      <trkpt lat="44.0575" lon="5.94255">
        <ele>461</ele>
        <time>2017-01-07T14:08:24Z</time>
      </trkpt>
      <trkpt lat="44.05748" lon="5.94252">
        <ele>461</ele>
        <time>2017-01-07T14:08:26Z</time>
      </trkpt>
      <trkpt lat="44.05748" lon="5.94247">
        <ele>461</ele>
        <time>2017-01-07T14:08:28Z</time>
      </trkpt>
      <trkpt lat="44.05749" lon="5.94243">
        <ele>461</ele>
        <time>2017-01-07T14:08:30Z</time>
      </trkpt>
      <trkpt lat="44.05751" lon="5.9424">
        <ele>461</ele>
        <time>2017-01-07T14:08:33Z</time>
      </trkpt>
      <trkpt lat="44.05762" lon="5.94228">
        <ele>461</ele>
        <time>2017-01-07T14:09:40Z</time>
      </trkpt>
      <trkpt lat="44.05762" lon="5.94223">
        <ele>461</ele>
        <time>2017-01-07T14:09:42Z</time>
      </trkpt>
      <trkpt lat="44.05762" lon="5.94216">
        <ele>461</ele>
        <time>2017-01-07T14:09:44Z</time>
      </trkpt>
      <trkpt lat="44.05762" lon="5.9421">
        <ele>460.9</ele>
        <time>2017-01-07T14:09:46Z</time>
      </trkpt>
      <trkpt lat="44.05761" lon="5.94206">
        <ele>460.6</ele>
        <time>2017-01-07T14:09:48Z</time>
      </trkpt>
      <trkpt lat="44.0576" lon="5.94202">
        <ele>460.4</ele>
        <time>2017-01-07T14:09:51Z</time>
      </trkpt>
      <trkpt lat="44.05757" lon="5.942">
        <ele>460.1</ele>
        <time>2017-01-07T14:09:53Z</time>
      </trkpt>
      <trkpt lat="44.05753" lon="5.94196">
        <ele>459.7</ele>
        <time>2017-01-07T14:09:55Z</time>
      </trkpt>
      <trkpt lat="44.0575" lon="5.94191">
        <ele>459.4</ele>
        <time>2017-01-07T14:09:57Z</time>
      </trkpt>
      <trkpt lat="44.05747" lon="5.94187">
        <ele>459.1</ele>
        <time>2017-01-07T14:09:59Z</time>
      </trkpt>
      <trkpt lat="44.05743" lon="5.94182">
        <ele>458.9</ele>
        <time>2017-01-07T14:10:01Z</time>
      </trkpt>
      <trkpt lat="44.05741" lon="5.94178">
        <ele>458.9</ele>
        <time>2017-01-07T14:10:02Z</time>
      </trkpt>
      <trkpt lat="44.05739" lon="5.94173">
        <ele>459</ele>
        <time>2017-01-07T14:10:03Z</time>
      </trkpt>
      <trkpt lat="44.05736" lon="5.94166">
        <ele>459.2</ele>
        <time>2017-01-07T14:10:04Z</time>
      </trkpt>
      <trkpt lat="44.05733" lon="5.94159">
        <ele>459.5</ele>
        <time>2017-01-07T14:10:05Z</time>
      </trkpt>
      <trkpt lat="44.05732" lon="5.94154">
        <ele>459.6</ele>
        <time>2017-01-07T14:10:06Z</time>
      </trkpt>
      <trkpt lat="44.05732" lon="5.94149">
        <ele>459.7</ele>
        <time>2017-01-07T14:10:07Z</time>
      </trkpt>
      <trkpt lat="44.05733" lon="5.94145">
        <ele>460</ele>
        <time>2017-01-07T14:10:08Z</time>
      </trkpt>
      <trkpt lat="44.05733" lon="5.9414">
        <ele>460.5</ele>
        <time>2017-01-07T14:10:09Z</time>
      </trkpt>
      <trkpt lat="44.05734" lon="5.94136">
        <ele>460.9</ele>
        <time>2017-01-07T14:10:10Z</time>
      </trkpt>
      <trkpt lat="44.05734" lon="5.94132">
        <ele>461.3</ele>
        <time>2017-01-07T14:10:11Z</time>
      </trkpt>
      <trkpt lat="44.05732" lon="5.94127">
        <ele>461.9</ele>
        <time>2017-01-07T14:10:13Z</time>
      </trkpt>
      <trkpt lat="44.05732" lon="5.94122">
        <ele>462.7</ele>
        <time>2017-01-07T14:10:15Z</time>
      </trkpt>
      <trkpt lat="44.0573" lon="5.94118">
        <ele>463.3</ele>
        <time>2017-01-07T14:10:16Z</time>
      </trkpt>
      <trkpt lat="44.05728" lon="5.94113">
        <ele>464</ele>
        <time>2017-01-07T14:10:18Z</time>
      </trkpt>
      <trkpt lat="44.05726" lon="5.9411">
        <ele>464.5</ele>
        <time>2017-01-07T14:10:20Z</time>
      </trkpt>
      <trkpt lat="44.05728" lon="5.94114">
        <ele>464.9</ele>
        <time>2017-01-07T14:10:24Z</time>
      </trkpt>
      <trkpt lat="44.05735" lon="5.94111">
        <ele>466.3</ele>
        <time>2017-01-07T14:10:44Z</time>
      </trkpt>
      <trkpt lat="44.05737" lon="5.94115">
        <ele>466.7</ele>
        <time>2017-01-07T14:10:46Z</time>
      </trkpt>
      <trkpt lat="44.05737" lon="5.94119">
        <ele>467</ele>
        <time>2017-01-07T14:10:48Z</time>
      </trkpt>
      <trkpt lat="44.05738" lon="5.94123">
        <ele>467.3</ele>
        <time>2017-01-07T14:10:50Z</time>
      </trkpt>
      <trkpt lat="44.0574" lon="5.94127">
        <ele>467.8</ele>
        <time>2017-01-07T14:10:52Z</time>
      </trkpt>
      <trkpt lat="44.05743" lon="5.9413">
        <ele>468.4</ele>
        <time>2017-01-07T14:10:54Z</time>
      </trkpt>
      <trkpt lat="44.05745" lon="5.94133">
        <ele>469</ele>
        <time>2017-01-07T14:10:56Z</time>
      </trkpt>
      <trkpt lat="44.05747" lon="5.94137">
        <ele>469.5</ele>
        <time>2017-01-07T14:10:58Z</time>
      </trkpt>
      <trkpt lat="44.05748" lon="5.94141">
        <ele>470.1</ele>
        <time>2017-01-07T14:11:00Z</time>
      </trkpt>
      <trkpt lat="44.0575" lon="5.94146">
        <ele>470.9</ele>
        <time>2017-01-07T14:11:03Z</time>
      </trkpt>
      <trkpt lat="44.05753" lon="5.94147">
        <ele>471.3</ele>
        <time>2017-01-07T14:11:06Z</time>
      </trkpt>
      <trkpt lat="44.05753" lon="5.94142">
        <ele>471.8</ele>
        <time>2017-01-07T14:11:09Z</time>
      </trkpt>
      <trkpt lat="44.05752" lon="5.94138">
        <ele>472.2</ele>
        <time>2017-01-07T14:11:11Z</time>
      </trkpt>
      <trkpt lat="44.05751" lon="5.94135">
        <ele>472.5</ele>
        <time>2017-01-07T14:11:13Z</time>
      </trkpt>
      <trkpt lat="44.0575" lon="5.9413">
        <ele>472.7</ele>
        <time>2017-01-07T14:11:16Z</time>
      </trkpt>
      <trkpt lat="44.05751" lon="5.94126">
        <ele>472.9</ele>
        <time>2017-01-07T14:11:19Z</time>
      </trkpt>
      <trkpt lat="44.05753" lon="5.94122">
        <ele>473</ele>
        <time>2017-01-07T14:11:22Z</time>
      </trkpt>
      <trkpt lat="44.05756" lon="5.94122">
        <ele>473</ele>
        <time>2017-01-07T14:11:26Z</time>
      </trkpt>
      <trkpt lat="44.05759" lon="5.94121">
        <ele>473</ele>
        <time>2017-01-07T14:11:30Z</time>
      </trkpt>
      <trkpt lat="44.05762" lon="5.9412">
        <ele>473</ele>
        <time>2017-01-07T14:11:32Z</time>
      </trkpt>
      <trkpt lat="44.05766" lon="5.94118">
        <ele>472.9</ele>
        <time>2017-01-07T14:11:34Z</time>
      </trkpt>
      <trkpt lat="44.05769" lon="5.94116">
        <ele>472.8</ele>
        <time>2017-01-07T14:11:35Z</time>
      </trkpt>
      <trkpt lat="44.05772" lon="5.94114">
        <ele>472.6</ele>
        <time>2017-01-07T14:11:36Z</time>
      </trkpt>
      <trkpt lat="44.05776" lon="5.94112">
        <ele>472.4</ele>
        <time>2017-01-07T14:11:37Z</time>
      </trkpt>
      <trkpt lat="44.0578" lon="5.94109">
        <ele>472.1</ele>
        <time>2017-01-07T14:11:38Z</time>
      </trkpt>
      <trkpt lat="44.05784" lon="5.94107">
        <ele>471.8</ele>
        <time>2017-01-07T14:11:39Z</time>
      </trkpt>
      <trkpt lat="44.05786" lon="5.94102">
        <ele>471.5</ele>
        <time>2017-01-07T14:11:40Z</time>
      </trkpt>
      <trkpt lat="44.05788" lon="5.94097">
        <ele>471.1</ele>
        <time>2017-01-07T14:11:41Z</time>
      </trkpt>
      <trkpt lat="44.0579" lon="5.94091">
        <ele>470.6</ele>
        <time>2017-01-07T14:11:42Z</time>
      </trkpt>
      <trkpt lat="44.05792" lon="5.94085">
        <ele>470.2</ele>
        <time>2017-01-07T14:11:43Z</time>
      </trkpt>
      <trkpt lat="44.05793" lon="5.9408">
        <ele>469.7</ele>
        <time>2017-01-07T14:11:44Z</time>
      </trkpt>
      <trkpt lat="44.05795" lon="5.94075">
        <ele>469.3</ele>
        <time>2017-01-07T14:11:45Z</time>
      </trkpt>
      <trkpt lat="44.05796" lon="5.9407">
        <ele>469.1</ele>
        <time>2017-01-07T14:11:46Z</time>
      </trkpt>
      <trkpt lat="44.05796" lon="5.94065">
        <ele>469</ele>
        <time>2017-01-07T14:11:47Z</time>
      </trkpt>
      <trkpt lat="44.05795" lon="5.94058">
        <ele>468.8</ele>
        <time>2017-01-07T14:11:49Z</time>
      </trkpt>
      <trkpt lat="44.05796" lon="5.94053">
        <ele>468.8</ele>
        <time>2017-01-07T14:11:51Z</time>
      </trkpt>
      <trkpt lat="44.058" lon="5.94048">
        <ele>468.6</ele>
        <time>2017-01-07T14:11:53Z</time>
      </trkpt>
      <trkpt lat="44.05803" lon="5.94047">
        <ele>468.6</ele>
        <time>2017-01-07T14:11:54Z</time>
      </trkpt>
      <trkpt lat="44.05806" lon="5.94045">
        <ele>468.6</ele>
        <time>2017-01-07T14:11:55Z</time>
      </trkpt>
      <trkpt lat="44.05809" lon="5.94044">
        <ele>468.7</ele>
        <time>2017-01-07T14:11:56Z</time>
      </trkpt>
      <trkpt lat="44.05813" lon="5.94041">
        <ele>468.7</ele>
        <time>2017-01-07T14:11:58Z</time>
      </trkpt>
      <trkpt lat="44.05816" lon="5.94036">
        <ele>468.8</ele>
        <time>2017-01-07T14:12:01Z</time>
      </trkpt>
      <trkpt lat="44.05819" lon="5.94033">
        <ele>468.8</ele>
        <time>2017-01-07T14:12:03Z</time>
      </trkpt>
      <trkpt lat="44.05823" lon="5.9403">
        <ele>468.8</ele>
        <time>2017-01-07T14:12:05Z</time>
      </trkpt>
      <trkpt lat="44.05826" lon="5.94026">
        <ele>468.9</ele>
        <time>2017-01-07T14:12:07Z</time>
      </trkpt>
      <trkpt lat="44.0583" lon="5.94023">
        <ele>468.9</ele>
        <time>2017-01-07T14:12:09Z</time>
      </trkpt>
      <trkpt lat="44.05833" lon="5.94021">
        <ele>468.9</ele>
        <time>2017-01-07T14:12:10Z</time>
      </trkpt>
      <trkpt lat="44.05838" lon="5.94019">
        <ele>468.9</ele>
        <time>2017-01-07T14:12:12Z</time>
      </trkpt>
      <trkpt lat="44.05842" lon="5.94018">
        <ele>469</ele>
        <time>2017-01-07T14:12:14Z</time>
      </trkpt>
      <trkpt lat="44.05847" lon="5.94018">
        <ele>469</ele>
        <time>2017-01-07T14:12:16Z</time>
      </trkpt>
      <trkpt lat="44.05851" lon="5.94019">
        <ele>469</ele>
        <time>2017-01-07T14:12:18Z</time>
      </trkpt>
      <trkpt lat="44.05856" lon="5.94018">
        <ele>469</ele>
        <time>2017-01-07T14:12:20Z</time>
      </trkpt>
      <trkpt lat="44.05861" lon="5.94017">
        <ele>469.3</ele>
        <time>2017-01-07T14:12:22Z</time>
      </trkpt>
      <trkpt lat="44.05865" lon="5.94015">
        <ele>469.8</ele>
        <time>2017-01-07T14:12:24Z</time>
      </trkpt>
      <trkpt lat="44.05871" lon="5.94011">
        <ele>470.4</ele>
        <time>2017-01-07T14:12:27Z</time>
      </trkpt>
      <trkpt lat="44.05873" lon="5.9401">
        <ele>471.1</ele>
        <time>2017-01-07T14:12:30Z</time>
      </trkpt>
      <trkpt lat="44.05876" lon="5.94008">
        <ele>471.9</ele>
        <time>2017-01-07T14:12:32Z</time>
      </trkpt>
      <trkpt lat="44.05879" lon="5.94007">
        <ele>472.7</ele>
        <time>2017-01-07T14:12:34Z</time>
      </trkpt>
      <trkpt lat="44.05881" lon="5.94005">
        <ele>473.4</ele>
        <time>2017-01-07T14:12:38Z</time>
      </trkpt>
      <trkpt lat="44.05884" lon="5.94004">
        <ele>473.5</ele>
        <time>2017-01-07T14:12:49Z</time>
      </trkpt>
      <trkpt lat="44.05886" lon="5.94002">
        <ele>473.6</ele>
        <time>2017-01-07T14:12:50Z</time>
      </trkpt>
      <trkpt lat="44.0589" lon="5.93998">
        <ele>473.8</ele>
        <time>2017-01-07T14:12:51Z</time>
      </trkpt>
      <trkpt lat="44.05894" lon="5.93995">
        <ele>474</ele>
        <time>2017-01-07T14:12:52Z</time>
      </trkpt>
      <trkpt lat="44.05897" lon="5.9399">
        <ele>474.1</ele>
        <time>2017-01-07T14:12:53Z</time>
      </trkpt>
      <trkpt lat="44.05899" lon="5.93986">
        <ele>474.3</ele>
        <time>2017-01-07T14:12:54Z</time>
      </trkpt>
      <trkpt lat="44.05901" lon="5.93982">
        <ele>474.4</ele>
        <time>2017-01-07T14:12:55Z</time>
      </trkpt>
      <trkpt lat="44.05902" lon="5.93976">
        <ele>474.5</ele>
        <time>2017-01-07T14:12:57Z</time>
      </trkpt>
      <trkpt lat="44.05904" lon="5.9397">
        <ele>474.7</ele>
        <time>2017-01-07T14:12:59Z</time>
      </trkpt>
      <trkpt lat="44.05905" lon="5.93964">
        <ele>474.9</ele>
        <time>2017-01-07T14:13:01Z</time>
      </trkpt>
      <trkpt lat="44.05906" lon="5.93957">
        <ele>475</ele>
        <time>2017-01-07T14:13:03Z</time>
      </trkpt>
      <trkpt lat="44.05908" lon="5.93951">
        <ele>475.2</ele>
        <time>2017-01-07T14:13:05Z</time>
      </trkpt>
      <trkpt lat="44.0591" lon="5.93944">
        <ele>475.4</ele>
        <time>2017-01-07T14:13:07Z</time>
      </trkpt>
      <trkpt lat="44.05911" lon="5.93938">
        <ele>475.6</ele>
        <time>2017-01-07T14:13:09Z</time>
      </trkpt>
      <trkpt lat="44.05912" lon="5.93931">
        <ele>475.7</ele>
        <time>2017-01-07T14:13:11Z</time>
      </trkpt>
      <trkpt lat="44.05912" lon="5.93924">
        <ele>475.9</ele>
        <time>2017-01-07T14:13:13Z</time>
      </trkpt>
      <trkpt lat="44.05912" lon="5.93917">
        <ele>476.1</ele>
        <time>2017-01-07T14:13:15Z</time>
      </trkpt>
      <trkpt lat="44.05911" lon="5.93913">
        <ele>476.4</ele>
        <time>2017-01-07T14:13:16Z</time>
      </trkpt>
      <trkpt lat="44.05911" lon="5.93909">
        <ele>476.6</ele>
        <time>2017-01-07T14:13:17Z</time>
      </trkpt>
      <trkpt lat="44.0591" lon="5.93901">
        <ele>476.9</ele>
        <time>2017-01-07T14:13:19Z</time>
      </trkpt>
      <trkpt lat="44.05909" lon="5.93894">
        <ele>477</ele>
        <time>2017-01-07T14:13:21Z</time>
      </trkpt>
      <trkpt lat="44.05908" lon="5.93888">
        <ele>477.1</ele>
        <time>2017-01-07T14:13:23Z</time>
      </trkpt>
      <trkpt lat="44.05908" lon="5.93883">
        <ele>477.2</ele>
        <time>2017-01-07T14:13:25Z</time>
      </trkpt>
      <trkpt lat="44.05908" lon="5.93877">
        <ele>477.3</ele>
        <time>2017-01-07T14:13:27Z</time>
      </trkpt>
      <trkpt lat="44.05908" lon="5.93871">
        <ele>477.4</ele>
        <time>2017-01-07T14:13:29Z</time>
      </trkpt>
      <trkpt lat="44.05906" lon="5.93866">
        <ele>477.5</ele>
        <time>2017-01-07T14:13:31Z</time>
      </trkpt>
      <trkpt lat="44.05904" lon="5.9386">
        <ele>477.6</ele>
        <time>2017-01-07T14:13:33Z</time>
      </trkpt>
      <trkpt lat="44.059" lon="5.93854">
        <ele>477.7</ele>
        <time>2017-01-07T14:13:35Z</time>
      </trkpt>
      <trkpt lat="44.05897" lon="5.93849">
        <ele>477.8</ele>
        <time>2017-01-07T14:13:37Z</time>
      </trkpt>
      <trkpt lat="44.05896" lon="5.93843">
        <ele>477.9</ele>
        <time>2017-01-07T14:13:39Z</time>
      </trkpt>
      <trkpt lat="44.05897" lon="5.93839">
        <ele>478</ele>
        <time>2017-01-07T14:13:41Z</time>
      </trkpt>
      <trkpt lat="44.05899" lon="5.93835">
        <ele>478.1</ele>
        <time>2017-01-07T14:13:45Z</time>
      </trkpt>
      <trkpt lat="44.05898" lon="5.9383">
        <ele>478.4</ele>
        <time>2017-01-07T14:13:47Z</time>
      </trkpt>
      <trkpt lat="44.05896" lon="5.93826">
        <ele>479.2</ele>
        <time>2017-01-07T14:13:49Z</time>
      </trkpt>
      <trkpt lat="44.05894" lon="5.93823">
        <ele>480.2</ele>
        <time>2017-01-07T14:13:51Z</time>
      </trkpt>
      <trkpt lat="44.05891" lon="5.93822">
        <ele>480.1</ele>
        <time>2017-01-07T14:13:53Z</time>
      </trkpt>
      <trkpt lat="44.05888" lon="5.9382">
        <ele>480.5</ele>
        <time>2017-01-07T14:13:55Z</time>
      </trkpt>
      <trkpt lat="44.05886" lon="5.93819">
        <ele>481.6</ele>
        <time>2017-01-07T14:13:57Z</time>
      </trkpt>
      <trkpt lat="44.05882" lon="5.93819">
        <ele>482.1</ele>
        <time>2017-01-07T14:13:59Z</time>
      </trkpt>
      <trkpt lat="44.05879" lon="5.93819">
        <ele>483.2</ele>
        <time>2017-01-07T14:14:01Z</time>
      </trkpt>
      <trkpt lat="44.05875" lon="5.9382">
        <ele>482.7</ele>
        <time>2017-01-07T14:14:03Z</time>
      </trkpt>
      <trkpt lat="44.05872" lon="5.93823">
        <ele>483.2</ele>
        <time>2017-01-07T14:14:05Z</time>
      </trkpt>
      <trkpt lat="44.05868" lon="5.93825">
        <ele>482.8</ele>
        <time>2017-01-07T14:14:07Z</time>
      </trkpt>
      <trkpt lat="44.05865" lon="5.93826">
        <ele>483.3</ele>
        <time>2017-01-07T14:14:09Z</time>
      </trkpt>
      <trkpt lat="44.05861" lon="5.93827">
        <ele>483.8</ele>
        <time>2017-01-07T14:14:12Z</time>
      </trkpt>
      <trkpt lat="44.05858" lon="5.93827">
        <ele>484.3</ele>
        <time>2017-01-07T14:14:15Z</time>
      </trkpt>
      <trkpt lat="44.05856" lon="5.9383">
        <ele>484.4</ele>
        <time>2017-01-07T14:14:18Z</time>
      </trkpt>
      <trkpt lat="44.05855" lon="5.93834">
        <ele>483.8</ele>
        <time>2017-01-07T14:14:20Z</time>
      </trkpt>
      <trkpt lat="44.05855" lon="5.9384">
        <ele>483.3</ele>
        <time>2017-01-07T14:14:22Z</time>
      </trkpt>
      <trkpt lat="44.05854" lon="5.93846">
        <ele>482.2</ele>
        <time>2017-01-07T14:14:23Z</time>
      </trkpt>
      <trkpt lat="44.05854" lon="5.93852">
        <ele>482.7</ele>
        <time>2017-01-07T14:14:24Z</time>
      </trkpt>
      <trkpt lat="44.05854" lon="5.93859">
        <ele>480.7</ele>
        <time>2017-01-07T14:14:25Z</time>
      </trkpt>
      <trkpt lat="44.05854" lon="5.93866">
        <ele>480.2</ele>
        <time>2017-01-07T14:14:26Z</time>
      </trkpt>
      <trkpt lat="44.05854" lon="5.93872">
        <ele>479.9</ele>
        <time>2017-01-07T14:14:27Z</time>
      </trkpt>
      <trkpt lat="44.05853" lon="5.93877">
        <ele>479.2</ele>
        <time>2017-01-07T14:14:28Z</time>
      </trkpt>
      <trkpt lat="44.0585" lon="5.93884">
        <ele>479.8</ele>
        <time>2017-01-07T14:14:30Z</time>
      </trkpt>
      <trkpt lat="44.05848" lon="5.93889">
        <ele>480</ele>
        <time>2017-01-07T14:14:32Z</time>
      </trkpt>
      <trkpt lat="44.05844" lon="5.93894">
        <ele>480.9</ele>
        <time>2017-01-07T14:14:34Z</time>
      </trkpt>
      <trkpt lat="44.05841" lon="5.93898">
        <ele>481.8</ele>
        <time>2017-01-07T14:14:36Z</time>
      </trkpt>
      <trkpt lat="44.05839" lon="5.93901">
        <ele>481.7</ele>
        <time>2017-01-07T14:14:38Z</time>
      </trkpt>
      <trkpt lat="44.05836" lon="5.93903">
        <ele>482.4</ele>
        <time>2017-01-07T14:14:40Z</time>
      </trkpt>
      <trkpt lat="44.05832" lon="5.93907">
        <ele>484.3</ele>
        <time>2017-01-07T14:14:42Z</time>
      </trkpt>
      <trkpt lat="44.05829" lon="5.93911">
        <ele>484.9</ele>
        <time>2017-01-07T14:14:44Z</time>
      </trkpt>
      <trkpt lat="44.05827" lon="5.93917">
        <ele>484</ele>
        <time>2017-01-07T14:14:46Z</time>
      </trkpt>
      <trkpt lat="44.05825" lon="5.93922">
        <ele>484.6</ele>
        <time>2017-01-07T14:14:48Z</time>
      </trkpt>
      <trkpt lat="44.05823" lon="5.93925">
        <ele>483.7</ele>
        <time>2017-01-07T14:14:50Z</time>
      </trkpt>
      <trkpt lat="44.0582" lon="5.93925">
        <ele>485.1</ele>
        <time>2017-01-07T14:14:56Z</time>
      </trkpt>
      <trkpt lat="44.05818" lon="5.93925">
        <ele>486.6</ele>
        <time>2017-01-07T14:14:59Z</time>
      </trkpt>
      <trkpt lat="44.05815" lon="5.93924">
        <ele>488.2</ele>
        <time>2017-01-07T14:15:03Z</time>
      </trkpt>
      <trkpt lat="44.05815" lon="5.93919">
        <ele>489.1</ele>
        <time>2017-01-07T14:15:07Z</time>
      </trkpt>
      <trkpt lat="44.05816" lon="5.93915">
        <ele>489.9</ele>
        <time>2017-01-07T14:15:10Z</time>
      </trkpt>
      <trkpt lat="44.05817" lon="5.9391">
        <ele>490.8</ele>
        <time>2017-01-07T14:15:13Z</time>
      </trkpt>
      <trkpt lat="44.05819" lon="5.93905">
        <ele>491.1</ele>
        <time>2017-01-07T14:15:16Z</time>
      </trkpt>
      <trkpt lat="44.0582" lon="5.93901">
        <ele>491</ele>
        <time>2017-01-07T14:15:18Z</time>
      </trkpt>
      <trkpt lat="44.0582" lon="5.93897">
        <ele>492</ele>
        <time>2017-01-07T14:15:20Z</time>
      </trkpt>
      <trkpt lat="44.05817" lon="5.93895">
        <ele>494.8</ele>
        <time>2017-01-07T14:15:23Z</time>
      </trkpt>
      <trkpt lat="44.05814" lon="5.93896">
        <ele>496.6</ele>
        <time>2017-01-07T14:15:26Z</time>
      </trkpt>
      <trkpt lat="44.0581" lon="5.93897">
        <ele>497.1</ele>
        <time>2017-01-07T14:15:29Z</time>
      </trkpt>
      <trkpt lat="44.05807" lon="5.93899">
        <ele>498.7</ele>
        <time>2017-01-07T14:15:32Z</time>
      </trkpt>
      <trkpt lat="44.05805" lon="5.93904">
        <ele>497.5</ele>
        <time>2017-01-07T14:15:35Z</time>
      </trkpt>
      <trkpt lat="44.05803" lon="5.93907">
        <ele>497.9</ele>
        <time>2017-01-07T14:15:38Z</time>
      </trkpt>
      <trkpt lat="44.05802" lon="5.9391">
        <ele>498.4</ele>
        <time>2017-01-07T14:15:40Z</time>
      </trkpt>
      <trkpt lat="44.05798" lon="5.9391">
        <ele>501.1</ele>
        <time>2017-01-07T14:15:50Z</time>
      </trkpt>
      <trkpt lat="44.05805" lon="5.93917">
        <ele>495.6</ele>
        <time>2017-01-07T14:15:57Z</time>
      </trkpt>
      <trkpt lat="44.05808" lon="5.93923">
        <ele>491.9</ele>
        <time>2017-01-07T14:15:59Z</time>
      </trkpt>
      <trkpt lat="44.05808" lon="5.93931">
        <ele>490.7</ele>
        <time>2017-01-07T14:16:01Z</time>
      </trkpt>
      <trkpt lat="44.05807" lon="5.93935">
        <ele>489.4</ele>
        <time>2017-01-07T14:16:03Z</time>
      </trkpt>
      <trkpt lat="44.05805" lon="5.93931">
        <ele>492</ele>
        <time>2017-01-07T14:16:06Z</time>
      </trkpt>
      <trkpt lat="44.05802" lon="5.93928">
        <ele>491.9</ele>
        <time>2017-01-07T14:16:08Z</time>
      </trkpt>
      <trkpt lat="44.05801" lon="5.93924">
        <ele>494.6</ele>
        <time>2017-01-07T14:16:11Z</time>
      </trkpt>
      <trkpt lat="44.058" lon="5.9392">
        <ele>495.7</ele>
        <time>2017-01-07T14:16:14Z</time>
      </trkpt>
      <trkpt lat="44.05798" lon="5.93917">
        <ele>498.4</ele>
        <time>2017-01-07T14:16:17Z</time>
      </trkpt>
      <trkpt lat="44.05795" lon="5.93917">
        <ele>500</ele>
        <time>2017-01-07T14:16:23Z</time>
      </trkpt>
      <trkpt lat="44.05793" lon="5.93921">
        <ele>498.9</ele>
        <time>2017-01-07T14:16:27Z</time>
      </trkpt>
      <trkpt lat="44.0579" lon="5.93922">
        <ele>500.5</ele>
        <time>2017-01-07T14:16:32Z</time>
      </trkpt>
      <trkpt lat="44.05787" lon="5.93924">
        <ele>500.8</ele>
        <time>2017-01-07T14:16:35Z</time>
      </trkpt>
      <trkpt lat="44.05783" lon="5.93925">
        <ele>502.3</ele>
        <time>2017-01-07T14:16:37Z</time>
      </trkpt>
      <trkpt lat="44.05781" lon="5.93927">
        <ele>503.6</ele>
        <time>2017-01-07T14:16:40Z</time>
      </trkpt>
      <trkpt lat="44.05778" lon="5.9393">
        <ele>503.5</ele>
        <time>2017-01-07T14:16:44Z</time>
      </trkpt>
      <trkpt lat="44.05776" lon="5.93933">
        <ele>503.3</ele>
        <time>2017-01-07T14:16:47Z</time>
      </trkpt>
      <trkpt lat="44.05774" lon="5.93936">
        <ele>503.2</ele>
        <time>2017-01-07T14:16:50Z</time>
      </trkpt>
      <trkpt lat="44.05772" lon="5.93939">
        <ele>503.1</ele>
        <time>2017-01-07T14:16:53Z</time>
      </trkpt>
      <trkpt lat="44.05769" lon="5.93941">
        <ele>503.2</ele>
        <time>2017-01-07T14:16:56Z</time>
      </trkpt>
      <trkpt lat="44.05766" lon="5.93943">
        <ele>504.5</ele>
        <time>2017-01-07T14:17:00Z</time>
      </trkpt>
      <trkpt lat="44.05763" lon="5.93943">
        <ele>505.6</ele>
        <time>2017-01-07T14:17:03Z</time>
      </trkpt>
      <trkpt lat="44.0576" lon="5.93945">
        <ele>505.7</ele>
        <time>2017-01-07T14:17:07Z</time>
      </trkpt>
      <trkpt lat="44.0576" lon="5.93949">
        <ele>504.6</ele>
        <time>2017-01-07T14:17:10Z</time>
      </trkpt>
      <trkpt lat="44.05759" lon="5.93953">
        <ele>503.3</ele>
        <time>2017-01-07T14:17:13Z</time>
      </trkpt>
      <trkpt lat="44.05759" lon="5.93957">
        <ele>503.2</ele>
        <time>2017-01-07T14:17:15Z</time>
      </trkpt>
      <trkpt lat="44.05753" lon="5.93959">
        <ele>503.7</ele>
        <time>2017-01-07T14:17:36Z</time>
      </trkpt>
      <trkpt lat="44.0575" lon="5.9396">
        <ele>504.3</ele>
        <time>2017-01-07T14:17:38Z</time>
      </trkpt>
      <trkpt lat="44.05746" lon="5.9396">
        <ele>505.6</ele>
        <time>2017-01-07T14:17:40Z</time>
      </trkpt>
      <trkpt lat="44.05742" lon="5.93962">
        <ele>504.8</ele>
        <time>2017-01-07T14:17:42Z</time>
      </trkpt>
      <trkpt lat="44.05737" lon="5.93965">
        <ele>506</ele>
        <time>2017-01-07T14:17:44Z</time>
      </trkpt>
      <trkpt lat="44.05735" lon="5.93967">
        <ele>504.7</ele>
        <time>2017-01-07T14:17:45Z</time>
      </trkpt>
      <trkpt lat="44.05731" lon="5.9397">
        <ele>504.1</ele>
        <time>2017-01-07T14:17:47Z</time>
      </trkpt>
      <trkpt lat="44.05728" lon="5.9397">
        <ele>505.6</ele>
        <time>2017-01-07T14:17:49Z</time>
      </trkpt>
      <trkpt lat="44.05725" lon="5.93969">
        <ele>505.8</ele>
        <time>2017-01-07T14:17:54Z</time>
      </trkpt>
      <trkpt lat="44.05722" lon="5.93968">
        <ele>505.9</ele>
        <time>2017-01-07T14:17:58Z</time>
      </trkpt>
      <trkpt lat="44.05719" lon="5.93968">
        <ele>506</ele>
        <time>2017-01-07T14:18:01Z</time>
      </trkpt>
      <trkpt lat="44.05716" lon="5.93968">
        <ele>506</ele>
        <time>2017-01-07T14:18:03Z</time>
      </trkpt>
      <trkpt lat="44.05712" lon="5.93968">
        <ele>506.3</ele>
        <time>2017-01-07T14:18:05Z</time>
      </trkpt>
      <trkpt lat="44.05708" lon="5.93968">
        <ele>506.5</ele>
        <time>2017-01-07T14:18:07Z</time>
      </trkpt>
      <trkpt lat="44.05705" lon="5.93967">
        <ele>506.6</ele>
        <time>2017-01-07T14:18:09Z</time>
      </trkpt>
      <trkpt lat="44.05703" lon="5.93964">
        <ele>507.5</ele>
        <time>2017-01-07T14:18:11Z</time>
      </trkpt>
      <trkpt lat="44.057" lon="5.93962">
        <ele>507.5</ele>
        <time>2017-01-07T14:18:16Z</time>
      </trkpt>
      <trkpt lat="44.05698" lon="5.93959">
        <ele>508.4</ele>
        <time>2017-01-07T14:18:18Z</time>
      </trkpt>
      <trkpt lat="44.05696" lon="5.93956">
        <ele>509.3</ele>
        <time>2017-01-07T14:18:20Z</time>
      </trkpt>
      <trkpt lat="44.05693" lon="5.93953">
        <ele>510.2</ele>
        <time>2017-01-07T14:18:23Z</time>
      </trkpt>
      <trkpt lat="44.05691" lon="5.93951">
        <ele>510.1</ele>
        <time>2017-01-07T14:18:25Z</time>
      </trkpt>
      <trkpt lat="44.05687" lon="5.93949">
        <ele>510.6</ele>
        <time>2017-01-07T14:18:28Z</time>
      </trkpt>
      <trkpt lat="44.05684" lon="5.93948">
        <ele>511.6</ele>
        <time>2017-01-07T14:18:30Z</time>
      </trkpt>
      <trkpt lat="44.0568" lon="5.93947">
        <ele>511.9</ele>
        <time>2017-01-07T14:18:32Z</time>
      </trkpt>
      <trkpt lat="44.05677" lon="5.93944">
        <ele>512.9</ele>
        <time>2017-01-07T14:18:34Z</time>
      </trkpt>
      <trkpt lat="44.05675" lon="5.93941">
        <ele>513.2</ele>
        <time>2017-01-07T14:18:36Z</time>
      </trkpt>
      <trkpt lat="44.05672" lon="5.93939">
        <ele>514.1</ele>
        <time>2017-01-07T14:18:38Z</time>
      </trkpt>
      <trkpt lat="44.05668" lon="5.93938">
        <ele>514.4</ele>
        <time>2017-01-07T14:18:40Z</time>
      </trkpt>
      <trkpt lat="44.05666" lon="5.93936">
        <ele>514.8</ele>
        <time>2017-01-07T14:18:42Z</time>
      </trkpt>
      <trkpt lat="44.05663" lon="5.93934">
        <ele>515.3</ele>
        <time>2017-01-07T14:18:44Z</time>
      </trkpt>
      <trkpt lat="44.05658" lon="5.93929">
        <ele>516.6</ele>
        <time>2017-01-07T14:18:46Z</time>
      </trkpt>
      <trkpt lat="44.05656" lon="5.93925">
        <ele>517.5</ele>
        <time>2017-01-07T14:18:47Z</time>
      </trkpt>
      <trkpt lat="44.05653" lon="5.93921">
        <ele>518.3</ele>
        <time>2017-01-07T14:18:49Z</time>
      </trkpt>
      <trkpt lat="44.05653" lon="5.93917">
        <ele>518.7</ele>
        <time>2017-01-07T14:18:54Z</time>
      </trkpt>
      <trkpt lat="44.05651" lon="5.93915">
        <ele>518.6</ele>
        <time>2017-01-07T14:18:58Z</time>
      </trkpt>
      <trkpt lat="44.05648" lon="5.93912">
        <ele>519.4</ele>
        <time>2017-01-07T14:19:01Z</time>
      </trkpt>
      <trkpt lat="44.05645" lon="5.9391">
        <ele>519.7</ele>
        <time>2017-01-07T14:19:05Z</time>
      </trkpt>
      <trkpt lat="44.05643" lon="5.9391">
        <ele>520.5</ele>
        <time>2017-01-07T14:19:07Z</time>
      </trkpt>
      <trkpt lat="44.0564" lon="5.93906">
        <ele>520.7</ele>
        <time>2017-01-07T14:19:10Z</time>
      </trkpt>
      <trkpt lat="44.05638" lon="5.93903">
        <ele>521.4</ele>
        <time>2017-01-07T14:19:14Z</time>
      </trkpt>
      <trkpt lat="44.05636" lon="5.93898">
        <ele>521.9</ele>
        <time>2017-01-07T14:19:18Z</time>
      </trkpt>
      <trkpt lat="44.05634" lon="5.93896">
        <ele>522.6</ele>
        <time>2017-01-07T14:19:20Z</time>
      </trkpt>
      <trkpt lat="44.05631" lon="5.93894">
        <ele>522.9</ele>
        <time>2017-01-07T14:19:24Z</time>
      </trkpt>
      <trkpt lat="44.05633" lon="5.93891">
        <ele>522.9</ele>
        <time>2017-01-07T14:19:29Z</time>
      </trkpt>
      <trkpt lat="44.0563" lon="5.93889">
        <ele>523.1</ele>
        <time>2017-01-07T14:19:33Z</time>
      </trkpt>
      <trkpt lat="44.05627" lon="5.93887">
        <ele>523.8</ele>
        <time>2017-01-07T14:19:36Z</time>
      </trkpt>
      <trkpt lat="44.05625" lon="5.93885">
        <ele>524.1</ele>
        <time>2017-01-07T14:19:38Z</time>
      </trkpt>
      <trkpt lat="44.05622" lon="5.93885">
        <ele>524.4</ele>
        <time>2017-01-07T14:19:40Z</time>
      </trkpt>
      <trkpt lat="44.05619" lon="5.93884">
        <ele>525</ele>
        <time>2017-01-07T14:19:42Z</time>
      </trkpt>
      <trkpt lat="44.05616" lon="5.93882">
        <ele>525.3</ele>
        <time>2017-01-07T14:19:45Z</time>
      </trkpt>
      <trkpt lat="44.05613" lon="5.93881">
        <ele>525.5</ele>
        <time>2017-01-07T14:19:48Z</time>
      </trkpt>
      <trkpt lat="44.0561" lon="5.93879">
        <ele>526</ele>
        <time>2017-01-07T14:19:51Z</time>
      </trkpt>
      <trkpt lat="44.05608" lon="5.93875">
        <ele>526.2</ele>
        <time>2017-01-07T14:19:54Z</time>
      </trkpt>
      <trkpt lat="44.05606" lon="5.93871">
        <ele>526.8</ele>
        <time>2017-01-07T14:19:57Z</time>
      </trkpt>
      <trkpt lat="44.05603" lon="5.93868">
        <ele>527</ele>
        <time>2017-01-07T14:20:00Z</time>
      </trkpt>
      <trkpt lat="44.05602" lon="5.93865">
        <ele>527.3</ele>
        <time>2017-01-07T14:20:02Z</time>
      </trkpt>
      <trkpt lat="44.05599" lon="5.93861">
        <ele>528</ele>
        <time>2017-01-07T14:20:05Z</time>
      </trkpt>
      <trkpt lat="44.05597" lon="5.93858">
        <ele>528.6</ele>
        <time>2017-01-07T14:20:07Z</time>
      </trkpt>
      <trkpt lat="44.05594" lon="5.93856">
        <ele>528.9</ele>
        <time>2017-01-07T14:20:09Z</time>
      </trkpt>
      <trkpt lat="44.0559" lon="5.93854">
        <ele>529.2</ele>
        <time>2017-01-07T14:20:11Z</time>
      </trkpt>
      <trkpt lat="44.05587" lon="5.93852">
        <ele>529.9</ele>
        <time>2017-01-07T14:20:13Z</time>
      </trkpt>
      <trkpt lat="44.05584" lon="5.93851">
        <ele>530.1</ele>
        <time>2017-01-07T14:20:15Z</time>
      </trkpt>
      <trkpt lat="44.05582" lon="5.9385">
        <ele>530.4</ele>
        <time>2017-01-07T14:20:18Z</time>
      </trkpt>
      <trkpt lat="44.05579" lon="5.93848">
        <ele>531.1</ele>
        <time>2017-01-07T14:20:21Z</time>
      </trkpt>
      <trkpt lat="44.05576" lon="5.93847">
        <ele>531.4</ele>
        <time>2017-01-07T14:20:23Z</time>
      </trkpt>
      <trkpt lat="44.05573" lon="5.93846">
        <ele>531.7</ele>
        <time>2017-01-07T14:20:26Z</time>
      </trkpt>
      <trkpt lat="44.0557" lon="5.93844">
        <ele>532.1</ele>
        <time>2017-01-07T14:20:33Z</time>
      </trkpt>
      <trkpt lat="44.05567" lon="5.93842">
        <ele>532.4</ele>
        <time>2017-01-07T14:20:38Z</time>
      </trkpt>
      <trkpt lat="44.05564" lon="5.93841">
        <ele>533.2</ele>
        <time>2017-01-07T14:20:40Z</time>
      </trkpt>
      <trkpt lat="44.05562" lon="5.9384">
        <ele>533.5</ele>
        <time>2017-01-07T14:20:42Z</time>
      </trkpt>
      <trkpt lat="44.05559" lon="5.93839">
        <ele>533.8</ele>
        <time>2017-01-07T14:20:44Z</time>
      </trkpt>
      <trkpt lat="44.05555" lon="5.93837">
        <ele>534.6</ele>
        <time>2017-01-07T14:20:47Z</time>
      </trkpt>
      <trkpt lat="44.05552" lon="5.93834">
        <ele>534.8</ele>
        <time>2017-01-07T14:20:50Z</time>
      </trkpt>
      <trkpt lat="44.05549" lon="5.93833">
        <ele>535</ele>
        <time>2017-01-07T14:20:54Z</time>
      </trkpt>
      <trkpt lat="44.05546" lon="5.93832">
        <ele>535.7</ele>
        <time>2017-01-07T14:20:59Z</time>
      </trkpt>
      <trkpt lat="44.05543" lon="5.93832">
        <ele>535.8</ele>
        <time>2017-01-07T14:21:03Z</time>
      </trkpt>
      <trkpt lat="44.0554" lon="5.93831">
        <ele>535.9</ele>
        <time>2017-01-07T14:21:07Z</time>
      </trkpt>
      <trkpt lat="44.05537" lon="5.9383">
        <ele>536.1</ele>
        <time>2017-01-07T14:21:11Z</time>
      </trkpt>
      <trkpt lat="44.05533" lon="5.9383">
        <ele>536.2</ele>
        <time>2017-01-07T14:21:15Z</time>
      </trkpt>
      <trkpt lat="44.0553" lon="5.93829">
        <ele>536.3</ele>
        <time>2017-01-07T14:21:18Z</time>
      </trkpt>
      <trkpt lat="44.05527" lon="5.93827">
        <ele>536.6</ele>
        <time>2017-01-07T14:21:22Z</time>
      </trkpt>
      <trkpt lat="44.05524" lon="5.93827">
        <ele>536.7</ele>
        <time>2017-01-07T14:21:24Z</time>
      </trkpt>
      <trkpt lat="44.05521" lon="5.93826">
        <ele>536.8</ele>
        <time>2017-01-07T14:21:26Z</time>
      </trkpt>
      <trkpt lat="44.05517" lon="5.93825">
        <ele>536.9</ele>
        <time>2017-01-07T14:21:28Z</time>
      </trkpt>
      <trkpt lat="44.05514" lon="5.93823">
        <ele>537</ele>
        <time>2017-01-07T14:21:30Z</time>
      </trkpt>
      <trkpt lat="44.05511" lon="5.93821">
        <ele>537.2</ele>
        <time>2017-01-07T14:21:33Z</time>
      </trkpt>
      <trkpt lat="44.05508" lon="5.9382">
        <ele>537.3</ele>
        <time>2017-01-07T14:21:37Z</time>
      </trkpt>
      <trkpt lat="44.05505" lon="5.9382">
        <ele>537.4</ele>
        <time>2017-01-07T14:21:40Z</time>
      </trkpt>
      <trkpt lat="44.05502" lon="5.9382">
        <ele>537.5</ele>
        <time>2017-01-07T14:21:43Z</time>
      </trkpt>
      <trkpt lat="44.05499" lon="5.93821">
        <ele>537.6</ele>
        <time>2017-01-07T14:21:46Z</time>
      </trkpt>
      <trkpt lat="44.05496" lon="5.93822">
        <ele>537.7</ele>
        <time>2017-01-07T14:21:48Z</time>
      </trkpt>
      <trkpt lat="44.05493" lon="5.93822">
        <ele>537.8</ele>
        <time>2017-01-07T14:21:50Z</time>
      </trkpt>
      <trkpt lat="44.05489" lon="5.93821">
        <ele>538</ele>
        <time>2017-01-07T14:21:53Z</time>
      </trkpt>
      <trkpt lat="44.05486" lon="5.93821">
        <ele>538.1</ele>
        <time>2017-01-07T14:21:55Z</time>
      </trkpt>
      <trkpt lat="44.05484" lon="5.9382">
        <ele>538.3</ele>
        <time>2017-01-07T14:21:57Z</time>
      </trkpt>
      <trkpt lat="44.0548" lon="5.93819">
        <ele>538.5</ele>
        <time>2017-01-07T14:22:00Z</time>
      </trkpt>
      <trkpt lat="44.05476" lon="5.9382">
        <ele>538.6</ele>
        <time>2017-01-07T14:22:03Z</time>
      </trkpt>
      <trkpt lat="44.05472" lon="5.9382">
        <ele>538.8</ele>
        <time>2017-01-07T14:22:06Z</time>
      </trkpt>
      <trkpt lat="44.05468" lon="5.9382">
        <ele>539.2</ele>
        <time>2017-01-07T14:22:09Z</time>
      </trkpt>
      <trkpt lat="44.05465" lon="5.93818">
        <ele>539.5</ele>
        <time>2017-01-07T14:22:13Z</time>
      </trkpt>
      <trkpt lat="44.05462" lon="5.93817">
        <ele>539.7</ele>
        <time>2017-01-07T14:22:15Z</time>
      </trkpt>
      <trkpt lat="44.0546" lon="5.93815">
        <ele>539.7</ele>
        <time>2017-01-07T14:22:17Z</time>
      </trkpt>
      <trkpt lat="44.05457" lon="5.93815">
        <ele>540</ele>
        <time>2017-01-07T14:22:19Z</time>
      </trkpt>
      <trkpt lat="44.05454" lon="5.93814">
        <ele>540.3</ele>
        <time>2017-01-07T14:22:21Z</time>
      </trkpt>
      <trkpt lat="44.05451" lon="5.93814">
        <ele>540.6</ele>
        <time>2017-01-07T14:22:23Z</time>
      </trkpt>
      <trkpt lat="44.05448" lon="5.93815">
        <ele>540.9</ele>
        <time>2017-01-07T14:22:25Z</time>
      </trkpt>
      <trkpt lat="44.05446" lon="5.93814">
        <ele>541.2</ele>
        <time>2017-01-07T14:22:27Z</time>
      </trkpt>
      <trkpt lat="44.05443" lon="5.93812">
        <ele>541.5</ele>
        <time>2017-01-07T14:22:29Z</time>
      </trkpt>
      <trkpt lat="44.05439" lon="5.9381">
        <ele>541.9</ele>
        <time>2017-01-07T14:22:31Z</time>
      </trkpt>
      <trkpt lat="44.05436" lon="5.93807">
        <ele>542.2</ele>
        <time>2017-01-07T14:22:34Z</time>
      </trkpt>
      <trkpt lat="44.05432" lon="5.93805">
        <ele>542.7</ele>
        <time>2017-01-07T14:22:37Z</time>
      </trkpt>
      <trkpt lat="44.05429" lon="5.93804">
        <ele>543</ele>
        <time>2017-01-07T14:22:39Z</time>
      </trkpt>
      <trkpt lat="44.05426" lon="5.93803">
        <ele>543.3</ele>
        <time>2017-01-07T14:22:41Z</time>
      </trkpt>
      <trkpt lat="44.05423" lon="5.93802">
        <ele>543.6</ele>
        <time>2017-01-07T14:22:43Z</time>
      </trkpt>
      <trkpt lat="44.05421" lon="5.938">
        <ele>543.8</ele>
        <time>2017-01-07T14:22:45Z</time>
      </trkpt>
      <trkpt lat="44.05418" lon="5.93799">
        <ele>543.9</ele>
        <time>2017-01-07T14:22:47Z</time>
      </trkpt>
      <trkpt lat="44.05415" lon="5.93798">
        <ele>544.2</ele>
        <time>2017-01-07T14:22:49Z</time>
      </trkpt>
      <trkpt lat="44.05413" lon="5.93796">
        <ele>544.3</ele>
        <time>2017-01-07T14:22:51Z</time>
      </trkpt>
      <trkpt lat="44.05409" lon="5.93794">
        <ele>544.6</ele>
        <time>2017-01-07T14:22:54Z</time>
      </trkpt>
      <trkpt lat="44.05406" lon="5.93792">
        <ele>544.7</ele>
        <time>2017-01-07T14:22:56Z</time>
      </trkpt>
      <trkpt lat="44.05403" lon="5.93791">
        <ele>544.9</ele>
        <time>2017-01-07T14:22:58Z</time>
      </trkpt>
      <trkpt lat="44.05401" lon="5.9379">
        <ele>545</ele>
        <time>2017-01-07T14:23:00Z</time>
      </trkpt>
      <trkpt lat="44.05397" lon="5.93789">
        <ele>545.4</ele>
        <time>2017-01-07T14:23:02Z</time>
      </trkpt>
      <trkpt lat="44.05394" lon="5.9379">
        <ele>545.2</ele>
        <time>2017-01-07T14:23:04Z</time>
      </trkpt>
      <trkpt lat="44.0539" lon="5.9379">
        <ele>545.3</ele>
        <time>2017-01-07T14:23:06Z</time>
      </trkpt>
      <trkpt lat="44.05387" lon="5.93789">
        <ele>545.7</ele>
        <time>2017-01-07T14:23:08Z</time>
      </trkpt>
      <trkpt lat="44.05383" lon="5.93788">
        <ele>545.7</ele>
        <time>2017-01-07T14:23:10Z</time>
      </trkpt>
      <trkpt lat="44.0538" lon="5.93787">
        <ele>545.8</ele>
        <time>2017-01-07T14:23:12Z</time>
      </trkpt>
      <trkpt lat="44.05376" lon="5.93787">
        <ele>545.9</ele>
        <time>2017-01-07T14:23:14Z</time>
      </trkpt>
      <trkpt lat="44.05373" lon="5.93789">
        <ele>546.1</ele>
        <time>2017-01-07T14:23:16Z</time>
      </trkpt>
      <trkpt lat="44.0537" lon="5.93791">
        <ele>546</ele>
        <time>2017-01-07T14:23:18Z</time>
      </trkpt>
      <trkpt lat="44.05367" lon="5.93793">
        <ele>545.9</ele>
        <time>2017-01-07T14:23:20Z</time>
      </trkpt>
      <trkpt lat="44.05364" lon="5.93794">
        <ele>546</ele>
        <time>2017-01-07T14:23:22Z</time>
      </trkpt>
      <trkpt lat="44.0536" lon="5.93793">
        <ele>546.1</ele>
        <time>2017-01-07T14:23:25Z</time>
      </trkpt>
      <trkpt lat="44.05357" lon="5.93794">
        <ele>546.1</ele>
        <time>2017-01-07T14:23:31Z</time>
      </trkpt>
      <trkpt lat="44.05366" lon="5.93792">
        <ele>545.8</ele>
        <time>2017-01-07T14:27:59Z</time>
      </trkpt>
      <trkpt lat="44.05372" lon="5.93796">
        <ele>545.3</ele>
        <time>2017-01-07T14:28:05Z</time>
      </trkpt>
      <trkpt lat="44.05355" lon="5.93795">
        <ele>545.8</ele>
        <time>2017-01-07T14:32:04Z</time>
      </trkpt>
      <trkpt lat="44.05354" lon="5.93792">
        <ele>545.9</ele>
        <time>2017-01-07T14:32:07Z</time>
      </trkpt>
      <trkpt lat="44.05352" lon="5.93788">
        <ele>546.1</ele>
        <time>2017-01-07T14:32:10Z</time>
      </trkpt>
      <trkpt lat="44.05351" lon="5.93785">
        <ele>546.4</ele>
        <time>2017-01-07T14:32:12Z</time>
      </trkpt>
      <trkpt lat="44.05349" lon="5.93781">
        <ele>546.4</ele>
        <time>2017-01-07T14:32:14Z</time>
      </trkpt>
      <trkpt lat="44.05347" lon="5.93778">
        <ele>546.7</ele>
        <time>2017-01-07T14:32:16Z</time>
      </trkpt>
      <trkpt lat="44.05345" lon="5.93775">
        <ele>547.1</ele>
        <time>2017-01-07T14:32:18Z</time>
      </trkpt>
      <trkpt lat="44.05342" lon="5.93772">
        <ele>547.3</ele>
        <time>2017-01-07T14:32:20Z</time>
      </trkpt>
      <trkpt lat="44.05339" lon="5.93768">
        <ele>547.6</ele>
        <time>2017-01-07T14:32:22Z</time>
      </trkpt>
      <trkpt lat="44.05335" lon="5.93765">
        <ele>547.4</ele>
        <time>2017-01-07T14:32:24Z</time>
      </trkpt>
      <trkpt lat="44.05331" lon="5.93762">
        <ele>547.4</ele>
        <time>2017-01-07T14:32:26Z</time>
      </trkpt>
      <trkpt lat="44.05327" lon="5.9376">
        <ele>547.1</ele>
        <time>2017-01-07T14:32:28Z</time>
      </trkpt>
      <trkpt lat="44.05324" lon="5.93757">
        <ele>547</ele>
        <time>2017-01-07T14:32:30Z</time>
      </trkpt>
      <trkpt lat="44.05322" lon="5.93755">
        <ele>546.9</ele>
        <time>2017-01-07T14:32:32Z</time>
      </trkpt>
      <trkpt lat="44.05319" lon="5.93752">
        <ele>546.7</ele>
        <time>2017-01-07T14:32:34Z</time>
      </trkpt>
      <trkpt lat="44.05316" lon="5.93751">
        <ele>546.7</ele>
        <time>2017-01-07T14:32:36Z</time>
      </trkpt>
      <trkpt lat="44.05313" lon="5.9375">
        <ele>546.6</ele>
        <time>2017-01-07T14:32:38Z</time>
      </trkpt>
      <trkpt lat="44.05309" lon="5.93748">
        <ele>546.5</ele>
        <time>2017-01-07T14:32:40Z</time>
      </trkpt>
      <trkpt lat="44.05306" lon="5.93745">
        <ele>546.6</ele>
        <time>2017-01-07T14:32:42Z</time>
      </trkpt>
      <trkpt lat="44.05302" lon="5.93742">
        <ele>546.8</ele>
        <time>2017-01-07T14:32:44Z</time>
      </trkpt>
      <trkpt lat="44.05301" lon="5.93737">
        <ele>547</ele>
        <time>2017-01-07T14:32:46Z</time>
      </trkpt>
      <trkpt lat="44.05301" lon="5.93733">
        <ele>547.2</ele>
        <time>2017-01-07T14:32:48Z</time>
      </trkpt>
      <trkpt lat="44.05302" lon="5.93729">
        <ele>547.6</ele>
        <time>2017-01-07T14:32:50Z</time>
      </trkpt>
      <trkpt lat="44.05304" lon="5.93725">
        <ele>547.8</ele>
        <time>2017-01-07T14:32:52Z</time>
      </trkpt>
      <trkpt lat="44.05304" lon="5.93721">
        <ele>547.7</ele>
        <time>2017-01-07T14:32:54Z</time>
      </trkpt>
      <trkpt lat="44.05305" lon="5.93716">
        <ele>548</ele>
        <time>2017-01-07T14:32:57Z</time>
      </trkpt>
      <trkpt lat="44.05306" lon="5.93711">
        <ele>548.3</ele>
        <time>2017-01-07T14:33:00Z</time>
      </trkpt>
      <trkpt lat="44.05306" lon="5.93706">
        <ele>548.4</ele>
        <time>2017-01-07T14:33:03Z</time>
      </trkpt>
      <trkpt lat="44.05307" lon="5.93702">
        <ele>548.5</ele>
        <time>2017-01-07T14:33:06Z</time>
      </trkpt>
      <trkpt lat="44.05307" lon="5.93697">
        <ele>548.5</ele>
        <time>2017-01-07T14:33:09Z</time>
      </trkpt>
      <trkpt lat="44.05308" lon="5.93693">
        <ele>548.6</ele>
        <time>2017-01-07T14:33:12Z</time>
      </trkpt>
      <trkpt lat="44.05309" lon="5.93689">
        <ele>549</ele>
        <time>2017-01-07T14:33:15Z</time>
      </trkpt>
      <trkpt lat="44.05311" lon="5.93685">
        <ele>549.1</ele>
        <time>2017-01-07T14:33:18Z</time>
      </trkpt>
      <trkpt lat="44.05313" lon="5.93681">
        <ele>549.6</ele>
        <time>2017-01-07T14:33:21Z</time>
      </trkpt>
      <trkpt lat="44.05315" lon="5.93676">
        <ele>550.2</ele>
        <time>2017-01-07T14:33:24Z</time>
      </trkpt>
      <trkpt lat="44.05316" lon="5.93671">
        <ele>550.5</ele>
        <time>2017-01-07T14:33:27Z</time>
      </trkpt>
      <trkpt lat="44.05316" lon="5.93667">
        <ele>550.8</ele>
        <time>2017-01-07T14:33:29Z</time>
      </trkpt>
      <trkpt lat="44.05317" lon="5.93663">
        <ele>551.1</ele>
        <time>2017-01-07T14:33:31Z</time>
      </trkpt>
      <trkpt lat="44.05319" lon="5.93661">
        <ele>551.8</ele>
        <time>2017-01-07T14:33:33Z</time>
      </trkpt>
      <trkpt lat="44.05322" lon="5.93657">
        <ele>551.9</ele>
        <time>2017-01-07T14:33:35Z</time>
      </trkpt>
      <trkpt lat="44.05324" lon="5.93652">
        <ele>552.9</ele>
        <time>2017-01-07T14:33:37Z</time>
      </trkpt>
      <trkpt lat="44.05325" lon="5.93647">
        <ele>553.2</ele>
        <time>2017-01-07T14:33:39Z</time>
      </trkpt>
      <trkpt lat="44.05326" lon="5.93643">
        <ele>553.4</ele>
        <time>2017-01-07T14:33:41Z</time>
      </trkpt>
      <trkpt lat="44.05327" lon="5.93637">
        <ele>553.6</ele>
        <time>2017-01-07T14:33:43Z</time>
      </trkpt>
      <trkpt lat="44.05329" lon="5.93632">
        <ele>553.6</ele>
        <time>2017-01-07T14:33:45Z</time>
      </trkpt>
      <trkpt lat="44.0533" lon="5.93625">
        <ele>553.7</ele>
        <time>2017-01-07T14:33:47Z</time>
      </trkpt>
      <trkpt lat="44.0533" lon="5.9362">
        <ele>553.6</ele>
        <time>2017-01-07T14:33:49Z</time>
      </trkpt>
      <trkpt lat="44.05331" lon="5.93614">
        <ele>553.5</ele>
        <time>2017-01-07T14:33:51Z</time>
      </trkpt>
      <trkpt lat="44.05332" lon="5.93611">
        <ele>553.3</ele>
        <time>2017-01-07T14:33:53Z</time>
      </trkpt>
      <trkpt lat="44.05334" lon="5.93605">
        <ele>553.1</ele>
        <time>2017-01-07T14:33:56Z</time>
      </trkpt>
      <trkpt lat="44.05335" lon="5.936">
        <ele>553</ele>
        <time>2017-01-07T14:33:58Z</time>
      </trkpt>
      <trkpt lat="44.05336" lon="5.93595">
        <ele>553</ele>
        <time>2017-01-07T14:34:00Z</time>
      </trkpt>
      <trkpt lat="44.05336" lon="5.93589">
        <ele>553</ele>
        <time>2017-01-07T14:34:02Z</time>
      </trkpt>
      <trkpt lat="44.05336" lon="5.93583">
        <ele>553</ele>
        <time>2017-01-07T14:34:04Z</time>
      </trkpt>
      <trkpt lat="44.05338" lon="5.93577">
        <ele>553.1</ele>
        <time>2017-01-07T14:34:06Z</time>
      </trkpt>
      <trkpt lat="44.05338" lon="5.93573">
        <ele>553.2</ele>
        <time>2017-01-07T14:34:07Z</time>
      </trkpt>
      <trkpt lat="44.05339" lon="5.93566">
        <ele>553.4</ele>
        <time>2017-01-07T14:34:09Z</time>
      </trkpt>
      <trkpt lat="44.05339" lon="5.93561">
        <ele>553.5</ele>
        <time>2017-01-07T14:34:11Z</time>
      </trkpt>
      <trkpt lat="44.05337" lon="5.93557">
        <ele>553.6</ele>
        <time>2017-01-07T14:34:13Z</time>
      </trkpt>
      <trkpt lat="44.05334" lon="5.93553">
        <ele>553.7</ele>
        <time>2017-01-07T14:34:15Z</time>
      </trkpt>
      <trkpt lat="44.05332" lon="5.93548">
        <ele>553.9</ele>
        <time>2017-01-07T14:34:17Z</time>
      </trkpt>
      <trkpt lat="44.0533" lon="5.93542">
        <ele>554.1</ele>
        <time>2017-01-07T14:34:19Z</time>
      </trkpt>
      <trkpt lat="44.05327" lon="5.93538">
        <ele>554.1</ele>
        <time>2017-01-07T14:34:21Z</time>
      </trkpt>
      <trkpt lat="44.05324" lon="5.93536">
        <ele>554.1</ele>
        <time>2017-01-07T14:34:23Z</time>
      </trkpt>
      <trkpt lat="44.05321" lon="5.93534">
        <ele>554</ele>
        <time>2017-01-07T14:34:26Z</time>
      </trkpt>
      <trkpt lat="44.05318" lon="5.93532">
        <ele>553.9</ele>
        <time>2017-01-07T14:34:31Z</time>
      </trkpt>
      <trkpt lat="44.05315" lon="5.93533">
        <ele>553.8</ele>
        <time>2017-01-07T14:34:41Z</time>
      </trkpt>
      <trkpt lat="44.05312" lon="5.93531">
        <ele>553.6</ele>
        <time>2017-01-07T14:34:44Z</time>
      </trkpt>
      <trkpt lat="44.05308" lon="5.93529">
        <ele>553.4</ele>
        <time>2017-01-07T14:34:46Z</time>
      </trkpt>
      <trkpt lat="44.05305" lon="5.93526">
        <ele>553.1</ele>
        <time>2017-01-07T14:34:48Z</time>
      </trkpt>
      <trkpt lat="44.05303" lon="5.93523">
        <ele>552.9</ele>
        <time>2017-01-07T14:34:50Z</time>
      </trkpt>
      <trkpt lat="44.05299" lon="5.93521">
        <ele>552.6</ele>
        <time>2017-01-07T14:34:52Z</time>
      </trkpt>
      <trkpt lat="44.05294" lon="5.9352">
        <ele>552.5</ele>
        <time>2017-01-07T14:34:54Z</time>
      </trkpt>
      <trkpt lat="44.05289" lon="5.93518">
        <ele>552.4</ele>
        <time>2017-01-07T14:34:56Z</time>
      </trkpt>
      <trkpt lat="44.05286" lon="5.93518">
        <ele>552.3</ele>
        <time>2017-01-07T14:34:57Z</time>
      </trkpt>
      <trkpt lat="44.05283" lon="5.93517">
        <ele>552.2</ele>
        <time>2017-01-07T14:34:58Z</time>
      </trkpt>
      <trkpt lat="44.0528" lon="5.93516">
        <ele>552.2</ele>
        <time>2017-01-07T14:34:59Z</time>
      </trkpt>
      <trkpt lat="44.05277" lon="5.93516">
        <ele>552.1</ele>
        <time>2017-01-07T14:35:00Z</time>
      </trkpt>
      <trkpt lat="44.05272" lon="5.93516">
        <ele>551.9</ele>
        <time>2017-01-07T14:35:01Z</time>
      </trkpt>
      <trkpt lat="44.05268" lon="5.93516">
        <ele>551.7</ele>
        <time>2017-01-07T14:35:02Z</time>
      </trkpt>
      <trkpt lat="44.05264" lon="5.93515">
        <ele>551.4</ele>
        <time>2017-01-07T14:35:03Z</time>
      </trkpt>
      <trkpt lat="44.0526" lon="5.93514">
        <ele>551.1</ele>
        <time>2017-01-07T14:35:04Z</time>
      </trkpt>
      <trkpt lat="44.05256" lon="5.93511">
        <ele>550.5</ele>
        <time>2017-01-07T14:35:05Z</time>
      </trkpt>
      <trkpt lat="44.05252" lon="5.93508">
        <ele>549.8</ele>
        <time>2017-01-07T14:35:06Z</time>
      </trkpt>
      <trkpt lat="44.05247" lon="5.93504">
        <ele>549</ele>
        <time>2017-01-07T14:35:07Z</time>
      </trkpt>
      <trkpt lat="44.05242" lon="5.93499">
        <ele>548.3</ele>
        <time>2017-01-07T14:35:08Z</time>
      </trkpt>
      <trkpt lat="44.05239" lon="5.93496">
        <ele>547.8</ele>
        <time>2017-01-07T14:35:09Z</time>
      </trkpt>
      <trkpt lat="44.05236" lon="5.93492">
        <ele>547.2</ele>
        <time>2017-01-07T14:35:10Z</time>
      </trkpt>
      <trkpt lat="44.05232" lon="5.93488">
        <ele>546.6</ele>
        <time>2017-01-07T14:35:11Z</time>
      </trkpt>
      <trkpt lat="44.0523" lon="5.93485">
        <ele>546.1</ele>
        <time>2017-01-07T14:35:12Z</time>
      </trkpt>
      <trkpt lat="44.05228" lon="5.93481">
        <ele>545.7</ele>
        <time>2017-01-07T14:35:13Z</time>
      </trkpt>
      <trkpt lat="44.05226" lon="5.93475">
        <ele>545.2</ele>
        <time>2017-01-07T14:35:15Z</time>
      </trkpt>
      <trkpt lat="44.05222" lon="5.93472">
        <ele>545.1</ele>
        <time>2017-01-07T14:35:17Z</time>
      </trkpt>
      <trkpt lat="44.05217" lon="5.93467">
        <ele>544.9</ele>
        <time>2017-01-07T14:35:19Z</time>
      </trkpt>
      <trkpt lat="44.05214" lon="5.93464">
        <ele>544.6</ele>
        <time>2017-01-07T14:35:20Z</time>
      </trkpt>
      <trkpt lat="44.0521" lon="5.93461">
        <ele>544.2</ele>
        <time>2017-01-07T14:35:21Z</time>
      </trkpt>
      <trkpt lat="44.05206" lon="5.93458">
        <ele>543.9</ele>
        <time>2017-01-07T14:35:22Z</time>
      </trkpt>
      <trkpt lat="44.05201" lon="5.93455">
        <ele>543.5</ele>
        <time>2017-01-07T14:35:23Z</time>
      </trkpt>
      <trkpt lat="44.05196" lon="5.93454">
        <ele>543.1</ele>
        <time>2017-01-07T14:35:24Z</time>
      </trkpt>
      <trkpt lat="44.05191" lon="5.93454">
        <ele>542.6</ele>
        <time>2017-01-07T14:35:25Z</time>
      </trkpt>
      <trkpt lat="44.05186" lon="5.93454">
        <ele>542.3</ele>
        <time>2017-01-07T14:35:26Z</time>
      </trkpt>
      <trkpt lat="44.05181" lon="5.93454">
        <ele>541.5</ele>
        <time>2017-01-07T14:35:27Z</time>
      </trkpt>
      <trkpt lat="44.05177" lon="5.93453">
        <ele>540.8</ele>
        <time>2017-01-07T14:35:28Z</time>
      </trkpt>
      <trkpt lat="44.05173" lon="5.93451">
        <ele>540.3</ele>
        <time>2017-01-07T14:35:29Z</time>
      </trkpt>
      <trkpt lat="44.0517" lon="5.93446">
        <ele>539.8</ele>
        <time>2017-01-07T14:35:31Z</time>
      </trkpt>
      <trkpt lat="44.05171" lon="5.9344">
        <ele>540.2</ele>
        <time>2017-01-07T14:35:33Z</time>
      </trkpt>
      <trkpt lat="44.05171" lon="5.93436">
        <ele>540.5</ele>
        <time>2017-01-07T14:35:35Z</time>
      </trkpt>
      <trkpt lat="44.0517" lon="5.93431">
        <ele>540.9</ele>
        <time>2017-01-07T14:35:37Z</time>
      </trkpt>
      <trkpt lat="44.0517" lon="5.93425">
        <ele>541.2</ele>
        <time>2017-01-07T14:35:39Z</time>
      </trkpt>
      <trkpt lat="44.0517" lon="5.93421">
        <ele>541.5</ele>
        <time>2017-01-07T14:35:40Z</time>
      </trkpt>
      <trkpt lat="44.05167" lon="5.93416">
        <ele>541.5</ele>
        <time>2017-01-07T14:35:42Z</time>
      </trkpt>
      <trkpt lat="44.05161" lon="5.93414">
        <ele>541.1</ele>
        <time>2017-01-07T14:35:44Z</time>
      </trkpt>
      <trkpt lat="44.05158" lon="5.93414">
        <ele>540.9</ele>
        <time>2017-01-07T14:35:45Z</time>
      </trkpt>
      <trkpt lat="44.05154" lon="5.93414">
        <ele>540.4</ele>
        <time>2017-01-07T14:35:46Z</time>
      </trkpt>
      <trkpt lat="44.0515" lon="5.93414">
        <ele>540.2</ele>
        <time>2017-01-07T14:35:47Z</time>
      </trkpt>
      <trkpt lat="44.05146" lon="5.93414">
        <ele>540</ele>
        <time>2017-01-07T14:35:48Z</time>
      </trkpt>
      <trkpt lat="44.05142" lon="5.93413">
        <ele>539.9</ele>
        <time>2017-01-07T14:35:49Z</time>
      </trkpt>
      <trkpt lat="44.05138" lon="5.93412">
        <ele>539.5</ele>
        <time>2017-01-07T14:35:50Z</time>
      </trkpt>
      <trkpt lat="44.05135" lon="5.93408">
        <ele>539.4</ele>
        <time>2017-01-07T14:35:51Z</time>
      </trkpt>
      <trkpt lat="44.05133" lon="5.93404">
        <ele>539.6</ele>
        <time>2017-01-07T14:35:52Z</time>
      </trkpt>
      <trkpt lat="44.05131" lon="5.934">
        <ele>539.5</ele>
        <time>2017-01-07T14:35:53Z</time>
      </trkpt>
      <trkpt lat="44.05129" lon="5.93395">
        <ele>539.5</ele>
        <time>2017-01-07T14:35:54Z</time>
      </trkpt>
      <trkpt lat="44.05128" lon="5.93391">
        <ele>539.7</ele>
        <time>2017-01-07T14:35:55Z</time>
      </trkpt>
      <trkpt lat="44.05126" lon="5.93386">
        <ele>539.8</ele>
        <time>2017-01-07T14:35:56Z</time>
      </trkpt>
      <trkpt lat="44.05124" lon="5.93382">
        <ele>539.8</ele>
        <time>2017-01-07T14:35:57Z</time>
      </trkpt>
      <trkpt lat="44.05122" lon="5.93377">
        <ele>539.9</ele>
        <time>2017-01-07T14:35:58Z</time>
      </trkpt>
      <trkpt lat="44.05121" lon="5.93374">
        <ele>539.9</ele>
        <time>2017-01-07T14:35:59Z</time>
      </trkpt>
      <trkpt lat="44.05119" lon="5.9337">
        <ele>539.8</ele>
        <time>2017-01-07T14:36:00Z</time>
      </trkpt>
      <trkpt lat="44.05117" lon="5.93367">
        <ele>539.8</ele>
        <time>2017-01-07T14:36:01Z</time>
      </trkpt>
      <trkpt lat="44.05114" lon="5.93361">
        <ele>539.7</ele>
        <time>2017-01-07T14:36:03Z</time>
      </trkpt>
      <trkpt lat="44.0511" lon="5.93356">
        <ele>539.7</ele>
        <time>2017-01-07T14:36:05Z</time>
      </trkpt>
      <trkpt lat="44.05107" lon="5.93353">
        <ele>539.7</ele>
        <time>2017-01-07T14:36:06Z</time>
      </trkpt>
      <trkpt lat="44.05105" lon="5.93351">
        <ele>539.7</ele>
        <time>2017-01-07T14:36:07Z</time>
      </trkpt>
      <trkpt lat="44.05102" lon="5.93348">
        <ele>539.7</ele>
        <time>2017-01-07T14:36:08Z</time>
      </trkpt>
      <trkpt lat="44.051" lon="5.93346">
        <ele>539.8</ele>
        <time>2017-01-07T14:36:09Z</time>
      </trkpt>
      <trkpt lat="44.05097" lon="5.93344">
        <ele>539.8</ele>
        <time>2017-01-07T14:36:10Z</time>
      </trkpt>
      <trkpt lat="44.05094" lon="5.93343">
        <ele>539.8</ele>
        <time>2017-01-07T14:36:11Z</time>
      </trkpt>
      <trkpt lat="44.05092" lon="5.93342">
        <ele>539.8</ele>
        <time>2017-01-07T14:36:12Z</time>
      </trkpt>
      <trkpt lat="44.05089" lon="5.93342">
        <ele>539.8</ele>
        <time>2017-01-07T14:36:13Z</time>
      </trkpt>
      <trkpt lat="44.05086" lon="5.93342">
        <ele>539.8</ele>
        <time>2017-01-07T14:36:14Z</time>
      </trkpt>
      <trkpt lat="44.05083" lon="5.93342">
        <ele>539.8</ele>
        <time>2017-01-07T14:36:15Z</time>
      </trkpt>
      <trkpt lat="44.0508" lon="5.93341">
        <ele>539.9</ele>
        <time>2017-01-07T14:36:16Z</time>
      </trkpt>
      <trkpt lat="44.05077" lon="5.9334">
        <ele>539.9</ele>
        <time>2017-01-07T14:36:17Z</time>
      </trkpt>
      <trkpt lat="44.05074" lon="5.93339">
        <ele>540</ele>
        <time>2017-01-07T14:36:18Z</time>
      </trkpt>
      <trkpt lat="44.0507" lon="5.93339">
        <ele>540.1</ele>
        <time>2017-01-07T14:36:19Z</time>
      </trkpt>
      <trkpt lat="44.05067" lon="5.93338">
        <ele>540.2</ele>
        <time>2017-01-07T14:36:20Z</time>
      </trkpt>
      <trkpt lat="44.05064" lon="5.93337">
        <ele>540.2</ele>
        <time>2017-01-07T14:36:21Z</time>
      </trkpt>
      <trkpt lat="44.05061" lon="5.93335">
        <ele>540.3</ele>
        <time>2017-01-07T14:36:22Z</time>
      </trkpt>
      <trkpt lat="44.05058" lon="5.93334">
        <ele>540.5</ele>
        <time>2017-01-07T14:36:23Z</time>
      </trkpt>
      <trkpt lat="44.05055" lon="5.93333">
        <ele>540.6</ele>
        <time>2017-01-07T14:36:24Z</time>
      </trkpt>
      <trkpt lat="44.05052" lon="5.93332">
        <ele>540.7</ele>
        <time>2017-01-07T14:36:25Z</time>
      </trkpt>
      <trkpt lat="44.05049" lon="5.93331">
        <ele>540.8</ele>
        <time>2017-01-07T14:36:26Z</time>
      </trkpt>
      <trkpt lat="44.05046" lon="5.93331">
        <ele>540.9</ele>
        <time>2017-01-07T14:36:27Z</time>
      </trkpt>
      <trkpt lat="44.05043" lon="5.93331">
        <ele>541.1</ele>
        <time>2017-01-07T14:36:28Z</time>
      </trkpt>
      <trkpt lat="44.05039" lon="5.93332">
        <ele>541.2</ele>
        <time>2017-01-07T14:36:29Z</time>
      </trkpt>
      <trkpt lat="44.05036" lon="5.93333">
        <ele>541.3</ele>
        <time>2017-01-07T14:36:30Z</time>
      </trkpt>
      <trkpt lat="44.05032" lon="5.93334">
        <ele>541.4</ele>
        <time>2017-01-07T14:36:31Z</time>
      </trkpt>
      <trkpt lat="44.05029" lon="5.93337">
        <ele>541.5</ele>
        <time>2017-01-07T14:36:32Z</time>
      </trkpt>
      <trkpt lat="44.05025" lon="5.9334">
        <ele>541.4</ele>
        <time>2017-01-07T14:36:33Z</time>
      </trkpt>
      <trkpt lat="44.05022" lon="5.93344">
        <ele>541.4</ele>
        <time>2017-01-07T14:36:34Z</time>
      </trkpt>
      <trkpt lat="44.05018" lon="5.93347">
        <ele>541.3</ele>
        <time>2017-01-07T14:36:35Z</time>
      </trkpt>
      <trkpt lat="44.05014" lon="5.9335">
        <ele>541.2</ele>
        <time>2017-01-07T14:36:36Z</time>
      </trkpt>
      <trkpt lat="44.0501" lon="5.93352">
        <ele>541.1</ele>
        <time>2017-01-07T14:36:37Z</time>
      </trkpt>
      <trkpt lat="44.05006" lon="5.93355">
        <ele>541</ele>
        <time>2017-01-07T14:36:38Z</time>
      </trkpt>
      <trkpt lat="44.04998" lon="5.93354">
        <ele>540.9</ele>
        <time>2017-01-07T14:36:39Z</time>
      </trkpt>
      <trkpt lat="44.04993" lon="5.93354">
        <ele>540.9</ele>
        <time>2017-01-07T14:36:40Z</time>
      </trkpt>
      <trkpt lat="44.04987" lon="5.93351">
        <ele>540.9</ele>
        <time>2017-01-07T14:36:41Z</time>
      </trkpt>
      <trkpt lat="44.04984" lon="5.9335">
        <ele>540.9</ele>
        <time>2017-01-07T14:36:42Z</time>
      </trkpt>
      <trkpt lat="44.04977" lon="5.93348">
        <ele>541</ele>
        <time>2017-01-07T14:36:43Z</time>
      </trkpt>
      <trkpt lat="44.04974" lon="5.93348">
        <ele>541</ele>
        <time>2017-01-07T14:36:44Z</time>
      </trkpt>
      <trkpt lat="44.0497" lon="5.9335">
        <ele>541</ele>
        <time>2017-01-07T14:36:45Z</time>
      </trkpt>
      <trkpt lat="44.04966" lon="5.93353">
        <ele>541.1</ele>
        <time>2017-01-07T14:36:47Z</time>
      </trkpt>
      <trkpt lat="44.04963" lon="5.93356">
        <ele>541.2</ele>
        <time>2017-01-07T14:36:48Z</time>
      </trkpt>
      <trkpt lat="44.04957" lon="5.93358">
        <ele>541.3</ele>
        <time>2017-01-07T14:36:50Z</time>
      </trkpt>
      <trkpt lat="44.04955" lon="5.9336">
        <ele>541.4</ele>
        <time>2017-01-07T14:36:53Z</time>
      </trkpt>
      <trkpt lat="44.04951" lon="5.93362">
        <ele>541.6</ele>
        <time>2017-01-07T14:36:59Z</time>
      </trkpt>
      <trkpt lat="44.04948" lon="5.93363">
        <ele>541.8</ele>
        <time>2017-01-07T14:37:01Z</time>
      </trkpt>
      <trkpt lat="44.04942" lon="5.93363">
        <ele>542.1</ele>
        <time>2017-01-07T14:37:03Z</time>
      </trkpt>
      <trkpt lat="44.04939" lon="5.93362">
        <ele>542.3</ele>
        <time>2017-01-07T14:37:04Z</time>
      </trkpt>
      <trkpt lat="44.04936" lon="5.93362">
        <ele>542.5</ele>
        <time>2017-01-07T14:37:05Z</time>
      </trkpt>
      <trkpt lat="44.04933" lon="5.93362">
        <ele>542.7</ele>
        <time>2017-01-07T14:37:06Z</time>
      </trkpt>
      <trkpt lat="44.0493" lon="5.93362">
        <ele>542.9</ele>
        <time>2017-01-07T14:37:07Z</time>
      </trkpt>
      <trkpt lat="44.04927" lon="5.93362">
        <ele>543.1</ele>
        <time>2017-01-07T14:37:08Z</time>
      </trkpt>
      <trkpt lat="44.04923" lon="5.93362">
        <ele>543.2</ele>
        <time>2017-01-07T14:37:09Z</time>
      </trkpt>
      <trkpt lat="44.0492" lon="5.93362">
        <ele>543.3</ele>
        <time>2017-01-07T14:37:10Z</time>
      </trkpt>
      <trkpt lat="44.04917" lon="5.93362">
        <ele>543.4</ele>
        <time>2017-01-07T14:37:11Z</time>
      </trkpt>
      <trkpt lat="44.04914" lon="5.93361">
        <ele>543.4</ele>
        <time>2017-01-07T14:37:12Z</time>
      </trkpt>
      <trkpt lat="44.04912" lon="5.93355">
        <ele>543.2</ele>
        <time>2017-01-07T14:37:14Z</time>
      </trkpt>
      <trkpt lat="44.04911" lon="5.93352">
        <ele>543.2</ele>
        <time>2017-01-07T14:37:15Z</time>
      </trkpt>
      <trkpt lat="44.04911" lon="5.93344">
        <ele>543.3</ele>
        <time>2017-01-07T14:37:17Z</time>
      </trkpt>
      <trkpt lat="44.04913" lon="5.93337">
        <ele>543.4</ele>
        <time>2017-01-07T14:37:19Z</time>
      </trkpt>
      <trkpt lat="44.04913" lon="5.93333">
        <ele>543.5</ele>
        <time>2017-01-07T14:37:20Z</time>
      </trkpt>
      <trkpt lat="44.04914" lon="5.93329">
        <ele>543.7</ele>
        <time>2017-01-07T14:37:21Z</time>
      </trkpt>
      <trkpt lat="44.04914" lon="5.93325">
        <ele>543.9</ele>
        <time>2017-01-07T14:37:22Z</time>
      </trkpt>
      <trkpt lat="44.04915" lon="5.93321">
        <ele>544.1</ele>
        <time>2017-01-07T14:37:23Z</time>
      </trkpt>
      <trkpt lat="44.04915" lon="5.93317">
        <ele>544.3</ele>
        <time>2017-01-07T14:37:24Z</time>
      </trkpt>
      <trkpt lat="44.04916" lon="5.9331">
        <ele>544.6</ele>
        <time>2017-01-07T14:37:26Z</time>
      </trkpt>
      <trkpt lat="44.04916" lon="5.93303">
        <ele>545</ele>
        <time>2017-01-07T14:37:28Z</time>
      </trkpt>
      <trkpt lat="44.04916" lon="5.93299">
        <ele>545.2</ele>
        <time>2017-01-07T14:37:29Z</time>
      </trkpt>
      <trkpt lat="44.04916" lon="5.93292">
        <ele>545.4</ele>
        <time>2017-01-07T14:37:31Z</time>
      </trkpt>
      <trkpt lat="44.04916" lon="5.93285">
        <ele>545.7</ele>
        <time>2017-01-07T14:37:33Z</time>
      </trkpt>
      <trkpt lat="44.04916" lon="5.93281">
        <ele>545.9</ele>
        <time>2017-01-07T14:37:34Z</time>
      </trkpt>
      <trkpt lat="44.04915" lon="5.93278">
        <ele>546.1</ele>
        <time>2017-01-07T14:37:35Z</time>
      </trkpt>
      <trkpt lat="44.04916" lon="5.9327">
        <ele>546.5</ele>
        <time>2017-01-07T14:37:37Z</time>
      </trkpt>
      <trkpt lat="44.04916" lon="5.93266">
        <ele>546.5</ele>
        <time>2017-01-07T14:37:38Z</time>
      </trkpt>
      <trkpt lat="44.04916" lon="5.93262">
        <ele>546.8</ele>
        <time>2017-01-07T14:37:39Z</time>
      </trkpt>
      <trkpt lat="44.04916" lon="5.93258">
        <ele>547</ele>
        <time>2017-01-07T14:37:40Z</time>
      </trkpt>
      <trkpt lat="44.04916" lon="5.93255">
        <ele>547.2</ele>
        <time>2017-01-07T14:37:41Z</time>
      </trkpt>
      <trkpt lat="44.04916" lon="5.93251">
        <ele>547.3</ele>
        <time>2017-01-07T14:37:42Z</time>
      </trkpt>
      <trkpt lat="44.04916" lon="5.93243">
        <ele>547.3</ele>
        <time>2017-01-07T14:37:44Z</time>
      </trkpt>
      <trkpt lat="44.04916" lon="5.93237">
        <ele>547.2</ele>
        <time>2017-01-07T14:37:46Z</time>
      </trkpt>
      <trkpt lat="44.04915" lon="5.9323">
        <ele>547.2</ele>
        <time>2017-01-07T14:37:48Z</time>
      </trkpt>
      <trkpt lat="44.04915" lon="5.93224">
        <ele>547.3</ele>
        <time>2017-01-07T14:37:50Z</time>
      </trkpt>
      <trkpt lat="44.04914" lon="5.9322">
        <ele>547.5</ele>
        <time>2017-01-07T14:37:51Z</time>
      </trkpt>
      <trkpt lat="44.04912" lon="5.93213">
        <ele>548.1</ele>
        <time>2017-01-07T14:37:53Z</time>
      </trkpt>
      <trkpt lat="44.04911" lon="5.93209">
        <ele>548.5</ele>
        <time>2017-01-07T14:37:54Z</time>
      </trkpt>
      <trkpt lat="44.04909" lon="5.93205">
        <ele>548.9</ele>
        <time>2017-01-07T14:37:55Z</time>
      </trkpt>
      <trkpt lat="44.04908" lon="5.93201">
        <ele>549.3</ele>
        <time>2017-01-07T14:37:56Z</time>
      </trkpt>
      <trkpt lat="44.04906" lon="5.93198">
        <ele>549.3</ele>
        <time>2017-01-07T14:37:57Z</time>
      </trkpt>
      <trkpt lat="44.04903" lon="5.93192">
        <ele>549.8</ele>
        <time>2017-01-07T14:37:59Z</time>
      </trkpt>
      <trkpt lat="44.04902" lon="5.93188">
        <ele>550</ele>
        <time>2017-01-07T14:38:01Z</time>
      </trkpt>
      <trkpt lat="44.049" lon="5.93183">
        <ele>550.2</ele>
        <time>2017-01-07T14:38:03Z</time>
      </trkpt>
      <trkpt lat="44.04898" lon="5.93178">
        <ele>550.4</ele>
        <time>2017-01-07T14:38:05Z</time>
      </trkpt>
      <trkpt lat="44.04896" lon="5.93172">
        <ele>550.5</ele>
        <time>2017-01-07T14:38:07Z</time>
      </trkpt>
      <trkpt lat="44.04894" lon="5.93167">
        <ele>550.9</ele>
        <time>2017-01-07T14:38:09Z</time>
      </trkpt>
      <trkpt lat="44.04892" lon="5.93161">
        <ele>551</ele>
        <time>2017-01-07T14:38:11Z</time>
      </trkpt>
      <trkpt lat="44.04891" lon="5.93157">
        <ele>551.3</ele>
        <time>2017-01-07T14:38:13Z</time>
      </trkpt>
      <trkpt lat="44.04889" lon="5.93152">
        <ele>551.5</ele>
        <time>2017-01-07T14:38:15Z</time>
      </trkpt>
      <trkpt lat="44.04889" lon="5.93147">
        <ele>551.7</ele>
        <time>2017-01-07T14:38:17Z</time>
      </trkpt>
      <trkpt lat="44.04887" lon="5.93143">
        <ele>551.9</ele>
        <time>2017-01-07T14:38:19Z</time>
      </trkpt>
      <trkpt lat="44.04885" lon="5.93138">
        <ele>552.1</ele>
        <time>2017-01-07T14:38:21Z</time>
      </trkpt>
      <trkpt lat="44.04884" lon="5.93134">
        <ele>552.3</ele>
        <time>2017-01-07T14:38:23Z</time>
      </trkpt>
      <trkpt lat="44.04881" lon="5.93129">
        <ele>552.6</ele>
        <time>2017-01-07T14:38:25Z</time>
      </trkpt>
      <trkpt lat="44.04879" lon="5.93124">
        <ele>553</ele>
        <time>2017-01-07T14:38:27Z</time>
      </trkpt>
      <trkpt lat="44.04877" lon="5.93119">
        <ele>553.3</ele>
        <time>2017-01-07T14:38:29Z</time>
      </trkpt>
      <trkpt lat="44.04875" lon="5.93113">
        <ele>553.5</ele>
        <time>2017-01-07T14:38:31Z</time>
      </trkpt>
      <trkpt lat="44.04873" lon="5.93108">
        <ele>553.9</ele>
        <time>2017-01-07T14:38:33Z</time>
      </trkpt>
      <trkpt lat="44.04871" lon="5.93104">
        <ele>554.1</ele>
        <time>2017-01-07T14:38:35Z</time>
      </trkpt>
      <trkpt lat="44.04869" lon="5.93098">
        <ele>555</ele>
        <time>2017-01-07T14:38:37Z</time>
      </trkpt>
      <trkpt lat="44.04867" lon="5.93093">
        <ele>555.6</ele>
        <time>2017-01-07T14:38:39Z</time>
      </trkpt>
      <trkpt lat="44.04865" lon="5.93087">
        <ele>555.9</ele>
        <time>2017-01-07T14:38:41Z</time>
      </trkpt>
      <trkpt lat="44.04864" lon="5.93082">
        <ele>556.2</ele>
        <time>2017-01-07T14:38:43Z</time>
      </trkpt>
      <trkpt lat="44.04863" lon="5.93077">
        <ele>556.6</ele>
        <time>2017-01-07T14:38:45Z</time>
      </trkpt>
      <trkpt lat="44.04862" lon="5.93072">
        <ele>557</ele>
        <time>2017-01-07T14:38:47Z</time>
      </trkpt>
      <trkpt lat="44.0486" lon="5.93066">
        <ele>557.3</ele>
        <time>2017-01-07T14:38:49Z</time>
      </trkpt>
      <trkpt lat="44.04859" lon="5.93061">
        <ele>557.5</ele>
        <time>2017-01-07T14:38:51Z</time>
      </trkpt>
      <trkpt lat="44.04857" lon="5.93056">
        <ele>557.8</ele>
        <time>2017-01-07T14:38:53Z</time>
      </trkpt>
      <trkpt lat="44.04855" lon="5.93052">
        <ele>558.1</ele>
        <time>2017-01-07T14:38:55Z</time>
      </trkpt>
      <trkpt lat="44.04853" lon="5.93048">
        <ele>558.4</ele>
        <time>2017-01-07T14:38:58Z</time>
      </trkpt>
      <trkpt lat="44.04852" lon="5.93044">
        <ele>558.8</ele>
        <time>2017-01-07T14:39:00Z</time>
      </trkpt>
      <trkpt lat="44.0485" lon="5.9304">
        <ele>559.1</ele>
        <time>2017-01-07T14:39:02Z</time>
      </trkpt>
      <trkpt lat="44.04849" lon="5.93036">
        <ele>559.5</ele>
        <time>2017-01-07T14:39:04Z</time>
      </trkpt>
      <trkpt lat="44.04847" lon="5.93032">
        <ele>559.8</ele>
        <time>2017-01-07T14:39:06Z</time>
      </trkpt>
      <trkpt lat="44.04845" lon="5.93029">
        <ele>560.1</ele>
        <time>2017-01-07T14:39:08Z</time>
      </trkpt>
      <trkpt lat="44.04845" lon="5.93024">
        <ele>560.3</ele>
        <time>2017-01-07T14:39:11Z</time>
      </trkpt>
      <trkpt lat="44.04843" lon="5.93019">
        <ele>560.6</ele>
        <time>2017-01-07T14:39:14Z</time>
      </trkpt>
      <trkpt lat="44.04842" lon="5.93016">
        <ele>560.9</ele>
        <time>2017-01-07T14:39:16Z</time>
      </trkpt>
      <trkpt lat="44.0484" lon="5.93012">
        <ele>561.4</ele>
        <time>2017-01-07T14:39:18Z</time>
      </trkpt>
      <trkpt lat="44.04837" lon="5.93009">
        <ele>561.3</ele>
        <time>2017-01-07T14:39:20Z</time>
      </trkpt>
      <trkpt lat="44.04835" lon="5.93006">
        <ele>561.7</ele>
        <time>2017-01-07T14:39:22Z</time>
      </trkpt>
      <trkpt lat="44.04831" lon="5.93004">
        <ele>561.6</ele>
        <time>2017-01-07T14:39:25Z</time>
      </trkpt>
      <trkpt lat="44.04828" lon="5.93003">
        <ele>561.4</ele>
        <time>2017-01-07T14:39:28Z</time>
      </trkpt>
      <trkpt lat="44.04825" lon="5.93002">
        <ele>561.1</ele>
        <time>2017-01-07T14:39:31Z</time>
      </trkpt>
      <trkpt lat="44.04821" lon="5.93001">
        <ele>561</ele>
        <time>2017-01-07T14:39:34Z</time>
      </trkpt>
      <trkpt lat="44.04818" lon="5.93001">
        <ele>561</ele>
        <time>2017-01-07T14:39:36Z</time>
      </trkpt>
      <trkpt lat="44.04815" lon="5.93001">
        <ele>561</ele>
        <time>2017-01-07T14:39:38Z</time>
      </trkpt>
      <trkpt lat="44.04813" lon="5.93003">
        <ele>561</ele>
        <time>2017-01-07T14:39:40Z</time>
      </trkpt>
      <trkpt lat="44.0481" lon="5.93005">
        <ele>561</ele>
        <time>2017-01-07T14:39:42Z</time>
      </trkpt>
      <trkpt lat="44.04806" lon="5.93008">
        <ele>561</ele>
        <time>2017-01-07T14:39:44Z</time>
      </trkpt>
      <trkpt lat="44.04803" lon="5.9301">
        <ele>561</ele>
        <time>2017-01-07T14:39:46Z</time>
      </trkpt>
      <trkpt lat="44.04798" lon="5.93013">
        <ele>561</ele>
        <time>2017-01-07T14:39:48Z</time>
      </trkpt>
      <trkpt lat="44.04793" lon="5.93012">
        <ele>562</ele>
        <time>2017-01-07T14:39:50Z</time>
      </trkpt>
      <trkpt lat="44.0479" lon="5.93008">
        <ele>562.4</ele>
        <time>2017-01-07T14:39:52Z</time>
      </trkpt>
      <trkpt lat="44.04789" lon="5.93003">
        <ele>563</ele>
        <time>2017-01-07T14:39:54Z</time>
      </trkpt>
      <trkpt lat="44.04789" lon="5.92998">
        <ele>563.4</ele>
        <time>2017-01-07T14:39:56Z</time>
      </trkpt>
      <trkpt lat="44.04788" lon="5.92992">
        <ele>563.8</ele>
        <time>2017-01-07T14:39:58Z</time>
      </trkpt>
      <trkpt lat="44.04786" lon="5.92987">
        <ele>564.2</ele>
        <time>2017-01-07T14:40:00Z</time>
      </trkpt>
      <trkpt lat="44.04785" lon="5.92983">
        <ele>564.6</ele>
        <time>2017-01-07T14:40:02Z</time>
      </trkpt>
      <trkpt lat="44.04783" lon="5.92979">
        <ele>564.9</ele>
        <time>2017-01-07T14:40:04Z</time>
      </trkpt>
      <trkpt lat="44.04781" lon="5.92975">
        <ele>565.2</ele>
        <time>2017-01-07T14:40:06Z</time>
      </trkpt>
      <trkpt lat="44.0478" lon="5.92972">
        <ele>565.5</ele>
        <time>2017-01-07T14:40:08Z</time>
      </trkpt>
      <trkpt lat="44.04779" lon="5.92968">
        <ele>565.9</ele>
        <time>2017-01-07T14:40:10Z</time>
      </trkpt>
      <trkpt lat="44.04778" lon="5.92963">
        <ele>566.3</ele>
        <time>2017-01-07T14:40:13Z</time>
      </trkpt>
      <trkpt lat="44.04778" lon="5.92958">
        <ele>566.8</ele>
        <time>2017-01-07T14:40:16Z</time>
      </trkpt>
      <trkpt lat="44.04777" lon="5.92954">
        <ele>567.1</ele>
        <time>2017-01-07T14:40:18Z</time>
      </trkpt>
      <trkpt lat="44.04776" lon="5.9295">
        <ele>567.6</ele>
        <time>2017-01-07T14:40:20Z</time>
      </trkpt>
      <trkpt lat="44.04775" lon="5.92945">
        <ele>568.1</ele>
        <time>2017-01-07T14:40:22Z</time>
      </trkpt>
      <trkpt lat="44.04774" lon="5.92941">
        <ele>568.5</ele>
        <time>2017-01-07T14:40:24Z</time>
      </trkpt>
      <trkpt lat="44.04774" lon="5.92936">
        <ele>569.1</ele>
        <time>2017-01-07T14:40:27Z</time>
      </trkpt>
      <trkpt lat="44.04775" lon="5.92932">
        <ele>569.5</ele>
        <time>2017-01-07T14:40:29Z</time>
      </trkpt>
      <trkpt lat="44.04775" lon="5.92928">
        <ele>569.9</ele>
        <time>2017-01-07T14:40:31Z</time>
      </trkpt>
      <trkpt lat="44.04775" lon="5.92923">
        <ele>570.3</ele>
        <time>2017-01-07T14:40:34Z</time>
      </trkpt>
      <trkpt lat="44.04775" lon="5.92919">
        <ele>570.6</ele>
        <time>2017-01-07T14:40:37Z</time>
      </trkpt>
      <trkpt lat="44.04775" lon="5.92914">
        <ele>571</ele>
        <time>2017-01-07T14:40:40Z</time>
      </trkpt>
      <trkpt lat="44.04774" lon="5.92911">
        <ele>571.3</ele>
        <time>2017-01-07T14:40:42Z</time>
      </trkpt>
      <trkpt lat="44.04773" lon="5.92906">
        <ele>571.9</ele>
        <time>2017-01-07T14:40:45Z</time>
      </trkpt>
      <trkpt lat="44.04772" lon="5.92901">
        <ele>572.3</ele>
        <time>2017-01-07T14:40:47Z</time>
      </trkpt>
      <trkpt lat="44.04771" lon="5.92896">
        <ele>572.7</ele>
        <time>2017-01-07T14:40:49Z</time>
      </trkpt>
      <trkpt lat="44.0477" lon="5.92891">
        <ele>573</ele>
        <time>2017-01-07T14:40:51Z</time>
      </trkpt>
      <trkpt lat="44.04769" lon="5.92887">
        <ele>573.6</ele>
        <time>2017-01-07T14:40:53Z</time>
      </trkpt>
      <trkpt lat="44.04769" lon="5.92883">
        <ele>574</ele>
        <time>2017-01-07T14:40:55Z</time>
      </trkpt>
      <trkpt lat="44.04769" lon="5.92879">
        <ele>574.4</ele>
        <time>2017-01-07T14:40:57Z</time>
      </trkpt>
      <trkpt lat="44.04769" lon="5.92874">
        <ele>575</ele>
        <time>2017-01-07T14:41:00Z</time>
      </trkpt>
      <trkpt lat="44.04769" lon="5.92869">
        <ele>575.7</ele>
        <time>2017-01-07T14:41:03Z</time>
      </trkpt>
      <trkpt lat="44.0477" lon="5.92865">
        <ele>576.1</ele>
        <time>2017-01-07T14:41:06Z</time>
      </trkpt>
      <trkpt lat="44.0477" lon="5.92861">
        <ele>576.6</ele>
        <time>2017-01-07T14:41:09Z</time>
      </trkpt>
      <trkpt lat="44.04771" lon="5.92856">
        <ele>577</ele>
        <time>2017-01-07T14:41:12Z</time>
      </trkpt>
      <trkpt lat="44.04773" lon="5.92851">
        <ele>577.4</ele>
        <time>2017-01-07T14:41:15Z</time>
      </trkpt>
      <trkpt lat="44.04773" lon="5.92847">
        <ele>577.8</ele>
        <time>2017-01-07T14:41:18Z</time>
      </trkpt>
      <trkpt lat="44.04775" lon="5.92842">
        <ele>578.2</ele>
        <time>2017-01-07T14:41:21Z</time>
      </trkpt>
      <trkpt lat="44.04775" lon="5.92837">
        <ele>578.6</ele>
        <time>2017-01-07T14:41:23Z</time>
      </trkpt>
      <trkpt lat="44.04775" lon="5.92832">
        <ele>578.9</ele>
        <time>2017-01-07T14:41:25Z</time>
      </trkpt>
      <trkpt lat="44.04774" lon="5.92828">
        <ele>579.5</ele>
        <time>2017-01-07T14:41:28Z</time>
      </trkpt>
      <trkpt lat="44.04774" lon="5.92823">
        <ele>580</ele>
        <time>2017-01-07T14:41:31Z</time>
      </trkpt>
      <trkpt lat="44.04774" lon="5.92818">
        <ele>580.5</ele>
        <time>2017-01-07T14:41:34Z</time>
      </trkpt>
      <trkpt lat="44.04773" lon="5.92814">
        <ele>580.8</ele>
        <time>2017-01-07T14:41:36Z</time>
      </trkpt>
      <trkpt lat="44.04773" lon="5.92808">
        <ele>581.5</ele>
        <time>2017-01-07T14:41:39Z</time>
      </trkpt>
      <trkpt lat="44.04772" lon="5.92804">
        <ele>581.8</ele>
        <time>2017-01-07T14:41:41Z</time>
      </trkpt>
      <trkpt lat="44.04772" lon="5.928">
        <ele>582</ele>
        <time>2017-01-07T14:41:43Z</time>
      </trkpt>
      <trkpt lat="44.04772" lon="5.92796">
        <ele>582.3</ele>
        <time>2017-01-07T14:41:45Z</time>
      </trkpt>
      <trkpt lat="44.04773" lon="5.92791">
        <ele>582.6</ele>
        <time>2017-01-07T14:41:48Z</time>
      </trkpt>
      <trkpt lat="44.04775" lon="5.92787">
        <ele>582.9</ele>
        <time>2017-01-07T14:41:51Z</time>
      </trkpt>
      <trkpt lat="44.04779" lon="5.92785">
        <ele>583.2</ele>
        <time>2017-01-07T14:41:54Z</time>
      </trkpt>
      <trkpt lat="44.04782" lon="5.92785">
        <ele>583.6</ele>
        <time>2017-01-07T14:41:56Z</time>
      </trkpt>
      <trkpt lat="44.04785" lon="5.92784">
        <ele>583.8</ele>
        <time>2017-01-07T14:41:58Z</time>
      </trkpt>
      <trkpt lat="44.04788" lon="5.92783">
        <ele>583.9</ele>
        <time>2017-01-07T14:42:00Z</time>
      </trkpt>
      <trkpt lat="44.0479" lon="5.92781">
        <ele>584.1</ele>
        <time>2017-01-07T14:42:03Z</time>
      </trkpt>
      <trkpt lat="44.04793" lon="5.9278">
        <ele>584.2</ele>
        <time>2017-01-07T14:42:06Z</time>
      </trkpt>
      <trkpt lat="44.04797" lon="5.92781">
        <ele>584.4</ele>
        <time>2017-01-07T14:42:09Z</time>
      </trkpt>
      <trkpt lat="44.04801" lon="5.9278">
        <ele>584.6</ele>
        <time>2017-01-07T14:42:12Z</time>
      </trkpt>
      <trkpt lat="44.04805" lon="5.9278">
        <ele>584.8</ele>
        <time>2017-01-07T14:42:14Z</time>
      </trkpt>
      <trkpt lat="44.04809" lon="5.92779">
        <ele>585</ele>
        <time>2017-01-07T14:42:16Z</time>
      </trkpt>
      <trkpt lat="44.04814" lon="5.92777">
        <ele>585.3</ele>
        <time>2017-01-07T14:42:18Z</time>
      </trkpt>
      <trkpt lat="44.04818" lon="5.92774">
        <ele>585.5</ele>
        <time>2017-01-07T14:42:20Z</time>
      </trkpt>
      <trkpt lat="44.0482" lon="5.92769">
        <ele>585.8</ele>
        <time>2017-01-07T14:42:22Z</time>
      </trkpt>
      <trkpt lat="44.04823" lon="5.92765">
        <ele>586</ele>
        <time>2017-01-07T14:42:24Z</time>
      </trkpt>
      <trkpt lat="44.04826" lon="5.92761">
        <ele>586.3</ele>
        <time>2017-01-07T14:42:26Z</time>
      </trkpt>
      <trkpt lat="44.04829" lon="5.92757">
        <ele>586.6</ele>
        <time>2017-01-07T14:42:28Z</time>
      </trkpt>
      <trkpt lat="44.04832" lon="5.92753">
        <ele>586.8</ele>
        <time>2017-01-07T14:42:30Z</time>
      </trkpt>
      <trkpt lat="44.04833" lon="5.92749">
        <ele>587.1</ele>
        <time>2017-01-07T14:42:32Z</time>
      </trkpt>
      <trkpt lat="44.04834" lon="5.92745">
        <ele>587.2</ele>
        <time>2017-01-07T14:42:34Z</time>
      </trkpt>
      <trkpt lat="44.04835" lon="5.92741">
        <ele>587.4</ele>
        <time>2017-01-07T14:42:36Z</time>
      </trkpt>
      <trkpt lat="44.04834" lon="5.92736">
        <ele>587.9</ele>
        <time>2017-01-07T14:42:38Z</time>
      </trkpt>
      <trkpt lat="44.04834" lon="5.92731">
        <ele>588.2</ele>
        <time>2017-01-07T14:42:40Z</time>
      </trkpt>
      <trkpt lat="44.04836" lon="5.92727">
        <ele>588.5</ele>
        <time>2017-01-07T14:42:42Z</time>
      </trkpt>
      <trkpt lat="44.04836" lon="5.92722">
        <ele>588.8</ele>
        <time>2017-01-07T14:42:44Z</time>
      </trkpt>
      <trkpt lat="44.04836" lon="5.92716">
        <ele>589.2</ele>
        <time>2017-01-07T14:42:46Z</time>
      </trkpt>
      <trkpt lat="44.04835" lon="5.92711">
        <ele>589.5</ele>
        <time>2017-01-07T14:42:48Z</time>
      </trkpt>
      <trkpt lat="44.04835" lon="5.92706">
        <ele>589.7</ele>
        <time>2017-01-07T14:42:50Z</time>
      </trkpt>
      <trkpt lat="44.04834" lon="5.92701">
        <ele>589.9</ele>
        <time>2017-01-07T14:42:52Z</time>
      </trkpt>
      <trkpt lat="44.04832" lon="5.92697">
        <ele>590.2</ele>
        <time>2017-01-07T14:42:54Z</time>
      </trkpt>
      <trkpt lat="44.04831" lon="5.92693">
        <ele>590.6</ele>
        <time>2017-01-07T14:42:56Z</time>
      </trkpt>
      <trkpt lat="44.0483" lon="5.92689">
        <ele>590.9</ele>
        <time>2017-01-07T14:42:58Z</time>
      </trkpt>
      <trkpt lat="44.04829" lon="5.92684">
        <ele>591.3</ele>
        <time>2017-01-07T14:43:00Z</time>
      </trkpt>
      <trkpt lat="44.04826" lon="5.9268">
        <ele>591.7</ele>
        <time>2017-01-07T14:43:02Z</time>
      </trkpt>
      <trkpt lat="44.04824" lon="5.92674">
        <ele>592.1</ele>
        <time>2017-01-07T14:43:05Z</time>
      </trkpt>
      <trkpt lat="44.04823" lon="5.9267">
        <ele>592.4</ele>
        <time>2017-01-07T14:43:07Z</time>
      </trkpt>
      <trkpt lat="44.04823" lon="5.92666">
        <ele>592.8</ele>
        <time>2017-01-07T14:43:10Z</time>
      </trkpt>
      <trkpt lat="44.04823" lon="5.9266">
        <ele>593.2</ele>
        <time>2017-01-07T14:43:13Z</time>
      </trkpt>
      <trkpt lat="44.04821" lon="5.92656">
        <ele>593.6</ele>
        <time>2017-01-07T14:43:15Z</time>
      </trkpt>
      <trkpt lat="44.04819" lon="5.92651">
        <ele>594</ele>
        <time>2017-01-07T14:43:17Z</time>
      </trkpt>
      <trkpt lat="44.04818" lon="5.92647">
        <ele>594.4</ele>
        <time>2017-01-07T14:43:19Z</time>
      </trkpt>
      <trkpt lat="44.04816" lon="5.92642">
        <ele>594.9</ele>
        <time>2017-01-07T14:43:21Z</time>
      </trkpt>
      <trkpt lat="44.04814" lon="5.92638">
        <ele>595.4</ele>
        <time>2017-01-07T14:43:23Z</time>
      </trkpt>
      <trkpt lat="44.04814" lon="5.92633">
        <ele>595.9</ele>
        <time>2017-01-07T14:43:25Z</time>
      </trkpt>
      <trkpt lat="44.04812" lon="5.92629">
        <ele>596.3</ele>
        <time>2017-01-07T14:43:28Z</time>
      </trkpt>
      <trkpt lat="44.04812" lon="5.92625">
        <ele>596.6</ele>
        <time>2017-01-07T14:43:31Z</time>
      </trkpt>
      <trkpt lat="44.04812" lon="5.92621">
        <ele>597</ele>
        <time>2017-01-07T14:43:34Z</time>
      </trkpt>
      <trkpt lat="44.04811" lon="5.92615">
        <ele>597.5</ele>
        <time>2017-01-07T14:43:37Z</time>
      </trkpt>
      <trkpt lat="44.04809" lon="5.92612">
        <ele>597.8</ele>
        <time>2017-01-07T14:43:39Z</time>
      </trkpt>
      <trkpt lat="44.04807" lon="5.92607">
        <ele>598.2</ele>
        <time>2017-01-07T14:43:41Z</time>
      </trkpt>
      <trkpt lat="44.04806" lon="5.92603">
        <ele>598.7</ele>
        <time>2017-01-07T14:43:43Z</time>
      </trkpt>
      <trkpt lat="44.04806" lon="5.92598">
        <ele>599.3</ele>
        <time>2017-01-07T14:43:45Z</time>
      </trkpt>
      <trkpt lat="44.04804" lon="5.92594">
        <ele>599.6</ele>
        <time>2017-01-07T14:43:47Z</time>
      </trkpt>
      <trkpt lat="44.04801" lon="5.9259">
        <ele>600.1</ele>
        <time>2017-01-07T14:43:50Z</time>
      </trkpt>
      <trkpt lat="44.04799" lon="5.92586">
        <ele>600.5</ele>
        <time>2017-01-07T14:43:52Z</time>
      </trkpt>
      <trkpt lat="44.04796" lon="5.92584">
        <ele>600.8</ele>
        <time>2017-01-07T14:43:55Z</time>
      </trkpt>
      <trkpt lat="44.04793" lon="5.92581">
        <ele>601.1</ele>
        <time>2017-01-07T14:43:58Z</time>
      </trkpt>
      <trkpt lat="44.04791" lon="5.92577">
        <ele>601.3</ele>
        <time>2017-01-07T14:44:01Z</time>
      </trkpt>
      <trkpt lat="44.04789" lon="5.92573">
        <ele>601.5</ele>
        <time>2017-01-07T14:44:03Z</time>
      </trkpt>
      <trkpt lat="44.04787" lon="5.9257">
        <ele>601.7</ele>
        <time>2017-01-07T14:44:05Z</time>
      </trkpt>
      <trkpt lat="44.04785" lon="5.92566">
        <ele>601.9</ele>
        <time>2017-01-07T14:44:07Z</time>
      </trkpt>
      <trkpt lat="44.04784" lon="5.92563">
        <ele>602.2</ele>
        <time>2017-01-07T14:44:09Z</time>
      </trkpt>
      <trkpt lat="44.04783" lon="5.92558">
        <ele>602.6</ele>
        <time>2017-01-07T14:44:11Z</time>
      </trkpt>
      <trkpt lat="44.04782" lon="5.92552">
        <ele>602.9</ele>
        <time>2017-01-07T14:44:13Z</time>
      </trkpt>
      <trkpt lat="44.04782" lon="5.92547">
        <ele>603.1</ele>
        <time>2017-01-07T14:44:15Z</time>
      </trkpt>
      <trkpt lat="44.04784" lon="5.92543">
        <ele>603.3</ele>
        <time>2017-01-07T14:44:17Z</time>
      </trkpt>
      <trkpt lat="44.04786" lon="5.9254">
        <ele>603.5</ele>
        <time>2017-01-07T14:44:19Z</time>
      </trkpt>
      <trkpt lat="44.04789" lon="5.92537">
        <ele>604</ele>
        <time>2017-01-07T14:44:21Z</time>
      </trkpt>
      <trkpt lat="44.04792" lon="5.92536">
        <ele>604</ele>
        <time>2017-01-07T14:44:23Z</time>
      </trkpt>
      <trkpt lat="44.04796" lon="5.92535">
        <ele>603.9</ele>
        <time>2017-01-07T14:44:25Z</time>
      </trkpt>
      <trkpt lat="44.04799" lon="5.92534">
        <ele>603.9</ele>
        <time>2017-01-07T14:44:27Z</time>
      </trkpt>
      <trkpt lat="44.04802" lon="5.92534">
        <ele>603.8</ele>
        <time>2017-01-07T14:44:29Z</time>
      </trkpt>
      <trkpt lat="44.04807" lon="5.92534">
        <ele>603.8</ele>
        <time>2017-01-07T14:44:31Z</time>
      </trkpt>
      <trkpt lat="44.04811" lon="5.92534">
        <ele>603.7</ele>
        <time>2017-01-07T14:44:33Z</time>
      </trkpt>
      <trkpt lat="44.04815" lon="5.92533">
        <ele>603.7</ele>
        <time>2017-01-07T14:44:35Z</time>
      </trkpt>
      <trkpt lat="44.04819" lon="5.92533">
        <ele>603.6</ele>
        <time>2017-01-07T14:44:37Z</time>
      </trkpt>
      <trkpt lat="44.04822" lon="5.92533">
        <ele>603.5</ele>
        <time>2017-01-07T14:44:40Z</time>
      </trkpt>
      <trkpt lat="44.04825" lon="5.92533">
        <ele>603.4</ele>
        <time>2017-01-07T14:44:43Z</time>
      </trkpt>
      <trkpt lat="44.04829" lon="5.92533">
        <ele>603.3</ele>
        <time>2017-01-07T14:44:46Z</time>
      </trkpt>
      <trkpt lat="44.04832" lon="5.92533">
        <ele>603.2</ele>
        <time>2017-01-07T14:44:48Z</time>
      </trkpt>
      <trkpt lat="44.04835" lon="5.92532">
        <ele>603.2</ele>
        <time>2017-01-07T14:44:50Z</time>
      </trkpt>
      <trkpt lat="44.04838" lon="5.92531">
        <ele>603.1</ele>
        <time>2017-01-07T14:44:52Z</time>
      </trkpt>
      <trkpt lat="44.04841" lon="5.92531">
        <ele>603.1</ele>
        <time>2017-01-07T14:44:54Z</time>
      </trkpt>
      <trkpt lat="44.04844" lon="5.9253">
        <ele>603</ele>
        <time>2017-01-07T14:44:56Z</time>
      </trkpt>
      <trkpt lat="44.04847" lon="5.92529">
        <ele>603</ele>
        <time>2017-01-07T14:44:59Z</time>
      </trkpt>
      <trkpt lat="44.04848" lon="5.92525">
        <ele>603</ele>
        <time>2017-01-07T14:45:04Z</time>
      </trkpt>
      <trkpt lat="44.04848" lon="5.92521">
        <ele>603.1</ele>
        <time>2017-01-07T14:45:08Z</time>
      </trkpt>
      <trkpt lat="44.04848" lon="5.92516">
        <ele>603.6</ele>
        <time>2017-01-07T14:45:12Z</time>
      </trkpt>
      <trkpt lat="44.04847" lon="5.92513">
        <ele>604</ele>
        <time>2017-01-07T14:45:16Z</time>
      </trkpt>
      <trkpt lat="44.04847" lon="5.92509">
        <ele>604.4</ele>
        <time>2017-01-07T14:45:21Z</time>
      </trkpt>
      <trkpt lat="44.04846" lon="5.92503">
        <ele>604.9</ele>
        <time>2017-01-07T14:45:25Z</time>
      </trkpt>
      <trkpt lat="44.04844" lon="5.92499">
        <ele>605.4</ele>
        <time>2017-01-07T14:45:27Z</time>
      </trkpt>
      <trkpt lat="44.04844" lon="5.92494">
        <ele>605.7</ele>
        <time>2017-01-07T14:45:29Z</time>
      </trkpt>
      <trkpt lat="44.04843" lon="5.9249">
        <ele>606</ele>
        <time>2017-01-07T14:45:31Z</time>
      </trkpt>
      <trkpt lat="44.04842" lon="5.92485">
        <ele>606.4</ele>
        <time>2017-01-07T14:45:34Z</time>
      </trkpt>
      <trkpt lat="44.04842" lon="5.92481">
        <ele>606.7</ele>
        <time>2017-01-07T14:45:36Z</time>
      </trkpt>
      <trkpt lat="44.04842" lon="5.92477">
        <ele>606.8</ele>
        <time>2017-01-07T14:45:39Z</time>
      </trkpt>
      <trkpt lat="44.0484" lon="5.92473">
        <ele>607</ele>
        <time>2017-01-07T14:45:42Z</time>
      </trkpt>
      <trkpt lat="44.04839" lon="5.92469">
        <ele>607.2</ele>
        <time>2017-01-07T14:45:44Z</time>
      </trkpt>
      <trkpt lat="44.04838" lon="5.92465">
        <ele>607.4</ele>
        <time>2017-01-07T14:45:46Z</time>
      </trkpt>
      <trkpt lat="44.04838" lon="5.92461">
        <ele>607.6</ele>
        <time>2017-01-07T14:45:49Z</time>
      </trkpt>
      <trkpt lat="44.04836" lon="5.92456">
        <ele>607.8</ele>
        <time>2017-01-07T14:45:52Z</time>
      </trkpt>
      <trkpt lat="44.04834" lon="5.92452">
        <ele>608</ele>
        <time>2017-01-07T14:45:55Z</time>
      </trkpt>
      <trkpt lat="44.04833" lon="5.92449">
        <ele>608.2</ele>
        <time>2017-01-07T14:45:59Z</time>
      </trkpt>
      <trkpt lat="44.04832" lon="5.92444">
        <ele>608.6</ele>
        <time>2017-01-07T14:46:02Z</time>
      </trkpt>
      <trkpt lat="44.0483" lon="5.92439">
        <ele>609.1</ele>
        <time>2017-01-07T14:46:05Z</time>
      </trkpt>
      <trkpt lat="44.04828" lon="5.92435">
        <ele>609.6</ele>
        <time>2017-01-07T14:46:07Z</time>
      </trkpt>
      <trkpt lat="44.04827" lon="5.9243">
        <ele>610.3</ele>
        <time>2017-01-07T14:46:10Z</time>
      </trkpt>
      <trkpt lat="44.04826" lon="5.92425">
        <ele>611.1</ele>
        <time>2017-01-07T14:46:13Z</time>
      </trkpt>
      <trkpt lat="44.04825" lon="5.92422">
        <ele>611.7</ele>
        <time>2017-01-07T14:46:15Z</time>
      </trkpt>
      <trkpt lat="44.04823" lon="5.92417">
        <ele>612.4</ele>
        <time>2017-01-07T14:46:18Z</time>
      </trkpt>
      <trkpt lat="44.04821" lon="5.92413">
        <ele>613.1</ele>
        <time>2017-01-07T14:46:20Z</time>
      </trkpt>
      <trkpt lat="44.0482" lon="5.92409">
        <ele>613.8</ele>
        <time>2017-01-07T14:46:22Z</time>
      </trkpt>
      <trkpt lat="44.04819" lon="5.92405">
        <ele>614.2</ele>
        <time>2017-01-07T14:46:24Z</time>
      </trkpt>
      <trkpt lat="44.04818" lon="5.92401">
        <ele>614.5</ele>
        <time>2017-01-07T14:46:26Z</time>
      </trkpt>
      <trkpt lat="44.04816" lon="5.92398">
        <ele>614.8</ele>
        <time>2017-01-07T14:46:29Z</time>
      </trkpt>
      <trkpt lat="44.04813" lon="5.92397">
        <ele>615.2</ele>
        <time>2017-01-07T14:46:32Z</time>
      </trkpt>
      <trkpt lat="44.0481" lon="5.92396">
        <ele>615.6</ele>
        <time>2017-01-07T14:46:35Z</time>
      </trkpt>
      <trkpt lat="44.04806" lon="5.92395">
        <ele>616</ele>
        <time>2017-01-07T14:46:38Z</time>
      </trkpt>
      <trkpt lat="44.04803" lon="5.92391">
        <ele>616.4</ele>
        <time>2017-01-07T14:46:41Z</time>
      </trkpt>
      <trkpt lat="44.04801" lon="5.92387">
        <ele>616.8</ele>
        <time>2017-01-07T14:46:44Z</time>
      </trkpt>
      <trkpt lat="44.04799" lon="5.92384">
        <ele>617.1</ele>
        <time>2017-01-07T14:46:46Z</time>
      </trkpt>
      <trkpt lat="44.04796" lon="5.92381">
        <ele>617.6</ele>
        <time>2017-01-07T14:46:48Z</time>
      </trkpt>
      <trkpt lat="44.04792" lon="5.92379">
        <ele>618.1</ele>
        <time>2017-01-07T14:46:50Z</time>
      </trkpt>
      <trkpt lat="44.04788" lon="5.92378">
        <ele>618.6</ele>
        <time>2017-01-07T14:46:52Z</time>
      </trkpt>
      <trkpt lat="44.04784" lon="5.92376">
        <ele>619.1</ele>
        <time>2017-01-07T14:46:54Z</time>
      </trkpt>
      <trkpt lat="44.04781" lon="5.92374">
        <ele>619.5</ele>
        <time>2017-01-07T14:46:56Z</time>
      </trkpt>
      <trkpt lat="44.04778" lon="5.92374">
        <ele>620</ele>
        <time>2017-01-07T14:46:59Z</time>
      </trkpt>
      <trkpt lat="44.04774" lon="5.92375">
        <ele>620.5</ele>
        <time>2017-01-07T14:47:02Z</time>
      </trkpt>
      <trkpt lat="44.04771" lon="5.92376">
        <ele>620.8</ele>
        <time>2017-01-07T14:47:05Z</time>
      </trkpt>
      <trkpt lat="44.04768" lon="5.92374">
        <ele>621.1</ele>
        <time>2017-01-07T14:47:08Z</time>
      </trkpt>
      <trkpt lat="44.04765" lon="5.92372">
        <ele>621.4</ele>
        <time>2017-01-07T14:47:11Z</time>
      </trkpt>
      <trkpt lat="44.04761" lon="5.92371">
        <ele>621.7</ele>
        <time>2017-01-07T14:47:14Z</time>
      </trkpt>
      <trkpt lat="44.04759" lon="5.92371">
        <ele>622</ele>
        <time>2017-01-07T14:47:16Z</time>
      </trkpt>
      <trkpt lat="44.04755" lon="5.9237">
        <ele>622.5</ele>
        <time>2017-01-07T14:47:19Z</time>
      </trkpt>
      <trkpt lat="44.0475" lon="5.92371">
        <ele>623.1</ele>
        <time>2017-01-07T14:47:22Z</time>
      </trkpt>
      <trkpt lat="44.04747" lon="5.9237">
        <ele>623.7</ele>
        <time>2017-01-07T14:47:25Z</time>
      </trkpt>
      <trkpt lat="44.04743" lon="5.92372">
        <ele>624.3</ele>
        <time>2017-01-07T14:47:28Z</time>
      </trkpt>
      <trkpt lat="44.04741" lon="5.92369">
        <ele>624.7</ele>
        <time>2017-01-07T14:47:38Z</time>
      </trkpt>
      <trkpt lat="44.04746" lon="5.92383">
        <ele>625.6</ele>
        <time>2017-01-07T14:48:42Z</time>
      </trkpt>
      <trkpt lat="44.04747" lon="5.92387">
        <ele>625.8</ele>
        <time>2017-01-07T14:48:43Z</time>
      </trkpt>
      <trkpt lat="44.04748" lon="5.92391">
        <ele>625.6</ele>
        <time>2017-01-07T14:48:44Z</time>
      </trkpt>
      <trkpt lat="44.04748" lon="5.92396">
        <ele>625.3</ele>
        <time>2017-01-07T14:48:45Z</time>
      </trkpt>
      <trkpt lat="44.04748" lon="5.92402">
        <ele>624.7</ele>
        <time>2017-01-07T14:48:46Z</time>
      </trkpt>
      <trkpt lat="44.04747" lon="5.92407">
        <ele>624</ele>
        <time>2017-01-07T14:48:47Z</time>
      </trkpt>
      <trkpt lat="44.04747" lon="5.92414">
        <ele>623</ele>
        <time>2017-01-07T14:48:48Z</time>
      </trkpt>
      <trkpt lat="44.04747" lon="5.9242">
        <ele>622.5</ele>
        <time>2017-01-07T14:48:49Z</time>
      </trkpt>
      <trkpt lat="44.04748" lon="5.92426">
        <ele>621.4</ele>
        <time>2017-01-07T14:48:50Z</time>
      </trkpt>
      <trkpt lat="44.04751" lon="5.92431">
        <ele>620.5</ele>
        <time>2017-01-07T14:48:51Z</time>
      </trkpt>
      <trkpt lat="44.04756" lon="5.92435">
        <ele>619.3</ele>
        <time>2017-01-07T14:48:52Z</time>
      </trkpt>
      <trkpt lat="44.04761" lon="5.92436">
        <ele>618.4</ele>
        <time>2017-01-07T14:48:53Z</time>
      </trkpt>
      <trkpt lat="44.04768" lon="5.92439">
        <ele>616.6</ele>
        <time>2017-01-07T14:48:54Z</time>
      </trkpt>
      <trkpt lat="44.04778" lon="5.92439">
        <ele>615.5</ele>
        <time>2017-01-07T14:48:55Z</time>
      </trkpt>
      <trkpt lat="44.04783" lon="5.92439">
        <ele>615.4</ele>
        <time>2017-01-07T14:48:56Z</time>
      </trkpt>
      <trkpt lat="44.04787" lon="5.92442">
        <ele>615.4</ele>
        <time>2017-01-07T14:48:57Z</time>
      </trkpt>
      <trkpt lat="44.04789" lon="5.92445">
        <ele>614.6</ele>
        <time>2017-01-07T14:48:58Z</time>
      </trkpt>
      <trkpt lat="44.04786" lon="5.92449">
        <ele>613.7</ele>
        <time>2017-01-07T14:49:01Z</time>
      </trkpt>
      <trkpt lat="44.04783" lon="5.92447">
        <ele>613.5</ele>
        <time>2017-01-07T14:49:02Z</time>
      </trkpt>
      <trkpt lat="44.04775" lon="5.92448">
        <ele>613.4</ele>
        <time>2017-01-07T14:49:03Z</time>
      </trkpt>
      <trkpt lat="44.04769" lon="5.9245">
        <ele>613.6</ele>
        <time>2017-01-07T14:49:04Z</time>
      </trkpt>
      <trkpt lat="44.04766" lon="5.92453">
        <ele>613.1</ele>
        <time>2017-01-07T14:49:05Z</time>
      </trkpt>
      <trkpt lat="44.04762" lon="5.92455">
        <ele>613.6</ele>
        <time>2017-01-07T14:49:06Z</time>
      </trkpt>
      <trkpt lat="44.04758" lon="5.92458">
        <ele>612.8</ele>
        <time>2017-01-07T14:49:07Z</time>
      </trkpt>
      <trkpt lat="44.04754" lon="5.9246">
        <ele>612</ele>
        <time>2017-01-07T14:49:08Z</time>
      </trkpt>
      <trkpt lat="44.0475" lon="5.92462">
        <ele>612</ele>
        <time>2017-01-07T14:49:09Z</time>
      </trkpt>
      <trkpt lat="44.04748" lon="5.92466">
        <ele>611.1</ele>
        <time>2017-01-07T14:49:10Z</time>
      </trkpt>
      <trkpt lat="44.04745" lon="5.9247">
        <ele>610.4</ele>
        <time>2017-01-07T14:49:11Z</time>
      </trkpt>
      <trkpt lat="44.04743" lon="5.92473">
        <ele>610</ele>
        <time>2017-01-07T14:49:12Z</time>
      </trkpt>
      <trkpt lat="44.0474" lon="5.92477">
        <ele>610.3</ele>
        <time>2017-01-07T14:49:13Z</time>
      </trkpt>
      <trkpt lat="44.04737" lon="5.92479">
        <ele>610.5</ele>
        <time>2017-01-07T14:49:14Z</time>
      </trkpt>
      <trkpt lat="44.04734" lon="5.9248">
        <ele>610.7</ele>
        <time>2017-01-07T14:49:15Z</time>
      </trkpt>
      <trkpt lat="44.0473" lon="5.92483">
        <ele>610.9</ele>
        <time>2017-01-07T14:49:18Z</time>
      </trkpt>
      <trkpt lat="44.04729" lon="5.92487">
        <ele>610.9</ele>
        <time>2017-01-07T14:49:23Z</time>
      </trkpt>
      <trkpt lat="44.04732" lon="5.92489">
        <ele>610.5</ele>
        <time>2017-01-07T14:49:30Z</time>
      </trkpt>
      <trkpt lat="44.0473" lon="5.92493">
        <ele>610.9</ele>
        <time>2017-01-07T14:49:33Z</time>
      </trkpt>
      <trkpt lat="44.04727" lon="5.92497">
        <ele>611.3</ele>
        <time>2017-01-07T14:49:35Z</time>
      </trkpt>
      <trkpt lat="44.04722" lon="5.92503">
        <ele>611.9</ele>
        <time>2017-01-07T14:49:37Z</time>
      </trkpt>
      <trkpt lat="44.04719" lon="5.92507">
        <ele>612.1</ele>
        <time>2017-01-07T14:49:38Z</time>
      </trkpt>
      <trkpt lat="44.04716" lon="5.92511">
        <ele>612.4</ele>
        <time>2017-01-07T14:49:39Z</time>
      </trkpt>
      <trkpt lat="44.04713" lon="5.92514">
        <ele>612.5</ele>
        <time>2017-01-07T14:49:40Z</time>
      </trkpt>
      <trkpt lat="44.0471" lon="5.92518">
        <ele>612.6</ele>
        <time>2017-01-07T14:49:41Z</time>
      </trkpt>
      <trkpt lat="44.04707" lon="5.92522">
        <ele>612.4</ele>
        <time>2017-01-07T14:49:42Z</time>
      </trkpt>
      <trkpt lat="44.04705" lon="5.92527">
        <ele>612.4</ele>
        <time>2017-01-07T14:49:43Z</time>
      </trkpt>
      <trkpt lat="44.04704" lon="5.92533">
        <ele>612</ele>
        <time>2017-01-07T14:49:44Z</time>
      </trkpt>
      <trkpt lat="44.04704" lon="5.9254">
        <ele>611.7</ele>
        <time>2017-01-07T14:49:45Z</time>
      </trkpt>
      <trkpt lat="44.04705" lon="5.92548">
        <ele>610.8</ele>
        <time>2017-01-07T14:49:46Z</time>
      </trkpt>
      <trkpt lat="44.04706" lon="5.92555">
        <ele>610.3</ele>
        <time>2017-01-07T14:49:47Z</time>
      </trkpt>
      <trkpt lat="44.04709" lon="5.92561">
        <ele>610</ele>
        <time>2017-01-07T14:49:48Z</time>
      </trkpt>
      <trkpt lat="44.04711" lon="5.92566">
        <ele>609.8</ele>
        <time>2017-01-07T14:49:49Z</time>
      </trkpt>
      <trkpt lat="44.04714" lon="5.92571">
        <ele>609.7</ele>
        <time>2017-01-07T14:49:50Z</time>
      </trkpt>
      <trkpt lat="44.04718" lon="5.92574">
        <ele>609.6</ele>
        <time>2017-01-07T14:49:51Z</time>
      </trkpt>
      <trkpt lat="44.04723" lon="5.92574">
        <ele>609.3</ele>
        <time>2017-01-07T14:49:52Z</time>
      </trkpt>
      <trkpt lat="44.04728" lon="5.92574">
        <ele>609.1</ele>
        <time>2017-01-07T14:49:53Z</time>
      </trkpt>
      <trkpt lat="44.04732" lon="5.92572">
        <ele>608.4</ele>
        <time>2017-01-07T14:49:54Z</time>
      </trkpt>
      <trkpt lat="44.04736" lon="5.92572">
        <ele>608</ele>
        <time>2017-01-07T14:49:55Z</time>
      </trkpt>
      <trkpt lat="44.0474" lon="5.92573">
        <ele>607.6</ele>
        <time>2017-01-07T14:49:56Z</time>
      </trkpt>
      <trkpt lat="44.04744" lon="5.92576">
        <ele>606.4</ele>
        <time>2017-01-07T14:49:57Z</time>
      </trkpt>
      <trkpt lat="44.04748" lon="5.92578">
        <ele>606</ele>
        <time>2017-01-07T14:49:58Z</time>
      </trkpt>
      <trkpt lat="44.04751" lon="5.92582">
        <ele>605.4</ele>
        <time>2017-01-07T14:49:59Z</time>
      </trkpt>
      <trkpt lat="44.04757" lon="5.92591">
        <ele>604.7</ele>
        <time>2017-01-07T14:50:00Z</time>
      </trkpt>
      <trkpt lat="44.04761" lon="5.92601">
        <ele>604.7</ele>
        <time>2017-01-07T14:50:01Z</time>
      </trkpt>
      <trkpt lat="44.04763" lon="5.92611">
        <ele>604.3</ele>
        <time>2017-01-07T14:50:02Z</time>
      </trkpt>
      <trkpt lat="44.04763" lon="5.92621">
        <ele>604</ele>
        <time>2017-01-07T14:50:03Z</time>
      </trkpt>
      <trkpt lat="44.04763" lon="5.92629">
        <ele>603.2</ele>
        <time>2017-01-07T14:50:04Z</time>
      </trkpt>
      <trkpt lat="44.04765" lon="5.92634">
        <ele>602.9</ele>
        <time>2017-01-07T14:50:06Z</time>
      </trkpt>
      <trkpt lat="44.04768" lon="5.92633">
        <ele>602.7</ele>
        <time>2017-01-07T14:50:07Z</time>
      </trkpt>
      <trkpt lat="44.04771" lon="5.92633">
        <ele>602.6</ele>
        <time>2017-01-07T14:50:08Z</time>
      </trkpt>
      <trkpt lat="44.04775" lon="5.92636">
        <ele>602</ele>
        <time>2017-01-07T14:50:09Z</time>
      </trkpt>
      <trkpt lat="44.04778" lon="5.92642">
        <ele>601.7</ele>
        <time>2017-01-07T14:50:10Z</time>
      </trkpt>
      <trkpt lat="44.04782" lon="5.92647">
        <ele>601.3</ele>
        <time>2017-01-07T14:50:11Z</time>
      </trkpt>
      <trkpt lat="44.04785" lon="5.92653">
        <ele>600.5</ele>
        <time>2017-01-07T14:50:12Z</time>
      </trkpt>
      <trkpt lat="44.04788" lon="5.92659">
        <ele>599.9</ele>
        <time>2017-01-07T14:50:13Z</time>
      </trkpt>
      <trkpt lat="44.04791" lon="5.92664">
        <ele>599.3</ele>
        <time>2017-01-07T14:50:14Z</time>
      </trkpt>
      <trkpt lat="44.04792" lon="5.9267">
        <ele>598.8</ele>
        <time>2017-01-07T14:50:15Z</time>
      </trkpt>
      <trkpt lat="44.04793" lon="5.92677">
        <ele>598.5</ele>
        <time>2017-01-07T14:50:16Z</time>
      </trkpt>
      <trkpt lat="44.04792" lon="5.92683">
        <ele>598</ele>
        <time>2017-01-07T14:50:17Z</time>
      </trkpt>
      <trkpt lat="44.04789" lon="5.9269">
        <ele>597.9</ele>
        <time>2017-01-07T14:50:18Z</time>
      </trkpt>
      <trkpt lat="44.04786" lon="5.92696">
        <ele>597.5</ele>
        <time>2017-01-07T14:50:19Z</time>
      </trkpt>
      <trkpt lat="44.04783" lon="5.927">
        <ele>597.3</ele>
        <time>2017-01-07T14:50:20Z</time>
      </trkpt>
      <trkpt lat="44.04779" lon="5.92704">
        <ele>597.1</ele>
        <time>2017-01-07T14:50:21Z</time>
      </trkpt>
      <trkpt lat="44.04777" lon="5.92707">
        <ele>597.3</ele>
        <time>2017-01-07T14:50:22Z</time>
      </trkpt>
      <trkpt lat="44.04774" lon="5.92709">
        <ele>597</ele>
        <time>2017-01-07T14:50:23Z</time>
      </trkpt>
      <trkpt lat="44.04771" lon="5.92712">
        <ele>597.2</ele>
        <time>2017-01-07T14:50:24Z</time>
      </trkpt>
      <trkpt lat="44.04769" lon="5.92716">
        <ele>596.7</ele>
        <time>2017-01-07T14:50:25Z</time>
      </trkpt>
      <trkpt lat="44.04766" lon="5.92718">
        <ele>596.4</ele>
        <time>2017-01-07T14:50:26Z</time>
      </trkpt>
      <trkpt lat="44.04763" lon="5.92718">
        <ele>596.6</ele>
        <time>2017-01-07T14:50:27Z</time>
      </trkpt>
      <trkpt lat="44.0476" lon="5.92718">
        <ele>596.8</ele>
        <time>2017-01-07T14:50:28Z</time>
      </trkpt>
      <trkpt lat="44.04757" lon="5.92716">
        <ele>597.5</ele>
        <time>2017-01-07T14:50:29Z</time>
      </trkpt>
      <trkpt lat="44.04754" lon="5.92715">
        <ele>597.5</ele>
        <time>2017-01-07T14:50:30Z</time>
      </trkpt>
      <trkpt lat="44.04751" lon="5.92715">
        <ele>597.6</ele>
        <time>2017-01-07T14:50:31Z</time>
      </trkpt>
      <trkpt lat="44.04747" lon="5.92717">
        <ele>597</ele>
        <time>2017-01-07T14:50:32Z</time>
      </trkpt>
      <trkpt lat="44.04744" lon="5.92722">
        <ele>596.3</ele>
        <time>2017-01-07T14:50:33Z</time>
      </trkpt>
      <trkpt lat="44.04741" lon="5.92725">
        <ele>595.7</ele>
        <time>2017-01-07T14:50:34Z</time>
      </trkpt>
      <trkpt lat="44.04738" lon="5.92729">
        <ele>595.6</ele>
        <time>2017-01-07T14:50:35Z</time>
      </trkpt>
      <trkpt lat="44.04737" lon="5.92733">
        <ele>594.9</ele>
        <time>2017-01-07T14:50:37Z</time>
      </trkpt>
      <trkpt lat="44.04735" lon="5.92737">
        <ele>594.3</ele>
        <time>2017-01-07T14:50:39Z</time>
      </trkpt>
      <trkpt lat="44.04733" lon="5.92741">
        <ele>593.7</ele>
        <time>2017-01-07T14:50:41Z</time>
      </trkpt>
      <trkpt lat="44.04731" lon="5.92744">
        <ele>593.2</ele>
        <time>2017-01-07T14:50:43Z</time>
      </trkpt>
      <trkpt lat="44.0473" lon="5.92752">
        <ele>592.6</ele>
        <time>2017-01-07T14:50:45Z</time>
      </trkpt>
      <trkpt lat="44.0473" lon="5.92759">
        <ele>592.3</ele>
        <time>2017-01-07T14:50:46Z</time>
      </trkpt>
      <trkpt lat="44.04731" lon="5.92768">
        <ele>591.6</ele>
        <time>2017-01-07T14:50:47Z</time>
      </trkpt>
      <trkpt lat="44.04731" lon="5.92776">
        <ele>590.9</ele>
        <time>2017-01-07T14:50:48Z</time>
      </trkpt>
      <trkpt lat="44.04732" lon="5.92783">
        <ele>590.1</ele>
        <time>2017-01-07T14:50:49Z</time>
      </trkpt>
      <trkpt lat="44.04734" lon="5.92787">
        <ele>589.7</ele>
        <time>2017-01-07T14:50:50Z</time>
      </trkpt>
      <trkpt lat="44.04737" lon="5.92792">
        <ele>589.1</ele>
        <time>2017-01-07T14:50:52Z</time>
      </trkpt>
      <trkpt lat="44.0474" lon="5.92797">
        <ele>588.5</ele>
        <time>2017-01-07T14:50:54Z</time>
      </trkpt>
      <trkpt lat="44.04739" lon="5.92802">
        <ele>588.1</ele>
        <time>2017-01-07T14:50:56Z</time>
      </trkpt>
      <trkpt lat="44.04738" lon="5.9281">
        <ele>587.4</ele>
        <time>2017-01-07T14:50:58Z</time>
      </trkpt>
      <trkpt lat="44.04737" lon="5.92818">
        <ele>586.8</ele>
        <time>2017-01-07T14:50:59Z</time>
      </trkpt>
      <trkpt lat="44.04736" lon="5.92828">
        <ele>586</ele>
        <time>2017-01-07T14:51:00Z</time>
      </trkpt>
      <trkpt lat="44.04735" lon="5.92837">
        <ele>584.8</ele>
        <time>2017-01-07T14:51:01Z</time>
      </trkpt>
      <trkpt lat="44.04733" lon="5.92845">
        <ele>584.4</ele>
        <time>2017-01-07T14:51:02Z</time>
      </trkpt>
      <trkpt lat="44.04731" lon="5.92851">
        <ele>583.4</ele>
        <time>2017-01-07T14:51:03Z</time>
      </trkpt>
      <trkpt lat="44.04729" lon="5.92856">
        <ele>582.9</ele>
        <time>2017-01-07T14:51:04Z</time>
      </trkpt>
      <trkpt lat="44.04728" lon="5.92862">
        <ele>582.5</ele>
        <time>2017-01-07T14:51:05Z</time>
      </trkpt>
      <trkpt lat="44.04728" lon="5.92869">
        <ele>581.4</ele>
        <time>2017-01-07T14:51:06Z</time>
      </trkpt>
      <trkpt lat="44.04727" lon="5.92874">
        <ele>580.7</ele>
        <time>2017-01-07T14:51:07Z</time>
      </trkpt>
      <trkpt lat="44.04727" lon="5.92879">
        <ele>580.1</ele>
        <time>2017-01-07T14:51:08Z</time>
      </trkpt>
      <trkpt lat="44.04727" lon="5.92884">
        <ele>578.8</ele>
        <time>2017-01-07T14:51:09Z</time>
      </trkpt>
      <trkpt lat="44.04726" lon="5.92889">
        <ele>578.3</ele>
        <time>2017-01-07T14:51:10Z</time>
      </trkpt>
      <trkpt lat="44.04725" lon="5.92895">
        <ele>577.9</ele>
        <time>2017-01-07T14:51:11Z</time>
      </trkpt>
      <trkpt lat="44.04724" lon="5.92902">
        <ele>576.9</ele>
        <time>2017-01-07T14:51:12Z</time>
      </trkpt>
      <trkpt lat="44.04723" lon="5.92907">
        <ele>576.5</ele>
        <time>2017-01-07T14:51:13Z</time>
      </trkpt>
      <trkpt lat="44.04719" lon="5.92911">
        <ele>576.1</ele>
        <time>2017-01-07T14:51:14Z</time>
      </trkpt>
      <trkpt lat="44.04715" lon="5.92914">
        <ele>576.2</ele>
        <time>2017-01-07T14:51:15Z</time>
      </trkpt>
      <trkpt lat="44.04709" lon="5.92916">
        <ele>575.9</ele>
        <time>2017-01-07T14:51:16Z</time>
      </trkpt>
      <trkpt lat="44.04703" lon="5.92916">
        <ele>575.9</ele>
        <time>2017-01-07T14:51:17Z</time>
      </trkpt>
      <trkpt lat="44.04696" lon="5.92916">
        <ele>575.9</ele>
        <time>2017-01-07T14:51:18Z</time>
      </trkpt>
      <trkpt lat="44.04689" lon="5.92917">
        <ele>576.1</ele>
        <time>2017-01-07T14:51:19Z</time>
      </trkpt>
      <trkpt lat="44.04682" lon="5.92917">
        <ele>576.4</ele>
        <time>2017-01-07T14:51:20Z</time>
      </trkpt>
      <trkpt lat="44.04676" lon="5.92917">
        <ele>576.7</ele>
        <time>2017-01-07T14:51:21Z</time>
      </trkpt>
      <trkpt lat="44.0467" lon="5.92917">
        <ele>577</ele>
        <time>2017-01-07T14:51:22Z</time>
      </trkpt>
      <trkpt lat="44.04666" lon="5.92917">
        <ele>577.2</ele>
        <time>2017-01-07T14:51:23Z</time>
      </trkpt>
      <trkpt lat="44.04664" lon="5.92921">
        <ele>577.4</ele>
        <time>2017-01-07T14:51:26Z</time>
      </trkpt>
      <trkpt lat="44.04661" lon="5.92923">
        <ele>577.5</ele>
        <time>2017-01-07T14:51:28Z</time>
      </trkpt>
      <trkpt lat="44.04658" lon="5.92923">
        <ele>577.7</ele>
        <time>2017-01-07T14:51:30Z</time>
      </trkpt>
      <trkpt lat="44.04655" lon="5.92923">
        <ele>577.8</ele>
        <time>2017-01-07T14:51:32Z</time>
      </trkpt>
      <trkpt lat="44.04653" lon="5.92925">
        <ele>577.9</ele>
        <time>2017-01-07T14:51:36Z</time>
      </trkpt>
      <trkpt lat="44.0465" lon="5.92927">
        <ele>577.4</ele>
        <time>2017-01-07T14:51:40Z</time>
      </trkpt>
      <trkpt lat="44.04647" lon="5.92927">
        <ele>577.5</ele>
        <time>2017-01-07T14:51:44Z</time>
      </trkpt>
      <trkpt lat="44.04644" lon="5.92924">
        <ele>578</ele>
        <time>2017-01-07T14:51:54Z</time>
      </trkpt>
      <trkpt lat="44.04643" lon="5.92928">
        <ele>577.4</ele>
        <time>2017-01-07T14:52:10Z</time>
      </trkpt>
      <trkpt lat="44.04644" lon="5.92931">
        <ele>576.8</ele>
        <time>2017-01-07T14:52:12Z</time>
      </trkpt>
      <trkpt lat="44.04642" lon="5.92935">
        <ele>576.8</ele>
        <time>2017-01-07T14:52:16Z</time>
      </trkpt>
      <trkpt lat="44.04642" lon="5.92938">
        <ele>576.3</ele>
        <time>2017-01-07T14:52:19Z</time>
      </trkpt>
      <trkpt lat="44.04643" lon="5.92945">
        <ele>575.5</ele>
        <time>2017-01-07T14:52:21Z</time>
      </trkpt>
      <trkpt lat="44.04645" lon="5.92949">
        <ele>575.2</ele>
        <time>2017-01-07T14:52:22Z</time>
      </trkpt>
      <trkpt lat="44.04647" lon="5.92954">
        <ele>574.8</ele>
        <time>2017-01-07T14:52:23Z</time>
      </trkpt>
      <trkpt lat="44.04647" lon="5.92958">
        <ele>574.4</ele>
        <time>2017-01-07T14:52:24Z</time>
      </trkpt>
      <trkpt lat="44.04646" lon="5.92962">
        <ele>574.1</ele>
        <time>2017-01-07T14:52:25Z</time>
      </trkpt>
      <trkpt lat="44.04644" lon="5.92966">
        <ele>573.7</ele>
        <time>2017-01-07T14:52:26Z</time>
      </trkpt>
      <trkpt lat="44.04642" lon="5.9297">
        <ele>573.5</ele>
        <time>2017-01-07T14:52:27Z</time>
      </trkpt>
      <trkpt lat="44.04641" lon="5.92973">
        <ele>573.2</ele>
        <time>2017-01-07T14:52:28Z</time>
      </trkpt>
      <trkpt lat="44.04642" lon="5.92982">
        <ele>572.7</ele>
        <time>2017-01-07T14:52:30Z</time>
      </trkpt>
      <trkpt lat="44.04644" lon="5.92988">
        <ele>572</ele>
        <time>2017-01-07T14:52:31Z</time>
      </trkpt>
      <trkpt lat="44.04646" lon="5.92993">
        <ele>571.4</ele>
        <time>2017-01-07T14:52:32Z</time>
      </trkpt>
      <trkpt lat="44.04647" lon="5.92998">
        <ele>570.9</ele>
        <time>2017-01-07T14:52:33Z</time>
      </trkpt>
      <trkpt lat="44.04646" lon="5.93001">
        <ele>570.4</ele>
        <time>2017-01-07T14:52:34Z</time>
      </trkpt>
      <trkpt lat="44.04643" lon="5.93002">
        <ele>570.3</ele>
        <time>2017-01-07T14:52:36Z</time>
      </trkpt>
      <trkpt lat="44.04639" lon="5.93005">
        <ele>569.7</ele>
        <time>2017-01-07T14:52:38Z</time>
      </trkpt>
      <trkpt lat="44.0464" lon="5.93013">
        <ele>569</ele>
        <time>2017-01-07T14:52:40Z</time>
      </trkpt>
      <trkpt lat="44.04641" lon="5.93016">
        <ele>568.2</ele>
        <time>2017-01-07T14:52:41Z</time>
      </trkpt>
      <trkpt lat="44.04643" lon="5.93018">
        <ele>567.5</ele>
        <time>2017-01-07T14:52:42Z</time>
      </trkpt>
      <trkpt lat="44.04646" lon="5.93018">
        <ele>567.4</ele>
        <time>2017-01-07T14:52:43Z</time>
      </trkpt>
      <trkpt lat="44.04649" lon="5.93019">
        <ele>567.4</ele>
        <time>2017-01-07T14:52:44Z</time>
      </trkpt>
      <trkpt lat="44.04653" lon="5.9302">
        <ele>567.3</ele>
        <time>2017-01-07T14:52:45Z</time>
      </trkpt>
      <trkpt lat="44.04655" lon="5.93024">
        <ele>566.9</ele>
        <time>2017-01-07T14:52:46Z</time>
      </trkpt>
      <trkpt lat="44.04657" lon="5.93032">
        <ele>566.2</ele>
        <time>2017-01-07T14:52:47Z</time>
      </trkpt>
      <trkpt lat="44.04656" lon="5.93042">
        <ele>565.6</ele>
        <time>2017-01-07T14:52:48Z</time>
      </trkpt>
      <trkpt lat="44.04654" lon="5.93055">
        <ele>564.8</ele>
        <time>2017-01-07T14:52:49Z</time>
      </trkpt>
      <trkpt lat="44.04651" lon="5.93056">
        <ele>564.6</ele>
        <time>2017-01-07T14:52:53Z</time>
      </trkpt>
      <trkpt lat="44.04647" lon="5.93058">
        <ele>564.3</ele>
        <time>2017-01-07T14:52:55Z</time>
      </trkpt>
      <trkpt lat="44.04646" lon="5.93063">
        <ele>563.9</ele>
        <time>2017-01-07T14:52:57Z</time>
      </trkpt>
      <trkpt lat="44.04647" lon="5.93069">
        <ele>563.2</ele>
        <time>2017-01-07T14:52:59Z</time>
      </trkpt>
      <trkpt lat="44.0465" lon="5.93076">
        <ele>562.3</ele>
        <time>2017-01-07T14:53:01Z</time>
      </trkpt>
      <trkpt lat="44.04651" lon="5.9308">
        <ele>559.9</ele>
        <time>2017-01-07T14:53:02Z</time>
      </trkpt>
      <trkpt lat="44.04652" lon="5.93084">
        <ele>559.9</ele>
        <time>2017-01-07T14:53:03Z</time>
      </trkpt>
      <trkpt lat="44.04654" lon="5.93088">
        <ele>559.9</ele>
        <time>2017-01-07T14:53:04Z</time>
      </trkpt>
      <trkpt lat="44.04654" lon="5.93092">
        <ele>559.9</ele>
        <time>2017-01-07T14:53:05Z</time>
      </trkpt>
      <trkpt lat="44.04655" lon="5.93099">
        <ele>559.9</ele>
        <time>2017-01-07T14:53:07Z</time>
      </trkpt>
      <trkpt lat="44.04654" lon="5.93104">
        <ele>559.9</ele>
        <time>2017-01-07T14:53:09Z</time>
      </trkpt>
      <trkpt lat="44.04649" lon="5.93105">
        <ele>559.4</ele>
        <time>2017-01-07T14:53:11Z</time>
      </trkpt>
      <trkpt lat="44.04647" lon="5.93107">
        <ele>558.8</ele>
        <time>2017-01-07T14:53:12Z</time>
      </trkpt>
      <trkpt lat="44.04644" lon="5.93113">
        <ele>558.1</ele>
        <time>2017-01-07T14:53:14Z</time>
      </trkpt>
      <trkpt lat="44.04643" lon="5.93122">
        <ele>558.1</ele>
        <time>2017-01-07T14:53:16Z</time>
      </trkpt>
      <trkpt lat="44.04643" lon="5.93127">
        <ele>558</ele>
        <time>2017-01-07T14:53:21Z</time>
      </trkpt>
      <trkpt lat="44.04643" lon="5.93132">
        <ele>558</ele>
        <time>2017-01-07T14:53:36Z</time>
      </trkpt>
      <trkpt lat="44.04643" lon="5.93137">
        <ele>558</ele>
        <time>2017-01-07T14:53:37Z</time>
      </trkpt>
      <trkpt lat="44.04644" lon="5.93144">
        <ele>557.9</ele>
        <time>2017-01-07T14:53:38Z</time>
      </trkpt>
      <trkpt lat="44.04645" lon="5.93151">
        <ele>557.5</ele>
        <time>2017-01-07T14:53:39Z</time>
      </trkpt>
      <trkpt lat="44.04645" lon="5.93157">
        <ele>557.2</ele>
        <time>2017-01-07T14:53:40Z</time>
      </trkpt>
      <trkpt lat="44.04646" lon="5.93162">
        <ele>557.5</ele>
        <time>2017-01-07T14:53:41Z</time>
      </trkpt>
      <trkpt lat="44.04647" lon="5.93166">
        <ele>557.4</ele>
        <time>2017-01-07T14:53:42Z</time>
      </trkpt>
      <trkpt lat="44.04646" lon="5.93173">
        <ele>557.3</ele>
        <time>2017-01-07T14:53:44Z</time>
      </trkpt>
      <trkpt lat="44.04646" lon="5.93178">
        <ele>557.2</ele>
        <time>2017-01-07T14:53:45Z</time>
      </trkpt>
      <trkpt lat="44.04646" lon="5.93184">
        <ele>557.2</ele>
        <time>2017-01-07T14:53:46Z</time>
      </trkpt>
      <trkpt lat="44.04647" lon="5.9319">
        <ele>557.2</ele>
        <time>2017-01-07T14:53:47Z</time>
      </trkpt>
      <trkpt lat="44.04646" lon="5.93196">
        <ele>557.2</ele>
        <time>2017-01-07T14:53:48Z</time>
      </trkpt>
      <trkpt lat="44.04646" lon="5.93201">
        <ele>557.1</ele>
        <time>2017-01-07T14:53:49Z</time>
      </trkpt>
      <trkpt lat="44.04645" lon="5.93207">
        <ele>556.7</ele>
        <time>2017-01-07T14:53:50Z</time>
      </trkpt>
      <trkpt lat="44.04645" lon="5.93212">
        <ele>556.5</ele>
        <time>2017-01-07T14:53:51Z</time>
      </trkpt>
      <trkpt lat="44.04646" lon="5.93218">
        <ele>556.2</ele>
        <time>2017-01-07T14:53:52Z</time>
      </trkpt>
      <trkpt lat="44.04648" lon="5.93225">
        <ele>555.8</ele>
        <time>2017-01-07T14:53:53Z</time>
      </trkpt>
      <trkpt lat="44.04651" lon="5.93234">
        <ele>555.8</ele>
        <time>2017-01-07T14:53:54Z</time>
      </trkpt>
      <trkpt lat="44.04655" lon="5.93242">
        <ele>555.7</ele>
        <time>2017-01-07T14:53:55Z</time>
      </trkpt>
      <trkpt lat="44.04659" lon="5.93251">
        <ele>555.1</ele>
        <time>2017-01-07T14:53:56Z</time>
      </trkpt>
      <trkpt lat="44.04663" lon="5.9326">
        <ele>554.4</ele>
        <time>2017-01-07T14:53:57Z</time>
      </trkpt>
      <trkpt lat="44.04668" lon="5.9327">
        <ele>553.5</ele>
        <time>2017-01-07T14:53:58Z</time>
      </trkpt>
      <trkpt lat="44.04669" lon="5.93279">
        <ele>552.1</ele>
        <time>2017-01-07T14:53:59Z</time>
      </trkpt>
      <trkpt lat="44.04669" lon="5.93288">
        <ele>550.8</ele>
        <time>2017-01-07T14:54:00Z</time>
      </trkpt>
      <trkpt lat="44.04666" lon="5.93294">
        <ele>549.9</ele>
        <time>2017-01-07T14:54:01Z</time>
      </trkpt>
      <trkpt lat="44.04662" lon="5.93299">
        <ele>549</ele>
        <time>2017-01-07T14:54:03Z</time>
      </trkpt>
      <trkpt lat="44.04664" lon="5.93305">
        <ele>548</ele>
        <time>2017-01-07T14:54:05Z</time>
      </trkpt>
      <trkpt lat="44.04666" lon="5.93308">
        <ele>547.9</ele>
        <time>2017-01-07T14:54:06Z</time>
      </trkpt>
      <trkpt lat="44.04669" lon="5.93313">
        <ele>547.6</ele>
        <time>2017-01-07T14:54:07Z</time>
      </trkpt>
      <trkpt lat="44.04671" lon="5.93319">
        <ele>546.5</ele>
        <time>2017-01-07T14:54:08Z</time>
      </trkpt>
      <trkpt lat="44.04673" lon="5.93325">
        <ele>545.8</ele>
        <time>2017-01-07T14:54:09Z</time>
      </trkpt>
      <trkpt lat="44.04674" lon="5.93331">
        <ele>544.9</ele>
        <time>2017-01-07T14:54:10Z</time>
      </trkpt>
      <trkpt lat="44.04677" lon="5.93336">
        <ele>544.5</ele>
        <time>2017-01-07T14:54:11Z</time>
      </trkpt>
      <trkpt lat="44.04679" lon="5.93341">
        <ele>544</ele>
        <time>2017-01-07T14:54:12Z</time>
      </trkpt>
      <trkpt lat="44.04683" lon="5.93344">
        <ele>543.3</ele>
        <time>2017-01-07T14:54:13Z</time>
      </trkpt>
      <trkpt lat="44.04686" lon="5.93347">
        <ele>543.5</ele>
        <time>2017-01-07T14:54:14Z</time>
      </trkpt>
      <trkpt lat="44.0469" lon="5.93349">
        <ele>542.9</ele>
        <time>2017-01-07T14:54:15Z</time>
      </trkpt>
      <trkpt lat="44.04694" lon="5.93352">
        <ele>542.2</ele>
        <time>2017-01-07T14:54:16Z</time>
      </trkpt>
      <trkpt lat="44.04697" lon="5.93354">
        <ele>542.4</ele>
        <time>2017-01-07T14:54:17Z</time>
      </trkpt>
      <trkpt lat="44.04701" lon="5.93357">
        <ele>542.1</ele>
        <time>2017-01-07T14:54:18Z</time>
      </trkpt>
      <trkpt lat="44.04705" lon="5.9336">
        <ele>542.3</ele>
        <time>2017-01-07T14:54:19Z</time>
      </trkpt>
      <trkpt lat="44.04709" lon="5.93363">
        <ele>541.6</ele>
        <time>2017-01-07T14:54:20Z</time>
      </trkpt>
      <trkpt lat="44.04713" lon="5.93367">
        <ele>540.9</ele>
        <time>2017-01-07T14:54:21Z</time>
      </trkpt>
      <trkpt lat="44.04716" lon="5.93372">
        <ele>540.3</ele>
        <time>2017-01-07T14:54:22Z</time>
      </trkpt>
      <trkpt lat="44.0472" lon="5.93377">
        <ele>539.4</ele>
        <time>2017-01-07T14:54:23Z</time>
      </trkpt>
      <trkpt lat="44.04722" lon="5.93384">
        <ele>537.6</ele>
        <time>2017-01-07T14:54:24Z</time>
      </trkpt>
      <trkpt lat="44.04724" lon="5.93391">
        <ele>536</ele>
        <time>2017-01-07T14:54:25Z</time>
      </trkpt>
      <trkpt lat="44.04725" lon="5.93397">
        <ele>535.2</ele>
        <time>2017-01-07T14:54:26Z</time>
      </trkpt>
      <trkpt lat="44.04726" lon="5.93403">
        <ele>534.8</ele>
        <time>2017-01-07T14:54:27Z</time>
      </trkpt>
      <trkpt lat="44.04728" lon="5.93408">
        <ele>533.7</ele>
        <time>2017-01-07T14:54:28Z</time>
      </trkpt>
      <trkpt lat="44.04731" lon="5.93411">
        <ele>533.7</ele>
        <time>2017-01-07T14:54:29Z</time>
      </trkpt>
      <trkpt lat="44.04734" lon="5.93413">
        <ele>533.2</ele>
        <time>2017-01-07T14:54:30Z</time>
      </trkpt>
      <trkpt lat="44.04737" lon="5.93414">
        <ele>533.3</ele>
        <time>2017-01-07T14:54:31Z</time>
      </trkpt>
      <trkpt lat="44.0474" lon="5.93416">
        <ele>533.4</ele>
        <time>2017-01-07T14:54:32Z</time>
      </trkpt>
      <trkpt lat="44.04743" lon="5.93415">
        <ele>533.4</ele>
        <time>2017-01-07T14:54:33Z</time>
      </trkpt>
      <trkpt lat="44.04747" lon="5.93413">
        <ele>533.4</ele>
        <time>2017-01-07T14:54:35Z</time>
      </trkpt>
      <trkpt lat="44.0475" lon="5.93411">
        <ele>533.9</ele>
        <time>2017-01-07T14:54:38Z</time>
      </trkpt>
      <trkpt lat="44.04753" lon="5.93409">
        <ele>533.9</ele>
        <time>2017-01-07T14:55:01Z</time>
      </trkpt>
      <trkpt lat="44.04755" lon="5.93406">
        <ele>534.4</ele>
        <time>2017-01-07T14:55:04Z</time>
      </trkpt>
      <trkpt lat="44.04758" lon="5.93403">
        <ele>534.9</ele>
        <time>2017-01-07T14:55:07Z</time>
      </trkpt>
      <trkpt lat="44.04759" lon="5.934">
        <ele>534.7</ele>
        <time>2017-01-07T14:55:09Z</time>
      </trkpt>
      <trkpt lat="44.04761" lon="5.93396">
        <ele>535.2</ele>
        <time>2017-01-07T14:55:11Z</time>
      </trkpt>
      <trkpt lat="44.04761" lon="5.9339">
        <ele>536.1</ele>
        <time>2017-01-07T14:55:13Z</time>
      </trkpt>
      <trkpt lat="44.04762" lon="5.93384">
        <ele>536.4</ele>
        <time>2017-01-07T14:55:15Z</time>
      </trkpt>
      <trkpt lat="44.04764" lon="5.93377">
        <ele>537.6</ele>
        <time>2017-01-07T14:55:17Z</time>
      </trkpt>
      <trkpt lat="44.04765" lon="5.93371">
        <ele>538.3</ele>
        <time>2017-01-07T14:55:19Z</time>
      </trkpt>
      <trkpt lat="44.04765" lon="5.93364">
        <ele>539.5</ele>
        <time>2017-01-07T14:55:21Z</time>
      </trkpt>
      <trkpt lat="44.04764" lon="5.93358">
        <ele>540</ele>
        <time>2017-01-07T14:55:23Z</time>
      </trkpt>
      <trkpt lat="44.04764" lon="5.93351">
        <ele>541</ele>
        <time>2017-01-07T14:55:25Z</time>
      </trkpt>
      <trkpt lat="44.04764" lon="5.93346">
        <ele>541.5</ele>
        <time>2017-01-07T14:55:27Z</time>
      </trkpt>
      <trkpt lat="44.04765" lon="5.9334">
        <ele>541.9</ele>
        <time>2017-01-07T14:55:29Z</time>
      </trkpt>
      <trkpt lat="44.04768" lon="5.93336">
        <ele>542.1</ele>
        <time>2017-01-07T14:55:31Z</time>
      </trkpt>
      <trkpt lat="44.0477" lon="5.93332">
        <ele>542.1</ele>
        <time>2017-01-07T14:55:33Z</time>
      </trkpt>
      <trkpt lat="44.04772" lon="5.93328">
        <ele>542.1</ele>
        <time>2017-01-07T14:55:35Z</time>
      </trkpt>
      <trkpt lat="44.04775" lon="5.93324">
        <ele>542.1</ele>
        <time>2017-01-07T14:55:37Z</time>
      </trkpt>
      <trkpt lat="44.04778" lon="5.93321">
        <ele>542.1</ele>
        <time>2017-01-07T14:55:39Z</time>
      </trkpt>
      <trkpt lat="44.04781" lon="5.93318">
        <ele>541.7</ele>
        <time>2017-01-07T14:55:41Z</time>
      </trkpt>
      <trkpt lat="44.04786" lon="5.93314">
        <ele>541.6</ele>
        <time>2017-01-07T14:55:43Z</time>
      </trkpt>
      <trkpt lat="44.04788" lon="5.93312">
        <ele>541.4</ele>
        <time>2017-01-07T14:55:44Z</time>
      </trkpt>
      <trkpt lat="44.0479" lon="5.9331">
        <ele>541</ele>
        <time>2017-01-07T14:55:45Z</time>
      </trkpt>
      <trkpt lat="44.04794" lon="5.93309">
        <ele>540.9</ele>
        <time>2017-01-07T14:55:46Z</time>
      </trkpt>
      <trkpt lat="44.04798" lon="5.9331">
        <ele>540.3</ele>
        <time>2017-01-07T14:55:48Z</time>
      </trkpt>
      <trkpt lat="44.04799" lon="5.93317">
        <ele>539.8</ele>
        <time>2017-01-07T14:55:50Z</time>
      </trkpt>
      <trkpt lat="44.04801" lon="5.93324">
        <ele>539.5</ele>
        <time>2017-01-07T14:55:52Z</time>
      </trkpt>
      <trkpt lat="44.04801" lon="5.93329">
        <ele>539.3</ele>
        <time>2017-01-07T14:55:54Z</time>
      </trkpt>
      <trkpt lat="44.04802" lon="5.93336">
        <ele>538.9</ele>
        <time>2017-01-07T14:55:56Z</time>
      </trkpt>
      <trkpt lat="44.04802" lon="5.93341">
        <ele>538.6</ele>
        <time>2017-01-07T14:55:58Z</time>
      </trkpt>
      <trkpt lat="44.04802" lon="5.93346">
        <ele>538.2</ele>
        <time>2017-01-07T14:56:00Z</time>
      </trkpt>
      <trkpt lat="44.04803" lon="5.93353">
        <ele>537.3</ele>
        <time>2017-01-07T14:56:02Z</time>
      </trkpt>
      <trkpt lat="44.04804" lon="5.93358">
        <ele>536.9</ele>
        <time>2017-01-07T14:56:03Z</time>
      </trkpt>
      <trkpt lat="44.04804" lon="5.93364">
        <ele>536.5</ele>
        <time>2017-01-07T14:56:04Z</time>
      </trkpt>
      <trkpt lat="44.04804" lon="5.9337">
        <ele>535.9</ele>
        <time>2017-01-07T14:56:05Z</time>
      </trkpt>
      <trkpt lat="44.04805" lon="5.93375">
        <ele>535.6</ele>
        <time>2017-01-07T14:56:06Z</time>
      </trkpt>
      <trkpt lat="44.04806" lon="5.93381">
        <ele>535.4</ele>
        <time>2017-01-07T14:56:07Z</time>
      </trkpt>
      <trkpt lat="44.04807" lon="5.93387">
        <ele>534.7</ele>
        <time>2017-01-07T14:56:08Z</time>
      </trkpt>
      <trkpt lat="44.04808" lon="5.93391">
        <ele>534.3</ele>
        <time>2017-01-07T14:56:09Z</time>
      </trkpt>
      <trkpt lat="44.04809" lon="5.93396">
        <ele>534.1</ele>
        <time>2017-01-07T14:56:10Z</time>
      </trkpt>
      <trkpt lat="44.0481" lon="5.93402">
        <ele>533.6</ele>
        <time>2017-01-07T14:56:12Z</time>
      </trkpt>
      <trkpt lat="44.04812" lon="5.93409">
        <ele>532.9</ele>
        <time>2017-01-07T14:56:14Z</time>
      </trkpt>
      <trkpt lat="44.04814" lon="5.93415">
        <ele>532.4</ele>
        <time>2017-01-07T14:56:16Z</time>
      </trkpt>
      <trkpt lat="44.04815" lon="5.93419">
        <ele>532.4</ele>
        <time>2017-01-07T14:56:18Z</time>
      </trkpt>
      <trkpt lat="44.04817" lon="5.93423">
        <ele>531.9</ele>
        <time>2017-01-07T14:56:20Z</time>
      </trkpt>
      <trkpt lat="44.04819" lon="5.93427">
        <ele>532</ele>
        <time>2017-01-07T14:56:22Z</time>
      </trkpt>
      <trkpt lat="44.04821" lon="5.93429">
        <ele>532.1</ele>
        <time>2017-01-07T14:56:24Z</time>
      </trkpt>
      <trkpt lat="44.04824" lon="5.93431">
        <ele>532</ele>
        <time>2017-01-07T14:56:26Z</time>
      </trkpt>
      <trkpt lat="44.04826" lon="5.93434">
        <ele>532.2</ele>
        <time>2017-01-07T14:56:28Z</time>
      </trkpt>
      <trkpt lat="44.04827" lon="5.93437">
        <ele>532.7</ele>
        <time>2017-01-07T14:56:31Z</time>
      </trkpt>
      <trkpt lat="44.04827" lon="5.93441">
        <ele>532.4</ele>
        <time>2017-01-07T14:56:34Z</time>
      </trkpt>
      <trkpt lat="44.04827" lon="5.93445">
        <ele>532.2</ele>
        <time>2017-01-07T14:56:37Z</time>
      </trkpt>
      <trkpt lat="44.04828" lon="5.93449">
        <ele>532</ele>
        <time>2017-01-07T14:56:42Z</time>
      </trkpt>
      <trkpt lat="44.04829" lon="5.93453">
        <ele>531.9</ele>
        <time>2017-01-07T14:56:51Z</time>
      </trkpt>
      <trkpt lat="44.04829" lon="5.93458">
        <ele>531.9</ele>
        <time>2017-01-07T14:56:53Z</time>
      </trkpt>
      <trkpt lat="44.0483" lon="5.93463">
        <ele>531.8</ele>
        <time>2017-01-07T14:56:55Z</time>
      </trkpt>
      <trkpt lat="44.0483" lon="5.93469">
        <ele>532.4</ele>
        <time>2017-01-07T14:56:57Z</time>
      </trkpt>
      <trkpt lat="44.04831" lon="5.93473">
        <ele>532.5</ele>
        <time>2017-01-07T14:56:59Z</time>
      </trkpt>
      <trkpt lat="44.04833" lon="5.93476">
        <ele>532.4</ele>
        <time>2017-01-07T14:57:01Z</time>
      </trkpt>
      <trkpt lat="44.04835" lon="5.9348">
        <ele>533.1</ele>
        <time>2017-01-07T14:57:03Z</time>
      </trkpt>
      <trkpt lat="44.04837" lon="5.93486">
        <ele>533.9</ele>
        <time>2017-01-07T14:57:05Z</time>
      </trkpt>
      <trkpt lat="44.04839" lon="5.9349">
        <ele>533.9</ele>
        <time>2017-01-07T14:57:06Z</time>
      </trkpt>
      <trkpt lat="44.04841" lon="5.93493">
        <ele>534.8</ele>
        <time>2017-01-07T14:57:07Z</time>
      </trkpt>
      <trkpt lat="44.04843" lon="5.93495">
        <ele>535.7</ele>
        <time>2017-01-07T14:57:08Z</time>
      </trkpt>
      <trkpt lat="44.04848" lon="5.93496">
        <ele>536.7</ele>
        <time>2017-01-07T14:57:10Z</time>
      </trkpt>
      <trkpt lat="44.04851" lon="5.93498">
        <ele>537.6</ele>
        <time>2017-01-07T14:57:12Z</time>
      </trkpt>
      <trkpt lat="44.04853" lon="5.93502">
        <ele>538.5</ele>
        <time>2017-01-07T14:57:14Z</time>
      </trkpt>
      <trkpt lat="44.04853" lon="5.93507">
        <ele>537.9</ele>
        <time>2017-01-07T14:57:16Z</time>
      </trkpt>
      <trkpt lat="44.04854" lon="5.93512">
        <ele>537.5</ele>
        <time>2017-01-07T14:57:18Z</time>
      </trkpt>
      <trkpt lat="44.04856" lon="5.93517">
        <ele>537.7</ele>
        <time>2017-01-07T14:57:20Z</time>
      </trkpt>
      <trkpt lat="44.04858" lon="5.9352">
        <ele>537.1</ele>
        <time>2017-01-07T14:57:22Z</time>
      </trkpt>
      <trkpt lat="44.04858" lon="5.93524">
        <ele>537.1</ele>
        <time>2017-01-07T14:57:30Z</time>
      </trkpt>
      <trkpt lat="44.0486" lon="5.93522">
        <ele>537.6</ele>
        <time>2017-01-07T14:57:35Z</time>
      </trkpt>
      <trkpt lat="44.04863" lon="5.93524">
        <ele>537.7</ele>
        <time>2017-01-07T14:57:38Z</time>
      </trkpt>
      <trkpt lat="44.04865" lon="5.93528">
        <ele>538.2</ele>
        <time>2017-01-07T14:57:43Z</time>
      </trkpt>
      <trkpt lat="44.04866" lon="5.93531">
        <ele>537.7</ele>
        <time>2017-01-07T14:57:47Z</time>
      </trkpt>
      <trkpt lat="44.04863" lon="5.93533">
        <ele>536.5</ele>
        <time>2017-01-07T14:58:35Z</time>
      </trkpt>
      <trkpt lat="44.04863" lon="5.93537">
        <ele>536</ele>
        <time>2017-01-07T14:58:37Z</time>
      </trkpt>
      <trkpt lat="44.04861" lon="5.93543">
        <ele>535.5</ele>
        <time>2017-01-07T14:58:39Z</time>
      </trkpt>
      <trkpt lat="44.04859" lon="5.93548">
        <ele>534.4</ele>
        <time>2017-01-07T14:58:41Z</time>
      </trkpt>
      <trkpt lat="44.04856" lon="5.93552">
        <ele>533.4</ele>
        <time>2017-01-07T14:58:43Z</time>
      </trkpt>
      <trkpt lat="44.04854" lon="5.93557">
        <ele>532.4</ele>
        <time>2017-01-07T14:58:45Z</time>
      </trkpt>
      <trkpt lat="44.04854" lon="5.93561">
        <ele>532</ele>
        <time>2017-01-07T14:58:46Z</time>
      </trkpt>
      <trkpt lat="44.04853" lon="5.93566">
        <ele>531.6</ele>
        <time>2017-01-07T14:58:47Z</time>
      </trkpt>
      <trkpt lat="44.04852" lon="5.93573">
        <ele>530.7</ele>
        <time>2017-01-07T14:58:48Z</time>
      </trkpt>
      <trkpt lat="44.0485" lon="5.93578">
        <ele>529.9</ele>
        <time>2017-01-07T14:58:49Z</time>
      </trkpt>
      <trkpt lat="44.04848" lon="5.93583">
        <ele>529.2</ele>
        <time>2017-01-07T14:58:50Z</time>
      </trkpt>
      <trkpt lat="44.04846" lon="5.93589">
        <ele>528.6</ele>
        <time>2017-01-07T14:58:51Z</time>
      </trkpt>
      <trkpt lat="44.04845" lon="5.93595">
        <ele>527.8</ele>
        <time>2017-01-07T14:58:52Z</time>
      </trkpt>
      <trkpt lat="44.04845" lon="5.93603">
        <ele>527</ele>
        <time>2017-01-07T14:58:53Z</time>
      </trkpt>
      <trkpt lat="44.04845" lon="5.93613">
        <ele>526.5</ele>
        <time>2017-01-07T14:58:54Z</time>
      </trkpt>
      <trkpt lat="44.04845" lon="5.93621">
        <ele>526.2</ele>
        <time>2017-01-07T14:58:55Z</time>
      </trkpt>
      <trkpt lat="44.04846" lon="5.93629">
        <ele>526</ele>
        <time>2017-01-07T14:58:56Z</time>
      </trkpt>
      <trkpt lat="44.04847" lon="5.93635">
        <ele>525.4</ele>
        <time>2017-01-07T14:58:57Z</time>
      </trkpt>
      <trkpt lat="44.04848" lon="5.93639">
        <ele>525.4</ele>
        <time>2017-01-07T14:58:58Z</time>
      </trkpt>
      <trkpt lat="44.04851" lon="5.93643">
        <ele>525.2</ele>
        <time>2017-01-07T14:59:00Z</time>
      </trkpt>
      <trkpt lat="44.04855" lon="5.93644">
        <ele>525.1</ele>
        <time>2017-01-07T14:59:02Z</time>
      </trkpt>
      <trkpt lat="44.04859" lon="5.93641">
        <ele>525.1</ele>
        <time>2017-01-07T14:59:04Z</time>
      </trkpt>
      <trkpt lat="44.04865" lon="5.9364">
        <ele>524.9</ele>
        <time>2017-01-07T14:59:06Z</time>
      </trkpt>
      <trkpt lat="44.04868" lon="5.93639">
        <ele>525</ele>
        <time>2017-01-07T14:59:07Z</time>
      </trkpt>
      <trkpt lat="44.04871" lon="5.93636">
        <ele>524.8</ele>
        <time>2017-01-07T14:59:08Z</time>
      </trkpt>
      <trkpt lat="44.04873" lon="5.93635">
        <ele>525</ele>
        <time>2017-01-07T14:59:09Z</time>
      </trkpt>
      <trkpt lat="44.04876" lon="5.93633">
        <ele>524.9</ele>
        <time>2017-01-07T14:59:10Z</time>
      </trkpt>
      <trkpt lat="44.04879" lon="5.93633">
        <ele>524.7</ele>
        <time>2017-01-07T14:59:11Z</time>
      </trkpt>
      <trkpt lat="44.04882" lon="5.93634">
        <ele>524.6</ele>
        <time>2017-01-07T14:59:12Z</time>
      </trkpt>
      <trkpt lat="44.04885" lon="5.93636">
        <ele>524.2</ele>
        <time>2017-01-07T14:59:13Z</time>
      </trkpt>
      <trkpt lat="44.04887" lon="5.93639">
        <ele>524</ele>
        <time>2017-01-07T14:59:14Z</time>
      </trkpt>
      <trkpt lat="44.0489" lon="5.93643">
        <ele>523.6</ele>
        <time>2017-01-07T14:59:16Z</time>
      </trkpt>
      <trkpt lat="44.04893" lon="5.93646">
        <ele>523</ele>
        <time>2017-01-07T14:59:18Z</time>
      </trkpt>
      <trkpt lat="44.04896" lon="5.9365">
        <ele>522.3</ele>
        <time>2017-01-07T14:59:20Z</time>
      </trkpt>
      <trkpt lat="44.04896" lon="5.93657">
        <ele>521.2</ele>
        <time>2017-01-07T14:59:22Z</time>
      </trkpt>
      <trkpt lat="44.04896" lon="5.93663">
        <ele>520.6</ele>
        <time>2017-01-07T14:59:23Z</time>
      </trkpt>
      <trkpt lat="44.04896" lon="5.93667">
        <ele>520</ele>
        <time>2017-01-07T14:59:24Z</time>
      </trkpt>
      <trkpt lat="44.04894" lon="5.93674">
        <ele>519.5</ele>
        <time>2017-01-07T14:59:26Z</time>
      </trkpt>
      <trkpt lat="44.04893" lon="5.93678">
        <ele>518.7</ele>
        <time>2017-01-07T14:59:28Z</time>
      </trkpt>
      <trkpt lat="44.04891" lon="5.93682">
        <ele>518</ele>
        <time>2017-01-07T14:59:30Z</time>
      </trkpt>
      <trkpt lat="44.04889" lon="5.93685">
        <ele>517.1</ele>
        <time>2017-01-07T14:59:31Z</time>
      </trkpt>
      <trkpt lat="44.04887" lon="5.93688">
        <ele>516.5</ele>
        <time>2017-01-07T14:59:32Z</time>
      </trkpt>
      <trkpt lat="44.04883" lon="5.93691">
        <ele>516.8</ele>
        <time>2017-01-07T14:59:33Z</time>
      </trkpt>
      <trkpt lat="44.0488" lon="5.93694">
        <ele>516.3</ele>
        <time>2017-01-07T14:59:34Z</time>
      </trkpt>
      <trkpt lat="44.04877" lon="5.93698">
        <ele>515.8</ele>
        <time>2017-01-07T14:59:35Z</time>
      </trkpt>
      <trkpt lat="44.04874" lon="5.93701">
        <ele>515.3</ele>
        <time>2017-01-07T14:59:36Z</time>
      </trkpt>
      <trkpt lat="44.04871" lon="5.93705">
        <ele>514.7</ele>
        <time>2017-01-07T14:59:37Z</time>
      </trkpt>
      <trkpt lat="44.04868" lon="5.93709">
        <ele>514</ele>
        <time>2017-01-07T14:59:38Z</time>
      </trkpt>
      <trkpt lat="44.04865" lon="5.93713">
        <ele>513.3</ele>
        <time>2017-01-07T14:59:39Z</time>
      </trkpt>
      <trkpt lat="44.04862" lon="5.93717">
        <ele>512.6</ele>
        <time>2017-01-07T14:59:40Z</time>
      </trkpt>
      <trkpt lat="44.04859" lon="5.93721">
        <ele>512.6</ele>
        <time>2017-01-07T14:59:41Z</time>
      </trkpt>
      <trkpt lat="44.04856" lon="5.93725">
        <ele>511.9</ele>
        <time>2017-01-07T14:59:42Z</time>
      </trkpt>
      <trkpt lat="44.04853" lon="5.93729">
        <ele>511.2</ele>
        <time>2017-01-07T14:59:43Z</time>
      </trkpt>
      <trkpt lat="44.04849" lon="5.93733">
        <ele>510.5</ele>
        <time>2017-01-07T14:59:44Z</time>
      </trkpt>
      <trkpt lat="44.04846" lon="5.93737">
        <ele>509.7</ele>
        <time>2017-01-07T14:59:45Z</time>
      </trkpt>
      <trkpt lat="44.04842" lon="5.93742">
        <ele>508.7</ele>
        <time>2017-01-07T14:59:46Z</time>
      </trkpt>
      <trkpt lat="44.04839" lon="5.93745">
        <ele>508.1</ele>
        <time>2017-01-07T14:59:47Z</time>
      </trkpt>
      <trkpt lat="44.04837" lon="5.93748">
        <ele>507.3</ele>
        <time>2017-01-07T14:59:48Z</time>
      </trkpt>
      <trkpt lat="44.04829" lon="5.93753">
        <ele>505.8</ele>
        <time>2017-01-07T15:00:17Z</time>
      </trkpt>
      <trkpt lat="44.04826" lon="5.93751">
        <ele>505.9</ele>
        <time>2017-01-07T15:00:18Z</time>
      </trkpt>
      <trkpt lat="44.04824" lon="5.93747">
        <ele>505.8</ele>
        <time>2017-01-07T15:00:19Z</time>
      </trkpt>
      <trkpt lat="44.04822" lon="5.93743">
        <ele>505.9</ele>
        <time>2017-01-07T15:00:20Z</time>
      </trkpt>
      <trkpt lat="44.0482" lon="5.93739">
        <ele>506</ele>
        <time>2017-01-07T15:00:21Z</time>
      </trkpt>
      <trkpt lat="44.04818" lon="5.93735">
        <ele>506.7</ele>
        <time>2017-01-07T15:00:22Z</time>
      </trkpt>
      <trkpt lat="44.04816" lon="5.93731">
        <ele>506.8</ele>
        <time>2017-01-07T15:00:23Z</time>
      </trkpt>
      <trkpt lat="44.04814" lon="5.93727">
        <ele>506.9</ele>
        <time>2017-01-07T15:00:24Z</time>
      </trkpt>
      <trkpt lat="44.04812" lon="5.93723">
        <ele>507.5</ele>
        <time>2017-01-07T15:00:25Z</time>
      </trkpt>
      <trkpt lat="44.0481" lon="5.9372">
        <ele>507.5</ele>
        <time>2017-01-07T15:00:27Z</time>
      </trkpt>
      <trkpt lat="44.04806" lon="5.93717">
        <ele>507</ele>
        <time>2017-01-07T15:00:29Z</time>
      </trkpt>
      <trkpt lat="44.04803" lon="5.93713">
        <ele>507.1</ele>
        <time>2017-01-07T15:00:31Z</time>
      </trkpt>
      <trkpt lat="44.04798" lon="5.93709">
        <ele>506.9</ele>
        <time>2017-01-07T15:00:33Z</time>
      </trkpt>
      <trkpt lat="44.04795" lon="5.93707">
        <ele>506.9</ele>
        <time>2017-01-07T15:00:34Z</time>
      </trkpt>
      <trkpt lat="44.04791" lon="5.93703">
        <ele>506.9</ele>
        <time>2017-01-07T15:00:35Z</time>
      </trkpt>
      <trkpt lat="44.04788" lon="5.937">
        <ele>506.3</ele>
        <time>2017-01-07T15:00:36Z</time>
      </trkpt>
      <trkpt lat="44.04784" lon="5.93696">
        <ele>506.1</ele>
        <time>2017-01-07T15:00:37Z</time>
      </trkpt>
      <trkpt lat="44.04781" lon="5.93692">
        <ele>505.3</ele>
        <time>2017-01-07T15:00:38Z</time>
      </trkpt>
      <trkpt lat="44.04778" lon="5.93688">
        <ele>505</ele>
        <time>2017-01-07T15:00:39Z</time>
      </trkpt>
      <trkpt lat="44.04774" lon="5.93685">
        <ele>504.8</ele>
        <time>2017-01-07T15:00:40Z</time>
      </trkpt>
      <trkpt lat="44.0477" lon="5.93682">
        <ele>504.6</ele>
        <time>2017-01-07T15:00:41Z</time>
      </trkpt>
      <trkpt lat="44.04767" lon="5.93679">
        <ele>504.2</ele>
        <time>2017-01-07T15:00:42Z</time>
      </trkpt>
      <trkpt lat="44.04764" lon="5.93676">
        <ele>504.3</ele>
        <time>2017-01-07T15:00:43Z</time>
      </trkpt>
      <trkpt lat="44.0476" lon="5.93671">
        <ele>504.6</ele>
        <time>2017-01-07T15:00:45Z</time>
      </trkpt>
      <trkpt lat="44.04759" lon="5.93667">
        <ele>504.7</ele>
        <time>2017-01-07T15:00:46Z</time>
      </trkpt>
      <trkpt lat="44.04758" lon="5.93663">
        <ele>504.9</ele>
        <time>2017-01-07T15:00:47Z</time>
      </trkpt>
      <trkpt lat="44.04756" lon="5.93659">
        <ele>505.1</ele>
        <time>2017-01-07T15:00:48Z</time>
      </trkpt>
      <trkpt lat="44.04754" lon="5.93656">
        <ele>505.3</ele>
        <time>2017-01-07T15:00:49Z</time>
      </trkpt>
      <trkpt lat="44.04749" lon="5.93656">
        <ele>505.9</ele>
        <time>2017-01-07T15:00:51Z</time>
      </trkpt>
      <trkpt lat="44.04745" lon="5.93658">
        <ele>506.7</ele>
        <time>2017-01-07T15:00:53Z</time>
      </trkpt>
      <trkpt lat="44.0474" lon="5.93661">
        <ele>507.4</ele>
        <time>2017-01-07T15:00:55Z</time>
      </trkpt>
      <trkpt lat="44.04736" lon="5.93664">
        <ele>507.8</ele>
        <time>2017-01-07T15:00:57Z</time>
      </trkpt>
      <trkpt lat="44.04733" lon="5.93667">
        <ele>507.8</ele>
        <time>2017-01-07T15:00:59Z</time>
      </trkpt>
      <trkpt lat="44.0473" lon="5.9367">
        <ele>507.8</ele>
        <time>2017-01-07T15:01:01Z</time>
      </trkpt>
      <trkpt lat="44.04728" lon="5.93672">
        <ele>507.7</ele>
        <time>2017-01-07T15:01:03Z</time>
      </trkpt>
      <trkpt lat="44.04727" lon="5.93675">
        <ele>507.6</ele>
        <time>2017-01-07T15:01:05Z</time>
      </trkpt>
      <trkpt lat="44.04725" lon="5.93679">
        <ele>507.4</ele>
        <time>2017-01-07T15:01:07Z</time>
      </trkpt>
      <trkpt lat="44.04724" lon="5.93683">
        <ele>507.2</ele>
        <time>2017-01-07T15:01:09Z</time>
      </trkpt>
      <trkpt lat="44.04724" lon="5.93688">
        <ele>506.8</ele>
        <time>2017-01-07T15:01:12Z</time>
      </trkpt>
      <trkpt lat="44.04726" lon="5.93692">
        <ele>506.5</ele>
        <time>2017-01-07T15:01:14Z</time>
      </trkpt>
      <trkpt lat="44.04729" lon="5.93695">
        <ele>506.4</ele>
        <time>2017-01-07T15:01:16Z</time>
      </trkpt>
      <trkpt lat="44.04731" lon="5.93697">
        <ele>506.3</ele>
        <time>2017-01-07T15:01:18Z</time>
      </trkpt>
      <trkpt lat="44.04732" lon="5.93701">
        <ele>506.2</ele>
        <time>2017-01-07T15:01:20Z</time>
      </trkpt>
      <trkpt lat="44.04734" lon="5.93705">
        <ele>506</ele>
        <time>2017-01-07T15:01:22Z</time>
      </trkpt>
      <trkpt lat="44.04733" lon="5.9371">
        <ele>505.9</ele>
        <time>2017-01-07T15:01:24Z</time>
      </trkpt>
      <trkpt lat="44.04732" lon="5.93715">
        <ele>505.9</ele>
        <time>2017-01-07T15:01:26Z</time>
      </trkpt>
      <trkpt lat="44.04731" lon="5.93719">
        <ele>505.9</ele>
        <time>2017-01-07T15:01:28Z</time>
      </trkpt>
      <trkpt lat="44.04729" lon="5.93723">
        <ele>506</ele>
        <time>2017-01-07T15:01:30Z</time>
      </trkpt>
      <trkpt lat="44.04727" lon="5.93726">
        <ele>506.2</ele>
        <time>2017-01-07T15:01:32Z</time>
      </trkpt>
      <trkpt lat="44.04724" lon="5.9373">
        <ele>506.3</ele>
        <time>2017-01-07T15:01:35Z</time>
      </trkpt>
      <trkpt lat="44.04722" lon="5.93733">
        <ele>506.5</ele>
        <time>2017-01-07T15:01:38Z</time>
      </trkpt>
      <trkpt lat="44.04718" lon="5.93735">
        <ele>506.8</ele>
        <time>2017-01-07T15:01:40Z</time>
      </trkpt>
      <trkpt lat="44.04714" lon="5.93736">
        <ele>507.1</ele>
        <time>2017-01-07T15:01:42Z</time>
      </trkpt>
      <trkpt lat="44.0471" lon="5.93738">
        <ele>507.4</ele>
        <time>2017-01-07T15:01:44Z</time>
      </trkpt>
      <trkpt lat="44.04707" lon="5.93739">
        <ele>507.6</ele>
        <time>2017-01-07T15:01:46Z</time>
      </trkpt>
      <trkpt lat="44.04704" lon="5.9374">
        <ele>507.6</ele>
        <time>2017-01-07T15:01:48Z</time>
      </trkpt>
      <trkpt lat="44.047" lon="5.93741">
        <ele>507.9</ele>
        <time>2017-01-07T15:01:50Z</time>
      </trkpt>
      <trkpt lat="44.04696" lon="5.93743">
        <ele>508.4</ele>
        <time>2017-01-07T15:01:52Z</time>
      </trkpt>
      <trkpt lat="44.04693" lon="5.93746">
        <ele>509</ele>
        <time>2017-01-07T15:01:54Z</time>
      </trkpt>
      <trkpt lat="44.0469" lon="5.9375">
        <ele>509.7</ele>
        <time>2017-01-07T15:01:56Z</time>
      </trkpt>
      <trkpt lat="44.04687" lon="5.93754">
        <ele>510.6</ele>
        <time>2017-01-07T15:01:58Z</time>
      </trkpt>
      <trkpt lat="44.04684" lon="5.93758">
        <ele>511.1</ele>
        <time>2017-01-07T15:02:00Z</time>
      </trkpt>
      <trkpt lat="44.04681" lon="5.93761">
        <ele>511.6</ele>
        <time>2017-01-07T15:02:02Z</time>
      </trkpt>
      <trkpt lat="44.04679" lon="5.93764">
        <ele>512</ele>
        <time>2017-01-07T15:02:04Z</time>
      </trkpt>
      <trkpt lat="44.04676" lon="5.93768">
        <ele>512.4</ele>
        <time>2017-01-07T15:02:06Z</time>
      </trkpt>
      <trkpt lat="44.04673" lon="5.93772">
        <ele>513.1</ele>
        <time>2017-01-07T15:02:08Z</time>
      </trkpt>
      <trkpt lat="44.0467" lon="5.93776">
        <ele>513.9</ele>
        <time>2017-01-07T15:02:10Z</time>
      </trkpt>
      <trkpt lat="44.04667" lon="5.9378">
        <ele>514.3</ele>
        <time>2017-01-07T15:02:12Z</time>
      </trkpt>
      <trkpt lat="44.04666" lon="5.93783">
        <ele>514.5</ele>
        <time>2017-01-07T15:02:14Z</time>
      </trkpt>
      <trkpt lat="44.04665" lon="5.93788">
        <ele>514.6</ele>
        <time>2017-01-07T15:02:16Z</time>
      </trkpt>
      <trkpt lat="44.04664" lon="5.93791">
        <ele>514.6</ele>
        <time>2017-01-07T15:02:18Z</time>
      </trkpt>
      <trkpt lat="44.04662" lon="5.93795">
        <ele>514.5</ele>
        <time>2017-01-07T15:02:20Z</time>
      </trkpt>
      <trkpt lat="44.04662" lon="5.93799">
        <ele>514.7</ele>
        <time>2017-01-07T15:02:21Z</time>
      </trkpt>
      <trkpt lat="44.04662" lon="5.93804">
        <ele>515</ele>
        <time>2017-01-07T15:02:22Z</time>
      </trkpt>
      <trkpt lat="44.04662" lon="5.93809">
        <ele>515.1</ele>
        <time>2017-01-07T15:02:23Z</time>
      </trkpt>
      <trkpt lat="44.04662" lon="5.93814">
        <ele>515.2</ele>
        <time>2017-01-07T15:02:24Z</time>
      </trkpt>
      <trkpt lat="44.04662" lon="5.93818">
        <ele>515.1</ele>
        <time>2017-01-07T15:02:25Z</time>
      </trkpt>
      <trkpt lat="44.04663" lon="5.93822">
        <ele>514.9</ele>
        <time>2017-01-07T15:02:26Z</time>
      </trkpt>
      <trkpt lat="44.04663" lon="5.93826">
        <ele>514.7</ele>
        <time>2017-01-07T15:02:27Z</time>
      </trkpt>
      <trkpt lat="44.04664" lon="5.93834">
        <ele>514</ele>
        <time>2017-01-07T15:02:29Z</time>
      </trkpt>
      <trkpt lat="44.04665" lon="5.93841">
        <ele>513.3</ele>
        <time>2017-01-07T15:02:31Z</time>
      </trkpt>
      <trkpt lat="44.04667" lon="5.93848">
        <ele>512.7</ele>
        <time>2017-01-07T15:02:33Z</time>
      </trkpt>
      <trkpt lat="44.04668" lon="5.93855">
        <ele>512.4</ele>
        <time>2017-01-07T15:02:35Z</time>
      </trkpt>
      <trkpt lat="44.04669" lon="5.93861">
        <ele>511.5</ele>
        <time>2017-01-07T15:02:37Z</time>
      </trkpt>
      <trkpt lat="44.0467" lon="5.93868">
        <ele>510.3</ele>
        <time>2017-01-07T15:02:39Z</time>
      </trkpt>
      <trkpt lat="44.0467" lon="5.93874">
        <ele>509.2</ele>
        <time>2017-01-07T15:02:41Z</time>
      </trkpt>
      <trkpt lat="44.0467" lon="5.9388">
        <ele>508.7</ele>
        <time>2017-01-07T15:02:43Z</time>
      </trkpt>
      <trkpt lat="44.04669" lon="5.93886">
        <ele>508.3</ele>
        <time>2017-01-07T15:02:45Z</time>
      </trkpt>
      <trkpt lat="44.04667" lon="5.93891">
        <ele>508</ele>
        <time>2017-01-07T15:02:47Z</time>
      </trkpt>
      <trkpt lat="44.04665" lon="5.93897">
        <ele>507.9</ele>
        <time>2017-01-07T15:02:49Z</time>
      </trkpt>
      <trkpt lat="44.04662" lon="5.93903">
        <ele>508.1</ele>
        <time>2017-01-07T15:02:51Z</time>
      </trkpt>
      <trkpt lat="44.0466" lon="5.93907">
        <ele>508.3</ele>
        <time>2017-01-07T15:02:52Z</time>
      </trkpt>
      <trkpt lat="44.04658" lon="5.9391">
        <ele>508.5</ele>
        <time>2017-01-07T15:02:53Z</time>
      </trkpt>
      <trkpt lat="44.04655" lon="5.93914">
        <ele>508.6</ele>
        <time>2017-01-07T15:02:54Z</time>
      </trkpt>
      <trkpt lat="44.04653" lon="5.93918">
        <ele>508.9</ele>
        <time>2017-01-07T15:02:55Z</time>
      </trkpt>
      <trkpt lat="44.04651" lon="5.93922">
        <ele>509.1</ele>
        <time>2017-01-07T15:02:56Z</time>
      </trkpt>
      <trkpt lat="44.04649" lon="5.93925">
        <ele>509.4</ele>
        <time>2017-01-07T15:02:57Z</time>
      </trkpt>
      <trkpt lat="44.04647" lon="5.93928">
        <ele>509.7</ele>
        <time>2017-01-07T15:02:58Z</time>
      </trkpt>
      <trkpt lat="44.04645" lon="5.93931">
        <ele>510</ele>
        <time>2017-01-07T15:02:59Z</time>
      </trkpt>
      <trkpt lat="44.04643" lon="5.93935">
        <ele>510.4</ele>
        <time>2017-01-07T15:03:00Z</time>
      </trkpt>
      <trkpt lat="44.04642" lon="5.93938">
        <ele>510.8</ele>
        <time>2017-01-07T15:03:01Z</time>
      </trkpt>
      <trkpt lat="44.0464" lon="5.93941">
        <ele>511.2</ele>
        <time>2017-01-07T15:03:02Z</time>
      </trkpt>
      <trkpt lat="44.04637" lon="5.93947">
        <ele>511.8</ele>
        <time>2017-01-07T15:03:04Z</time>
      </trkpt>
      <trkpt lat="44.04635" lon="5.93952">
        <ele>512.3</ele>
        <time>2017-01-07T15:03:06Z</time>
      </trkpt>
      <trkpt lat="44.04634" lon="5.93957">
        <ele>512.5</ele>
        <time>2017-01-07T15:03:08Z</time>
      </trkpt>
      <trkpt lat="44.04632" lon="5.93961">
        <ele>512.8</ele>
        <time>2017-01-07T15:03:10Z</time>
      </trkpt>
      <trkpt lat="44.04629" lon="5.93964">
        <ele>512.9</ele>
        <time>2017-01-07T15:03:13Z</time>
      </trkpt>
      <trkpt lat="44.04626" lon="5.93968">
        <ele>513</ele>
        <time>2017-01-07T15:03:15Z</time>
      </trkpt>
      <trkpt lat="44.04624" lon="5.93971">
        <ele>513.1</ele>
        <time>2017-01-07T15:03:17Z</time>
      </trkpt>
      <trkpt lat="44.04621" lon="5.93975">
        <ele>513.3</ele>
        <time>2017-01-07T15:03:19Z</time>
      </trkpt>
      <trkpt lat="44.04617" lon="5.93981">
        <ele>513.6</ele>
        <time>2017-01-07T15:03:21Z</time>
      </trkpt>
      <trkpt lat="44.04615" lon="5.93984">
        <ele>513.7</ele>
        <time>2017-01-07T15:03:22Z</time>
      </trkpt>
      <trkpt lat="44.04613" lon="5.93988">
        <ele>514</ele>
        <time>2017-01-07T15:03:23Z</time>
      </trkpt>
      <trkpt lat="44.04612" lon="5.93992">
        <ele>514.2</ele>
        <time>2017-01-07T15:03:24Z</time>
      </trkpt>
      <trkpt lat="44.0461" lon="5.93996">
        <ele>514.4</ele>
        <time>2017-01-07T15:03:25Z</time>
      </trkpt>
      <trkpt lat="44.04609" lon="5.94001">
        <ele>514.6</ele>
        <time>2017-01-07T15:03:26Z</time>
      </trkpt>
      <trkpt lat="44.04608" lon="5.94006">
        <ele>514.8</ele>
        <time>2017-01-07T15:03:27Z</time>
      </trkpt>
      <trkpt lat="44.04607" lon="5.94013">
        <ele>515</ele>
        <time>2017-01-07T15:03:28Z</time>
      </trkpt>
      <trkpt lat="44.04606" lon="5.94018">
        <ele>515.1</ele>
        <time>2017-01-07T15:03:29Z</time>
      </trkpt>
      <trkpt lat="44.04605" lon="5.94023">
        <ele>515.2</ele>
        <time>2017-01-07T15:03:30Z</time>
      </trkpt>
      <trkpt lat="44.04603" lon="5.94027">
        <ele>515.2</ele>
        <time>2017-01-07T15:03:31Z</time>
      </trkpt>
      <trkpt lat="44.04601" lon="5.94032">
        <ele>515.3</ele>
        <time>2017-01-07T15:03:32Z</time>
      </trkpt>
      <trkpt lat="44.04598" lon="5.94037">
        <ele>515.3</ele>
        <time>2017-01-07T15:03:33Z</time>
      </trkpt>
      <trkpt lat="44.04595" lon="5.94046">
        <ele>515.4</ele>
        <time>2017-01-07T15:03:34Z</time>
      </trkpt>
      <trkpt lat="44.04592" lon="5.94068">
        <ele>515.3</ele>
        <time>2017-01-07T15:03:35Z</time>
      </trkpt>
      <trkpt lat="44.04587" lon="5.94075">
        <ele>515.3</ele>
        <time>2017-01-07T15:03:36Z</time>
      </trkpt>
      <trkpt lat="44.0458" lon="5.94083">
        <ele>515.3</ele>
        <time>2017-01-07T15:03:37Z</time>
      </trkpt>
      <trkpt lat="44.04578" lon="5.94094">
        <ele>515.3</ele>
        <time>2017-01-07T15:03:38Z</time>
      </trkpt>
      <trkpt lat="44.04574" lon="5.94104">
        <ele>515.3</ele>
        <time>2017-01-07T15:03:39Z</time>
      </trkpt>
      <trkpt lat="44.0457" lon="5.94113">
        <ele>515.4</ele>
        <time>2017-01-07T15:03:40Z</time>
      </trkpt>
      <trkpt lat="44.04566" lon="5.94121">
        <ele>515.6</ele>
        <time>2017-01-07T15:03:41Z</time>
      </trkpt>
      <trkpt lat="44.04563" lon="5.94131">
        <ele>515.8</ele>
        <time>2017-01-07T15:03:42Z</time>
      </trkpt>
      <trkpt lat="44.0456" lon="5.94137">
        <ele>516</ele>
        <time>2017-01-07T15:03:43Z</time>
      </trkpt>
      <trkpt lat="44.04558" lon="5.94152">
        <ele>516.5</ele>
        <time>2017-01-07T15:03:44Z</time>
      </trkpt>
      <trkpt lat="44.04554" lon="5.94156">
        <ele>516.6</ele>
        <time>2017-01-07T15:03:45Z</time>
      </trkpt>
      <trkpt lat="44.0455" lon="5.9416">
        <ele>516.7</ele>
        <time>2017-01-07T15:03:46Z</time>
      </trkpt>
      <trkpt lat="44.04546" lon="5.94162">
        <ele>516.9</ele>
        <time>2017-01-07T15:03:47Z</time>
      </trkpt>
      <trkpt lat="44.04541" lon="5.94157">
        <ele>517</ele>
        <time>2017-01-07T15:03:48Z</time>
      </trkpt>
      <trkpt lat="44.04531" lon="5.9416">
        <ele>517.4</ele>
        <time>2017-01-07T15:03:50Z</time>
      </trkpt>
      <trkpt lat="44.04526" lon="5.94165">
        <ele>517.6</ele>
        <time>2017-01-07T15:03:51Z</time>
      </trkpt>
      <trkpt lat="44.04521" lon="5.9417">
        <ele>517.8</ele>
        <time>2017-01-07T15:03:52Z</time>
      </trkpt>
      <trkpt lat="44.04517" lon="5.94178">
        <ele>518.1</ele>
        <time>2017-01-07T15:03:53Z</time>
      </trkpt>
      <trkpt lat="44.04515" lon="5.94189">
        <ele>518.3</ele>
        <time>2017-01-07T15:03:55Z</time>
      </trkpt>
      <trkpt lat="44.04512" lon="5.94197">
        <ele>518.4</ele>
        <time>2017-01-07T15:03:56Z</time>
      </trkpt>
      <trkpt lat="44.04508" lon="5.94207">
        <ele>518.6</ele>
        <time>2017-01-07T15:03:57Z</time>
      </trkpt>
      <trkpt lat="44.04505" lon="5.94216">
        <ele>518.7</ele>
        <time>2017-01-07T15:03:58Z</time>
      </trkpt>
      <trkpt lat="44.04504" lon="5.94223">
        <ele>518.8</ele>
        <time>2017-01-07T15:03:59Z</time>
      </trkpt>
      <trkpt lat="44.04501" lon="5.94236">
        <ele>518.9</ele>
        <time>2017-01-07T15:04:00Z</time>
      </trkpt>
      <trkpt lat="44.045" lon="5.94242">
        <ele>519.1</ele>
        <time>2017-01-07T15:04:01Z</time>
      </trkpt>
      <trkpt lat="44.04495" lon="5.94246">
        <ele>518.9</ele>
        <time>2017-01-07T15:04:02Z</time>
      </trkpt>
      <trkpt lat="44.04487" lon="5.94251">
        <ele>517.7</ele>
        <time>2017-01-07T15:04:03Z</time>
      </trkpt>
      <trkpt lat="44.04482" lon="5.94257">
        <ele>517</ele>
        <time>2017-01-07T15:04:04Z</time>
      </trkpt>
      <trkpt lat="44.04475" lon="5.94266">
        <ele>516.4</ele>
        <time>2017-01-07T15:04:05Z</time>
      </trkpt>
      <trkpt lat="44.04468" lon="5.94273">
        <ele>515.5</ele>
        <time>2017-01-07T15:04:06Z</time>
      </trkpt>
      <trkpt lat="44.04465" lon="5.94282">
        <ele>515</ele>
        <time>2017-01-07T15:04:07Z</time>
      </trkpt>
      <trkpt lat="44.04459" lon="5.94288">
        <ele>513.8</ele>
        <time>2017-01-07T15:04:08Z</time>
      </trkpt>
      <trkpt lat="44.04455" lon="5.94292">
        <ele>513.2</ele>
        <time>2017-01-07T15:04:09Z</time>
      </trkpt>
      <trkpt lat="44.04448" lon="5.94298">
        <ele>511.8</ele>
        <time>2017-01-07T15:04:10Z</time>
      </trkpt>
      <trkpt lat="44.04439" lon="5.94304">
        <ele>510.1</ele>
        <time>2017-01-07T15:04:11Z</time>
      </trkpt>
      <trkpt lat="44.04433" lon="5.94305">
        <ele>508.8</ele>
        <time>2017-01-07T15:04:12Z</time>
      </trkpt>
      <trkpt lat="44.04425" lon="5.94312">
        <ele>507.1</ele>
        <time>2017-01-07T15:04:13Z</time>
      </trkpt>
      <trkpt lat="44.0442" lon="5.94318">
        <ele>506.7</ele>
        <time>2017-01-07T15:04:14Z</time>
      </trkpt>
      <trkpt lat="44.04417" lon="5.94325">
        <ele>506.4</ele>
        <time>2017-01-07T15:04:15Z</time>
      </trkpt>
      <trkpt lat="44.04409" lon="5.94331">
        <ele>504.9</ele>
        <time>2017-01-07T15:04:16Z</time>
      </trkpt>
      <trkpt lat="44.04403" lon="5.94336">
        <ele>503.3</ele>
        <time>2017-01-07T15:04:17Z</time>
      </trkpt>
      <trkpt lat="44.04395" lon="5.94345">
        <ele>501.7</ele>
        <time>2017-01-07T15:04:18Z</time>
      </trkpt>
      <trkpt lat="44.04392" lon="5.94355">
        <ele>500.9</ele>
        <time>2017-01-07T15:04:19Z</time>
      </trkpt>
      <trkpt lat="44.04388" lon="5.94363">
        <ele>501.2</ele>
        <time>2017-01-07T15:04:20Z</time>
      </trkpt>
      <trkpt lat="44.04385" lon="5.9437">
        <ele>501.4</ele>
        <time>2017-01-07T15:04:21Z</time>
      </trkpt>
      <trkpt lat="44.04379" lon="5.94374">
        <ele>500.5</ele>
        <time>2017-01-07T15:04:22Z</time>
      </trkpt>
      <trkpt lat="44.04376" lon="5.94375">
        <ele>499.8</ele>
        <time>2017-01-07T15:04:23Z</time>
      </trkpt>
      <trkpt lat="44.04378" lon="5.94384">
        <ele>501.3</ele>
        <time>2017-01-07T15:04:24Z</time>
      </trkpt>
      <trkpt lat="44.04377" lon="5.9439">
        <ele>501.7</ele>
        <time>2017-01-07T15:04:25Z</time>
      </trkpt>
      <trkpt lat="44.04377" lon="5.94396">
        <ele>501.9</ele>
        <time>2017-01-07T15:04:26Z</time>
      </trkpt>
      <trkpt lat="44.04376" lon="5.94404">
        <ele>502.4</ele>
        <time>2017-01-07T15:04:28Z</time>
      </trkpt>
      <trkpt lat="44.04375" lon="5.9441">
        <ele>502.6</ele>
        <time>2017-01-07T15:04:30Z</time>
      </trkpt>
      <trkpt lat="44.04376" lon="5.94418">
        <ele>502.9</ele>
        <time>2017-01-07T15:04:33Z</time>
      </trkpt>
      <trkpt lat="44.04378" lon="5.94425">
        <ele>504</ele>
        <time>2017-01-07T15:04:35Z</time>
      </trkpt>
      <trkpt lat="44.0438" lon="5.94432">
        <ele>503.9</ele>
        <time>2017-01-07T15:04:37Z</time>
      </trkpt>
      <trkpt lat="44.04381" lon="5.94436">
        <ele>504.7</ele>
        <time>2017-01-07T15:04:38Z</time>
      </trkpt>
      <trkpt lat="44.04382" lon="5.94439">
        <ele>504.4</ele>
        <time>2017-01-07T15:04:39Z</time>
      </trkpt>
      <trkpt lat="44.04384" lon="5.94443">
        <ele>505</ele>
        <time>2017-01-07T15:04:40Z</time>
      </trkpt>
      <trkpt lat="44.04385" lon="5.94446">
        <ele>504.9</ele>
        <time>2017-01-07T15:04:41Z</time>
      </trkpt>
      <trkpt lat="44.04387" lon="5.94449">
        <ele>505.3</ele>
        <time>2017-01-07T15:04:42Z</time>
      </trkpt>
      <trkpt lat="44.04389" lon="5.94451">
        <ele>505.7</ele>
        <time>2017-01-07T15:04:43Z</time>
      </trkpt>
      <trkpt lat="44.04392" lon="5.94454">
        <ele>505.6</ele>
        <time>2017-01-07T15:04:44Z</time>
      </trkpt>
      <trkpt lat="44.04396" lon="5.94458">
        <ele>506.9</ele>
        <time>2017-01-07T15:04:46Z</time>
      </trkpt>
      <trkpt lat="44.04399" lon="5.9446">
        <ele>507.3</ele>
        <time>2017-01-07T15:04:48Z</time>
      </trkpt>
      <trkpt lat="44.04401" lon="5.94463">
        <ele>506.9</ele>
        <time>2017-01-07T15:04:50Z</time>
      </trkpt>
      <trkpt lat="44.04403" lon="5.94467">
        <ele>507.7</ele>
        <time>2017-01-07T15:04:52Z</time>
      </trkpt>
      <trkpt lat="44.04406" lon="5.9447">
        <ele>508.1</ele>
        <time>2017-01-07T15:04:54Z</time>
      </trkpt>
      <trkpt lat="44.04408" lon="5.94473">
        <ele>508.5</ele>
        <time>2017-01-07T15:04:56Z</time>
      </trkpt>
      <trkpt lat="44.04412" lon="5.94476">
        <ele>509.1</ele>
        <time>2017-01-07T15:04:58Z</time>
      </trkpt>
      <trkpt lat="44.04416" lon="5.94479">
        <ele>509.4</ele>
        <time>2017-01-07T15:05:00Z</time>
      </trkpt>
      <trkpt lat="44.04418" lon="5.94481">
        <ele>509.5</ele>
        <time>2017-01-07T15:05:01Z</time>
      </trkpt>
      <trkpt lat="44.04421" lon="5.94483">
        <ele>510</ele>
        <time>2017-01-07T15:05:02Z</time>
      </trkpt>
      <trkpt lat="44.04425" lon="5.94487">
        <ele>510.2</ele>
        <time>2017-01-07T15:05:04Z</time>
      </trkpt>
      <trkpt lat="44.04428" lon="5.94491">
        <ele>510.3</ele>
        <time>2017-01-07T15:05:06Z</time>
      </trkpt>
      <trkpt lat="44.04431" lon="5.94494">
        <ele>510.5</ele>
        <time>2017-01-07T15:05:08Z</time>
      </trkpt>
      <trkpt lat="44.04434" lon="5.94497">
        <ele>511</ele>
        <time>2017-01-07T15:05:10Z</time>
      </trkpt>
      <trkpt lat="44.04437" lon="5.945">
        <ele>511.1</ele>
        <time>2017-01-07T15:05:12Z</time>
      </trkpt>
      <trkpt lat="44.04439" lon="5.94503">
        <ele>511.1</ele>
        <time>2017-01-07T15:05:14Z</time>
      </trkpt>
      <trkpt lat="44.04442" lon="5.94506">
        <ele>511.6</ele>
        <time>2017-01-07T15:05:16Z</time>
      </trkpt>
      <trkpt lat="44.04445" lon="5.9451">
        <ele>511.6</ele>
        <time>2017-01-07T15:05:18Z</time>
      </trkpt>
      <trkpt lat="44.04446" lon="5.94514">
        <ele>511</ele>
        <time>2017-01-07T15:05:19Z</time>
      </trkpt>
      <trkpt lat="44.04448" lon="5.94519">
        <ele>511</ele>
        <time>2017-01-07T15:05:20Z</time>
      </trkpt>
      <trkpt lat="44.04449" lon="5.94524">
        <ele>510</ele>
        <time>2017-01-07T15:05:21Z</time>
      </trkpt>
      <trkpt lat="44.0445" lon="5.94528">
        <ele>509.5</ele>
        <time>2017-01-07T15:05:22Z</time>
      </trkpt>
      <trkpt lat="44.04451" lon="5.94534">
        <ele>509.6</ele>
        <time>2017-01-07T15:05:23Z</time>
      </trkpt>
      <trkpt lat="44.04452" lon="5.94539">
        <ele>508.9</ele>
        <time>2017-01-07T15:05:24Z</time>
      </trkpt>
      <trkpt lat="44.04453" lon="5.94545">
        <ele>508.3</ele>
        <time>2017-01-07T15:05:25Z</time>
      </trkpt>
      <trkpt lat="44.04454" lon="5.9455">
        <ele>507.1</ele>
        <time>2017-01-07T15:05:26Z</time>
      </trkpt>
      <trkpt lat="44.04455" lon="5.94554">
        <ele>507.2</ele>
        <time>2017-01-07T15:05:27Z</time>
      </trkpt>
      <trkpt lat="44.04457" lon="5.94557">
        <ele>507.7</ele>
        <time>2017-01-07T15:05:28Z</time>
      </trkpt>
      <trkpt lat="44.0446" lon="5.94562">
        <ele>507.2</ele>
        <time>2017-01-07T15:05:30Z</time>
      </trkpt>
      <trkpt lat="44.04462" lon="5.94569">
        <ele>506.7</ele>
        <time>2017-01-07T15:05:32Z</time>
      </trkpt>
      <trkpt lat="44.04463" lon="5.94573">
        <ele>506.1</ele>
        <time>2017-01-07T15:05:33Z</time>
      </trkpt>
      <trkpt lat="44.04464" lon="5.94577">
        <ele>506.2</ele>
        <time>2017-01-07T15:05:34Z</time>
      </trkpt>
      <trkpt lat="44.04466" lon="5.9458">
        <ele>506.3</ele>
        <time>2017-01-07T15:05:35Z</time>
      </trkpt>
      <trkpt lat="44.04469" lon="5.94582">
        <ele>506.2</ele>
        <time>2017-01-07T15:05:36Z</time>
      </trkpt>
      <trkpt lat="44.04472" lon="5.94584">
        <ele>506.3</ele>
        <time>2017-01-07T15:05:37Z</time>
      </trkpt>
      <trkpt lat="44.04475" lon="5.94587">
        <ele>506.7</ele>
        <time>2017-01-07T15:05:38Z</time>
      </trkpt>
      <trkpt lat="44.04478" lon="5.9459">
        <ele>506.7</ele>
        <time>2017-01-07T15:05:39Z</time>
      </trkpt>
      <trkpt lat="44.04482" lon="5.94594">
        <ele>507.3</ele>
        <time>2017-01-07T15:05:40Z</time>
      </trkpt>
      <trkpt lat="44.04486" lon="5.94599">
        <ele>507.1</ele>
        <time>2017-01-07T15:05:41Z</time>
      </trkpt>
      <trkpt lat="44.04489" lon="5.94603">
        <ele>506.8</ele>
        <time>2017-01-07T15:05:42Z</time>
      </trkpt>
      <trkpt lat="44.04493" lon="5.94606">
        <ele>506.5</ele>
        <time>2017-01-07T15:05:43Z</time>
      </trkpt>
      <trkpt lat="44.04496" lon="5.94609">
        <ele>507</ele>
        <time>2017-01-07T15:05:44Z</time>
      </trkpt>
      <trkpt lat="44.04498" lon="5.94614">
        <ele>506.8</ele>
        <time>2017-01-07T15:05:45Z</time>
      </trkpt>
      <trkpt lat="44.04501" lon="5.94618">
        <ele>505.9</ele>
        <time>2017-01-07T15:05:46Z</time>
      </trkpt>
      <trkpt lat="44.04503" lon="5.94623">
        <ele>505.9</ele>
        <time>2017-01-07T15:05:47Z</time>
      </trkpt>
      <trkpt lat="44.04506" lon="5.94627">
        <ele>505.2</ele>
        <time>2017-01-07T15:05:48Z</time>
      </trkpt>
      <trkpt lat="44.04508" lon="5.94631">
        <ele>505.9</ele>
        <time>2017-01-07T15:05:49Z</time>
      </trkpt>
      <trkpt lat="44.04511" lon="5.94636">
        <ele>505.7</ele>
        <time>2017-01-07T15:05:51Z</time>
      </trkpt>
      <trkpt lat="44.04512" lon="5.94641">
        <ele>505.2</ele>
        <time>2017-01-07T15:05:53Z</time>
      </trkpt>
      <trkpt lat="44.04513" lon="5.94644">
        <ele>505.6</ele>
        <time>2017-01-07T15:05:56Z</time>
      </trkpt>
      <trkpt lat="44.04516" lon="5.94646">
        <ele>506.5</ele>
        <time>2017-01-07T15:06:01Z</time>
      </trkpt>
      <trkpt lat="44.04518" lon="5.9465">
        <ele>505.9</ele>
        <time>2017-01-07T15:06:03Z</time>
      </trkpt>
      <trkpt lat="44.0452" lon="5.94653">
        <ele>506.3</ele>
        <time>2017-01-07T15:06:05Z</time>
      </trkpt>
      <trkpt lat="44.04521" lon="5.94657">
        <ele>505.8</ele>
        <time>2017-01-07T15:06:07Z</time>
      </trkpt>
      <trkpt lat="44.04523" lon="5.9466">
        <ele>506.6</ele>
        <time>2017-01-07T15:06:09Z</time>
      </trkpt>
      <trkpt lat="44.04525" lon="5.94663">
        <ele>507</ele>
        <time>2017-01-07T15:06:11Z</time>
      </trkpt>
      <trkpt lat="44.04528" lon="5.94667">
        <ele>507.2</ele>
        <time>2017-01-07T15:06:13Z</time>
      </trkpt>
      <trkpt lat="44.04529" lon="5.94671">
        <ele>506.6</ele>
        <time>2017-01-07T15:06:15Z</time>
      </trkpt>
      <trkpt lat="44.04531" lon="5.94674">
        <ele>506.7</ele>
        <time>2017-01-07T15:06:17Z</time>
      </trkpt>
      <trkpt lat="44.04535" lon="5.94676">
        <ele>507.5</ele>
        <time>2017-01-07T15:06:19Z</time>
      </trkpt>
      <trkpt lat="44.04538" lon="5.94678">
        <ele>507.5</ele>
        <time>2017-01-07T15:06:21Z</time>
      </trkpt>
      <trkpt lat="44.04541" lon="5.94682">
        <ele>508.3</ele>
        <time>2017-01-07T15:06:23Z</time>
      </trkpt>
      <trkpt lat="44.04543" lon="5.94688">
        <ele>506.6</ele>
        <time>2017-01-07T15:06:25Z</time>
      </trkpt>
      <trkpt lat="44.04546" lon="5.94694">
        <ele>506.7</ele>
        <time>2017-01-07T15:06:27Z</time>
      </trkpt>
      <trkpt lat="44.04548" lon="5.94696">
        <ele>506.8</ele>
        <time>2017-01-07T15:06:28Z</time>
      </trkpt>
      <trkpt lat="44.04551" lon="5.94702">
        <ele>506.9</ele>
        <time>2017-01-07T15:06:30Z</time>
      </trkpt>
      <trkpt lat="44.04555" lon="5.94707">
        <ele>506.9</ele>
        <time>2017-01-07T15:06:32Z</time>
      </trkpt>
      <trkpt lat="44.04558" lon="5.94713">
        <ele>506.3</ele>
        <time>2017-01-07T15:06:34Z</time>
      </trkpt>
      <trkpt lat="44.0456" lon="5.94716">
        <ele>506.9</ele>
        <time>2017-01-07T15:06:35Z</time>
      </trkpt>
      <trkpt lat="44.04561" lon="5.94719">
        <ele>506.2</ele>
        <time>2017-01-07T15:06:36Z</time>
      </trkpt>
      <trkpt lat="44.04562" lon="5.94723">
        <ele>506.2</ele>
        <time>2017-01-07T15:06:37Z</time>
      </trkpt>
      <trkpt lat="44.04562" lon="5.94727">
        <ele>505.5</ele>
        <time>2017-01-07T15:06:38Z</time>
      </trkpt>
      <trkpt lat="44.04563" lon="5.94731">
        <ele>504.8</ele>
        <time>2017-01-07T15:06:39Z</time>
      </trkpt>
      <trkpt lat="44.04563" lon="5.94735">
        <ele>504</ele>
        <time>2017-01-07T15:06:40Z</time>
      </trkpt>
      <trkpt lat="44.04565" lon="5.94742">
        <ele>503.9</ele>
        <time>2017-01-07T15:06:42Z</time>
      </trkpt>
      <trkpt lat="44.04567" lon="5.94745">
        <ele>503.2</ele>
        <time>2017-01-07T15:06:43Z</time>
      </trkpt>
      <trkpt lat="44.0457" lon="5.94748">
        <ele>503.4</ele>
        <time>2017-01-07T15:06:44Z</time>
      </trkpt>
      <trkpt lat="44.04573" lon="5.94752">
        <ele>503.5</ele>
        <time>2017-01-07T15:06:45Z</time>
      </trkpt>
      <trkpt lat="44.04578" lon="5.94755">
        <ele>504.8</ele>
        <time>2017-01-07T15:06:46Z</time>
      </trkpt>
      <trkpt lat="44.04583" lon="5.94758">
        <ele>504.6</ele>
        <time>2017-01-07T15:06:47Z</time>
      </trkpt>
      <trkpt lat="44.04588" lon="5.94761">
        <ele>504.9</ele>
        <time>2017-01-07T15:06:48Z</time>
      </trkpt>
      <trkpt lat="44.04592" lon="5.94763">
        <ele>505.4</ele>
        <time>2017-01-07T15:06:49Z</time>
      </trkpt>
      <trkpt lat="44.04596" lon="5.94765">
        <ele>505.8</ele>
        <time>2017-01-07T15:06:50Z</time>
      </trkpt>
      <trkpt lat="44.046" lon="5.94766">
        <ele>506.3</ele>
        <time>2017-01-07T15:06:51Z</time>
      </trkpt>
      <trkpt lat="44.04604" lon="5.94767">
        <ele>506.8</ele>
        <time>2017-01-07T15:06:52Z</time>
      </trkpt>
      <trkpt lat="44.04608" lon="5.94768">
        <ele>507.2</ele>
        <time>2017-01-07T15:06:53Z</time>
      </trkpt>
      <trkpt lat="44.04612" lon="5.94769">
        <ele>507.4</ele>
        <time>2017-01-07T15:06:54Z</time>
      </trkpt>
      <trkpt lat="44.04616" lon="5.94771">
        <ele>507.6</ele>
        <time>2017-01-07T15:06:55Z</time>
      </trkpt>
      <trkpt lat="44.04619" lon="5.94773">
        <ele>507.4</ele>
        <time>2017-01-07T15:06:56Z</time>
      </trkpt>
      <trkpt lat="44.04622" lon="5.94775">
        <ele>507.6</ele>
        <time>2017-01-07T15:06:57Z</time>
      </trkpt>
      <trkpt lat="44.04625" lon="5.94777">
        <ele>507.4</ele>
        <time>2017-01-07T15:06:58Z</time>
      </trkpt>
      <trkpt lat="44.04629" lon="5.94778">
        <ele>507.6</ele>
        <time>2017-01-07T15:07:00Z</time>
      </trkpt>
      <trkpt lat="44.04634" lon="5.94777">
        <ele>508.6</ele>
        <time>2017-01-07T15:07:02Z</time>
      </trkpt>
      <trkpt lat="44.04639" lon="5.94774">
        <ele>509.2</ele>
        <time>2017-01-07T15:07:04Z</time>
      </trkpt>
      <trkpt lat="44.04643" lon="5.94772">
        <ele>510</ele>
        <time>2017-01-07T15:07:06Z</time>
      </trkpt>
      <trkpt lat="44.04647" lon="5.9477">
        <ele>510.3</ele>
        <time>2017-01-07T15:07:08Z</time>
      </trkpt>
      <trkpt lat="44.04652" lon="5.94769">
        <ele>511</ele>
        <time>2017-01-07T15:07:10Z</time>
      </trkpt>
      <trkpt lat="44.04657" lon="5.94769">
        <ele>511.4</ele>
        <time>2017-01-07T15:07:12Z</time>
      </trkpt>
      <trkpt lat="44.04661" lon="5.94772">
        <ele>512</ele>
        <time>2017-01-07T15:07:14Z</time>
      </trkpt>
      <trkpt lat="44.04664" lon="5.94774">
        <ele>512.1</ele>
        <time>2017-01-07T15:07:16Z</time>
      </trkpt>
      <trkpt lat="44.04666" lon="5.94779">
        <ele>511.9</ele>
        <time>2017-01-07T15:07:18Z</time>
      </trkpt>
      <trkpt lat="44.04669" lon="5.94782">
        <ele>511.9</ele>
        <time>2017-01-07T15:07:20Z</time>
      </trkpt>
      <trkpt lat="44.04671" lon="5.94785">
        <ele>512.1</ele>
        <time>2017-01-07T15:07:22Z</time>
      </trkpt>
      <trkpt lat="44.04675" lon="5.94786">
        <ele>512</ele>
        <time>2017-01-07T15:07:25Z</time>
      </trkpt>
      <trkpt lat="44.04678" lon="5.94788">
        <ele>512.3</ele>
        <time>2017-01-07T15:07:27Z</time>
      </trkpt>
      <trkpt lat="44.04681" lon="5.94789">
        <ele>512.5</ele>
        <time>2017-01-07T15:07:29Z</time>
      </trkpt>
      <trkpt lat="44.04683" lon="5.94793">
        <ele>512.6</ele>
        <time>2017-01-07T15:07:32Z</time>
      </trkpt>
      <trkpt lat="44.04686" lon="5.94795">
        <ele>512.7</ele>
        <time>2017-01-07T15:07:34Z</time>
      </trkpt>
      <trkpt lat="44.04689" lon="5.94798">
        <ele>513</ele>
        <time>2017-01-07T15:07:36Z</time>
      </trkpt>
      <trkpt lat="44.04692" lon="5.948">
        <ele>513.2</ele>
        <time>2017-01-07T15:07:38Z</time>
      </trkpt>
      <trkpt lat="44.04695" lon="5.94803">
        <ele>513.4</ele>
        <time>2017-01-07T15:07:41Z</time>
      </trkpt>
      <trkpt lat="44.04698" lon="5.94805">
        <ele>513.5</ele>
        <time>2017-01-07T15:07:44Z</time>
      </trkpt>
      <trkpt lat="44.04701" lon="5.94806">
        <ele>513.7</ele>
        <time>2017-01-07T15:07:55Z</time>
      </trkpt>
      <trkpt lat="44.04703" lon="5.94808">
        <ele>513.6</ele>
        <time>2017-01-07T15:08:02Z</time>
      </trkpt>
      <trkpt lat="44.04712" lon="5.9482">
        <ele>514.1</ele>
        <time>2017-01-07T15:08:22Z</time>
      </trkpt>
      <trkpt lat="44.04715" lon="5.94824">
        <ele>514.2</ele>
        <time>2017-01-07T15:08:24Z</time>
      </trkpt>
      <trkpt lat="44.04718" lon="5.94827">
        <ele>514.4</ele>
        <time>2017-01-07T15:08:26Z</time>
      </trkpt>
      <trkpt lat="44.04719" lon="5.94831">
        <ele>514.5</ele>
        <time>2017-01-07T15:08:28Z</time>
      </trkpt>
      <trkpt lat="44.04721" lon="5.94835">
        <ele>514.6</ele>
        <time>2017-01-07T15:08:30Z</time>
      </trkpt>
      <trkpt lat="44.04722" lon="5.9484">
        <ele>514.6</ele>
        <time>2017-01-07T15:08:32Z</time>
      </trkpt>
      <trkpt lat="44.04723" lon="5.94844">
        <ele>514.7</ele>
        <time>2017-01-07T15:08:34Z</time>
      </trkpt>
      <trkpt lat="44.04726" lon="5.94847">
        <ele>514.8</ele>
        <time>2017-01-07T15:08:36Z</time>
      </trkpt>
      <trkpt lat="44.04728" lon="5.9485">
        <ele>514.9</ele>
        <time>2017-01-07T15:08:38Z</time>
      </trkpt>
      <trkpt lat="44.0473" lon="5.94854">
        <ele>514.8</ele>
        <time>2017-01-07T15:08:40Z</time>
      </trkpt>
      <trkpt lat="44.04733" lon="5.94857">
        <ele>514.7</ele>
        <time>2017-01-07T15:08:42Z</time>
      </trkpt>
      <trkpt lat="44.04736" lon="5.94859">
        <ele>514.7</ele>
        <time>2017-01-07T15:08:44Z</time>
      </trkpt>
      <trkpt lat="44.0474" lon="5.94859">
        <ele>514.4</ele>
        <time>2017-01-07T15:08:47Z</time>
      </trkpt>
      <trkpt lat="44.04743" lon="5.94862">
        <ele>514.2</ele>
        <time>2017-01-07T15:08:50Z</time>
      </trkpt>
      <trkpt lat="44.04747" lon="5.94864">
        <ele>514</ele>
        <time>2017-01-07T15:08:52Z</time>
      </trkpt>
      <trkpt lat="44.0475" lon="5.94866">
        <ele>513.6</ele>
        <time>2017-01-07T15:08:54Z</time>
      </trkpt>
      <trkpt lat="44.04754" lon="5.94868">
        <ele>513.3</ele>
        <time>2017-01-07T15:08:56Z</time>
      </trkpt>
      <trkpt lat="44.04757" lon="5.94869">
        <ele>513.1</ele>
        <time>2017-01-07T15:08:58Z</time>
      </trkpt>
      <trkpt lat="44.0476" lon="5.94871">
        <ele>512.8</ele>
        <time>2017-01-07T15:09:00Z</time>
      </trkpt>
      <trkpt lat="44.04763" lon="5.94873">
        <ele>512.5</ele>
        <time>2017-01-07T15:09:02Z</time>
      </trkpt>
      <trkpt lat="44.04765" lon="5.94877">
        <ele>512.4</ele>
        <time>2017-01-07T15:09:05Z</time>
      </trkpt>
      <trkpt lat="44.04766" lon="5.94881">
        <ele>512.1</ele>
        <time>2017-01-07T15:09:07Z</time>
      </trkpt>
      <trkpt lat="44.04767" lon="5.94885">
        <ele>512</ele>
        <time>2017-01-07T15:09:09Z</time>
      </trkpt>
      <trkpt lat="44.04768" lon="5.9489">
        <ele>511.9</ele>
        <time>2017-01-07T15:09:12Z</time>
      </trkpt>
      <trkpt lat="44.04767" lon="5.94893">
        <ele>511.8</ele>
        <time>2017-01-07T15:09:16Z</time>
      </trkpt>
      <trkpt lat="44.04768" lon="5.94897">
        <ele>511.7</ele>
        <time>2017-01-07T15:09:22Z</time>
      </trkpt>
      <trkpt lat="44.04768" lon="5.94901">
        <ele>511.4</ele>
        <time>2017-01-07T15:09:28Z</time>
      </trkpt>
      <trkpt lat="44.04771" lon="5.94906">
        <ele>510.8</ele>
        <time>2017-01-07T15:09:30Z</time>
      </trkpt>
      <trkpt lat="44.04773" lon="5.9491">
        <ele>510.3</ele>
        <time>2017-01-07T15:09:31Z</time>
      </trkpt>
      <trkpt lat="44.04775" lon="5.94916">
        <ele>509.7</ele>
        <time>2017-01-07T15:09:32Z</time>
      </trkpt>
      <trkpt lat="44.04776" lon="5.94922">
        <ele>509.3</ele>
        <time>2017-01-07T15:09:33Z</time>
      </trkpt>
      <trkpt lat="44.04777" lon="5.94928">
        <ele>508.4</ele>
        <time>2017-01-07T15:09:34Z</time>
      </trkpt>
      <trkpt lat="44.04779" lon="5.94935">
        <ele>507.3</ele>
        <time>2017-01-07T15:09:35Z</time>
      </trkpt>
      <trkpt lat="44.04784" lon="5.94948">
        <ele>504.9</ele>
        <time>2017-01-07T15:09:36Z</time>
      </trkpt>
      <trkpt lat="44.04785" lon="5.94954">
        <ele>503</ele>
        <time>2017-01-07T15:09:37Z</time>
      </trkpt>
      <trkpt lat="44.04787" lon="5.94958">
        <ele>501.5</ele>
        <time>2017-01-07T15:09:38Z</time>
      </trkpt>
      <trkpt lat="44.04793" lon="5.94965">
        <ele>500.2</ele>
        <time>2017-01-07T15:09:40Z</time>
      </trkpt>
      <trkpt lat="44.04797" lon="5.94969">
        <ele>498.4</ele>
        <time>2017-01-07T15:09:41Z</time>
      </trkpt>
      <trkpt lat="44.04798" lon="5.94978">
        <ele>497.8</ele>
        <time>2017-01-07T15:09:42Z</time>
      </trkpt>
      <trkpt lat="44.04799" lon="5.94985">
        <ele>496.5</ele>
        <time>2017-01-07T15:09:43Z</time>
      </trkpt>
      <trkpt lat="44.04801" lon="5.94993">
        <ele>495.7</ele>
        <time>2017-01-07T15:09:44Z</time>
      </trkpt>
      <trkpt lat="44.04804" lon="5.94995">
        <ele>495.1</ele>
        <time>2017-01-07T15:09:45Z</time>
      </trkpt>
      <trkpt lat="44.04809" lon="5.94991">
        <ele>494.4</ele>
        <time>2017-01-07T15:09:47Z</time>
      </trkpt>
      <trkpt lat="44.04816" lon="5.94987">
        <ele>493.4</ele>
        <time>2017-01-07T15:09:49Z</time>
      </trkpt>
      <trkpt lat="44.04819" lon="5.94983">
        <ele>492.5</ele>
        <time>2017-01-07T15:09:50Z</time>
      </trkpt>
      <trkpt lat="44.04825" lon="5.94979">
        <ele>491.3</ele>
        <time>2017-01-07T15:09:51Z</time>
      </trkpt>
      <trkpt lat="44.0483" lon="5.94976">
        <ele>490.8</ele>
        <time>2017-01-07T15:09:52Z</time>
      </trkpt>
      <trkpt lat="44.04834" lon="5.94975">
        <ele>489.4</ele>
        <time>2017-01-07T15:09:53Z</time>
      </trkpt>
      <trkpt lat="44.04838" lon="5.94979">
        <ele>488.4</ele>
        <time>2017-01-07T15:09:55Z</time>
      </trkpt>
      <trkpt lat="44.0484" lon="5.94983">
        <ele>487.2</ele>
        <time>2017-01-07T15:09:56Z</time>
      </trkpt>
      <trkpt lat="44.04843" lon="5.94987">
        <ele>486.3</ele>
        <time>2017-01-07T15:09:57Z</time>
      </trkpt>
      <trkpt lat="44.04845" lon="5.94991">
        <ele>486</ele>
        <time>2017-01-07T15:09:58Z</time>
      </trkpt>
      <trkpt lat="44.04848" lon="5.94996">
        <ele>484.5</ele>
        <time>2017-01-07T15:09:59Z</time>
      </trkpt>
      <trkpt lat="44.0485" lon="5.95">
        <ele>483.6</ele>
        <time>2017-01-07T15:10:00Z</time>
      </trkpt>
      <trkpt lat="44.04854" lon="5.95003">
        <ele>482.5</ele>
        <time>2017-01-07T15:10:01Z</time>
      </trkpt>
      <trkpt lat="44.04857" lon="5.95007">
        <ele>481.4</ele>
        <time>2017-01-07T15:10:02Z</time>
      </trkpt>
      <trkpt lat="44.04864" lon="5.95017">
        <ele>479.2</ele>
        <time>2017-01-07T15:10:03Z</time>
      </trkpt>
      <trkpt lat="44.04871" lon="5.9502">
        <ele>476.3</ele>
        <time>2017-01-07T15:10:04Z</time>
      </trkpt>
      <trkpt lat="44.04876" lon="5.95021">
        <ele>475.1</ele>
        <time>2017-01-07T15:10:06Z</time>
      </trkpt>
      <trkpt lat="44.04878" lon="5.95019">
        <ele>473.9</ele>
        <time>2017-01-07T15:10:07Z</time>
      </trkpt>
      <trkpt lat="44.04882" lon="5.95016">
        <ele>472.5</ele>
        <time>2017-01-07T15:10:08Z</time>
      </trkpt>
      <trkpt lat="44.04881" lon="5.95007">
        <ele>472</ele>
        <time>2017-01-07T15:10:09Z</time>
      </trkpt>
      <trkpt lat="44.04884" lon="5.95006">
        <ele>470.7</ele>
        <time>2017-01-07T15:10:10Z</time>
      </trkpt>
      <trkpt lat="44.0488" lon="5.95002">
        <ele>471.6</ele>
        <time>2017-01-07T15:10:11Z</time>
      </trkpt>
      <trkpt lat="44.04879" lon="5.94992">
        <ele>472.4</ele>
        <time>2017-01-07T15:10:12Z</time>
      </trkpt>
      <trkpt lat="44.04879" lon="5.94985">
        <ele>471.9</ele>
        <time>2017-01-07T15:10:13Z</time>
      </trkpt>
      <trkpt lat="44.04877" lon="5.94979">
        <ele>471.6</ele>
        <time>2017-01-07T15:10:14Z</time>
      </trkpt>
      <trkpt lat="44.04878" lon="5.94974">
        <ele>471.1</ele>
        <time>2017-01-07T15:10:15Z</time>
      </trkpt>
      <trkpt lat="44.04879" lon="5.94968">
        <ele>470.9</ele>
        <time>2017-01-07T15:10:16Z</time>
      </trkpt>
      <trkpt lat="44.04879" lon="5.94962">
        <ele>470.6</ele>
        <time>2017-01-07T15:10:17Z</time>
      </trkpt>
      <trkpt lat="44.04882" lon="5.94957">
        <ele>468.8</ele>
        <time>2017-01-07T15:10:18Z</time>
      </trkpt>
      <trkpt lat="44.04885" lon="5.94951">
        <ele>467.2</ele>
        <time>2017-01-07T15:10:19Z</time>
      </trkpt>
      <trkpt lat="44.04887" lon="5.94946">
        <ele>465.6</ele>
        <time>2017-01-07T15:10:20Z</time>
      </trkpt>
      <trkpt lat="44.0489" lon="5.94941">
        <ele>464</ele>
        <time>2017-01-07T15:10:21Z</time>
      </trkpt>
      <trkpt lat="44.04892" lon="5.94935">
        <ele>463.9</ele>
        <time>2017-01-07T15:10:22Z</time>
      </trkpt>
      <trkpt lat="44.04893" lon="5.94929">
        <ele>462.7</ele>
        <time>2017-01-07T15:10:23Z</time>
      </trkpt>
      <trkpt lat="44.04895" lon="5.94923">
        <ele>463.7</ele>
        <time>2017-01-07T15:10:24Z</time>
      </trkpt>
      <trkpt lat="44.04896" lon="5.94917">
        <ele>463.1</ele>
        <time>2017-01-07T15:10:25Z</time>
      </trkpt>
      <trkpt lat="44.04899" lon="5.94913">
        <ele>462.6</ele>
        <time>2017-01-07T15:10:26Z</time>
      </trkpt>
      <trkpt lat="44.04902" lon="5.94912">
        <ele>461.2</ele>
        <time>2017-01-07T15:10:27Z</time>
      </trkpt>
      <trkpt lat="44.04905" lon="5.94912">
        <ele>459.8</ele>
        <time>2017-01-07T15:10:28Z</time>
      </trkpt>
      <trkpt lat="44.04908" lon="5.94911">
        <ele>458.6</ele>
        <time>2017-01-07T15:10:29Z</time>
      </trkpt>
      <trkpt lat="44.04912" lon="5.9491">
        <ele>457.5</ele>
        <time>2017-01-07T15:10:30Z</time>
      </trkpt>
      <trkpt lat="44.04916" lon="5.9491">
        <ele>456.6</ele>
        <time>2017-01-07T15:10:31Z</time>
      </trkpt>
      <trkpt lat="44.04921" lon="5.94911">
        <ele>454.9</ele>
        <time>2017-01-07T15:10:32Z</time>
      </trkpt>
      <trkpt lat="44.04926" lon="5.94914">
        <ele>453</ele>
        <time>2017-01-07T15:10:33Z</time>
      </trkpt>
      <trkpt lat="44.04931" lon="5.94919">
        <ele>452</ele>
        <time>2017-01-07T15:10:34Z</time>
      </trkpt>
      <trkpt lat="44.04936" lon="5.94923">
        <ele>450.5</ele>
        <time>2017-01-07T15:10:35Z</time>
      </trkpt>
      <trkpt lat="44.04942" lon="5.94926">
        <ele>449.5</ele>
        <time>2017-01-07T15:10:36Z</time>
      </trkpt>
      <trkpt lat="44.04949" lon="5.94929">
        <ele>448.8</ele>
        <time>2017-01-07T15:10:37Z</time>
      </trkpt>
      <trkpt lat="44.04955" lon="5.94933">
        <ele>447.8</ele>
        <time>2017-01-07T15:10:38Z</time>
      </trkpt>
      <trkpt lat="44.04961" lon="5.94938">
        <ele>446.4</ele>
        <time>2017-01-07T15:10:39Z</time>
      </trkpt>
      <trkpt lat="44.04965" lon="5.94943">
        <ele>445.6</ele>
        <time>2017-01-07T15:10:40Z</time>
      </trkpt>
      <trkpt lat="44.04969" lon="5.94948">
        <ele>444.2</ele>
        <time>2017-01-07T15:10:41Z</time>
      </trkpt>
      <trkpt lat="44.04972" lon="5.94952">
        <ele>443.6</ele>
        <time>2017-01-07T15:10:42Z</time>
      </trkpt>
      <trkpt lat="44.04975" lon="5.94951">
        <ele>442.9</ele>
        <time>2017-01-07T15:10:44Z</time>
      </trkpt>
      <trkpt lat="44.0498" lon="5.94951">
        <ele>442.2</ele>
        <time>2017-01-07T15:10:46Z</time>
      </trkpt>
      <trkpt lat="44.04981" lon="5.94957">
        <ele>441.4</ele>
        <time>2017-01-07T15:10:48Z</time>
      </trkpt>
      <trkpt lat="44.0498" lon="5.94963">
        <ele>442</ele>
        <time>2017-01-07T15:10:49Z</time>
      </trkpt>
      <trkpt lat="44.04978" lon="5.9497">
        <ele>441.8</ele>
        <time>2017-01-07T15:10:50Z</time>
      </trkpt>
      <trkpt lat="44.04977" lon="5.94978">
        <ele>442.3</ele>
        <time>2017-01-07T15:10:51Z</time>
      </trkpt>
      <trkpt lat="44.04976" lon="5.94985">
        <ele>441.9</ele>
        <time>2017-01-07T15:10:52Z</time>
      </trkpt>
      <trkpt lat="44.04977" lon="5.94991">
        <ele>441.5</ele>
        <time>2017-01-07T15:10:53Z</time>
      </trkpt>
      <trkpt lat="44.0498" lon="5.94993">
        <ele>440.2</ele>
        <time>2017-01-07T15:10:54Z</time>
      </trkpt>
      <trkpt lat="44.04983" lon="5.9499">
        <ele>439.5</ele>
        <time>2017-01-07T15:10:55Z</time>
      </trkpt>
      <trkpt lat="44.04987" lon="5.94986">
        <ele>438.8</ele>
        <time>2017-01-07T15:10:57Z</time>
      </trkpt>
      <trkpt lat="44.04989" lon="5.94984">
        <ele>437.8</ele>
        <time>2017-01-07T15:10:58Z</time>
      </trkpt>
      <trkpt lat="44.04992" lon="5.94982">
        <ele>437.2</ele>
        <time>2017-01-07T15:10:59Z</time>
      </trkpt>
      <trkpt lat="44.04995" lon="5.94981">
        <ele>436.2</ele>
        <time>2017-01-07T15:11:00Z</time>
      </trkpt>
      <trkpt lat="44.04999" lon="5.94979">
        <ele>435.4</ele>
        <time>2017-01-07T15:11:01Z</time>
      </trkpt>
      <trkpt lat="44.05002" lon="5.94977">
        <ele>434.9</ele>
        <time>2017-01-07T15:11:02Z</time>
      </trkpt>
      <trkpt lat="44.05005" lon="5.94975">
        <ele>434.1</ele>
        <time>2017-01-07T15:11:03Z</time>
      </trkpt>
      <trkpt lat="44.05008" lon="5.94973">
        <ele>433.6</ele>
        <time>2017-01-07T15:11:04Z</time>
      </trkpt>
      <trkpt lat="44.05011" lon="5.94972">
        <ele>432.8</ele>
        <time>2017-01-07T15:11:05Z</time>
      </trkpt>
      <trkpt lat="44.05014" lon="5.9497">
        <ele>432.1</ele>
        <time>2017-01-07T15:11:07Z</time>
      </trkpt>
      <trkpt lat="44.05017" lon="5.9497">
        <ele>432.9</ele>
        <time>2017-01-07T15:11:09Z</time>
      </trkpt>
      <trkpt lat="44.05021" lon="5.94973">
        <ele>433.2</ele>
        <time>2017-01-07T15:11:11Z</time>
      </trkpt>
      <trkpt lat="44.05024" lon="5.94976">
        <ele>433.5</ele>
        <time>2017-01-07T15:11:13Z</time>
      </trkpt>
      <trkpt lat="44.05028" lon="5.94979">
        <ele>433.7</ele>
        <time>2017-01-07T15:11:15Z</time>
      </trkpt>
      <trkpt lat="44.05031" lon="5.94982">
        <ele>433.9</ele>
        <time>2017-01-07T15:11:17Z</time>
      </trkpt>
      <trkpt lat="44.05033" lon="5.94986">
        <ele>434</ele>
        <time>2017-01-07T15:11:19Z</time>
      </trkpt>
      <trkpt lat="44.05035" lon="5.94989">
        <ele>434.1</ele>
        <time>2017-01-07T15:11:21Z</time>
      </trkpt>
      <trkpt lat="44.05037" lon="5.94993">
        <ele>434.2</ele>
        <time>2017-01-07T15:11:24Z</time>
      </trkpt>
      <trkpt lat="44.05039" lon="5.94997">
        <ele>434.3</ele>
        <time>2017-01-07T15:11:55Z</time>
      </trkpt>
      <trkpt lat="44.05042" lon="5.95004">
        <ele>434.5</ele>
        <time>2017-01-07T15:11:57Z</time>
      </trkpt>
      <trkpt lat="44.05043" lon="5.95008">
        <ele>434.6</ele>
        <time>2017-01-07T15:11:58Z</time>
      </trkpt>
      <trkpt lat="44.05043" lon="5.95012">
        <ele>434.7</ele>
        <time>2017-01-07T15:11:59Z</time>
      </trkpt>
      <trkpt lat="44.05044" lon="5.95016">
        <ele>434.9</ele>
        <time>2017-01-07T15:12:00Z</time>
      </trkpt>
      <trkpt lat="44.05045" lon="5.9502">
        <ele>434.9</ele>
        <time>2017-01-07T15:12:01Z</time>
      </trkpt>
      <trkpt lat="44.05046" lon="5.95024">
        <ele>434.9</ele>
        <time>2017-01-07T15:12:02Z</time>
      </trkpt>
      <trkpt lat="44.05047" lon="5.95029">
        <ele>434.8</ele>
        <time>2017-01-07T15:12:03Z</time>
      </trkpt>
      <trkpt lat="44.05047" lon="5.95033">
        <ele>434.8</ele>
        <time>2017-01-07T15:12:04Z</time>
      </trkpt>
      <trkpt lat="44.05049" lon="5.95038">
        <ele>434.7</ele>
        <time>2017-01-07T15:12:05Z</time>
      </trkpt>
      <trkpt lat="44.0505" lon="5.95042">
        <ele>434.5</ele>
        <time>2017-01-07T15:12:06Z</time>
      </trkpt>
      <trkpt lat="44.05051" lon="5.95046">
        <ele>434.1</ele>
        <time>2017-01-07T15:12:07Z</time>
      </trkpt>
      <trkpt lat="44.05052" lon="5.95051">
        <ele>433.8</ele>
        <time>2017-01-07T15:12:08Z</time>
      </trkpt>
      <trkpt lat="44.05053" lon="5.95055">
        <ele>433.6</ele>
        <time>2017-01-07T15:12:09Z</time>
      </trkpt>
      <trkpt lat="44.05054" lon="5.9506">
        <ele>433.4</ele>
        <time>2017-01-07T15:12:10Z</time>
      </trkpt>
      <trkpt lat="44.05056" lon="5.95064">
        <ele>433.2</ele>
        <time>2017-01-07T15:12:11Z</time>
      </trkpt>
      <trkpt lat="44.05059" lon="5.95069">
        <ele>433.6</ele>
        <time>2017-01-07T15:12:12Z</time>
      </trkpt>
      <trkpt lat="44.05061" lon="5.95073">
        <ele>434</ele>
        <time>2017-01-07T15:12:13Z</time>
      </trkpt>
      <trkpt lat="44.05063" lon="5.95076">
        <ele>434</ele>
        <time>2017-01-07T15:12:14Z</time>
      </trkpt>
      <trkpt lat="44.05066" lon="5.95075">
        <ele>434</ele>
        <time>2017-01-07T15:12:17Z</time>
      </trkpt>
      <trkpt lat="44.05071" lon="5.95075">
        <ele>434</ele>
        <time>2017-01-07T15:12:20Z</time>
      </trkpt>
      <trkpt lat="44.05075" lon="5.95075">
        <ele>434</ele>
        <time>2017-01-07T15:12:22Z</time>
      </trkpt>
      <trkpt lat="44.0508" lon="5.95075">
        <ele>434.1</ele>
        <time>2017-01-07T15:12:24Z</time>
      </trkpt>
      <trkpt lat="44.05084" lon="5.95073">
        <ele>434.1</ele>
        <time>2017-01-07T15:12:25Z</time>
      </trkpt>
      <trkpt lat="44.05087" lon="5.95072">
        <ele>434.1</ele>
        <time>2017-01-07T15:12:26Z</time>
      </trkpt>
      <trkpt lat="44.0509" lon="5.9507">
        <ele>434.1</ele>
        <time>2017-01-07T15:12:27Z</time>
      </trkpt>
      <trkpt lat="44.05093" lon="5.95069">
        <ele>434.1</ele>
        <time>2017-01-07T15:12:28Z</time>
      </trkpt>
      <trkpt lat="44.05096" lon="5.95068">
        <ele>434.1</ele>
        <time>2017-01-07T15:12:29Z</time>
      </trkpt>
      <trkpt lat="44.05099" lon="5.95066">
        <ele>434.1</ele>
        <time>2017-01-07T15:12:30Z</time>
      </trkpt>
      <trkpt lat="44.05102" lon="5.95065">
        <ele>434.1</ele>
        <time>2017-01-07T15:12:31Z</time>
      </trkpt>
      <trkpt lat="44.05104" lon="5.95064">
        <ele>434.1</ele>
        <time>2017-01-07T15:12:32Z</time>
      </trkpt>
      <trkpt lat="44.05107" lon="5.95063">
        <ele>434.1</ele>
        <time>2017-01-07T15:12:33Z</time>
      </trkpt>
      <trkpt lat="44.0511" lon="5.95061">
        <ele>434.1</ele>
        <time>2017-01-07T15:12:34Z</time>
      </trkpt>
      <trkpt lat="44.05113" lon="5.9506">
        <ele>434.1</ele>
        <time>2017-01-07T15:12:35Z</time>
      </trkpt>
      <trkpt lat="44.05116" lon="5.95058">
        <ele>434.1</ele>
        <time>2017-01-07T15:12:36Z</time>
      </trkpt>
      <trkpt lat="44.05118" lon="5.95057">
        <ele>434.2</ele>
        <time>2017-01-07T15:12:37Z</time>
      </trkpt>
      <trkpt lat="44.05121" lon="5.95055">
        <ele>434.2</ele>
        <time>2017-01-07T15:12:38Z</time>
      </trkpt>
      <trkpt lat="44.05124" lon="5.95053">
        <ele>434.2</ele>
        <time>2017-01-07T15:12:39Z</time>
      </trkpt>
      <trkpt lat="44.05127" lon="5.95051">
        <ele>434.3</ele>
        <time>2017-01-07T15:12:40Z</time>
      </trkpt>
      <trkpt lat="44.0513" lon="5.9505">
        <ele>434.3</ele>
        <time>2017-01-07T15:12:41Z</time>
      </trkpt>
      <trkpt lat="44.05133" lon="5.95048">
        <ele>434.3</ele>
        <time>2017-01-07T15:12:42Z</time>
      </trkpt>
      <trkpt lat="44.05136" lon="5.95047">
        <ele>434.3</ele>
        <time>2017-01-07T15:12:43Z</time>
      </trkpt>
      <trkpt lat="44.05139" lon="5.95045">
        <ele>434.4</ele>
        <time>2017-01-07T15:12:44Z</time>
      </trkpt>
      <trkpt lat="44.05142" lon="5.95043">
        <ele>434.4</ele>
        <time>2017-01-07T15:12:45Z</time>
      </trkpt>
      <trkpt lat="44.05145" lon="5.95041">
        <ele>434.4</ele>
        <time>2017-01-07T15:12:46Z</time>
      </trkpt>
      <trkpt lat="44.05148" lon="5.9504">
        <ele>434.4</ele>
        <time>2017-01-07T15:12:47Z</time>
      </trkpt>
      <trkpt lat="44.05152" lon="5.95037">
        <ele>434.5</ele>
        <time>2017-01-07T15:12:48Z</time>
      </trkpt>
      <trkpt lat="44.05155" lon="5.95035">
        <ele>434.6</ele>
        <time>2017-01-07T15:12:49Z</time>
      </trkpt>
      <trkpt lat="44.05158" lon="5.95033">
        <ele>434.7</ele>
        <time>2017-01-07T15:12:50Z</time>
      </trkpt>
      <trkpt lat="44.05162" lon="5.95031">
        <ele>434.8</ele>
        <time>2017-01-07T15:12:51Z</time>
      </trkpt>
      <trkpt lat="44.05164" lon="5.95029">
        <ele>434.9</ele>
        <time>2017-01-07T15:12:52Z</time>
      </trkpt>
      <trkpt lat="44.05167" lon="5.95027">
        <ele>435</ele>
        <time>2017-01-07T15:12:53Z</time>
      </trkpt>
      <trkpt lat="44.0517" lon="5.95025">
        <ele>435.2</ele>
        <time>2017-01-07T15:12:54Z</time>
      </trkpt>
      <trkpt lat="44.05173" lon="5.95024">
        <ele>435.3</ele>
        <time>2017-01-07T15:12:55Z</time>
      </trkpt>
      <trkpt lat="44.05176" lon="5.95022">
        <ele>435.4</ele>
        <time>2017-01-07T15:12:56Z</time>
      </trkpt>
      <trkpt lat="44.05179" lon="5.9502">
        <ele>435.6</ele>
        <time>2017-01-07T15:12:57Z</time>
      </trkpt>
      <trkpt lat="44.05183" lon="5.95018">
        <ele>435.7</ele>
        <time>2017-01-07T15:12:58Z</time>
      </trkpt>
      <trkpt lat="44.05186" lon="5.95016">
        <ele>435.8</ele>
        <time>2017-01-07T15:12:59Z</time>
      </trkpt>
      <trkpt lat="44.05189" lon="5.95014">
        <ele>435.9</ele>
        <time>2017-01-07T15:13:00Z</time>
      </trkpt>
      <trkpt lat="44.05192" lon="5.95012">
        <ele>436</ele>
        <time>2017-01-07T15:13:01Z</time>
      </trkpt>
      <trkpt lat="44.05195" lon="5.9501">
        <ele>436.1</ele>
        <time>2017-01-07T15:13:02Z</time>
      </trkpt>
      <trkpt lat="44.05197" lon="5.95008">
        <ele>436.2</ele>
        <time>2017-01-07T15:13:03Z</time>
      </trkpt>
      <trkpt lat="44.052" lon="5.95006">
        <ele>436.3</ele>
        <time>2017-01-07T15:13:04Z</time>
      </trkpt>
      <trkpt lat="44.05203" lon="5.95004">
        <ele>436.4</ele>
        <time>2017-01-07T15:13:05Z</time>
      </trkpt>
      <trkpt lat="44.05206" lon="5.95002">
        <ele>436.5</ele>
        <time>2017-01-07T15:13:06Z</time>
      </trkpt>
      <trkpt lat="44.0521" lon="5.94999">
        <ele>436.7</ele>
        <time>2017-01-07T15:13:08Z</time>
      </trkpt>
      <trkpt lat="44.05215" lon="5.94996">
        <ele>436.9</ele>
        <time>2017-01-07T15:13:10Z</time>
      </trkpt>
      <trkpt lat="44.05218" lon="5.94995">
        <ele>437</ele>
        <time>2017-01-07T15:13:11Z</time>
      </trkpt>
      <trkpt lat="44.05222" lon="5.94993">
        <ele>437.1</ele>
        <time>2017-01-07T15:13:12Z</time>
      </trkpt>
      <trkpt lat="44.05225" lon="5.94991">
        <ele>437.2</ele>
        <time>2017-01-07T15:13:13Z</time>
      </trkpt>
      <trkpt lat="44.05228" lon="5.9499">
        <ele>437.3</ele>
        <time>2017-01-07T15:13:14Z</time>
      </trkpt>
      <trkpt lat="44.05232" lon="5.94989">
        <ele>437.4</ele>
        <time>2017-01-07T15:13:15Z</time>
      </trkpt>
      <trkpt lat="44.05235" lon="5.94988">
        <ele>437.5</ele>
        <time>2017-01-07T15:13:16Z</time>
      </trkpt>
      <trkpt lat="44.05238" lon="5.94987">
        <ele>437.6</ele>
        <time>2017-01-07T15:13:17Z</time>
      </trkpt>
      <trkpt lat="44.05241" lon="5.94986">
        <ele>437.7</ele>
        <time>2017-01-07T15:13:18Z</time>
      </trkpt>
      <trkpt lat="44.05244" lon="5.94985">
        <ele>437.7</ele>
        <time>2017-01-07T15:13:19Z</time>
      </trkpt>
      <trkpt lat="44.05246" lon="5.94984">
        <ele>437.8</ele>
        <time>2017-01-07T15:13:20Z</time>
      </trkpt>
      <trkpt lat="44.05249" lon="5.94983">
        <ele>437.8</ele>
        <time>2017-01-07T15:13:21Z</time>
      </trkpt>
      <trkpt lat="44.05253" lon="5.94983">
        <ele>437.9</ele>
        <time>2017-01-07T15:13:22Z</time>
      </trkpt>
      <trkpt lat="44.05256" lon="5.94982">
        <ele>438</ele>
        <time>2017-01-07T15:13:23Z</time>
      </trkpt>
      <trkpt lat="44.05258" lon="5.94981">
        <ele>438</ele>
        <time>2017-01-07T15:13:24Z</time>
      </trkpt>
      <trkpt lat="44.05261" lon="5.9498">
        <ele>438.1</ele>
        <time>2017-01-07T15:13:25Z</time>
      </trkpt>
      <trkpt lat="44.05264" lon="5.94979">
        <ele>438.1</ele>
        <time>2017-01-07T15:13:26Z</time>
      </trkpt>
      <trkpt lat="44.05267" lon="5.94978">
        <ele>438.2</ele>
        <time>2017-01-07T15:13:27Z</time>
      </trkpt>
      <trkpt lat="44.0527" lon="5.94977">
        <ele>438.2</ele>
        <time>2017-01-07T15:13:28Z</time>
      </trkpt>
      <trkpt lat="44.05273" lon="5.94977">
        <ele>438.3</ele>
        <time>2017-01-07T15:13:29Z</time>
      </trkpt>
      <trkpt lat="44.05278" lon="5.94976">
        <ele>438.5</ele>
        <time>2017-01-07T15:13:31Z</time>
      </trkpt>
      <trkpt lat="44.05281" lon="5.94975">
        <ele>438.6</ele>
        <time>2017-01-07T15:13:32Z</time>
      </trkpt>
      <trkpt lat="44.05284" lon="5.94974">
        <ele>438.7</ele>
        <time>2017-01-07T15:13:33Z</time>
      </trkpt>
      <trkpt lat="44.05287" lon="5.94974">
        <ele>438.7</ele>
        <time>2017-01-07T15:13:34Z</time>
      </trkpt>
      <trkpt lat="44.0529" lon="5.94973">
        <ele>438.8</ele>
        <time>2017-01-07T15:13:35Z</time>
      </trkpt>
      <trkpt lat="44.05293" lon="5.94972">
        <ele>438.9</ele>
        <time>2017-01-07T15:13:36Z</time>
      </trkpt>
      <trkpt lat="44.05296" lon="5.94972">
        <ele>439</ele>
        <time>2017-01-07T15:13:37Z</time>
      </trkpt>
      <trkpt lat="44.05299" lon="5.94971">
        <ele>439.1</ele>
        <time>2017-01-07T15:13:38Z</time>
      </trkpt>
      <trkpt lat="44.05302" lon="5.94971">
        <ele>439.2</ele>
        <time>2017-01-07T15:13:39Z</time>
      </trkpt>
      <trkpt lat="44.05306" lon="5.9497">
        <ele>439.3</ele>
        <time>2017-01-07T15:13:40Z</time>
      </trkpt>
      <trkpt lat="44.05309" lon="5.94969">
        <ele>439.4</ele>
        <time>2017-01-07T15:13:41Z</time>
      </trkpt>
      <trkpt lat="44.05312" lon="5.94968">
        <ele>439.4</ele>
        <time>2017-01-07T15:13:42Z</time>
      </trkpt>
      <trkpt lat="44.05315" lon="5.94967">
        <ele>439.4</ele>
        <time>2017-01-07T15:13:43Z</time>
      </trkpt>
      <trkpt lat="44.05318" lon="5.94966">
        <ele>439.5</ele>
        <time>2017-01-07T15:13:44Z</time>
      </trkpt>
      <trkpt lat="44.05321" lon="5.94965">
        <ele>439.5</ele>
        <time>2017-01-07T15:13:45Z</time>
      </trkpt>
      <trkpt lat="44.05323" lon="5.94965">
        <ele>439.5</ele>
        <time>2017-01-07T15:13:46Z</time>
      </trkpt>
      <trkpt lat="44.05328" lon="5.94963">
        <ele>439.6</ele>
        <time>2017-01-07T15:13:48Z</time>
      </trkpt>
      <trkpt lat="44.05332" lon="5.94963">
        <ele>439.6</ele>
        <time>2017-01-07T15:13:50Z</time>
      </trkpt>
      <trkpt lat="44.05337" lon="5.94961">
        <ele>439.7</ele>
        <time>2017-01-07T15:13:52Z</time>
      </trkpt>
      <trkpt lat="44.05343" lon="5.9496">
        <ele>439.8</ele>
        <time>2017-01-07T15:13:54Z</time>
      </trkpt>
      <trkpt lat="44.05346" lon="5.94959">
        <ele>439.8</ele>
        <time>2017-01-07T15:13:55Z</time>
      </trkpt>
      <trkpt lat="44.05348" lon="5.94957">
        <ele>439.8</ele>
        <time>2017-01-07T15:13:56Z</time>
      </trkpt>
      <trkpt lat="44.05353" lon="5.94954">
        <ele>439.9</ele>
        <time>2017-01-07T15:13:58Z</time>
      </trkpt>
      <trkpt lat="44.05356" lon="5.94951">
        <ele>440</ele>
        <time>2017-01-07T15:14:00Z</time>
      </trkpt>
      <trkpt lat="44.0536" lon="5.94948">
        <ele>441.2</ele>
        <time>2017-01-07T15:14:02Z</time>
      </trkpt>
      <trkpt lat="44.05363" lon="5.94945">
        <ele>442.3</ele>
        <time>2017-01-07T15:14:04Z</time>
      </trkpt>
      <trkpt lat="44.05367" lon="5.94943">
        <ele>443.4</ele>
        <time>2017-01-07T15:14:06Z</time>
      </trkpt>
      <trkpt lat="44.0537" lon="5.9494">
        <ele>444.3</ele>
        <time>2017-01-07T15:14:08Z</time>
      </trkpt>
      <trkpt lat="44.05372" lon="5.94936">
        <ele>445.2</ele>
        <time>2017-01-07T15:14:10Z</time>
      </trkpt>
      <trkpt lat="44.05375" lon="5.94933">
        <ele>446.3</ele>
        <time>2017-01-07T15:14:12Z</time>
      </trkpt>
      <trkpt lat="44.0538" lon="5.94931">
        <ele>447.8</ele>
        <time>2017-01-07T15:14:14Z</time>
      </trkpt>
      <trkpt lat="44.05383" lon="5.94929">
        <ele>448.6</ele>
        <time>2017-01-07T15:14:15Z</time>
      </trkpt>
      <trkpt lat="44.05386" lon="5.94928">
        <ele>449.4</ele>
        <time>2017-01-07T15:14:16Z</time>
      </trkpt>
      <trkpt lat="44.05389" lon="5.94927">
        <ele>450.3</ele>
        <time>2017-01-07T15:14:17Z</time>
      </trkpt>
      <trkpt lat="44.05392" lon="5.94926">
        <ele>451.1</ele>
        <time>2017-01-07T15:14:18Z</time>
      </trkpt>
      <trkpt lat="44.05394" lon="5.94925">
        <ele>451.8</ele>
        <time>2017-01-07T15:14:19Z</time>
      </trkpt>
      <trkpt lat="44.05398" lon="5.94921">
        <ele>453.2</ele>
        <time>2017-01-07T15:14:21Z</time>
      </trkpt>
      <trkpt lat="44.05401" lon="5.94919">
        <ele>454</ele>
        <time>2017-01-07T15:14:22Z</time>
      </trkpt>
      <trkpt lat="44.05405" lon="5.94915">
        <ele>455.5</ele>
        <time>2017-01-07T15:14:24Z</time>
      </trkpt>
      <trkpt lat="44.05407" lon="5.94913">
        <ele>456.3</ele>
        <time>2017-01-07T15:14:25Z</time>
      </trkpt>
      <trkpt lat="44.0541" lon="5.94912">
        <ele>457.1</ele>
        <time>2017-01-07T15:14:26Z</time>
      </trkpt>
      <trkpt lat="44.05413" lon="5.9491">
        <ele>458</ele>
        <time>2017-01-07T15:14:27Z</time>
      </trkpt>
      <trkpt lat="44.05417" lon="5.9491">
        <ele>458.1</ele>
        <time>2017-01-07T15:14:28Z</time>
      </trkpt>
      <trkpt lat="44.0542" lon="5.94909">
        <ele>458.3</ele>
        <time>2017-01-07T15:14:29Z</time>
      </trkpt>
      <trkpt lat="44.05423" lon="5.9491">
        <ele>458.4</ele>
        <time>2017-01-07T15:14:30Z</time>
      </trkpt>
      <trkpt lat="44.05427" lon="5.94911">
        <ele>458.5</ele>
        <time>2017-01-07T15:14:31Z</time>
      </trkpt>
      <trkpt lat="44.0543" lon="5.94913">
        <ele>458.7</ele>
        <time>2017-01-07T15:14:32Z</time>
      </trkpt>
      <trkpt lat="44.05434" lon="5.94915">
        <ele>458.8</ele>
        <time>2017-01-07T15:14:33Z</time>
      </trkpt>
      <trkpt lat="44.05437" lon="5.94915">
        <ele>459</ele>
        <time>2017-01-07T15:14:34Z</time>
      </trkpt>
      <trkpt lat="44.05441" lon="5.94914">
        <ele>459.1</ele>
        <time>2017-01-07T15:14:35Z</time>
      </trkpt>
      <trkpt lat="44.05444" lon="5.94911">
        <ele>459.2</ele>
        <time>2017-01-07T15:14:37Z</time>
      </trkpt>
      <trkpt lat="44.05448" lon="5.94906">
        <ele>459.4</ele>
        <time>2017-01-07T15:14:39Z</time>
      </trkpt>
      <trkpt lat="44.05451" lon="5.94903">
        <ele>459.5</ele>
        <time>2017-01-07T15:14:40Z</time>
      </trkpt>
      <trkpt lat="44.05454" lon="5.94899">
        <ele>459.7</ele>
        <time>2017-01-07T15:14:41Z</time>
      </trkpt>
      <trkpt lat="44.05458" lon="5.94896">
        <ele>459.8</ele>
        <time>2017-01-07T15:14:42Z</time>
      </trkpt>
      <trkpt lat="44.05462" lon="5.94894">
        <ele>459.9</ele>
        <time>2017-01-07T15:14:43Z</time>
      </trkpt>
      <trkpt lat="44.05466" lon="5.94892">
        <ele>460</ele>
        <time>2017-01-07T15:14:44Z</time>
      </trkpt>
      <trkpt lat="44.0547" lon="5.94889">
        <ele>460.2</ele>
        <time>2017-01-07T15:14:45Z</time>
      </trkpt>
      <trkpt lat="44.05477" lon="5.94881">
        <ele>460.5</ele>
        <time>2017-01-07T15:14:46Z</time>
      </trkpt>
      <trkpt lat="44.05483" lon="5.94882">
        <ele>460.9</ele>
        <time>2017-01-07T15:14:47Z</time>
      </trkpt>
      <trkpt lat="44.05487" lon="5.94885">
        <ele>461</ele>
        <time>2017-01-07T15:14:48Z</time>
      </trkpt>
      <trkpt lat="44.05487" lon="5.94892">
        <ele>461</ele>
        <time>2017-01-07T15:14:49Z</time>
      </trkpt>
      <trkpt lat="44.05487" lon="5.94898">
        <ele>461</ele>
        <time>2017-01-07T15:14:50Z</time>
      </trkpt>
      <trkpt lat="44.05485" lon="5.94903">
        <ele>461</ele>
        <time>2017-01-07T15:14:51Z</time>
      </trkpt>
      <trkpt lat="44.05484" lon="5.94913">
        <ele>457.3</ele>
        <time>2017-01-07T15:14:53Z</time>
      </trkpt>
      <trkpt lat="44.05481" lon="5.94911">
        <ele>455.6</ele>
        <time>2017-01-07T15:14:54Z</time>
      </trkpt>
      <trkpt lat="44.05478" lon="5.94915">
        <ele>453.5</ele>
        <time>2017-01-07T15:14:56Z</time>
      </trkpt>
      <trkpt lat="44.05475" lon="5.94919">
        <ele>451.5</ele>
        <time>2017-01-07T15:14:57Z</time>
      </trkpt>
      <trkpt lat="44.05474" lon="5.94923">
        <ele>450.1</ele>
        <time>2017-01-07T15:14:58Z</time>
      </trkpt>
      <trkpt lat="44.05474" lon="5.94928">
        <ele>448.4</ele>
        <time>2017-01-07T15:14:59Z</time>
      </trkpt>
      <trkpt lat="44.05472" lon="5.94934">
        <ele>446.3</ele>
        <time>2017-01-07T15:15:01Z</time>
      </trkpt>
      <trkpt lat="44.05471" lon="5.94939">
        <ele>444.6</ele>
        <time>2017-01-07T15:15:03Z</time>
      </trkpt>
      <trkpt lat="44.05471" lon="5.94943">
        <ele>443</ele>
        <time>2017-01-07T15:15:05Z</time>
      </trkpt>
      <trkpt lat="44.05471" lon="5.94947">
        <ele>441.7</ele>
        <time>2017-01-07T15:15:07Z</time>
      </trkpt>
      <trkpt lat="44.05471" lon="5.94952">
        <ele>440.2</ele>
        <time>2017-01-07T15:15:10Z</time>
      </trkpt>
      <trkpt lat="44.05472" lon="5.94956">
        <ele>440</ele>
        <time>2017-01-07T15:15:12Z</time>
      </trkpt>
      <trkpt lat="44.05474" lon="5.94962">
        <ele>440</ele>
        <time>2017-01-07T15:15:14Z</time>
      </trkpt>
      <trkpt lat="44.05476" lon="5.94968">
        <ele>439.5</ele>
        <time>2017-01-07T15:15:16Z</time>
      </trkpt>
      <trkpt lat="44.05478" lon="5.94974">
        <ele>438.8</ele>
        <time>2017-01-07T15:15:18Z</time>
      </trkpt>
      <trkpt lat="44.05479" lon="5.9498">
        <ele>438</ele>
        <time>2017-01-07T15:15:20Z</time>
      </trkpt>
      <trkpt lat="44.0548" lon="5.94986">
        <ele>437</ele>
        <time>2017-01-07T15:15:22Z</time>
      </trkpt>
      <trkpt lat="44.05481" lon="5.94992">
        <ele>436.2</ele>
        <time>2017-01-07T15:15:24Z</time>
      </trkpt>
      <trkpt lat="44.05483" lon="5.94996">
        <ele>435.5</ele>
        <time>2017-01-07T15:15:26Z</time>
      </trkpt>
      <trkpt lat="44.05484" lon="5.95">
        <ele>434.7</ele>
        <time>2017-01-07T15:15:28Z</time>
      </trkpt>
      <trkpt lat="44.05486" lon="5.95004">
        <ele>433.9</ele>
        <time>2017-01-07T15:15:30Z</time>
      </trkpt>
      <trkpt lat="44.05488" lon="5.95007">
        <ele>433.3</ele>
        <time>2017-01-07T15:15:32Z</time>
      </trkpt>
      <trkpt lat="44.05491" lon="5.95012">
        <ele>433</ele>
        <time>2017-01-07T15:15:35Z</time>
      </trkpt>
      <trkpt lat="44.05494" lon="5.95015">
        <ele>432.9</ele>
        <time>2017-01-07T15:15:37Z</time>
      </trkpt>
      <trkpt lat="44.05497" lon="5.95019">
        <ele>432.7</ele>
        <time>2017-01-07T15:15:39Z</time>
      </trkpt>
      <trkpt lat="44.055" lon="5.95023">
        <ele>432.8</ele>
        <time>2017-01-07T15:15:41Z</time>
      </trkpt>
      <trkpt lat="44.05503" lon="5.95027">
        <ele>432.9</ele>
        <time>2017-01-07T15:15:43Z</time>
      </trkpt>
      <trkpt lat="44.05505" lon="5.95032">
        <ele>433</ele>
        <time>2017-01-07T15:15:45Z</time>
      </trkpt>
      <trkpt lat="44.05508" lon="5.95035">
        <ele>433</ele>
        <time>2017-01-07T15:15:47Z</time>
      </trkpt>
      <trkpt lat="44.05511" lon="5.95038">
        <ele>433.8</ele>
        <time>2017-01-07T15:15:49Z</time>
      </trkpt>
      <trkpt lat="44.05514" lon="5.95039">
        <ele>434.7</ele>
        <time>2017-01-07T15:15:51Z</time>
      </trkpt>
      <trkpt lat="44.05517" lon="5.95037">
        <ele>435.5</ele>
        <time>2017-01-07T15:15:53Z</time>
      </trkpt>
      <trkpt lat="44.05519" lon="5.95033">
        <ele>436.5</ele>
        <time>2017-01-07T15:15:55Z</time>
      </trkpt>
      <trkpt lat="44.05519" lon="5.95029">
        <ele>437.4</ele>
        <time>2017-01-07T15:15:57Z</time>
      </trkpt>
      <trkpt lat="44.05521" lon="5.95025">
        <ele>438.3</ele>
        <time>2017-01-07T15:15:59Z</time>
      </trkpt>
      <trkpt lat="44.05521" lon="5.95021">
        <ele>438.5</ele>
        <time>2017-01-07T15:16:01Z</time>
      </trkpt>
      <trkpt lat="44.05521" lon="5.95016">
        <ele>438.6</ele>
        <time>2017-01-07T15:16:04Z</time>
      </trkpt>
      <trkpt lat="44.05521" lon="5.95012">
        <ele>438.8</ele>
        <time>2017-01-07T15:16:06Z</time>
      </trkpt>
      <trkpt lat="44.0552" lon="5.95007">
        <ele>439.3</ele>
        <time>2017-01-07T15:16:08Z</time>
      </trkpt>
      <trkpt lat="44.0552" lon="5.95002">
        <ele>439.7</ele>
        <time>2017-01-07T15:16:10Z</time>
      </trkpt>
      <trkpt lat="44.0552" lon="5.94997">
        <ele>440.1</ele>
        <time>2017-01-07T15:16:12Z</time>
      </trkpt>
      <trkpt lat="44.05519" lon="5.94992">
        <ele>440.4</ele>
        <time>2017-01-07T15:16:14Z</time>
      </trkpt>
      <trkpt lat="44.05519" lon="5.94988">
        <ele>440.6</ele>
        <time>2017-01-07T15:16:16Z</time>
      </trkpt>
      <trkpt lat="44.05518" lon="5.94984">
        <ele>440.6</ele>
        <time>2017-01-07T15:16:18Z</time>
      </trkpt>
      <trkpt lat="44.05517" lon="5.94979">
        <ele>440.5</ele>
        <time>2017-01-07T15:16:20Z</time>
      </trkpt>
      <trkpt lat="44.05517" lon="5.94974">
        <ele>440.4</ele>
        <time>2017-01-07T15:16:22Z</time>
      </trkpt>
      <trkpt lat="44.05517" lon="5.94969">
        <ele>440.1</ele>
        <time>2017-01-07T15:16:24Z</time>
      </trkpt>
      <trkpt lat="44.05518" lon="5.94966">
        <ele>440</ele>
        <time>2017-01-07T15:16:26Z</time>
      </trkpt>
      <trkpt lat="44.05521" lon="5.94966">
        <ele>440.1</ele>
        <time>2017-01-07T15:16:36Z</time>
      </trkpt>
      <trkpt lat="44.05523" lon="5.9497">
        <ele>440.1</ele>
        <time>2017-01-07T15:16:40Z</time>
      </trkpt>
      <trkpt lat="44.05524" lon="5.94975">
        <ele>440.2</ele>
        <time>2017-01-07T15:16:43Z</time>
      </trkpt>
      <trkpt lat="44.05525" lon="5.94979">
        <ele>440.8</ele>
        <time>2017-01-07T15:16:46Z</time>
      </trkpt>
      <trkpt lat="44.05526" lon="5.94984">
        <ele>442.3</ele>
        <time>2017-01-07T15:16:49Z</time>
      </trkpt>
      <trkpt lat="44.05527" lon="5.9499">
        <ele>442.9</ele>
        <time>2017-01-07T15:16:52Z</time>
      </trkpt>
      <trkpt lat="44.05528" lon="5.94994">
        <ele>443.1</ele>
        <time>2017-01-07T15:16:55Z</time>
      </trkpt>
      <trkpt lat="44.0553" lon="5.94998">
        <ele>443</ele>
        <time>2017-01-07T15:16:58Z</time>
      </trkpt>
      <trkpt lat="44.05531" lon="5.95002">
        <ele>443</ele>
        <time>2017-01-07T15:17:01Z</time>
      </trkpt>
      <trkpt lat="44.05533" lon="5.95006">
        <ele>442.9</ele>
        <time>2017-01-07T15:17:04Z</time>
      </trkpt>
      <trkpt lat="44.05534" lon="5.9501">
        <ele>442.9</ele>
        <time>2017-01-07T15:17:06Z</time>
      </trkpt>
      <trkpt lat="44.05535" lon="5.95013">
        <ele>443.1</ele>
        <time>2017-01-07T15:17:08Z</time>
      </trkpt>
      <trkpt lat="44.05537" lon="5.95017">
        <ele>443.4</ele>
        <time>2017-01-07T15:17:11Z</time>
      </trkpt>
      <trkpt lat="44.0554" lon="5.95021">
        <ele>443.6</ele>
        <time>2017-01-07T15:17:14Z</time>
      </trkpt>
      <trkpt lat="44.05542" lon="5.95024">
        <ele>443.8</ele>
        <time>2017-01-07T15:17:16Z</time>
      </trkpt>
      <trkpt lat="44.05544" lon="5.95026">
        <ele>443.9</ele>
        <time>2017-01-07T15:17:18Z</time>
      </trkpt>
      <trkpt lat="44.05546" lon="5.95029">
        <ele>443.9</ele>
        <time>2017-01-07T15:17:20Z</time>
      </trkpt>
      <trkpt lat="44.05549" lon="5.9503">
        <ele>444.2</ele>
        <time>2017-01-07T15:17:22Z</time>
      </trkpt>
      <trkpt lat="44.05552" lon="5.95032">
        <ele>444.6</ele>
        <time>2017-01-07T15:17:24Z</time>
      </trkpt>
      <trkpt lat="44.05554" lon="5.95035">
        <ele>445.2</ele>
        <time>2017-01-07T15:17:27Z</time>
      </trkpt>
      <trkpt lat="44.05557" lon="5.95038">
        <ele>445.8</ele>
        <time>2017-01-07T15:17:30Z</time>
      </trkpt>
      <trkpt lat="44.05561" lon="5.9504">
        <ele>446.4</ele>
        <time>2017-01-07T15:17:33Z</time>
      </trkpt>
      <trkpt lat="44.05564" lon="5.95041">
        <ele>446.9</ele>
        <time>2017-01-07T15:17:35Z</time>
      </trkpt>
      <trkpt lat="44.05567" lon="5.95042">
        <ele>447.1</ele>
        <time>2017-01-07T15:17:37Z</time>
      </trkpt>
      <trkpt lat="44.0557" lon="5.95042">
        <ele>447.4</ele>
        <time>2017-01-07T15:17:39Z</time>
      </trkpt>
      <trkpt lat="44.05573" lon="5.95044">
        <ele>447.6</ele>
        <time>2017-01-07T15:17:41Z</time>
      </trkpt>
      <trkpt lat="44.05577" lon="5.95045">
        <ele>448.1</ele>
        <time>2017-01-07T15:17:44Z</time>
      </trkpt>
      <trkpt lat="44.0558" lon="5.95048">
        <ele>448.5</ele>
        <time>2017-01-07T15:17:47Z</time>
      </trkpt>
      <trkpt lat="44.05583" lon="5.95049">
        <ele>448.6</ele>
        <time>2017-01-07T15:17:49Z</time>
      </trkpt>
      <trkpt lat="44.05586" lon="5.95051">
        <ele>448.7</ele>
        <time>2017-01-07T15:17:51Z</time>
      </trkpt>
      <trkpt lat="44.05589" lon="5.95053">
        <ele>449.1</ele>
        <time>2017-01-07T15:17:53Z</time>
      </trkpt>
      <trkpt lat="44.05591" lon="5.95055">
        <ele>449.7</ele>
        <time>2017-01-07T15:17:55Z</time>
      </trkpt>
      <trkpt lat="44.05595" lon="5.95057">
        <ele>450.4</ele>
        <time>2017-01-07T15:17:58Z</time>
      </trkpt>
      <trkpt lat="44.05598" lon="5.95059">
        <ele>451.4</ele>
        <time>2017-01-07T15:18:01Z</time>
      </trkpt>
      <trkpt lat="44.05601" lon="5.95061">
        <ele>452.4</ele>
        <time>2017-01-07T15:18:04Z</time>
      </trkpt>
      <trkpt lat="44.05604" lon="5.95063">
        <ele>452.3</ele>
        <time>2017-01-07T15:18:06Z</time>
      </trkpt>
      <trkpt lat="44.05607" lon="5.95065">
        <ele>452.2</ele>
        <time>2017-01-07T15:18:08Z</time>
      </trkpt>
      <trkpt lat="44.0561" lon="5.95069">
        <ele>452.4</ele>
        <time>2017-01-07T15:18:11Z</time>
      </trkpt>
      <trkpt lat="44.05613" lon="5.95072">
        <ele>452.7</ele>
        <time>2017-01-07T15:18:14Z</time>
      </trkpt>
      <trkpt lat="44.05616" lon="5.95074">
        <ele>453</ele>
        <time>2017-01-07T15:18:16Z</time>
      </trkpt>
      <trkpt lat="44.05619" lon="5.95076">
        <ele>453</ele>
        <time>2017-01-07T15:18:18Z</time>
      </trkpt>
      <trkpt lat="44.05621" lon="5.95078">
        <ele>452.9</ele>
        <time>2017-01-07T15:18:20Z</time>
      </trkpt>
      <trkpt lat="44.05624" lon="5.95082">
        <ele>453.4</ele>
        <time>2017-01-07T15:18:23Z</time>
      </trkpt>
      <trkpt lat="44.05626" lon="5.95085">
        <ele>453.8</ele>
        <time>2017-01-07T15:18:26Z</time>
      </trkpt>
      <trkpt lat="44.05629" lon="5.95089">
        <ele>454</ele>
        <time>2017-01-07T15:18:29Z</time>
      </trkpt>
      <trkpt lat="44.05632" lon="5.95091">
        <ele>454</ele>
        <time>2017-01-07T15:18:32Z</time>
      </trkpt>
      <trkpt lat="44.05636" lon="5.95094">
        <ele>453.7</ele>
        <time>2017-01-07T15:18:35Z</time>
      </trkpt>
      <trkpt lat="44.05639" lon="5.95096">
        <ele>453.4</ele>
        <time>2017-01-07T15:18:38Z</time>
      </trkpt>
      <trkpt lat="44.05642" lon="5.95099">
        <ele>453.2</ele>
        <time>2017-01-07T15:18:41Z</time>
      </trkpt>
      <trkpt lat="44.05645" lon="5.95102">
        <ele>452.8</ele>
        <time>2017-01-07T15:18:44Z</time>
      </trkpt>
      <trkpt lat="44.05648" lon="5.95106">
        <ele>452.3</ele>
        <time>2017-01-07T15:18:47Z</time>
      </trkpt>
      <trkpt lat="44.0565" lon="5.95108">
        <ele>452</ele>
        <time>2017-01-07T15:18:49Z</time>
      </trkpt>
      <trkpt lat="44.05652" lon="5.95111">
        <ele>452.1</ele>
        <time>2017-01-07T15:18:51Z</time>
      </trkpt>
      <trkpt lat="44.05656" lon="5.95114">
        <ele>452.1</ele>
        <time>2017-01-07T15:18:54Z</time>
      </trkpt>
      <trkpt lat="44.05659" lon="5.95117">
        <ele>452</ele>
        <time>2017-01-07T15:18:57Z</time>
      </trkpt>
      <trkpt lat="44.05661" lon="5.9512">
        <ele>451.8</ele>
        <time>2017-01-07T15:18:59Z</time>
      </trkpt>
      <trkpt lat="44.05663" lon="5.95123">
        <ele>451.6</ele>
        <time>2017-01-07T15:19:01Z</time>
      </trkpt>
      <trkpt lat="44.05665" lon="5.95127">
        <ele>451.8</ele>
        <time>2017-01-07T15:19:04Z</time>
      </trkpt>
      <trkpt lat="44.05667" lon="5.9513">
        <ele>452.1</ele>
        <time>2017-01-07T15:19:06Z</time>
      </trkpt>
      <trkpt lat="44.05669" lon="5.95133">
        <ele>452.3</ele>
        <time>2017-01-07T15:19:08Z</time>
      </trkpt>
      <trkpt lat="44.05671" lon="5.95137">
        <ele>452.8</ele>
        <time>2017-01-07T15:19:10Z</time>
      </trkpt>
      <trkpt lat="44.05675" lon="5.95139">
        <ele>453.4</ele>
        <time>2017-01-07T15:19:13Z</time>
      </trkpt>
      <trkpt lat="44.05677" lon="5.95141">
        <ele>453.8</ele>
        <time>2017-01-07T15:19:15Z</time>
      </trkpt>
      <trkpt lat="44.0568" lon="5.95144">
        <ele>454.3</ele>
        <time>2017-01-07T15:19:18Z</time>
      </trkpt>
      <trkpt lat="44.05682" lon="5.95147">
        <ele>454.6</ele>
        <time>2017-01-07T15:19:20Z</time>
      </trkpt>
      <trkpt lat="44.05685" lon="5.9515">
        <ele>455.2</ele>
        <time>2017-01-07T15:19:23Z</time>
      </trkpt>
      <trkpt lat="44.05688" lon="5.95154">
        <ele>455.7</ele>
        <time>2017-01-07T15:19:26Z</time>
      </trkpt>
      <trkpt lat="44.05689" lon="5.95157">
        <ele>456.1</ele>
        <time>2017-01-07T15:19:29Z</time>
      </trkpt>
      <trkpt lat="44.05692" lon="5.9516">
        <ele>456.9</ele>
        <time>2017-01-07T15:19:32Z</time>
      </trkpt>
      <trkpt lat="44.05696" lon="5.95162">
        <ele>457.7</ele>
        <time>2017-01-07T15:19:34Z</time>
      </trkpt>
      <trkpt lat="44.05699" lon="5.95164">
        <ele>459.3</ele>
        <time>2017-01-07T15:19:36Z</time>
      </trkpt>
      <trkpt lat="44.05701" lon="5.95166">
        <ele>460.7</ele>
        <time>2017-01-07T15:19:38Z</time>
      </trkpt>
      <trkpt lat="44.05704" lon="5.9517">
        <ele>462.2</ele>
        <time>2017-01-07T15:19:41Z</time>
      </trkpt>
      <trkpt lat="44.05707" lon="5.95173">
        <ele>463.3</ele>
        <time>2017-01-07T15:19:44Z</time>
      </trkpt>
      <trkpt lat="44.05709" lon="5.95176">
        <ele>464.2</ele>
        <time>2017-01-07T15:19:47Z</time>
      </trkpt>
      <trkpt lat="44.05712" lon="5.95178">
        <ele>464.6</ele>
        <time>2017-01-07T15:19:49Z</time>
      </trkpt>
      <trkpt lat="44.05715" lon="5.9518">
        <ele>465.1</ele>
        <time>2017-01-07T15:19:51Z</time>
      </trkpt>
      <trkpt lat="44.05717" lon="5.95182">
        <ele>465.5</ele>
        <time>2017-01-07T15:19:53Z</time>
      </trkpt>
      <trkpt lat="44.05719" lon="5.95186">
        <ele>466</ele>
        <time>2017-01-07T15:19:56Z</time>
      </trkpt>
      <trkpt lat="44.05721" lon="5.95191">
        <ele>466.5</ele>
        <time>2017-01-07T15:19:59Z</time>
      </trkpt>
      <trkpt lat="44.05724" lon="5.95194">
        <ele>466.9</ele>
        <time>2017-01-07T15:20:02Z</time>
      </trkpt>
      <trkpt lat="44.05727" lon="5.95196">
        <ele>467.1</ele>
        <time>2017-01-07T15:20:04Z</time>
      </trkpt>
      <trkpt lat="44.05729" lon="5.95198">
        <ele>467.3</ele>
        <time>2017-01-07T15:20:06Z</time>
      </trkpt>
      <trkpt lat="44.05732" lon="5.952">
        <ele>467.4</ele>
        <time>2017-01-07T15:20:09Z</time>
      </trkpt>
      <trkpt lat="44.05735" lon="5.95201">
        <ele>467.4</ele>
        <time>2017-01-07T15:20:11Z</time>
      </trkpt>
      <trkpt lat="44.05738" lon="5.95203">
        <ele>467.7</ele>
        <time>2017-01-07T15:20:13Z</time>
      </trkpt>
      <trkpt lat="44.0574" lon="5.95206">
        <ele>468</ele>
        <time>2017-01-07T15:20:15Z</time>
      </trkpt>
      <trkpt lat="44.05742" lon="5.95209">
        <ele>468</ele>
        <time>2017-01-07T15:20:17Z</time>
      </trkpt>
      <trkpt lat="44.05744" lon="5.95212">
        <ele>467.5</ele>
        <time>2017-01-07T15:20:19Z</time>
      </trkpt>
      <trkpt lat="44.05747" lon="5.95216">
        <ele>467.2</ele>
        <time>2017-01-07T15:20:22Z</time>
      </trkpt>
      <trkpt lat="44.05749" lon="5.95217">
        <ele>467.3</ele>
        <time>2017-01-07T15:20:24Z</time>
      </trkpt>
      <trkpt lat="44.05753" lon="5.95218">
        <ele>467.6</ele>
        <time>2017-01-07T15:20:26Z</time>
      </trkpt>
      <trkpt lat="44.05755" lon="5.95221">
        <ele>467.2</ele>
        <time>2017-01-07T15:20:28Z</time>
      </trkpt>
      <trkpt lat="44.05758" lon="5.95223">
        <ele>466.9</ele>
        <time>2017-01-07T15:20:30Z</time>
      </trkpt>
      <trkpt lat="44.0576" lon="5.95225">
        <ele>466.9</ele>
        <time>2017-01-07T15:20:32Z</time>
      </trkpt>
      <trkpt lat="44.05763" lon="5.95228">
        <ele>467</ele>
        <time>2017-01-07T15:20:36Z</time>
      </trkpt>
      <trkpt lat="44.05766" lon="5.9523">
        <ele>467.1</ele>
        <time>2017-01-07T15:20:38Z</time>
      </trkpt>
      <trkpt lat="44.05768" lon="5.95232">
        <ele>466.7</ele>
        <time>2017-01-07T15:20:40Z</time>
      </trkpt>
      <trkpt lat="44.05771" lon="5.95234">
        <ele>466.2</ele>
        <time>2017-01-07T15:20:43Z</time>
      </trkpt>
      <trkpt lat="44.05775" lon="5.95237">
        <ele>466.1</ele>
        <time>2017-01-07T15:20:46Z</time>
      </trkpt>
      <trkpt lat="44.05778" lon="5.95238">
        <ele>466.1</ele>
        <time>2017-01-07T15:20:48Z</time>
      </trkpt>
      <trkpt lat="44.0578" lon="5.95241">
        <ele>466</ele>
        <time>2017-01-07T15:20:50Z</time>
      </trkpt>
      <trkpt lat="44.05783" lon="5.95243">
        <ele>465.6</ele>
        <time>2017-01-07T15:20:52Z</time>
      </trkpt>
      <trkpt lat="44.05785" lon="5.95246">
        <ele>465.2</ele>
        <time>2017-01-07T15:20:55Z</time>
      </trkpt>
      <trkpt lat="44.05788" lon="5.9525">
        <ele>465.4</ele>
        <time>2017-01-07T15:21:00Z</time>
      </trkpt>
      <trkpt lat="44.05791" lon="5.95252">
        <ele>465.8</ele>
        <time>2017-01-07T15:21:02Z</time>
      </trkpt>
      <trkpt lat="44.05794" lon="5.95254">
        <ele>465.7</ele>
        <time>2017-01-07T15:21:04Z</time>
      </trkpt>
      <trkpt lat="44.05799" lon="5.95256">
        <ele>465.2</ele>
        <time>2017-01-07T15:21:06Z</time>
      </trkpt>
      <trkpt lat="44.05803" lon="5.95259">
        <ele>465.5</ele>
        <time>2017-01-07T15:21:08Z</time>
      </trkpt>
      <trkpt lat="44.05806" lon="5.9526">
        <ele>465.8</ele>
        <time>2017-01-07T15:21:10Z</time>
      </trkpt>
      <trkpt lat="44.05809" lon="5.95261">
        <ele>465.8</ele>
        <time>2017-01-07T15:21:12Z</time>
      </trkpt>
      <trkpt lat="44.05812" lon="5.95262">
        <ele>465.8</ele>
        <time>2017-01-07T15:21:14Z</time>
      </trkpt>
      <trkpt lat="44.05816" lon="5.95264">
        <ele>466.9</ele>
        <time>2017-01-07T15:21:17Z</time>
      </trkpt>
      <trkpt lat="44.05819" lon="5.95266">
        <ele>467.9</ele>
        <time>2017-01-07T15:21:21Z</time>
      </trkpt>
      <trkpt lat="44.05822" lon="5.95268">
        <ele>468.1</ele>
        <time>2017-01-07T15:21:23Z</time>
      </trkpt>
      <trkpt lat="44.05826" lon="5.9527">
        <ele>468.4</ele>
        <time>2017-01-07T15:21:25Z</time>
      </trkpt>
      <trkpt lat="44.05829" lon="5.95271">
        <ele>468.8</ele>
        <time>2017-01-07T15:21:27Z</time>
      </trkpt>
      <trkpt lat="44.05832" lon="5.95274">
        <ele>469.1</ele>
        <time>2017-01-07T15:21:29Z</time>
      </trkpt>
      <trkpt lat="44.05835" lon="5.95275">
        <ele>469.4</ele>
        <time>2017-01-07T15:21:31Z</time>
      </trkpt>
      <trkpt lat="44.05839" lon="5.95277">
        <ele>469.5</ele>
        <time>2017-01-07T15:21:33Z</time>
      </trkpt>
      <trkpt lat="44.05842" lon="5.9528">
        <ele>469.5</ele>
        <time>2017-01-07T15:21:35Z</time>
      </trkpt>
      <trkpt lat="44.05844" lon="5.95283">
        <ele>469.4</ele>
        <time>2017-01-07T15:21:37Z</time>
      </trkpt>
      <trkpt lat="44.05847" lon="5.95285">
        <ele>469.1</ele>
        <time>2017-01-07T15:21:39Z</time>
      </trkpt>
      <trkpt lat="44.0585" lon="5.95287">
        <ele>469</ele>
        <time>2017-01-07T15:21:41Z</time>
      </trkpt>
      <trkpt lat="44.05853" lon="5.95289">
        <ele>469.1</ele>
        <time>2017-01-07T15:21:43Z</time>
      </trkpt>
      <trkpt lat="44.05857" lon="5.95291">
        <ele>469.3</ele>
        <time>2017-01-07T15:21:45Z</time>
      </trkpt>
      <trkpt lat="44.0586" lon="5.95293">
        <ele>469.7</ele>
        <time>2017-01-07T15:21:47Z</time>
      </trkpt>
      <trkpt lat="44.05863" lon="5.95296">
        <ele>470.1</ele>
        <time>2017-01-07T15:21:49Z</time>
      </trkpt>
      <trkpt lat="44.05864" lon="5.95299">
        <ele>470.5</ele>
        <time>2017-01-07T15:21:52Z</time>
      </trkpt>
      <trkpt lat="44.05863" lon="5.95303">
        <ele>471.1</ele>
        <time>2017-01-07T15:23:00Z</time>
      </trkpt>
      <trkpt lat="44.05866" lon="5.95305">
        <ele>471.8</ele>
        <time>2017-01-07T15:23:03Z</time>
      </trkpt>
      <trkpt lat="44.05869" lon="5.95308">
        <ele>472.4</ele>
        <time>2017-01-07T15:23:06Z</time>
      </trkpt>
      <trkpt lat="44.05871" lon="5.95311">
        <ele>472.8</ele>
        <time>2017-01-07T15:23:08Z</time>
      </trkpt>
      <trkpt lat="44.05873" lon="5.95313">
        <ele>473.2</ele>
        <time>2017-01-07T15:23:10Z</time>
      </trkpt>
      <trkpt lat="44.05876" lon="5.95316">
        <ele>473.3</ele>
        <time>2017-01-07T15:23:12Z</time>
      </trkpt>
      <trkpt lat="44.05878" lon="5.95318">
        <ele>473.3</ele>
        <time>2017-01-07T15:23:14Z</time>
      </trkpt>
      <trkpt lat="44.0588" lon="5.9532">
        <ele>473.3</ele>
        <time>2017-01-07T15:23:16Z</time>
      </trkpt>
      <trkpt lat="44.05883" lon="5.95322">
        <ele>473.8</ele>
        <time>2017-01-07T15:23:18Z</time>
      </trkpt>
      <trkpt lat="44.05886" lon="5.95324">
        <ele>474.3</ele>
        <time>2017-01-07T15:23:20Z</time>
      </trkpt>
      <trkpt lat="44.0589" lon="5.95326">
        <ele>475.7</ele>
        <time>2017-01-07T15:23:22Z</time>
      </trkpt>
      <trkpt lat="44.05893" lon="5.95328">
        <ele>477.4</ele>
        <time>2017-01-07T15:23:24Z</time>
      </trkpt>
      <trkpt lat="44.05897" lon="5.95329">
        <ele>478.8</ele>
        <time>2017-01-07T15:23:26Z</time>
      </trkpt>
      <trkpt lat="44.05901" lon="5.9533">
        <ele>479.7</ele>
        <time>2017-01-07T15:23:28Z</time>
      </trkpt>
      <trkpt lat="44.05904" lon="5.95332">
        <ele>480.4</ele>
        <time>2017-01-07T15:23:30Z</time>
      </trkpt>
      <trkpt lat="44.05909" lon="5.95335">
        <ele>480.9</ele>
        <time>2017-01-07T15:23:32Z</time>
      </trkpt>
      <trkpt lat="44.05912" lon="5.95338">
        <ele>481.4</ele>
        <time>2017-01-07T15:23:34Z</time>
      </trkpt>
      <trkpt lat="44.05914" lon="5.95341">
        <ele>481.8</ele>
        <time>2017-01-07T15:23:36Z</time>
      </trkpt>
      <trkpt lat="44.05916" lon="5.95345">
        <ele>481.6</ele>
        <time>2017-01-07T15:23:39Z</time>
      </trkpt>
      <trkpt lat="44.05919" lon="5.95348">
        <ele>481.6</ele>
        <time>2017-01-07T15:23:42Z</time>
      </trkpt>
      <trkpt lat="44.05922" lon="5.95352">
        <ele>482.3</ele>
        <time>2017-01-07T15:23:45Z</time>
      </trkpt>
      <trkpt lat="44.05925" lon="5.95357">
        <ele>483.1</ele>
        <time>2017-01-07T15:23:48Z</time>
      </trkpt>
      <trkpt lat="44.05927" lon="5.95361">
        <ele>483.7</ele>
        <time>2017-01-07T15:23:50Z</time>
      </trkpt>
      <trkpt lat="44.05928" lon="5.95366">
        <ele>484.3</ele>
        <time>2017-01-07T15:23:52Z</time>
      </trkpt>
      <trkpt lat="44.0593" lon="5.95369">
        <ele>484.6</ele>
        <time>2017-01-07T15:23:54Z</time>
      </trkpt>
      <trkpt lat="44.05933" lon="5.95371">
        <ele>484.8</ele>
        <time>2017-01-07T15:23:56Z</time>
      </trkpt>
      <trkpt lat="44.05935" lon="5.95373">
        <ele>484.3</ele>
        <time>2017-01-07T15:23:58Z</time>
      </trkpt>
      <trkpt lat="44.05938" lon="5.95374">
        <ele>483.6</ele>
        <time>2017-01-07T15:24:00Z</time>
      </trkpt>
      <trkpt lat="44.05941" lon="5.95377">
        <ele>483.9</ele>
        <time>2017-01-07T15:24:02Z</time>
      </trkpt>
      <trkpt lat="44.05944" lon="5.9538">
        <ele>484.6</ele>
        <time>2017-01-07T15:24:04Z</time>
      </trkpt>
      <trkpt lat="44.05948" lon="5.95381">
        <ele>484.7</ele>
        <time>2017-01-07T15:24:06Z</time>
      </trkpt>
      <trkpt lat="44.0595" lon="5.95384">
        <ele>484.8</ele>
        <time>2017-01-07T15:24:08Z</time>
      </trkpt>
      <trkpt lat="44.05952" lon="5.95389">
        <ele>485.1</ele>
        <time>2017-01-07T15:24:10Z</time>
      </trkpt>
      <trkpt lat="44.05953" lon="5.95394">
        <ele>485.6</ele>
        <time>2017-01-07T15:24:12Z</time>
      </trkpt>
      <trkpt lat="44.05955" lon="5.95399">
        <ele>484.9</ele>
        <time>2017-01-07T15:24:15Z</time>
      </trkpt>
      <trkpt lat="44.05957" lon="5.95403">
        <ele>484.2</ele>
        <time>2017-01-07T15:24:17Z</time>
      </trkpt>
      <trkpt lat="44.0596" lon="5.95408">
        <ele>484.3</ele>
        <time>2017-01-07T15:24:19Z</time>
      </trkpt>
      <trkpt lat="44.05962" lon="5.95413">
        <ele>484.5</ele>
        <time>2017-01-07T15:24:21Z</time>
      </trkpt>
      <trkpt lat="44.05964" lon="5.95417">
        <ele>484.9</ele>
        <time>2017-01-07T15:24:23Z</time>
      </trkpt>
      <trkpt lat="44.05965" lon="5.95421">
        <ele>485.2</ele>
        <time>2017-01-07T15:24:25Z</time>
      </trkpt>
      <trkpt lat="44.05966" lon="5.95425">
        <ele>485.5</ele>
        <time>2017-01-07T15:24:27Z</time>
      </trkpt>
      <trkpt lat="44.05968" lon="5.95429">
        <ele>485.9</ele>
        <time>2017-01-07T15:24:29Z</time>
      </trkpt>
      <trkpt lat="44.05969" lon="5.95433">
        <ele>486.1</ele>
        <time>2017-01-07T15:24:31Z</time>
      </trkpt>
      <trkpt lat="44.05971" lon="5.95437">
        <ele>486</ele>
        <time>2017-01-07T15:24:34Z</time>
      </trkpt>
      <trkpt lat="44.05974" lon="5.95441">
        <ele>485.8</ele>
        <time>2017-01-07T15:24:37Z</time>
      </trkpt>
      <trkpt lat="44.05976" lon="5.95444">
        <ele>486.2</ele>
        <time>2017-01-07T15:24:40Z</time>
      </trkpt>
      <trkpt lat="44.05979" lon="5.95447">
        <ele>486.7</ele>
        <time>2017-01-07T15:24:43Z</time>
      </trkpt>
      <trkpt lat="44.05981" lon="5.95449">
        <ele>487</ele>
        <time>2017-01-07T15:24:45Z</time>
      </trkpt>
      <trkpt lat="44.05982" lon="5.95453">
        <ele>487.1</ele>
        <time>2017-01-07T15:24:47Z</time>
      </trkpt>
      <trkpt lat="44.05984" lon="5.95456">
        <ele>487.1</ele>
        <time>2017-01-07T15:24:49Z</time>
      </trkpt>
      <trkpt lat="44.05986" lon="5.95461">
        <ele>487.5</ele>
        <time>2017-01-07T15:24:52Z</time>
      </trkpt>
      <trkpt lat="44.05987" lon="5.95465">
        <ele>488.1</ele>
        <time>2017-01-07T15:24:55Z</time>
      </trkpt>
      <trkpt lat="44.05988" lon="5.95469">
        <ele>488.4</ele>
        <time>2017-01-07T15:24:57Z</time>
      </trkpt>
      <trkpt lat="44.05989" lon="5.95473">
        <ele>488.3</ele>
        <time>2017-01-07T15:24:59Z</time>
      </trkpt>
      <trkpt lat="44.0599" lon="5.95477">
        <ele>488.2</ele>
        <time>2017-01-07T15:25:01Z</time>
      </trkpt>
      <trkpt lat="44.05991" lon="5.9548">
        <ele>488.3</ele>
        <time>2017-01-07T15:25:03Z</time>
      </trkpt>
      <trkpt lat="44.05994" lon="5.95484">
        <ele>488.7</ele>
        <time>2017-01-07T15:25:05Z</time>
      </trkpt>
      <trkpt lat="44.05996" lon="5.95487">
        <ele>489.2</ele>
        <time>2017-01-07T15:25:07Z</time>
      </trkpt>
      <trkpt lat="44.05998" lon="5.95491">
        <ele>489.1</ele>
        <time>2017-01-07T15:25:09Z</time>
      </trkpt>
      <trkpt lat="44.06" lon="5.95494">
        <ele>488.8</ele>
        <time>2017-01-07T15:25:11Z</time>
      </trkpt>
      <trkpt lat="44.06001" lon="5.95499">
        <ele>488.6</ele>
        <time>2017-01-07T15:25:14Z</time>
      </trkpt>
      <trkpt lat="44.06002" lon="5.95503">
        <ele>488.6</ele>
        <time>2017-01-07T15:25:16Z</time>
      </trkpt>
      <trkpt lat="44.06003" lon="5.95507">
        <ele>488.4</ele>
        <time>2017-01-07T15:25:18Z</time>
      </trkpt>
      <trkpt lat="44.06005" lon="5.95511">
        <ele>488.2</ele>
        <time>2017-01-07T15:25:20Z</time>
      </trkpt>
      <trkpt lat="44.06007" lon="5.95516">
        <ele>487.9</ele>
        <time>2017-01-07T15:25:23Z</time>
      </trkpt>
      <trkpt lat="44.06008" lon="5.95519">
        <ele>487.9</ele>
        <time>2017-01-07T15:25:26Z</time>
      </trkpt>
      <trkpt lat="44.06011" lon="5.95522">
        <ele>488.3</ele>
        <time>2017-01-07T15:25:29Z</time>
      </trkpt>
      <trkpt lat="44.06013" lon="5.95525">
        <ele>488.9</ele>
        <time>2017-01-07T15:25:32Z</time>
      </trkpt>
      <trkpt lat="44.06015" lon="5.95529">
        <ele>489.7</ele>
        <time>2017-01-07T15:25:35Z</time>
      </trkpt>
      <trkpt lat="44.06015" lon="5.95533">
        <ele>490</ele>
        <time>2017-01-07T15:25:37Z</time>
      </trkpt>
      <trkpt lat="44.06017" lon="5.95537">
        <ele>490.4</ele>
        <time>2017-01-07T15:25:39Z</time>
      </trkpt>
      <trkpt lat="44.06019" lon="5.9554">
        <ele>490.9</ele>
        <time>2017-01-07T15:25:41Z</time>
      </trkpt>
      <trkpt lat="44.06021" lon="5.95544">
        <ele>491.8</ele>
        <time>2017-01-07T15:25:43Z</time>
      </trkpt>
      <trkpt lat="44.06023" lon="5.95546">
        <ele>493.5</ele>
        <time>2017-01-07T15:25:45Z</time>
      </trkpt>
      <trkpt lat="44.06025" lon="5.95542">
        <ele>495.4</ele>
        <time>2017-01-07T15:25:48Z</time>
      </trkpt>
      <trkpt lat="44.06025" lon="5.95538">
        <ele>495.9</ele>
        <time>2017-01-07T15:25:51Z</time>
      </trkpt>
      <trkpt lat="44.06025" lon="5.95534">
        <ele>496.4</ele>
        <time>2017-01-07T15:25:55Z</time>
      </trkpt>
      <trkpt lat="44.06024" lon="5.95529">
        <ele>496.7</ele>
        <time>2017-01-07T15:25:58Z</time>
      </trkpt>
      <trkpt lat="44.06022" lon="5.95524">
        <ele>496.3</ele>
        <time>2017-01-07T15:26:01Z</time>
      </trkpt>
      <trkpt lat="44.06021" lon="5.9552">
        <ele>496</ele>
        <time>2017-01-07T15:26:04Z</time>
      </trkpt>
      <trkpt lat="44.06021" lon="5.95516">
        <ele>496.5</ele>
        <time>2017-01-07T15:26:07Z</time>
      </trkpt>
      <trkpt lat="44.0602" lon="5.95511">
        <ele>496.7</ele>
        <time>2017-01-07T15:26:10Z</time>
      </trkpt>
      <trkpt lat="44.06018" lon="5.95506">
        <ele>496</ele>
        <time>2017-01-07T15:26:13Z</time>
      </trkpt>
      <trkpt lat="44.06017" lon="5.95502">
        <ele>495.5</ele>
        <time>2017-01-07T15:26:15Z</time>
      </trkpt>
      <trkpt lat="44.06016" lon="5.95497">
        <ele>495.7</ele>
        <time>2017-01-07T15:26:18Z</time>
      </trkpt>
      <trkpt lat="44.06015" lon="5.95493">
        <ele>496.3</ele>
        <time>2017-01-07T15:26:21Z</time>
      </trkpt>
      <trkpt lat="44.06015" lon="5.95488">
        <ele>496.5</ele>
        <time>2017-01-07T15:26:24Z</time>
      </trkpt>
      <trkpt lat="44.06014" lon="5.95483">
        <ele>502.2</ele>
        <time>2017-01-07T15:26:27Z</time>
      </trkpt>
      <trkpt lat="44.06014" lon="5.95478">
        <ele>502</ele>
        <time>2017-01-07T15:26:30Z</time>
      </trkpt>
      <trkpt lat="44.06012" lon="5.95473">
        <ele>501.5</ele>
        <time>2017-01-07T15:26:33Z</time>
      </trkpt>
      <trkpt lat="44.06011" lon="5.95468">
        <ele>501.3</ele>
        <time>2017-01-07T15:26:36Z</time>
      </trkpt>
      <trkpt lat="44.0601" lon="5.95463">
        <ele>501.2</ele>
        <time>2017-01-07T15:26:39Z</time>
      </trkpt>
      <trkpt lat="44.06009" lon="5.95459">
        <ele>500.9</ele>
        <time>2017-01-07T15:26:42Z</time>
      </trkpt>
      <trkpt lat="44.06009" lon="5.95454">
        <ele>500.5</ele>
        <time>2017-01-07T15:26:45Z</time>
      </trkpt>
      <trkpt lat="44.06009" lon="5.95451">
        <ele>500.1</ele>
        <time>2017-01-07T15:26:47Z</time>
      </trkpt>
      <trkpt lat="44.06012" lon="5.95447">
        <ele>500.2</ele>
        <time>2017-01-07T15:26:50Z</time>
      </trkpt>
      <trkpt lat="44.06015" lon="5.9545">
        <ele>500.6</ele>
        <time>2017-01-07T15:26:53Z</time>
      </trkpt>
      <trkpt lat="44.06017" lon="5.95453">
        <ele>501</ele>
        <time>2017-01-07T15:26:56Z</time>
      </trkpt>
      <trkpt lat="44.06016" lon="5.95458">
        <ele>501.2</ele>
        <time>2017-01-07T15:26:59Z</time>
      </trkpt>
      <trkpt lat="44.06017" lon="5.95462">
        <ele>501.3</ele>
        <time>2017-01-07T15:27:02Z</time>
      </trkpt>
      <trkpt lat="44.06019" lon="5.95466">
        <ele>501.5</ele>
        <time>2017-01-07T15:27:05Z</time>
      </trkpt>
      <trkpt lat="44.0602" lon="5.9547">
        <ele>501.9</ele>
        <time>2017-01-07T15:27:08Z</time>
      </trkpt>
      <trkpt lat="44.06022" lon="5.95473">
        <ele>502.2</ele>
        <time>2017-01-07T15:27:19Z</time>
      </trkpt>
      <trkpt lat="44.06022" lon="5.95478">
        <ele>502.2</ele>
        <time>2017-01-07T15:27:23Z</time>
      </trkpt>
      <trkpt lat="44.06024" lon="5.95482">
        <ele>502</ele>
        <time>2017-01-07T15:27:25Z</time>
      </trkpt>
      <trkpt lat="44.06026" lon="5.95485">
        <ele>501.4</ele>
        <time>2017-01-07T15:27:27Z</time>
      </trkpt>
      <trkpt lat="44.06027" lon="5.95488">
        <ele>501.4</ele>
        <time>2017-01-07T15:27:29Z</time>
      </trkpt>
      <trkpt lat="44.06028" lon="5.95493">
        <ele>501.7</ele>
        <time>2017-01-07T15:27:32Z</time>
      </trkpt>
      <trkpt lat="44.0603" lon="5.95498">
        <ele>502.1</ele>
        <time>2017-01-07T15:27:35Z</time>
      </trkpt>
      <trkpt lat="44.06033" lon="5.955">
        <ele>502.5</ele>
        <time>2017-01-07T15:27:37Z</time>
      </trkpt>
      <trkpt lat="44.06037" lon="5.95503">
        <ele>502.8</ele>
        <time>2017-01-07T15:27:39Z</time>
      </trkpt>
      <trkpt lat="44.06038" lon="5.95506">
        <ele>503.4</ele>
        <time>2017-01-07T15:27:41Z</time>
      </trkpt>
      <trkpt lat="44.0604" lon="5.95509">
        <ele>504.2</ele>
        <time>2017-01-07T15:27:43Z</time>
      </trkpt>
      <trkpt lat="44.06042" lon="5.95511">
        <ele>505</ele>
        <time>2017-01-07T15:27:45Z</time>
      </trkpt>
      <trkpt lat="44.06046" lon="5.95514">
        <ele>506.2</ele>
        <time>2017-01-07T15:27:48Z</time>
      </trkpt>
      <trkpt lat="44.06048" lon="5.95516">
        <ele>507.1</ele>
        <time>2017-01-07T15:27:50Z</time>
      </trkpt>
      <trkpt lat="44.06051" lon="5.95519">
        <ele>508.1</ele>
        <time>2017-01-07T15:27:52Z</time>
      </trkpt>
      <trkpt lat="44.06053" lon="5.95522">
        <ele>509.1</ele>
        <time>2017-01-07T15:27:54Z</time>
      </trkpt>
      <trkpt lat="44.06054" lon="5.95526">
        <ele>510</ele>
        <time>2017-01-07T15:27:56Z</time>
      </trkpt>
      <trkpt lat="44.06057" lon="5.95528">
        <ele>510.4</ele>
        <time>2017-01-07T15:27:58Z</time>
      </trkpt>
      <trkpt lat="44.0606" lon="5.95529">
        <ele>511</ele>
        <time>2017-01-07T15:28:01Z</time>
      </trkpt>
      <trkpt lat="44.06062" lon="5.95533">
        <ele>511.7</ele>
        <time>2017-01-07T15:28:03Z</time>
      </trkpt>
      <trkpt lat="44.06064" lon="5.95536">
        <ele>512.4</ele>
        <time>2017-01-07T15:28:05Z</time>
      </trkpt>
      <trkpt lat="44.06066" lon="5.95539">
        <ele>512.8</ele>
        <time>2017-01-07T15:28:07Z</time>
      </trkpt>
      <trkpt lat="44.06068" lon="5.95542">
        <ele>513</ele>
        <time>2017-01-07T15:28:09Z</time>
      </trkpt>
      <trkpt lat="44.06068" lon="5.95546">
        <ele>513.3</ele>
        <time>2017-01-07T15:28:11Z</time>
      </trkpt>
      <trkpt lat="44.0607" lon="5.9555">
        <ele>513.7</ele>
        <time>2017-01-07T15:28:13Z</time>
      </trkpt>
      <trkpt lat="44.06071" lon="5.95554">
        <ele>514.2</ele>
        <time>2017-01-07T15:28:15Z</time>
      </trkpt>
      <trkpt lat="44.06073" lon="5.95558">
        <ele>514</ele>
        <time>2017-01-07T15:28:17Z</time>
      </trkpt>
      <trkpt lat="44.06074" lon="5.95562">
        <ele>513.7</ele>
        <time>2017-01-07T15:28:19Z</time>
      </trkpt>
      <trkpt lat="44.06075" lon="5.95566">
        <ele>513.4</ele>
        <time>2017-01-07T15:28:21Z</time>
      </trkpt>
      <trkpt lat="44.06076" lon="5.9557">
        <ele>513.2</ele>
        <time>2017-01-07T15:28:23Z</time>
      </trkpt>
      <trkpt lat="44.06078" lon="5.95574">
        <ele>512.9</ele>
        <time>2017-01-07T15:28:25Z</time>
      </trkpt>
      <trkpt lat="44.06079" lon="5.95577">
        <ele>512.7</ele>
        <time>2017-01-07T15:28:27Z</time>
      </trkpt>
      <trkpt lat="44.06082" lon="5.95581">
        <ele>512.4</ele>
        <time>2017-01-07T15:28:30Z</time>
      </trkpt>
      <trkpt lat="44.06084" lon="5.95585">
        <ele>512.1</ele>
        <time>2017-01-07T15:28:33Z</time>
      </trkpt>
      <trkpt lat="44.06086" lon="5.95589">
        <ele>511.7</ele>
        <time>2017-01-07T15:28:36Z</time>
      </trkpt>
      <trkpt lat="44.06087" lon="5.95593">
        <ele>511.1</ele>
        <time>2017-01-07T15:28:39Z</time>
      </trkpt>
      <trkpt lat="44.06088" lon="5.95599">
        <ele>510.4</ele>
        <time>2017-01-07T15:28:42Z</time>
      </trkpt>
      <trkpt lat="44.06089" lon="5.95603">
        <ele>509.6</ele>
        <time>2017-01-07T15:28:44Z</time>
      </trkpt>
      <trkpt lat="44.0609" lon="5.95608">
        <ele>508.6</ele>
        <time>2017-01-07T15:28:46Z</time>
      </trkpt>
      <trkpt lat="44.06092" lon="5.95612">
        <ele>508.5</ele>
        <time>2017-01-07T15:28:48Z</time>
      </trkpt>
      <trkpt lat="44.06094" lon="5.95617">
        <ele>508.5</ele>
        <time>2017-01-07T15:28:50Z</time>
      </trkpt>
      <trkpt lat="44.06097" lon="5.95621">
        <ele>508</ele>
        <time>2017-01-07T15:28:52Z</time>
      </trkpt>
      <trkpt lat="44.06099" lon="5.95623">
        <ele>507.3</ele>
        <time>2017-01-07T15:28:54Z</time>
      </trkpt>
      <trkpt lat="44.06102" lon="5.95625">
        <ele>506.4</ele>
        <time>2017-01-07T15:28:57Z</time>
      </trkpt>
      <trkpt lat="44.06105" lon="5.95628">
        <ele>506.5</ele>
        <time>2017-01-07T15:29:00Z</time>
      </trkpt>
      <trkpt lat="44.06108" lon="5.95632">
        <ele>507.2</ele>
        <time>2017-01-07T15:29:03Z</time>
      </trkpt>
      <trkpt lat="44.0611" lon="5.95637">
        <ele>508.5</ele>
        <time>2017-01-07T15:29:06Z</time>
      </trkpt>
      <trkpt lat="44.06112" lon="5.9564">
        <ele>508.5</ele>
        <time>2017-01-07T15:29:08Z</time>
      </trkpt>
      <trkpt lat="44.06114" lon="5.95643">
        <ele>508.6</ele>
        <time>2017-01-07T15:29:10Z</time>
      </trkpt>
      <trkpt lat="44.06116" lon="5.95645">
        <ele>508.6</ele>
        <time>2017-01-07T15:29:12Z</time>
      </trkpt>
      <trkpt lat="44.06119" lon="5.95649">
        <ele>508.8</ele>
        <time>2017-01-07T15:29:15Z</time>
      </trkpt>
      <trkpt lat="44.06121" lon="5.95651">
        <ele>509</ele>
        <time>2017-01-07T15:29:17Z</time>
      </trkpt>
      <trkpt lat="44.06124" lon="5.95654">
        <ele>509.5</ele>
        <time>2017-01-07T15:29:19Z</time>
      </trkpt>
      <trkpt lat="44.06126" lon="5.95656">
        <ele>510.2</ele>
        <time>2017-01-07T15:29:21Z</time>
      </trkpt>
      <trkpt lat="44.06128" lon="5.95658">
        <ele>511</ele>
        <time>2017-01-07T15:29:23Z</time>
      </trkpt>
      <trkpt lat="44.06131" lon="5.95661">
        <ele>512</ele>
        <time>2017-01-07T15:29:25Z</time>
      </trkpt>
      <trkpt lat="44.06134" lon="5.95664">
        <ele>513</ele>
        <time>2017-01-07T15:29:27Z</time>
      </trkpt>
      <trkpt lat="44.06137" lon="5.95667">
        <ele>514.6</ele>
        <time>2017-01-07T15:29:30Z</time>
      </trkpt>
      <trkpt lat="44.06141" lon="5.9567">
        <ele>516.2</ele>
        <time>2017-01-07T15:29:33Z</time>
      </trkpt>
      <trkpt lat="44.06144" lon="5.9567">
        <ele>516.6</ele>
        <time>2017-01-07T15:29:40Z</time>
      </trkpt>
      <trkpt lat="44.06147" lon="5.95668">
        <ele>517.3</ele>
        <time>2017-01-07T15:29:42Z</time>
      </trkpt>
      <trkpt lat="44.06151" lon="5.95668">
        <ele>518.6</ele>
        <time>2017-01-07T15:29:44Z</time>
      </trkpt>
      <trkpt lat="44.06154" lon="5.95669">
        <ele>519.1</ele>
        <time>2017-01-07T15:29:45Z</time>
      </trkpt>
      <trkpt lat="44.06157" lon="5.9567">
        <ele>519.3</ele>
        <time>2017-01-07T15:29:46Z</time>
      </trkpt>
      <trkpt lat="44.06161" lon="5.95672">
        <ele>519.5</ele>
        <time>2017-01-07T15:29:48Z</time>
      </trkpt>
      <trkpt lat="44.06164" lon="5.95674">
        <ele>519.7</ele>
        <time>2017-01-07T15:29:50Z</time>
      </trkpt>
      <trkpt lat="44.06168" lon="5.95676">
        <ele>519.9</ele>
        <time>2017-01-07T15:29:52Z</time>
      </trkpt>
      <trkpt lat="44.06171" lon="5.95678">
        <ele>520.2</ele>
        <time>2017-01-07T15:29:54Z</time>
      </trkpt>
      <trkpt lat="44.06174" lon="5.9568">
        <ele>520.4</ele>
        <time>2017-01-07T15:29:56Z</time>
      </trkpt>
      <trkpt lat="44.06177" lon="5.95682">
        <ele>520.6</ele>
        <time>2017-01-07T15:29:58Z</time>
      </trkpt>
      <trkpt lat="44.06178" lon="5.95687">
        <ele>520.8</ele>
        <time>2017-01-07T15:30:01Z</time>
      </trkpt>
      <trkpt lat="44.0618" lon="5.9569">
        <ele>521</ele>
        <time>2017-01-07T15:30:03Z</time>
      </trkpt>
      <trkpt lat="44.06182" lon="5.95693">
        <ele>521.3</ele>
        <time>2017-01-07T15:30:05Z</time>
      </trkpt>
      <trkpt lat="44.06185" lon="5.95695">
        <ele>521.5</ele>
        <time>2017-01-07T15:30:07Z</time>
      </trkpt>
      <trkpt lat="44.06188" lon="5.95698">
        <ele>521.7</ele>
        <time>2017-01-07T15:30:10Z</time>
      </trkpt>
      <trkpt lat="44.06191" lon="5.95701">
        <ele>521.6</ele>
        <time>2017-01-07T15:30:13Z</time>
      </trkpt>
      <trkpt lat="44.06194" lon="5.95704">
        <ele>521.1</ele>
        <time>2017-01-07T15:30:16Z</time>
      </trkpt>
      <trkpt lat="44.06196" lon="5.95709">
        <ele>520.4</ele>
        <time>2017-01-07T15:30:19Z</time>
      </trkpt>
      <trkpt lat="44.06198" lon="5.95712">
        <ele>519.7</ele>
        <time>2017-01-07T15:30:21Z</time>
      </trkpt>
      <trkpt lat="44.06201" lon="5.95715">
        <ele>519.4</ele>
        <time>2017-01-07T15:30:23Z</time>
      </trkpt>
      <trkpt lat="44.06203" lon="5.95717">
        <ele>519.5</ele>
        <time>2017-01-07T15:30:25Z</time>
      </trkpt>
      <trkpt lat="44.06206" lon="5.9572">
        <ele>519.7</ele>
        <time>2017-01-07T15:30:27Z</time>
      </trkpt>
      <trkpt lat="44.06207" lon="5.95723">
        <ele>520.2</ele>
        <time>2017-01-07T15:30:29Z</time>
      </trkpt>
      <trkpt lat="44.06209" lon="5.95725">
        <ele>520.6</ele>
        <time>2017-01-07T15:30:31Z</time>
      </trkpt>
      <trkpt lat="44.06212" lon="5.95727">
        <ele>521</ele>
        <time>2017-01-07T15:30:33Z</time>
      </trkpt>
      <trkpt lat="44.06214" lon="5.9573">
        <ele>521.4</ele>
        <time>2017-01-07T15:30:35Z</time>
      </trkpt>
      <trkpt lat="44.06216" lon="5.95733">
        <ele>521.8</ele>
        <time>2017-01-07T15:30:37Z</time>
      </trkpt>
      <trkpt lat="44.06218" lon="5.95736">
        <ele>521.9</ele>
        <time>2017-01-07T15:30:40Z</time>
      </trkpt>
      <trkpt lat="44.06222" lon="5.95738">
        <ele>521.7</ele>
        <time>2017-01-07T15:30:44Z</time>
      </trkpt>
      <trkpt lat="44.06224" lon="5.9574">
        <ele>521.5</ele>
        <time>2017-01-07T15:30:48Z</time>
      </trkpt>
      <trkpt lat="44.06227" lon="5.95742">
        <ele>522</ele>
        <time>2017-01-07T15:30:51Z</time>
      </trkpt>
      <trkpt lat="44.0623" lon="5.95743">
        <ele>522.4</ele>
        <time>2017-01-07T15:30:54Z</time>
      </trkpt>
      <trkpt lat="44.06232" lon="5.95745">
        <ele>522.9</ele>
        <time>2017-01-07T15:31:01Z</time>
      </trkpt>
      <trkpt lat="44.06236" lon="5.95745">
        <ele>523.2</ele>
        <time>2017-01-07T15:31:05Z</time>
      </trkpt>
      <trkpt lat="44.06239" lon="5.95746">
        <ele>523.5</ele>
        <time>2017-01-07T15:31:08Z</time>
      </trkpt>
      <trkpt lat="44.06243" lon="5.95747">
        <ele>524.1</ele>
        <time>2017-01-07T15:31:11Z</time>
      </trkpt>
      <trkpt lat="44.06246" lon="5.95748">
        <ele>524.6</ele>
        <time>2017-01-07T15:31:13Z</time>
      </trkpt>
      <trkpt lat="44.06249" lon="5.9575">
        <ele>525.2</ele>
        <time>2017-01-07T15:31:15Z</time>
      </trkpt>
      <trkpt lat="44.06253" lon="5.95752">
        <ele>525.4</ele>
        <time>2017-01-07T15:31:17Z</time>
      </trkpt>
      <trkpt lat="44.06256" lon="5.95752">
        <ele>525.5</ele>
        <time>2017-01-07T15:31:19Z</time>
      </trkpt>
      <trkpt lat="44.06259" lon="5.95753">
        <ele>525.8</ele>
        <time>2017-01-07T15:31:22Z</time>
      </trkpt>
      <trkpt lat="44.06262" lon="5.95755">
        <ele>526.5</ele>
        <time>2017-01-07T15:31:25Z</time>
      </trkpt>
      <trkpt lat="44.06266" lon="5.95757">
        <ele>527.1</ele>
        <time>2017-01-07T15:31:28Z</time>
      </trkpt>
      <trkpt lat="44.06269" lon="5.95758">
        <ele>527.7</ele>
        <time>2017-01-07T15:31:31Z</time>
      </trkpt>
      <trkpt lat="44.06273" lon="5.9576">
        <ele>528.3</ele>
        <time>2017-01-07T15:31:34Z</time>
      </trkpt>
      <trkpt lat="44.06277" lon="5.95761">
        <ele>528.5</ele>
        <time>2017-01-07T15:31:36Z</time>
      </trkpt>
      <trkpt lat="44.0628" lon="5.95761">
        <ele>528.6</ele>
        <time>2017-01-07T15:31:37Z</time>
      </trkpt>
      <trkpt lat="44.06284" lon="5.95759">
        <ele>528.9</ele>
        <time>2017-01-07T15:31:39Z</time>
      </trkpt>
      <trkpt lat="44.06287" lon="5.9576">
        <ele>529.3</ele>
        <time>2017-01-07T15:31:42Z</time>
      </trkpt>
      <trkpt lat="44.0629" lon="5.95762">
        <ele>529.7</ele>
        <time>2017-01-07T15:31:46Z</time>
      </trkpt>
      <trkpt lat="44.06293" lon="5.95762">
        <ele>530.3</ele>
        <time>2017-01-07T15:31:49Z</time>
      </trkpt>
      <trkpt lat="44.06296" lon="5.95763">
        <ele>530.9</ele>
        <time>2017-01-07T15:31:51Z</time>
      </trkpt>
      <trkpt lat="44.06299" lon="5.95764">
        <ele>531.5</ele>
        <time>2017-01-07T15:31:53Z</time>
      </trkpt>
      <trkpt lat="44.06302" lon="5.95767">
        <ele>532.3</ele>
        <time>2017-01-07T15:31:56Z</time>
      </trkpt>
      <trkpt lat="44.06304" lon="5.95769">
        <ele>532.8</ele>
        <time>2017-01-07T15:31:59Z</time>
      </trkpt>
      <trkpt lat="44.06308" lon="5.95771">
        <ele>533</ele>
        <time>2017-01-07T15:32:02Z</time>
      </trkpt>
      <trkpt lat="44.06311" lon="5.95775">
        <ele>532.9</ele>
        <time>2017-01-07T15:32:05Z</time>
      </trkpt>
      <trkpt lat="44.06314" lon="5.95779">
        <ele>532.6</ele>
        <time>2017-01-07T15:32:08Z</time>
      </trkpt>
      <trkpt lat="44.06315" lon="5.95782">
        <ele>532.2</ele>
        <time>2017-01-07T15:32:10Z</time>
      </trkpt>
      <trkpt lat="44.06319" lon="5.95786">
        <ele>532.2</ele>
        <time>2017-01-07T15:32:13Z</time>
      </trkpt>
      <trkpt lat="44.06321" lon="5.95789">
        <ele>532.3</ele>
        <time>2017-01-07T15:32:15Z</time>
      </trkpt>
      <trkpt lat="44.06323" lon="5.95792">
        <ele>532.4</ele>
        <time>2017-01-07T15:32:18Z</time>
      </trkpt>
      <trkpt lat="44.06325" lon="5.95796">
        <ele>532.5</ele>
        <time>2017-01-07T15:32:21Z</time>
      </trkpt>
      <trkpt lat="44.06327" lon="5.95801">
        <ele>532.2</ele>
        <time>2017-01-07T15:32:24Z</time>
      </trkpt>
      <trkpt lat="44.06329" lon="5.95805">
        <ele>531.7</ele>
        <time>2017-01-07T15:32:27Z</time>
      </trkpt>
      <trkpt lat="44.06332" lon="5.95809">
        <ele>531.3</ele>
        <time>2017-01-07T15:32:30Z</time>
      </trkpt>
      <trkpt lat="44.06335" lon="5.95813">
        <ele>531.1</ele>
        <time>2017-01-07T15:32:33Z</time>
      </trkpt>
      <trkpt lat="44.06337" lon="5.95816">
        <ele>531.3</ele>
        <time>2017-01-07T15:32:36Z</time>
      </trkpt>
      <trkpt lat="44.06339" lon="5.9582">
        <ele>531.7</ele>
        <time>2017-01-07T15:32:39Z</time>
      </trkpt>
      <trkpt lat="44.06339" lon="5.95824">
        <ele>532.2</ele>
        <time>2017-01-07T15:32:43Z</time>
      </trkpt>
      <trkpt lat="44.06341" lon="5.95829">
        <ele>532.7</ele>
        <time>2017-01-07T15:32:46Z</time>
      </trkpt>
      <trkpt lat="44.06342" lon="5.95833">
        <ele>533.2</ele>
        <time>2017-01-07T15:32:49Z</time>
      </trkpt>
      <trkpt lat="44.06342" lon="5.95837">
        <ele>533.9</ele>
        <time>2017-01-07T15:32:52Z</time>
      </trkpt>
      <trkpt lat="44.06344" lon="5.9584">
        <ele>534.6</ele>
        <time>2017-01-07T15:32:55Z</time>
      </trkpt>
      <trkpt lat="44.06346" lon="5.95844">
        <ele>535.6</ele>
        <time>2017-01-07T15:32:58Z</time>
      </trkpt>
      <trkpt lat="44.06348" lon="5.95847">
        <ele>536.3</ele>
        <time>2017-01-07T15:33:00Z</time>
      </trkpt>
      <trkpt lat="44.06351" lon="5.9585">
        <ele>536.8</ele>
        <time>2017-01-07T15:33:03Z</time>
      </trkpt>
      <trkpt lat="44.06353" lon="5.95852">
        <ele>536.7</ele>
        <time>2017-01-07T15:33:05Z</time>
      </trkpt>
      <trkpt lat="44.06356" lon="5.95855">
        <ele>536.6</ele>
        <time>2017-01-07T15:33:08Z</time>
      </trkpt>
      <trkpt lat="44.06358" lon="5.95859">
        <ele>536.5</ele>
        <time>2017-01-07T15:33:11Z</time>
      </trkpt>
      <trkpt lat="44.0636" lon="5.95861">
        <ele>536.4</ele>
        <time>2017-01-07T15:33:13Z</time>
      </trkpt>
      <trkpt lat="44.06363" lon="5.95864">
        <ele>536.3</ele>
        <time>2017-01-07T15:33:15Z</time>
      </trkpt>
      <trkpt lat="44.06365" lon="5.95868">
        <ele>536.1</ele>
        <time>2017-01-07T15:33:18Z</time>
      </trkpt>
      <trkpt lat="44.06366" lon="5.95871">
        <ele>535.9</ele>
        <time>2017-01-07T15:33:21Z</time>
      </trkpt>
      <trkpt lat="44.06369" lon="5.95875">
        <ele>535.4</ele>
        <time>2017-01-07T15:33:24Z</time>
      </trkpt>
      <trkpt lat="44.06371" lon="5.95878">
        <ele>535.1</ele>
        <time>2017-01-07T15:33:26Z</time>
      </trkpt>
      <trkpt lat="44.06372" lon="5.95881">
        <ele>534.9</ele>
        <time>2017-01-07T15:33:28Z</time>
      </trkpt>
      <trkpt lat="44.06375" lon="5.95883">
        <ele>535</ele>
        <time>2017-01-07T15:33:31Z</time>
      </trkpt>
      <trkpt lat="44.06376" lon="5.95888">
        <ele>535.1</ele>
        <time>2017-01-07T15:33:34Z</time>
      </trkpt>
      <trkpt lat="44.06378" lon="5.9589">
        <ele>535.5</ele>
        <time>2017-01-07T15:33:38Z</time>
      </trkpt>
      <trkpt lat="44.06382" lon="5.95893">
        <ele>536.4</ele>
        <time>2017-01-07T15:33:42Z</time>
      </trkpt>
      <trkpt lat="44.06385" lon="5.95894">
        <ele>536.9</ele>
        <time>2017-01-07T15:33:44Z</time>
      </trkpt>
      <trkpt lat="44.06387" lon="5.95896">
        <ele>536.5</ele>
        <time>2017-01-07T15:33:46Z</time>
      </trkpt>
      <trkpt lat="44.06389" lon="5.95898">
        <ele>536.2</ele>
        <time>2017-01-07T15:33:48Z</time>
      </trkpt>
      <trkpt lat="44.06393" lon="5.95901">
        <ele>535.9</ele>
        <time>2017-01-07T15:33:51Z</time>
      </trkpt>
      <trkpt lat="44.06396" lon="5.95903">
        <ele>536.1</ele>
        <time>2017-01-07T15:33:53Z</time>
      </trkpt>
      <trkpt lat="44.06399" lon="5.95904">
        <ele>536.5</ele>
        <time>2017-01-07T15:33:55Z</time>
      </trkpt>
      <trkpt lat="44.06401" lon="5.95906">
        <ele>536.5</ele>
        <time>2017-01-07T15:33:57Z</time>
      </trkpt>
      <trkpt lat="44.06404" lon="5.95908">
        <ele>536.6</ele>
        <time>2017-01-07T15:33:59Z</time>
      </trkpt>
      <trkpt lat="44.06407" lon="5.95909">
        <ele>536.6</ele>
        <time>2017-01-07T15:34:01Z</time>
      </trkpt>
      <trkpt lat="44.06409" lon="5.95912">
        <ele>537.2</ele>
        <time>2017-01-07T15:34:03Z</time>
      </trkpt>
      <trkpt lat="44.06412" lon="5.95915">
        <ele>537.9</ele>
        <time>2017-01-07T15:34:06Z</time>
      </trkpt>
      <trkpt lat="44.06414" lon="5.95917">
        <ele>538.6</ele>
        <time>2017-01-07T15:34:09Z</time>
      </trkpt>
      <trkpt lat="44.06416" lon="5.9592">
        <ele>538.5</ele>
        <time>2017-01-07T15:34:13Z</time>
      </trkpt>
      <trkpt lat="44.0642" lon="5.95924">
        <ele>538.2</ele>
        <time>2017-01-07T15:34:16Z</time>
      </trkpt>
      <trkpt lat="44.06423" lon="5.95926">
        <ele>538.4</ele>
        <time>2017-01-07T15:34:18Z</time>
      </trkpt>
      <trkpt lat="44.06426" lon="5.95928">
        <ele>539</ele>
        <time>2017-01-07T15:34:20Z</time>
      </trkpt>
      <trkpt lat="44.06428" lon="5.95931">
        <ele>539.5</ele>
        <time>2017-01-07T15:34:22Z</time>
      </trkpt>
      <trkpt lat="44.06431" lon="5.95934">
        <ele>539.9</ele>
        <time>2017-01-07T15:34:25Z</time>
      </trkpt>
      <trkpt lat="44.06434" lon="5.95936">
        <ele>540.2</ele>
        <time>2017-01-07T15:34:28Z</time>
      </trkpt>
      <trkpt lat="44.06438" lon="5.95938">
        <ele>540.6</ele>
        <time>2017-01-07T15:34:31Z</time>
      </trkpt>
      <trkpt lat="44.06441" lon="5.95942">
        <ele>541.2</ele>
        <time>2017-01-07T15:34:34Z</time>
      </trkpt>
      <trkpt lat="44.06443" lon="5.95944">
        <ele>541.7</ele>
        <time>2017-01-07T15:34:36Z</time>
      </trkpt>
      <trkpt lat="44.06447" lon="5.95945">
        <ele>541.5</ele>
        <time>2017-01-07T15:34:39Z</time>
      </trkpt>
      <trkpt lat="44.0645" lon="5.95948">
        <ele>541.3</ele>
        <time>2017-01-07T15:34:42Z</time>
      </trkpt>
      <trkpt lat="44.06452" lon="5.95951">
        <ele>541.4</ele>
        <time>2017-01-07T15:34:45Z</time>
      </trkpt>
      <trkpt lat="44.06456" lon="5.95953">
        <ele>542</ele>
        <time>2017-01-07T15:34:48Z</time>
      </trkpt>
      <trkpt lat="44.06459" lon="5.95954">
        <ele>542.4</ele>
        <time>2017-01-07T15:34:50Z</time>
      </trkpt>
      <trkpt lat="44.06462" lon="5.95956">
        <ele>542.8</ele>
        <time>2017-01-07T15:34:52Z</time>
      </trkpt>
      <trkpt lat="44.06464" lon="5.95958">
        <ele>543.3</ele>
        <time>2017-01-07T15:34:54Z</time>
      </trkpt>
      <trkpt lat="44.06467" lon="5.95959">
        <ele>543.6</ele>
        <time>2017-01-07T15:34:56Z</time>
      </trkpt>
      <trkpt lat="44.06471" lon="5.95961">
        <ele>543.7</ele>
        <time>2017-01-07T15:34:59Z</time>
      </trkpt>
      <trkpt lat="44.06473" lon="5.95963">
        <ele>543.8</ele>
        <time>2017-01-07T15:35:01Z</time>
      </trkpt>
      <trkpt lat="44.06476" lon="5.95966">
        <ele>543.8</ele>
        <time>2017-01-07T15:35:03Z</time>
      </trkpt>
      <trkpt lat="44.06479" lon="5.95967">
        <ele>543.8</ele>
        <time>2017-01-07T15:35:05Z</time>
      </trkpt>
      <trkpt lat="44.06483" lon="5.95969">
        <ele>543.9</ele>
        <time>2017-01-07T15:35:07Z</time>
      </trkpt>
      <trkpt lat="44.06487" lon="5.95971">
        <ele>544.3</ele>
        <time>2017-01-07T15:35:09Z</time>
      </trkpt>
      <trkpt lat="44.0649" lon="5.95971">
        <ele>544.5</ele>
        <time>2017-01-07T15:35:11Z</time>
      </trkpt>
      <trkpt lat="44.06493" lon="5.95972">
        <ele>544.5</ele>
        <time>2017-01-07T15:35:14Z</time>
      </trkpt>
      <trkpt lat="44.06497" lon="5.95974">
        <ele>544.5</ele>
        <time>2017-01-07T15:35:17Z</time>
      </trkpt>
      <trkpt lat="44.065" lon="5.95976">
        <ele>544.6</ele>
        <time>2017-01-07T15:35:19Z</time>
      </trkpt>
      <trkpt lat="44.06503" lon="5.95977">
        <ele>544.8</ele>
        <time>2017-01-07T15:35:21Z</time>
      </trkpt>
      <trkpt lat="44.06506" lon="5.95978">
        <ele>545</ele>
        <time>2017-01-07T15:35:23Z</time>
      </trkpt>
      <trkpt lat="44.0651" lon="5.95979">
        <ele>545.3</ele>
        <time>2017-01-07T15:35:25Z</time>
      </trkpt>
      <trkpt lat="44.06513" lon="5.9598">
        <ele>545.8</ele>
        <time>2017-01-07T15:35:27Z</time>
      </trkpt>
      <trkpt lat="44.06517" lon="5.95981">
        <ele>546.4</ele>
        <time>2017-01-07T15:35:29Z</time>
      </trkpt>
      <trkpt lat="44.0652" lon="5.95982">
        <ele>547.6</ele>
        <time>2017-01-07T15:35:31Z</time>
      </trkpt>
      <trkpt lat="44.06523" lon="5.95983">
        <ele>548.7</ele>
        <time>2017-01-07T15:35:33Z</time>
      </trkpt>
      <trkpt lat="44.06527" lon="5.95983">
        <ele>549.8</ele>
        <time>2017-01-07T15:35:35Z</time>
      </trkpt>
      <trkpt lat="44.0653" lon="5.95982">
        <ele>550.8</ele>
        <time>2017-01-07T15:35:37Z</time>
      </trkpt>
      <trkpt lat="44.06534" lon="5.95981">
        <ele>551.9</ele>
        <time>2017-01-07T15:35:39Z</time>
      </trkpt>
      <trkpt lat="44.06537" lon="5.95981">
        <ele>552.9</ele>
        <time>2017-01-07T15:35:41Z</time>
      </trkpt>
      <trkpt lat="44.0654" lon="5.9598">
        <ele>553.8</ele>
        <time>2017-01-07T15:35:43Z</time>
      </trkpt>
      <trkpt lat="44.06543" lon="5.95978">
        <ele>554.3</ele>
        <time>2017-01-07T15:35:45Z</time>
      </trkpt>
      <trkpt lat="44.06547" lon="5.95978">
        <ele>554.8</ele>
        <time>2017-01-07T15:35:47Z</time>
      </trkpt>
      <trkpt lat="44.0655" lon="5.9598">
        <ele>554.9</ele>
        <time>2017-01-07T15:35:49Z</time>
      </trkpt>
      <trkpt lat="44.06552" lon="5.95983">
        <ele>555</ele>
        <time>2017-01-07T15:35:51Z</time>
      </trkpt>
      <trkpt lat="44.06555" lon="5.95985">
        <ele>555.2</ele>
        <time>2017-01-07T15:35:53Z</time>
      </trkpt>
      <trkpt lat="44.06556" lon="5.95989">
        <ele>555.4</ele>
        <time>2017-01-07T15:35:55Z</time>
      </trkpt>
      <trkpt lat="44.06557" lon="5.95993">
        <ele>555.7</ele>
        <time>2017-01-07T15:35:57Z</time>
      </trkpt>
      <trkpt lat="44.06558" lon="5.95997">
        <ele>555.5</ele>
        <time>2017-01-07T15:35:59Z</time>
      </trkpt>
      <trkpt lat="44.06559" lon="5.96">
        <ele>555.3</ele>
        <time>2017-01-07T15:36:01Z</time>
      </trkpt>
      <trkpt lat="44.06561" lon="5.96004">
        <ele>555.1</ele>
        <time>2017-01-07T15:36:03Z</time>
      </trkpt>
      <trkpt lat="44.06564" lon="5.96006">
        <ele>554.9</ele>
        <time>2017-01-07T15:36:06Z</time>
      </trkpt>
      <trkpt lat="44.06566" lon="5.9601">
        <ele>554.8</ele>
        <time>2017-01-07T15:36:09Z</time>
      </trkpt>
      <trkpt lat="44.06569" lon="5.96014">
        <ele>555.2</ele>
        <time>2017-01-07T15:36:12Z</time>
      </trkpt>
      <trkpt lat="44.06571" lon="5.96017">
        <ele>555.7</ele>
        <time>2017-01-07T15:36:15Z</time>
      </trkpt>
      <trkpt lat="44.06574" lon="5.9602">
        <ele>556.2</ele>
        <time>2017-01-07T15:36:18Z</time>
      </trkpt>
      <trkpt lat="44.06578" lon="5.96023">
        <ele>556.7</ele>
        <time>2017-01-07T15:36:21Z</time>
      </trkpt>
      <trkpt lat="44.0658" lon="5.96025">
        <ele>556.8</ele>
        <time>2017-01-07T15:36:23Z</time>
      </trkpt>
      <trkpt lat="44.06583" lon="5.96027">
        <ele>557</ele>
        <time>2017-01-07T15:36:26Z</time>
      </trkpt>
      <trkpt lat="44.06584" lon="5.96031">
        <ele>557</ele>
        <time>2017-01-07T15:36:29Z</time>
      </trkpt>
      <trkpt lat="44.06588" lon="5.96032">
        <ele>557</ele>
        <time>2017-01-07T15:36:32Z</time>
      </trkpt>
      <trkpt lat="44.0659" lon="5.96031">
        <ele>557</ele>
        <time>2017-01-07T15:36:34Z</time>
      </trkpt>
      <trkpt lat="44.06594" lon="5.96032">
        <ele>556.8</ele>
        <time>2017-01-07T15:36:36Z</time>
      </trkpt>
      <trkpt lat="44.06597" lon="5.96034">
        <ele>556.6</ele>
        <time>2017-01-07T15:36:39Z</time>
      </trkpt>
      <trkpt lat="44.06601" lon="5.96036">
        <ele>556.3</ele>
        <time>2017-01-07T15:36:42Z</time>
      </trkpt>
      <trkpt lat="44.06604" lon="5.96038">
        <ele>556.5</ele>
        <time>2017-01-07T15:36:45Z</time>
      </trkpt>
      <trkpt lat="44.06607" lon="5.96041">
        <ele>556.8</ele>
        <time>2017-01-07T15:36:48Z</time>
      </trkpt>
      <trkpt lat="44.06611" lon="5.96044">
        <ele>556.9</ele>
        <time>2017-01-07T15:36:51Z</time>
      </trkpt>
      <trkpt lat="44.06613" lon="5.96045">
        <ele>556.9</ele>
        <time>2017-01-07T15:36:53Z</time>
      </trkpt>
      <trkpt lat="44.06616" lon="5.96046">
        <ele>556.9</ele>
        <time>2017-01-07T15:36:55Z</time>
      </trkpt>
      <trkpt lat="44.0662" lon="5.96047">
        <ele>556.9</ele>
        <time>2017-01-07T15:36:57Z</time>
      </trkpt>
      <trkpt lat="44.06623" lon="5.96047">
        <ele>557.2</ele>
        <time>2017-01-07T15:36:59Z</time>
      </trkpt>
      <trkpt lat="44.06625" lon="5.96048">
        <ele>557.6</ele>
        <time>2017-01-07T15:37:01Z</time>
      </trkpt>
      <trkpt lat="44.06628" lon="5.96048">
        <ele>558.1</ele>
        <time>2017-01-07T15:37:03Z</time>
      </trkpt>
      <trkpt lat="44.06632" lon="5.96049">
        <ele>558.7</ele>
        <time>2017-01-07T15:37:06Z</time>
      </trkpt>
      <trkpt lat="44.06636" lon="5.9605">
        <ele>559.4</ele>
        <time>2017-01-07T15:37:09Z</time>
      </trkpt>
      <trkpt lat="44.06639" lon="5.96051">
        <ele>559.4</ele>
        <time>2017-01-07T15:37:12Z</time>
      </trkpt>
      <trkpt lat="44.06642" lon="5.96052">
        <ele>559.1</ele>
        <time>2017-01-07T15:37:15Z</time>
      </trkpt>
      <trkpt lat="44.06646" lon="5.96054">
        <ele>558.8</ele>
        <time>2017-01-07T15:37:18Z</time>
      </trkpt>
      <trkpt lat="44.06649" lon="5.96055">
        <ele>559.3</ele>
        <time>2017-01-07T15:37:20Z</time>
      </trkpt>
      <trkpt lat="44.06653" lon="5.96055">
        <ele>559.8</ele>
        <time>2017-01-07T15:37:23Z</time>
      </trkpt>
      <trkpt lat="44.06656" lon="5.96056">
        <ele>560.1</ele>
        <time>2017-01-07T15:37:25Z</time>
      </trkpt>
      <trkpt lat="44.06659" lon="5.96056">
        <ele>560.3</ele>
        <time>2017-01-07T15:37:27Z</time>
      </trkpt>
      <trkpt lat="44.06663" lon="5.96056">
        <ele>560</ele>
        <time>2017-01-07T15:37:30Z</time>
      </trkpt>
      <trkpt lat="44.06666" lon="5.96058">
        <ele>560</ele>
        <time>2017-01-07T15:37:33Z</time>
      </trkpt>
      <trkpt lat="44.06669" lon="5.9606">
        <ele>560.2</ele>
        <time>2017-01-07T15:37:36Z</time>
      </trkpt>
      <trkpt lat="44.06672" lon="5.9606">
        <ele>560.5</ele>
        <time>2017-01-07T15:37:39Z</time>
      </trkpt>
      <trkpt lat="44.06675" lon="5.96061">
        <ele>560.3</ele>
        <time>2017-01-07T15:37:42Z</time>
      </trkpt>
      <trkpt lat="44.06679" lon="5.96062">
        <ele>560.2</ele>
        <time>2017-01-07T15:37:45Z</time>
      </trkpt>
      <trkpt lat="44.06682" lon="5.96064">
        <ele>560.6</ele>
        <time>2017-01-07T15:37:48Z</time>
      </trkpt>
      <trkpt lat="44.06686" lon="5.96064">
        <ele>561.1</ele>
        <time>2017-01-07T15:37:51Z</time>
      </trkpt>
      <trkpt lat="44.06689" lon="5.96063">
        <ele>561.4</ele>
        <time>2017-01-07T15:37:54Z</time>
      </trkpt>
      <trkpt lat="44.06692" lon="5.96063">
        <ele>561.6</ele>
        <time>2017-01-07T15:37:56Z</time>
      </trkpt>
      <trkpt lat="44.06695" lon="5.96063">
        <ele>561.9</ele>
        <time>2017-01-07T15:37:58Z</time>
      </trkpt>
      <trkpt lat="44.06698" lon="5.96063">
        <ele>562.2</ele>
        <time>2017-01-07T15:38:01Z</time>
      </trkpt>
      <trkpt lat="44.06701" lon="5.96062">
        <ele>562.5</ele>
        <time>2017-01-07T15:38:03Z</time>
      </trkpt>
      <trkpt lat="44.06703" lon="5.96061">
        <ele>563.1</ele>
        <time>2017-01-07T15:38:05Z</time>
      </trkpt>
      <trkpt lat="44.06706" lon="5.96059">
        <ele>563.9</ele>
        <time>2017-01-07T15:38:08Z</time>
      </trkpt>
      <trkpt lat="44.0671" lon="5.96058">
        <ele>564.5</ele>
        <time>2017-01-07T15:38:11Z</time>
      </trkpt>
      <trkpt lat="44.06713" lon="5.96057">
        <ele>565</ele>
        <time>2017-01-07T15:38:13Z</time>
      </trkpt>
      <trkpt lat="44.06716" lon="5.96055">
        <ele>565.4</ele>
        <time>2017-01-07T15:38:15Z</time>
      </trkpt>
      <trkpt lat="44.06719" lon="5.96053">
        <ele>565.8</ele>
        <time>2017-01-07T15:38:18Z</time>
      </trkpt>
      <trkpt lat="44.06722" lon="5.96053">
        <ele>565.9</ele>
        <time>2017-01-07T15:38:21Z</time>
      </trkpt>
      <trkpt lat="44.06726" lon="5.96051">
        <ele>566</ele>
        <time>2017-01-07T15:38:24Z</time>
      </trkpt>
      <trkpt lat="44.06729" lon="5.96053">
        <ele>566</ele>
        <time>2017-01-07T15:38:41Z</time>
      </trkpt>
      <trkpt lat="44.06732" lon="5.96056">
        <ele>566</ele>
        <time>2017-01-07T15:38:44Z</time>
      </trkpt>
      <trkpt lat="44.06734" lon="5.96057">
        <ele>566</ele>
        <time>2017-01-07T15:38:46Z</time>
      </trkpt>
      <trkpt lat="44.06737" lon="5.96058">
        <ele>566.1</ele>
        <time>2017-01-07T15:38:48Z</time>
      </trkpt>
      <trkpt lat="44.06741" lon="5.9606">
        <ele>566.2</ele>
        <time>2017-01-07T15:38:50Z</time>
      </trkpt>
      <trkpt lat="44.06744" lon="5.96062">
        <ele>566.2</ele>
        <time>2017-01-07T15:38:52Z</time>
      </trkpt>
      <trkpt lat="44.06749" lon="5.96064">
        <ele>566.2</ele>
        <time>2017-01-07T15:38:54Z</time>
      </trkpt>
      <trkpt lat="44.06752" lon="5.96065">
        <ele>566.1</ele>
        <time>2017-01-07T15:38:56Z</time>
      </trkpt>
      <trkpt lat="44.06755" lon="5.96067">
        <ele>566</ele>
        <time>2017-01-07T15:38:58Z</time>
      </trkpt>
      <trkpt lat="44.06757" lon="5.96069">
        <ele>565.9</ele>
        <time>2017-01-07T15:39:00Z</time>
      </trkpt>
      <trkpt lat="44.06759" lon="5.96073">
        <ele>566</ele>
        <time>2017-01-07T15:39:03Z</time>
      </trkpt>
      <trkpt lat="44.0676" lon="5.96078">
        <ele>566.1</ele>
        <time>2017-01-07T15:39:05Z</time>
      </trkpt>
      <trkpt lat="44.0676" lon="5.96082">
        <ele>555</ele>
        <time>2017-01-07T15:39:07Z</time>
      </trkpt>
      <trkpt lat="44.06758" lon="5.96086">
        <ele>552.9</ele>
        <time>2017-01-07T15:39:09Z</time>
      </trkpt>
      <trkpt lat="44.06755" lon="5.96089">
        <ele>552.5</ele>
        <time>2017-01-07T15:39:12Z</time>
      </trkpt>
      <trkpt lat="44.06752" lon="5.96091">
        <ele>552.2</ele>
        <time>2017-01-07T15:39:14Z</time>
      </trkpt>
      <trkpt lat="44.06747" lon="5.96093">
        <ele>551.9</ele>
        <time>2017-01-07T15:39:16Z</time>
      </trkpt>
      <trkpt lat="44.06744" lon="5.96093">
        <ele>551.6</ele>
        <time>2017-01-07T15:39:17Z</time>
      </trkpt>
      <trkpt lat="44.06739" lon="5.96094">
        <ele>551.2</ele>
        <time>2017-01-07T15:39:19Z</time>
      </trkpt>
      <trkpt lat="44.06736" lon="5.96095">
        <ele>550.7</ele>
        <time>2017-01-07T15:39:21Z</time>
      </trkpt>
      <trkpt lat="44.06733" lon="5.96099">
        <ele>550.1</ele>
        <time>2017-01-07T15:39:23Z</time>
      </trkpt>
      <trkpt lat="44.06733" lon="5.96103">
        <ele>549.6</ele>
        <time>2017-01-07T15:39:25Z</time>
      </trkpt>
      <trkpt lat="44.06734" lon="5.96108">
        <ele>548.7</ele>
        <time>2017-01-07T15:39:27Z</time>
      </trkpt>
      <trkpt lat="44.06736" lon="5.96113">
        <ele>547.7</ele>
        <time>2017-01-07T15:39:29Z</time>
      </trkpt>
      <trkpt lat="44.06738" lon="5.96118">
        <ele>547.2</ele>
        <time>2017-01-07T15:39:31Z</time>
      </trkpt>
      <trkpt lat="44.06741" lon="5.96121">
        <ele>547</ele>
        <time>2017-01-07T15:39:33Z</time>
      </trkpt>
      <trkpt lat="44.06745" lon="5.96124">
        <ele>547.1</ele>
        <time>2017-01-07T15:39:35Z</time>
      </trkpt>
      <trkpt lat="44.06748" lon="5.96127">
        <ele>547.3</ele>
        <time>2017-01-07T15:39:37Z</time>
      </trkpt>
      <trkpt lat="44.06752" lon="5.9613">
        <ele>547.3</ele>
        <time>2017-01-07T15:39:39Z</time>
      </trkpt>
      <trkpt lat="44.06755" lon="5.96134">
        <ele>547.3</ele>
        <time>2017-01-07T15:39:41Z</time>
      </trkpt>
      <trkpt lat="44.06758" lon="5.96137">
        <ele>547.1</ele>
        <time>2017-01-07T15:39:42Z</time>
      </trkpt>
      <trkpt lat="44.06761" lon="5.96139">
        <ele>547</ele>
        <time>2017-01-07T15:39:43Z</time>
      </trkpt>
      <trkpt lat="44.06763" lon="5.96142">
        <ele>546.8</ele>
        <time>2017-01-07T15:39:44Z</time>
      </trkpt>
      <trkpt lat="44.06766" lon="5.96145">
        <ele>546.7</ele>
        <time>2017-01-07T15:39:45Z</time>
      </trkpt>
      <trkpt lat="44.06769" lon="5.96148">
        <ele>546.5</ele>
        <time>2017-01-07T15:39:46Z</time>
      </trkpt>
      <trkpt lat="44.06772" lon="5.96151">
        <ele>546.7</ele>
        <time>2017-01-07T15:39:47Z</time>
      </trkpt>
      <trkpt lat="44.06775" lon="5.96153">
        <ele>546.8</ele>
        <time>2017-01-07T15:39:48Z</time>
      </trkpt>
      <trkpt lat="44.06777" lon="5.96156">
        <ele>546.8</ele>
        <time>2017-01-07T15:39:49Z</time>
      </trkpt>
      <trkpt lat="44.0678" lon="5.96159">
        <ele>546.6</ele>
        <time>2017-01-07T15:39:50Z</time>
      </trkpt>
      <trkpt lat="44.06782" lon="5.96161">
        <ele>546.4</ele>
        <time>2017-01-07T15:39:51Z</time>
      </trkpt>
      <trkpt lat="44.06784" lon="5.96165">
        <ele>546.3</ele>
        <time>2017-01-07T15:39:52Z</time>
      </trkpt>
      <trkpt lat="44.06786" lon="5.9617">
        <ele>546</ele>
        <time>2017-01-07T15:39:53Z</time>
      </trkpt>
      <trkpt lat="44.06787" lon="5.96175">
        <ele>545.6</ele>
        <time>2017-01-07T15:39:54Z</time>
      </trkpt>
      <trkpt lat="44.06786" lon="5.96179">
        <ele>545.3</ele>
        <time>2017-01-07T15:39:55Z</time>
      </trkpt>
      <trkpt lat="44.06786" lon="5.96183">
        <ele>545</ele>
        <time>2017-01-07T15:39:56Z</time>
      </trkpt>
      <trkpt lat="44.06784" lon="5.96186">
        <ele>544.7</ele>
        <time>2017-01-07T15:39:57Z</time>
      </trkpt>
      <trkpt lat="44.06783" lon="5.9619">
        <ele>544.4</ele>
        <time>2017-01-07T15:39:58Z</time>
      </trkpt>
      <trkpt lat="44.06781" lon="5.96194">
        <ele>544.1</ele>
        <time>2017-01-07T15:39:59Z</time>
      </trkpt>
      <trkpt lat="44.0678" lon="5.96198">
        <ele>543.7</ele>
        <time>2017-01-07T15:40:00Z</time>
      </trkpt>
      <trkpt lat="44.06778" lon="5.96202">
        <ele>543.6</ele>
        <time>2017-01-07T15:40:01Z</time>
      </trkpt>
      <trkpt lat="44.06777" lon="5.96205">
        <ele>543.5</ele>
        <time>2017-01-07T15:40:02Z</time>
      </trkpt>
      <trkpt lat="44.06775" lon="5.96209">
        <ele>543.4</ele>
        <time>2017-01-07T15:40:03Z</time>
      </trkpt>
      <trkpt lat="44.06774" lon="5.96213">
        <ele>543.4</ele>
        <time>2017-01-07T15:40:04Z</time>
      </trkpt>
      <trkpt lat="44.06772" lon="5.96216">
        <ele>543.4</ele>
        <time>2017-01-07T15:40:05Z</time>
      </trkpt>
      <trkpt lat="44.0677" lon="5.96222">
        <ele>543.5</ele>
        <time>2017-01-07T15:40:07Z</time>
      </trkpt>
      <trkpt lat="44.06768" lon="5.96228">
        <ele>543.5</ele>
        <time>2017-01-07T15:40:09Z</time>
      </trkpt>
      <trkpt lat="44.06765" lon="5.96234">
        <ele>543.5</ele>
        <time>2017-01-07T15:40:11Z</time>
      </trkpt>
      <trkpt lat="44.06763" lon="5.9624">
        <ele>543.5</ele>
        <time>2017-01-07T15:40:13Z</time>
      </trkpt>
      <trkpt lat="44.06761" lon="5.96246">
        <ele>543.5</ele>
        <time>2017-01-07T15:40:15Z</time>
      </trkpt>
      <trkpt lat="44.0676" lon="5.9625">
        <ele>543.5</ele>
        <time>2017-01-07T15:40:16Z</time>
      </trkpt>
      <trkpt lat="44.06759" lon="5.96253">
        <ele>543.5</ele>
        <time>2017-01-07T15:40:17Z</time>
      </trkpt>
      <trkpt lat="44.06758" lon="5.96257">
        <ele>543.5</ele>
        <time>2017-01-07T15:40:18Z</time>
      </trkpt>
      <trkpt lat="44.06756" lon="5.96261">
        <ele>543.5</ele>
        <time>2017-01-07T15:40:19Z</time>
      </trkpt>
      <trkpt lat="44.06755" lon="5.96265">
        <ele>543.5</ele>
        <time>2017-01-07T15:40:20Z</time>
      </trkpt>
      <trkpt lat="44.06753" lon="5.96269">
        <ele>543.4</ele>
        <time>2017-01-07T15:40:21Z</time>
      </trkpt>
      <trkpt lat="44.06752" lon="5.96273">
        <ele>543.4</ele>
        <time>2017-01-07T15:40:22Z</time>
      </trkpt>
      <trkpt lat="44.06751" lon="5.96277">
        <ele>543.3</ele>
        <time>2017-01-07T15:40:23Z</time>
      </trkpt>
      <trkpt lat="44.0675" lon="5.96281">
        <ele>543.2</ele>
        <time>2017-01-07T15:40:24Z</time>
      </trkpt>
      <trkpt lat="44.06748" lon="5.96285">
        <ele>543.2</ele>
        <time>2017-01-07T15:40:25Z</time>
      </trkpt>
      <trkpt lat="44.06747" lon="5.9629">
        <ele>543.2</ele>
        <time>2017-01-07T15:40:26Z</time>
      </trkpt>
      <trkpt lat="44.06746" lon="5.96294">
        <ele>543.2</ele>
        <time>2017-01-07T15:40:27Z</time>
      </trkpt>
      <trkpt lat="44.06745" lon="5.96299">
        <ele>543.3</ele>
        <time>2017-01-07T15:40:28Z</time>
      </trkpt>
      <trkpt lat="44.06744" lon="5.96303">
        <ele>543.3</ele>
        <time>2017-01-07T15:40:29Z</time>
      </trkpt>
      <trkpt lat="44.06743" lon="5.96307">
        <ele>543.4</ele>
        <time>2017-01-07T15:40:30Z</time>
      </trkpt>
      <trkpt lat="44.06742" lon="5.96311">
        <ele>543.6</ele>
        <time>2017-01-07T15:40:31Z</time>
      </trkpt>
      <trkpt lat="44.06741" lon="5.96315">
        <ele>543.7</ele>
        <time>2017-01-07T15:40:32Z</time>
      </trkpt>
      <trkpt lat="44.0674" lon="5.96319">
        <ele>543.9</ele>
        <time>2017-01-07T15:40:33Z</time>
      </trkpt>
      <trkpt lat="44.0674" lon="5.96323">
        <ele>544.1</ele>
        <time>2017-01-07T15:40:34Z</time>
      </trkpt>
      <trkpt lat="44.06739" lon="5.96327">
        <ele>544.3</ele>
        <time>2017-01-07T15:40:35Z</time>
      </trkpt>
      <trkpt lat="44.06739" lon="5.96331">
        <ele>544.6</ele>
        <time>2017-01-07T15:40:36Z</time>
      </trkpt>
      <trkpt lat="44.06738" lon="5.96335">
        <ele>544.9</ele>
        <time>2017-01-07T15:40:37Z</time>
      </trkpt>
      <trkpt lat="44.06738" lon="5.96338">
        <ele>545.2</ele>
        <time>2017-01-07T15:40:38Z</time>
      </trkpt>
      <trkpt lat="44.06737" lon="5.96342">
        <ele>545.7</ele>
        <time>2017-01-07T15:40:39Z</time>
      </trkpt>
      <trkpt lat="44.06736" lon="5.96346">
        <ele>546.1</ele>
        <time>2017-01-07T15:40:40Z</time>
      </trkpt>
      <trkpt lat="44.06735" lon="5.9635">
        <ele>546.6</ele>
        <time>2017-01-07T15:40:41Z</time>
      </trkpt>
      <trkpt lat="44.06735" lon="5.96353">
        <ele>546.9</ele>
        <time>2017-01-07T15:40:42Z</time>
      </trkpt>
      <trkpt lat="44.06733" lon="5.9636">
        <ele>547.5</ele>
        <time>2017-01-07T15:40:44Z</time>
      </trkpt>
      <trkpt lat="44.06733" lon="5.96367">
        <ele>548.3</ele>
        <time>2017-01-07T15:40:46Z</time>
      </trkpt>
      <trkpt lat="44.06733" lon="5.96372">
        <ele>549</ele>
        <time>2017-01-07T15:40:48Z</time>
      </trkpt>
      <trkpt lat="44.06732" lon="5.96378">
        <ele>549.7</ele>
        <time>2017-01-07T15:40:50Z</time>
      </trkpt>
      <trkpt lat="44.06731" lon="5.96384">
        <ele>550.3</ele>
        <time>2017-01-07T15:40:52Z</time>
      </trkpt>
      <trkpt lat="44.0673" lon="5.96389">
        <ele>550.7</ele>
        <time>2017-01-07T15:40:54Z</time>
      </trkpt>
      <trkpt lat="44.0673" lon="5.96395">
        <ele>551.2</ele>
        <time>2017-01-07T15:40:56Z</time>
      </trkpt>
      <trkpt lat="44.0673" lon="5.96401">
        <ele>551.5</ele>
        <time>2017-01-07T15:40:58Z</time>
      </trkpt>
      <trkpt lat="44.06731" lon="5.96407">
        <ele>551.8</ele>
        <time>2017-01-07T15:41:00Z</time>
      </trkpt>
      <trkpt lat="44.06733" lon="5.96413">
        <ele>552</ele>
        <time>2017-01-07T15:41:02Z</time>
      </trkpt>
      <trkpt lat="44.06735" lon="5.96418">
        <ele>552</ele>
        <time>2017-01-07T15:41:04Z</time>
      </trkpt>
      <trkpt lat="44.06739" lon="5.96423">
        <ele>552</ele>
        <time>2017-01-07T15:41:06Z</time>
      </trkpt>
      <trkpt lat="44.06743" lon="5.96428">
        <ele>552.2</ele>
        <time>2017-01-07T15:41:08Z</time>
      </trkpt>
      <trkpt lat="44.06745" lon="5.9643">
        <ele>552.4</ele>
        <time>2017-01-07T15:41:09Z</time>
      </trkpt>
      <trkpt lat="44.06747" lon="5.96432">
        <ele>552.7</ele>
        <time>2017-01-07T15:41:10Z</time>
      </trkpt>
      <trkpt lat="44.06751" lon="5.96437">
        <ele>553.3</ele>
        <time>2017-01-07T15:41:12Z</time>
      </trkpt>
      <trkpt lat="44.06755" lon="5.96441">
        <ele>553.8</ele>
        <time>2017-01-07T15:41:14Z</time>
      </trkpt>
      <trkpt lat="44.06758" lon="5.96446">
        <ele>554.5</ele>
        <time>2017-01-07T15:41:16Z</time>
      </trkpt>
      <trkpt lat="44.06761" lon="5.96451">
        <ele>555.2</ele>
        <time>2017-01-07T15:41:18Z</time>
      </trkpt>
      <trkpt lat="44.06764" lon="5.96455">
        <ele>555.9</ele>
        <time>2017-01-07T15:41:20Z</time>
      </trkpt>
      <trkpt lat="44.06767" lon="5.96458">
        <ele>556.5</ele>
        <time>2017-01-07T15:41:22Z</time>
      </trkpt>
      <trkpt lat="44.06772" lon="5.9646">
        <ele>556.9</ele>
        <time>2017-01-07T15:41:24Z</time>
      </trkpt>
      <trkpt lat="44.06776" lon="5.96463">
        <ele>557.4</ele>
        <time>2017-01-07T15:41:26Z</time>
      </trkpt>
      <trkpt lat="44.06781" lon="5.96465">
        <ele>557.8</ele>
        <time>2017-01-07T15:41:28Z</time>
      </trkpt>
      <trkpt lat="44.06786" lon="5.96467">
        <ele>558.3</ele>
        <time>2017-01-07T15:41:30Z</time>
      </trkpt>
      <trkpt lat="44.06791" lon="5.96467">
        <ele>558.7</ele>
        <time>2017-01-07T15:41:32Z</time>
      </trkpt>
      <trkpt lat="44.06796" lon="5.96467">
        <ele>559.2</ele>
        <time>2017-01-07T15:41:34Z</time>
      </trkpt>
      <trkpt lat="44.068" lon="5.96468">
        <ele>559.3</ele>
        <time>2017-01-07T15:41:36Z</time>
      </trkpt>
      <trkpt lat="44.06804" lon="5.96469">
        <ele>559.3</ele>
        <time>2017-01-07T15:41:38Z</time>
      </trkpt>
      <trkpt lat="44.0681" lon="5.96469">
        <ele>559.7</ele>
        <time>2017-01-07T15:41:40Z</time>
      </trkpt>
      <trkpt lat="44.06813" lon="5.96469">
        <ele>559.9</ele>
        <time>2017-01-07T15:41:41Z</time>
      </trkpt>
      <trkpt lat="44.06816" lon="5.96469">
        <ele>560.2</ele>
        <time>2017-01-07T15:41:42Z</time>
      </trkpt>
      <trkpt lat="44.0682" lon="5.9647">
        <ele>560.2</ele>
        <time>2017-01-07T15:41:43Z</time>
      </trkpt>
      <trkpt lat="44.06823" lon="5.96471">
        <ele>560.3</ele>
        <time>2017-01-07T15:41:44Z</time>
      </trkpt>
      <trkpt lat="44.06826" lon="5.96472">
        <ele>560.3</ele>
        <time>2017-01-07T15:41:45Z</time>
      </trkpt>
      <trkpt lat="44.0683" lon="5.96472">
        <ele>560.4</ele>
        <time>2017-01-07T15:41:46Z</time>
      </trkpt>
      <trkpt lat="44.06833" lon="5.96473">
        <ele>560.4</ele>
        <time>2017-01-07T15:41:47Z</time>
      </trkpt>
      <trkpt lat="44.06838" lon="5.96474">
        <ele>560.7</ele>
        <time>2017-01-07T15:41:49Z</time>
      </trkpt>
      <trkpt lat="44.06842" lon="5.96477">
        <ele>561.2</ele>
        <time>2017-01-07T15:41:51Z</time>
      </trkpt>
      <trkpt lat="44.06846" lon="5.9648">
        <ele>561.6</ele>
        <time>2017-01-07T15:41:53Z</time>
      </trkpt>
      <trkpt lat="44.06849" lon="5.96482">
        <ele>561.9</ele>
        <time>2017-01-07T15:41:55Z</time>
      </trkpt>
      <trkpt lat="44.06851" lon="5.96483">
        <ele>562.1</ele>
        <time>2017-01-07T15:41:57Z</time>
      </trkpt>
      <trkpt lat="44.06855" lon="5.96486">
        <ele>562.4</ele>
        <time>2017-01-07T15:41:59Z</time>
      </trkpt>
      <trkpt lat="44.06858" lon="5.96488">
        <ele>562.7</ele>
        <time>2017-01-07T15:42:01Z</time>
      </trkpt>
      <trkpt lat="44.06861" lon="5.96491">
        <ele>562.9</ele>
        <time>2017-01-07T15:42:03Z</time>
      </trkpt>
      <trkpt lat="44.06865" lon="5.96494">
        <ele>563</ele>
        <time>2017-01-07T15:42:05Z</time>
      </trkpt>
      <trkpt lat="44.06868" lon="5.96497">
        <ele>563.3</ele>
        <time>2017-01-07T15:42:07Z</time>
      </trkpt>
      <trkpt lat="44.06871" lon="5.96501">
        <ele>563.6</ele>
        <time>2017-01-07T15:42:09Z</time>
      </trkpt>
      <trkpt lat="44.06875" lon="5.96505">
        <ele>563.5</ele>
        <time>2017-01-07T15:42:11Z</time>
      </trkpt>
      <trkpt lat="44.06878" lon="5.96508">
        <ele>563.3</ele>
        <time>2017-01-07T15:42:13Z</time>
      </trkpt>
      <trkpt lat="44.06881" lon="5.96512">
        <ele>563</ele>
        <time>2017-01-07T15:42:15Z</time>
      </trkpt>
      <trkpt lat="44.06884" lon="5.96516">
        <ele>562.8</ele>
        <time>2017-01-07T15:42:17Z</time>
      </trkpt>
      <trkpt lat="44.06887" lon="5.96519">
        <ele>562.7</ele>
        <time>2017-01-07T15:42:19Z</time>
      </trkpt>
      <trkpt lat="44.0689" lon="5.96522">
        <ele>562.7</ele>
        <time>2017-01-07T15:42:21Z</time>
      </trkpt>
      <trkpt lat="44.06894" lon="5.96525">
        <ele>562.4</ele>
        <time>2017-01-07T15:42:23Z</time>
      </trkpt>
      <trkpt lat="44.06896" lon="5.96529">
        <ele>562.1</ele>
        <time>2017-01-07T15:42:25Z</time>
      </trkpt>
      <trkpt lat="44.06899" lon="5.96532">
        <ele>561.9</ele>
        <time>2017-01-07T15:42:27Z</time>
      </trkpt>
      <trkpt lat="44.06901" lon="5.96536">
        <ele>561.8</ele>
        <time>2017-01-07T15:42:29Z</time>
      </trkpt>
      <trkpt lat="44.06903" lon="5.9654">
        <ele>561.5</ele>
        <time>2017-01-07T15:42:31Z</time>
      </trkpt>
      <trkpt lat="44.06905" lon="5.96544">
        <ele>561.1</ele>
        <time>2017-01-07T15:42:33Z</time>
      </trkpt>
      <trkpt lat="44.06907" lon="5.96548">
        <ele>560.6</ele>
        <time>2017-01-07T15:42:35Z</time>
      </trkpt>
      <trkpt lat="44.0691" lon="5.96552">
        <ele>560.4</ele>
        <time>2017-01-07T15:42:37Z</time>
      </trkpt>
      <trkpt lat="44.06913" lon="5.96556">
        <ele>560.3</ele>
        <time>2017-01-07T15:42:39Z</time>
      </trkpt>
      <trkpt lat="44.06916" lon="5.96561">
        <ele>560.3</ele>
        <time>2017-01-07T15:42:41Z</time>
      </trkpt>
      <trkpt lat="44.06918" lon="5.96566">
        <ele>560.4</ele>
        <time>2017-01-07T15:42:43Z</time>
      </trkpt>
      <trkpt lat="44.06918" lon="5.96571">
        <ele>560.8</ele>
        <time>2017-01-07T15:42:45Z</time>
      </trkpt>
      <trkpt lat="44.06918" lon="5.96575">
        <ele>561.2</ele>
        <time>2017-01-07T15:42:47Z</time>
      </trkpt>
      <trkpt lat="44.06916" lon="5.9658">
        <ele>561.5</ele>
        <time>2017-01-07T15:42:49Z</time>
      </trkpt>
      <trkpt lat="44.06912" lon="5.96583">
        <ele>561.9</ele>
        <time>2017-01-07T15:42:51Z</time>
      </trkpt>
      <trkpt lat="44.06908" lon="5.96585">
        <ele>562.9</ele>
        <time>2017-01-07T15:42:53Z</time>
      </trkpt>
      <trkpt lat="44.06905" lon="5.96587">
        <ele>563.5</ele>
        <time>2017-01-07T15:42:54Z</time>
      </trkpt>
      <trkpt lat="44.06902" lon="5.96587">
        <ele>564.4</ele>
        <time>2017-01-07T15:42:55Z</time>
      </trkpt>
      <trkpt lat="44.06899" lon="5.96588">
        <ele>565.3</ele>
        <time>2017-01-07T15:42:56Z</time>
      </trkpt>
      <trkpt lat="44.06897" lon="5.96589">
        <ele>566.1</ele>
        <time>2017-01-07T15:42:57Z</time>
      </trkpt>
      <trkpt lat="44.06894" lon="5.9659">
        <ele>566.5</ele>
        <time>2017-01-07T15:42:58Z</time>
      </trkpt>
      <trkpt lat="44.06891" lon="5.96591">
        <ele>566.9</ele>
        <time>2017-01-07T15:42:59Z</time>
      </trkpt>
      <trkpt lat="44.06888" lon="5.96593">
        <ele>567.3</ele>
        <time>2017-01-07T15:43:00Z</time>
      </trkpt>
      <trkpt lat="44.06885" lon="5.96595">
        <ele>567.7</ele>
        <time>2017-01-07T15:43:02Z</time>
      </trkpt>
      <trkpt lat="44.06882" lon="5.96596">
        <ele>568</ele>
        <time>2017-01-07T15:43:06Z</time>
      </trkpt>
      <trkpt lat="44.06879" lon="5.96598">
        <ele>568.2</ele>
        <time>2017-01-07T15:43:10Z</time>
      </trkpt>
      <trkpt lat="44.06876" lon="5.96601">
        <ele>568.3</ele>
        <time>2017-01-07T15:43:13Z</time>
      </trkpt>
      <trkpt lat="44.06873" lon="5.96604">
        <ele>568.5</ele>
        <time>2017-01-07T15:43:15Z</time>
      </trkpt>
      <trkpt lat="44.06869" lon="5.96608">
        <ele>568.3</ele>
        <time>2017-01-07T15:43:17Z</time>
      </trkpt>
      <trkpt lat="44.06867" lon="5.9661">
        <ele>568.3</ele>
        <time>2017-01-07T15:43:18Z</time>
      </trkpt>
      <trkpt lat="44.06863" lon="5.96614">
        <ele>568</ele>
        <time>2017-01-07T15:43:20Z</time>
      </trkpt>
      <trkpt lat="44.0686" lon="5.96617">
        <ele>567.6</ele>
        <time>2017-01-07T15:43:22Z</time>
      </trkpt>
      <trkpt lat="44.06857" lon="5.96619">
        <ele>567.3</ele>
        <time>2017-01-07T15:43:24Z</time>
      </trkpt>
      <trkpt lat="44.06854" lon="5.96621">
        <ele>567</ele>
        <time>2017-01-07T15:43:28Z</time>
      </trkpt>
      <trkpt lat="44.06857" lon="5.96628">
        <ele>566.6</ele>
        <time>2017-01-07T15:43:44Z</time>
      </trkpt>
      <trkpt lat="44.06858" lon="5.96633">
        <ele>566</ele>
        <time>2017-01-07T15:43:45Z</time>
      </trkpt>
      <trkpt lat="44.06858" lon="5.96637">
        <ele>565.5</ele>
        <time>2017-01-07T15:43:46Z</time>
      </trkpt>
      <trkpt lat="44.06859" lon="5.96642">
        <ele>564.9</ele>
        <time>2017-01-07T15:43:47Z</time>
      </trkpt>
      <trkpt lat="44.06861" lon="5.96646">
        <ele>564.7</ele>
        <time>2017-01-07T15:43:48Z</time>
      </trkpt>
      <trkpt lat="44.06863" lon="5.96651">
        <ele>564.4</ele>
        <time>2017-01-07T15:43:49Z</time>
      </trkpt>
      <trkpt lat="44.06865" lon="5.96655">
        <ele>564</ele>
        <time>2017-01-07T15:43:50Z</time>
      </trkpt>
      <trkpt lat="44.06868" lon="5.9666">
        <ele>563.9</ele>
        <time>2017-01-07T15:43:51Z</time>
      </trkpt>
      <trkpt lat="44.06869" lon="5.96664">
        <ele>563.6</ele>
        <time>2017-01-07T15:43:52Z</time>
      </trkpt>
      <trkpt lat="44.06871" lon="5.96668">
        <ele>563.4</ele>
        <time>2017-01-07T15:43:53Z</time>
      </trkpt>
      <trkpt lat="44.06872" lon="5.96672">
        <ele>563.2</ele>
        <time>2017-01-07T15:43:54Z</time>
      </trkpt>
      <trkpt lat="44.06873" lon="5.96675">
        <ele>562.9</ele>
        <time>2017-01-07T15:43:55Z</time>
      </trkpt>
      <trkpt lat="44.06875" lon="5.96679">
        <ele>562.5</ele>
        <time>2017-01-07T15:43:56Z</time>
      </trkpt>
      <trkpt lat="44.06876" lon="5.96683">
        <ele>562.1</ele>
        <time>2017-01-07T15:43:57Z</time>
      </trkpt>
      <trkpt lat="44.06878" lon="5.96687">
        <ele>561.7</ele>
        <time>2017-01-07T15:43:58Z</time>
      </trkpt>
      <trkpt lat="44.06879" lon="5.96692">
        <ele>561.2</ele>
        <time>2017-01-07T15:43:59Z</time>
      </trkpt>
      <trkpt lat="44.06881" lon="5.96698">
        <ele>560.8</ele>
        <time>2017-01-07T15:44:00Z</time>
      </trkpt>
      <trkpt lat="44.06883" lon="5.96704">
        <ele>559.4</ele>
        <time>2017-01-07T15:44:01Z</time>
      </trkpt>
      <trkpt lat="44.06885" lon="5.96712">
        <ele>558.5</ele>
        <time>2017-01-07T15:44:02Z</time>
      </trkpt>
      <trkpt lat="44.0689" lon="5.96718">
        <ele>557.1</ele>
        <time>2017-01-07T15:44:03Z</time>
      </trkpt>
      <trkpt lat="44.06895" lon="5.96724">
        <ele>556.6</ele>
        <time>2017-01-07T15:44:04Z</time>
      </trkpt>
      <trkpt lat="44.06901" lon="5.96731">
        <ele>555.9</ele>
        <time>2017-01-07T15:44:05Z</time>
      </trkpt>
      <trkpt lat="44.06907" lon="5.96738">
        <ele>555.5</ele>
        <time>2017-01-07T15:44:06Z</time>
      </trkpt>
      <trkpt lat="44.06912" lon="5.96745">
        <ele>555</ele>
        <time>2017-01-07T15:44:07Z</time>
      </trkpt>
      <trkpt lat="44.06916" lon="5.96754">
        <ele>554.2</ele>
        <time>2017-01-07T15:44:08Z</time>
      </trkpt>
      <trkpt lat="44.0692" lon="5.96761">
        <ele>553</ele>
        <time>2017-01-07T15:44:09Z</time>
      </trkpt>
      <trkpt lat="44.06925" lon="5.9677">
        <ele>550.9</ele>
        <time>2017-01-07T15:44:10Z</time>
      </trkpt>
      <trkpt lat="44.0693" lon="5.96777">
        <ele>549.4</ele>
        <time>2017-01-07T15:44:11Z</time>
      </trkpt>
      <trkpt lat="44.06935" lon="5.96784">
        <ele>548.2</ele>
        <time>2017-01-07T15:44:12Z</time>
      </trkpt>
      <trkpt lat="44.06938" lon="5.96788">
        <ele>547.3</ele>
        <time>2017-01-07T15:44:13Z</time>
      </trkpt>
      <trkpt lat="44.06942" lon="5.96792">
        <ele>546.5</ele>
        <time>2017-01-07T15:44:14Z</time>
      </trkpt>
      <trkpt lat="44.06946" lon="5.96796">
        <ele>545.8</ele>
        <time>2017-01-07T15:44:15Z</time>
      </trkpt>
      <trkpt lat="44.06952" lon="5.96797">
        <ele>544.9</ele>
        <time>2017-01-07T15:44:16Z</time>
      </trkpt>
      <trkpt lat="44.06957" lon="5.96798">
        <ele>544.5</ele>
        <time>2017-01-07T15:44:17Z</time>
      </trkpt>
      <trkpt lat="44.06962" lon="5.96798">
        <ele>543.5</ele>
        <time>2017-01-07T15:44:18Z</time>
      </trkpt>
      <trkpt lat="44.06966" lon="5.968">
        <ele>543</ele>
        <time>2017-01-07T15:44:19Z</time>
      </trkpt>
      <trkpt lat="44.0697" lon="5.96804">
        <ele>542.5</ele>
        <time>2017-01-07T15:44:21Z</time>
      </trkpt>
      <trkpt lat="44.06974" lon="5.96808">
        <ele>541.2</ele>
        <time>2017-01-07T15:44:22Z</time>
      </trkpt>
      <trkpt lat="44.06977" lon="5.96812">
        <ele>540.4</ele>
        <time>2017-01-07T15:44:23Z</time>
      </trkpt>
      <trkpt lat="44.06981" lon="5.96817">
        <ele>539.4</ele>
        <time>2017-01-07T15:44:24Z</time>
      </trkpt>
      <trkpt lat="44.06985" lon="5.96821">
        <ele>538.4</ele>
        <time>2017-01-07T15:44:25Z</time>
      </trkpt>
      <trkpt lat="44.06989" lon="5.96824">
        <ele>537.4</ele>
        <time>2017-01-07T15:44:26Z</time>
      </trkpt>
      <trkpt lat="44.06991" lon="5.96828">
        <ele>536.4</ele>
        <time>2017-01-07T15:44:27Z</time>
      </trkpt>
      <trkpt lat="44.06995" lon="5.96828">
        <ele>534.3</ele>
        <time>2017-01-07T15:44:28Z</time>
      </trkpt>
      <trkpt lat="44.06999" lon="5.96828">
        <ele>533.2</ele>
        <time>2017-01-07T15:44:29Z</time>
      </trkpt>
      <trkpt lat="44.06995" lon="5.96825">
        <ele>535.1</ele>
        <time>2017-01-07T15:44:30Z</time>
      </trkpt>
      <trkpt lat="44.06999" lon="5.96822">
        <ele>533.1</ele>
        <time>2017-01-07T15:44:31Z</time>
      </trkpt>
      <trkpt lat="44.07004" lon="5.96821">
        <ele>532.2</ele>
        <time>2017-01-07T15:44:32Z</time>
      </trkpt>
      <trkpt lat="44.07007" lon="5.96821">
        <ele>531.4</ele>
        <time>2017-01-07T15:44:33Z</time>
      </trkpt>
      <trkpt lat="44.07015" lon="5.96823">
        <ele>529.3</ele>
        <time>2017-01-07T15:44:34Z</time>
      </trkpt>
      <trkpt lat="44.07019" lon="5.96824">
        <ele>528.7</ele>
        <time>2017-01-07T15:44:35Z</time>
      </trkpt>
      <trkpt lat="44.07025" lon="5.96826">
        <ele>527.7</ele>
        <time>2017-01-07T15:44:36Z</time>
      </trkpt>
      <trkpt lat="44.07029" lon="5.96829">
        <ele>526.8</ele>
        <time>2017-01-07T15:44:37Z</time>
      </trkpt>
      <trkpt lat="44.07032" lon="5.96834">
        <ele>526.6</ele>
        <time>2017-01-07T15:44:38Z</time>
      </trkpt>
      <trkpt lat="44.07038" lon="5.96837">
        <ele>525.3</ele>
        <time>2017-01-07T15:44:39Z</time>
      </trkpt>
      <trkpt lat="44.07042" lon="5.96842">
        <ele>524.9</ele>
        <time>2017-01-07T15:44:40Z</time>
      </trkpt>
      <trkpt lat="44.07046" lon="5.96848">
        <ele>524.5</ele>
        <time>2017-01-07T15:44:41Z</time>
      </trkpt>
      <trkpt lat="44.07048" lon="5.96854">
        <ele>524.3</ele>
        <time>2017-01-07T15:44:42Z</time>
      </trkpt>
      <trkpt lat="44.07045" lon="5.9686">
        <ele>524.8</ele>
        <time>2017-01-07T15:44:43Z</time>
      </trkpt>
      <trkpt lat="44.07047" lon="5.96867">
        <ele>525.2</ele>
        <time>2017-01-07T15:44:45Z</time>
      </trkpt>
      <trkpt lat="44.07048" lon="5.96871">
        <ele>524.9</ele>
        <time>2017-01-07T15:44:46Z</time>
      </trkpt>
      <trkpt lat="44.07048" lon="5.96877">
        <ele>525.1</ele>
        <time>2017-01-07T15:44:48Z</time>
      </trkpt>
      <trkpt lat="44.07048" lon="5.96882">
        <ele>525.3</ele>
        <time>2017-01-07T15:44:51Z</time>
      </trkpt>
      <trkpt lat="44.07048" lon="5.96887">
        <ele>525.6</ele>
        <time>2017-01-07T15:44:53Z</time>
      </trkpt>
      <trkpt lat="44.07049" lon="5.96892">
        <ele>525.9</ele>
        <time>2017-01-07T15:44:55Z</time>
      </trkpt>
      <trkpt lat="44.0705" lon="5.96896">
        <ele>526.2</ele>
        <time>2017-01-07T15:44:57Z</time>
      </trkpt>
      <trkpt lat="44.0705" lon="5.96901">
        <ele>526.6</ele>
        <time>2017-01-07T15:44:59Z</time>
      </trkpt>
      <trkpt lat="44.0705" lon="5.96905">
        <ele>527.2</ele>
        <time>2017-01-07T15:45:01Z</time>
      </trkpt>
      <trkpt lat="44.07049" lon="5.9691">
        <ele>527.4</ele>
        <time>2017-01-07T15:45:03Z</time>
      </trkpt>
      <trkpt lat="44.07048" lon="5.96915">
        <ele>527.5</ele>
        <time>2017-01-07T15:45:05Z</time>
      </trkpt>
      <trkpt lat="44.07046" lon="5.9692">
        <ele>528</ele>
        <time>2017-01-07T15:45:07Z</time>
      </trkpt>
      <trkpt lat="44.07046" lon="5.96925">
        <ele>527.9</ele>
        <time>2017-01-07T15:45:09Z</time>
      </trkpt>
      <trkpt lat="44.07048" lon="5.96929">
        <ele>527.2</ele>
        <time>2017-01-07T15:45:11Z</time>
      </trkpt>
      <trkpt lat="44.07052" lon="5.96938">
        <ele>526.5</ele>
        <time>2017-01-07T15:45:13Z</time>
      </trkpt>
      <trkpt lat="44.07056" lon="5.96944">
        <ele>526.1</ele>
        <time>2017-01-07T15:45:14Z</time>
      </trkpt>
      <trkpt lat="44.0706" lon="5.96951">
        <ele>525.5</ele>
        <time>2017-01-07T15:45:15Z</time>
      </trkpt>
      <trkpt lat="44.07064" lon="5.96956">
        <ele>525.2</ele>
        <time>2017-01-07T15:45:16Z</time>
      </trkpt>
      <trkpt lat="44.07067" lon="5.96961">
        <ele>524.9</ele>
        <time>2017-01-07T15:45:17Z</time>
      </trkpt>
      <trkpt lat="44.0707" lon="5.96966">
        <ele>524.8</ele>
        <time>2017-01-07T15:45:18Z</time>
      </trkpt>
      <trkpt lat="44.07073" lon="5.9697">
        <ele>524.4</ele>
        <time>2017-01-07T15:45:19Z</time>
      </trkpt>
      <trkpt lat="44.07076" lon="5.96975">
        <ele>524</ele>
        <time>2017-01-07T15:45:20Z</time>
      </trkpt>
      <trkpt lat="44.0708" lon="5.9698">
        <ele>523.6</ele>
        <time>2017-01-07T15:45:21Z</time>
      </trkpt>
      <trkpt lat="44.07084" lon="5.96985">
        <ele>523.2</ele>
        <time>2017-01-07T15:45:22Z</time>
      </trkpt>
      <trkpt lat="44.07088" lon="5.96991">
        <ele>522.2</ele>
        <time>2017-01-07T15:45:23Z</time>
      </trkpt>
      <trkpt lat="44.07092" lon="5.96997">
        <ele>521.7</ele>
        <time>2017-01-07T15:45:24Z</time>
      </trkpt>
      <trkpt lat="44.07095" lon="5.97003">
        <ele>521</ele>
        <time>2017-01-07T15:45:25Z</time>
      </trkpt>
      <trkpt lat="44.07099" lon="5.97008">
        <ele>520.3</ele>
        <time>2017-01-07T15:45:26Z</time>
      </trkpt>
      <trkpt lat="44.07102" lon="5.97013">
        <ele>519.6</ele>
        <time>2017-01-07T15:45:27Z</time>
      </trkpt>
      <trkpt lat="44.07105" lon="5.97018">
        <ele>518.8</ele>
        <time>2017-01-07T15:45:28Z</time>
      </trkpt>
      <trkpt lat="44.07109" lon="5.97022">
        <ele>518.1</ele>
        <time>2017-01-07T15:45:29Z</time>
      </trkpt>
      <trkpt lat="44.07113" lon="5.97027">
        <ele>516.4</ele>
        <time>2017-01-07T15:45:30Z</time>
      </trkpt>
      <trkpt lat="44.07118" lon="5.97032">
        <ele>514.6</ele>
        <time>2017-01-07T15:45:31Z</time>
      </trkpt>
      <trkpt lat="44.07123" lon="5.97038">
        <ele>513.8</ele>
        <time>2017-01-07T15:45:32Z</time>
      </trkpt>
      <trkpt lat="44.07127" lon="5.97045">
        <ele>513.7</ele>
        <time>2017-01-07T15:45:33Z</time>
      </trkpt>
      <trkpt lat="44.0713" lon="5.97052">
        <ele>513.6</ele>
        <time>2017-01-07T15:45:34Z</time>
      </trkpt>
      <trkpt lat="44.07133" lon="5.97059">
        <ele>513.1</ele>
        <time>2017-01-07T15:45:35Z</time>
      </trkpt>
      <trkpt lat="44.07136" lon="5.97065">
        <ele>512.9</ele>
        <time>2017-01-07T15:45:36Z</time>
      </trkpt>
      <trkpt lat="44.07141" lon="5.97069">
        <ele>511.6</ele>
        <time>2017-01-07T15:45:37Z</time>
      </trkpt>
      <trkpt lat="44.07145" lon="5.97072">
        <ele>510.7</ele>
        <time>2017-01-07T15:45:38Z</time>
      </trkpt>
      <trkpt lat="44.07149" lon="5.97075">
        <ele>509.5</ele>
        <time>2017-01-07T15:45:39Z</time>
      </trkpt>
      <trkpt lat="44.07154" lon="5.97077">
        <ele>509.1</ele>
        <time>2017-01-07T15:45:40Z</time>
      </trkpt>
      <trkpt lat="44.0716" lon="5.9708">
        <ele>507.7</ele>
        <time>2017-01-07T15:45:41Z</time>
      </trkpt>
      <trkpt lat="44.07165" lon="5.97083">
        <ele>506.8</ele>
        <time>2017-01-07T15:45:42Z</time>
      </trkpt>
      <trkpt lat="44.0717" lon="5.97088">
        <ele>506.3</ele>
        <time>2017-01-07T15:45:43Z</time>
      </trkpt>
      <trkpt lat="44.07174" lon="5.97094">
        <ele>505.7</ele>
        <time>2017-01-07T15:45:44Z</time>
      </trkpt>
      <trkpt lat="44.07177" lon="5.971">
        <ele>504.9</ele>
        <time>2017-01-07T15:45:45Z</time>
      </trkpt>
      <trkpt lat="44.0718" lon="5.97106">
        <ele>502.9</ele>
        <time>2017-01-07T15:45:46Z</time>
      </trkpt>
      <trkpt lat="44.07183" lon="5.97112">
        <ele>502.8</ele>
        <time>2017-01-07T15:45:47Z</time>
      </trkpt>
      <trkpt lat="44.07186" lon="5.97118">
        <ele>501.8</ele>
        <time>2017-01-07T15:45:48Z</time>
      </trkpt>
      <trkpt lat="44.07189" lon="5.97124">
        <ele>500.8</ele>
        <time>2017-01-07T15:45:49Z</time>
      </trkpt>
      <trkpt lat="44.07193" lon="5.97131">
        <ele>499.3</ele>
        <time>2017-01-07T15:45:50Z</time>
      </trkpt>
      <trkpt lat="44.07196" lon="5.97139">
        <ele>498.8</ele>
        <time>2017-01-07T15:45:51Z</time>
      </trkpt>
      <trkpt lat="44.07199" lon="5.97146">
        <ele>498.2</ele>
        <time>2017-01-07T15:45:52Z</time>
      </trkpt>
      <trkpt lat="44.07202" lon="5.97152">
        <ele>497.6</ele>
        <time>2017-01-07T15:45:53Z</time>
      </trkpt>
      <trkpt lat="44.07206" lon="5.97157">
        <ele>497</ele>
        <time>2017-01-07T15:45:54Z</time>
      </trkpt>
      <trkpt lat="44.07208" lon="5.97161">
        <ele>496.4</ele>
        <time>2017-01-07T15:45:55Z</time>
      </trkpt>
      <trkpt lat="44.07211" lon="5.97166">
        <ele>496.2</ele>
        <time>2017-01-07T15:45:56Z</time>
      </trkpt>
      <trkpt lat="44.07213" lon="5.9717">
        <ele>495.7</ele>
        <time>2017-01-07T15:45:57Z</time>
      </trkpt>
      <trkpt lat="44.07214" lon="5.97174">
        <ele>495.5</ele>
        <time>2017-01-07T15:45:58Z</time>
      </trkpt>
      <trkpt lat="44.07215" lon="5.97178">
        <ele>494.8</ele>
        <time>2017-01-07T15:45:59Z</time>
      </trkpt>
      <trkpt lat="44.07215" lon="5.97183">
        <ele>494.5</ele>
        <time>2017-01-07T15:46:00Z</time>
      </trkpt>
      <trkpt lat="44.07215" lon="5.97188">
        <ele>494.2</ele>
        <time>2017-01-07T15:46:01Z</time>
      </trkpt>
      <trkpt lat="44.07215" lon="5.97192">
        <ele>493.9</ele>
        <time>2017-01-07T15:46:02Z</time>
      </trkpt>
      <trkpt lat="44.07216" lon="5.97197">
        <ele>493.3</ele>
        <time>2017-01-07T15:46:03Z</time>
      </trkpt>
      <trkpt lat="44.07218" lon="5.97202">
        <ele>492.5</ele>
        <time>2017-01-07T15:46:04Z</time>
      </trkpt>
      <trkpt lat="44.07221" lon="5.97206">
        <ele>491.7</ele>
        <time>2017-01-07T15:46:05Z</time>
      </trkpt>
      <trkpt lat="44.07225" lon="5.9721">
        <ele>491.4</ele>
        <time>2017-01-07T15:46:06Z</time>
      </trkpt>
      <trkpt lat="44.07229" lon="5.97213">
        <ele>490.6</ele>
        <time>2017-01-07T15:46:07Z</time>
      </trkpt>
      <trkpt lat="44.07232" lon="5.97217">
        <ele>489.8</ele>
        <time>2017-01-07T15:46:08Z</time>
      </trkpt>
      <trkpt lat="44.07235" lon="5.97222">
        <ele>489</ele>
        <time>2017-01-07T15:46:09Z</time>
      </trkpt>
      <trkpt lat="44.07238" lon="5.97228">
        <ele>487.5</ele>
        <time>2017-01-07T15:46:10Z</time>
      </trkpt>
      <trkpt lat="44.07241" lon="5.97233">
        <ele>486.5</ele>
        <time>2017-01-07T15:46:11Z</time>
      </trkpt>
      <trkpt lat="44.07243" lon="5.97237">
        <ele>485.4</ele>
        <time>2017-01-07T15:46:12Z</time>
      </trkpt>
      <trkpt lat="44.07244" lon="5.97242">
        <ele>484.9</ele>
        <time>2017-01-07T15:46:13Z</time>
      </trkpt>
      <trkpt lat="44.07245" lon="5.97247">
        <ele>484</ele>
        <time>2017-01-07T15:46:14Z</time>
      </trkpt>
      <trkpt lat="44.07247" lon="5.97252">
        <ele>483.6</ele>
        <time>2017-01-07T15:46:15Z</time>
      </trkpt>
      <trkpt lat="44.07251" lon="5.97256">
        <ele>482.8</ele>
        <time>2017-01-07T15:46:16Z</time>
      </trkpt>
      <trkpt lat="44.07254" lon="5.9726">
        <ele>481.3</ele>
        <time>2017-01-07T15:46:17Z</time>
      </trkpt>
      <trkpt lat="44.07257" lon="5.97263">
        <ele>480.1</ele>
        <time>2017-01-07T15:46:18Z</time>
      </trkpt>
      <trkpt lat="44.0726" lon="5.97267">
        <ele>479.5</ele>
        <time>2017-01-07T15:46:19Z</time>
      </trkpt>
      <trkpt lat="44.07264" lon="5.97271">
        <ele>477.4</ele>
        <time>2017-01-07T15:46:21Z</time>
      </trkpt>
      <trkpt lat="44.07266" lon="5.97273">
        <ele>477.4</ele>
        <time>2017-01-07T15:46:22Z</time>
      </trkpt>
      <trkpt lat="44.07269" lon="5.97279">
        <ele>475.8</ele>
        <time>2017-01-07T15:46:24Z</time>
      </trkpt>
      <trkpt lat="44.0727" lon="5.97286">
        <ele>474.7</ele>
        <time>2017-01-07T15:46:26Z</time>
      </trkpt>
      <trkpt lat="44.07271" lon="5.97291">
        <ele>475.1</ele>
        <time>2017-01-07T15:46:27Z</time>
      </trkpt>
      <trkpt lat="44.07272" lon="5.97295">
        <ele>475.4</ele>
        <time>2017-01-07T15:46:28Z</time>
      </trkpt>
      <trkpt lat="44.07273" lon="5.97299">
        <ele>475.7</ele>
        <time>2017-01-07T15:46:29Z</time>
      </trkpt>
      <trkpt lat="44.07273" lon="5.97306">
        <ele>476.1</ele>
        <time>2017-01-07T15:46:31Z</time>
      </trkpt>
      <trkpt lat="44.0727" lon="5.9731">
        <ele>476.4</ele>
        <time>2017-01-07T15:46:33Z</time>
      </trkpt>
      <trkpt lat="44.07266" lon="5.97313">
        <ele>476.8</ele>
        <time>2017-01-07T15:46:35Z</time>
      </trkpt>
      <trkpt lat="44.07262" lon="5.97316">
        <ele>477.2</ele>
        <time>2017-01-07T15:46:37Z</time>
      </trkpt>
      <trkpt lat="44.07259" lon="5.97319">
        <ele>477.5</ele>
        <time>2017-01-07T15:46:39Z</time>
      </trkpt>
      <trkpt lat="44.07255" lon="5.97322">
        <ele>477.8</ele>
        <time>2017-01-07T15:46:41Z</time>
      </trkpt>
      <trkpt lat="44.07251" lon="5.97325">
        <ele>478.1</ele>
        <time>2017-01-07T15:46:43Z</time>
      </trkpt>
      <trkpt lat="44.07248" lon="5.97326">
        <ele>478.3</ele>
        <time>2017-01-07T15:46:45Z</time>
      </trkpt>
      <trkpt lat="44.07245" lon="5.97328">
        <ele>478.5</ele>
        <time>2017-01-07T15:46:48Z</time>
      </trkpt>
      <trkpt lat="44.07243" lon="5.9733">
        <ele>478.8</ele>
        <time>2017-01-07T15:46:51Z</time>
      </trkpt>
      <trkpt lat="44.0724" lon="5.97333">
        <ele>479</ele>
        <time>2017-01-07T15:46:53Z</time>
      </trkpt>
      <trkpt lat="44.07245" lon="5.97332">
        <ele>479.4</ele>
        <time>2017-01-07T15:47:12Z</time>
      </trkpt>
      <trkpt lat="44.07249" lon="5.97331">
        <ele>479.9</ele>
        <time>2017-01-07T15:47:14Z</time>
      </trkpt>
      <trkpt lat="44.07246" lon="5.97331">
        <ele>480.4</ele>
        <time>2017-01-07T15:47:24Z</time>
      </trkpt>
      <trkpt lat="44.07242" lon="5.97333">
        <ele>480.7</ele>
        <time>2017-01-07T15:47:26Z</time>
      </trkpt>
      <trkpt lat="44.07239" lon="5.97334">
        <ele>480.9</ele>
        <time>2017-01-07T15:47:28Z</time>
      </trkpt>
      <trkpt lat="44.07236" lon="5.97334">
        <ele>481</ele>
        <time>2017-01-07T15:47:30Z</time>
      </trkpt>
      <trkpt lat="44.07232" lon="5.97336">
        <ele>481.1</ele>
        <time>2017-01-07T15:47:32Z</time>
      </trkpt>
      <trkpt lat="44.0723" lon="5.97338">
        <ele>481.1</ele>
        <time>2017-01-07T15:47:33Z</time>
      </trkpt>
      <trkpt lat="44.07227" lon="5.97341">
        <ele>481.1</ele>
        <time>2017-01-07T15:47:34Z</time>
      </trkpt>
      <trkpt lat="44.07223" lon="5.97344">
        <ele>481.1</ele>
        <time>2017-01-07T15:47:35Z</time>
      </trkpt>
      <trkpt lat="44.07221" lon="5.97346">
        <ele>481</ele>
        <time>2017-01-07T15:47:36Z</time>
      </trkpt>
      <trkpt lat="44.07218" lon="5.97349">
        <ele>481</ele>
        <time>2017-01-07T15:47:37Z</time>
      </trkpt>
      <trkpt lat="44.07216" lon="5.97351">
        <ele>481</ele>
        <time>2017-01-07T15:47:38Z</time>
      </trkpt>
      <trkpt lat="44.07214" lon="5.97353">
        <ele>481</ele>
        <time>2017-01-07T15:47:39Z</time>
      </trkpt>
      <trkpt lat="44.07211" lon="5.97358">
        <ele>480.8</ele>
        <time>2017-01-07T15:47:41Z</time>
      </trkpt>
      <trkpt lat="44.0721" lon="5.97362">
        <ele>480.7</ele>
        <time>2017-01-07T15:47:42Z</time>
      </trkpt>
      <trkpt lat="44.07208" lon="5.97367">
        <ele>480.5</ele>
        <time>2017-01-07T15:47:44Z</time>
      </trkpt>
      <trkpt lat="44.07207" lon="5.97371">
        <ele>480.3</ele>
        <time>2017-01-07T15:47:45Z</time>
      </trkpt>
      <trkpt lat="44.07205" lon="5.97376">
        <ele>480.1</ele>
        <time>2017-01-07T15:47:46Z</time>
      </trkpt>
      <trkpt lat="44.07203" lon="5.97382">
        <ele>479.9</ele>
        <time>2017-01-07T15:47:47Z</time>
      </trkpt>
      <trkpt lat="44.07187" lon="5.97411">
        <ele>477.7</ele>
        <time>2017-01-07T15:47:49Z</time>
      </trkpt>
      <trkpt lat="44.07181" lon="5.97419">
        <ele>476.7</ele>
        <time>2017-01-07T15:47:50Z</time>
      </trkpt>
      <trkpt lat="44.07173" lon="5.97423">
        <ele>475.8</ele>
        <time>2017-01-07T15:47:51Z</time>
      </trkpt>
      <trkpt lat="44.07164" lon="5.97428">
        <ele>474.8</ele>
        <time>2017-01-07T15:47:52Z</time>
      </trkpt>
      <trkpt lat="44.07161" lon="5.97428">
        <ele>474.5</ele>
        <time>2017-01-07T15:47:53Z</time>
      </trkpt>
      <trkpt lat="44.07156" lon="5.97426">
        <ele>474</ele>
        <time>2017-01-07T15:47:54Z</time>
      </trkpt>
      <trkpt lat="44.07151" lon="5.97428">
        <ele>473.5</ele>
        <time>2017-01-07T15:47:55Z</time>
      </trkpt>
      <trkpt lat="44.07141" lon="5.97431">
        <ele>472.7</ele>
        <time>2017-01-07T15:47:56Z</time>
      </trkpt>
      <trkpt lat="44.07138" lon="5.97433">
        <ele>472.6</ele>
        <time>2017-01-07T15:47:57Z</time>
      </trkpt>
      <trkpt lat="44.0713" lon="5.97444">
        <ele>472.2</ele>
        <time>2017-01-07T15:47:58Z</time>
      </trkpt>
      <trkpt lat="44.07135" lon="5.97446">
        <ele>472</ele>
        <time>2017-01-07T15:47:59Z</time>
      </trkpt>
      <trkpt lat="44.0713" lon="5.97452">
        <ele>472.1</ele>
        <time>2017-01-07T15:48:01Z</time>
      </trkpt>
      <trkpt lat="44.07126" lon="5.97453">
        <ele>472.2</ele>
        <time>2017-01-07T15:48:03Z</time>
      </trkpt>
      <trkpt lat="44.07124" lon="5.97455">
        <ele>472.3</ele>
        <time>2017-01-07T15:48:04Z</time>
      </trkpt>
      <trkpt lat="44.0712" lon="5.97459">
        <ele>472.4</ele>
        <time>2017-01-07T15:48:06Z</time>
      </trkpt>
      <trkpt lat="44.07117" lon="5.97463">
        <ele>472.6</ele>
        <time>2017-01-07T15:48:07Z</time>
      </trkpt>
      <trkpt lat="44.07115" lon="5.97469">
        <ele>472.7</ele>
        <time>2017-01-07T15:48:09Z</time>
      </trkpt>
      <trkpt lat="44.07113" lon="5.97474">
        <ele>472.8</ele>
        <time>2017-01-07T15:48:11Z</time>
      </trkpt>
      <trkpt lat="44.07112" lon="5.97478">
        <ele>472.9</ele>
        <time>2017-01-07T15:48:13Z</time>
      </trkpt>
      <trkpt lat="44.07111" lon="5.97484">
        <ele>473.1</ele>
        <time>2017-01-07T15:48:16Z</time>
      </trkpt>
      <trkpt lat="44.07111" lon="5.97488">
        <ele>473.2</ele>
        <time>2017-01-07T15:48:18Z</time>
      </trkpt>
      <trkpt lat="44.0711" lon="5.97493">
        <ele>473.3</ele>
        <time>2017-01-07T15:48:20Z</time>
      </trkpt>
      <trkpt lat="44.07109" lon="5.97499">
        <ele>473.4</ele>
        <time>2017-01-07T15:48:22Z</time>
      </trkpt>
      <trkpt lat="44.0711" lon="5.97504">
        <ele>473.6</ele>
        <time>2017-01-07T15:48:24Z</time>
      </trkpt>
      <trkpt lat="44.07111" lon="5.97509">
        <ele>473.7</ele>
        <time>2017-01-07T15:48:26Z</time>
      </trkpt>
      <trkpt lat="44.07112" lon="5.97515">
        <ele>473.8</ele>
        <time>2017-01-07T15:48:28Z</time>
      </trkpt>
      <trkpt lat="44.07112" lon="5.97521">
        <ele>474</ele>
        <time>2017-01-07T15:48:30Z</time>
      </trkpt>
      <trkpt lat="44.07114" lon="5.97527">
        <ele>474.3</ele>
        <time>2017-01-07T15:48:32Z</time>
      </trkpt>
      <trkpt lat="44.07115" lon="5.97533">
        <ele>474.6</ele>
        <time>2017-01-07T15:48:34Z</time>
      </trkpt>
      <trkpt lat="44.07117" lon="5.97538">
        <ele>475.1</ele>
        <time>2017-01-07T15:48:36Z</time>
      </trkpt>
      <trkpt lat="44.07118" lon="5.97543">
        <ele>475.5</ele>
        <time>2017-01-07T15:48:38Z</time>
      </trkpt>
      <trkpt lat="44.0712" lon="5.97548">
        <ele>475.8</ele>
        <time>2017-01-07T15:48:40Z</time>
      </trkpt>
      <trkpt lat="44.07122" lon="5.97554">
        <ele>476.2</ele>
        <time>2017-01-07T15:48:42Z</time>
      </trkpt>
      <trkpt lat="44.07124" lon="5.97559">
        <ele>476.4</ele>
        <time>2017-01-07T15:48:44Z</time>
      </trkpt>
      <trkpt lat="44.07125" lon="5.97565">
        <ele>476.6</ele>
        <time>2017-01-07T15:48:46Z</time>
      </trkpt>
      <trkpt lat="44.07126" lon="5.9757">
        <ele>476.8</ele>
        <time>2017-01-07T15:48:48Z</time>
      </trkpt>
      <trkpt lat="44.07127" lon="5.97574">
        <ele>476.9</ele>
        <time>2017-01-07T15:48:50Z</time>
      </trkpt>
      <trkpt lat="44.07128" lon="5.97578">
        <ele>477.2</ele>
        <time>2017-01-07T15:48:52Z</time>
      </trkpt>
      <trkpt lat="44.07128" lon="5.97582">
        <ele>477.5</ele>
        <time>2017-01-07T15:48:54Z</time>
      </trkpt>
      <trkpt lat="44.07128" lon="5.97586">
        <ele>477.8</ele>
        <time>2017-01-07T15:48:56Z</time>
      </trkpt>
      <trkpt lat="44.0713" lon="5.9759">
        <ele>478</ele>
        <time>2017-01-07T15:48:58Z</time>
      </trkpt>
      <trkpt lat="44.07131" lon="5.97594">
        <ele>478.3</ele>
        <time>2017-01-07T15:49:00Z</time>
      </trkpt>
      <trkpt lat="44.07131" lon="5.97599">
        <ele>478.4</ele>
        <time>2017-01-07T15:49:02Z</time>
      </trkpt>
      <trkpt lat="44.0713" lon="5.97603">
        <ele>478.5</ele>
        <time>2017-01-07T15:49:04Z</time>
      </trkpt>
      <trkpt lat="44.07131" lon="5.97608">
        <ele>478.6</ele>
        <time>2017-01-07T15:49:06Z</time>
      </trkpt>
      <trkpt lat="44.07131" lon="5.97612">
        <ele>478.8</ele>
        <time>2017-01-07T15:49:08Z</time>
      </trkpt>
      <trkpt lat="44.0713" lon="5.97616">
        <ele>478.9</ele>
        <time>2017-01-07T15:49:10Z</time>
      </trkpt>
      <trkpt lat="44.07129" lon="5.97621">
        <ele>479</ele>
        <time>2017-01-07T15:49:12Z</time>
      </trkpt>
      <trkpt lat="44.07127" lon="5.97625">
        <ele>479</ele>
        <time>2017-01-07T15:49:15Z</time>
      </trkpt>
      <trkpt lat="44.07125" lon="5.97625">
        <ele>479</ele>
        <time>2017-01-07T15:49:29Z</time>
      </trkpt>
      <trkpt lat="44.07121" lon="5.97628">
        <ele>479</ele>
        <time>2017-01-07T15:49:31Z</time>
      </trkpt>
      <trkpt lat="44.07119" lon="5.9763">
        <ele>479</ele>
        <time>2017-01-07T15:49:34Z</time>
      </trkpt>
      <trkpt lat="44.07118" lon="5.97635">
        <ele>479</ele>
        <time>2017-01-07T15:49:46Z</time>
      </trkpt>
      <trkpt lat="44.07117" lon="5.97638">
        <ele>479</ele>
        <time>2017-01-07T15:49:50Z</time>
      </trkpt>
      <trkpt lat="44.07115" lon="5.97641">
        <ele>479</ele>
        <time>2017-01-07T15:49:52Z</time>
      </trkpt>
      <trkpt lat="44.07112" lon="5.97644">
        <ele>479</ele>
        <time>2017-01-07T15:49:54Z</time>
      </trkpt>
      <trkpt lat="44.07109" lon="5.97647">
        <ele>479</ele>
        <time>2017-01-07T15:49:56Z</time>
      </trkpt>
      <trkpt lat="44.07107" lon="5.97651">
        <ele>479</ele>
        <time>2017-01-07T15:49:59Z</time>
      </trkpt>
      <trkpt lat="44.07107" lon="5.97655">
        <ele>479</ele>
        <time>2017-01-07T15:50:02Z</time>
      </trkpt>
      <trkpt lat="44.07103" lon="5.9766">
        <ele>479</ele>
        <time>2017-01-07T15:50:04Z</time>
      </trkpt>
      <trkpt lat="44.07101" lon="5.97662">
        <ele>479</ele>
        <time>2017-01-07T15:50:05Z</time>
      </trkpt>
      <trkpt lat="44.07096" lon="5.97665">
        <ele>478.9</ele>
        <time>2017-01-07T15:50:07Z</time>
      </trkpt>
      <trkpt lat="44.07093" lon="5.97667">
        <ele>478.9</ele>
        <time>2017-01-07T15:50:08Z</time>
      </trkpt>
      <trkpt lat="44.0709" lon="5.97668">
        <ele>478.7</ele>
        <time>2017-01-07T15:50:09Z</time>
      </trkpt>
      <trkpt lat="44.07086" lon="5.9767">
        <ele>478.4</ele>
        <time>2017-01-07T15:50:11Z</time>
      </trkpt>
      <trkpt lat="44.0708" lon="5.9767">
        <ele>478.2</ele>
        <time>2017-01-07T15:50:13Z</time>
      </trkpt>
      <trkpt lat="44.07078" lon="5.9767">
        <ele>478</ele>
        <time>2017-01-07T15:50:14Z</time>
      </trkpt>
      <trkpt lat="44.07075" lon="5.9767">
        <ele>477.8</ele>
        <time>2017-01-07T15:50:15Z</time>
      </trkpt>
      <trkpt lat="44.07072" lon="5.97669">
        <ele>477.6</ele>
        <time>2017-01-07T15:50:16Z</time>
      </trkpt>
      <trkpt lat="44.07069" lon="5.97668">
        <ele>477.4</ele>
        <time>2017-01-07T15:50:17Z</time>
      </trkpt>
      <trkpt lat="44.07066" lon="5.97667">
        <ele>477.2</ele>
        <time>2017-01-07T15:50:18Z</time>
      </trkpt>
      <trkpt lat="44.07062" lon="5.97664">
        <ele>476.9</ele>
        <time>2017-01-07T15:50:19Z</time>
      </trkpt>
      <trkpt lat="44.07057" lon="5.97662">
        <ele>476.6</ele>
        <time>2017-01-07T15:50:20Z</time>
      </trkpt>
      <trkpt lat="44.07049" lon="5.97657">
        <ele>475.8</ele>
        <time>2017-01-07T15:50:21Z</time>
      </trkpt>
      <trkpt lat="44.07042" lon="5.97654">
        <ele>474.7</ele>
        <time>2017-01-07T15:50:22Z</time>
      </trkpt>
      <trkpt lat="44.07034" lon="5.9765">
        <ele>473.3</ele>
        <time>2017-01-07T15:50:23Z</time>
      </trkpt>
      <trkpt lat="44.07028" lon="5.97648">
        <ele>472.5</ele>
        <time>2017-01-07T15:50:24Z</time>
      </trkpt>
      <trkpt lat="44.07022" lon="5.97648">
        <ele>471.7</ele>
        <time>2017-01-07T15:50:25Z</time>
      </trkpt>
      <trkpt lat="44.07017" lon="5.97646">
        <ele>470.8</ele>
        <time>2017-01-07T15:50:26Z</time>
      </trkpt>
      <trkpt lat="44.07011" lon="5.97645">
        <ele>470.2</ele>
        <time>2017-01-07T15:50:27Z</time>
      </trkpt>
      <trkpt lat="44.07003" lon="5.97646">
        <ele>469.3</ele>
        <time>2017-01-07T15:50:28Z</time>
      </trkpt>
      <trkpt lat="44.07" lon="5.97657">
        <ele>468.3</ele>
        <time>2017-01-07T15:50:29Z</time>
      </trkpt>
      <trkpt lat="44.06991" lon="5.97666">
        <ele>467.2</ele>
        <time>2017-01-07T15:50:30Z</time>
      </trkpt>
      <trkpt lat="44.06988" lon="5.97675">
        <ele>466.4</ele>
        <time>2017-01-07T15:50:31Z</time>
      </trkpt>
      <trkpt lat="44.06979" lon="5.97683">
        <ele>466</ele>
        <time>2017-01-07T15:50:32Z</time>
      </trkpt>
      <trkpt lat="44.06974" lon="5.9769">
        <ele>465.9</ele>
        <time>2017-01-07T15:50:33Z</time>
      </trkpt>
      <trkpt lat="44.0697" lon="5.97698">
        <ele>465.7</ele>
        <time>2017-01-07T15:50:34Z</time>
      </trkpt>
      <trkpt lat="44.06965" lon="5.97707">
        <ele>465.4</ele>
        <time>2017-01-07T15:50:35Z</time>
      </trkpt>
      <trkpt lat="44.06961" lon="5.97714">
        <ele>465</ele>
        <time>2017-01-07T15:50:36Z</time>
      </trkpt>
      <trkpt lat="44.06959" lon="5.97718">
        <ele>465.1</ele>
        <time>2017-01-07T15:50:37Z</time>
      </trkpt>
      <trkpt lat="44.06955" lon="5.97726">
        <ele>465.2</ele>
        <time>2017-01-07T15:50:38Z</time>
      </trkpt>
      <trkpt lat="44.06954" lon="5.97737">
        <ele>465.4</ele>
        <time>2017-01-07T15:50:39Z</time>
      </trkpt>
      <trkpt lat="44.06951" lon="5.97745">
        <ele>466</ele>
        <time>2017-01-07T15:50:40Z</time>
      </trkpt>
      <trkpt lat="44.06947" lon="5.97755">
        <ele>467.3</ele>
        <time>2017-01-07T15:50:41Z</time>
      </trkpt>
      <trkpt lat="44.06944" lon="5.97764">
        <ele>467.4</ele>
        <time>2017-01-07T15:50:42Z</time>
      </trkpt>
      <trkpt lat="44.06941" lon="5.97762">
        <ele>467.3</ele>
        <time>2017-01-07T15:50:44Z</time>
      </trkpt>
      <trkpt lat="44.06938" lon="5.9776">
        <ele>467</ele>
        <time>2017-01-07T15:50:45Z</time>
      </trkpt>
      <trkpt lat="44.06932" lon="5.97757">
        <ele>466.9</ele>
        <time>2017-01-07T15:50:46Z</time>
      </trkpt>
      <trkpt lat="44.06929" lon="5.97756">
        <ele>466.8</ele>
        <time>2017-01-07T15:50:47Z</time>
      </trkpt>
      <trkpt lat="44.06925" lon="5.97755">
        <ele>466.9</ele>
        <time>2017-01-07T15:50:48Z</time>
      </trkpt>
      <trkpt lat="44.06919" lon="5.97754">
        <ele>466.9</ele>
        <time>2017-01-07T15:50:49Z</time>
      </trkpt>
      <trkpt lat="44.06914" lon="5.97751">
        <ele>466.7</ele>
        <time>2017-01-07T15:50:50Z</time>
      </trkpt>
      <trkpt lat="44.06911" lon="5.97749">
        <ele>466.4</ele>
        <time>2017-01-07T15:50:51Z</time>
      </trkpt>
      <trkpt lat="44.06908" lon="5.97747">
        <ele>466.1</ele>
        <time>2017-01-07T15:50:52Z</time>
      </trkpt>
      <trkpt lat="44.06905" lon="5.97748">
        <ele>465.9</ele>
        <time>2017-01-07T15:50:53Z</time>
      </trkpt>
      <trkpt lat="44.06902" lon="5.97749">
        <ele>465.7</ele>
        <time>2017-01-07T15:50:54Z</time>
      </trkpt>
      <trkpt lat="44.06897" lon="5.97753">
        <ele>465.4</ele>
        <time>2017-01-07T15:50:56Z</time>
      </trkpt>
      <trkpt lat="44.06896" lon="5.97758">
        <ele>465.6</ele>
        <time>2017-01-07T15:50:58Z</time>
      </trkpt>
      <trkpt lat="44.06894" lon="5.97763">
        <ele>466.3</ele>
        <time>2017-01-07T15:51:00Z</time>
      </trkpt>
      <trkpt lat="44.06893" lon="5.97768">
        <ele>467</ele>
        <time>2017-01-07T15:51:02Z</time>
      </trkpt>
      <trkpt lat="44.06892" lon="5.97774">
        <ele>467.7</ele>
        <time>2017-01-07T15:51:04Z</time>
      </trkpt>
      <trkpt lat="44.0689" lon="5.9778">
        <ele>468.7</ele>
        <time>2017-01-07T15:51:06Z</time>
      </trkpt>
      <trkpt lat="44.06889" lon="5.97787">
        <ele>469.7</ele>
        <time>2017-01-07T15:51:08Z</time>
      </trkpt>
      <trkpt lat="44.06888" lon="5.97794">
        <ele>470.5</ele>
        <time>2017-01-07T15:51:10Z</time>
      </trkpt>
      <trkpt lat="44.06887" lon="5.97802">
        <ele>471.2</ele>
        <time>2017-01-07T15:51:12Z</time>
      </trkpt>
      <trkpt lat="44.06886" lon="5.97806">
        <ele>471.4</ele>
        <time>2017-01-07T15:51:13Z</time>
      </trkpt>
      <trkpt lat="44.06886" lon="5.97812">
        <ele>471.7</ele>
        <time>2017-01-07T15:51:15Z</time>
      </trkpt>
      <trkpt lat="44.06883" lon="5.97818">
        <ele>471.7</ele>
        <time>2017-01-07T15:51:17Z</time>
      </trkpt>
      <trkpt lat="44.06877" lon="5.9782">
        <ele>471.6</ele>
        <time>2017-01-07T15:51:19Z</time>
      </trkpt>
      <trkpt lat="44.06874" lon="5.97821">
        <ele>471.7</ele>
        <time>2017-01-07T15:51:20Z</time>
      </trkpt>
      <trkpt lat="44.06871" lon="5.97821">
        <ele>471.6</ele>
        <time>2017-01-07T15:51:21Z</time>
      </trkpt>
      <trkpt lat="44.06867" lon="5.97821">
        <ele>471.1</ele>
        <time>2017-01-07T15:51:22Z</time>
      </trkpt>
      <trkpt lat="44.06865" lon="5.97821">
        <ele>470.6</ele>
        <time>2017-01-07T15:51:23Z</time>
      </trkpt>
      <trkpt lat="44.0686" lon="5.97822">
        <ele>470.3</ele>
        <time>2017-01-07T15:51:25Z</time>
      </trkpt>
      <trkpt lat="44.06858" lon="5.97827">
        <ele>469.7</ele>
        <time>2017-01-07T15:51:27Z</time>
      </trkpt>
      <trkpt lat="44.06857" lon="5.97831">
        <ele>469.1</ele>
        <time>2017-01-07T15:51:28Z</time>
      </trkpt>
      <trkpt lat="44.06856" lon="5.97837">
        <ele>468.3</ele>
        <time>2017-01-07T15:51:29Z</time>
      </trkpt>
      <trkpt lat="44.06854" lon="5.97844">
        <ele>467.6</ele>
        <time>2017-01-07T15:51:30Z</time>
      </trkpt>
      <trkpt lat="44.06852" lon="5.97851">
        <ele>466.8</ele>
        <time>2017-01-07T15:51:31Z</time>
      </trkpt>
      <trkpt lat="44.0685" lon="5.97857">
        <ele>466</ele>
        <time>2017-01-07T15:51:32Z</time>
      </trkpt>
      <trkpt lat="44.06847" lon="5.97864">
        <ele>465.7</ele>
        <time>2017-01-07T15:51:33Z</time>
      </trkpt>
      <trkpt lat="44.06843" lon="5.9787">
        <ele>465.8</ele>
        <time>2017-01-07T15:51:34Z</time>
      </trkpt>
      <trkpt lat="44.06834" lon="5.97881">
        <ele>466.7</ele>
        <time>2017-01-07T15:51:35Z</time>
      </trkpt>
      <trkpt lat="44.0683" lon="5.9789">
        <ele>466.7</ele>
        <time>2017-01-07T15:51:36Z</time>
      </trkpt>
      <trkpt lat="44.06824" lon="5.97901">
        <ele>466.9</ele>
        <time>2017-01-07T15:51:37Z</time>
      </trkpt>
      <trkpt lat="44.06819" lon="5.9791">
        <ele>466.6</ele>
        <time>2017-01-07T15:51:38Z</time>
      </trkpt>
      <trkpt lat="44.06815" lon="5.97919">
        <ele>466.8</ele>
        <time>2017-01-07T15:51:39Z</time>
      </trkpt>
      <trkpt lat="44.06814" lon="5.97931">
        <ele>467.3</ele>
        <time>2017-01-07T15:51:40Z</time>
      </trkpt>
      <trkpt lat="44.06808" lon="5.97934">
        <ele>467.4</ele>
        <time>2017-01-07T15:51:41Z</time>
      </trkpt>
      <trkpt lat="44.06803" lon="5.97942">
        <ele>467</ele>
        <time>2017-01-07T15:51:42Z</time>
      </trkpt>
      <trkpt lat="44.06793" lon="5.97949">
        <ele>466.8</ele>
        <time>2017-01-07T15:51:43Z</time>
      </trkpt>
      <trkpt lat="44.06788" lon="5.97953">
        <ele>466.4</ele>
        <time>2017-01-07T15:51:45Z</time>
      </trkpt>
      <trkpt lat="44.0678" lon="5.97953">
        <ele>465.7</ele>
        <time>2017-01-07T15:51:47Z</time>
      </trkpt>
      <trkpt lat="44.06776" lon="5.97956">
        <ele>465.4</ele>
        <time>2017-01-07T15:51:48Z</time>
      </trkpt>
      <trkpt lat="44.06773" lon="5.97961">
        <ele>465</ele>
        <time>2017-01-07T15:51:49Z</time>
      </trkpt>
      <trkpt lat="44.06774" lon="5.97956">
        <ele>464.7</ele>
        <time>2017-01-07T15:51:50Z</time>
      </trkpt>
      <trkpt lat="44.0677" lon="5.9796">
        <ele>464.2</ele>
        <time>2017-01-07T15:51:51Z</time>
      </trkpt>
      <trkpt lat="44.06768" lon="5.97964">
        <ele>463.9</ele>
        <time>2017-01-07T15:51:52Z</time>
      </trkpt>
      <trkpt lat="44.06765" lon="5.9797">
        <ele>463.4</ele>
        <time>2017-01-07T15:51:53Z</time>
      </trkpt>
      <trkpt lat="44.06766" lon="5.97977">
        <ele>462</ele>
        <time>2017-01-07T15:51:54Z</time>
      </trkpt>
      <trkpt lat="44.06767" lon="5.97981">
        <ele>461.6</ele>
        <time>2017-01-07T15:51:55Z</time>
      </trkpt>
      <trkpt lat="44.06766" lon="5.97985">
        <ele>461.3</ele>
        <time>2017-01-07T15:51:56Z</time>
      </trkpt>
      <trkpt lat="44.06765" lon="5.9799">
        <ele>460.9</ele>
        <time>2017-01-07T15:51:57Z</time>
      </trkpt>
      <trkpt lat="44.06764" lon="5.97995">
        <ele>460.6</ele>
        <time>2017-01-07T15:51:58Z</time>
      </trkpt>
      <trkpt lat="44.06763" lon="5.98">
        <ele>460.2</ele>
        <time>2017-01-07T15:51:59Z</time>
      </trkpt>
      <trkpt lat="44.06762" lon="5.98004">
        <ele>459.9</ele>
        <time>2017-01-07T15:52:00Z</time>
      </trkpt>
      <trkpt lat="44.06761" lon="5.98009">
        <ele>459.6</ele>
        <time>2017-01-07T15:52:01Z</time>
      </trkpt>
      <trkpt lat="44.06759" lon="5.98012">
        <ele>459.3</ele>
        <time>2017-01-07T15:52:02Z</time>
      </trkpt>
      <trkpt lat="44.06757" lon="5.98018">
        <ele>458.9</ele>
        <time>2017-01-07T15:52:04Z</time>
      </trkpt>
      <trkpt lat="44.06755" lon="5.98024">
        <ele>458.5</ele>
        <time>2017-01-07T15:52:06Z</time>
      </trkpt>
      <trkpt lat="44.06753" lon="5.9803">
        <ele>458</ele>
        <time>2017-01-07T15:52:08Z</time>
      </trkpt>
      <trkpt lat="44.06751" lon="5.98036">
        <ele>458.1</ele>
        <time>2017-01-07T15:52:10Z</time>
      </trkpt>
      <trkpt lat="44.0675" lon="5.9804">
        <ele>458.1</ele>
        <time>2017-01-07T15:52:12Z</time>
      </trkpt>
      <trkpt lat="44.06748" lon="5.98044">
        <ele>458.2</ele>
        <time>2017-01-07T15:52:14Z</time>
      </trkpt>
      <trkpt lat="44.06747" lon="5.9805">
        <ele>458.3</ele>
        <time>2017-01-07T15:52:16Z</time>
      </trkpt>
      <trkpt lat="44.06745" lon="5.98056">
        <ele>458.4</ele>
        <time>2017-01-07T15:52:18Z</time>
      </trkpt>
      <trkpt lat="44.06744" lon="5.98061">
        <ele>458.5</ele>
        <time>2017-01-07T15:52:20Z</time>
      </trkpt>
      <trkpt lat="44.06741" lon="5.98067">
        <ele>458.7</ele>
        <time>2017-01-07T15:52:22Z</time>
      </trkpt>
      <trkpt lat="44.06739" lon="5.98071">
        <ele>458.8</ele>
        <time>2017-01-07T15:52:23Z</time>
      </trkpt>
      <trkpt lat="44.06738" lon="5.98075">
        <ele>459</ele>
        <time>2017-01-07T15:52:24Z</time>
      </trkpt>
      <trkpt lat="44.06737" lon="5.98079">
        <ele>459.2</ele>
        <time>2017-01-07T15:52:25Z</time>
      </trkpt>
      <trkpt lat="44.06736" lon="5.98083">
        <ele>459.3</ele>
        <time>2017-01-07T15:52:26Z</time>
      </trkpt>
      <trkpt lat="44.06734" lon="5.98089">
        <ele>459.6</ele>
        <time>2017-01-07T15:52:28Z</time>
      </trkpt>
      <trkpt lat="44.06731" lon="5.98094">
        <ele>460</ele>
        <time>2017-01-07T15:52:30Z</time>
      </trkpt>
      <trkpt lat="44.06729" lon="5.98097">
        <ele>458</ele>
        <time>2017-01-07T15:52:31Z</time>
      </trkpt>
      <trkpt lat="44.06727" lon="5.981">
        <ele>456.7</ele>
        <time>2017-01-07T15:52:32Z</time>
      </trkpt>
      <trkpt lat="44.06726" lon="5.98104">
        <ele>457.2</ele>
        <time>2017-01-07T15:52:33Z</time>
      </trkpt>
      <trkpt lat="44.06724" lon="5.98107">
        <ele>457.7</ele>
        <time>2017-01-07T15:52:34Z</time>
      </trkpt>
      <trkpt lat="44.06722" lon="5.98111">
        <ele>458</ele>
        <time>2017-01-07T15:52:35Z</time>
      </trkpt>
      <trkpt lat="44.0672" lon="5.98116">
        <ele>458.5</ele>
        <time>2017-01-07T15:52:37Z</time>
      </trkpt>
      <trkpt lat="44.06718" lon="5.98119">
        <ele>459.1</ele>
        <time>2017-01-07T15:52:38Z</time>
      </trkpt>
      <trkpt lat="44.06716" lon="5.98124">
        <ele>459.7</ele>
        <time>2017-01-07T15:52:39Z</time>
      </trkpt>
      <trkpt lat="44.06713" lon="5.98128">
        <ele>460.3</ele>
        <time>2017-01-07T15:52:40Z</time>
      </trkpt>
      <trkpt lat="44.06712" lon="5.98133">
        <ele>460.6</ele>
        <time>2017-01-07T15:52:41Z</time>
      </trkpt>
      <trkpt lat="44.0671" lon="5.98137">
        <ele>460.9</ele>
        <time>2017-01-07T15:52:42Z</time>
      </trkpt>
      <trkpt lat="44.06709" lon="5.98141">
        <ele>461.3</ele>
        <time>2017-01-07T15:52:43Z</time>
      </trkpt>
      <trkpt lat="44.06707" lon="5.98145">
        <ele>461.7</ele>
        <time>2017-01-07T15:52:44Z</time>
      </trkpt>
      <trkpt lat="44.06706" lon="5.98152">
        <ele>462.1</ele>
        <time>2017-01-07T15:52:46Z</time>
      </trkpt>
      <trkpt lat="44.06704" lon="5.98158">
        <ele>462.5</ele>
        <time>2017-01-07T15:52:48Z</time>
      </trkpt>
      <trkpt lat="44.06703" lon="5.98164">
        <ele>462.8</ele>
        <time>2017-01-07T15:52:50Z</time>
      </trkpt>
      <trkpt lat="44.06701" lon="5.9817">
        <ele>463.1</ele>
        <time>2017-01-07T15:52:52Z</time>
      </trkpt>
      <trkpt lat="44.06699" lon="5.98175">
        <ele>463.3</ele>
        <time>2017-01-07T15:52:54Z</time>
      </trkpt>
      <trkpt lat="44.06699" lon="5.9818">
        <ele>463.4</ele>
        <time>2017-01-07T15:52:56Z</time>
      </trkpt>
      <trkpt lat="44.06698" lon="5.98185">
        <ele>463.6</ele>
        <time>2017-01-07T15:52:58Z</time>
      </trkpt>
      <trkpt lat="44.06697" lon="5.9819">
        <ele>463.8</ele>
        <time>2017-01-07T15:53:00Z</time>
      </trkpt>
      <trkpt lat="44.06696" lon="5.98195">
        <ele>464</ele>
        <time>2017-01-07T15:53:02Z</time>
      </trkpt>
      <trkpt lat="44.06695" lon="5.98201">
        <ele>464</ele>
        <time>2017-01-07T15:53:04Z</time>
      </trkpt>
      <trkpt lat="44.06694" lon="5.98205">
        <ele>464</ele>
        <time>2017-01-07T15:53:05Z</time>
      </trkpt>
      <trkpt lat="44.06694" lon="5.98209">
        <ele>464</ele>
        <time>2017-01-07T15:53:06Z</time>
      </trkpt>
      <trkpt lat="44.06693" lon="5.98213">
        <ele>464</ele>
        <time>2017-01-07T15:53:07Z</time>
      </trkpt>
      <trkpt lat="44.06692" lon="5.98217">
        <ele>464</ele>
        <time>2017-01-07T15:53:08Z</time>
      </trkpt>
      <trkpt lat="44.06692" lon="5.98221">
        <ele>464</ele>
        <time>2017-01-07T15:53:09Z</time>
      </trkpt>
      <trkpt lat="44.06692" lon="5.98228">
        <ele>464</ele>
        <time>2017-01-07T15:53:11Z</time>
      </trkpt>
      <trkpt lat="44.06692" lon="5.98234">
        <ele>464</ele>
        <time>2017-01-07T15:53:13Z</time>
      </trkpt>
      <trkpt lat="44.06693" lon="5.9824">
        <ele>464</ele>
        <time>2017-01-07T15:53:15Z</time>
      </trkpt>
      <trkpt lat="44.06692" lon="5.98245">
        <ele>463.8</ele>
        <time>2017-01-07T15:53:17Z</time>
      </trkpt>
      <trkpt lat="44.0669" lon="5.9825">
        <ele>463.7</ele>
        <time>2017-01-07T15:53:19Z</time>
      </trkpt>
      <trkpt lat="44.06688" lon="5.98255">
        <ele>463.6</ele>
        <time>2017-01-07T15:53:21Z</time>
      </trkpt>
      <trkpt lat="44.06685" lon="5.98262">
        <ele>463.5</ele>
        <time>2017-01-07T15:53:23Z</time>
      </trkpt>
      <trkpt lat="44.06684" lon="5.98266">
        <ele>463.5</ele>
        <time>2017-01-07T15:53:24Z</time>
      </trkpt>
      <trkpt lat="44.0668" lon="5.98271">
        <ele>463.3</ele>
        <time>2017-01-07T15:53:26Z</time>
      </trkpt>
      <trkpt lat="44.06677" lon="5.98274">
        <ele>463.1</ele>
        <time>2017-01-07T15:53:27Z</time>
      </trkpt>
      <trkpt lat="44.06675" lon="5.98278">
        <ele>463.1</ele>
        <time>2017-01-07T15:53:28Z</time>
      </trkpt>
      <trkpt lat="44.06673" lon="5.98281">
        <ele>463</ele>
        <time>2017-01-07T15:53:29Z</time>
      </trkpt>
      <trkpt lat="44.0667" lon="5.98284">
        <ele>463</ele>
        <time>2017-01-07T15:53:30Z</time>
      </trkpt>
      <trkpt lat="44.06668" lon="5.98287">
        <ele>463</ele>
        <time>2017-01-07T15:53:31Z</time>
      </trkpt>
      <trkpt lat="44.06666" lon="5.9829">
        <ele>463</ele>
        <time>2017-01-07T15:53:32Z</time>
      </trkpt>
      <trkpt lat="44.06665" lon="5.98294">
        <ele>463</ele>
        <time>2017-01-07T15:53:33Z</time>
      </trkpt>
      <trkpt lat="44.06664" lon="5.98298">
        <ele>463</ele>
        <time>2017-01-07T15:53:34Z</time>
      </trkpt>
      <trkpt lat="44.06665" lon="5.98304">
        <ele>463</ele>
        <time>2017-01-07T15:53:36Z</time>
      </trkpt>
      <trkpt lat="44.06667" lon="5.98308">
        <ele>463</ele>
        <time>2017-01-07T15:53:37Z</time>
      </trkpt>
      <trkpt lat="44.06669" lon="5.98311">
        <ele>463</ele>
        <time>2017-01-07T15:53:38Z</time>
      </trkpt>
      <trkpt lat="44.06672" lon="5.98313">
        <ele>462.9</ele>
        <time>2017-01-07T15:53:39Z</time>
      </trkpt>
      <trkpt lat="44.06674" lon="5.98316">
        <ele>462.8</ele>
        <time>2017-01-07T15:53:40Z</time>
      </trkpt>
      <trkpt lat="44.06676" lon="5.98319">
        <ele>462.7</ele>
        <time>2017-01-07T15:53:41Z</time>
      </trkpt>
      <trkpt lat="44.06678" lon="5.98322">
        <ele>462.7</ele>
        <time>2017-01-07T15:53:42Z</time>
      </trkpt>
      <trkpt lat="44.0668" lon="5.98325">
        <ele>462.6</ele>
        <time>2017-01-07T15:53:43Z</time>
      </trkpt>
      <trkpt lat="44.06683" lon="5.98328">
        <ele>462.6</ele>
        <time>2017-01-07T15:53:44Z</time>
      </trkpt>
      <trkpt lat="44.06685" lon="5.98331">
        <ele>462.6</ele>
        <time>2017-01-07T15:53:45Z</time>
      </trkpt>
      <trkpt lat="44.06687" lon="5.98333">
        <ele>462.6</ele>
        <time>2017-01-07T15:53:46Z</time>
      </trkpt>
      <trkpt lat="44.06689" lon="5.98336">
        <ele>462.7</ele>
        <time>2017-01-07T15:53:47Z</time>
      </trkpt>
      <trkpt lat="44.06691" lon="5.98339">
        <ele>462.8</ele>
        <time>2017-01-07T15:53:48Z</time>
      </trkpt>
      <trkpt lat="44.06694" lon="5.98342">
        <ele>462.9</ele>
        <time>2017-01-07T15:53:49Z</time>
      </trkpt>
      <trkpt lat="44.06696" lon="5.98345">
        <ele>463</ele>
        <time>2017-01-07T15:53:50Z</time>
      </trkpt>
      <trkpt lat="44.06698" lon="5.98347">
        <ele>463</ele>
        <time>2017-01-07T15:53:51Z</time>
      </trkpt>
      <trkpt lat="44.067" lon="5.9835">
        <ele>463.1</ele>
        <time>2017-01-07T15:53:52Z</time>
      </trkpt>
      <trkpt lat="44.06702" lon="5.98353">
        <ele>463.1</ele>
        <time>2017-01-07T15:53:53Z</time>
      </trkpt>
      <trkpt lat="44.06705" lon="5.98356">
        <ele>463.1</ele>
        <time>2017-01-07T15:53:54Z</time>
      </trkpt>
      <trkpt lat="44.06707" lon="5.98359">
        <ele>463</ele>
        <time>2017-01-07T15:53:55Z</time>
      </trkpt>
      <trkpt lat="44.0671" lon="5.98362">
        <ele>462.9</ele>
        <time>2017-01-07T15:53:56Z</time>
      </trkpt>
      <trkpt lat="44.06713" lon="5.98365">
        <ele>462.9</ele>
        <time>2017-01-07T15:53:57Z</time>
      </trkpt>
      <trkpt lat="44.06715" lon="5.98368">
        <ele>462.9</ele>
        <time>2017-01-07T15:53:58Z</time>
      </trkpt>
      <trkpt lat="44.06717" lon="5.98371">
        <ele>462.8</ele>
        <time>2017-01-07T15:53:59Z</time>
      </trkpt>
      <trkpt lat="44.0672" lon="5.98374">
        <ele>462.9</ele>
        <time>2017-01-07T15:54:00Z</time>
      </trkpt>
      <trkpt lat="44.06722" lon="5.98377">
        <ele>463</ele>
        <time>2017-01-07T15:54:01Z</time>
      </trkpt>
      <trkpt lat="44.06724" lon="5.9838">
        <ele>463</ele>
        <time>2017-01-07T15:54:02Z</time>
      </trkpt>
      <trkpt lat="44.06727" lon="5.98384">
        <ele>463</ele>
        <time>2017-01-07T15:54:03Z</time>
      </trkpt>
      <trkpt lat="44.06728" lon="5.98387">
        <ele>463</ele>
        <time>2017-01-07T15:54:04Z</time>
      </trkpt>
      <trkpt lat="44.06731" lon="5.9839">
        <ele>463.1</ele>
        <time>2017-01-07T15:54:05Z</time>
      </trkpt>
      <trkpt lat="44.06733" lon="5.98393">
        <ele>463.3</ele>
        <time>2017-01-07T15:54:06Z</time>
      </trkpt>
      <trkpt lat="44.06736" lon="5.98396">
        <ele>463.5</ele>
        <time>2017-01-07T15:54:07Z</time>
      </trkpt>
      <trkpt lat="44.06738" lon="5.98398">
        <ele>463.7</ele>
        <time>2017-01-07T15:54:08Z</time>
      </trkpt>
      <trkpt lat="44.0674" lon="5.98401">
        <ele>463.9</ele>
        <time>2017-01-07T15:54:09Z</time>
      </trkpt>
      <trkpt lat="44.06742" lon="5.98404">
        <ele>464</ele>
        <time>2017-01-07T15:54:10Z</time>
      </trkpt>
      <trkpt lat="44.06745" lon="5.98407">
        <ele>464.2</ele>
        <time>2017-01-07T15:54:11Z</time>
      </trkpt>
      <trkpt lat="44.06747" lon="5.9841">
        <ele>464.3</ele>
        <time>2017-01-07T15:54:12Z</time>
      </trkpt>
      <trkpt lat="44.0675" lon="5.98413">
        <ele>464.4</ele>
        <time>2017-01-07T15:54:13Z</time>
      </trkpt>
      <trkpt lat="44.06752" lon="5.98417">
        <ele>464.6</ele>
        <time>2017-01-07T15:54:14Z</time>
      </trkpt>
      <trkpt lat="44.06753" lon="5.98421">
        <ele>464.7</ele>
        <time>2017-01-07T15:54:15Z</time>
      </trkpt>
      <trkpt lat="44.06755" lon="5.98424">
        <ele>464.8</ele>
        <time>2017-01-07T15:54:16Z</time>
      </trkpt>
      <trkpt lat="44.06757" lon="5.98428">
        <ele>465</ele>
        <time>2017-01-07T15:54:17Z</time>
      </trkpt>
      <trkpt lat="44.06758" lon="5.98431">
        <ele>465</ele>
        <time>2017-01-07T15:54:18Z</time>
      </trkpt>
      <trkpt lat="44.0676" lon="5.98435">
        <ele>465</ele>
        <time>2017-01-07T15:54:19Z</time>
      </trkpt>
      <trkpt lat="44.06762" lon="5.98438">
        <ele>465</ele>
        <time>2017-01-07T15:54:20Z</time>
      </trkpt>
      <trkpt lat="44.06764" lon="5.98441">
        <ele>465.1</ele>
        <time>2017-01-07T15:54:21Z</time>
      </trkpt>
      <trkpt lat="44.06768" lon="5.98445">
        <ele>465.4</ele>
        <time>2017-01-07T15:54:23Z</time>
      </trkpt>
      <trkpt lat="44.06772" lon="5.9845">
        <ele>465.8</ele>
        <time>2017-01-07T15:54:25Z</time>
      </trkpt>
      <trkpt lat="44.06776" lon="5.98455">
        <ele>466.2</ele>
        <time>2017-01-07T15:54:27Z</time>
      </trkpt>
      <trkpt lat="44.06778" lon="5.98458">
        <ele>466.4</ele>
        <time>2017-01-07T15:54:28Z</time>
      </trkpt>
      <trkpt lat="44.0678" lon="5.98461">
        <ele>466.5</ele>
        <time>2017-01-07T15:54:29Z</time>
      </trkpt>
      <trkpt lat="44.06782" lon="5.98465">
        <ele>466.8</ele>
        <time>2017-01-07T15:54:30Z</time>
      </trkpt>
      <trkpt lat="44.06784" lon="5.98468">
        <ele>466.9</ele>
        <time>2017-01-07T15:54:31Z</time>
      </trkpt>
      <trkpt lat="44.06787" lon="5.98471">
        <ele>467</ele>
        <time>2017-01-07T15:54:32Z</time>
      </trkpt>
      <trkpt lat="44.06789" lon="5.98474">
        <ele>467.1</ele>
        <time>2017-01-07T15:54:33Z</time>
      </trkpt>
      <trkpt lat="44.06792" lon="5.98477">
        <ele>467.1</ele>
        <time>2017-01-07T15:54:34Z</time>
      </trkpt>
      <trkpt lat="44.06795" lon="5.9848">
        <ele>467.1</ele>
        <time>2017-01-07T15:54:35Z</time>
      </trkpt>
      <trkpt lat="44.06798" lon="5.98483">
        <ele>467</ele>
        <time>2017-01-07T15:54:36Z</time>
      </trkpt>
      <trkpt lat="44.06801" lon="5.98486">
        <ele>466.8</ele>
        <time>2017-01-07T15:54:37Z</time>
      </trkpt>
      <trkpt lat="44.06803" lon="5.98489">
        <ele>466.7</ele>
        <time>2017-01-07T15:54:38Z</time>
      </trkpt>
      <trkpt lat="44.06806" lon="5.98492">
        <ele>466.5</ele>
        <time>2017-01-07T15:54:39Z</time>
      </trkpt>
      <trkpt lat="44.06808" lon="5.98495">
        <ele>466.4</ele>
        <time>2017-01-07T15:54:40Z</time>
      </trkpt>
      <trkpt lat="44.0681" lon="5.98498">
        <ele>466.3</ele>
        <time>2017-01-07T15:54:41Z</time>
      </trkpt>
      <trkpt lat="44.06812" lon="5.98501">
        <ele>466.2</ele>
        <time>2017-01-07T15:54:42Z</time>
      </trkpt>
      <trkpt lat="44.06814" lon="5.98504">
        <ele>466.2</ele>
        <time>2017-01-07T15:54:43Z</time>
      </trkpt>
      <trkpt lat="44.06816" lon="5.98507">
        <ele>466.2</ele>
        <time>2017-01-07T15:54:44Z</time>
      </trkpt>
      <trkpt lat="44.06819" lon="5.9851">
        <ele>466.2</ele>
        <time>2017-01-07T15:54:45Z</time>
      </trkpt>
      <trkpt lat="44.06821" lon="5.98513">
        <ele>466.2</ele>
        <time>2017-01-07T15:54:46Z</time>
      </trkpt>
      <trkpt lat="44.06823" lon="5.98516">
        <ele>466.3</ele>
        <time>2017-01-07T15:54:47Z</time>
      </trkpt>
      <trkpt lat="44.06825" lon="5.9852">
        <ele>466.3</ele>
        <time>2017-01-07T15:54:48Z</time>
      </trkpt>
      <trkpt lat="44.06827" lon="5.98523">
        <ele>466.4</ele>
        <time>2017-01-07T15:54:49Z</time>
      </trkpt>
      <trkpt lat="44.0683" lon="5.98526">
        <ele>466.5</ele>
        <time>2017-01-07T15:54:50Z</time>
      </trkpt>
      <trkpt lat="44.06832" lon="5.98529">
        <ele>466.6</ele>
        <time>2017-01-07T15:54:51Z</time>
      </trkpt>
      <trkpt lat="44.06834" lon="5.98532">
        <ele>466.7</ele>
        <time>2017-01-07T15:54:52Z</time>
      </trkpt>
      <trkpt lat="44.06837" lon="5.98535">
        <ele>466.8</ele>
        <time>2017-01-07T15:54:53Z</time>
      </trkpt>
      <trkpt lat="44.0684" lon="5.98538">
        <ele>466.9</ele>
        <time>2017-01-07T15:54:54Z</time>
      </trkpt>
      <trkpt lat="44.06842" lon="5.98542">
        <ele>466.9</ele>
        <time>2017-01-07T15:54:55Z</time>
      </trkpt>
      <trkpt lat="44.06844" lon="5.98546">
        <ele>467</ele>
        <time>2017-01-07T15:54:56Z</time>
      </trkpt>
      <trkpt lat="44.06846" lon="5.9855">
        <ele>467</ele>
        <time>2017-01-07T15:54:57Z</time>
      </trkpt>
      <trkpt lat="44.06846" lon="5.98555">
        <ele>466.9</ele>
        <time>2017-01-07T15:54:58Z</time>
      </trkpt>
      <trkpt lat="44.06844" lon="5.98559">
        <ele>466.6</ele>
        <time>2017-01-07T15:54:59Z</time>
      </trkpt>
      <trkpt lat="44.06842" lon="5.98563">
        <ele>466.3</ele>
        <time>2017-01-07T15:55:00Z</time>
      </trkpt>
      <trkpt lat="44.0684" lon="5.98566">
        <ele>466</ele>
        <time>2017-01-07T15:55:01Z</time>
      </trkpt>
      <trkpt lat="44.06837" lon="5.98569">
        <ele>465.8</ele>
        <time>2017-01-07T15:55:02Z</time>
      </trkpt>
      <trkpt lat="44.06834" lon="5.98572">
        <ele>465.5</ele>
        <time>2017-01-07T15:55:03Z</time>
      </trkpt>
      <trkpt lat="44.06832" lon="5.98575">
        <ele>465.2</ele>
        <time>2017-01-07T15:55:04Z</time>
      </trkpt>
      <trkpt lat="44.06829" lon="5.98578">
        <ele>464.9</ele>
        <time>2017-01-07T15:55:05Z</time>
      </trkpt>
      <trkpt lat="44.06826" lon="5.98582">
        <ele>464.4</ele>
        <time>2017-01-07T15:55:06Z</time>
      </trkpt>
      <trkpt lat="44.06822" lon="5.98587">
        <ele>463.9</ele>
        <time>2017-01-07T15:55:07Z</time>
      </trkpt>
      <trkpt lat="44.06818" lon="5.98592">
        <ele>463.4</ele>
        <time>2017-01-07T15:55:08Z</time>
      </trkpt>
      <trkpt lat="44.06814" lon="5.98596">
        <ele>462.9</ele>
        <time>2017-01-07T15:55:09Z</time>
      </trkpt>
      <trkpt lat="44.06811" lon="5.986">
        <ele>462.5</ele>
        <time>2017-01-07T15:55:10Z</time>
      </trkpt>
      <trkpt lat="44.06808" lon="5.98604">
        <ele>462.1</ele>
        <time>2017-01-07T15:55:11Z</time>
      </trkpt>
      <trkpt lat="44.06804" lon="5.98609">
        <ele>462</ele>
        <time>2017-01-07T15:55:12Z</time>
      </trkpt>
      <trkpt lat="44.06798" lon="5.98619">
        <ele>462</ele>
        <time>2017-01-07T15:55:13Z</time>
      </trkpt>
      <trkpt lat="44.06794" lon="5.98624">
        <ele>462</ele>
        <time>2017-01-07T15:55:14Z</time>
      </trkpt>
      <trkpt lat="44.06791" lon="5.98627">
        <ele>462</ele>
        <time>2017-01-07T15:55:15Z</time>
      </trkpt>
      <trkpt lat="44.06787" lon="5.98632">
        <ele>462</ele>
        <time>2017-01-07T15:55:16Z</time>
      </trkpt>
      <trkpt lat="44.06782" lon="5.98639">
        <ele>462</ele>
        <time>2017-01-07T15:55:17Z</time>
      </trkpt>
      <trkpt lat="44.06777" lon="5.98647">
        <ele>462</ele>
        <time>2017-01-07T15:55:18Z</time>
      </trkpt>
      <trkpt lat="44.06771" lon="5.98655">
        <ele>462</ele>
        <time>2017-01-07T15:55:19Z</time>
      </trkpt>
      <trkpt lat="44.06766" lon="5.98661">
        <ele>461.6</ele>
        <time>2017-01-07T15:55:20Z</time>
      </trkpt>
      <trkpt lat="44.06759" lon="5.98669">
        <ele>461</ele>
        <time>2017-01-07T15:55:21Z</time>
      </trkpt>
      <trkpt lat="44.06754" lon="5.98679">
        <ele>460.4</ele>
        <time>2017-01-07T15:55:22Z</time>
      </trkpt>
      <trkpt lat="44.06752" lon="5.98684">
        <ele>460.2</ele>
        <time>2017-01-07T15:55:23Z</time>
      </trkpt>
      <trkpt lat="44.06746" lon="5.98694">
        <ele>459.6</ele>
        <time>2017-01-07T15:55:24Z</time>
      </trkpt>
      <trkpt lat="44.06743" lon="5.98699">
        <ele>459.3</ele>
        <time>2017-01-07T15:55:25Z</time>
      </trkpt>
      <trkpt lat="44.06739" lon="5.98706">
        <ele>459</ele>
        <time>2017-01-07T15:55:26Z</time>
      </trkpt>
      <trkpt lat="44.06734" lon="5.9871">
        <ele>459</ele>
        <time>2017-01-07T15:55:27Z</time>
      </trkpt>
      <trkpt lat="44.0673" lon="5.98716">
        <ele>459</ele>
        <time>2017-01-07T15:55:28Z</time>
      </trkpt>
      <trkpt lat="44.06725" lon="5.98723">
        <ele>459</ele>
        <time>2017-01-07T15:55:29Z</time>
      </trkpt>
      <trkpt lat="44.06721" lon="5.98729">
        <ele>459</ele>
        <time>2017-01-07T15:55:30Z</time>
      </trkpt>
      <trkpt lat="44.06719" lon="5.98734">
        <ele>459</ele>
        <time>2017-01-07T15:55:31Z</time>
      </trkpt>
      <trkpt lat="44.06714" lon="5.98737">
        <ele>458.9</ele>
        <time>2017-01-07T15:55:32Z</time>
      </trkpt>
      <trkpt lat="44.06709" lon="5.98745">
        <ele>458.9</ele>
        <time>2017-01-07T15:55:33Z</time>
      </trkpt>
      <trkpt lat="44.06705" lon="5.98751">
        <ele>458.8</ele>
        <time>2017-01-07T15:55:34Z</time>
      </trkpt>
      <trkpt lat="44.06704" lon="5.9876">
        <ele>458.8</ele>
        <time>2017-01-07T15:55:35Z</time>
      </trkpt>
      <trkpt lat="44.06701" lon="5.98763">
        <ele>458.8</ele>
        <time>2017-01-07T15:55:36Z</time>
      </trkpt>
      <trkpt lat="44.06699" lon="5.98768">
        <ele>458.7</ele>
        <time>2017-01-07T15:55:37Z</time>
      </trkpt>
      <trkpt lat="44.06695" lon="5.98771">
        <ele>458.7</ele>
        <time>2017-01-07T15:55:38Z</time>
      </trkpt>
      <trkpt lat="44.06693" lon="5.98776">
        <ele>458.6</ele>
        <time>2017-01-07T15:55:39Z</time>
      </trkpt>
      <trkpt lat="44.0669" lon="5.98778">
        <ele>458.6</ele>
        <time>2017-01-07T15:55:40Z</time>
      </trkpt>
      <trkpt lat="44.06687" lon="5.98784">
        <ele>458.5</ele>
        <time>2017-01-07T15:55:41Z</time>
      </trkpt>
      <trkpt lat="44.06684" lon="5.98789">
        <ele>458.5</ele>
        <time>2017-01-07T15:55:42Z</time>
      </trkpt>
      <trkpt lat="44.06682" lon="5.98792">
        <ele>458.4</ele>
        <time>2017-01-07T15:55:43Z</time>
      </trkpt>
      <trkpt lat="44.0668" lon="5.98797">
        <ele>458.2</ele>
        <time>2017-01-07T15:55:44Z</time>
      </trkpt>
      <trkpt lat="44.06677" lon="5.98801">
        <ele>458.1</ele>
        <time>2017-01-07T15:55:45Z</time>
      </trkpt>
      <trkpt lat="44.06674" lon="5.98805">
        <ele>458.3</ele>
        <time>2017-01-07T15:55:46Z</time>
      </trkpt>
      <trkpt lat="44.06672" lon="5.98808">
        <ele>459</ele>
        <time>2017-01-07T15:55:47Z</time>
      </trkpt>
      <trkpt lat="44.0667" lon="5.98812">
        <ele>459.6</ele>
        <time>2017-01-07T15:55:48Z</time>
      </trkpt>
      <trkpt lat="44.06668" lon="5.98817">
        <ele>459.9</ele>
        <time>2017-01-07T15:55:49Z</time>
      </trkpt>
      <trkpt lat="44.06667" lon="5.98822">
        <ele>459.9</ele>
        <time>2017-01-07T15:55:50Z</time>
      </trkpt>
      <trkpt lat="44.06666" lon="5.98827">
        <ele>459.9</ele>
        <time>2017-01-07T15:55:51Z</time>
      </trkpt>
      <trkpt lat="44.06665" lon="5.98832">
        <ele>459.8</ele>
        <time>2017-01-07T15:55:52Z</time>
      </trkpt>
      <trkpt lat="44.06666" lon="5.98837">
        <ele>459.8</ele>
        <time>2017-01-07T15:55:53Z</time>
      </trkpt>
      <trkpt lat="44.06666" lon="5.98841">
        <ele>459.8</ele>
        <time>2017-01-07T15:55:54Z</time>
      </trkpt>
      <trkpt lat="44.06667" lon="5.98845">
        <ele>459.8</ele>
        <time>2017-01-07T15:55:55Z</time>
      </trkpt>
      <trkpt lat="44.06667" lon="5.9885">
        <ele>459.7</ele>
        <time>2017-01-07T15:55:56Z</time>
      </trkpt>
      <trkpt lat="44.06668" lon="5.98856">
        <ele>459.7</ele>
        <time>2017-01-07T15:55:57Z</time>
      </trkpt>
      <trkpt lat="44.06668" lon="5.98861">
        <ele>459.7</ele>
        <time>2017-01-07T15:55:58Z</time>
      </trkpt>
      <trkpt lat="44.06668" lon="5.98867">
        <ele>459.6</ele>
        <time>2017-01-07T15:55:59Z</time>
      </trkpt>
      <trkpt lat="44.06668" lon="5.98873">
        <ele>459.6</ele>
        <time>2017-01-07T15:56:00Z</time>
      </trkpt>
      <trkpt lat="44.06668" lon="5.98879">
        <ele>459.6</ele>
        <time>2017-01-07T15:56:01Z</time>
      </trkpt>
      <trkpt lat="44.06669" lon="5.98884">
        <ele>459.6</ele>
        <time>2017-01-07T15:56:02Z</time>
      </trkpt>
      <trkpt lat="44.06669" lon="5.9889">
        <ele>459.5</ele>
        <time>2017-01-07T15:56:03Z</time>
      </trkpt>
      <trkpt lat="44.0667" lon="5.98895">
        <ele>459.5</ele>
        <time>2017-01-07T15:56:04Z</time>
      </trkpt>
      <trkpt lat="44.0667" lon="5.989">
        <ele>459.4</ele>
        <time>2017-01-07T15:56:05Z</time>
      </trkpt>
      <trkpt lat="44.0667" lon="5.98905">
        <ele>459.4</ele>
        <time>2017-01-07T15:56:06Z</time>
      </trkpt>
      <trkpt lat="44.06671" lon="5.9891">
        <ele>459.4</ele>
        <time>2017-01-07T15:56:07Z</time>
      </trkpt>
      <trkpt lat="44.06672" lon="5.98915">
        <ele>459.3</ele>
        <time>2017-01-07T15:56:08Z</time>
      </trkpt>
      <trkpt lat="44.06673" lon="5.9892">
        <ele>459.3</ele>
        <time>2017-01-07T15:56:09Z</time>
      </trkpt>
      <trkpt lat="44.06675" lon="5.98925">
        <ele>459.3</ele>
        <time>2017-01-07T15:56:10Z</time>
      </trkpt>
      <trkpt lat="44.06678" lon="5.98928">
        <ele>459.2</ele>
        <time>2017-01-07T15:56:11Z</time>
      </trkpt>
      <trkpt lat="44.06681" lon="5.98931">
        <ele>459.2</ele>
        <time>2017-01-07T15:56:12Z</time>
      </trkpt>
      <trkpt lat="44.06684" lon="5.98933">
        <ele>459.1</ele>
        <time>2017-01-07T15:56:13Z</time>
      </trkpt>
      <trkpt lat="44.06688" lon="5.98935">
        <ele>459.1</ele>
        <time>2017-01-07T15:56:14Z</time>
      </trkpt>
      <trkpt lat="44.06692" lon="5.98937">
        <ele>459.1</ele>
        <time>2017-01-07T15:56:15Z</time>
      </trkpt>
      <trkpt lat="44.06695" lon="5.98939">
        <ele>459.1</ele>
        <time>2017-01-07T15:56:16Z</time>
      </trkpt>
      <trkpt lat="44.06699" lon="5.98941">
        <ele>459</ele>
        <time>2017-01-07T15:56:17Z</time>
      </trkpt>
      <trkpt lat="44.06703" lon="5.98943">
        <ele>459</ele>
        <time>2017-01-07T15:56:18Z</time>
      </trkpt>
      <trkpt lat="44.06706" lon="5.98946">
        <ele>459.1</ele>
        <time>2017-01-07T15:56:19Z</time>
      </trkpt>
      <trkpt lat="44.0671" lon="5.98948">
        <ele>459.1</ele>
        <time>2017-01-07T15:56:20Z</time>
      </trkpt>
      <trkpt lat="44.06715" lon="5.9895">
        <ele>459.2</ele>
        <time>2017-01-07T15:56:21Z</time>
      </trkpt>
      <trkpt lat="44.06719" lon="5.98952">
        <ele>459.3</ele>
        <time>2017-01-07T15:56:22Z</time>
      </trkpt>
      <trkpt lat="44.06723" lon="5.98954">
        <ele>459.4</ele>
        <time>2017-01-07T15:56:23Z</time>
      </trkpt>
      <trkpt lat="44.06728" lon="5.98956">
        <ele>459.4</ele>
        <time>2017-01-07T15:56:24Z</time>
      </trkpt>
      <trkpt lat="44.06734" lon="5.98959">
        <ele>459.6</ele>
        <time>2017-01-07T15:56:25Z</time>
      </trkpt>
      <trkpt lat="44.06738" lon="5.98961">
        <ele>459.6</ele>
        <time>2017-01-07T15:56:26Z</time>
      </trkpt>
      <trkpt lat="44.06742" lon="5.98962">
        <ele>459.7</ele>
        <time>2017-01-07T15:56:27Z</time>
      </trkpt>
      <trkpt lat="44.06744" lon="5.98964">
        <ele>459.8</ele>
        <time>2017-01-07T15:56:28Z</time>
      </trkpt>
      <trkpt lat="44.06747" lon="5.98964">
        <ele>459.9</ele>
        <time>2017-01-07T15:56:29Z</time>
      </trkpt>
      <trkpt lat="44.06751" lon="5.98965">
        <ele>459.9</ele>
        <time>2017-01-07T15:56:30Z</time>
      </trkpt>
      <trkpt lat="44.06756" lon="5.98966">
        <ele>460</ele>
        <time>2017-01-07T15:56:32Z</time>
      </trkpt>
      <trkpt lat="44.0676" lon="5.98966">
        <ele>460</ele>
        <time>2017-01-07T15:56:33Z</time>
      </trkpt>
      <trkpt lat="44.06763" lon="5.98967">
        <ele>460</ele>
        <time>2017-01-07T15:56:34Z</time>
      </trkpt>
      <trkpt lat="44.06766" lon="5.98969">
        <ele>460</ele>
        <time>2017-01-07T15:56:35Z</time>
      </trkpt>
      <trkpt lat="44.06769" lon="5.98969">
        <ele>460</ele>
        <time>2017-01-07T15:56:36Z</time>
      </trkpt>
      <trkpt lat="44.06773" lon="5.98969">
        <ele>460</ele>
        <time>2017-01-07T15:56:37Z</time>
      </trkpt>
      <trkpt lat="44.06776" lon="5.9897">
        <ele>460</ele>
        <time>2017-01-07T15:56:38Z</time>
      </trkpt>
      <trkpt lat="44.06779" lon="5.9897">
        <ele>459.9</ele>
        <time>2017-01-07T15:56:39Z</time>
      </trkpt>
      <trkpt lat="44.06782" lon="5.9897">
        <ele>459.9</ele>
        <time>2017-01-07T15:56:40Z</time>
      </trkpt>
      <trkpt lat="44.06786" lon="5.9897">
        <ele>459.9</ele>
        <time>2017-01-07T15:56:41Z</time>
      </trkpt>
      <trkpt lat="44.06789" lon="5.98971">
        <ele>459.9</ele>
        <time>2017-01-07T15:56:42Z</time>
      </trkpt>
      <trkpt lat="44.06792" lon="5.98971">
        <ele>459.8</ele>
        <time>2017-01-07T15:56:43Z</time>
      </trkpt>
      <trkpt lat="44.06796" lon="5.98971">
        <ele>459.8</ele>
        <time>2017-01-07T15:56:44Z</time>
      </trkpt>
      <trkpt lat="44.06799" lon="5.98971">
        <ele>459.8</ele>
        <time>2017-01-07T15:56:45Z</time>
      </trkpt>
      <trkpt lat="44.06803" lon="5.98971">
        <ele>459.8</ele>
        <time>2017-01-07T15:56:46Z</time>
      </trkpt>
      <trkpt lat="44.06807" lon="5.98971">
        <ele>459.8</ele>
        <time>2017-01-07T15:56:47Z</time>
      </trkpt>
      <trkpt lat="44.0681" lon="5.98971">
        <ele>459.7</ele>
        <time>2017-01-07T15:56:48Z</time>
      </trkpt>
      <trkpt lat="44.06814" lon="5.98971">
        <ele>459.7</ele>
        <time>2017-01-07T15:56:49Z</time>
      </trkpt>
      <trkpt lat="44.06818" lon="5.9897">
        <ele>459.7</ele>
        <time>2017-01-07T15:56:50Z</time>
      </trkpt>
      <trkpt lat="44.06821" lon="5.9897">
        <ele>459.7</ele>
        <time>2017-01-07T15:56:51Z</time>
      </trkpt>
      <trkpt lat="44.06824" lon="5.98971">
        <ele>459.7</ele>
        <time>2017-01-07T15:56:52Z</time>
      </trkpt>
      <trkpt lat="44.06827" lon="5.98971">
        <ele>459.7</ele>
        <time>2017-01-07T15:56:53Z</time>
      </trkpt>
      <trkpt lat="44.0683" lon="5.98972">
        <ele>459.7</ele>
        <time>2017-01-07T15:56:54Z</time>
      </trkpt>
      <trkpt lat="44.06834" lon="5.98972">
        <ele>459.7</ele>
        <time>2017-01-07T15:56:55Z</time>
      </trkpt>
      <trkpt lat="44.06837" lon="5.98972">
        <ele>459.7</ele>
        <time>2017-01-07T15:56:56Z</time>
      </trkpt>
      <trkpt lat="44.06841" lon="5.98972">
        <ele>459.7</ele>
        <time>2017-01-07T15:56:57Z</time>
      </trkpt>
      <trkpt lat="44.06846" lon="5.98972">
        <ele>459.8</ele>
        <time>2017-01-07T15:56:58Z</time>
      </trkpt>
      <trkpt lat="44.0685" lon="5.98971">
        <ele>459.8</ele>
        <time>2017-01-07T15:56:59Z</time>
      </trkpt>
      <trkpt lat="44.06855" lon="5.98971">
        <ele>459.9</ele>
        <time>2017-01-07T15:57:00Z</time>
      </trkpt>
      <trkpt lat="44.0686" lon="5.98971">
        <ele>460</ele>
        <time>2017-01-07T15:57:01Z</time>
      </trkpt>
      <trkpt lat="44.06864" lon="5.98971">
        <ele>460.2</ele>
        <time>2017-01-07T15:57:02Z</time>
      </trkpt>
      <trkpt lat="44.06869" lon="5.98971">
        <ele>460.5</ele>
        <time>2017-01-07T15:57:03Z</time>
      </trkpt>
      <trkpt lat="44.06873" lon="5.98971">
        <ele>460.7</ele>
        <time>2017-01-07T15:57:04Z</time>
      </trkpt>
      <trkpt lat="44.06877" lon="5.98971">
        <ele>460.9</ele>
        <time>2017-01-07T15:57:05Z</time>
      </trkpt>
      <trkpt lat="44.06882" lon="5.9897">
        <ele>461.1</ele>
        <time>2017-01-07T15:57:06Z</time>
      </trkpt>
      <trkpt lat="44.06886" lon="5.9897">
        <ele>461.2</ele>
        <time>2017-01-07T15:57:07Z</time>
      </trkpt>
      <trkpt lat="44.0689" lon="5.98969">
        <ele>461.4</ele>
        <time>2017-01-07T15:57:08Z</time>
      </trkpt>
      <trkpt lat="44.06894" lon="5.98969">
        <ele>461.5</ele>
        <time>2017-01-07T15:57:09Z</time>
      </trkpt>
      <trkpt lat="44.06898" lon="5.98969">
        <ele>461.5</ele>
        <time>2017-01-07T15:57:10Z</time>
      </trkpt>
      <trkpt lat="44.06901" lon="5.98969">
        <ele>461.6</ele>
        <time>2017-01-07T15:57:11Z</time>
      </trkpt>
      <trkpt lat="44.06905" lon="5.98969">
        <ele>461.7</ele>
        <time>2017-01-07T15:57:13Z</time>
      </trkpt>
      <trkpt lat="44.06908" lon="5.98969">
        <ele>461.8</ele>
        <time>2017-01-07T15:57:14Z</time>
      </trkpt>
      <trkpt lat="44.06913" lon="5.98969">
        <ele>461.9</ele>
        <time>2017-01-07T15:57:16Z</time>
      </trkpt>
      <trkpt lat="44.06918" lon="5.98969">
        <ele>462</ele>
        <time>2017-01-07T15:57:18Z</time>
      </trkpt>
      <trkpt lat="44.06921" lon="5.98969">
        <ele>462</ele>
        <time>2017-01-07T15:57:19Z</time>
      </trkpt>
      <trkpt lat="44.06925" lon="5.98969">
        <ele>462</ele>
        <time>2017-01-07T15:57:20Z</time>
      </trkpt>
      <trkpt lat="44.06928" lon="5.98968">
        <ele>462</ele>
        <time>2017-01-07T15:57:21Z</time>
      </trkpt>
      <trkpt lat="44.06932" lon="5.98968">
        <ele>462</ele>
        <time>2017-01-07T15:57:22Z</time>
      </trkpt>
      <trkpt lat="44.06935" lon="5.98968">
        <ele>462</ele>
        <time>2017-01-07T15:57:23Z</time>
      </trkpt>
      <trkpt lat="44.06938" lon="5.98969">
        <ele>462</ele>
        <time>2017-01-07T15:57:24Z</time>
      </trkpt>
      <trkpt lat="44.06941" lon="5.9897">
        <ele>462</ele>
        <time>2017-01-07T15:57:25Z</time>
      </trkpt>
      <trkpt lat="44.06944" lon="5.98973">
        <ele>462.1</ele>
        <time>2017-01-07T15:57:26Z</time>
      </trkpt>
      <trkpt lat="44.06946" lon="5.98976">
        <ele>462.1</ele>
        <time>2017-01-07T15:57:27Z</time>
      </trkpt>
      <trkpt lat="44.06947" lon="5.98979">
        <ele>462.1</ele>
        <time>2017-01-07T15:57:28Z</time>
      </trkpt>
      <trkpt lat="44.06949" lon="5.98985">
        <ele>462</ele>
        <time>2017-01-07T15:57:30Z</time>
      </trkpt>
      <trkpt lat="44.06951" lon="5.98988">
        <ele>462</ele>
        <time>2017-01-07T15:57:31Z</time>
      </trkpt>
      <trkpt lat="44.06953" lon="5.98995">
        <ele>462.1</ele>
        <time>2017-01-07T15:57:33Z</time>
      </trkpt>
      <trkpt lat="44.06954" lon="5.99002">
        <ele>462.1</ele>
        <time>2017-01-07T15:57:35Z</time>
      </trkpt>
      <trkpt lat="44.06955" lon="5.99009">
        <ele>462.1</ele>
        <time>2017-01-07T15:57:37Z</time>
      </trkpt>
      <trkpt lat="44.06954" lon="5.99016">
        <ele>462.1</ele>
        <time>2017-01-07T15:57:39Z</time>
      </trkpt>
      <trkpt lat="44.06951" lon="5.99022">
        <ele>462.1</ele>
        <time>2017-01-07T15:57:41Z</time>
      </trkpt>
      <trkpt lat="44.0695" lon="5.99025">
        <ele>462.2</ele>
        <time>2017-01-07T15:57:42Z</time>
      </trkpt>
      <trkpt lat="44.06948" lon="5.99028">
        <ele>462.2</ele>
        <time>2017-01-07T15:57:43Z</time>
      </trkpt>
      <trkpt lat="44.06945" lon="5.99031">
        <ele>462.2</ele>
        <time>2017-01-07T15:57:44Z</time>
      </trkpt>
      <trkpt lat="44.06942" lon="5.99035">
        <ele>462.2</ele>
        <time>2017-01-07T15:57:45Z</time>
      </trkpt>
      <trkpt lat="44.06939" lon="5.99039">
        <ele>462.2</ele>
        <time>2017-01-07T15:57:46Z</time>
      </trkpt>
      <trkpt lat="44.06936" lon="5.99043">
        <ele>462.2</ele>
        <time>2017-01-07T15:57:47Z</time>
      </trkpt>
      <trkpt lat="44.06934" lon="5.99048">
        <ele>462.3</ele>
        <time>2017-01-07T15:57:48Z</time>
      </trkpt>
      <trkpt lat="44.06931" lon="5.99053">
        <ele>462.3</ele>
        <time>2017-01-07T15:57:49Z</time>
      </trkpt>
      <trkpt lat="44.06928" lon="5.99058">
        <ele>462.3</ele>
        <time>2017-01-07T15:57:50Z</time>
      </trkpt>
      <trkpt lat="44.06925" lon="5.99063">
        <ele>462.3</ele>
        <time>2017-01-07T15:57:51Z</time>
      </trkpt>
      <trkpt lat="44.06922" lon="5.99068">
        <ele>462.2</ele>
        <time>2017-01-07T15:57:52Z</time>
      </trkpt>
      <trkpt lat="44.0692" lon="5.99072">
        <ele>462.2</ele>
        <time>2017-01-07T15:57:53Z</time>
      </trkpt>
      <trkpt lat="44.06917" lon="5.99077">
        <ele>462.1</ele>
        <time>2017-01-07T15:57:54Z</time>
      </trkpt>
      <trkpt lat="44.06914" lon="5.99081">
        <ele>462.1</ele>
        <time>2017-01-07T15:57:55Z</time>
      </trkpt>
      <trkpt lat="44.06911" lon="5.99086">
        <ele>462</ele>
        <time>2017-01-07T15:57:56Z</time>
      </trkpt>
      <trkpt lat="44.06908" lon="5.9909">
        <ele>462</ele>
        <time>2017-01-07T15:57:57Z</time>
      </trkpt>
      <trkpt lat="44.06906" lon="5.99093">
        <ele>461.9</ele>
        <time>2017-01-07T15:57:58Z</time>
      </trkpt>
      <trkpt lat="44.06903" lon="5.99097">
        <ele>461.9</ele>
        <time>2017-01-07T15:57:59Z</time>
      </trkpt>
      <trkpt lat="44.06901" lon="5.99101">
        <ele>461.9</ele>
        <time>2017-01-07T15:58:00Z</time>
      </trkpt>
      <trkpt lat="44.06898" lon="5.99104">
        <ele>461.8</ele>
        <time>2017-01-07T15:58:01Z</time>
      </trkpt>
      <trkpt lat="44.06895" lon="5.99109">
        <ele>461.8</ele>
        <time>2017-01-07T15:58:02Z</time>
      </trkpt>
      <trkpt lat="44.06892" lon="5.99114">
        <ele>461.7</ele>
        <time>2017-01-07T15:58:03Z</time>
      </trkpt>
      <trkpt lat="44.06889" lon="5.99119">
        <ele>461.7</ele>
        <time>2017-01-07T15:58:04Z</time>
      </trkpt>
      <trkpt lat="44.06887" lon="5.99123">
        <ele>461.6</ele>
        <time>2017-01-07T15:58:05Z</time>
      </trkpt>
      <trkpt lat="44.06884" lon="5.99128">
        <ele>461.6</ele>
        <time>2017-01-07T15:58:06Z</time>
      </trkpt>
      <trkpt lat="44.06881" lon="5.99133">
        <ele>461.6</ele>
        <time>2017-01-07T15:58:07Z</time>
      </trkpt>
      <trkpt lat="44.06878" lon="5.99137">
        <ele>461.5</ele>
        <time>2017-01-07T15:58:08Z</time>
      </trkpt>
      <trkpt lat="44.06875" lon="5.99142">
        <ele>461.5</ele>
        <time>2017-01-07T15:58:09Z</time>
      </trkpt>
      <trkpt lat="44.06872" lon="5.99146">
        <ele>461.4</ele>
        <time>2017-01-07T15:58:10Z</time>
      </trkpt>
      <trkpt lat="44.06869" lon="5.9915">
        <ele>461.4</ele>
        <time>2017-01-07T15:58:11Z</time>
      </trkpt>
      <trkpt lat="44.06866" lon="5.99154">
        <ele>461.3</ele>
        <time>2017-01-07T15:58:12Z</time>
      </trkpt>
      <trkpt lat="44.06863" lon="5.99157">
        <ele>461.3</ele>
        <time>2017-01-07T15:58:13Z</time>
      </trkpt>
      <trkpt lat="44.0686" lon="5.99161">
        <ele>461.2</ele>
        <time>2017-01-07T15:58:14Z</time>
      </trkpt>
      <trkpt lat="44.06857" lon="5.99165">
        <ele>461.2</ele>
        <time>2017-01-07T15:58:15Z</time>
      </trkpt>
      <trkpt lat="44.06854" lon="5.9917">
        <ele>461.1</ele>
        <time>2017-01-07T15:58:16Z</time>
      </trkpt>
      <trkpt lat="44.06851" lon="5.99175">
        <ele>461.1</ele>
        <time>2017-01-07T15:58:17Z</time>
      </trkpt>
      <trkpt lat="44.06848" lon="5.99179">
        <ele>461.1</ele>
        <time>2017-01-07T15:58:18Z</time>
      </trkpt>
      <trkpt lat="44.06845" lon="5.99184">
        <ele>461</ele>
        <time>2017-01-07T15:58:19Z</time>
      </trkpt>
      <trkpt lat="44.06841" lon="5.9919">
        <ele>461.1</ele>
        <time>2017-01-07T15:58:20Z</time>
      </trkpt>
      <trkpt lat="44.06834" lon="5.99199">
        <ele>461.4</ele>
        <time>2017-01-07T15:58:21Z</time>
      </trkpt>
      <trkpt lat="44.06832" lon="5.99203">
        <ele>461.5</ele>
        <time>2017-01-07T15:58:22Z</time>
      </trkpt>
      <trkpt lat="44.06828" lon="5.9921">
        <ele>461.6</ele>
        <time>2017-01-07T15:58:23Z</time>
      </trkpt>
      <trkpt lat="44.06825" lon="5.99215">
        <ele>461.7</ele>
        <time>2017-01-07T15:58:24Z</time>
      </trkpt>
      <trkpt lat="44.06822" lon="5.99219">
        <ele>461.8</ele>
        <time>2017-01-07T15:58:25Z</time>
      </trkpt>
      <trkpt lat="44.06817" lon="5.99227">
        <ele>461.8</ele>
        <time>2017-01-07T15:58:26Z</time>
      </trkpt>
      <trkpt lat="44.06813" lon="5.99235">
        <ele>461.9</ele>
        <time>2017-01-07T15:58:28Z</time>
      </trkpt>
      <trkpt lat="44.06806" lon="5.99241">
        <ele>462</ele>
        <time>2017-01-07T15:58:30Z</time>
      </trkpt>
      <trkpt lat="44.06804" lon="5.99245">
        <ele>462.1</ele>
        <time>2017-01-07T15:58:31Z</time>
      </trkpt>
      <trkpt lat="44.06802" lon="5.99251">
        <ele>462.2</ele>
        <time>2017-01-07T15:58:32Z</time>
      </trkpt>
      <trkpt lat="44.068" lon="5.99255">
        <ele>462.3</ele>
        <time>2017-01-07T15:58:33Z</time>
      </trkpt>
      <trkpt lat="44.06797" lon="5.99258">
        <ele>462.4</ele>
        <time>2017-01-07T15:58:34Z</time>
      </trkpt>
      <trkpt lat="44.06794" lon="5.9926">
        <ele>462.5</ele>
        <time>2017-01-07T15:58:35Z</time>
      </trkpt>
      <trkpt lat="44.06791" lon="5.99262">
        <ele>462.6</ele>
        <time>2017-01-07T15:58:36Z</time>
      </trkpt>
      <trkpt lat="44.06788" lon="5.99267">
        <ele>462.7</ele>
        <time>2017-01-07T15:58:37Z</time>
      </trkpt>
      <trkpt lat="44.06785" lon="5.99271">
        <ele>462.8</ele>
        <time>2017-01-07T15:58:38Z</time>
      </trkpt>
      <trkpt lat="44.06782" lon="5.99277">
        <ele>462.9</ele>
        <time>2017-01-07T15:58:39Z</time>
      </trkpt>
      <trkpt lat="44.06779" lon="5.99289">
        <ele>463.1</ele>
        <time>2017-01-07T15:58:40Z</time>
      </trkpt>
      <trkpt lat="44.06782" lon="5.99293">
        <ele>463.1</ele>
        <time>2017-01-07T15:58:41Z</time>
      </trkpt>
      <trkpt lat="44.06784" lon="5.99298">
        <ele>463.2</ele>
        <time>2017-01-07T15:58:42Z</time>
      </trkpt>
      <trkpt lat="44.06787" lon="5.993">
        <ele>463.3</ele>
        <time>2017-01-07T15:58:43Z</time>
      </trkpt>
      <trkpt lat="44.06789" lon="5.99304">
        <ele>463.4</ele>
        <time>2017-01-07T15:58:44Z</time>
      </trkpt>
      <trkpt lat="44.06793" lon="5.9931">
        <ele>463.5</ele>
        <time>2017-01-07T15:58:45Z</time>
      </trkpt>
      <trkpt lat="44.06795" lon="5.99314">
        <ele>463.6</ele>
        <time>2017-01-07T15:58:46Z</time>
      </trkpt>
      <trkpt lat="44.06799" lon="5.99318">
        <ele>463.7</ele>
        <time>2017-01-07T15:58:47Z</time>
      </trkpt>
      <trkpt lat="44.06801" lon="5.99323">
        <ele>463.7</ele>
        <time>2017-01-07T15:58:48Z</time>
      </trkpt>
      <trkpt lat="44.06807" lon="5.99327">
        <ele>463.9</ele>
        <time>2017-01-07T15:58:49Z</time>
      </trkpt>
      <trkpt lat="44.06811" lon="5.99331">
        <ele>463.9</ele>
        <time>2017-01-07T15:58:50Z</time>
      </trkpt>
      <trkpt lat="44.06814" lon="5.99336">
        <ele>464</ele>
        <time>2017-01-07T15:58:51Z</time>
      </trkpt>
      <trkpt lat="44.06816" lon="5.9934">
        <ele>464.1</ele>
        <time>2017-01-07T15:58:52Z</time>
      </trkpt>
      <trkpt lat="44.0682" lon="5.99344">
        <ele>464.2</ele>
        <time>2017-01-07T15:58:53Z</time>
      </trkpt>
      <trkpt lat="44.06824" lon="5.99348">
        <ele>464.3</ele>
        <time>2017-01-07T15:58:54Z</time>
      </trkpt>
      <trkpt lat="44.06826" lon="5.99353">
        <ele>464.4</ele>
        <time>2017-01-07T15:58:55Z</time>
      </trkpt>
      <trkpt lat="44.0683" lon="5.99356">
        <ele>464.5</ele>
        <time>2017-01-07T15:58:56Z</time>
      </trkpt>
      <trkpt lat="44.06835" lon="5.99361">
        <ele>464.5</ele>
        <time>2017-01-07T15:58:57Z</time>
      </trkpt>
      <trkpt lat="44.06838" lon="5.99366">
        <ele>464.4</ele>
        <time>2017-01-07T15:58:58Z</time>
      </trkpt>
      <trkpt lat="44.06841" lon="5.99369">
        <ele>464.3</ele>
        <time>2017-01-07T15:58:59Z</time>
      </trkpt>
      <trkpt lat="44.06845" lon="5.99374">
        <ele>464.2</ele>
        <time>2017-01-07T15:59:00Z</time>
      </trkpt>
      <trkpt lat="44.06848" lon="5.99377">
        <ele>464.2</ele>
        <time>2017-01-07T15:59:01Z</time>
      </trkpt>
      <trkpt lat="44.06851" lon="5.99382">
        <ele>464.1</ele>
        <time>2017-01-07T15:59:02Z</time>
      </trkpt>
      <trkpt lat="44.06855" lon="5.99386">
        <ele>464.1</ele>
        <time>2017-01-07T15:59:03Z</time>
      </trkpt>
      <trkpt lat="44.06858" lon="5.9939">
        <ele>464</ele>
        <time>2017-01-07T15:59:04Z</time>
      </trkpt>
      <trkpt lat="44.06861" lon="5.99395">
        <ele>464</ele>
        <time>2017-01-07T15:59:05Z</time>
      </trkpt>
      <trkpt lat="44.06864" lon="5.994">
        <ele>463.9</ele>
        <time>2017-01-07T15:59:06Z</time>
      </trkpt>
      <trkpt lat="44.06868" lon="5.99404">
        <ele>463.8</ele>
        <time>2017-01-07T15:59:07Z</time>
      </trkpt>
      <trkpt lat="44.0687" lon="5.99407">
        <ele>463.8</ele>
        <time>2017-01-07T15:59:08Z</time>
      </trkpt>
      <trkpt lat="44.06873" lon="5.99411">
        <ele>463.8</ele>
        <time>2017-01-07T15:59:09Z</time>
      </trkpt>
      <trkpt lat="44.06876" lon="5.99415">
        <ele>463.8</ele>
        <time>2017-01-07T15:59:10Z</time>
      </trkpt>
      <trkpt lat="44.06879" lon="5.99418">
        <ele>463.9</ele>
        <time>2017-01-07T15:59:11Z</time>
      </trkpt>
      <trkpt lat="44.06882" lon="5.99425">
        <ele>463.9</ele>
        <time>2017-01-07T15:59:13Z</time>
      </trkpt>
      <trkpt lat="44.06883" lon="5.99428">
        <ele>463.8</ele>
        <time>2017-01-07T15:59:14Z</time>
      </trkpt>
      <trkpt lat="44.06885" lon="5.99433">
        <ele>463.8</ele>
        <time>2017-01-07T15:59:15Z</time>
      </trkpt>
      <trkpt lat="44.06888" lon="5.99439">
        <ele>463.5</ele>
        <time>2017-01-07T15:59:17Z</time>
      </trkpt>
      <trkpt lat="44.0689" lon="5.99444">
        <ele>463.3</ele>
        <time>2017-01-07T15:59:19Z</time>
      </trkpt>
      <trkpt lat="44.06892" lon="5.99447">
        <ele>463.2</ele>
        <time>2017-01-07T15:59:20Z</time>
      </trkpt>
      <trkpt lat="44.06894" lon="5.9945">
        <ele>463.1</ele>
        <time>2017-01-07T15:59:21Z</time>
      </trkpt>
      <trkpt lat="44.06897" lon="5.99453">
        <ele>463</ele>
        <time>2017-01-07T15:59:22Z</time>
      </trkpt>
      <trkpt lat="44.069" lon="5.99456">
        <ele>462.8</ele>
        <time>2017-01-07T15:59:23Z</time>
      </trkpt>
      <trkpt lat="44.06902" lon="5.99459">
        <ele>462.7</ele>
        <time>2017-01-07T15:59:24Z</time>
      </trkpt>
      <trkpt lat="44.06904" lon="5.99462">
        <ele>462.6</ele>
        <time>2017-01-07T15:59:25Z</time>
      </trkpt>
      <trkpt lat="44.06908" lon="5.99468">
        <ele>462.3</ele>
        <time>2017-01-07T15:59:27Z</time>
      </trkpt>
      <trkpt lat="44.0691" lon="5.99471">
        <ele>462.2</ele>
        <time>2017-01-07T15:59:28Z</time>
      </trkpt>
      <trkpt lat="44.06912" lon="5.99474">
        <ele>462.2</ele>
        <time>2017-01-07T15:59:29Z</time>
      </trkpt>
      <trkpt lat="44.06915" lon="5.99477">
        <ele>462.1</ele>
        <time>2017-01-07T15:59:30Z</time>
      </trkpt>
      <trkpt lat="44.06917" lon="5.99481">
        <ele>462.2</ele>
        <time>2017-01-07T15:59:31Z</time>
      </trkpt>
      <trkpt lat="44.0692" lon="5.99485">
        <ele>462.2</ele>
        <time>2017-01-07T15:59:32Z</time>
      </trkpt>
      <trkpt lat="44.06923" lon="5.99488">
        <ele>462.3</ele>
        <time>2017-01-07T15:59:33Z</time>
      </trkpt>
      <trkpt lat="44.06926" lon="5.99491">
        <ele>462.5</ele>
        <time>2017-01-07T15:59:34Z</time>
      </trkpt>
      <trkpt lat="44.06928" lon="5.99495">
        <ele>462.6</ele>
        <time>2017-01-07T15:59:35Z</time>
      </trkpt>
      <trkpt lat="44.06931" lon="5.99498">
        <ele>462.7</ele>
        <time>2017-01-07T15:59:36Z</time>
      </trkpt>
      <trkpt lat="44.06934" lon="5.99501">
        <ele>462.8</ele>
        <time>2017-01-07T15:59:37Z</time>
      </trkpt>
      <trkpt lat="44.06936" lon="5.99504">
        <ele>462.9</ele>
        <time>2017-01-07T15:59:38Z</time>
      </trkpt>
      <trkpt lat="44.06939" lon="5.99507">
        <ele>463.1</ele>
        <time>2017-01-07T15:59:39Z</time>
      </trkpt>
      <trkpt lat="44.06942" lon="5.9951">
        <ele>463.3</ele>
        <time>2017-01-07T15:59:40Z</time>
      </trkpt>
      <trkpt lat="44.06945" lon="5.99513">
        <ele>463.5</ele>
        <time>2017-01-07T15:59:41Z</time>
      </trkpt>
      <trkpt lat="44.06947" lon="5.99515">
        <ele>463.8</ele>
        <time>2017-01-07T15:59:42Z</time>
      </trkpt>
      <trkpt lat="44.06949" lon="5.99518">
        <ele>464</ele>
        <time>2017-01-07T15:59:43Z</time>
      </trkpt>
      <trkpt lat="44.06951" lon="5.99522">
        <ele>464.1</ele>
        <time>2017-01-07T15:59:44Z</time>
      </trkpt>
      <trkpt lat="44.06952" lon="5.99526">
        <ele>464.2</ele>
        <time>2017-01-07T15:59:45Z</time>
      </trkpt>
      <trkpt lat="44.06952" lon="5.99529">
        <ele>464.3</ele>
        <time>2017-01-07T15:59:46Z</time>
      </trkpt>
      <trkpt lat="44.06949" lon="5.99535">
        <ele>464.4</ele>
        <time>2017-01-07T15:59:48Z</time>
      </trkpt>
      <trkpt lat="44.06947" lon="5.99538">
        <ele>464.5</ele>
        <time>2017-01-07T15:59:49Z</time>
      </trkpt>
      <trkpt lat="44.06944" lon="5.99542">
        <ele>464.6</ele>
        <time>2017-01-07T15:59:50Z</time>
      </trkpt>
      <trkpt lat="44.06941" lon="5.99545">
        <ele>464.6</ele>
        <time>2017-01-07T15:59:51Z</time>
      </trkpt>
      <trkpt lat="44.06938" lon="5.99548">
        <ele>464.7</ele>
        <time>2017-01-07T15:59:52Z</time>
      </trkpt>
      <trkpt lat="44.06935" lon="5.99552">
        <ele>464.9</ele>
        <time>2017-01-07T15:59:53Z</time>
      </trkpt>
      <trkpt lat="44.06932" lon="5.99557">
        <ele>465.1</ele>
        <time>2017-01-07T15:59:54Z</time>
      </trkpt>
      <trkpt lat="44.06929" lon="5.99561">
        <ele>465.1</ele>
        <time>2017-01-07T15:59:55Z</time>
      </trkpt>
      <trkpt lat="44.06926" lon="5.99564">
        <ele>465.2</ele>
        <time>2017-01-07T15:59:56Z</time>
      </trkpt>
      <trkpt lat="44.06924" lon="5.99568">
        <ele>465.3</ele>
        <time>2017-01-07T15:59:57Z</time>
      </trkpt>
      <trkpt lat="44.06921" lon="5.99572">
        <ele>465.3</ele>
        <time>2017-01-07T15:59:58Z</time>
      </trkpt>
      <trkpt lat="44.06918" lon="5.99576">
        <ele>465.4</ele>
        <time>2017-01-07T15:59:59Z</time>
      </trkpt>
      <trkpt lat="44.06915" lon="5.9958">
        <ele>465.5</ele>
        <time>2017-01-07T16:00:00Z</time>
      </trkpt>
      <trkpt lat="44.06912" lon="5.99584">
        <ele>465.6</ele>
        <time>2017-01-07T16:00:01Z</time>
      </trkpt>
      <trkpt lat="44.06909" lon="5.99588">
        <ele>465.7</ele>
        <time>2017-01-07T16:00:02Z</time>
      </trkpt>
      <trkpt lat="44.06906" lon="5.99592">
        <ele>465.7</ele>
        <time>2017-01-07T16:00:03Z</time>
      </trkpt>
      <trkpt lat="44.06904" lon="5.99595">
        <ele>465.8</ele>
        <time>2017-01-07T16:00:04Z</time>
      </trkpt>
      <trkpt lat="44.06902" lon="5.99599">
        <ele>465.9</ele>
        <time>2017-01-07T16:00:05Z</time>
      </trkpt>
      <trkpt lat="44.069" lon="5.99605">
        <ele>466</ele>
        <time>2017-01-07T16:00:07Z</time>
      </trkpt>
      <trkpt lat="44.06899" lon="5.99611">
        <ele>466</ele>
        <time>2017-01-07T16:00:09Z</time>
      </trkpt>
      <trkpt lat="44.06897" lon="5.99617">
        <ele>466</ele>
        <time>2017-01-07T16:00:11Z</time>
      </trkpt>
      <trkpt lat="44.06896" lon="5.99622">
        <ele>465.9</ele>
        <time>2017-01-07T16:00:13Z</time>
      </trkpt>
      <trkpt lat="44.06897" lon="5.99628">
        <ele>465.8</ele>
        <time>2017-01-07T16:00:15Z</time>
      </trkpt>
      <trkpt lat="44.06899" lon="5.99628">
        <ele>465.7</ele>
        <time>2017-01-07T16:00:18Z</time>
      </trkpt>
    </trkseg>
  </trk>
</gpx>